<?xml version='1.0' encoding='UTF-8'?><gpx version="1.1" creator="JPX - https://github.com/jenetics/jpx" xmlns="http://www.topografix.com/GPX/1/1"><trk><trkseg><trkpt lat="44.36453883398264" lon="11.71406420695806"><ele>42.0</ele><time>2026-04-18T07:57:40.081Z</time></trkpt><trkpt lat="44.364507806346026" lon="11.71414148552131"><ele>42.0</ele><time>2026-04-18T07:58:00.008Z</time></trkpt><trkpt lat="44.36456492660764" lon="11.714198923371628"><ele>42.0</ele><time>2026-04-18T07:58:06.005Z</time></trkpt><trkpt lat="44.36462739445615" lon="11.714242375233841"><ele>42.0</ele><time>2026-04-18T07:58:10.008Z</time></trkpt><trkpt lat="44.36457214558223" lon="11.714342543875492"><ele>42.0</ele><time>2026-04-18T07:58:12.011Z</time></trkpt><trkpt lat="44.36451879147741" lon="11.714443855275114"><ele>42.0</ele><time>2026-04-18T07:58:15.006Z</time></trkpt><trkpt lat="44.36448332091425" lon="11.714547743098496"><ele>42.0</ele><time>2026-04-18T07:58:18.007Z</time></trkpt><trkpt lat="44.364447616669665" lon="11.714626576121521"><ele>42.0</ele><time>2026-04-18T07:58:20.007Z</time></trkpt><trkpt lat="44.364407132251074" lon="11.714713284168425"><ele>42.0</ele><time>2026-04-18T07:58:22.005Z</time></trkpt><trkpt lat="44.36438147205878" lon="11.714816910382133"><ele>42.0</ele><time>2026-04-18T07:58:24.008Z</time></trkpt><trkpt lat="44.364433415375196" lon="11.714915649575437"><ele>42.0</ele><time>2026-04-18T07:58:26.007Z</time></trkpt><trkpt lat="44.364390479753624" lon="11.715003971747434"><ele>42.0</ele><time>2026-04-18T07:58:28.008Z</time></trkpt><trkpt lat="44.36434401949202" lon="11.71510676393365"><ele>42.0</ele><time>2026-04-18T07:58:30.007Z</time></trkpt><trkpt lat="44.3642930351734" lon="11.715208551574792"><ele>42.0</ele><time>2026-04-18T07:58:32.008Z</time></trkpt><trkpt lat="44.36423760471141" lon="11.715330186384458"><ele>42.0</ele><time>2026-04-18T07:58:34.008Z</time></trkpt><trkpt lat="44.364168108671045" lon="11.715448125275941"><ele>42.0</ele><time>2026-04-18T07:58:36.006Z</time></trkpt><trkpt lat="44.364066487172686" lon="11.715379670345275"><ele>42.0</ele><time>2026-04-18T07:58:38.006Z</time></trkpt><trkpt lat="44.363974239075915" lon="11.715300860758735"><ele>42.0</ele><time>2026-04-18T07:58:40.007Z</time></trkpt><trkpt lat="44.36389246376788" lon="11.715218134101688"><ele>42.0</ele><time>2026-04-18T07:58:42.004Z</time></trkpt><trkpt lat="44.363801567841755" lon="11.715148304503426"><ele>42.0</ele><time>2026-04-18T07:58:44.008Z</time></trkpt><trkpt lat="44.3637018953841" lon="11.715099708141063"><ele>42.0</ele><time>2026-04-18T07:58:46.006Z</time></trkpt><trkpt lat="44.363613738637675" lon="11.715030107791554"><ele>42.0</ele><time>2026-04-18T07:58:48.008Z</time></trkpt><trkpt lat="44.36353093234986" lon="11.71494029351355"><ele>41.8</ele><time>2026-04-18T07:58:50.008Z</time></trkpt><trkpt lat="44.36343708381277" lon="11.714870198645452"><ele>41.6</ele><time>2026-04-18T07:58:52.007Z</time></trkpt><trkpt lat="44.36333761744676" lon="11.714812108699583"><ele>41.4</ele><time>2026-04-18T07:58:54.006Z</time></trkpt><trkpt lat="44.363250423088196" lon="11.714738787975024"><ele>41.199999999999996</ele><time>2026-04-18T07:58:56.007Z</time></trkpt><trkpt lat="44.36316337557864" lon="11.714666007171328"><ele>41.0</ele><time>2026-04-18T07:58:58.006Z</time></trkpt><trkpt lat="44.36307950291398" lon="11.71459903067617"><ele>41.0</ele><time>2026-04-18T07:59:00.007Z</time></trkpt><trkpt lat="44.36298904565709" lon="11.714528070761391"><ele>41.0</ele><time>2026-04-18T07:59:02.007Z</time></trkpt><trkpt lat="44.36290400057254" lon="11.714437648043024"><ele>41.0</ele><time>2026-04-18T07:59:04.006Z</time></trkpt><trkpt lat="44.36280721170906" lon="11.714394297331653"><ele>41.0</ele><time>2026-04-18T07:59:06.007Z</time></trkpt><trkpt lat="44.36271825998557" lon="11.71432087342944"><ele>41.0</ele><time>2026-04-18T07:59:08.006Z</time></trkpt><trkpt lat="44.362632733732866" lon="11.714236798857746"><ele>41.0</ele><time>2026-04-18T07:59:10.008Z</time></trkpt><trkpt lat="44.362527686084675" lon="11.71419048992407"><ele>41.0</ele><time>2026-04-18T07:59:12.007Z</time></trkpt><trkpt lat="44.36243122594517" lon="11.714136401472727"><ele>41.0</ele><time>2026-04-18T07:59:14.008Z</time></trkpt><trkpt lat="44.36234786532858" lon="11.714057272770921"><ele>41.0</ele><time>2026-04-18T07:59:16.004Z</time></trkpt><trkpt lat="44.362266445910976" lon="11.713971530208505"><ele>41.0</ele><time>2026-04-18T07:59:18.007Z</time></trkpt><trkpt lat="44.362181264498886" lon="11.713881801315958"><ele>41.0</ele><time>2026-04-18T07:59:20.006Z</time></trkpt><trkpt lat="44.362089925682405" lon="11.713797731235703"><ele>41.0</ele><time>2026-04-18T07:59:22.003Z</time></trkpt><trkpt lat="44.361987600462825" lon="11.713699457829616"><ele>41.0</ele><time>2026-04-18T07:59:24.007Z</time></trkpt><trkpt lat="44.36193056423214" lon="11.713646986754666"><ele>41.0</ele><time>2026-04-18T07:59:25.005Z</time></trkpt><trkpt lat="44.36187853697095" lon="11.713595806064815"><ele>41.0</ele><time>2026-04-18T07:59:26.005Z</time></trkpt><trkpt lat="44.361819860066156" lon="11.713544257741537"><ele>41.0</ele><time>2026-04-18T07:59:27.005Z</time></trkpt><trkpt lat="44.361759161013545" lon="11.71348893732321"><ele>41.199999999999996</ele><time>2026-04-18T07:59:28.007Z</time></trkpt><trkpt lat="44.361699658415496" lon="11.713437243672212"><ele>41.4</ele><time>2026-04-18T07:59:29.006Z</time></trkpt><trkpt lat="44.36163994023182" lon="11.713394069118857"><ele>41.6</ele><time>2026-04-18T07:59:30.006Z</time></trkpt><trkpt lat="44.36157523692094" lon="11.713325472411697"><ele>41.8</ele><time>2026-04-18T07:59:32.002Z</time></trkpt><trkpt lat="44.361435830022245" lon="11.713209299738395"><ele>42.0</ele><time>2026-04-18T07:59:34Z</time></trkpt><trkpt lat="44.36136900295154" lon="11.713170838258481"><ele>42.2</ele><time>2026-04-18T07:59:35.006Z</time></trkpt><trkpt lat="44.361256298499086" lon="11.713115227520843"><ele>42.400000000000006</ele><time>2026-04-18T07:59:37.005Z</time></trkpt><trkpt lat="44.361159060693694" lon="11.7130513484796"><ele>42.599999999999994</ele><time>2026-04-18T07:59:39.005Z</time></trkpt><trkpt lat="44.36106386881502" lon="11.712989611293292"><ele>42.8</ele><time>2026-04-18T07:59:41.004Z</time></trkpt><trkpt lat="44.36096841005748" lon="11.712946163964377"><ele>43.0</ele><time>2026-04-18T07:59:43.013Z</time></trkpt><trkpt lat="44.36087878801502" lon="11.712902953367239"><ele>43.0</ele><time>2026-04-18T07:59:45.004Z</time></trkpt><trkpt lat="44.360796110795185" lon="11.712875334325743"><ele>43.0</ele><time>2026-04-18T07:59:47.007Z</time></trkpt><trkpt lat="44.36071832406483" lon="11.712847491636762"><ele>43.0</ele><time>2026-04-18T07:59:49.004Z</time></trkpt><trkpt lat="44.36062999443454" lon="11.712826021916387"><ele>43.0</ele><time>2026-04-18T07:59:50.983Z</time></trkpt><trkpt lat="44.360550684815635" lon="11.712790952528358"><ele>43.0</ele><time>2026-04-18T07:59:52.985Z</time></trkpt><trkpt lat="44.36046819951536" lon="11.712760357755606"><ele>43.0</ele><time>2026-04-18T07:59:54.987Z</time></trkpt><trkpt lat="44.36039906704581" lon="11.712733670925857"><ele>43.42857142857143</ele><time>2026-04-18T07:59:56.988Z</time></trkpt><trkpt lat="44.360326698262575" lon="11.71270884722891"><ele>43.85714285714286</ele><time>2026-04-18T07:59:58.99Z</time></trkpt><trkpt lat="44.36026450541855" lon="11.71268679877692"><ele>44.28571428571429</ele><time>2026-04-18T08:00:00.991Z</time></trkpt><trkpt lat="44.36019620584208" lon="11.712655147785519"><ele>44.714285714285715</ele><time>2026-04-18T08:00:03.993Z</time></trkpt><trkpt lat="44.360131642067444" lon="11.712628981934483"><ele>45.14285714285714</ele><time>2026-04-18T08:00:06.994Z</time></trkpt><trkpt lat="44.36006476218042" lon="11.71259590856328"><ele>45.57142857142858</ele><time>2026-04-18T08:00:11.996Z</time></trkpt><trkpt lat="44.3599913714982" lon="11.712537206265571"><ele>46.0</ele><time>2026-04-18T08:00:14.997Z</time></trkpt><trkpt lat="44.35991401868576" lon="11.712465439055944"><ele>46.0</ele><time>2026-04-18T08:00:16.997Z</time></trkpt><trkpt lat="44.3598153978712" lon="11.71240438708352"><ele>46.0</ele><time>2026-04-18T08:00:18.997Z</time></trkpt><trkpt lat="44.35971600238807" lon="11.712324432718225"><ele>46.0</ele><time>2026-04-18T08:00:20.998Z</time></trkpt><trkpt lat="44.35961789353865" lon="11.712237374703836"><ele>46.0</ele><time>2026-04-18T08:00:22.998Z</time></trkpt><trkpt lat="44.35951948700635" lon="11.71215315516979"><ele>46.0</ele><time>2026-04-18T08:00:24.998Z</time></trkpt><trkpt lat="44.35942703789153" lon="11.71206760774662"><ele>46.0</ele><time>2026-04-18T08:00:26.998Z</time></trkpt><trkpt lat="44.35932588168746" lon="11.711981877230128"><ele>46.0</ele><time>2026-04-18T08:00:28.999Z</time></trkpt><trkpt lat="44.35922159672736" lon="11.711891098841368"><ele>46.0</ele><time>2026-04-18T08:00:30.999Z</time></trkpt><trkpt lat="44.35912064353594" lon="11.711807340413861"><ele>46.199999999999996</ele><time>2026-04-18T08:00:32.999Z</time></trkpt><trkpt lat="44.35902635370411" lon="11.71172417546423"><ele>46.4</ele><time>2026-04-18T08:00:34.999Z</time></trkpt><trkpt lat="44.35893037737341" lon="11.711644226150886"><ele>46.6</ele><time>2026-04-18T08:00:36.999Z</time></trkpt><trkpt lat="44.35885048061085" lon="11.711551156934563"><ele>46.8</ele><time>2026-04-18T08:00:38.999Z</time></trkpt><trkpt lat="44.35874687450188" lon="11.711487684753783"><ele>47.0</ele><time>2026-04-18T08:00:40.999Z</time></trkpt><trkpt lat="44.35865834668318" lon="11.711404525004188"><ele>47.0</ele><time>2026-04-18T08:00:42.999Z</time></trkpt><trkpt lat="44.35856256972816" lon="11.711324299329036"><ele>47.0</ele><time>2026-04-18T08:00:44.999Z</time></trkpt><trkpt lat="44.35846994403933" lon="11.711238419828264"><ele>47.0</ele><time>2026-04-18T08:00:47Z</time></trkpt><trkpt lat="44.358382655314514" lon="11.71114045303811"><ele>47.0</ele><time>2026-04-18T08:00:49Z</time></trkpt><trkpt lat="44.3583013110038" lon="11.711059706452948"><ele>47.0</ele><time>2026-04-18T08:00:51Z</time></trkpt><trkpt lat="44.35821716828679" lon="11.710978162935534"><ele>47.33333333333333</ele><time>2026-04-18T08:00:53Z</time></trkpt><trkpt lat="44.35813853993443" lon="11.710903825867977"><ele>47.666666666666664</ele><time>2026-04-18T08:00:55Z</time></trkpt><trkpt lat="44.3580740764871" lon="11.710856924039069"><ele>48.0</ele><time>2026-04-18T08:00:57Z</time></trkpt><trkpt lat="44.3580043824685" lon="11.710820842854503"><ele>48.33333333333333</ele><time>2026-04-18T08:01:01Z</time></trkpt><trkpt lat="44.3579680654964" lon="11.710737361721227"><ele>48.666666666666664</ele><time>2026-04-18T08:01:12Z</time></trkpt><trkpt lat="44.35790459621926" lon="11.710737402882296"><ele>49.0</ele><time>2026-04-18T08:01:14Z</time></trkpt><trkpt lat="44.35783560465471" lon="11.710849789503172"><ele>49.2</ele><time>2026-04-18T08:01:16Z</time></trkpt><trkpt lat="44.35779324676271" lon="11.710974397674457"><ele>49.400000000000006</ele><time>2026-04-18T08:01:18Z</time></trkpt><trkpt lat="44.35774806328126" lon="11.711111712698546"><ele>49.6</ele><time>2026-04-18T08:01:20Z</time></trkpt><trkpt lat="44.35769843284127" lon="11.711241483206248"><ele>49.8</ele><time>2026-04-18T08:01:22Z</time></trkpt><trkpt lat="44.35764285351762" lon="11.711397048810603"><ele>50.0</ele><time>2026-04-18T08:01:24Z</time></trkpt><trkpt lat="44.3575922570767" lon="11.711530530088844"><ele>49.5</ele><time>2026-04-18T08:01:26Z</time></trkpt><trkpt lat="44.357540819399325" lon="11.7116713675267"><ele>49.0</ele><time>2026-04-18T08:01:28Z</time></trkpt><trkpt lat="44.35748272858929" lon="11.711808925309896"><ele>48.5</ele><time>2026-04-18T08:01:30Z</time></trkpt><trkpt lat="44.35742896785665" lon="11.711945597630235"><ele>48.0</ele><time>2026-04-18T08:01:32Z</time></trkpt><trkpt lat="44.35736868646861" lon="11.712082753557075"><ele>48.0</ele><time>2026-04-18T08:01:34Z</time></trkpt><trkpt lat="44.35732667788579" lon="11.712206155952902"><ele>48.0</ele><time>2026-04-18T08:01:36Z</time></trkpt><trkpt lat="44.35726671508073" lon="11.712333327270189"><ele>48.0</ele><time>2026-04-18T08:01:38Z</time></trkpt><trkpt lat="44.35721840379818" lon="11.712459297004006"><ele>48.0</ele><time>2026-04-18T08:01:40Z</time></trkpt><trkpt lat="44.357163815976534" lon="11.712584757445109"><ele>48.0</ele><time>2026-04-18T08:01:41.999Z</time></trkpt><trkpt lat="44.3571081891576" lon="11.712702623336064"><ele>47.8</ele><time>2026-04-18T08:01:43.999Z</time></trkpt><trkpt lat="44.357057733342" lon="11.712810670468537"><ele>47.599999999999994</ele><time>2026-04-18T08:01:45.999Z</time></trkpt><trkpt lat="44.357003870242" lon="11.71292460150735"><ele>47.400000000000006</ele><time>2026-04-18T08:01:47.999Z</time></trkpt><trkpt lat="44.35694710843236" lon="11.713041146424118"><ele>47.2</ele><time>2026-04-18T08:01:49.999Z</time></trkpt><trkpt lat="44.35689230951308" lon="11.713167422216369"><ele>47.0</ele><time>2026-04-18T08:01:51.999Z</time></trkpt><trkpt lat="44.35683285827865" lon="11.713295347787632"><ele>47.0</ele><time>2026-04-18T08:01:53.999Z</time></trkpt><trkpt lat="44.35677428309025" lon="11.713425995373862"><ele>47.0</ele><time>2026-04-18T08:01:55.998Z</time></trkpt><trkpt lat="44.356715019738" lon="11.713549531072053"><ele>47.0</ele><time>2026-04-18T08:01:57.998Z</time></trkpt><trkpt lat="44.356661927021975" lon="11.71368433928083"><ele>47.0</ele><time>2026-04-18T08:01:59.998Z</time></trkpt><trkpt lat="44.356609132909625" lon="11.713823195535673"><ele>47.0</ele><time>2026-04-18T08:02:01.998Z</time></trkpt><trkpt lat="44.35655687635982" lon="11.713953117070043"><ele>47.400000000000006</ele><time>2026-04-18T08:02:03.998Z</time></trkpt><trkpt lat="44.35650538757983" lon="11.714086828894738"><ele>47.800000000000004</ele><time>2026-04-18T08:02:05.998Z</time></trkpt><trkpt lat="44.35645388671853" lon="11.714210667432372"><ele>48.2</ele><time>2026-04-18T08:02:07.999Z</time></trkpt><trkpt lat="44.356405095581756" lon="11.714334820559698"><ele>48.6</ele><time>2026-04-18T08:02:09.999Z</time></trkpt><trkpt lat="44.356368756101666" lon="11.714476156809093"><ele>49.0</ele><time>2026-04-18T08:02:11.999Z</time></trkpt><trkpt lat="44.35633581290553" lon="11.714626867731871"><ele>49.25</ele><time>2026-04-18T08:02:13.999Z</time></trkpt><trkpt lat="44.35628149393808" lon="11.714774609786236"><ele>49.5</ele><time>2026-04-18T08:02:15.999Z</time></trkpt><trkpt lat="44.35623475691053" lon="11.714918185198709"><ele>49.75</ele><time>2026-04-18T08:02:17.999Z</time></trkpt><trkpt lat="44.356182548512294" lon="11.715071078043866"><ele>50.0</ele><time>2026-04-18T08:02:19.999Z</time></trkpt><trkpt lat="44.35613102055511" lon="11.715228384103426"><ele>50.0</ele><time>2026-04-18T08:02:21.999Z</time></trkpt><trkpt lat="44.35608477151077" lon="11.715385148875407"><ele>50.0</ele><time>2026-04-18T08:02:23.999Z</time></trkpt><trkpt lat="44.35603497827525" lon="11.715531631782655"><ele>50.0</ele><time>2026-04-18T08:02:25.999Z</time></trkpt><trkpt lat="44.35598504304806" lon="11.715685896483304"><ele>50.0</ele><time>2026-04-18T08:02:27.999Z</time></trkpt><trkpt lat="44.35593597463552" lon="11.715831926566766"><ele>50.00000000000001</ele><time>2026-04-18T08:02:29.999Z</time></trkpt><trkpt lat="44.35589993932536" lon="11.715931020982977"><ele>50.0</ele><time>2026-04-18T08:02:31.999Z</time></trkpt><trkpt lat="44.355842555628044" lon="11.715986677028196"><ele>50.0</ele><time>2026-04-18T08:02:34Z</time></trkpt><trkpt lat="44.35577192314041" lon="11.715952077760273"><ele>50.0</ele><time>2026-04-18T08:02:36Z</time></trkpt><trkpt lat="44.35570478067455" lon="11.71589363605904"><ele>50.0</ele><time>2026-04-18T08:02:38Z</time></trkpt><trkpt lat="44.35564905141073" lon="11.715848079675302"><ele>50.00000000000001</ele><time>2026-04-18T08:02:40Z</time></trkpt><trkpt lat="44.35559197834417" lon="11.715808376368432"><ele>50.0</ele><time>2026-04-18T08:02:43Z</time></trkpt><trkpt lat="44.35555920614324" lon="11.715966202916274"><ele>49.8</ele><time>2026-04-18T08:02:45Z</time></trkpt><trkpt lat="44.355518578649985" lon="11.71609814296195"><ele>49.6</ele><time>2026-04-18T08:02:47Z</time></trkpt><trkpt lat="44.355473576907016" lon="11.716241479400553"><ele>49.400000000000006</ele><time>2026-04-18T08:02:49Z</time></trkpt><trkpt lat="44.35542387039372" lon="11.71639122707551"><ele>49.2</ele><time>2026-04-18T08:02:51Z</time></trkpt><trkpt lat="44.355408713375816" lon="11.71647688791621"><ele>49.0</ele><time>2026-04-18T08:02:52Z</time></trkpt><trkpt lat="44.35535919855037" lon="11.716636913135648"><ele>49.0</ele><time>2026-04-18T08:02:54Z</time></trkpt><trkpt lat="44.355319925234205" lon="11.716720568754846"><ele>49.0</ele><time>2026-04-18T08:02:55Z</time></trkpt><trkpt lat="44.355290906322764" lon="11.716814059951705"><ele>49.0</ele><time>2026-04-18T08:02:56Z</time></trkpt><trkpt lat="44.35526506873788" lon="11.716909511662694"><ele>49.0</ele><time>2026-04-18T08:02:57Z</time></trkpt><trkpt lat="44.35524199558698" lon="11.717006068551703"><ele>49.0</ele><time>2026-04-18T08:02:58Z</time></trkpt><trkpt lat="44.35522018965678" lon="11.717098299452145"><ele>49.0</ele><time>2026-04-18T08:02:59Z</time></trkpt><trkpt lat="44.35519536334734" lon="11.71718060187466"><ele>49.0</ele><time>2026-04-18T08:03:00Z</time></trkpt><trkpt lat="44.3551487511119" lon="11.717334617370106"><ele>48.83333333333333</ele><time>2026-04-18T08:03:02Z</time></trkpt><trkpt lat="44.355106977338174" lon="11.717454991999453"><ele>48.666666666666664</ele><time>2026-04-18T08:03:04Z</time></trkpt><trkpt lat="44.35507312152033" lon="11.717563687153246"><ele>48.5</ele><time>2026-04-18T08:03:06Z</time></trkpt><trkpt lat="44.355029384578906" lon="11.717685788650547"><ele>48.33333333333333</ele><time>2026-04-18T08:03:09Z</time></trkpt><trkpt lat="44.354996421630425" lon="11.71778798476877"><ele>48.166666666666664</ele><time>2026-04-18T08:03:11Z</time></trkpt><trkpt lat="44.3549677046082" lon="11.717868409447073"><ele>48.0</ele><time>2026-04-18T08:03:13Z</time></trkpt><trkpt lat="44.35494146935455" lon="11.717957784837044"><ele>47.666666666666664</ele><time>2026-04-18T08:03:16Z</time></trkpt><trkpt lat="44.354897519876914" lon="11.718060679351149"><ele>47.333333333333336</ele><time>2026-04-18T08:03:20Z</time></trkpt><trkpt lat="44.3548813080008" lon="11.718154343431562"><ele>47.0</ele><time>2026-04-18T08:03:22Z</time></trkpt><trkpt lat="44.35485306836089" lon="11.71825538948101"><ele>46.66666666666667</ele><time>2026-04-18T08:03:24Z</time></trkpt><trkpt lat="44.354814265578945" lon="11.718358775307632"><ele>46.333333333333336</ele><time>2026-04-18T08:03:26Z</time></trkpt><trkpt lat="44.35478571451801" lon="11.718472274619264"><ele>46.0</ele><time>2026-04-18T08:03:28Z</time></trkpt><trkpt lat="44.35472442617042" lon="11.718568710694072"><ele>47.0</ele><time>2026-04-18T08:03:30Z</time></trkpt><trkpt lat="44.35454331063838" lon="11.718349354191407"><ele>48.0</ele><time>2026-04-18T08:03:35Z</time></trkpt><trkpt lat="44.35446592902424" lon="11.718284964565877"><ele>49.0</ele><time>2026-04-18T08:03:37Z</time></trkpt><trkpt lat="44.35437765362105" lon="11.718225360823546"><ele>50.0</ele><time>2026-04-18T08:03:39Z</time></trkpt><trkpt lat="44.354301668369075" lon="11.718161162567919"><ele>50.0</ele><time>2026-04-18T08:03:41Z</time></trkpt><trkpt lat="44.35421391275053" lon="11.718090795989403"><ele>50.0</ele><time>2026-04-18T08:03:43Z</time></trkpt><trkpt lat="44.354121874248804" lon="11.718023516150582"><ele>50.0</ele><time>2026-04-18T08:03:45Z</time></trkpt><trkpt lat="44.35403401069932" lon="11.717952416940289"><ele>50.0</ele><time>2026-04-18T08:03:47Z</time></trkpt><trkpt lat="44.35393151674349" lon="11.717895561762155"><ele>50.0</ele><time>2026-04-18T08:03:49Z</time></trkpt><trkpt lat="44.35384795867058" lon="11.7178272372847"><ele>50.00000000000001</ele><time>2026-04-18T08:03:51Z</time></trkpt><trkpt lat="44.353836799393214" lon="11.717732147061206"><ele>50.0</ele><time>2026-04-18T08:03:57Z</time></trkpt><trkpt lat="44.353864204957816" lon="11.71763525473978"><ele>50.0</ele><time>2026-04-18T08:04:01Z</time></trkpt><trkpt lat="44.35389757106783" lon="11.717554392211072"><ele>50.0</ele><time>2026-04-18T08:04:03.999Z</time></trkpt><trkpt lat="44.35382305750584" lon="11.717525365488145"><ele>50.00000000000001</ele><time>2026-04-18T08:04:05.999Z</time></trkpt><trkpt lat="44.35375587862886" lon="11.71746678458859"><ele>50.0</ele><time>2026-04-18T08:04:07.999Z</time></trkpt><trkpt lat="44.353672995759226" lon="11.717431163877542"><ele>50.0</ele><time>2026-04-18T08:04:09.999Z</time></trkpt><trkpt lat="44.35360776952317" lon="11.71735252178842"><ele>50.0</ele><time>2026-04-18T08:04:11.999Z</time></trkpt><trkpt lat="44.353530139557115" lon="11.717276714154032"><ele>50.0</ele><time>2026-04-18T08:04:13.999Z</time></trkpt><trkpt lat="44.35344902998999" lon="11.717211004679235"><ele>50.0</ele><time>2026-04-18T08:04:15.999Z</time></trkpt><trkpt lat="44.35336006123701" lon="11.717126782488235"><ele>50.0</ele><time>2026-04-18T08:04:17.999Z</time></trkpt><trkpt lat="44.35328144593639" lon="11.717062126971197"><ele>50.0</ele><time>2026-04-18T08:04:20Z</time></trkpt><trkpt lat="44.35318586137883" lon="11.716996959110231"><ele>50.0</ele><time>2026-04-18T08:04:22Z</time></trkpt><trkpt lat="44.35312838171049" lon="11.716869638670772"><ele>50.0</ele><time>2026-04-18T08:04:24Z</time></trkpt><trkpt lat="44.3530600867043" lon="11.716814780419412"><ele>50.0</ele><time>2026-04-18T08:04:26Z</time></trkpt><trkpt lat="44.352944950755436" lon="11.717169867542902"><ele>50.16666666666667</ele><time>2026-04-18T08:04:35Z</time></trkpt><trkpt lat="44.352872238594315" lon="11.717211621649486"><ele>50.333333333333336</ele><time>2026-04-18T08:04:38Z</time></trkpt><trkpt lat="44.35277405443598" lon="11.717235938045262"><ele>50.5</ele><time>2026-04-18T08:04:40Z</time></trkpt><trkpt lat="44.35268942108626" lon="11.717285641029239"><ele>50.66666666666667</ele><time>2026-04-18T08:04:42Z</time></trkpt><trkpt lat="44.352616338463285" lon="11.717326095807133"><ele>50.833333333333336</ele><time>2026-04-18T08:04:44Z</time></trkpt><trkpt lat="44.35253495354655" lon="11.717271941664398"><ele>51.0</ele><time>2026-04-18T08:04:47Z</time></trkpt><trkpt lat="44.35243477911471" lon="11.7172917931969"><ele>51.0</ele><time>2026-04-18T08:04:49Z</time></trkpt><trkpt lat="44.35242331563726" lon="11.717423095609016"><ele>51.0</ele><time>2026-04-18T08:04:51Z</time></trkpt><trkpt lat="44.35239249013891" lon="11.717547656281145"><ele>51.0</ele><time>2026-04-18T08:04:53Z</time></trkpt><trkpt lat="44.35235142060446" lon="11.717679706163633"><ele>51.0</ele><time>2026-04-18T08:04:55Z</time></trkpt><trkpt lat="44.35233876178342" lon="11.71783802056975"><ele>51.0</ele><time>2026-04-18T08:04:57Z</time></trkpt><trkpt lat="44.35231741256916" lon="11.717996045904352"><ele>50.599999999999994</ele><time>2026-04-18T08:04:59Z</time></trkpt><trkpt lat="44.3523029619235" lon="11.718156240199384"><ele>50.2</ele><time>2026-04-18T08:05:01Z</time></trkpt><trkpt lat="44.352298995129466" lon="11.718317914891585"><ele>49.8</ele><time>2026-04-18T08:05:03Z</time></trkpt><trkpt lat="44.35229360900563" lon="11.718475582551998"><ele>49.400000000000006</ele><time>2026-04-18T08:05:05Z</time></trkpt><trkpt lat="44.35230412207921" lon="11.718592406016258"><ele>49.0</ele><time>2026-04-18T08:05:07Z</time></trkpt><trkpt lat="44.35238934512231" lon="11.71855422515474"><ele>49.0</ele><time>2026-04-18T08:05:09Z</time></trkpt><trkpt lat="44.35245765831803" lon="11.718575998062615"><ele>49.0</ele><time>2026-04-18T08:05:12Z</time></trkpt><trkpt lat="44.35239147506098" lon="11.718575054680905"><ele>49.0</ele><time>2026-04-18T08:05:55.001Z</time></trkpt><trkpt lat="44.35232852009616" lon="11.718543891783144"><ele>49.0</ele><time>2026-04-18T08:05:58.001Z</time></trkpt><trkpt lat="44.352250132821354" lon="11.718717597139099"><ele>49.0</ele><time>2026-04-18T08:06:05.001Z</time></trkpt><trkpt lat="44.352218290554305" lon="11.71885346746098"><ele>48.6</ele><time>2026-04-18T08:06:07.001Z</time></trkpt><trkpt lat="44.35217090080612" lon="11.71896368867436"><ele>48.2</ele><time>2026-04-18T08:06:09Z</time></trkpt><trkpt lat="44.3521042929946" lon="11.719071338376317"><ele>47.800000000000004</ele><time>2026-04-18T08:06:11Z</time></trkpt><trkpt lat="44.35206436815065" lon="11.71920109863834"><ele>47.400000000000006</ele><time>2026-04-18T08:06:13Z</time></trkpt><trkpt lat="44.352019763534145" lon="11.719338852028875"><ele>47.0</ele><time>2026-04-18T08:06:15Z</time></trkpt><trkpt lat="44.351975167563936" lon="11.719477767278418"><ele>46.8</ele><time>2026-04-18T08:06:17Z</time></trkpt><trkpt lat="44.35192367630112" lon="11.719606390012741"><ele>46.6</ele><time>2026-04-18T08:06:19Z</time></trkpt><trkpt lat="44.35187733586423" lon="11.71973793660648"><ele>46.4</ele><time>2026-04-18T08:06:21Z</time></trkpt><trkpt lat="44.35182824316157" lon="11.719863232690118"><ele>46.199999999999996</ele><time>2026-04-18T08:06:23Z</time></trkpt><trkpt lat="44.35179754001658" lon="11.719974769255515"><ele>46.0</ele><time>2026-04-18T08:06:25Z</time></trkpt><trkpt lat="44.35175311195023" lon="11.720054598295986"><ele>46.0</ele><time>2026-04-18T08:06:27Z</time></trkpt><trkpt lat="44.35166493682489" lon="11.720044135209656"><ele>46.0</ele><time>2026-04-18T08:06:29Z</time></trkpt><trkpt lat="44.35157663059019" lon="11.720072472592127"><ele>46.0</ele><time>2026-04-18T08:06:31Z</time></trkpt><trkpt lat="44.351490315755406" lon="11.720062048413917"><ele>46.0</ele><time>2026-04-18T08:06:33Z</time></trkpt><trkpt lat="44.35139925690017" lon="11.720013903129436"><ele>46.0</ele><time>2026-04-18T08:06:35Z</time></trkpt><trkpt lat="44.35130121170742" lon="11.71995553488024"><ele>46.0</ele><time>2026-04-18T08:06:37Z</time></trkpt><trkpt lat="44.351200258798386" lon="11.719891521506465"><ele>46.0</ele><time>2026-04-18T08:06:39Z</time></trkpt><trkpt lat="44.35108788006109" lon="11.71983510983783"><ele>46.0</ele><time>2026-04-18T08:06:41Z</time></trkpt><trkpt lat="44.35103762879359" lon="11.719781810866552"><ele>46.0</ele><time>2026-04-18T08:06:42Z</time></trkpt><trkpt lat="44.35092742729416" lon="11.719719889995915"><ele>46.0</ele><time>2026-04-18T08:06:44Z</time></trkpt><trkpt lat="44.3508175660448" lon="11.719661549097763"><ele>46.0</ele><time>2026-04-18T08:06:46Z</time></trkpt><trkpt lat="44.35070508632455" lon="11.719603884792699"><ele>46.0</ele><time>2026-04-18T08:06:48Z</time></trkpt><trkpt lat="44.3506007093298" lon="11.719528787982293"><ele>46.0</ele><time>2026-04-18T08:06:50Z</time></trkpt><trkpt lat="44.35050210676226" lon="11.719441784691734"><ele>46.0</ele><time>2026-04-18T08:06:52Z</time></trkpt><trkpt lat="44.350425253902706" lon="11.719327681483408"><ele>46.0</ele><time>2026-04-18T08:06:54Z</time></trkpt><trkpt lat="44.35038965621802" lon="11.719201863964265"><ele>46.0</ele><time>2026-04-18T08:06:56Z</time></trkpt><trkpt lat="44.350380985950565" lon="11.719082769578373"><ele>46.0</ele><time>2026-04-18T08:06:58Z</time></trkpt><trkpt lat="44.35031260356948" lon="11.718995263713472"><ele>46.0</ele><time>2026-04-18T08:07:00Z</time></trkpt><trkpt lat="44.3501912456962" lon="11.71899797459891"><ele>46.0</ele><time>2026-04-18T08:07:02Z</time></trkpt><trkpt lat="44.35007476366811" lon="11.718967362195416"><ele>46.0</ele><time>2026-04-18T08:07:04Z</time></trkpt><trkpt lat="44.35001117096949" lon="11.718953477203145"><ele>46.0</ele><time>2026-04-18T08:07:05Z</time></trkpt><trkpt lat="44.34994513930074" lon="11.71893886247665"><ele>46.0</ele><time>2026-04-18T08:07:06Z</time></trkpt><trkpt lat="44.349880588870334" lon="11.718923407967713"><ele>46.0</ele><time>2026-04-18T08:07:07Z</time></trkpt><trkpt lat="44.349812354006836" lon="11.718904056922945"><ele>46.0</ele><time>2026-04-18T08:07:08Z</time></trkpt><trkpt lat="44.349742747259555" lon="11.718883947440354"><ele>46.0</ele><time>2026-04-18T08:07:09Z</time></trkpt><trkpt lat="44.34967121832612" lon="11.718866349831634"><ele>46.0</ele><time>2026-04-18T08:07:10Z</time></trkpt><trkpt lat="44.34960076849117" lon="11.718849100337112"><ele>45.333333333333336</ele><time>2026-04-18T08:07:11Z</time></trkpt><trkpt lat="44.3495263989093" lon="11.718833789515145"><ele>44.66666666666667</ele><time>2026-04-18T08:07:12Z</time></trkpt><trkpt lat="44.34945274176265" lon="11.718820259899651"><ele>44.0</ele><time>2026-04-18T08:07:13Z</time></trkpt><trkpt lat="44.34937846178357" lon="11.718804728826894"><ele>43.333333333333336</ele><time>2026-04-18T08:07:14Z</time></trkpt><trkpt lat="44.349307595311735" lon="11.718782227516714"><ele>42.666666666666664</ele><time>2026-04-18T08:07:15Z</time></trkpt><trkpt lat="44.349226738190936" lon="11.718768250884303"><ele>42.0</ele><time>2026-04-18T08:07:16Z</time></trkpt><trkpt lat="44.34915055564135" lon="11.718772903607602"><ele>42.0</ele><time>2026-04-18T08:07:17.001Z</time></trkpt><trkpt lat="44.34907430679475" lon="11.718772291574961"><ele>42.0</ele><time>2026-04-18T08:07:18.001Z</time></trkpt><trkpt lat="44.34900976702185" lon="11.718771384775001"><ele>42.0</ele><time>2026-04-18T08:07:19.001Z</time></trkpt><trkpt lat="44.34893709247498" lon="11.718770568070662"><ele>42.0</ele><time>2026-04-18T08:07:20.001Z</time></trkpt><trkpt lat="44.34887118621749" lon="11.718775912100078"><ele>42.0</ele><time>2026-04-18T08:07:21.001Z</time></trkpt><trkpt lat="44.348759442827145" lon="11.718771054818726"><ele>42.0</ele><time>2026-04-18T08:07:23.001Z</time></trkpt><trkpt lat="44.348695849086944" lon="11.718772489191556"><ele>41.75</ele><time>2026-04-18T08:07:24.001Z</time></trkpt><trkpt lat="44.34857935635368" lon="11.71881094039018"><ele>41.5</ele><time>2026-04-18T08:07:26.001Z</time></trkpt><trkpt lat="44.34846611287796" lon="11.718822146798152"><ele>41.25</ele><time>2026-04-18T08:07:28.001Z</time></trkpt><trkpt lat="44.34833845401987" lon="11.718829735069853"><ele>41.0</ele><time>2026-04-18T08:07:30.001Z</time></trkpt><trkpt lat="44.34821485341355" lon="11.718842278967013"><ele>41.0</ele><time>2026-04-18T08:07:32.001Z</time></trkpt><trkpt lat="44.34808770604747" lon="11.718853654053714"><ele>41.0</ele><time>2026-04-18T08:07:34.001Z</time></trkpt><trkpt lat="44.34802353536443" lon="11.718856491505909"><ele>41.0</ele><time>2026-04-18T08:07:35.001Z</time></trkpt><trkpt lat="44.3479012965813" lon="11.718866103043013"><ele>41.0</ele><time>2026-04-18T08:07:37.001Z</time></trkpt><trkpt lat="44.34777429661356" lon="11.718863719231136"><ele>41.0</ele><time>2026-04-18T08:07:39.001Z</time></trkpt><trkpt lat="44.34765306994165" lon="11.718841747102674"><ele>41.199999999999996</ele><time>2026-04-18T08:07:41.001Z</time></trkpt><trkpt lat="44.347542497884824" lon="11.718783212108226"><ele>41.4</ele><time>2026-04-18T08:07:43.001Z</time></trkpt><trkpt lat="44.34743367501303" lon="11.718732593915203"><ele>41.6</ele><time>2026-04-18T08:07:45.001Z</time></trkpt><trkpt lat="44.347320182951236" lon="11.718708548794584"><ele>41.8</ele><time>2026-04-18T08:07:47.001Z</time></trkpt><trkpt lat="44.3472256263301" lon="11.718666103047344"><ele>42.0</ele><time>2026-04-18T08:07:49.001Z</time></trkpt><trkpt lat="44.347139714965735" lon="11.71862137146951"><ele>42.0</ele><time>2026-04-18T08:07:51.001Z</time></trkpt><trkpt lat="44.34704312594236" lon="11.718586575539282"><ele>42.0</ele><time>2026-04-18T08:07:53.001Z</time></trkpt><trkpt lat="44.346947926290134" lon="11.718554063039734"><ele>42.0</ele><time>2026-04-18T08:07:55.001Z</time></trkpt><trkpt lat="44.34684728909845" lon="11.718506171945434"><ele>42.0</ele><time>2026-04-18T08:07:57.001Z</time></trkpt><trkpt lat="44.346740732582276" lon="11.718446448926832"><ele>42.0</ele><time>2026-04-18T08:07:59.001Z</time></trkpt><trkpt lat="44.34663098218406" lon="11.718410672276669"><ele>42.25</ele><time>2026-04-18T08:08:01.001Z</time></trkpt><trkpt lat="44.346518650003965" lon="11.718366106228046"><ele>42.5</ele><time>2026-04-18T08:08:03.001Z</time></trkpt><trkpt lat="44.34640450507957" lon="11.718318350816343"><ele>42.75</ele><time>2026-04-18T08:08:05.001Z</time></trkpt><trkpt lat="44.34629578906821" lon="11.718253862385264"><ele>43.0</ele><time>2026-04-18T08:08:07.001Z</time></trkpt><trkpt lat="44.346187634512674" lon="11.718183789054798"><ele>42.4</ele><time>2026-04-18T08:08:09.001Z</time></trkpt><trkpt lat="44.346082355960775" lon="11.718115000646062"><ele>41.8</ele><time>2026-04-18T08:08:11.001Z</time></trkpt><trkpt lat="44.34598150491385" lon="11.718066194197432"><ele>41.2</ele><time>2026-04-18T08:08:13.001Z</time></trkpt><trkpt lat="44.3458972016893" lon="11.717973090852189"><ele>40.6</ele><time>2026-04-18T08:08:15Z</time></trkpt><trkpt lat="44.345885532472245" lon="11.717874101281565"><ele>40.0</ele><time>2026-04-18T08:08:16Z</time></trkpt><trkpt lat="44.345817589376686" lon="11.717752472164323"><ele>39.75</ele><time>2026-04-18T08:08:18Z</time></trkpt><trkpt lat="44.34577222696877" lon="11.717607033597444"><ele>39.5</ele><time>2026-04-18T08:08:20Z</time></trkpt><trkpt lat="44.345757207261315" lon="11.717448447492494"><ele>39.25</ele><time>2026-04-18T08:08:22Z</time></trkpt><trkpt lat="44.34575765155956" lon="11.7172901231876"><ele>39.0</ele><time>2026-04-18T08:08:24Z</time></trkpt><trkpt lat="44.34575967132063" lon="11.717128080429642"><ele>39.0</ele><time>2026-04-18T08:08:26Z</time></trkpt><trkpt lat="44.34577194351771" lon="11.71697398188443"><ele>39.0</ele><time>2026-04-18T08:08:28Z</time></trkpt><trkpt lat="44.34577951614957" lon="11.716809708164265"><ele>39.0</ele><time>2026-04-18T08:08:30Z</time></trkpt><trkpt lat="44.34578106224155" lon="11.716645817632083"><ele>39.0</ele><time>2026-04-18T08:08:32Z</time></trkpt><trkpt lat="44.34578362714555" lon="11.716482402889808"><ele>39.25</ele><time>2026-04-18T08:08:34Z</time></trkpt><trkpt lat="44.34578352913397" lon="11.716323099136625"><ele>39.5</ele><time>2026-04-18T08:08:36Z</time></trkpt><trkpt lat="44.34578620617566" lon="11.716166940207092"><ele>39.75</ele><time>2026-04-18T08:08:38Z</time></trkpt><trkpt lat="44.34579403457126" lon="11.716006752526194"><ele>40.0</ele><time>2026-04-18T08:08:40Z</time></trkpt><trkpt lat="44.345793487238154" lon="11.715837623539242"><ele>40.0</ele><time>2026-04-18T08:08:42Z</time></trkpt><trkpt lat="44.34582947057126" lon="11.715700738522445"><ele>40.0</ele><time>2026-04-18T08:08:44Z</time></trkpt><trkpt lat="44.34591419105959" lon="11.715571415704748"><ele>40.0</ele><time>2026-04-18T08:08:46Z</time></trkpt><trkpt lat="44.346030324922246" lon="11.71555005378069"><ele>40.0</ele><time>2026-04-18T08:08:48Z</time></trkpt><trkpt lat="44.34613525018792" lon="11.715553225503665"><ele>40.0</ele><time>2026-04-18T08:08:50Z</time></trkpt><trkpt lat="44.346249681547775" lon="11.715558243140269"><ele>40.0</ele><time>2026-04-18T08:08:52Z</time></trkpt><trkpt lat="44.34635354285271" lon="11.71556137497513"><ele>40.0</ele><time>2026-04-18T08:08:54Z</time></trkpt><trkpt lat="44.34645270853723" lon="11.71556264216857"><ele>40.0</ele><time>2026-04-18T08:08:56Z</time></trkpt><trkpt lat="44.34655157390917" lon="11.71554927182899"><ele>40.0</ele><time>2026-04-18T08:08:58Z</time></trkpt><trkpt lat="44.34661453448269" lon="11.715522071636538"><ele>40.0</ele><time>2026-04-18T08:09:00Z</time></trkpt><trkpt lat="44.34663612202419" lon="11.715338234704136"><ele>40.0</ele><time>2026-04-18T08:09:02Z</time></trkpt><trkpt lat="44.34652088918493" lon="11.715325429931891"><ele>40.0</ele><time>2026-04-18T08:09:03Z</time></trkpt><trkpt lat="44.34640963174272" lon="11.715341986518704"><ele>40.0</ele><time>2026-04-18T08:09:05Z</time></trkpt><trkpt lat="44.34630047265698" lon="11.715337347971852"><ele>40.0</ele><time>2026-04-18T08:09:07Z</time></trkpt><trkpt lat="44.34620496941114" lon="11.71531455757618"><ele>40.0</ele><time>2026-04-18T08:09:09Z</time></trkpt><trkpt lat="44.34619557641875" lon="11.714880565332914"><ele>40.0</ele><time>2026-04-18T08:09:15.001Z</time></trkpt><trkpt lat="44.34619041507693" lon="11.714720231339534"><ele>40.0</ele><time>2026-04-18T08:09:17.001Z</time></trkpt><trkpt lat="44.346188563763164" lon="11.714557499430983"><ele>40.0</ele><time>2026-04-18T08:09:19.001Z</time></trkpt><trkpt lat="44.346194246926224" lon="11.714399908443806"><ele>40.0</ele><time>2026-04-18T08:09:21.001Z</time></trkpt><trkpt lat="44.34619558931462" lon="11.714244239592142"><ele>40.0</ele><time>2026-04-18T08:09:23.001Z</time></trkpt><trkpt lat="44.34620118508776" lon="11.714084855687181"><ele>40.2</ele><time>2026-04-18T08:09:25.001Z</time></trkpt><trkpt lat="44.34621073550686" lon="11.713938482836596"><ele>40.4</ele><time>2026-04-18T08:09:27.001Z</time></trkpt><trkpt lat="44.34622322284399" lon="11.713788129582653"><ele>40.599999999999994</ele><time>2026-04-18T08:09:29.001Z</time></trkpt><trkpt lat="44.34622463115421" lon="11.71363139627926"><ele>40.8</ele><time>2026-04-18T08:09:31.001Z</time></trkpt><trkpt lat="44.34622158063076" lon="11.713485062145283"><ele>41.0</ele><time>2026-04-18T08:09:33.001Z</time></trkpt><trkpt lat="44.34621805345331" lon="11.713341636548455"><ele>41.0</ele><time>2026-04-18T08:09:35.001Z</time></trkpt><trkpt lat="44.34620162168967" lon="11.71319551854914"><ele>41.0</ele><time>2026-04-18T08:09:37.001Z</time></trkpt><trkpt lat="44.34621652742857" lon="11.713071280673974"><ele>41.0</ele><time>2026-04-18T08:09:39.001Z</time></trkpt><trkpt lat="44.34622021835898" lon="11.712977012175743"><ele>41.0</ele><time>2026-04-18T08:09:41.001Z</time></trkpt><trkpt lat="44.34622314113615" lon="11.712874014768735"><ele>41.0</ele><time>2026-04-18T08:09:45.001Z</time></trkpt><trkpt lat="44.34631431633405" lon="11.712846114529972"><ele>41.0</ele><time>2026-04-18T08:09:48.001Z</time></trkpt><trkpt lat="44.346388692854006" lon="11.712858591542673"><ele>41.599999999999994</ele><time>2026-04-18T08:09:50.001Z</time></trkpt><trkpt lat="44.346478604532074" lon="11.712846803567142"><ele>42.2</ele><time>2026-04-18T08:09:52.001Z</time></trkpt><trkpt lat="44.346577985745384" lon="11.712850200472262"><ele>42.8</ele><time>2026-04-18T08:09:54.001Z</time></trkpt><trkpt lat="44.34669265027058" lon="11.712860114462485"><ele>43.400000000000006</ele><time>2026-04-18T08:09:56.001Z</time></trkpt><trkpt lat="44.34681413057833" lon="11.71286559848203"><ele>44.0</ele><time>2026-04-18T08:09:58.001Z</time></trkpt><trkpt lat="44.3469178198519" lon="11.71285513472325"><ele>44.0</ele><time>2026-04-18T08:10:00.001Z</time></trkpt><trkpt lat="44.347021768275965" lon="11.71286026644161"><ele>44.0</ele><time>2026-04-18T08:10:02.001Z</time></trkpt><trkpt lat="44.34711714381953" lon="11.712860092005629"><ele>44.0</ele><time>2026-04-18T08:10:04.001Z</time></trkpt><trkpt lat="44.347113125136275" lon="11.712675197788938"><ele>44.0</ele><time>2026-04-18T08:10:06.001Z</time></trkpt><trkpt lat="44.34711772877171" lon="11.712532295886236"><ele>44.0</ele><time>2026-04-18T08:10:08.001Z</time></trkpt><trkpt lat="44.34711731153476" lon="11.712383245948303"><ele>43.800000000000004</ele><time>2026-04-18T08:10:10.001Z</time></trkpt><trkpt lat="44.34710162434855" lon="11.712233480492781"><ele>43.6</ele><time>2026-04-18T08:10:12.001Z</time></trkpt><trkpt lat="44.347103692230625" lon="11.712081155148116"><ele>43.4</ele><time>2026-04-18T08:10:14.001Z</time></trkpt><trkpt lat="44.34710476817222" lon="11.7119392110635"><ele>43.2</ele><time>2026-04-18T08:10:16.001Z</time></trkpt><trkpt lat="44.347105828516" lon="11.711799324809686"><ele>43.0</ele><time>2026-04-18T08:10:18.001Z</time></trkpt><trkpt lat="44.34711080603106" lon="11.711665405832553"><ele>42.833333333333336</ele><time>2026-04-18T08:10:20Z</time></trkpt><trkpt lat="44.34711561270651" lon="11.711560559560965"><ele>42.66666666666667</ele><time>2026-04-18T08:10:22Z</time></trkpt><trkpt lat="44.34707864709499" lon="11.711451919054081"><ele>42.5</ele><time>2026-04-18T08:10:27Z</time></trkpt><trkpt lat="44.34700664764463" lon="11.711430775457524"><ele>42.333333333333336</ele><time>2026-04-18T08:10:29Z</time></trkpt><trkpt lat="44.34691697016619" lon="11.711468513825995"><ele>42.166666666666664</ele><time>2026-04-18T08:10:31Z</time></trkpt><trkpt lat="44.34682428624348" lon="11.711499178937157"><ele>42.0</ele><time>2026-04-18T08:10:33Z</time></trkpt><trkpt lat="44.34672859926456" lon="11.71152365858702"><ele>42.0</ele><time>2026-04-18T08:10:35Z</time></trkpt><trkpt lat="44.34664364657301" lon="11.711524867615971"><ele>42.0</ele><time>2026-04-18T08:10:37Z</time></trkpt><trkpt lat="44.346567866315425" lon="11.711549127706393"><ele>42.0</ele><time>2026-04-18T08:10:39Z</time></trkpt><trkpt lat="44.34649737595624" lon="11.71156053937238"><ele>42.0</ele><time>2026-04-18T08:10:42Z</time></trkpt><trkpt lat="44.346416972880505" lon="11.711604928323279"><ele>42.0</ele><time>2026-04-18T08:10:44Z</time></trkpt><trkpt lat="44.346310569297124" lon="11.711631717577504"><ele>42.0</ele><time>2026-04-18T08:10:46Z</time></trkpt><trkpt lat="44.34619270896917" lon="11.71165865032526"><ele>41.5</ele><time>2026-04-18T08:10:48Z</time></trkpt><trkpt lat="44.34606784274906" lon="11.711653975967216"><ele>41.0</ele><time>2026-04-18T08:10:50Z</time></trkpt><trkpt lat="44.34594826829385" lon="11.71167736465124"><ele>40.5</ele><time>2026-04-18T08:10:52Z</time></trkpt><trkpt lat="44.34585735534394" lon="11.711668767433366"><ele>40.0</ele><time>2026-04-18T08:10:54Z</time></trkpt><trkpt lat="44.34585846568508" lon="11.711480052945843"><ele>40.0</ele><time>2026-04-18T08:10:55Z</time></trkpt><trkpt lat="44.34588263666555" lon="11.71131318526385"><ele>40.0</ele><time>2026-04-18T08:10:57Z</time></trkpt><trkpt lat="44.345903386644125" lon="11.711137898749955"><ele>40.0</ele><time>2026-04-18T08:10:59Z</time></trkpt><trkpt lat="44.34591969467703" lon="11.711050345731685"><ele>40.0</ele><time>2026-04-18T08:11:00Z</time></trkpt><trkpt lat="44.34593664660208" lon="11.710959807487267"><ele>40.0</ele><time>2026-04-18T08:11:01Z</time></trkpt><trkpt lat="44.345954189012154" lon="11.71087518391079"><ele>40.0</ele><time>2026-04-18T08:11:02Z</time></trkpt><trkpt lat="44.345995896325064" lon="11.710710757669995"><ele>39.75</ele><time>2026-04-18T08:11:04Z</time></trkpt><trkpt lat="44.346038344445894" lon="11.710547899421524"><ele>39.5</ele><time>2026-04-18T08:11:06Z</time></trkpt><trkpt lat="44.34607833255722" lon="11.710401622821788"><ele>39.25</ele><time>2026-04-18T08:11:08Z</time></trkpt><trkpt lat="44.34610205010388" lon="11.710304563972722"><ele>39.0</ele><time>2026-04-18T08:11:11.001Z</time></trkpt><trkpt lat="44.345835862566005" lon="11.709952040946263"><ele>39.333333333333336</ele><time>2026-04-18T08:11:26.001Z</time></trkpt><trkpt lat="44.34582032598021" lon="11.70986158445082"><ele>39.666666666666664</ele><time>2026-04-18T08:11:27.001Z</time></trkpt><trkpt lat="44.345824027239765" lon="11.709773138652755"><ele>40.0</ele><time>2026-04-18T08:11:28.001Z</time></trkpt><trkpt lat="44.34583767060056" lon="11.709593807329073"><ele>40.33333333333333</ele><time>2026-04-18T08:11:30.001Z</time></trkpt><trkpt lat="44.34584105672506" lon="11.709503542698343"><ele>40.666666666666664</ele><time>2026-04-18T08:11:31.001Z</time></trkpt><trkpt lat="44.34584195612624" lon="11.709414242777605"><ele>41.0</ele><time>2026-04-18T08:11:32.001Z</time></trkpt><trkpt lat="44.3458401489872" lon="11.709324734652098"><ele>40.99999999999999</ele><time>2026-04-18T08:11:33.001Z</time></trkpt><trkpt lat="44.345839140186285" lon="11.709227546619486"><ele>41.0</ele><time>2026-04-18T08:11:34.001Z</time></trkpt><trkpt lat="44.345830781230816" lon="11.709137141538548"><ele>41.0</ele><time>2026-04-18T08:11:35.001Z</time></trkpt><trkpt lat="44.34582110722127" lon="11.709042411452804"><ele>41.0</ele><time>2026-04-18T08:11:36.001Z</time></trkpt><trkpt lat="44.34580575137087" lon="11.708950029908827"><ele>41.0</ele><time>2026-04-18T08:11:37.001Z</time></trkpt><trkpt lat="44.34578787784086" lon="11.70885870653594"><ele>40.99999999999999</ele><time>2026-04-18T08:11:38.001Z</time></trkpt><trkpt lat="44.34576663679287" lon="11.70876450948758"><ele>41.0</ele><time>2026-04-18T08:11:39.001Z</time></trkpt><trkpt lat="44.34574084201391" lon="11.708677449382904"><ele>41.0</ele><time>2026-04-18T08:11:40.001Z</time></trkpt><trkpt lat="44.34571781837049" lon="11.708591455877942"><ele>41.0</ele><time>2026-04-18T08:11:41.001Z</time></trkpt><trkpt lat="44.345675495436666" lon="11.708431712623224"><ele>41.0</ele><time>2026-04-18T08:11:43.001Z</time></trkpt><trkpt lat="44.34561590210813" lon="11.708297498148337"><ele>41.0</ele><time>2026-04-18T08:11:45.001Z</time></trkpt><trkpt lat="44.345548920769644" lon="11.708170186721393"><ele>41.0</ele><time>2026-04-18T08:11:47.001Z</time></trkpt><trkpt lat="44.345470910062986" lon="11.708040238463324"><ele>41.0</ele><time>2026-04-18T08:11:49.001Z</time></trkpt><trkpt lat="44.34543334204715" lon="11.707961540781984"><ele>41.0</ele><time>2026-04-18T08:11:50.001Z</time></trkpt><trkpt lat="44.34536528489072" lon="11.707827190541266"><ele>41.0</ele><time>2026-04-18T08:11:52.001Z</time></trkpt><trkpt lat="44.34528127723633" lon="11.707702462434215"><ele>41.0</ele><time>2026-04-18T08:11:54.001Z</time></trkpt><trkpt lat="44.345205490180376" lon="11.707563342866461"><ele>41.0</ele><time>2026-04-18T08:11:56.001Z</time></trkpt><trkpt lat="44.34513392393669" lon="11.707421629282235"><ele>40.8</ele><time>2026-04-18T08:11:58.001Z</time></trkpt><trkpt lat="44.345092668880405" lon="11.707353301365751"><ele>40.599999999999994</ele><time>2026-04-18T08:11:59.001Z</time></trkpt><trkpt lat="44.34505707080002" lon="11.707280443219606"><ele>40.4</ele><time>2026-04-18T08:12:00.001Z</time></trkpt><trkpt lat="44.344990427164284" lon="11.70714488978217"><ele>40.2</ele><time>2026-04-18T08:12:02.001Z</time></trkpt><trkpt lat="44.344925317339495" lon="11.707009087531743"><ele>40.0</ele><time>2026-04-18T08:12:04.001Z</time></trkpt><trkpt lat="44.34485864670912" lon="11.70688053448408"><ele>39.833333333333336</ele><time>2026-04-18T08:12:06.001Z</time></trkpt><trkpt lat="44.344822012220234" lon="11.70680861951407"><ele>39.66666666666667</ele><time>2026-04-18T08:12:07.001Z</time></trkpt><trkpt lat="44.34478318380018" lon="11.70673445583758"><ele>39.5</ele><time>2026-04-18T08:12:08.001Z</time></trkpt><trkpt lat="44.344743122377785" lon="11.706662252140681"><ele>39.333333333333336</ele><time>2026-04-18T08:12:09.001Z</time></trkpt><trkpt lat="44.34468115531413" lon="11.706526926540326"><ele>39.166666666666664</ele><time>2026-04-18T08:12:11.001Z</time></trkpt><trkpt lat="44.34461027698074" lon="11.706399228514739"><ele>39.0</ele><time>2026-04-18T08:12:13.001Z</time></trkpt><trkpt lat="44.34453083772355" lon="11.706286301875682"><ele>39.0</ele><time>2026-04-18T08:12:15.001Z</time></trkpt><trkpt lat="44.34446339934439" lon="11.706168531189844"><ele>39.0</ele><time>2026-04-18T08:12:17.001Z</time></trkpt><trkpt lat="44.34438597758845" lon="11.706052728970068"><ele>39.0</ele><time>2026-04-18T08:12:19.001Z</time></trkpt><trkpt lat="44.34430138164564" lon="11.705932724732065"><ele>39.0</ele><time>2026-04-18T08:12:21.001Z</time></trkpt><trkpt lat="44.3442185988539" lon="11.705819999141708"><ele>39.0</ele><time>2026-04-18T08:12:23.001Z</time></trkpt><trkpt lat="44.34411713230017" lon="11.705717723697822"><ele>39.0</ele><time>2026-04-18T08:12:25.001Z</time></trkpt><trkpt lat="44.34400545570317" lon="11.70566423557377"><ele>39.0</ele><time>2026-04-18T08:12:27Z</time></trkpt><trkpt lat="44.34394570264254" lon="11.705633169909305"><ele>39.0</ele><time>2026-04-18T08:12:28Z</time></trkpt><trkpt lat="44.343830494672545" lon="11.70557646305966"><ele>39.0</ele><time>2026-04-18T08:12:30Z</time></trkpt><trkpt lat="44.34376942352835" lon="11.705554104164165"><ele>39.333333333333336</ele><time>2026-04-18T08:12:31Z</time></trkpt><trkpt lat="44.34370420082599" lon="11.705533323348329"><ele>39.666666666666664</ele><time>2026-04-18T08:12:32Z</time></trkpt><trkpt lat="44.3435885409902" lon="11.705468095409518"><ele>40.0</ele><time>2026-04-18T08:12:34Z</time></trkpt><trkpt lat="44.343531060215895" lon="11.705424577538027"><ele>40.33333333333333</ele><time>2026-04-18T08:12:35Z</time></trkpt><trkpt lat="44.34347155164411" lon="11.705383367679019"><ele>40.666666666666664</ele><time>2026-04-18T08:12:36Z</time></trkpt><trkpt lat="44.34341204153087" lon="11.70534434701145"><ele>41.0</ele><time>2026-04-18T08:12:37Z</time></trkpt><trkpt lat="44.3433544837125" lon="11.705300758877966"><ele>41.0</ele><time>2026-04-18T08:12:38Z</time></trkpt><trkpt lat="44.34329854556073" lon="11.705252937926526"><ele>41.0</ele><time>2026-04-18T08:12:39Z</time></trkpt><trkpt lat="44.343185626385726" lon="11.705165330004892"><ele>41.0</ele><time>2026-04-18T08:12:41Z</time></trkpt><trkpt lat="44.34312668606596" lon="11.705123147568841"><ele>41.0</ele><time>2026-04-18T08:12:42Z</time></trkpt><trkpt lat="44.343066041817565" lon="11.705081789732416"><ele>41.0</ele><time>2026-04-18T08:12:43Z</time></trkpt><trkpt lat="44.34300926414138" lon="11.705036408635992"><ele>41.0</ele><time>2026-04-18T08:12:44Z</time></trkpt><trkpt lat="44.342954881509016" lon="11.704987039404825"><ele>40.5</ele><time>2026-04-18T08:12:45Z</time></trkpt><trkpt lat="44.34285778124023" lon="11.704881065351998"><ele>40.0</ele><time>2026-04-18T08:12:47Z</time></trkpt><trkpt lat="44.34276238643469" lon="11.70477209465786"><ele>39.5</ele><time>2026-04-18T08:12:49Z</time></trkpt><trkpt lat="44.34266708625103" lon="11.704667924584477"><ele>39.0</ele><time>2026-04-18T08:12:51Z</time></trkpt><trkpt lat="44.34255975161564" lon="11.70458974342997"><ele>39.0</ele><time>2026-04-18T08:12:53Z</time></trkpt><trkpt lat="44.34244371709199" lon="11.70456018304828"><ele>39.0</ele><time>2026-04-18T08:12:55Z</time></trkpt><trkpt lat="44.34233287227732" lon="11.704514448001333"><ele>39.0</ele><time>2026-04-18T08:12:57Z</time></trkpt><trkpt lat="44.34231986073029" lon="11.704199546022934"><ele>39.4</ele><time>2026-04-18T08:12:59Z</time></trkpt><trkpt lat="44.34222954455339" lon="11.704133933795054"><ele>39.8</ele><time>2026-04-18T08:13:01Z</time></trkpt><trkpt lat="44.34217280025637" lon="11.70408716712265"><ele>40.199999999999996</ele><time>2026-04-18T08:13:02Z</time></trkpt><trkpt lat="44.34207091837555" lon="11.704003198835165"><ele>40.599999999999994</ele><time>2026-04-18T08:13:04Z</time></trkpt><trkpt lat="44.34196870813131" lon="11.70391895989254"><ele>41.0</ele><time>2026-04-18T08:13:06Z</time></trkpt><trkpt lat="44.341867723783864" lon="11.70383573137497"><ele>41.0</ele><time>2026-04-18T08:13:08Z</time></trkpt><trkpt lat="44.341808689766054" lon="11.703787077152773"><ele>41.0</ele><time>2026-04-18T08:13:09Z</time></trkpt><trkpt lat="44.34170359115147" lon="11.703700457724388"><ele>41.0</ele><time>2026-04-18T08:13:11Z</time></trkpt><trkpt lat="44.341639239688355" lon="11.703647421029846"><ele>41.0</ele><time>2026-04-18T08:13:12Z</time></trkpt><trkpt lat="44.34158394925822" lon="11.703601852112978"><ele>41.0</ele><time>2026-04-18T08:13:13Z</time></trkpt><trkpt lat="44.34147567838799" lon="11.703512618000522"><ele>41.0</ele><time>2026-04-18T08:13:15Z</time></trkpt><trkpt lat="44.34136888267995" lon="11.703423464224208"><ele>41.0</ele><time>2026-04-18T08:13:17.001Z</time></trkpt><trkpt lat="44.34130789628556" lon="11.703372530491752"><ele>41.0</ele><time>2026-04-18T08:13:18.001Z</time></trkpt><trkpt lat="44.34125104471141" lon="11.703325050077845"><ele>41.0</ele><time>2026-04-18T08:13:19.001Z</time></trkpt><trkpt lat="44.34119305831783" lon="11.703276622014466"><ele>41.0</ele><time>2026-04-18T08:13:20.001Z</time></trkpt><trkpt lat="44.3411317018533" lon="11.703227522850321"><ele>41.0</ele><time>2026-04-18T08:13:21.001Z</time></trkpt><trkpt lat="44.34106762739829" lon="11.703178838831015"><ele>41.0</ele><time>2026-04-18T08:13:22.001Z</time></trkpt><trkpt lat="44.34099452831331" lon="11.703126827619363"><ele>41.0</ele><time>2026-04-18T08:13:23.001Z</time></trkpt><trkpt lat="44.340918384005384" lon="11.703084752114961"><ele>41.0</ele><time>2026-04-18T08:13:24.001Z</time></trkpt><trkpt lat="44.340831483732615" lon="11.703051920949369"><ele>41.0</ele><time>2026-04-18T08:13:25.001Z</time></trkpt><trkpt lat="44.34075333811582" lon="11.703026436578593"><ele>41.0</ele><time>2026-04-18T08:13:26.001Z</time></trkpt><trkpt lat="44.340681719986705" lon="11.703005116645983"><ele>41.0</ele><time>2026-04-18T08:13:27.001Z</time></trkpt><trkpt lat="44.34060965993003" lon="11.702983665140906"><ele>40.599999999999994</ele><time>2026-04-18T08:13:28.001Z</time></trkpt><trkpt lat="44.340544846736016" lon="11.702963553105317"><ele>40.199999999999996</ele><time>2026-04-18T08:13:29.001Z</time></trkpt><trkpt lat="44.34043146511774" lon="11.702920435223707"><ele>39.8</ele><time>2026-04-18T08:13:31.001Z</time></trkpt><trkpt lat="44.340367579664665" lon="11.702892829601533"><ele>39.4</ele><time>2026-04-18T08:13:32.001Z</time></trkpt><trkpt lat="44.34024282283665" lon="11.702829068568086"><ele>39.0</ele><time>2026-04-18T08:13:34.001Z</time></trkpt><trkpt lat="44.340181714406086" lon="11.70279158618524"><ele>39.0</ele><time>2026-04-18T08:13:35.001Z</time></trkpt><trkpt lat="44.340118926377016" lon="11.702753363579891"><ele>39.0</ele><time>2026-04-18T08:13:36.001Z</time></trkpt><trkpt lat="44.340054274348276" lon="11.702713589631438"><ele>39.0</ele><time>2026-04-18T08:13:37.001Z</time></trkpt><trkpt lat="44.339985724864725" lon="11.702671417960497"><ele>39.0</ele><time>2026-04-18T08:13:38.001Z</time></trkpt><trkpt lat="44.339923011738314" lon="11.702632836825149"><ele>39.0</ele><time>2026-04-18T08:13:39.001Z</time></trkpt><trkpt lat="44.33985489727503" lon="11.702590932788928"><ele>39.0</ele><time>2026-04-18T08:13:40.001Z</time></trkpt><trkpt lat="44.33978867835334" lon="11.702550194889222"><ele>39.0</ele><time>2026-04-18T08:13:41.001Z</time></trkpt><trkpt lat="44.33972543900259" lon="11.702511290029621"><ele>39.0</ele><time>2026-04-18T08:13:42.001Z</time></trkpt><trkpt lat="44.339666024248444" lon="11.702474738064494"><ele>39.0</ele><time>2026-04-18T08:13:43.001Z</time></trkpt><trkpt lat="44.339572585587334" lon="11.702419789353995"><ele>39.0</ele><time>2026-04-18T08:13:45.001Z</time></trkpt><trkpt lat="44.33948547976081" lon="11.70234918510008"><ele>39.0</ele><time>2026-04-18T08:13:47.001Z</time></trkpt><trkpt lat="44.339423462375464" lon="11.70227537973687"><ele>39.0</ele><time>2026-04-18T08:13:49.001Z</time></trkpt><trkpt lat="44.3393851345823" lon="11.702196871309782"><ele>39.0</ele><time>2026-04-18T08:13:51.001Z</time></trkpt><trkpt lat="44.339349389921104" lon="11.702073000997068"><ele>39.0</ele><time>2026-04-18T08:13:53.001Z</time></trkpt><trkpt lat="44.339312887847264" lon="11.701916345531657"><ele>39.0</ele><time>2026-04-18T08:13:55.001Z</time></trkpt><trkpt lat="44.3392931854456" lon="11.70183058989911"><ele>39.0</ele><time>2026-04-18T08:13:56.001Z</time></trkpt><trkpt lat="44.33927386455081" lon="11.701746238007923"><ele>39.0</ele><time>2026-04-18T08:13:57.001Z</time></trkpt><trkpt lat="44.33923889661423" lon="11.701593573674222"><ele>39.0</ele><time>2026-04-18T08:13:59.001Z</time></trkpt><trkpt lat="44.339211166085114" lon="11.701472506684873"><ele>39.0</ele><time>2026-04-18T08:14:01.001Z</time></trkpt><trkpt lat="44.339177396887855" lon="11.70132507597198"><ele>39.0</ele><time>2026-04-18T08:14:03.001Z</time></trkpt><trkpt lat="44.33914518591576" lon="11.701176652022804"><ele>39.0</ele><time>2026-04-18T08:14:05.001Z</time></trkpt><trkpt lat="44.3391198661644" lon="11.701032111283265"><ele>39.0</ele><time>2026-04-18T08:14:07.001Z</time></trkpt><trkpt lat="44.33910859417216" lon="11.700902660763084"><ele>39.0</ele><time>2026-04-18T08:14:09.001Z</time></trkpt><trkpt lat="44.33908104431624" lon="11.700801795527289"><ele>39.25</ele><time>2026-04-18T08:14:11.001Z</time></trkpt><trkpt lat="44.338860700817975" lon="11.700688787893384"><ele>39.5</ele><time>2026-04-18T08:14:12.001Z</time></trkpt><trkpt lat="44.338796681552175" lon="11.700723010729265"><ele>39.75</ele><time>2026-04-18T08:14:14.001Z</time></trkpt><trkpt lat="44.33873922935309" lon="11.700833504134463"><ele>40.0</ele><time>2026-04-18T08:14:16.001Z</time></trkpt><trkpt lat="44.33868656520296" lon="11.700935966965616"><ele>40.0</ele><time>2026-04-18T08:14:18.001Z</time></trkpt><trkpt lat="44.33863875227676" lon="11.701051099038539"><ele>40.0</ele><time>2026-04-18T08:14:20.001Z</time></trkpt><trkpt lat="44.338596834352" lon="11.701152036547981"><ele>40.0</ele><time>2026-04-18T08:14:22.001Z</time></trkpt><trkpt lat="44.33856244523754" lon="11.701235687686848"><ele>40.0</ele><time>2026-04-18T08:14:24.001Z</time></trkpt><trkpt lat="44.33852388037388" lon="11.701313254398736"><ele>40.0</ele><time>2026-04-18T08:15:46.001Z</time></trkpt><trkpt lat="44.338484837285414" lon="11.701417894442793"><ele>40.0</ele><time>2026-04-18T08:15:50.001Z</time></trkpt><trkpt lat="44.33845216447466" lon="11.701538640375489"><ele>40.25</ele><time>2026-04-18T08:15:52.001Z</time></trkpt><trkpt lat="44.33839717808343" lon="11.701668132800078"><ele>40.5</ele><time>2026-04-18T08:15:54.001Z</time></trkpt><trkpt lat="44.33833780592323" lon="11.701813629538663"><ele>40.75</ele><time>2026-04-18T08:15:56.001Z</time></trkpt><trkpt lat="44.33827352656387" lon="11.701959419646428"><ele>41.0</ele><time>2026-04-18T08:15:58.001Z</time></trkpt><trkpt lat="44.33820858444506" lon="11.702108619906898"><ele>41.14285714285714</ele><time>2026-04-18T08:16:00.001Z</time></trkpt><trkpt lat="44.3381763269251" lon="11.702186754048336"><ele>41.285714285714285</ele><time>2026-04-18T08:16:01.001Z</time></trkpt><trkpt lat="44.33814376140922" lon="11.702267696170635"><ele>41.42857142857143</ele><time>2026-04-18T08:16:02.001Z</time></trkpt><trkpt lat="44.33811195961125" lon="11.7023499288652"><ele>41.57142857142857</ele><time>2026-04-18T08:16:03.001Z</time></trkpt><trkpt lat="44.33807885268932" lon="11.702433040127877"><ele>41.714285714285715</ele><time>2026-04-18T08:16:04.001Z</time></trkpt><trkpt lat="44.33804611935343" lon="11.702515998034722"><ele>41.857142857142854</ele><time>2026-04-18T08:16:05.001Z</time></trkpt><trkpt lat="44.33801331131407" lon="11.702599476209933"><ele>42.0</ele><time>2026-04-18T08:16:06.001Z</time></trkpt><trkpt lat="44.33798128731741" lon="11.702681767858989"><ele>42.57142857142857</ele><time>2026-04-18T08:16:07.001Z</time></trkpt><trkpt lat="44.337935293823264" lon="11.70274888029066"><ele>43.14285714285714</ele><time>2026-04-18T08:16:08.001Z</time></trkpt><trkpt lat="44.33786833270009" lon="11.702774679660244"><ele>43.714285714285715</ele><time>2026-04-18T08:16:09.001Z</time></trkpt><trkpt lat="44.33779976893022" lon="11.702750655191775"><ele>44.285714285714285</ele><time>2026-04-18T08:16:10.001Z</time></trkpt><trkpt lat="44.337745345447196" lon="11.70269436974636"><ele>44.857142857142854</ele><time>2026-04-18T08:16:11.001Z</time></trkpt><trkpt lat="44.337699190150545" lon="11.702627003249386"><ele>45.42857142857143</ele><time>2026-04-18T08:16:12.001Z</time></trkpt><trkpt lat="44.33765956964637" lon="11.702556263338701"><ele>46.0</ele><time>2026-04-18T08:16:13.001Z</time></trkpt><trkpt lat="44.337623116011926" lon="11.702484270081417"><ele>46.42857142857143</ele><time>2026-04-18T08:16:14.001Z</time></trkpt><trkpt lat="44.33758630972778" lon="11.702408722710734"><ele>46.857142857142854</ele><time>2026-04-18T08:16:15.001Z</time></trkpt><trkpt lat="44.33754725761431" lon="11.70233324270085"><ele>47.285714285714285</ele><time>2026-04-18T08:16:16.001Z</time></trkpt><trkpt lat="44.33750156377806" lon="11.702263473938409"><ele>47.714285714285715</ele><time>2026-04-18T08:16:17.001Z</time></trkpt><trkpt lat="44.33745257337703" lon="11.70219829274976"><ele>48.14285714285714</ele><time>2026-04-18T08:16:18.001Z</time></trkpt><trkpt lat="44.33741089846878" lon="11.702121274691585"><ele>48.57142857142857</ele><time>2026-04-18T08:16:19.001Z</time></trkpt><trkpt lat="44.337369343989515" lon="11.702046126002037"><ele>49.0</ele><time>2026-04-18T08:16:20.001Z</time></trkpt><trkpt lat="44.33732838399934" lon="11.701973283823468"><ele>49.166666666666664</ele><time>2026-04-18T08:16:21.001Z</time></trkpt><trkpt lat="44.337286113263964" lon="11.701901296826362"><ele>49.33333333333333</ele><time>2026-04-18T08:16:22.001Z</time></trkpt><trkpt lat="44.33724429041557" lon="11.701829876279787"><ele>49.5</ele><time>2026-04-18T08:16:23.001Z</time></trkpt><trkpt lat="44.33719994077058" lon="11.70176602798432"><ele>49.66666666666667</ele><time>2026-04-18T08:16:24.001Z</time></trkpt><trkpt lat="44.33712500487211" lon="11.701646090322779"><ele>49.833333333333336</ele><time>2026-04-18T08:16:26.001Z</time></trkpt><trkpt lat="44.33705202175558" lon="11.701539963427358"><ele>50.0</ele><time>2026-04-18T08:16:28.001Z</time></trkpt><trkpt lat="44.33697639389593" lon="11.701420187341016"><ele>50.0</ele><time>2026-04-18T08:16:30.001Z</time></trkpt><trkpt lat="44.33689263146508" lon="11.701299046589208"><ele>50.0</ele><time>2026-04-18T08:16:32.001Z</time></trkpt><trkpt lat="44.33680948204205" lon="11.701177683814334"><ele>50.0</ele><time>2026-04-18T08:16:34.001Z</time></trkpt><trkpt lat="44.33672396065941" lon="11.701059995967396"><ele>50.0</ele><time>2026-04-18T08:16:36.001Z</time></trkpt><trkpt lat="44.336639152287376" lon="11.700937235185126"><ele>50.25</ele><time>2026-04-18T08:16:38.001Z</time></trkpt><trkpt lat="44.336563998858814" lon="11.70080874709762"><ele>50.5</ele><time>2026-04-18T08:16:40.001Z</time></trkpt><trkpt lat="44.33649600118985" lon="11.700684286263144"><ele>50.75</ele><time>2026-04-18T08:16:42.001Z</time></trkpt><trkpt lat="44.33642784380197" lon="11.700551152550254"><ele>51.0</ele><time>2026-04-18T08:16:44.001Z</time></trkpt><trkpt lat="44.33636142245131" lon="11.700431840765255"><ele>52.599999999999994</ele><time>2026-04-18T08:16:46.001Z</time></trkpt><trkpt lat="44.336285243103724" lon="11.700323687977969"><ele>54.2</ele><time>2026-04-18T08:16:48.001Z</time></trkpt><trkpt lat="44.33619815871338" lon="11.700239970269841"><ele>55.800000000000004</ele><time>2026-04-18T08:16:50.001Z</time></trkpt><trkpt lat="44.336091910176485" lon="11.700173899492901"><ele>57.400000000000006</ele><time>2026-04-18T08:16:52.001Z</time></trkpt><trkpt lat="44.33603789908612" lon="11.700123577300285"><ele>59.0</ele><time>2026-04-18T08:16:53.001Z</time></trkpt><trkpt lat="44.33595864481912" lon="11.699996476672448"><ele>59.0</ele><time>2026-04-18T08:16:55.001Z</time></trkpt><trkpt lat="44.33591935766717" lon="11.699926704771817"><ele>59.0</ele><time>2026-04-18T08:16:56.001Z</time></trkpt><trkpt lat="44.33587844452576" lon="11.699848839391715"><ele>59.0</ele><time>2026-04-18T08:16:57.001Z</time></trkpt><trkpt lat="44.335841846419704" lon="11.69977690351373"><ele>59.0</ele><time>2026-04-18T08:16:58.001Z</time></trkpt><trkpt lat="44.335804801977105" lon="11.699696596234032"><ele>59.0</ele><time>2026-04-18T08:16:59.001Z</time></trkpt><trkpt lat="44.33576993029401" lon="11.699618363810636"><ele>59.0</ele><time>2026-04-18T08:17:00.001Z</time></trkpt><trkpt lat="44.33573612555556" lon="11.699538734453975"><ele>59.0</ele><time>2026-04-18T08:17:01.001Z</time></trkpt><trkpt lat="44.33566605563614" lon="11.699385278320822"><ele>58.14285714285714</ele><time>2026-04-18T08:17:03.001Z</time></trkpt><trkpt lat="44.3356269260595" lon="11.699312665725316"><ele>57.28571428571429</ele><time>2026-04-18T08:17:04.001Z</time></trkpt><trkpt lat="44.33558826423798" lon="11.699241035753943"><ele>56.42857142857143</ele><time>2026-04-18T08:17:05.001Z</time></trkpt><trkpt lat="44.33555271418701" lon="11.699164407508894"><ele>55.57142857142857</ele><time>2026-04-18T08:17:06.001Z</time></trkpt><trkpt lat="44.33552307257699" lon="11.699083585737343"><ele>54.71428571428571</ele><time>2026-04-18T08:17:07.001Z</time></trkpt><trkpt lat="44.33548703696193" lon="11.69900779426764"><ele>53.85714285714286</ele><time>2026-04-18T08:17:08.001Z</time></trkpt><trkpt lat="44.33545096928608" lon="11.698933803116855"><ele>53.0</ele><time>2026-04-18T08:17:09.001Z</time></trkpt><trkpt lat="44.33541281628516" lon="11.698858057269627"><ele>53.42857142857143</ele><time>2026-04-18T08:17:10.001Z</time></trkpt><trkpt lat="44.335387046603046" lon="11.698772521167056"><ele>53.857142857142854</ele><time>2026-04-18T08:17:11.001Z</time></trkpt><trkpt lat="44.33535134039655" lon="11.698696184718484"><ele>54.285714285714285</ele><time>2026-04-18T08:17:12.001Z</time></trkpt><trkpt lat="44.3353059003672" lon="11.698624500072798"><ele>54.714285714285715</ele><time>2026-04-18T08:17:13.001Z</time></trkpt><trkpt lat="44.335270715734524" lon="11.698547107208524"><ele>55.14285714285714</ele><time>2026-04-18T08:17:14.001Z</time></trkpt><trkpt lat="44.335231320377595" lon="11.698464791240049"><ele>55.57142857142857</ele><time>2026-04-18T08:17:15.001Z</time></trkpt><trkpt lat="44.33519248193809" lon="11.698382130181106"><ele>56.0</ele><time>2026-04-18T08:17:16.001Z</time></trkpt><trkpt lat="44.33515196842297" lon="11.698298506708777"><ele>56.0</ele><time>2026-04-18T08:17:17.001Z</time></trkpt><trkpt lat="44.335110951122985" lon="11.698208847721855"><ele>56.0</ele><time>2026-04-18T08:17:18.001Z</time></trkpt><trkpt lat="44.335072459078106" lon="11.698121090811869"><ele>56.0</ele><time>2026-04-18T08:17:19.001Z</time></trkpt><trkpt lat="44.33503427608458" lon="11.69803873992797"><ele>56.0</ele><time>2026-04-18T08:17:20.001Z</time></trkpt><trkpt lat="44.33499722535198" lon="11.69795600339589"><ele>56.0</ele><time>2026-04-18T08:17:21.001Z</time></trkpt><trkpt lat="44.334961942971155" lon="11.697880509235787"><ele>56.0</ele><time>2026-04-18T08:17:22.001Z</time></trkpt><trkpt lat="44.334925856317106" lon="11.697807461818423"><ele>56.0</ele><time>2026-04-18T08:17:23.001Z</time></trkpt><trkpt lat="44.334884933282545" lon="11.697727764923426"><ele>56.42857142857143</ele><time>2026-04-18T08:17:24.001Z</time></trkpt><trkpt lat="44.334843153143446" lon="11.69765211657086"><ele>56.85714285714286</ele><time>2026-04-18T08:17:25.001Z</time></trkpt><trkpt lat="44.3347995571439" lon="11.6975760769838"><ele>57.285714285714285</ele><time>2026-04-18T08:17:26.001Z</time></trkpt><trkpt lat="44.334754885769115" lon="11.697496039378475"><ele>57.714285714285715</ele><time>2026-04-18T08:17:27.001Z</time></trkpt><trkpt lat="44.334709457886255" lon="11.697417298798925"><ele>58.142857142857146</ele><time>2026-04-18T08:17:28.001Z</time></trkpt><trkpt lat="44.33466031928969" lon="11.697338097135216"><ele>58.57142857142857</ele><time>2026-04-18T08:17:29.001Z</time></trkpt><trkpt lat="44.33460715375481" lon="11.69726626025665"><ele>59.0</ele><time>2026-04-18T08:17:30.001Z</time></trkpt><trkpt lat="44.33455386585843" lon="11.697193658215614"><ele>59.0</ele><time>2026-04-18T08:17:31.001Z</time></trkpt><trkpt lat="44.334498302626606" lon="11.697121475198873"><ele>59.0</ele><time>2026-04-18T08:17:32.001Z</time></trkpt><trkpt lat="44.334439254201115" lon="11.697060710537421"><ele>59.0</ele><time>2026-04-18T08:17:33.001Z</time></trkpt><trkpt lat="44.33438676298533" lon="11.696995215427318"><ele>59.0</ele><time>2026-04-18T08:17:34.001Z</time></trkpt><trkpt lat="44.33433381048965" lon="11.696923066527832"><ele>59.0</ele><time>2026-04-18T08:17:35.001Z</time></trkpt><trkpt lat="44.33427523809943" lon="11.696854088629484"><ele>59.0</ele><time>2026-04-18T08:17:36.001Z</time></trkpt><trkpt lat="44.334215849853436" lon="11.696783286985466"><ele>59.0</ele><time>2026-04-18T08:17:37.001Z</time></trkpt><trkpt lat="44.33415400250952" lon="11.6967143627954"><ele>58.66666666666667</ele><time>2026-04-18T08:17:38.001Z</time></trkpt><trkpt lat="44.33409224500986" lon="11.696642787507262"><ele>58.333333333333336</ele><time>2026-04-18T08:17:39.001Z</time></trkpt><trkpt lat="44.33403109618829" lon="11.696567567418233"><ele>58.0</ele><time>2026-04-18T08:17:40.001Z</time></trkpt><trkpt lat="44.333967497504695" lon="11.696495668299299"><ele>57.66666666666667</ele><time>2026-04-18T08:17:41.001Z</time></trkpt><trkpt lat="44.33390036266229" lon="11.69642331963893"><ele>57.333333333333336</ele><time>2026-04-18T08:17:42.001Z</time></trkpt><trkpt lat="44.33383202014569" lon="11.696347704796626"><ele>57.0</ele><time>2026-04-18T08:17:43.001Z</time></trkpt><trkpt lat="44.33376469677028" lon="11.696265877639506"><ele>57.0</ele><time>2026-04-18T08:17:44.001Z</time></trkpt><trkpt lat="44.333702270045556" lon="11.696176624595623"><ele>57.0</ele><time>2026-04-18T08:17:45.001Z</time></trkpt><trkpt lat="44.33364612901043" lon="11.696082309279943"><ele>57.0</ele><time>2026-04-18T08:17:46.001Z</time></trkpt><trkpt lat="44.33359186437619" lon="11.69598786610958"><ele>57.0</ele><time>2026-04-18T08:17:47.001Z</time></trkpt><trkpt lat="44.33354211322649" lon="11.69589448853096"><ele>57.0</ele><time>2026-04-18T08:17:48.001Z</time></trkpt><trkpt lat="44.33349872971163" lon="11.695800818385532"><ele>57.0</ele><time>2026-04-18T08:17:49.001Z</time></trkpt><trkpt lat="44.33345330256914" lon="11.695711692989986"><ele>56.14285714285714</ele><time>2026-04-18T08:17:50.001Z</time></trkpt><trkpt lat="44.333409815719975" lon="11.695625659561316"><ele>55.28571428571428</ele><time>2026-04-18T08:17:51.001Z</time></trkpt><trkpt lat="44.33336553077287" lon="11.695539350873512"><ele>54.42857142857143</ele><time>2026-04-18T08:17:52.001Z</time></trkpt><trkpt lat="44.33331618923836" lon="11.695462602542651"><ele>53.57142857142857</ele><time>2026-04-18T08:17:53.001Z</time></trkpt><trkpt lat="44.33326117502407" lon="11.695392668173836"><ele>52.714285714285715</ele><time>2026-04-18T08:17:54.001Z</time></trkpt><trkpt lat="44.333208459857396" lon="11.695319818908741"><ele>51.85714285714286</ele><time>2026-04-18T08:17:55.001Z</time></trkpt><trkpt lat="44.333156448177554" lon="11.695254870628887"><ele>51.0</ele><time>2026-04-18T08:17:56.001Z</time></trkpt><trkpt lat="44.33310186415985" lon="11.695190485142811"><ele>51.714285714285715</ele><time>2026-04-18T08:17:57.001Z</time></trkpt><trkpt lat="44.33305405321113" lon="11.695128087745305"><ele>52.42857142857143</ele><time>2026-04-18T08:17:58.001Z</time></trkpt><trkpt lat="44.333004030684734" lon="11.695060937793148"><ele>53.14285714285714</ele><time>2026-04-18T08:17:59.001Z</time></trkpt><trkpt lat="44.332956192591055" lon="11.694988851768496"><ele>53.85714285714286</ele><time>2026-04-18T08:18:00.001Z</time></trkpt><trkpt lat="44.33291346326846" lon="11.69491311799444"><ele>54.57142857142857</ele><time>2026-04-18T08:18:01.001Z</time></trkpt><trkpt lat="44.33286998948352" lon="11.694841260009985"><ele>55.285714285714285</ele><time>2026-04-18T08:18:02.001Z</time></trkpt><trkpt lat="44.33282534802135" lon="11.694769317020086"><ele>56.0</ele><time>2026-04-18T08:18:03.001Z</time></trkpt><trkpt lat="44.332777927114805" lon="11.694697938435128"><ele>56.0</ele><time>2026-04-18T08:18:04.001Z</time></trkpt><trkpt lat="44.33273128550697" lon="11.694624782118652"><ele>56.0</ele><time>2026-04-18T08:18:05.001Z</time></trkpt><trkpt lat="44.33268374027287" lon="11.694554058340083"><ele>56.0</ele><time>2026-04-18T08:18:06.001Z</time></trkpt><trkpt lat="44.33263539433902" lon="11.694481982534864"><ele>56.0</ele><time>2026-04-18T08:18:07.001Z</time></trkpt><trkpt lat="44.33258799155053" lon="11.694411928220394"><ele>56.0</ele><time>2026-04-18T08:18:08.001Z</time></trkpt><trkpt lat="44.332541718517035" lon="11.694336535021572"><ele>56.0</ele><time>2026-04-18T08:18:09.001Z</time></trkpt><trkpt lat="44.3324986869935" lon="11.694262111889477"><ele>56.0</ele><time>2026-04-18T08:18:10.001Z</time></trkpt><trkpt lat="44.33245601591361" lon="11.694187641047684"><ele>55.42857142857143</ele><time>2026-04-18T08:18:11.001Z</time></trkpt><trkpt lat="44.332417542583855" lon="11.69410780662543"><ele>54.85714285714286</ele><time>2026-04-18T08:18:12.001Z</time></trkpt><trkpt lat="44.33237790933949" lon="11.694032552003033"><ele>54.285714285714285</ele><time>2026-04-18T08:18:13.001Z</time></trkpt><trkpt lat="44.33234099816142" lon="11.693949868512867"><ele>53.714285714285715</ele><time>2026-04-18T08:18:14.001Z</time></trkpt><trkpt lat="44.33230711998978" lon="11.693862897346714"><ele>53.142857142857146</ele><time>2026-04-18T08:18:15.001Z</time></trkpt><trkpt lat="44.332275614354295" lon="11.693775155403765"><ele>52.57142857142857</ele><time>2026-04-18T08:18:16.001Z</time></trkpt><trkpt lat="44.33224335689566" lon="11.693692248627752"><ele>52.0</ele><time>2026-04-18T08:18:17.001Z</time></trkpt><trkpt lat="44.33221085801282" lon="11.693606189064575"><ele>52.57142857142857</ele><time>2026-04-18T08:18:18.001Z</time></trkpt><trkpt lat="44.33218164237682" lon="11.693514807166915"><ele>53.142857142857146</ele><time>2026-04-18T08:18:19.001Z</time></trkpt><trkpt lat="44.332147582397425" lon="11.693422043178279"><ele>53.714285714285715</ele><time>2026-04-18T08:18:20.001Z</time></trkpt><trkpt lat="44.33211005935834" lon="11.69332987220687"><ele>54.285714285714285</ele><time>2026-04-18T08:18:21.001Z</time></trkpt><trkpt lat="44.33207471760202" lon="11.693235483792652"><ele>54.85714285714286</ele><time>2026-04-18T08:18:22.001Z</time></trkpt><trkpt lat="44.33204013929267" lon="11.693140852160496"><ele>55.42857142857143</ele><time>2026-04-18T08:18:23.001Z</time></trkpt><trkpt lat="44.332007072176665" lon="11.693052934080457"><ele>56.0</ele><time>2026-04-18T08:18:24.001Z</time></trkpt><trkpt lat="44.33196913663169" lon="11.692959476554753"><ele>56.0</ele><time>2026-04-18T08:18:25.001Z</time></trkpt><trkpt lat="44.331934956679156" lon="11.692866478034873"><ele>56.0</ele><time>2026-04-18T08:18:26.001Z</time></trkpt><trkpt lat="44.3319002500481" lon="11.69277379332983"><ele>56.0</ele><time>2026-04-18T08:18:27.001Z</time></trkpt><trkpt lat="44.331866414452094" lon="11.692684257030704"><ele>56.0</ele><time>2026-04-18T08:18:28.001Z</time></trkpt><trkpt lat="44.33183075373707" lon="11.692593961513351"><ele>56.0</ele><time>2026-04-18T08:18:29.001Z</time></trkpt><trkpt lat="44.33179780076371" lon="11.692504851034721"><ele>56.0</ele><time>2026-04-18T08:18:30.001Z</time></trkpt><trkpt lat="44.33176650896945" lon="11.692416733474907"><ele>56.0</ele><time>2026-04-18T08:18:31.001Z</time></trkpt><trkpt lat="44.33173764297972" lon="11.692328723391624"><ele>55.285714285714285</ele><time>2026-04-18T08:18:32.001Z</time></trkpt><trkpt lat="44.331707082802076" lon="11.692242101569176"><ele>54.57142857142857</ele><time>2026-04-18T08:18:33.001Z</time></trkpt><trkpt lat="44.33167714909714" lon="11.692154825571947"><ele>53.85714285714286</ele><time>2026-04-18T08:18:34.001Z</time></trkpt><trkpt lat="44.33164586888034" lon="11.692068536658466"><ele>53.14285714285714</ele><time>2026-04-18T08:18:35.001Z</time></trkpt><trkpt lat="44.33162123482544" lon="11.691981246384783"><ele>52.42857142857143</ele><time>2026-04-18T08:18:36.001Z</time></trkpt><trkpt lat="44.331593904834286" lon="11.691890641116638"><ele>51.714285714285715</ele><time>2026-04-18T08:18:37.001Z</time></trkpt><trkpt lat="44.33156185746536" lon="11.691802367348135"><ele>51.0</ele><time>2026-04-18T08:18:38.001Z</time></trkpt><trkpt lat="44.33153859248265" lon="11.691714276181628"><ele>51.0</ele><time>2026-04-18T08:18:39.001Z</time></trkpt><trkpt lat="44.33151054358191" lon="11.691626617412629"><ele>51.0</ele><time>2026-04-18T08:18:40.001Z</time></trkpt><trkpt lat="44.331480090838966" lon="11.691534788863109"><ele>51.0</ele><time>2026-04-18T08:18:41.001Z</time></trkpt><trkpt lat="44.331450811663224" lon="11.6914444559318"><ele>51.0</ele><time>2026-04-18T08:18:42.001Z</time></trkpt><trkpt lat="44.331423099873504" lon="11.69135928872633"><ele>51.0</ele><time>2026-04-18T08:18:43.001Z</time></trkpt><trkpt lat="44.33139496299564" lon="11.691273072946204"><ele>51.0</ele><time>2026-04-18T08:18:44Z</time></trkpt><trkpt lat="44.331366835359574" lon="11.69118521063022"><ele>51.0</ele><time>2026-04-18T08:18:45Z</time></trkpt><trkpt lat="44.331339779558405" lon="11.691097254892666"><ele>50.42857142857143</ele><time>2026-04-18T08:18:46Z</time></trkpt><trkpt lat="44.331311967033514" lon="11.691008662984306"><ele>49.85714285714286</ele><time>2026-04-18T08:18:47Z</time></trkpt><trkpt lat="44.331283558512624" lon="11.690919504217561"><ele>49.285714285714285</ele><time>2026-04-18T08:18:48Z</time></trkpt><trkpt lat="44.33125186226284" lon="11.690829431221227"><ele>48.714285714285715</ele><time>2026-04-18T08:18:49Z</time></trkpt><trkpt lat="44.33122262383132" lon="11.69074163409796"><ele>48.14285714285714</ele><time>2026-04-18T08:18:50Z</time></trkpt><trkpt lat="44.33119526620529" lon="11.690655187862948"><ele>47.57142857142857</ele><time>2026-04-18T08:18:51Z</time></trkpt><trkpt lat="44.33116801293416" lon="11.690567387041192"><ele>47.0</ele><time>2026-04-18T08:18:52Z</time></trkpt><trkpt lat="44.33114059864415" lon="11.690479026397254"><ele>47.0</ele><time>2026-04-18T08:18:53Z</time></trkpt><trkpt lat="44.331111859257454" lon="11.690390007634635"><ele>47.0</ele><time>2026-04-18T08:18:54Z</time></trkpt><trkpt lat="44.33108540867288" lon="11.690302940441267"><ele>47.0</ele><time>2026-04-18T08:18:55Z</time></trkpt><trkpt lat="44.33105697780891" lon="11.690215216601079"><ele>47.0</ele><time>2026-04-18T08:18:56Z</time></trkpt><trkpt lat="44.33102937316347" lon="11.690128710365865"><ele>47.0</ele><time>2026-04-18T08:18:57Z</time></trkpt><trkpt lat="44.3310038133733" lon="11.690042431683866"><ele>47.0</ele><time>2026-04-18T08:18:58Z</time></trkpt><trkpt lat="44.330977985450765" lon="11.689957566802105"><ele>47.0</ele><time>2026-04-18T08:18:59Z</time></trkpt><trkpt lat="44.3309502868815" lon="11.689870839084646"><ele>47.0</ele><time>2026-04-18T08:19:00Z</time></trkpt><trkpt lat="44.3309245124138" lon="11.689788316947551"><ele>47.0</ele><time>2026-04-18T08:19:01Z</time></trkpt><trkpt lat="44.330898132764226" lon="11.689704015932778"><ele>47.0</ele><time>2026-04-18T08:19:02Z</time></trkpt><trkpt lat="44.33086979339352" lon="11.689620257181165"><ele>47.0</ele><time>2026-04-18T08:19:03Z</time></trkpt><trkpt lat="44.33084143021575" lon="11.689536337989962"><ele>47.0</ele><time>2026-04-18T08:19:04Z</time></trkpt><trkpt lat="44.33081401638263" lon="11.689449043665746"><ele>47.0</ele><time>2026-04-18T08:19:05Z</time></trkpt><trkpt lat="44.33078655990041" lon="11.689362900276977"><ele>47.0</ele><time>2026-04-18T08:19:06Z</time></trkpt><trkpt lat="44.33075786310269" lon="11.689279367748572"><ele>46.857142857142854</ele><time>2026-04-18T08:19:07Z</time></trkpt><trkpt lat="44.33072937865677" lon="11.68919668506876"><ele>46.71428571428571</ele><time>2026-04-18T08:19:08Z</time></trkpt><trkpt lat="44.33070179399916" lon="11.6891129050624"><ele>46.57142857142857</ele><time>2026-04-18T08:19:09Z</time></trkpt><trkpt lat="44.330674777776174" lon="11.689029523066692"><ele>46.42857142857143</ele><time>2026-04-18T08:19:10Z</time></trkpt><trkpt lat="44.330645330864265" lon="11.688945384361341"><ele>46.285714285714285</ele><time>2026-04-18T08:19:11Z</time></trkpt><trkpt lat="44.33061427916975" lon="11.688861177516184"><ele>46.142857142857146</ele><time>2026-04-18T08:19:12Z</time></trkpt><trkpt lat="44.330581970515375" lon="11.688779331259223"><ele>46.0</ele><time>2026-04-18T08:19:13Z</time></trkpt><trkpt lat="44.3305495536084" lon="11.688698662431628"><ele>46.16666666666667</ele><time>2026-04-18T08:19:14Z</time></trkpt><trkpt lat="44.33051578315371" lon="11.688618604335254"><ele>46.333333333333336</ele><time>2026-04-18T08:19:15Z</time></trkpt><trkpt lat="44.33047905915703" lon="11.688540623746816"><ele>46.5</ele><time>2026-04-18T08:19:16Z</time></trkpt><trkpt lat="44.330439653788815" lon="11.688459989420616"><ele>46.666666666666664</ele><time>2026-04-18T08:19:17Z</time></trkpt><trkpt lat="44.33040313701476" lon="11.688383294295253"><ele>46.83333333333333</ele><time>2026-04-18T08:19:18Z</time></trkpt><trkpt lat="44.33032823909137" lon="11.688240793203807"><ele>47.0</ele><time>2026-04-18T08:19:20Z</time></trkpt><trkpt lat="44.33028832210503" lon="11.688167453479673"><ele>47.0</ele><time>2026-04-18T08:19:21Z</time></trkpt><trkpt lat="44.33024671485566" lon="11.688093521443285"><ele>47.0</ele><time>2026-04-18T08:19:22Z</time></trkpt><trkpt lat="44.330202944526256" lon="11.688018515283183"><ele>47.0</ele><time>2026-04-18T08:19:23Z</time></trkpt><trkpt lat="44.33016132615571" lon="11.687945391076159"><ele>47.0</ele><time>2026-04-18T08:19:24Z</time></trkpt><trkpt lat="44.33011796458416" lon="11.687870863301221"><ele>47.0</ele><time>2026-04-18T08:19:25Z</time></trkpt><trkpt lat="44.3300719179176" lon="11.687803569801188"><ele>47.0</ele><time>2026-04-18T08:19:26Z</time></trkpt><trkpt lat="44.33002388285037" lon="11.687738361260744"><ele>47.0</ele><time>2026-04-18T08:19:27Z</time></trkpt><trkpt lat="44.32997690109516" lon="11.687673445013868"><ele>47.285714285714285</ele><time>2026-04-18T08:19:28Z</time></trkpt><trkpt lat="44.32992825737119" lon="11.687610102964335"><ele>47.57142857142857</ele><time>2026-04-18T08:19:29Z</time></trkpt><trkpt lat="44.32988019777709" lon="11.687547385599395"><ele>47.85714285714286</ele><time>2026-04-18T08:19:30Z</time></trkpt><trkpt lat="44.32982970122339" lon="11.687485282222458"><ele>48.14285714285714</ele><time>2026-04-18T08:19:31Z</time></trkpt><trkpt lat="44.329781702536266" lon="11.687424934258983"><ele>48.42857142857143</ele><time>2026-04-18T08:19:32Z</time></trkpt><trkpt lat="44.329728689199385" lon="11.687361375447077"><ele>48.714285714285715</ele><time>2026-04-18T08:19:33Z</time></trkpt><trkpt lat="44.32967493771196" lon="11.687300416858042"><ele>49.0</ele><time>2026-04-18T08:19:34Z</time></trkpt><trkpt lat="44.32962353728005" lon="11.687242275129343"><ele>49.0</ele><time>2026-04-18T08:19:35Z</time></trkpt><trkpt lat="44.329571872375155" lon="11.687185038817963"><ele>49.0</ele><time>2026-04-18T08:19:36Z</time></trkpt><trkpt lat="44.32951844324652" lon="11.687127325611534"><ele>49.0</ele><time>2026-04-18T08:19:37Z</time></trkpt><trkpt lat="44.32946419769302" lon="11.687074514480493"><ele>49.0</ele><time>2026-04-18T08:19:38Z</time></trkpt><trkpt lat="44.32940869849088" lon="11.687026523574529"><ele>49.0</ele><time>2026-04-18T08:19:39Z</time></trkpt><trkpt lat="44.32935214741198" lon="11.686978427468949"><ele>49.0</ele><time>2026-04-18T08:19:40Z</time></trkpt><trkpt lat="44.329295916078465" lon="11.686929290905663"><ele>49.0</ele><time>2026-04-18T08:19:41Z</time></trkpt><trkpt lat="44.329241552830275" lon="11.686880997464787"><ele>49.142857142857146</ele><time>2026-04-18T08:19:42Z</time></trkpt><trkpt lat="44.329185860762145" lon="11.686830251499208"><ele>49.285714285714285</ele><time>2026-04-18T08:19:43Z</time></trkpt><trkpt lat="44.329128682349726" lon="11.686781982557623"><ele>49.42857142857143</ele><time>2026-04-18T08:19:44Z</time></trkpt><trkpt lat="44.32907236944692" lon="11.686735135952446"><ele>49.57142857142857</ele><time>2026-04-18T08:19:45Z</time></trkpt><trkpt lat="44.329014813911215" lon="11.686689687442865"><ele>49.714285714285715</ele><time>2026-04-18T08:19:46Z</time></trkpt><trkpt lat="44.32895946512204" lon="11.686641449268924"><ele>49.85714285714286</ele><time>2026-04-18T08:19:47Z</time></trkpt><trkpt lat="44.32890431010907" lon="11.686592429096377"><ele>50.0</ele><time>2026-04-18T08:19:48Z</time></trkpt><trkpt lat="44.3288490765773" lon="11.686544560023675"><ele>50.00000000000001</ele><time>2026-04-18T08:19:49Z</time></trkpt><trkpt lat="44.328793429682996" lon="11.686495910679234"><ele>50.0</ele><time>2026-04-18T08:19:50Z</time></trkpt><trkpt lat="44.32873996964422" lon="11.686445679114925"><ele>50.0</ele><time>2026-04-18T08:19:51Z</time></trkpt><trkpt lat="44.32868640861084" lon="11.686394947273037"><ele>50.0</ele><time>2026-04-18T08:19:52Z</time></trkpt><trkpt lat="44.328629390664645" lon="11.68634723861857"><ele>50.0</ele><time>2026-04-18T08:19:53Z</time></trkpt><trkpt lat="44.32857216874046" lon="11.686300355630665"><ele>50.00000000000001</ele><time>2026-04-18T08:19:54Z</time></trkpt><trkpt lat="44.32851610495623" lon="11.68625527524212"><ele>50.0</ele><time>2026-04-18T08:19:55Z</time></trkpt><trkpt lat="44.32846180465457" lon="11.686205585969551"><ele>50.00000000000001</ele><time>2026-04-18T08:19:56Z</time></trkpt><trkpt lat="44.328406935120746" lon="11.686154149357261"><ele>50.0</ele><time>2026-04-18T08:19:57Z</time></trkpt><trkpt lat="44.32835078266294" lon="11.686105544677053"><ele>50.0</ele><time>2026-04-18T08:19:58Z</time></trkpt><trkpt lat="44.3282949980529" lon="11.686058115951399"><ele>50.0</ele><time>2026-04-18T08:19:59Z</time></trkpt><trkpt lat="44.328239696392906" lon="11.686010215492354"><ele>50.0</ele><time>2026-04-18T08:20:00Z</time></trkpt><trkpt lat="44.32818325190847" lon="11.685962989097481"><ele>50.00000000000001</ele><time>2026-04-18T08:20:01Z</time></trkpt><trkpt lat="44.32812825788657" lon="11.685915666671477"><ele>50.0</ele><time>2026-04-18T08:20:02Z</time></trkpt><trkpt lat="44.32807380185447" lon="11.68587092592465"><ele>50.142857142857146</ele><time>2026-04-18T08:20:03Z</time></trkpt><trkpt lat="44.32802094397968" lon="11.68582278033815"><ele>50.285714285714285</ele><time>2026-04-18T08:20:04Z</time></trkpt><trkpt lat="44.3279675949722" lon="11.685774440560479"><ele>50.42857142857143</ele><time>2026-04-18T08:20:05Z</time></trkpt><trkpt lat="44.32791304306845" lon="11.685725818595781"><ele>50.57142857142857</ele><time>2026-04-18T08:20:06Z</time></trkpt><trkpt lat="44.32785541023613" lon="11.685680417016128"><ele>50.714285714285715</ele><time>2026-04-18T08:20:07Z</time></trkpt><trkpt lat="44.327799502246094" lon="11.685635921133741"><ele>50.85714285714286</ele><time>2026-04-18T08:20:08Z</time></trkpt><trkpt lat="44.32774419560949" lon="11.685589069201924"><ele>51.0</ele><time>2026-04-18T08:20:09Z</time></trkpt><trkpt lat="44.32768687255571" lon="11.685540849290007"><ele>51.0</ele><time>2026-04-18T08:20:10Z</time></trkpt><trkpt lat="44.327632541941945" lon="11.685489029345293"><ele>51.0</ele><time>2026-04-18T08:20:11Z</time></trkpt><trkpt lat="44.32757394226354" lon="11.685441246544054"><ele>51.0</ele><time>2026-04-18T08:20:12Z</time></trkpt><trkpt lat="44.32751608354628" lon="11.685393108487403"><ele>51.0</ele><time>2026-04-18T08:20:13Z</time></trkpt><trkpt lat="44.32745921067239" lon="11.685341870049108"><ele>51.0</ele><time>2026-04-18T08:20:14Z</time></trkpt><trkpt lat="44.327402223825814" lon="11.685291892649897"><ele>51.0</ele><time>2026-04-18T08:20:15Z</time></trkpt><trkpt lat="44.32734490238519" lon="11.685244322883788"><ele>51.0</ele><time>2026-04-18T08:20:16Z</time></trkpt><trkpt lat="44.32728677287184" lon="11.685198473661341"><ele>51.142857142857146</ele><time>2026-04-18T08:20:17Z</time></trkpt><trkpt lat="44.32722956501472" lon="11.685149976587264"><ele>51.28571428571429</ele><time>2026-04-18T08:20:18Z</time></trkpt><trkpt lat="44.32716997371768" lon="11.685101953802489"><ele>51.42857142857143</ele><time>2026-04-18T08:20:19Z</time></trkpt><trkpt lat="44.32711120007511" lon="11.685051236776161"><ele>51.57142857142857</ele><time>2026-04-18T08:20:20Z</time></trkpt><trkpt lat="44.32705140636741" lon="11.685004502970951"><ele>51.714285714285715</ele><time>2026-04-18T08:20:21Z</time></trkpt><trkpt lat="44.32699319047002" lon="11.684951654197489"><ele>51.857142857142854</ele><time>2026-04-18T08:20:22Z</time></trkpt><trkpt lat="44.326935404440114" lon="11.68490060087078"><ele>52.0</ele><time>2026-04-18T08:20:23Z</time></trkpt><trkpt lat="44.32687411417913" lon="11.684851727276945"><ele>52.0</ele><time>2026-04-18T08:20:24Z</time></trkpt><trkpt lat="44.32681456261628" lon="11.684801480044586"><ele>52.0</ele><time>2026-04-18T08:20:25.001Z</time></trkpt><trkpt lat="44.326755496619924" lon="11.684749281516458"><ele>52.0</ele><time>2026-04-18T08:20:26.001Z</time></trkpt><trkpt lat="44.326695605486194" lon="11.68469907143638"><ele>52.0</ele><time>2026-04-18T08:20:27.001Z</time></trkpt><trkpt lat="44.326644437429664" lon="11.68462827114195"><ele>52.0</ele><time>2026-04-18T08:20:28.001Z</time></trkpt><trkpt lat="44.326584225317525" lon="11.684575734439441"><ele>52.0</ele><time>2026-04-18T08:20:29.001Z</time></trkpt><trkpt lat="44.32652501150567" lon="11.68452406879104"><ele>52.0</ele><time>2026-04-18T08:20:30.001Z</time></trkpt><trkpt lat="44.3264656482086" lon="11.68447227270253"><ele>51.857142857142854</ele><time>2026-04-18T08:20:31.001Z</time></trkpt><trkpt lat="44.32640640330624" lon="11.684421215625228"><ele>51.714285714285715</ele><time>2026-04-18T08:20:32.001Z</time></trkpt><trkpt lat="44.32634781550337" lon="11.684370981362848"><ele>51.57142857142857</ele><time>2026-04-18T08:20:33.001Z</time></trkpt><trkpt lat="44.32628748336942" lon="11.68431925141882"><ele>51.42857142857143</ele><time>2026-04-18T08:20:34.001Z</time></trkpt><trkpt lat="44.32622702799231" lon="11.684267415871751"><ele>51.28571428571429</ele><time>2026-04-18T08:20:35.001Z</time></trkpt><trkpt lat="44.32616627726022" lon="11.684215327083075"><ele>51.142857142857146</ele><time>2026-04-18T08:20:36.001Z</time></trkpt><trkpt lat="44.326098892150064" lon="11.68417892976971"><ele>51.0</ele><time>2026-04-18T08:20:37.001Z</time></trkpt><trkpt lat="44.326039556032846" lon="11.684126359866895"><ele>51.0</ele><time>2026-04-18T08:20:38.001Z</time></trkpt><trkpt lat="44.325979841001306" lon="11.684077253918204"><ele>51.0</ele><time>2026-04-18T08:20:39.001Z</time></trkpt><trkpt lat="44.32592017844591" lon="11.684025997779454"><ele>51.0</ele><time>2026-04-18T08:20:40.001Z</time></trkpt><trkpt lat="44.32585941860023" lon="11.683974808383471"><ele>51.0</ele><time>2026-04-18T08:20:41.001Z</time></trkpt><trkpt lat="44.325799757448486" lon="11.683926665346656"><ele>51.0</ele><time>2026-04-18T08:20:42.001Z</time></trkpt><trkpt lat="44.325737059848414" lon="11.683873861670573"><ele>51.0</ele><time>2026-04-18T08:20:43.001Z</time></trkpt><trkpt lat="44.32567542564698" lon="11.683820891866052"><ele>51.0</ele><time>2026-04-18T08:20:44.001Z</time></trkpt><trkpt lat="44.32561429774005" lon="11.683772197264625"><ele>50.714285714285715</ele><time>2026-04-18T08:20:45.001Z</time></trkpt><trkpt lat="44.325553149748345" lon="11.6837301006674"><ele>50.42857142857143</ele><time>2026-04-18T08:20:46.001Z</time></trkpt><trkpt lat="44.32549052388127" lon="11.683687762918527"><ele>50.14285714285714</ele><time>2026-04-18T08:20:47.001Z</time></trkpt><trkpt lat="44.325428102704315" lon="11.683646249501697"><ele>49.85714285714286</ele><time>2026-04-18T08:20:48.001Z</time></trkpt><trkpt lat="44.325364432108266" lon="11.683605928155135"><ele>49.57142857142857</ele><time>2026-04-18T08:20:49.001Z</time></trkpt><trkpt lat="44.32529974171358" lon="11.683567132579004"><ele>49.285714285714285</ele><time>2026-04-18T08:20:50Z</time></trkpt><trkpt lat="44.32523265555012" lon="11.683530959786763"><ele>49.0</ele><time>2026-04-18T08:20:51Z</time></trkpt><trkpt lat="44.325164806440235" lon="11.683496765174855"><ele>49.0</ele><time>2026-04-18T08:20:52Z</time></trkpt><trkpt lat="44.32509794919709" lon="11.683459371176413"><ele>49.0</ele><time>2026-04-18T08:20:53Z</time></trkpt><trkpt lat="44.32503184842846" lon="11.683428682253442"><ele>49.0</ele><time>2026-04-18T08:20:54Z</time></trkpt><trkpt lat="44.32496540959663" lon="11.683393398542925"><ele>49.0</ele><time>2026-04-18T08:20:55Z</time></trkpt><trkpt lat="44.32490077790914" lon="11.683358327245333"><ele>49.0</ele><time>2026-04-18T08:20:56Z</time></trkpt><trkpt lat="44.324831537034406" lon="11.683328826785967"><ele>49.0</ele><time>2026-04-18T08:20:57Z</time></trkpt><trkpt lat="44.3247643147905" lon="11.683297632107694"><ele>49.0</ele><time>2026-04-18T08:20:58Z</time></trkpt><trkpt lat="44.32469817667673" lon="11.68325377005679"><ele>50.14285714285714</ele><time>2026-04-18T08:20:59Z</time></trkpt><trkpt lat="44.324629460778695" lon="11.683224211762052"><ele>51.285714285714285</ele><time>2026-04-18T08:21:00Z</time></trkpt><trkpt lat="44.32456206945545" lon="11.683188741311714"><ele>52.42857142857143</ele><time>2026-04-18T08:21:01Z</time></trkpt><trkpt lat="44.324496583985805" lon="11.68315549175168"><ele>53.57142857142857</ele><time>2026-04-18T08:21:02Z</time></trkpt><trkpt lat="44.324431532702796" lon="11.68311900359122"><ele>54.71428571428571</ele><time>2026-04-18T08:21:03Z</time></trkpt><trkpt lat="44.32436756231294" lon="11.683084143905825"><ele>55.857142857142854</ele><time>2026-04-18T08:21:04Z</time></trkpt><trkpt lat="44.324302783664436" lon="11.683052544231128"><ele>57.0</ele><time>2026-04-18T08:21:05Z</time></trkpt><trkpt lat="44.324238092907606" lon="11.683021622377112"><ele>57.0</ele><time>2026-04-18T08:21:06Z</time></trkpt><trkpt lat="44.324171746407835" lon="11.682988948879443"><ele>56.99999999999999</ele><time>2026-04-18T08:21:07Z</time></trkpt><trkpt lat="44.32410684847527" lon="11.682952767915715"><ele>57.0</ele><time>2026-04-18T08:21:08Z</time></trkpt><trkpt lat="44.32403967499201" lon="11.682920980475368"><ele>57.0</ele><time>2026-04-18T08:21:09Z</time></trkpt><trkpt lat="44.32397177269246" lon="11.6828892171619"><ele>56.99999999999999</ele><time>2026-04-18T08:21:10Z</time></trkpt><trkpt lat="44.32390621798999" lon="11.682852640895792"><ele>57.0</ele><time>2026-04-18T08:21:11Z</time></trkpt><trkpt lat="44.32384109779885" lon="11.682822817285535"><ele>57.0</ele><time>2026-04-18T08:21:12Z</time></trkpt><trkpt lat="44.32377432241952" lon="11.682790703707845"><ele>56.42857142857142</ele><time>2026-04-18T08:21:13Z</time></trkpt><trkpt lat="44.32370907430517" lon="11.682750937107688"><ele>55.85714285714285</ele><time>2026-04-18T08:21:14Z</time></trkpt><trkpt lat="44.32364316306967" lon="11.682720895297868"><ele>55.285714285714285</ele><time>2026-04-18T08:21:15Z</time></trkpt><trkpt lat="44.32357995605874" lon="11.682683364496244"><ele>54.71428571428571</ele><time>2026-04-18T08:21:16Z</time></trkpt><trkpt lat="44.32351479031203" lon="11.682648138174608"><ele>54.14285714285714</ele><time>2026-04-18T08:21:17Z</time></trkpt><trkpt lat="44.32345032706407" lon="11.682614471068067"><ele>53.57142857142857</ele><time>2026-04-18T08:21:18Z</time></trkpt><trkpt lat="44.32338662914704" lon="11.682574320587598"><ele>53.0</ele><time>2026-04-18T08:21:19Z</time></trkpt><trkpt lat="44.323323716714555" lon="11.68253735226291"><ele>53.0</ele><time>2026-04-18T08:21:20Z</time></trkpt><trkpt lat="44.32326263146667" lon="11.682497996401125"><ele>53.0</ele><time>2026-04-18T08:21:21Z</time></trkpt><trkpt lat="44.323199243679774" lon="11.682465236435503"><ele>53.0</ele><time>2026-04-18T08:21:22Z</time></trkpt><trkpt lat="44.32313363397977" lon="11.682432332060676"><ele>53.0</ele><time>2026-04-18T08:21:23Z</time></trkpt><trkpt lat="44.32306892380803" lon="11.682396380789553"><ele>53.0</ele><time>2026-04-18T08:21:24Z</time></trkpt><trkpt lat="44.32300764456527" lon="11.68235820070637"><ele>53.0</ele><time>2026-04-18T08:21:25Z</time></trkpt><trkpt lat="44.322945247399346" lon="11.682325616857838"><ele>53.0</ele><time>2026-04-18T08:21:26Z</time></trkpt><trkpt lat="44.322881630399344" lon="11.68229373947323"><ele>53.85714285714286</ele><time>2026-04-18T08:21:27Z</time></trkpt><trkpt lat="44.32281855233508" lon="11.682258382933224"><ele>54.71428571428571</ele><time>2026-04-18T08:21:28Z</time></trkpt><trkpt lat="44.32275594902783" lon="11.682223792363096"><ele>55.57142857142857</ele><time>2026-04-18T08:21:29Z</time></trkpt><trkpt lat="44.322692853483076" lon="11.682188863273145"><ele>56.42857142857143</ele><time>2026-04-18T08:21:30Z</time></trkpt><trkpt lat="44.32263329797497" lon="11.682148812993077"><ele>57.28571428571429</ele><time>2026-04-18T08:21:31Z</time></trkpt><trkpt lat="44.32257536642367" lon="11.682106995623583"><ele>58.14285714285714</ele><time>2026-04-18T08:21:32Z</time></trkpt><trkpt lat="44.32252074814027" lon="11.682054851119224"><ele>59.0</ele><time>2026-04-18T08:21:33Z</time></trkpt><trkpt lat="44.322465798988546" lon="11.681999701656126"><ele>59.0</ele><time>2026-04-18T08:21:34Z</time></trkpt><trkpt lat="44.32240915406324" lon="11.681944846304072"><ele>59.0</ele><time>2026-04-18T08:21:35Z</time></trkpt><trkpt lat="44.32235227742038" lon="11.681885323262659"><ele>59.0</ele><time>2026-04-18T08:21:36Z</time></trkpt><trkpt lat="44.3222976976603" lon="11.681819432706076"><ele>59.0</ele><time>2026-04-18T08:21:37Z</time></trkpt><trkpt lat="44.32224542304541" lon="11.681753046173817"><ele>59.0</ele><time>2026-04-18T08:21:38Z</time></trkpt><trkpt lat="44.32219460286076" lon="11.681683336830469"><ele>59.0</ele><time>2026-04-18T08:21:39Z</time></trkpt><trkpt lat="44.3221466497602" lon="11.681609687110873"><ele>59.0</ele><time>2026-04-18T08:21:40Z</time></trkpt><trkpt lat="44.32210043384699" lon="11.681534777478745"><ele>59.285714285714285</ele><time>2026-04-18T08:21:41Z</time></trkpt><trkpt lat="44.32205442480924" lon="11.681455149054553"><ele>59.57142857142857</ele><time>2026-04-18T08:21:42Z</time></trkpt><trkpt lat="44.322010906121264" lon="11.68137326335167"><ele>59.857142857142854</ele><time>2026-04-18T08:21:43Z</time></trkpt><trkpt lat="44.32196743025729" lon="11.681289340828519"><ele>60.14285714285714</ele><time>2026-04-18T08:21:44Z</time></trkpt><trkpt lat="44.32193048009509" lon="11.681201571605436"><ele>60.42857142857143</ele><time>2026-04-18T08:21:45Z</time></trkpt><trkpt lat="44.32189576936364" lon="11.68111225997871"><ele>60.71428571428571</ele><time>2026-04-18T08:21:46Z</time></trkpt><trkpt lat="44.321865780706005" lon="11.681021255657672"><ele>60.99999999999999</ele><time>2026-04-18T08:21:47Z</time></trkpt><trkpt lat="44.32183741802217" lon="11.680920156929608"><ele>59.42857142857142</ele><time>2026-04-18T08:21:48Z</time></trkpt><trkpt lat="44.321811070143795" lon="11.680823063741196"><ele>57.857142857142854</ele><time>2026-04-18T08:21:49Z</time></trkpt><trkpt lat="44.32178761430888" lon="11.680728758396127"><ele>56.285714285714285</ele><time>2026-04-18T08:21:50Z</time></trkpt><trkpt lat="44.32176649577537" lon="11.680633879155987"><ele>54.71428571428571</ele><time>2026-04-18T08:21:51Z</time></trkpt><trkpt lat="44.321745534349205" lon="11.680537413935705"><ele>53.14285714285714</ele><time>2026-04-18T08:21:52Z</time></trkpt><trkpt lat="44.32172504699522" lon="11.680445589698286"><ele>51.57142857142858</ele><time>2026-04-18T08:21:53Z</time></trkpt><trkpt lat="44.3217056545304" lon="11.680353393127717"><ele>50.0</ele><time>2026-04-18T08:21:54Z</time></trkpt><trkpt lat="44.32168717962911" lon="11.680262544175092"><ele>49.714285714285715</ele><time>2026-04-18T08:21:55Z</time></trkpt><trkpt lat="44.321666415491876" lon="11.680168386683958"><ele>49.42857142857143</ele><time>2026-04-18T08:21:56Z</time></trkpt><trkpt lat="44.32164419476607" lon="11.680073822652895"><ele>49.14285714285714</ele><time>2026-04-18T08:21:57Z</time></trkpt><trkpt lat="44.321622779349006" lon="11.679982199686746"><ele>48.85714285714286</ele><time>2026-04-18T08:21:58Z</time></trkpt><trkpt lat="44.32160209225492" lon="11.67988976269436"><ele>48.57142857142857</ele><time>2026-04-18T08:21:59Z</time></trkpt><trkpt lat="44.321582525557886" lon="11.679796251158152"><ele>48.285714285714285</ele><time>2026-04-18T08:22:00Z</time></trkpt><trkpt lat="44.321560404054836" lon="11.679702266261527"><ele>48.0</ele><time>2026-04-18T08:22:01Z</time></trkpt><trkpt lat="44.32153739064466" lon="11.67960828960546"><ele>47.99999999999999</ele><time>2026-04-18T08:22:02Z</time></trkpt><trkpt lat="44.32151338227078" lon="11.679519233495324"><ele>48.0</ele><time>2026-04-18T08:22:03Z</time></trkpt><trkpt lat="44.321495694835775" lon="11.679426479294653"><ele>48.0</ele><time>2026-04-18T08:22:04Z</time></trkpt><trkpt lat="44.321474900938206" lon="11.679333362050276"><ele>48.0</ele><time>2026-04-18T08:22:05Z</time></trkpt><trkpt lat="44.32144782689101" lon="11.679241722718972"><ele>48.0</ele><time>2026-04-18T08:22:06Z</time></trkpt><trkpt lat="44.3214196094188" lon="11.67914681671951"><ele>47.99999999999999</ele><time>2026-04-18T08:22:07Z</time></trkpt><trkpt lat="44.321392258738946" lon="11.679060520555186"><ele>48.0</ele><time>2026-04-18T08:22:08Z</time></trkpt><trkpt lat="44.321363693261716" lon="11.678973127996773"><ele>48.285714285714285</ele><time>2026-04-18T08:22:09Z</time></trkpt><trkpt lat="44.321329155746206" lon="11.678888189860297"><ele>48.57142857142857</ele><time>2026-04-18T08:22:10Z</time></trkpt><trkpt lat="44.321291909683644" lon="11.67880337842486"><ele>48.85714285714286</ele><time>2026-04-18T08:22:11Z</time></trkpt><trkpt lat="44.32125716584718" lon="11.678723189544831"><ele>49.14285714285714</ele><time>2026-04-18T08:22:12Z</time></trkpt><trkpt lat="44.32121761842627" lon="11.678638886638133"><ele>49.42857142857143</ele><time>2026-04-18T08:22:13Z</time></trkpt><trkpt lat="44.32117604860227" lon="11.678560211318734"><ele>49.714285714285715</ele><time>2026-04-18T08:22:14Z</time></trkpt><trkpt lat="44.321130519722935" lon="11.678481447238456"><ele>50.0</ele><time>2026-04-18T08:22:15Z</time></trkpt><trkpt lat="44.32108453339815" lon="11.67840175354065"><ele>50.00000000000001</ele><time>2026-04-18T08:22:16Z</time></trkpt><trkpt lat="44.32103739484625" lon="11.678329554018005"><ele>50.0</ele><time>2026-04-18T08:22:17Z</time></trkpt><trkpt lat="44.32098753969315" lon="11.678255478494119"><ele>50.0</ele><time>2026-04-18T08:22:18Z</time></trkpt><trkpt lat="44.320936747513755" lon="11.678180094557552"><ele>50.0</ele><time>2026-04-18T08:22:19Z</time></trkpt><trkpt lat="44.32088939703262" lon="11.67810825179364"><ele>50.0</ele><time>2026-04-18T08:22:20Z</time></trkpt><trkpt lat="44.32083665022203" lon="11.678033881640319"><ele>50.00000000000001</ele><time>2026-04-18T08:22:21Z</time></trkpt><trkpt lat="44.3207848117869" lon="11.67796517099173"><ele>50.0</ele><time>2026-04-18T08:22:22Z</time></trkpt><trkpt lat="44.32073284793099" lon="11.67789170217777"><ele>50.00000000000001</ele><time>2026-04-18T08:22:23Z</time></trkpt><trkpt lat="44.32068205298539" lon="11.677817302066378"><ele>50.0</ele><time>2026-04-18T08:22:24Z</time></trkpt><trkpt lat="44.3206312714507" lon="11.67774216258139"><ele>50.0</ele><time>2026-04-18T08:22:25Z</time></trkpt><trkpt lat="44.32058446404228" lon="11.677670215796832"><ele>50.0</ele><time>2026-04-18T08:22:26.001Z</time></trkpt><trkpt lat="44.32053234984095" lon="11.677599739091832"><ele>50.0</ele><time>2026-04-18T08:22:27.001Z</time></trkpt><trkpt lat="44.320485776004304" lon="11.67752719231767"><ele>50.00000000000001</ele><time>2026-04-18T08:22:28.001Z</time></trkpt><trkpt lat="44.32043572940087" lon="11.677453466961751"><ele>50.0</ele><time>2026-04-18T08:22:29.001Z</time></trkpt><trkpt lat="44.32038662492327" lon="11.67738481332831"><ele>49.85714285714286</ele><time>2026-04-18T08:22:30.001Z</time></trkpt><trkpt lat="44.32034244539134" lon="11.677318783698757"><ele>49.714285714285715</ele><time>2026-04-18T08:22:31.001Z</time></trkpt><trkpt lat="44.320292478347035" lon="11.677248750861558"><ele>49.57142857142857</ele><time>2026-04-18T08:22:32.001Z</time></trkpt><trkpt lat="44.32024604665181" lon="11.677174922626413"><ele>49.42857142857143</ele><time>2026-04-18T08:22:33.001Z</time></trkpt><trkpt lat="44.320193745304785" lon="11.6771015124988"><ele>49.285714285714285</ele><time>2026-04-18T08:22:34.001Z</time></trkpt><trkpt lat="44.32014695068841" lon="11.67702830526992"><ele>49.142857142857146</ele><time>2026-04-18T08:22:35.001Z</time></trkpt><trkpt lat="44.320097496359736" lon="11.676962169651299"><ele>49.0</ele><time>2026-04-18T08:22:36.001Z</time></trkpt><trkpt lat="44.32004592176259" lon="11.676899527812951"><ele>49.0</ele><time>2026-04-18T08:22:37.001Z</time></trkpt><trkpt lat="44.319990438809135" lon="11.676839441854048"><ele>49.0</ele><time>2026-04-18T08:22:38.001Z</time></trkpt><trkpt lat="44.319932384555166" lon="11.676786279511802"><ele>49.0</ele><time>2026-04-18T08:22:39.001Z</time></trkpt><trkpt lat="44.31987013135166" lon="11.676741256919183"><ele>49.0</ele><time>2026-04-18T08:22:40.001Z</time></trkpt><trkpt lat="44.31980464248515" lon="11.676706641061115"><ele>49.0</ele><time>2026-04-18T08:22:41.001Z</time></trkpt><trkpt lat="44.319734691810204" lon="11.676685886261987"><ele>49.0</ele><time>2026-04-18T08:22:42.001Z</time></trkpt><trkpt lat="44.319663641083096" lon="11.676676897259144"><ele>49.0</ele><time>2026-04-18T08:22:43.001Z</time></trkpt><trkpt lat="44.31959218283944" lon="11.676672103999584"><ele>49.0</ele><time>2026-04-18T08:22:44.001Z</time></trkpt><trkpt lat="44.319518284676704" lon="11.676674384501824"><ele>49.0</ele><time>2026-04-18T08:22:45.001Z</time></trkpt><trkpt lat="44.31944833862787" lon="11.676689560791239"><ele>49.0</ele><time>2026-04-18T08:22:46.001Z</time></trkpt><trkpt lat="44.319376478666875" lon="11.676704171118926"><ele>49.0</ele><time>2026-04-18T08:22:47.001Z</time></trkpt><trkpt lat="44.31930443090722" lon="11.676719471426194"><ele>49.0</ele><time>2026-04-18T08:22:48.001Z</time></trkpt><trkpt lat="44.31923514608503" lon="11.676735975783266"><ele>49.0</ele><time>2026-04-18T08:22:49.001Z</time></trkpt><trkpt lat="44.319164066051584" lon="11.676753076452865"><ele>49.0</ele><time>2026-04-18T08:22:50.001Z</time></trkpt><trkpt lat="44.31909418288974" lon="11.676769285482393"><ele>49.0</ele><time>2026-04-18T08:22:51.001Z</time></trkpt><trkpt lat="44.31902483948668" lon="11.676784095508797"><ele>49.0</ele><time>2026-04-18T08:22:52.001Z</time></trkpt><trkpt lat="44.31895397569155" lon="11.676792205262425"><ele>49.0</ele><time>2026-04-18T08:22:53.001Z</time></trkpt><trkpt lat="44.31888323960869" lon="11.676795263713721"><ele>49.0</ele><time>2026-04-18T08:22:54.001Z</time></trkpt><trkpt lat="44.318812464174684" lon="11.67679290926484"><ele>49.0</ele><time>2026-04-18T08:22:55.001Z</time></trkpt><trkpt lat="44.318744352311654" lon="11.67678304078987"><ele>49.0</ele><time>2026-04-18T08:22:56Z</time></trkpt><trkpt lat="44.3186760624936" lon="11.676765926812275"><ele>49.0</ele><time>2026-04-18T08:22:57Z</time></trkpt><trkpt lat="44.318608220124496" lon="11.676739455611619"><ele>50.14285714285714</ele><time>2026-04-18T08:22:58Z</time></trkpt><trkpt lat="44.318541944338264" lon="11.676708279682835"><ele>51.285714285714285</ele><time>2026-04-18T08:22:59Z</time></trkpt><trkpt lat="44.31847838443982" lon="11.676673505996714"><ele>52.42857142857143</ele><time>2026-04-18T08:23:00Z</time></trkpt><trkpt lat="44.31841907385695" lon="11.676633509491786"><ele>53.57142857142857</ele><time>2026-04-18T08:23:01Z</time></trkpt><trkpt lat="44.31835759090081" lon="11.67659078417594"><ele>54.71428571428571</ele><time>2026-04-18T08:23:02Z</time></trkpt><trkpt lat="44.318296792099176" lon="11.676550439013035"><ele>55.857142857142854</ele><time>2026-04-18T08:23:03Z</time></trkpt><trkpt lat="44.31823663315561" lon="11.67650523755374"><ele>57.0</ele><time>2026-04-18T08:23:04Z</time></trkpt><trkpt lat="44.31817670111295" lon="11.676460424338583"><ele>57.0</ele><time>2026-04-18T08:23:05Z</time></trkpt><trkpt lat="44.318117013503695" lon="11.676414154537907"><ele>56.99999999999999</ele><time>2026-04-18T08:23:06Z</time></trkpt><trkpt lat="44.31805357687781" lon="11.676371454064665"><ele>57.0</ele><time>2026-04-18T08:23:07Z</time></trkpt><trkpt lat="44.31799136910733" lon="11.676327192003834"><ele>57.0</ele><time>2026-04-18T08:23:08Z</time></trkpt><trkpt lat="44.31792958531592" lon="11.676285279363764"><ele>56.99999999999999</ele><time>2026-04-18T08:23:09Z</time></trkpt><trkpt lat="44.31786811599708" lon="11.676240275256804"><ele>57.0</ele><time>2026-04-18T08:23:10Z</time></trkpt><trkpt lat="44.317804700113825" lon="11.676196317450705"><ele>57.0</ele><time>2026-04-18T08:23:11Z</time></trkpt><trkpt lat="44.31774299534367" lon="11.676154458510084"><ele>56.71428571428571</ele><time>2026-04-18T08:23:12Z</time></trkpt><trkpt lat="44.317682407911235" lon="11.676110272713844"><ele>56.42857142857142</ele><time>2026-04-18T08:23:13Z</time></trkpt><trkpt lat="44.31762141795167" lon="11.676065182707129"><ele>56.14285714285714</ele><time>2026-04-18T08:23:14Z</time></trkpt><trkpt lat="44.31755923421529" lon="11.676020010699313"><ele>55.857142857142854</ele><time>2026-04-18T08:23:15Z</time></trkpt><trkpt lat="44.31749796263097" lon="11.675977013861223"><ele>55.57142857142857</ele><time>2026-04-18T08:23:16Z</time></trkpt><trkpt lat="44.317436879391394" lon="11.675935606578898"><ele>55.28571428571428</ele><time>2026-04-18T08:23:17Z</time></trkpt><trkpt lat="44.31737652489956" lon="11.675893481954413"><ele>55.0</ele><time>2026-04-18T08:23:18Z</time></trkpt><trkpt lat="44.31731486342088" lon="11.675850434522445"><ele>54.99999999999999</ele><time>2026-04-18T08:23:19Z</time></trkpt><trkpt lat="44.31725447560344" lon="11.6758073058041"><ele>55.0</ele><time>2026-04-18T08:23:20Z</time></trkpt><trkpt lat="44.31719479395698" lon="11.675764724938489"><ele>55.0</ele><time>2026-04-18T08:23:21Z</time></trkpt><trkpt lat="44.31713314497883" lon="11.675720377652857"><ele>55.0</ele><time>2026-04-18T08:23:22Z</time></trkpt><trkpt lat="44.317071856066136" lon="11.675675341361812"><ele>55.0</ele><time>2026-04-18T08:23:23Z</time></trkpt><trkpt lat="44.31700992869315" lon="11.675631440228218"><ele>54.99999999999999</ele><time>2026-04-18T08:23:24Z</time></trkpt><trkpt lat="44.31694749499444" lon="11.675587840117103"><ele>55.0</ele><time>2026-04-18T08:23:25Z</time></trkpt><trkpt lat="44.316885385095155" lon="11.675538722913513"><ele>54.57142857142857</ele><time>2026-04-18T08:23:26Z</time></trkpt><trkpt lat="44.31681952027138" lon="11.67548661406622"><ele>54.14285714285714</ele><time>2026-04-18T08:23:27Z</time></trkpt><trkpt lat="44.31675292795485" lon="11.67543732947868"><ele>53.71428571428571</ele><time>2026-04-18T08:23:28Z</time></trkpt><trkpt lat="44.31668579093993" lon="11.675392919386734"><ele>53.285714285714285</ele><time>2026-04-18T08:23:29Z</time></trkpt><trkpt lat="44.31661956958805" lon="11.675346142405878"><ele>52.85714285714286</ele><time>2026-04-18T08:23:30Z</time></trkpt><trkpt lat="44.31655421987577" lon="11.67529846130071"><ele>52.42857142857142</ele><time>2026-04-18T08:23:31Z</time></trkpt><trkpt lat="44.31648826633653" lon="11.675246265916686"><ele>52.0</ele><time>2026-04-18T08:23:32Z</time></trkpt><trkpt lat="44.31642888507306" lon="11.675185385579294"><ele>53.99999999999999</ele><time>2026-04-18T08:23:33Z</time></trkpt><trkpt lat="44.3163688840654" lon="11.675130045346707"><ele>56.0</ele><time>2026-04-18T08:23:34Z</time></trkpt><trkpt lat="44.31631828777522" lon="11.675067153087719"><ele>58.0</ele><time>2026-04-18T08:23:35Z</time></trkpt><trkpt lat="44.316240877368706" lon="11.674928372212266"><ele>60.0</ele><time>2026-04-18T08:23:37Z</time></trkpt><trkpt lat="44.316206534665305" lon="11.674849231988958"><ele>61.99999999999999</ele><time>2026-04-18T08:23:38Z</time></trkpt><trkpt lat="44.316174954347765" lon="11.674769795140314"><ele>64.0</ele><time>2026-04-18T08:23:39Z</time></trkpt><trkpt lat="44.31614255750187" lon="11.674685809048121"><ele>64.0</ele><time>2026-04-18T08:23:40Z</time></trkpt><trkpt lat="44.316106193360426" lon="11.67460137497286"><ele>63.99999999999999</ele><time>2026-04-18T08:23:41Z</time></trkpt><trkpt lat="44.316071622211865" lon="11.67451184380502"><ele>64.0</ele><time>2026-04-18T08:23:42Z</time></trkpt><trkpt lat="44.31603089047833" lon="11.674427517812896"><ele>64.0</ele><time>2026-04-18T08:23:43Z</time></trkpt><trkpt lat="44.315995946070636" lon="11.674342564230836"><ele>63.99999999999999</ele><time>2026-04-18T08:23:44Z</time></trkpt><trkpt lat="44.315958242097004" lon="11.67426178005116"><ele>64.0</ele><time>2026-04-18T08:23:45Z</time></trkpt><trkpt lat="44.31592058289129" lon="11.674179190126"><ele>64.0</ele><time>2026-04-18T08:23:46Z</time></trkpt><trkpt lat="44.31588193695263" lon="11.67409834412956"><ele>64.0</ele><time>2026-04-18T08:23:47Z</time></trkpt><trkpt lat="44.315843142891765" lon="11.674018301796169"><ele>63.99999999999999</ele><time>2026-04-18T08:23:48Z</time></trkpt><trkpt lat="44.31580081940013" lon="11.673940004151392"><ele>64.0</ele><time>2026-04-18T08:23:49Z</time></trkpt><trkpt lat="44.31575200956765" lon="11.673861769447184"><ele>64.0</ele><time>2026-04-18T08:23:50Z</time></trkpt><trkpt lat="44.31570281482883" lon="11.673790756974903"><ele>63.99999999999999</ele><time>2026-04-18T08:23:51Z</time></trkpt><trkpt lat="44.31565210855158" lon="11.673720706360756"><ele>64.0</ele><time>2026-04-18T08:23:52Z</time></trkpt><trkpt lat="44.315600994935096" lon="11.673650217049525"><ele>64.0</ele><time>2026-04-18T08:23:53Z</time></trkpt><trkpt lat="44.315551667393464" lon="11.673584134446667"><ele>64.0</ele><time>2026-04-18T08:23:54Z</time></trkpt><trkpt lat="44.315498284623104" lon="11.673518322771708"><ele>63.99999999999999</ele><time>2026-04-18T08:23:55Z</time></trkpt><trkpt lat="44.315443751483514" lon="11.673460172251744"><ele>64.0</ele><time>2026-04-18T08:23:56Z</time></trkpt><trkpt lat="44.31538868801014" lon="11.673401862085816"><ele>64.0</ele><time>2026-04-18T08:23:57Z</time></trkpt><trkpt lat="44.315328210047504" lon="11.673348117665913"><ele>63.99999999999999</ele><time>2026-04-18T08:23:58Z</time></trkpt><trkpt lat="44.31526719864102" lon="11.67329530601076"><ele>64.0</ele><time>2026-04-18T08:23:59Z</time></trkpt><trkpt lat="44.31520522364862" lon="11.673241588946784"><ele>64.0</ele><time>2026-04-18T08:24:00Z</time></trkpt><trkpt lat="44.31513981881317" lon="11.673188865063292"><ele>64.0</ele><time>2026-04-18T08:24:01Z</time></trkpt><trkpt lat="44.31507556882957" lon="11.673137618445384"><ele>63.99999999999999</ele><time>2026-04-18T08:24:02Z</time></trkpt><trkpt lat="44.315010800434834" lon="11.673090088736515"><ele>64.0</ele><time>2026-04-18T08:24:03Z</time></trkpt><trkpt lat="44.31494690215409" lon="11.673042206221389"><ele>64.0</ele><time>2026-04-18T08:24:04Z</time></trkpt><trkpt lat="44.31488055039406" lon="11.672994341218157"><ele>63.99999999999999</ele><time>2026-04-18T08:24:05Z</time></trkpt><trkpt lat="44.31481858504559" lon="11.67295081811695"><ele>64.0</ele><time>2026-04-18T08:24:06Z</time></trkpt><trkpt lat="44.314755990885544" lon="11.67290697229613"><ele>64.0</ele><time>2026-04-18T08:24:07Z</time></trkpt><trkpt lat="44.31469228062844" lon="11.672869998904387"><ele>64.85714285714286</ele><time>2026-04-18T08:24:08Z</time></trkpt><trkpt lat="44.31462228501213" lon="11.672827216990784"><ele>65.71428571428571</ele><time>2026-04-18T08:24:09Z</time></trkpt><trkpt lat="44.314554233772945" lon="11.672791805049012"><ele>66.57142857142857</ele><time>2026-04-18T08:24:10Z</time></trkpt><trkpt lat="44.31448984826486" lon="11.672754829565745"><ele>67.42857142857143</ele><time>2026-04-18T08:24:11Z</time></trkpt><trkpt lat="44.31442416019354" lon="11.672718668905148"><ele>68.28571428571428</ele><time>2026-04-18T08:24:12Z</time></trkpt><trkpt lat="44.3143589554608" lon="11.672678929336286"><ele>69.14285714285714</ele><time>2026-04-18T08:24:13Z</time></trkpt><trkpt lat="44.31429283936731" lon="11.672643966481793"><ele>70.0</ele><time>2026-04-18T08:24:14Z</time></trkpt><trkpt lat="44.31422700283671" lon="11.672606436399542"><ele>68.28571428571429</ele><time>2026-04-18T08:24:15Z</time></trkpt><trkpt lat="44.31416084560213" lon="11.672566191836484"><ele>66.57142857142857</ele><time>2026-04-18T08:24:16Z</time></trkpt><trkpt lat="44.31409570072933" lon="11.672527076094708"><ele>64.85714285714286</ele><time>2026-04-18T08:24:17Z</time></trkpt><trkpt lat="44.314031299742425" lon="11.672483493981836"><ele>63.142857142857146</ele><time>2026-04-18T08:24:18Z</time></trkpt><trkpt lat="44.313968856426094" lon="11.672439572474843"><ele>61.42857142857143</ele><time>2026-04-18T08:24:19Z</time></trkpt><trkpt lat="44.31390591584907" lon="11.672394902182894"><ele>59.71428571428572</ele><time>2026-04-18T08:24:20Z</time></trkpt><trkpt lat="44.31384360713496" lon="11.672346472137036"><ele>58.00000000000001</ele><time>2026-04-18T08:24:21Z</time></trkpt><trkpt lat="44.31378127000385" lon="11.672294342596533"><ele>58.00000000000001</ele><time>2026-04-18T08:24:22Z</time></trkpt><trkpt lat="44.31372279686285" lon="11.672238908438608"><ele>58.0</ele><time>2026-04-18T08:24:23Z</time></trkpt><trkpt lat="44.3136666970417" lon="11.672178603046959"><ele>58.00000000000001</ele><time>2026-04-18T08:24:24Z</time></trkpt><trkpt lat="44.3136109043793" lon="11.672118668288036"><ele>58.00000000000001</ele><time>2026-04-18T08:24:25Z</time></trkpt><trkpt lat="44.31355543281805" lon="11.672058578677671"><ele>58.0</ele><time>2026-04-18T08:24:26Z</time></trkpt><trkpt lat="44.313499585352936" lon="11.671995159489262"><ele>58.00000000000001</ele><time>2026-04-18T08:24:27Z</time></trkpt><trkpt lat="44.31344335332142" lon="11.671931719761568"><ele>58.00000000000001</ele><time>2026-04-18T08:24:28Z</time></trkpt><trkpt lat="44.31338819602781" lon="11.671868423272004"><ele>57.71428571428572</ele><time>2026-04-18T08:24:29Z</time></trkpt><trkpt lat="44.313334668191395" lon="11.671803355661773"><ele>57.42857142857143</ele><time>2026-04-18T08:24:30Z</time></trkpt><trkpt lat="44.313281903650164" lon="11.671736283014411"><ele>57.142857142857146</ele><time>2026-04-18T08:24:31Z</time></trkpt><trkpt lat="44.313230038876114" lon="11.671668055921202"><ele>56.85714285714286</ele><time>2026-04-18T08:24:32Z</time></trkpt><trkpt lat="44.31317879283605" lon="11.671600053664664"><ele>56.57142857142857</ele><time>2026-04-18T08:24:33Z</time></trkpt><trkpt lat="44.31312535636202" lon="11.67153310176661"><ele>56.285714285714285</ele><time>2026-04-18T08:24:34Z</time></trkpt><trkpt lat="44.3130707142047" lon="11.671468215080148"><ele>56.0</ele><time>2026-04-18T08:24:35Z</time></trkpt><trkpt lat="44.313017130781546" lon="11.671401870452776"><ele>56.42857142857143</ele><time>2026-04-18T08:24:36Z</time></trkpt><trkpt lat="44.31296125467911" lon="11.671337642954603"><ele>56.85714285714286</ele><time>2026-04-18T08:24:37Z</time></trkpt><trkpt lat="44.31290985326396" lon="11.671274506828684"><ele>57.285714285714285</ele><time>2026-04-18T08:24:38Z</time></trkpt><trkpt lat="44.31285753856449" lon="11.671204670462066"><ele>57.714285714285715</ele><time>2026-04-18T08:24:39Z</time></trkpt><trkpt lat="44.3128031637231" lon="11.671139576679451"><ele>58.142857142857146</ele><time>2026-04-18T08:24:40Z</time></trkpt><trkpt lat="44.31275023483031" lon="11.671073643981691"><ele>58.57142857142857</ele><time>2026-04-18T08:24:41Z</time></trkpt><trkpt lat="44.31269802465977" lon="11.671010519500461"><ele>59.0</ele><time>2026-04-18T08:24:42Z</time></trkpt><trkpt lat="44.31264450438097" lon="11.670946620493751"><ele>59.0</ele><time>2026-04-18T08:24:43Z</time></trkpt><trkpt lat="44.312591022743646" lon="11.670881846912293"><ele>59.0</ele><time>2026-04-18T08:24:44Z</time></trkpt><trkpt lat="44.3125380055036" lon="11.670814882981198"><ele>59.0</ele><time>2026-04-18T08:24:45Z</time></trkpt><trkpt lat="44.31248382876469" lon="11.670750082218335"><ele>59.0</ele><time>2026-04-18T08:24:46Z</time></trkpt><trkpt lat="44.312430517581944" lon="11.670683578481874"><ele>59.0</ele><time>2026-04-18T08:24:47Z</time></trkpt><trkpt lat="44.312376474809106" lon="11.670617193718405"><ele>59.0</ele><time>2026-04-18T08:24:48Z</time></trkpt><trkpt lat="44.31232475237468" lon="11.67055486358124"><ele>59.0</ele><time>2026-04-18T08:24:49.001Z</time></trkpt><trkpt lat="44.31226858802993" lon="11.670490746689396"><ele>58.42857142857142</ele><time>2026-04-18T08:24:50.001Z</time></trkpt><trkpt lat="44.31221400625617" lon="11.670422966842233"><ele>57.85714285714286</ele><time>2026-04-18T08:24:51.001Z</time></trkpt><trkpt lat="44.31215855263883" lon="11.670354647142823"><ele>57.285714285714285</ele><time>2026-04-18T08:24:52.001Z</time></trkpt><trkpt lat="44.31210478876841" lon="11.670290287209333"><ele>56.71428571428571</ele><time>2026-04-18T08:24:53.001Z</time></trkpt><trkpt lat="44.31205107482747" lon="11.670224492853647"><ele>56.14285714285714</ele><time>2026-04-18T08:24:54.001Z</time></trkpt><trkpt lat="44.31199808673585" lon="11.670157077108938"><ele>55.57142857142857</ele><time>2026-04-18T08:24:55.001Z</time></trkpt><trkpt lat="44.31194384273733" lon="11.670091546141533"><ele>55.0</ele><time>2026-04-18T08:24:56.001Z</time></trkpt><trkpt lat="44.311889663557665" lon="11.670024228039276"><ele>54.99999999999999</ele><time>2026-04-18T08:24:57.001Z</time></trkpt><trkpt lat="44.31183551162991" lon="11.66995991513044"><ele>55.0</ele><time>2026-04-18T08:24:58.001Z</time></trkpt><trkpt lat="44.31178188625322" lon="11.669894906451006"><ele>55.0</ele><time>2026-04-18T08:24:59.001Z</time></trkpt><trkpt lat="44.31172930416261" lon="11.669828476393482"><ele>55.0</ele><time>2026-04-18T08:25:00.001Z</time></trkpt><trkpt lat="44.31167639863053" lon="11.669763888494787"><ele>55.0</ele><time>2026-04-18T08:25:01.001Z</time></trkpt><trkpt lat="44.31162394439131" lon="11.669698406737119"><ele>54.99999999999999</ele><time>2026-04-18T08:25:02Z</time></trkpt><trkpt lat="44.31157012112293" lon="11.669633117035032"><ele>55.0</ele><time>2026-04-18T08:25:03Z</time></trkpt><trkpt lat="44.3115171646937" lon="11.669568358651349"><ele>54.99999999999999</ele><time>2026-04-18T08:25:04Z</time></trkpt><trkpt lat="44.31146401646848" lon="11.66950314160857"><ele>55.0</ele><time>2026-04-18T08:25:05Z</time></trkpt><trkpt lat="44.31141157722489" lon="11.669438657159954"><ele>55.0</ele><time>2026-04-18T08:25:06Z</time></trkpt><trkpt lat="44.31135653160221" lon="11.6693731248313"><ele>55.0</ele><time>2026-04-18T08:25:07Z</time></trkpt><trkpt lat="44.31130430659731" lon="11.669307192067732"><ele>55.0</ele><time>2026-04-18T08:25:08Z</time></trkpt><trkpt lat="44.31125115724603" lon="11.669242496886378"><ele>54.99999999999999</ele><time>2026-04-18T08:25:09Z</time></trkpt><trkpt lat="44.31119759792224" lon="11.669174712559013"><ele>55.0</ele><time>2026-04-18T08:25:10Z</time></trkpt><trkpt lat="44.31114281757616" lon="11.669108030367244"><ele>55.14285714285714</ele><time>2026-04-18T08:25:11Z</time></trkpt><trkpt lat="44.31108917410766" lon="11.669043901184846"><ele>55.285714285714285</ele><time>2026-04-18T08:25:12Z</time></trkpt><trkpt lat="44.3110361062534" lon="11.668978859779555"><ele>55.42857142857143</ele><time>2026-04-18T08:25:13Z</time></trkpt><trkpt lat="44.31098307211714" lon="11.668912677000563"><ele>55.57142857142857</ele><time>2026-04-18T08:25:14Z</time></trkpt><trkpt lat="44.31093067885256" lon="11.668848999637655"><ele>55.714285714285715</ele><time>2026-04-18T08:25:15Z</time></trkpt><trkpt lat="44.3108773317319" lon="11.668780935404595"><ele>55.857142857142854</ele><time>2026-04-18T08:25:16Z</time></trkpt><trkpt lat="44.31082327278655" lon="11.668715048850263"><ele>56.0</ele><time>2026-04-18T08:25:17Z</time></trkpt><trkpt lat="44.310772550906776" lon="11.668648640843886"><ele>55.857142857142854</ele><time>2026-04-18T08:25:18Z</time></trkpt><trkpt lat="44.310720653074064" lon="11.668580616264624"><ele>55.714285714285715</ele><time>2026-04-18T08:25:19Z</time></trkpt><trkpt lat="44.310670269488455" lon="11.668512387338478"><ele>55.57142857142857</ele><time>2026-04-18T08:25:20Z</time></trkpt><trkpt lat="44.31062022056923" lon="11.668443302422256"><ele>55.42857142857143</ele><time>2026-04-18T08:25:21Z</time></trkpt><trkpt lat="44.31056992280445" lon="11.66837304979713"><ele>55.285714285714285</ele><time>2026-04-18T08:25:22Z</time></trkpt><trkpt lat="44.310523590267515" lon="11.668304948812382"><ele>55.14285714285714</ele><time>2026-04-18T08:25:23Z</time></trkpt><trkpt lat="44.31047781389856" lon="11.668231939178975"><ele>55.0</ele><time>2026-04-18T08:25:24Z</time></trkpt><trkpt lat="44.310435727958165" lon="11.66815387592347"><ele>55.28571428571428</ele><time>2026-04-18T08:25:25Z</time></trkpt><trkpt lat="44.31039743933683" lon="11.668069439392594"><ele>55.57142857142857</ele><time>2026-04-18T08:25:26Z</time></trkpt><trkpt lat="44.31036227016037" lon="11.667986527761315"><ele>55.857142857142854</ele><time>2026-04-18T08:25:27Z</time></trkpt><trkpt lat="44.310328113446296" lon="11.667897056680458"><ele>56.14285714285714</ele><time>2026-04-18T08:25:28Z</time></trkpt><trkpt lat="44.310297363530616" lon="11.667813063970675"><ele>56.42857142857142</ele><time>2026-04-18T08:25:29Z</time></trkpt><trkpt lat="44.310265420097785" lon="11.66772473691261"><ele>56.71428571428571</ele><time>2026-04-18T08:25:30Z</time></trkpt><trkpt lat="44.310234426274" lon="11.667633988767296"><ele>57.0</ele><time>2026-04-18T08:25:31Z</time></trkpt><trkpt lat="44.3102041643829" lon="11.667547731790222"><ele>57.0</ele><time>2026-04-18T08:25:32Z</time></trkpt><trkpt lat="44.3101677041747" lon="11.667457752107822"><ele>56.99999999999999</ele><time>2026-04-18T08:25:33Z</time></trkpt><trkpt lat="44.310135732792155" lon="11.667366211054551"><ele>57.0</ele><time>2026-04-18T08:25:34Z</time></trkpt><trkpt lat="44.31010647001778" lon="11.667273455567699"><ele>57.0</ele><time>2026-04-18T08:25:35Z</time></trkpt><trkpt lat="44.310077300347785" lon="11.667183327704675"><ele>56.99999999999999</ele><time>2026-04-18T08:25:36Z</time></trkpt><trkpt lat="44.310044805190266" lon="11.667089679058162"><ele>57.0</ele><time>2026-04-18T08:25:37Z</time></trkpt><trkpt lat="44.31001532863438" lon="11.667001878486017"><ele>57.0</ele><time>2026-04-18T08:25:38Z</time></trkpt><trkpt lat="44.30998653164427" lon="11.666912293114564"><ele>56.857142857142854</ele><time>2026-04-18T08:25:39Z</time></trkpt><trkpt lat="44.30995857215145" lon="11.666826059599094"><ele>56.71428571428571</ele><time>2026-04-18T08:25:40Z</time></trkpt><trkpt lat="44.30992794928259" lon="11.66673727764996"><ele>56.57142857142857</ele><time>2026-04-18T08:25:41Z</time></trkpt><trkpt lat="44.30989954763599" lon="11.66665404364448"><ele>56.42857142857143</ele><time>2026-04-18T08:25:42Z</time></trkpt><trkpt lat="44.309871963567296" lon="11.666572972772583"><ele>56.285714285714285</ele><time>2026-04-18T08:25:43Z</time></trkpt><trkpt lat="44.30984291234191" lon="11.66648931024309"><ele>56.14285714285714</ele><time>2026-04-18T08:25:44Z</time></trkpt><trkpt lat="44.30981503287412" lon="11.66640456002401"><ele>56.0</ele><time>2026-04-18T08:25:45Z</time></trkpt><trkpt lat="44.30978495028027" lon="11.666319312324303"><ele>56.0</ele><time>2026-04-18T08:25:46Z</time></trkpt><trkpt lat="44.30975497369751" lon="11.666233269319592"><ele>56.0</ele><time>2026-04-18T08:25:47Z</time></trkpt><trkpt lat="44.309725390645134" lon="11.666148217287443"><ele>56.0</ele><time>2026-04-18T08:25:48Z</time></trkpt><trkpt lat="44.30969443307754" lon="11.666060850106904"><ele>56.0</ele><time>2026-04-18T08:25:49Z</time></trkpt><trkpt lat="44.30966689203018" lon="11.665976680508068"><ele>56.0</ele><time>2026-04-18T08:25:50Z</time></trkpt><trkpt lat="44.30963588795369" lon="11.66588847811695"><ele>56.0</ele><time>2026-04-18T08:25:51Z</time></trkpt><trkpt lat="44.30960492333101" lon="11.665802423269591"><ele>56.0</ele><time>2026-04-18T08:25:52Z</time></trkpt><trkpt lat="44.30957425104064" lon="11.665711439284472"><ele>56.285714285714285</ele><time>2026-04-18T08:25:53Z</time></trkpt><trkpt lat="44.3095432151582" lon="11.665623870017155"><ele>56.57142857142857</ele><time>2026-04-18T08:25:54Z</time></trkpt><trkpt lat="44.309515317701376" lon="11.665536788571012"><ele>56.85714285714286</ele><time>2026-04-18T08:25:55Z</time></trkpt><trkpt lat="44.30948564643796" lon="11.665451138791003"><ele>57.142857142857146</ele><time>2026-04-18T08:25:56Z</time></trkpt><trkpt lat="44.309454261487296" lon="11.665360979049765"><ele>57.42857142857143</ele><time>2026-04-18T08:25:57Z</time></trkpt><trkpt lat="44.30942276882168" lon="11.665273020526906"><ele>57.71428571428572</ele><time>2026-04-18T08:25:58Z</time></trkpt><trkpt lat="44.309392669711144" lon="11.665183562535049"><ele>58.00000000000001</ele><time>2026-04-18T08:25:59Z</time></trkpt><trkpt lat="44.30936437674569" lon="11.665095363217281"><ele>58.00000000000001</ele><time>2026-04-18T08:26:00Z</time></trkpt><trkpt lat="44.30933165711155" lon="11.665006925493017"><ele>58.0</ele><time>2026-04-18T08:26:01Z</time></trkpt><trkpt lat="44.30930417838901" lon="11.6649198558771"><ele>58.00000000000001</ele><time>2026-04-18T08:26:02Z</time></trkpt><trkpt lat="44.309273970838305" lon="11.664831491156646"><ele>58.00000000000001</ele><time>2026-04-18T08:26:03Z</time></trkpt><trkpt lat="44.30924304451203" lon="11.664742095778548"><ele>58.0</ele><time>2026-04-18T08:26:04Z</time></trkpt><trkpt lat="44.30921670842395" lon="11.664659896235477"><ele>58.00000000000001</ele><time>2026-04-18T08:26:05Z</time></trkpt><trkpt lat="44.309190381091675" lon="11.664571725608457"><ele>58.00000000000001</ele><time>2026-04-18T08:26:06Z</time></trkpt><trkpt lat="44.30916017047117" lon="11.66448219840965"><ele>57.71428571428572</ele><time>2026-04-18T08:26:07Z</time></trkpt><trkpt lat="44.30913148431242" lon="11.664392690699508"><ele>57.42857142857143</ele><time>2026-04-18T08:26:08Z</time></trkpt><trkpt lat="44.30910440536553" lon="11.664305494166246"><ele>57.142857142857146</ele><time>2026-04-18T08:26:09Z</time></trkpt><trkpt lat="44.3090768283971" lon="11.66421474712487"><ele>56.85714285714286</ele><time>2026-04-18T08:26:10Z</time></trkpt><trkpt lat="44.30904599359306" lon="11.664130472158188"><ele>56.57142857142857</ele><time>2026-04-18T08:26:11Z</time></trkpt><trkpt lat="44.309015249810216" lon="11.664046006676625"><ele>56.285714285714285</ele><time>2026-04-18T08:26:12Z</time></trkpt><trkpt lat="44.30898422276865" lon="11.663958251278103"><ele>56.0</ele><time>2026-04-18T08:26:13Z</time></trkpt><trkpt lat="44.30895395009972" lon="11.663872548482656"><ele>56.0</ele><time>2026-04-18T08:26:14Z</time></trkpt><trkpt lat="44.30892127697701" lon="11.6637845786374"><ele>56.0</ele><time>2026-04-18T08:26:15Z</time></trkpt><trkpt lat="44.30889277046002" lon="11.663700423107223"><ele>56.0</ele><time>2026-04-18T08:26:16Z</time></trkpt><trkpt lat="44.30886153295031" lon="11.663611832554652"><ele>56.0</ele><time>2026-04-18T08:26:17Z</time></trkpt><trkpt lat="44.3088306598066" lon="11.663522587907604"><ele>56.0</ele><time>2026-04-18T08:26:18Z</time></trkpt><trkpt lat="44.30880061010141" lon="11.663436524012038"><ele>56.0</ele><time>2026-04-18T08:26:19Z</time></trkpt><trkpt lat="44.308771351721624" lon="11.6633544472545"><ele>56.0</ele><time>2026-04-18T08:26:20Z</time></trkpt><trkpt lat="44.30874168058238" lon="11.663268357957863"><ele>55.857142857142854</ele><time>2026-04-18T08:26:21Z</time></trkpt><trkpt lat="44.308709821354206" lon="11.663180866312011"><ele>55.714285714285715</ele><time>2026-04-18T08:26:22Z</time></trkpt><trkpt lat="44.30868004727478" lon="11.663095857746393"><ele>55.57142857142857</ele><time>2026-04-18T08:26:23Z</time></trkpt><trkpt lat="44.30865166898174" lon="11.663011579769433"><ele>55.42857142857143</ele><time>2026-04-18T08:26:24Z</time></trkpt><trkpt lat="44.30861916939604" lon="11.662926109323813"><ele>55.285714285714285</ele><time>2026-04-18T08:26:25Z</time></trkpt><trkpt lat="44.308588094312476" lon="11.662841843160138"><ele>55.14285714285714</ele><time>2026-04-18T08:26:26Z</time></trkpt><trkpt lat="44.308558452596806" lon="11.662755874445418"><ele>55.0</ele><time>2026-04-18T08:26:27Z</time></trkpt><trkpt lat="44.30853203558558" lon="11.662672162704693"><ele>54.99999999999999</ele><time>2026-04-18T08:26:28Z</time></trkpt><trkpt lat="44.30850188157139" lon="11.662587602632298"><ele>55.0</ele><time>2026-04-18T08:26:29Z</time></trkpt><trkpt lat="44.30847078705308" lon="11.662501538179965"><ele>55.0</ele><time>2026-04-18T08:26:30Z</time></trkpt><trkpt lat="44.30841563025235" lon="11.662332904086279"><ele>55.0</ele><time>2026-04-18T08:26:32Z</time></trkpt><trkpt lat="44.30838516467956" lon="11.662244289550616"><ele>54.99999999999999</ele><time>2026-04-18T08:26:33Z</time></trkpt><trkpt lat="44.30835662729757" lon="11.662158489228979"><ele>55.0</ele><time>2026-04-18T08:26:34Z</time></trkpt><trkpt lat="44.30832763865425" lon="11.662073201287079"><ele>54.99999999999999</ele><time>2026-04-18T08:26:35Z</time></trkpt><trkpt lat="44.30829897174246" lon="11.661988506841825"><ele>55.0</ele><time>2026-04-18T08:26:36Z</time></trkpt><trkpt lat="44.30827117720123" lon="11.661903520103566"><ele>55.0</ele><time>2026-04-18T08:26:37Z</time></trkpt><trkpt lat="44.308239911051785" lon="11.661817940594068"><ele>55.0</ele><time>2026-04-18T08:26:38Z</time></trkpt><trkpt lat="44.308207755640794" lon="11.661729130904694"><ele>55.0</ele><time>2026-04-18T08:26:39Z</time></trkpt><trkpt lat="44.30817824231132" lon="11.661640200046236"><ele>54.99999999999999</ele><time>2026-04-18T08:26:40Z</time></trkpt><trkpt lat="44.308148008863945" lon="11.661553202847362"><ele>55.0</ele><time>2026-04-18T08:26:41Z</time></trkpt><trkpt lat="44.30811777920335" lon="11.661461934647114"><ele>54.99999999999999</ele><time>2026-04-18T08:26:42Z</time></trkpt><trkpt lat="44.3080905649249" lon="11.661377926290966"><ele>55.0</ele><time>2026-04-18T08:26:43Z</time></trkpt><trkpt lat="44.30805536057834" lon="11.661290862430112"><ele>55.0</ele><time>2026-04-18T08:26:44Z</time></trkpt><trkpt lat="44.30802774196695" lon="11.661205727196249"><ele>55.0</ele><time>2026-04-18T08:26:45Z</time></trkpt><trkpt lat="44.30799996989509" lon="11.661112960856375"><ele>55.0</ele><time>2026-04-18T08:26:46Z</time></trkpt><trkpt lat="44.307967520331424" lon="11.66102686464683"><ele>54.99999999999999</ele><time>2026-04-18T08:26:47Z</time></trkpt><trkpt lat="44.30793656020868" lon="11.660941757735067"><ele>55.0</ele><time>2026-04-18T08:26:48Z</time></trkpt><trkpt lat="44.30790747756394" lon="11.660853341099326"><ele>54.99999999999999</ele><time>2026-04-18T08:26:49Z</time></trkpt><trkpt lat="44.30787751311591" lon="11.660766032421263"><ele>55.0</ele><time>2026-04-18T08:26:50Z</time></trkpt><trkpt lat="44.30784753733445" lon="11.66068006641993"><ele>55.0</ele><time>2026-04-18T08:26:51Z</time></trkpt><trkpt lat="44.30781427183862" lon="11.660594547555114"><ele>55.0</ele><time>2026-04-18T08:26:52Z</time></trkpt><trkpt lat="44.307784280166565" lon="11.660508695443601"><ele>55.0</ele><time>2026-04-18T08:26:53Z</time></trkpt><trkpt lat="44.30775298743814" lon="11.66042108744292"><ele>54.99999999999999</ele><time>2026-04-18T08:26:54Z</time></trkpt><trkpt lat="44.307720414169" lon="11.660334143057728"><ele>55.0</ele><time>2026-04-18T08:26:55Z</time></trkpt><trkpt lat="44.30768472136331" lon="11.660243842679579"><ele>55.14285714285714</ele><time>2026-04-18T08:26:56Z</time></trkpt><trkpt lat="44.3076532978523" lon="11.660154850766903"><ele>55.285714285714285</ele><time>2026-04-18T08:26:57Z</time></trkpt><trkpt lat="44.30762194075168" lon="11.66007030518345"><ele>55.42857142857143</ele><time>2026-04-18T08:26:58Z</time></trkpt><trkpt lat="44.30758899484313" lon="11.659985019555938"><ele>55.57142857142857</ele><time>2026-04-18T08:26:59Z</time></trkpt><trkpt lat="44.30755380176058" lon="11.659900425747495"><ele>55.714285714285715</ele><time>2026-04-18T08:27:00Z</time></trkpt><trkpt lat="44.30751916243146" lon="11.659813114141526"><ele>55.857142857142854</ele><time>2026-04-18T08:27:01Z</time></trkpt><trkpt lat="44.3074870331084" lon="11.659729330024312"><ele>56.0</ele><time>2026-04-18T08:27:02Z</time></trkpt><trkpt lat="44.30745120815156" lon="11.659639121548423"><ele>56.0</ele><time>2026-04-18T08:27:03Z</time></trkpt><trkpt lat="44.30741815331611" lon="11.659554804876867"><ele>56.0</ele><time>2026-04-18T08:27:04Z</time></trkpt><trkpt lat="44.307381194915266" lon="11.659478351986753"><ele>56.0</ele><time>2026-04-18T08:27:05Z</time></trkpt><trkpt lat="44.307344025798464" lon="11.659393085244979"><ele>56.0</ele><time>2026-04-18T08:27:06Z</time></trkpt><trkpt lat="44.3073114162451" lon="11.659308234835612"><ele>56.0</ele><time>2026-04-18T08:27:07Z</time></trkpt><trkpt lat="44.30727579672742" lon="11.659227331679691"><ele>56.0</ele><time>2026-04-18T08:27:08.001Z</time></trkpt><trkpt lat="44.3072333658738" lon="11.659142705617693"><ele>56.0</ele><time>2026-04-18T08:27:09.001Z</time></trkpt><trkpt lat="44.30719749355136" lon="11.659063654819144"><ele>56.42857142857143</ele><time>2026-04-18T08:27:10.001Z</time></trkpt><trkpt lat="44.30716536761021" lon="11.658980379193896"><ele>56.85714285714286</ele><time>2026-04-18T08:27:11.001Z</time></trkpt><trkpt lat="44.30712446852708" lon="11.65890161681614"><ele>57.285714285714285</ele><time>2026-04-18T08:27:12.001Z</time></trkpt><trkpt lat="44.30709136554666" lon="11.658814694825361"><ele>57.714285714285715</ele><time>2026-04-18T08:27:13.001Z</time></trkpt><trkpt lat="44.30705325771344" lon="11.658739232348225"><ele>58.142857142857146</ele><time>2026-04-18T08:27:14.001Z</time></trkpt><trkpt lat="44.30701307926049" lon="11.658660580932871"><ele>58.57142857142857</ele><time>2026-04-18T08:27:15.001Z</time></trkpt><trkpt lat="44.30697257385196" lon="11.658579519582318"><ele>59.0</ele><time>2026-04-18T08:27:16.001Z</time></trkpt><trkpt lat="44.306934109330186" lon="11.658498657721912"><ele>59.0</ele><time>2026-04-18T08:27:17.001Z</time></trkpt><trkpt lat="44.30690065779493" lon="11.658417769727635"><ele>59.0</ele><time>2026-04-18T08:27:18.001Z</time></trkpt><trkpt lat="44.30685835832266" lon="11.658336432174965"><ele>59.0</ele><time>2026-04-18T08:27:19.001Z</time></trkpt><trkpt lat="44.30681390643932" lon="11.658258499387916"><ele>59.0</ele><time>2026-04-18T08:27:20.001Z</time></trkpt><trkpt lat="44.30676919812557" lon="11.65817799471056"><ele>59.0</ele><time>2026-04-18T08:27:21Z</time></trkpt><trkpt lat="44.30673105274775" lon="11.658098702039135"><ele>59.0</ele><time>2026-04-18T08:27:22Z</time></trkpt><trkpt lat="44.30668953331208" lon="11.658017005699957"><ele>59.0</ele><time>2026-04-18T08:27:23Z</time></trkpt><trkpt lat="44.30664820665049" lon="11.657939554124164"><ele>59.0</ele><time>2026-04-18T08:27:24Z</time></trkpt><trkpt lat="44.306607031497855" lon="11.657862079113864"><ele>59.0</ele><time>2026-04-18T08:27:25Z</time></trkpt><trkpt lat="44.30656418413143" lon="11.657783331584286"><ele>59.0</ele><time>2026-04-18T08:27:26Z</time></trkpt><trkpt lat="44.30652396039767" lon="11.65770541634283"><ele>59.0</ele><time>2026-04-18T08:27:27Z</time></trkpt><trkpt lat="44.30648055714965" lon="11.657623889853726"><ele>59.0</ele><time>2026-04-18T08:27:28Z</time></trkpt><trkpt lat="44.306438514495134" lon="11.657547813612773"><ele>59.0</ele><time>2026-04-18T08:27:29Z</time></trkpt><trkpt lat="44.30639626516542" lon="11.657467954275274"><ele>59.0</ele><time>2026-04-18T08:27:30Z</time></trkpt><trkpt lat="44.306352362080894" lon="11.657387762668103"><ele>58.71428571428571</ele><time>2026-04-18T08:27:31Z</time></trkpt><trkpt lat="44.306311103175766" lon="11.657309140898212"><ele>58.42857142857143</ele><time>2026-04-18T08:27:32Z</time></trkpt><trkpt lat="44.30626956310003" lon="11.657231544264112"><ele>58.14285714285714</ele><time>2026-04-18T08:27:33Z</time></trkpt><trkpt lat="44.3062256491151" lon="11.657153159121489"><ele>57.857142857142854</ele><time>2026-04-18T08:27:34Z</time></trkpt><trkpt lat="44.30618233530845" lon="11.657073668931526"><ele>57.57142857142857</ele><time>2026-04-18T08:27:35Z</time></trkpt><trkpt lat="44.30614189797404" lon="11.656995770144396"><ele>57.285714285714285</ele><time>2026-04-18T08:27:36Z</time></trkpt><trkpt lat="44.30609946705316" lon="11.656913710618818"><ele>57.0</ele><time>2026-04-18T08:27:37Z</time></trkpt><trkpt lat="44.30605791623657" lon="11.6568366190738"><ele>57.0</ele><time>2026-04-18T08:27:38Z</time></trkpt><trkpt lat="44.306016197588555" lon="11.656758578489454"><ele>56.99999999999999</ele><time>2026-04-18T08:27:39Z</time></trkpt><trkpt lat="44.305972396842016" lon="11.656681824293168"><ele>57.0</ele><time>2026-04-18T08:27:40Z</time></trkpt><trkpt lat="44.305931041973295" lon="11.656604538036888"><ele>57.0</ele><time>2026-04-18T08:27:41Z</time></trkpt><trkpt lat="44.305889039222514" lon="11.656524930936545"><ele>56.99999999999999</ele><time>2026-04-18T08:27:42Z</time></trkpt><trkpt lat="44.30584684884946" lon="11.656445400818154"><ele>57.0</ele><time>2026-04-18T08:27:43Z</time></trkpt><trkpt lat="44.30580523359603" lon="11.65636632995465"><ele>57.0</ele><time>2026-04-18T08:27:44Z</time></trkpt><trkpt lat="44.30576259173748" lon="11.656288364823176"><ele>57.0</ele><time>2026-04-18T08:27:45Z</time></trkpt><trkpt lat="44.30571877486938" lon="11.656207142054264"><ele>56.99999999999999</ele><time>2026-04-18T08:27:46Z</time></trkpt><trkpt lat="44.3056764232742" lon="11.65612587448985"><ele>57.0</ele><time>2026-04-18T08:27:47Z</time></trkpt><trkpt lat="44.305634036943935" lon="11.656040333361823"><ele>57.0</ele><time>2026-04-18T08:27:48Z</time></trkpt><trkpt lat="44.30559105130922" lon="11.655958319189454"><ele>56.99999999999999</ele><time>2026-04-18T08:27:49Z</time></trkpt><trkpt lat="44.30554385298588" lon="11.6558774546746"><ele>57.0</ele><time>2026-04-18T08:27:50Z</time></trkpt><trkpt lat="44.30549908616854" lon="11.65580081554828"><ele>57.0</ele><time>2026-04-18T08:27:51Z</time></trkpt><trkpt lat="44.30545870005306" lon="11.655722628198149"><ele>57.14285714285714</ele><time>2026-04-18T08:27:52Z</time></trkpt><trkpt lat="44.305418651894655" lon="11.655644513669829"><ele>57.28571428571428</ele><time>2026-04-18T08:27:53Z</time></trkpt><trkpt lat="44.305377192615566" lon="11.655570325253283"><ele>57.42857142857143</ele><time>2026-04-18T08:27:54Z</time></trkpt><trkpt lat="44.30533474923546" lon="11.655497561563859"><ele>57.57142857142857</ele><time>2026-04-18T08:27:55Z</time></trkpt><trkpt lat="44.305290475454086" lon="11.655424174978547"><ele>57.714285714285715</ele><time>2026-04-18T08:27:56Z</time></trkpt><trkpt lat="44.30524507385424" lon="11.65535651547987"><ele>57.85714285714286</ele><time>2026-04-18T08:27:57Z</time></trkpt><trkpt lat="44.305197550082895" lon="11.655290702747536"><ele>58.00000000000001</ele><time>2026-04-18T08:27:58Z</time></trkpt><trkpt lat="44.305145653472536" lon="11.655226175249034"><ele>58.00000000000001</ele><time>2026-04-18T08:27:59Z</time></trkpt><trkpt lat="44.30509502696061" lon="11.655161878829334"><ele>58.0</ele><time>2026-04-18T08:28:00Z</time></trkpt><trkpt lat="44.305041847621574" lon="11.65509954941794"><ele>58.00000000000001</ele><time>2026-04-18T08:28:01Z</time></trkpt><trkpt lat="44.30498779894884" lon="11.655043390438744"><ele>58.00000000000001</ele><time>2026-04-18T08:28:02Z</time></trkpt><trkpt lat="44.304931165263866" lon="11.654986464908921"><ele>58.0</ele><time>2026-04-18T08:28:03Z</time></trkpt><trkpt lat="44.304872483341406" lon="11.654932454490313"><ele>58.00000000000001</ele><time>2026-04-18T08:28:04Z</time></trkpt><trkpt lat="44.30481363412476" lon="11.654882487075431"><ele>58.00000000000001</ele><time>2026-04-18T08:28:05Z</time></trkpt><trkpt lat="44.30475304418642" lon="11.654833037275294"><ele>58.42857142857144</ele><time>2026-04-18T08:28:06Z</time></trkpt><trkpt lat="44.30469422052089" lon="11.654786197907667"><ele>58.85714285714286</ele><time>2026-04-18T08:28:07Z</time></trkpt><trkpt lat="44.304634524825424" lon="11.654740944791818"><ele>59.285714285714285</ele><time>2026-04-18T08:28:08Z</time></trkpt><trkpt lat="44.30457441313972" lon="11.654699260336338"><ele>59.714285714285715</ele><time>2026-04-18T08:28:09Z</time></trkpt><trkpt lat="44.304513089326846" lon="11.654659941856297"><ele>60.14285714285714</ele><time>2026-04-18T08:28:10Z</time></trkpt><trkpt lat="44.30444906905513" lon="11.654628076884626"><ele>60.57142857142856</ele><time>2026-04-18T08:28:11Z</time></trkpt><trkpt lat="44.304386489147" lon="11.654595577361036"><ele>60.99999999999999</ele><time>2026-04-18T08:28:12Z</time></trkpt><trkpt lat="44.30432067583005" lon="11.654572828679896"><ele>60.99999999999999</ele><time>2026-04-18T08:28:13Z</time></trkpt><trkpt lat="44.30425608215128" lon="11.65455184102195"><ele>61.0</ele><time>2026-04-18T08:28:14Z</time></trkpt><trkpt lat="44.30419245413752" lon="11.654531494591097"><ele>61.0</ele><time>2026-04-18T08:28:15Z</time></trkpt><trkpt lat="44.3041276525642" lon="11.654517729972753"><ele>61.0</ele><time>2026-04-18T08:28:16Z</time></trkpt><trkpt lat="44.30406445491396" lon="11.654502087462667"><ele>60.99999999999999</ele><time>2026-04-18T08:28:17Z</time></trkpt><trkpt lat="44.30400074223374" lon="11.654488729385998"><ele>61.0</ele><time>2026-04-18T08:28:18Z</time></trkpt><trkpt lat="44.30387551744854" lon="11.65446649181691"><ele>63.0</ele><time>2026-04-18T08:28:20Z</time></trkpt><trkpt lat="44.30375298699307" lon="11.65444769522459"><ele>65.0</ele><time>2026-04-18T08:28:22Z</time></trkpt><trkpt lat="44.30363749233808" lon="11.65443633179265"><ele>67.0</ele><time>2026-04-18T08:28:24Z</time></trkpt><trkpt lat="44.30352122159856" lon="11.654421066962493"><ele>69.0</ele><time>2026-04-18T08:28:26Z</time></trkpt><trkpt lat="44.3034094160358" lon="11.654408165958605"><ele>69.0</ele><time>2026-04-18T08:28:28Z</time></trkpt><trkpt lat="44.30331054068476" lon="11.65436546298137"><ele>69.0</ele><time>2026-04-18T08:28:30Z</time></trkpt><trkpt lat="44.30321782425477" lon="11.654288733414608"><ele>69.0</ele><time>2026-04-18T08:28:32Z</time></trkpt><trkpt lat="44.303143365983985" lon="11.654179603564453"><ele>69.0</ele><time>2026-04-18T08:28:34Z</time></trkpt><trkpt lat="44.30309564896036" lon="11.654048091291028"><ele>69.0</ele><time>2026-04-18T08:28:36Z</time></trkpt><trkpt lat="44.30307081667156" lon="11.653900445397882"><ele>70.4</ele><time>2026-04-18T08:28:38Z</time></trkpt><trkpt lat="44.30305144995689" lon="11.653751810251654"><ele>71.80000000000001</ele><time>2026-04-18T08:28:40Z</time></trkpt><trkpt lat="44.30303519068483" lon="11.653603149222569"><ele>73.19999999999999</ele><time>2026-04-18T08:28:42Z</time></trkpt><trkpt lat="44.30300483589433" lon="11.65345985226332"><ele>74.6</ele><time>2026-04-18T08:28:44Z</time></trkpt><trkpt lat="44.30296500150687" lon="11.653322156117826"><ele>76.0</ele><time>2026-04-18T08:28:46Z</time></trkpt><trkpt lat="44.3029057399998" lon="11.653209871474335"><ele>76.0</ele><time>2026-04-18T08:28:48Z</time></trkpt><trkpt lat="44.30282259483205" lon="11.653126516696478"><ele>76.0</ele><time>2026-04-18T08:28:50Z</time></trkpt><trkpt lat="44.30271912097159" lon="11.653079389549616"><ele>76.0</ele><time>2026-04-18T08:28:52Z</time></trkpt><trkpt lat="44.3026129138321" lon="11.653056427315404"><ele>76.0</ele><time>2026-04-18T08:28:54Z</time></trkpt><trkpt lat="44.30250504350374" lon="11.653037784662652"><ele>76.0</ele><time>2026-04-18T08:28:56Z</time></trkpt><trkpt lat="44.302395962596925" lon="11.653007937302297"><ele>76.0</ele><time>2026-04-18T08:28:58Z</time></trkpt><trkpt lat="44.302292730236964" lon="11.652989852327607"><ele>76.0</ele><time>2026-04-18T08:29:00Z</time></trkpt><trkpt lat="44.3021921723907" lon="11.652970078189014"><ele>76.0</ele><time>2026-04-18T08:29:02Z</time></trkpt><trkpt lat="44.30209368817321" lon="11.652944183735547"><ele>76.0</ele><time>2026-04-18T08:29:04Z</time></trkpt><trkpt lat="44.30199422627519" lon="11.652924492918453"><ele>76.0</ele><time>2026-04-18T08:29:06Z</time></trkpt><trkpt lat="44.30189718896669" lon="11.65290833889319"><ele>76.8</ele><time>2026-04-18T08:29:08Z</time></trkpt><trkpt lat="44.301801722824706" lon="11.6528853142941"><ele>77.6</ele><time>2026-04-18T08:29:10Z</time></trkpt><trkpt lat="44.30170514460482" lon="11.652863552940136"><ele>78.4</ele><time>2026-04-18T08:29:12Z</time></trkpt><trkpt lat="44.301610060003895" lon="11.652845043158731"><ele>79.2</ele><time>2026-04-18T08:29:14Z</time></trkpt><trkpt lat="44.30151462995714" lon="11.652822002172314"><ele>80.0</ele><time>2026-04-18T08:29:16Z</time></trkpt><trkpt lat="44.30141908651121" lon="11.652800170234762"><ele>81.2</ele><time>2026-04-18T08:29:18Z</time></trkpt><trkpt lat="44.30132251833659" lon="11.652775011406224"><ele>82.4</ele><time>2026-04-18T08:29:20Z</time></trkpt><trkpt lat="44.30122761660342" lon="11.652753571206022"><ele>83.6</ele><time>2026-04-18T08:29:22Z</time></trkpt><trkpt lat="44.30113308122717" lon="11.65273319480441"><ele>84.8</ele><time>2026-04-18T08:29:24Z</time></trkpt><trkpt lat="44.30103740309896" lon="11.652713858064894"><ele>86.0</ele><time>2026-04-18T08:29:26Z</time></trkpt><trkpt lat="44.30094225699597" lon="11.652691820574066"><ele>86.0</ele><time>2026-04-18T08:29:28Z</time></trkpt><trkpt lat="44.300849174503874" lon="11.652672859293377"><ele>86.0</ele><time>2026-04-18T08:29:30Z</time></trkpt><trkpt lat="44.30075295364611" lon="11.652650234378347"><ele>86.0</ele><time>2026-04-18T08:29:32Z</time></trkpt><trkpt lat="44.30065693146509" lon="11.652626918174946"><ele>86.0</ele><time>2026-04-18T08:29:34Z</time></trkpt><trkpt lat="44.300564551234785" lon="11.652605578594615"><ele>86.0</ele><time>2026-04-18T08:29:36Z</time></trkpt><trkpt lat="44.30046794295921" lon="11.652584326638891"><ele>86.6</ele><time>2026-04-18T08:29:38Z</time></trkpt><trkpt lat="44.30037356735574" lon="11.652560765151192"><ele>87.19999999999999</ele><time>2026-04-18T08:29:40Z</time></trkpt><trkpt lat="44.30027809166384" lon="11.652526689910982"><ele>87.80000000000001</ele><time>2026-04-18T08:29:42Z</time></trkpt><trkpt lat="44.300185721579936" lon="11.652478933331851"><ele>88.4</ele><time>2026-04-18T08:29:44Z</time></trkpt><trkpt lat="44.300099210680465" lon="11.652414607114773"><ele>89.0</ele><time>2026-04-18T08:29:46Z</time></trkpt><trkpt lat="44.30001772338886" lon="11.652339081773162"><ele>89.0</ele><time>2026-04-18T08:29:48Z</time></trkpt><trkpt lat="44.29993681859992" lon="11.65225201319171"><ele>89.0</ele><time>2026-04-18T08:29:50Z</time></trkpt><trkpt lat="44.29986215607042" lon="11.652146990763194"><ele>89.0</ele><time>2026-04-18T08:29:52Z</time></trkpt><trkpt lat="44.2997988611231" lon="11.65203027479605"><ele>89.0</ele><time>2026-04-18T08:29:54Z</time></trkpt><trkpt lat="44.299744900427605" lon="11.651897976655638"><ele>89.0</ele><time>2026-04-18T08:29:56Z</time></trkpt><trkpt lat="44.29969279097066" lon="11.651755006703052"><ele>89.5</ele><time>2026-04-18T08:29:58Z</time></trkpt><trkpt lat="44.29964821134571" lon="11.651610828434322"><ele>90.0</ele><time>2026-04-18T08:30:00Z</time></trkpt><trkpt lat="44.29960331331887" lon="11.651460539853302"><ele>90.5</ele><time>2026-04-18T08:30:02Z</time></trkpt><trkpt lat="44.2995540489977" lon="11.651309767579104"><ele>91.0</ele><time>2026-04-18T08:30:04Z</time></trkpt><trkpt lat="44.29950684541464" lon="11.651155133513573"><ele>90.83333333333333</ele><time>2026-04-18T08:30:06Z</time></trkpt><trkpt lat="44.29945962915397" lon="11.650995536834905"><ele>90.66666666666666</ele><time>2026-04-18T08:30:08Z</time></trkpt><trkpt lat="44.29941142368043" lon="11.650836289711926"><ele>90.5</ele><time>2026-04-18T08:30:10Z</time></trkpt><trkpt lat="44.29938530603689" lon="11.650753709027008"><ele>90.33333333333333</ele><time>2026-04-18T08:30:11Z</time></trkpt><trkpt lat="44.29935966668245" lon="11.650667696909224"><ele>90.16666666666667</ele><time>2026-04-18T08:30:12Z</time></trkpt><trkpt lat="44.299332355931604" lon="11.650584334387924"><ele>90.0</ele><time>2026-04-18T08:30:13Z</time></trkpt><trkpt lat="44.29930495551074" lon="11.650500503498547"><ele>90.0</ele><time>2026-04-18T08:30:14Z</time></trkpt><trkpt lat="44.299276558393764" lon="11.650417682499855"><ele>90.0</ele><time>2026-04-18T08:30:15Z</time></trkpt><trkpt lat="44.29924613490814" lon="11.650333311903028"><ele>90.0</ele><time>2026-04-18T08:30:16Z</time></trkpt><trkpt lat="44.29921078484731" lon="11.650251329011788"><ele>90.0</ele><time>2026-04-18T08:30:17Z</time></trkpt><trkpt lat="44.29917058723149" lon="11.650174660720086"><ele>90.0</ele><time>2026-04-18T08:30:18Z</time></trkpt><trkpt lat="44.299122182183744" lon="11.650107439196324"><ele>90.0</ele><time>2026-04-18T08:30:19Z</time></trkpt><trkpt lat="44.29907146898387" lon="11.65004168885418"><ele>90.0</ele><time>2026-04-18T08:30:20Z</time></trkpt><trkpt lat="44.29901689093861" lon="11.649984981186"><ele>90.14285714285714</ele><time>2026-04-18T08:30:21Z</time></trkpt><trkpt lat="44.29896046851401" lon="11.649936461672224"><ele>90.28571428571429</ele><time>2026-04-18T08:30:22Z</time></trkpt><trkpt lat="44.29890419137716" lon="11.649890057695144"><ele>90.42857142857143</ele><time>2026-04-18T08:30:23Z</time></trkpt><trkpt lat="44.29884498407583" lon="11.649849508747476"><ele>90.57142857142857</ele><time>2026-04-18T08:30:24Z</time></trkpt><trkpt lat="44.298782753712345" lon="11.64980776480986"><ele>90.71428571428572</ele><time>2026-04-18T08:30:25Z</time></trkpt><trkpt lat="44.29872245133172" lon="11.649766292016565"><ele>90.85714285714286</ele><time>2026-04-18T08:30:26Z</time></trkpt><trkpt lat="44.29866127544487" lon="11.649723207885227"><ele>91.0</ele><time>2026-04-18T08:30:27Z</time></trkpt><trkpt lat="44.29860209773343" lon="11.649677711660152"><ele>91.0</ele><time>2026-04-18T08:30:28Z</time></trkpt><trkpt lat="44.29853890221683" lon="11.649632821274086"><ele>91.0</ele><time>2026-04-18T08:30:29Z</time></trkpt><trkpt lat="44.298478767283605" lon="11.649584930220058"><ele>91.0</ele><time>2026-04-18T08:30:30Z</time></trkpt><trkpt lat="44.298421520076815" lon="11.64953160106421"><ele>91.0</ele><time>2026-04-18T08:30:31Z</time></trkpt><trkpt lat="44.29836726887901" lon="11.649471236023262"><ele>91.0</ele><time>2026-04-18T08:30:32Z</time></trkpt><trkpt lat="44.29831361473627" lon="11.649407476519842"><ele>91.0</ele><time>2026-04-18T08:30:33Z</time></trkpt><trkpt lat="44.29826082258327" lon="11.64934046806691"><ele>91.0</ele><time>2026-04-18T08:30:34Z</time></trkpt><trkpt lat="44.29820975004195" lon="11.649276408095652"><ele>91.0</ele><time>2026-04-18T08:30:35Z</time></trkpt><trkpt lat="44.29816208730388" lon="11.649204828254552"><ele>91.0</ele><time>2026-04-18T08:30:36Z</time></trkpt><trkpt lat="44.29812166094116" lon="11.649131841702047"><ele>91.0</ele><time>2026-04-18T08:30:37Z</time></trkpt><trkpt lat="44.29807643323001" lon="11.649063011266886"><ele>91.0</ele><time>2026-04-18T08:30:38Z</time></trkpt><trkpt lat="44.29802946493551" lon="11.648994171829205"><ele>91.0</ele><time>2026-04-18T08:30:39Z</time></trkpt><trkpt lat="44.2979827719812" lon="11.648920611452088"><ele>91.0</ele><time>2026-04-18T08:30:40Z</time></trkpt><trkpt lat="44.29793720022273" lon="11.648848539121397"><ele>91.0</ele><time>2026-04-18T08:30:41Z</time></trkpt><trkpt lat="44.2978879427236" lon="11.648776490101051"><ele>91.0</ele><time>2026-04-18T08:30:42Z</time></trkpt><trkpt lat="44.29783704949443" lon="11.648704758466051"><ele>91.0</ele><time>2026-04-18T08:30:43Z</time></trkpt><trkpt lat="44.29778871024689" lon="11.648629790591208"><ele>91.0</ele><time>2026-04-18T08:30:44Z</time></trkpt><trkpt lat="44.2977400555148" lon="11.648555653854356"><ele>91.0</ele><time>2026-04-18T08:30:45Z</time></trkpt><trkpt lat="44.29769140104316" lon="11.648484295925044"><ele>91.0</ele><time>2026-04-18T08:30:46Z</time></trkpt><trkpt lat="44.29764665630098" lon="11.648411211864458"><ele>91.0</ele><time>2026-04-18T08:30:47Z</time></trkpt><trkpt lat="44.29760104871219" lon="11.648339404321748"><ele>91.0</ele><time>2026-04-18T08:30:48Z</time></trkpt><trkpt lat="44.29755388288579" lon="11.64826745349825"><ele>90.85714285714286</ele><time>2026-04-18T08:30:49Z</time></trkpt><trkpt lat="44.29750376314044" lon="11.648193795188435"><ele>90.71428571428572</ele><time>2026-04-18T08:30:50Z</time></trkpt><trkpt lat="44.29745477366703" lon="11.648119921816303"><ele>90.57142857142857</ele><time>2026-04-18T08:30:51Z</time></trkpt><trkpt lat="44.297405511822575" lon="11.64804638879586"><ele>90.42857142857143</ele><time>2026-04-18T08:30:52Z</time></trkpt><trkpt lat="44.29735579912118" lon="11.647972159191223"><ele>90.28571428571429</ele><time>2026-04-18T08:30:53Z</time></trkpt><trkpt lat="44.297306461496724" lon="11.647897157240259"><ele>90.14285714285714</ele><time>2026-04-18T08:30:54Z</time></trkpt><trkpt lat="44.29725599485657" lon="11.647823682343226"><ele>90.0</ele><time>2026-04-18T08:30:55Z</time></trkpt><trkpt lat="44.29720374213257" lon="11.647748202050835"><ele>89.71428571428571</ele><time>2026-04-18T08:30:56Z</time></trkpt><trkpt lat="44.297154995096214" lon="11.647671982222587"><ele>89.42857142857143</ele><time>2026-04-18T08:30:57Z</time></trkpt><trkpt lat="44.29710469393221" lon="11.647597729074793"><ele>89.14285714285714</ele><time>2026-04-18T08:30:58Z</time></trkpt><trkpt lat="44.29705342805059" lon="11.647522127062478"><ele>88.85714285714286</ele><time>2026-04-18T08:30:59Z</time></trkpt><trkpt lat="44.29700219020527" lon="11.64744486901967"><ele>88.57142857142857</ele><time>2026-04-18T08:31:00Z</time></trkpt><trkpt lat="44.29695178821008" lon="11.647368975770235"><ele>88.28571428571429</ele><time>2026-04-18T08:31:01Z</time></trkpt><trkpt lat="44.29690101086028" lon="11.647290850145962"><ele>88.0</ele><time>2026-04-18T08:31:02Z</time></trkpt><trkpt lat="44.296848940003954" lon="11.64721240835824"><ele>88.0</ele><time>2026-04-18T08:31:03Z</time></trkpt><trkpt lat="44.29679676440724" lon="11.647135881454295"><ele>88.0</ele><time>2026-04-18T08:31:04Z</time></trkpt><trkpt lat="44.296745629318266" lon="11.64705889838875"><ele>88.0</ele><time>2026-04-18T08:31:05Z</time></trkpt><trkpt lat="44.296693956343496" lon="11.646981262165097"><ele>88.0</ele><time>2026-04-18T08:31:06Z</time></trkpt><trkpt lat="44.29664148339052" lon="11.646903085327734"><ele>88.0</ele><time>2026-04-18T08:31:07Z</time></trkpt><trkpt lat="44.29659032763376" lon="11.646825800782178"><ele>88.0</ele><time>2026-04-18T08:31:08Z</time></trkpt><trkpt lat="44.29653982492503" lon="11.646750829136336"><ele>87.42857142857143</ele><time>2026-04-18T08:31:09Z</time></trkpt><trkpt lat="44.29648886193914" lon="11.646676510255267"><ele>86.85714285714286</ele><time>2026-04-18T08:31:10Z</time></trkpt><trkpt lat="44.2964374550887" lon="11.646601277583935"><ele>86.28571428571428</ele><time>2026-04-18T08:31:11Z</time></trkpt><trkpt lat="44.296387114108185" lon="11.646527155464973"><ele>85.71428571428572</ele><time>2026-04-18T08:31:12Z</time></trkpt><trkpt lat="44.29633585272906" lon="11.646450294630645"><ele>85.14285714285714</ele><time>2026-04-18T08:31:13Z</time></trkpt><trkpt lat="44.29628467258543" lon="11.64637397916248"><ele>84.57142857142857</ele><time>2026-04-18T08:31:14Z</time></trkpt><trkpt lat="44.296235496780334" lon="11.646300563078125"><ele>84.0</ele><time>2026-04-18T08:31:15Z</time></trkpt><trkpt lat="44.29618808536483" lon="11.646226976346904"><ele>84.0</ele><time>2026-04-18T08:31:16Z</time></trkpt><trkpt lat="44.29613925211667" lon="11.646151576350354"><ele>84.0</ele><time>2026-04-18T08:31:17Z</time></trkpt><trkpt lat="44.29609032053786" lon="11.646078124792876"><ele>84.0</ele><time>2026-04-18T08:31:18Z</time></trkpt><trkpt lat="44.2960408050384" lon="11.646003899245779"><ele>84.0</ele><time>2026-04-18T08:31:19Z</time></trkpt><trkpt lat="44.2959933507168" lon="11.645931584347377"><ele>84.0</ele><time>2026-04-18T08:31:20Z</time></trkpt><trkpt lat="44.29594690970892" lon="11.645861827192041"><ele>84.0</ele><time>2026-04-18T08:31:21Z</time></trkpt><trkpt lat="44.295898760171625" lon="11.645790828476267"><ele>84.0</ele><time>2026-04-18T08:31:22Z</time></trkpt><trkpt lat="44.295851914792244" lon="11.645718504846807"><ele>84.14285714285714</ele><time>2026-04-18T08:31:23Z</time></trkpt><trkpt lat="44.295805445897265" lon="11.645645566323571"><ele>84.28571428571428</ele><time>2026-04-18T08:31:24Z</time></trkpt><trkpt lat="44.29575998116302" lon="11.645573895443036"><ele>84.42857142857143</ele><time>2026-04-18T08:31:25Z</time></trkpt><trkpt lat="44.29571313189002" lon="11.64550444179347"><ele>84.57142857142857</ele><time>2026-04-18T08:31:26Z</time></trkpt><trkpt lat="44.29566729660316" lon="11.645434694878215"><ele>84.71428571428571</ele><time>2026-04-18T08:31:27Z</time></trkpt><trkpt lat="44.29562202069602" lon="11.645365349549841"><ele>84.85714285714286</ele><time>2026-04-18T08:31:28Z</time></trkpt><trkpt lat="44.29557702873415" lon="11.645297721559393"><ele>85.0</ele><time>2026-04-18T08:31:29Z</time></trkpt><trkpt lat="44.29553258320919" lon="11.645229992664486"><ele>85.85714285714286</ele><time>2026-04-18T08:31:30Z</time></trkpt><trkpt lat="44.29548739483639" lon="11.645161456420198"><ele>86.71428571428571</ele><time>2026-04-18T08:31:31Z</time></trkpt><trkpt lat="44.29544371696512" lon="11.645093349695488"><ele>87.57142857142857</ele><time>2026-04-18T08:31:32Z</time></trkpt><trkpt lat="44.29540047728059" lon="11.645024619160258"><ele>88.42857142857143</ele><time>2026-04-18T08:31:33Z</time></trkpt><trkpt lat="44.295355857785985" lon="11.644956205790642"><ele>89.28571428571428</ele><time>2026-04-18T08:31:34Z</time></trkpt><trkpt lat="44.29530900854506" lon="11.644886415832348"><ele>90.14285714285714</ele><time>2026-04-18T08:31:35Z</time></trkpt><trkpt lat="44.29526400642096" lon="11.644815749701179"><ele>91.0</ele><time>2026-04-18T08:31:36Z</time></trkpt><trkpt lat="44.29521824022945" lon="11.644748027365242"><ele>91.0</ele><time>2026-04-18T08:31:37Z</time></trkpt><trkpt lat="44.29517401297623" lon="11.644682320790045"><ele>91.0</ele><time>2026-04-18T08:31:38Z</time></trkpt><trkpt lat="44.295125548669624" lon="11.644619433862664"><ele>91.0</ele><time>2026-04-18T08:31:39Z</time></trkpt><trkpt lat="44.29507730525386" lon="11.644553638651304"><ele>91.0</ele><time>2026-04-18T08:31:40Z</time></trkpt><trkpt lat="44.29503273880566" lon="11.644486531782796"><ele>91.0</ele><time>2026-04-18T08:31:41Z</time></trkpt><trkpt lat="44.29498985875865" lon="11.64441857588967"><ele>91.0</ele><time>2026-04-18T08:31:42Z</time></trkpt><trkpt lat="44.2949462206269" lon="11.644352141500983"><ele>91.0</ele><time>2026-04-18T08:31:43Z</time></trkpt><trkpt lat="44.29490303578016" lon="11.64428600219323"><ele>90.8</ele><time>2026-04-18T08:31:44Z</time></trkpt><trkpt lat="44.29485911234369" lon="11.644220679516126"><ele>90.6</ele><time>2026-04-18T08:31:45Z</time></trkpt><trkpt lat="44.2948150408075" lon="11.644155790004794"><ele>90.4</ele><time>2026-04-18T08:31:46Z</time></trkpt><trkpt lat="44.29472917110468" lon="11.64402599703216"><ele>90.2</ele><time>2026-04-18T08:31:48Z</time></trkpt><trkpt lat="44.2946471474728" lon="11.643892772228408"><ele>90.0</ele><time>2026-04-18T08:31:50Z</time></trkpt><trkpt lat="44.294568981563046" lon="11.643759845422474"><ele>90.5</ele><time>2026-04-18T08:31:52Z</time></trkpt><trkpt lat="44.29452705369169" lon="11.643689630619038"><ele>91.0</ele><time>2026-04-18T08:31:53Z</time></trkpt><trkpt lat="44.29448799959943" lon="11.643615745684206"><ele>91.5</ele><time>2026-04-18T08:31:54Z</time></trkpt><trkpt lat="44.294453264096326" lon="11.64353843927485"><ele>92.0</ele><time>2026-04-18T08:31:55Z</time></trkpt><trkpt lat="44.294421342894935" lon="11.643461171726882"><ele>92.5</ele><time>2026-04-18T08:31:56Z</time></trkpt><trkpt lat="44.29438750158314" lon="11.643384549854758"><ele>93.0</ele><time>2026-04-18T08:31:57Z</time></trkpt><trkpt lat="44.29432607829673" lon="11.643230898871996"><ele>93.0</ele><time>2026-04-18T08:31:59Z</time></trkpt><trkpt lat="44.29426142895617" lon="11.64308320643509"><ele>93.0</ele><time>2026-04-18T08:32:01Z</time></trkpt><trkpt lat="44.29420138245984" lon="11.64293327508512"><ele>93.0</ele><time>2026-04-18T08:32:03Z</time></trkpt><trkpt lat="44.29414451262612" lon="11.642781616074554"><ele>93.0</ele><time>2026-04-18T08:32:05Z</time></trkpt><trkpt lat="44.29409204985958" lon="11.642634678405011"><ele>93.0</ele><time>2026-04-18T08:32:07Z</time></trkpt><trkpt lat="44.294036955073224" lon="11.642480994592882"><ele>93.0</ele><time>2026-04-18T08:32:09Z</time></trkpt><trkpt lat="44.29398666599147" lon="11.642328922686412"><ele>93.0</ele><time>2026-04-18T08:32:11Z</time></trkpt><trkpt lat="44.293946787869174" lon="11.642168696421136"><ele>93.0</ele><time>2026-04-18T08:32:13Z</time></trkpt><trkpt lat="44.293925238163446" lon="11.642004084000922"><ele>93.5</ele><time>2026-04-18T08:32:15Z</time></trkpt><trkpt lat="44.29391164152776" lon="11.641844186022528"><ele>94.0</ele><time>2026-04-18T08:32:17Z</time></trkpt><trkpt lat="44.29389091431651" lon="11.641679628999675"><ele>94.5</ele><time>2026-04-18T08:32:19Z</time></trkpt><trkpt lat="44.293863438713245" lon="11.641509675222865"><ele>95.0</ele><time>2026-04-18T08:32:21Z</time></trkpt><trkpt lat="44.293824412840934" lon="11.64134799140054"><ele>95.0</ele><time>2026-04-18T08:32:23Z</time></trkpt><trkpt lat="44.29379521940581" lon="11.641267277045808"><ele>95.0</ele><time>2026-04-18T08:32:24Z</time></trkpt><trkpt lat="44.293758645662365" lon="11.641189564872333"><ele>95.0</ele><time>2026-04-18T08:32:25Z</time></trkpt><trkpt lat="44.29372016490495" lon="11.641112129526734"><ele>95.0</ele><time>2026-04-18T08:32:26Z</time></trkpt><trkpt lat="44.293685134118164" lon="11.64103122719621"><ele>95.0</ele><time>2026-04-18T08:32:27Z</time></trkpt><trkpt lat="44.293649813987976" lon="11.640946124955375"><ele>95.0</ele><time>2026-04-18T08:32:28Z</time></trkpt><trkpt lat="44.29361004291176" lon="11.64085821896965"><ele>95.0</ele><time>2026-04-18T08:32:29Z</time></trkpt><trkpt lat="44.293569618867174" lon="11.640768584294932"><ele>94.5</ele><time>2026-04-18T08:32:30Z</time></trkpt><trkpt lat="44.293531976659416" lon="11.640674405212216"><ele>94.0</ele><time>2026-04-18T08:32:31Z</time></trkpt><trkpt lat="44.29348643217666" lon="11.640580317980499"><ele>93.5</ele><time>2026-04-18T08:32:32Z</time></trkpt><trkpt lat="44.29344422323835" lon="11.640483215595875"><ele>93.0</ele><time>2026-04-18T08:32:33Z</time></trkpt><trkpt lat="44.293396857312416" lon="11.640380972847716"><ele>92.5</ele><time>2026-04-18T08:32:34Z</time></trkpt><trkpt lat="44.29335269949291" lon="11.640281732002457"><ele>92.0</ele><time>2026-04-18T08:32:35Z</time></trkpt><trkpt lat="44.29331091928692" lon="11.64019121133423"><ele>91.33333333333334</ele><time>2026-04-18T08:32:36Z</time></trkpt><trkpt lat="44.29326754654182" lon="11.640092977888727"><ele>90.66666666666667</ele><time>2026-04-18T08:32:37Z</time></trkpt><trkpt lat="44.293219685906344" lon="11.639999056642298"><ele>90.0</ele><time>2026-04-18T08:32:38Z</time></trkpt><trkpt lat="44.29316541771928" lon="11.639899291614128"><ele>89.33333333333333</ele><time>2026-04-18T08:32:39Z</time></trkpt><trkpt lat="44.29311356267138" lon="11.639806205341007"><ele>88.66666666666666</ele><time>2026-04-18T08:32:40Z</time></trkpt><trkpt lat="44.293060448129665" lon="11.639709898996758"><ele>88.0</ele><time>2026-04-18T08:32:41Z</time></trkpt><trkpt lat="44.29300558879141" lon="11.639612958049494"><ele>88.0</ele><time>2026-04-18T08:32:42Z</time></trkpt><trkpt lat="44.29294628340383" lon="11.639518502861314"><ele>88.0</ele><time>2026-04-18T08:32:43Z</time></trkpt><trkpt lat="44.292885466643426" lon="11.639425750734569"><ele>88.0</ele><time>2026-04-18T08:32:44Z</time></trkpt><trkpt lat="44.292824334490795" lon="11.639332052582983"><ele>88.0</ele><time>2026-04-18T08:32:45Z</time></trkpt><trkpt lat="44.292763639527756" lon="11.639239626514186"><ele>88.0</ele><time>2026-04-18T08:32:46Z</time></trkpt><trkpt lat="44.29270559791133" lon="11.639143389702362"><ele>87.16666666666666</ele><time>2026-04-18T08:32:47Z</time></trkpt><trkpt lat="44.292648704558225" lon="11.639051169230445"><ele>86.33333333333333</ele><time>2026-04-18T08:32:48Z</time></trkpt><trkpt lat="44.292591070432614" lon="11.638961817448306"><ele>85.5</ele><time>2026-04-18T08:32:49Z</time></trkpt><trkpt lat="44.292532897131004" lon="11.638873701331294"><ele>84.66666666666667</ele><time>2026-04-18T08:32:50Z</time></trkpt><trkpt lat="44.292475954190856" lon="11.638787218977985"><ele>83.83333333333334</ele><time>2026-04-18T08:32:51Z</time></trkpt><trkpt lat="44.29242218004701" lon="11.638698849944817"><ele>83.0</ele><time>2026-04-18T08:32:52Z</time></trkpt><trkpt lat="44.292369572234115" lon="11.638610173611546"><ele>82.83333333333334</ele><time>2026-04-18T08:32:53Z</time></trkpt><trkpt lat="44.29231644136305" lon="11.638519007966869"><ele>82.66666666666667</ele><time>2026-04-18T08:32:54Z</time></trkpt><trkpt lat="44.292262280481026" lon="11.638431198865153"><ele>82.5</ele><time>2026-04-18T08:32:55Z</time></trkpt><trkpt lat="44.292206166418154" lon="11.638343054350035"><ele>82.33333333333333</ele><time>2026-04-18T08:32:56Z</time></trkpt><trkpt lat="44.29215065405846" lon="11.638255503085716"><ele>82.16666666666666</ele><time>2026-04-18T08:32:57Z</time></trkpt><trkpt lat="44.2920955832298" lon="11.63816372326345"><ele>82.0</ele><time>2026-04-18T08:32:58Z</time></trkpt><trkpt lat="44.2920414712515" lon="11.638075216816734"><ele>82.0</ele><time>2026-04-18T08:32:59Z</time></trkpt><trkpt lat="44.29198365374486" lon="11.63798565164155"><ele>82.0</ele><time>2026-04-18T08:33:00Z</time></trkpt><trkpt lat="44.29192711965427" lon="11.637897457518521"><ele>82.0</ele><time>2026-04-18T08:33:01Z</time></trkpt><trkpt lat="44.291872435369946" lon="11.637804569567301"><ele>82.0</ele><time>2026-04-18T08:33:02Z</time></trkpt><trkpt lat="44.29181755889143" lon="11.637712516545777"><ele>82.0</ele><time>2026-04-18T08:33:03Z</time></trkpt><trkpt lat="44.291761263507546" lon="11.63762387386831"><ele>82.0</ele><time>2026-04-18T08:33:04Z</time></trkpt><trkpt lat="44.29170849941178" lon="11.637535030915807"><ele>82.0</ele><time>2026-04-18T08:33:05Z</time></trkpt><trkpt lat="44.2916535078113" lon="11.637449826177143"><ele>82.0</ele><time>2026-04-18T08:33:06Z</time></trkpt><trkpt lat="44.29160034444082" lon="11.637363758001223"><ele>82.0</ele><time>2026-04-18T08:33:07Z</time></trkpt><trkpt lat="44.291549109272715" lon="11.637282698047567"><ele>82.0</ele><time>2026-04-18T08:33:08Z</time></trkpt><trkpt lat="44.291497013407984" lon="11.63719667708828"><ele>82.0</ele><time>2026-04-18T08:33:09Z</time></trkpt><trkpt lat="44.29144648751465" lon="11.63711848866013"><ele>82.0</ele><time>2026-04-18T08:33:10Z</time></trkpt><trkpt lat="44.291398843868265" lon="11.63704014044268"><ele>81.71428571428571</ele><time>2026-04-18T08:33:11Z</time></trkpt><trkpt lat="44.29135388015623" lon="11.63696443339965"><ele>81.42857142857143</ele><time>2026-04-18T08:33:12Z</time></trkpt><trkpt lat="44.29130773799465" lon="11.636888536632798"><ele>81.14285714285714</ele><time>2026-04-18T08:33:13Z</time></trkpt><trkpt lat="44.291261492304145" lon="11.636814171206298"><ele>80.85714285714286</ele><time>2026-04-18T08:33:14Z</time></trkpt><trkpt lat="44.29121523336422" lon="11.636739983615254"><ele>80.57142857142857</ele><time>2026-04-18T08:33:15Z</time></trkpt><trkpt lat="44.29116894792105" lon="11.636668324009786"><ele>80.28571428571428</ele><time>2026-04-18T08:33:16Z</time></trkpt><trkpt lat="44.291125019182005" lon="11.63659767038872"><ele>80.0</ele><time>2026-04-18T08:33:17Z</time></trkpt><trkpt lat="44.29108021290742" lon="11.63652312519333"><ele>80.0</ele><time>2026-04-18T08:33:18Z</time></trkpt><trkpt lat="44.291036452517844" lon="11.636450848749368"><ele>80.0</ele><time>2026-04-18T08:33:19Z</time></trkpt><trkpt lat="44.29099349745728" lon="11.636378800957175"><ele>80.0</ele><time>2026-04-18T08:33:20Z</time></trkpt><trkpt lat="44.290911834961165" lon="11.636247449132929"><ele>80.0</ele><time>2026-04-18T08:33:22Z</time></trkpt><trkpt lat="44.29083019356474" lon="11.636116257353132"><ele>80.0</ele><time>2026-04-18T08:33:24Z</time></trkpt><trkpt lat="44.29078878000238" lon="11.636045849482748"><ele>80.0</ele><time>2026-04-18T08:33:25Z</time></trkpt><trkpt lat="44.29074556411483" lon="11.635978400576704"><ele>80.14285714285714</ele><time>2026-04-18T08:33:26Z</time></trkpt><trkpt lat="44.29070228738745" lon="11.6359107509606"><ele>80.28571428571429</ele><time>2026-04-18T08:33:27Z</time></trkpt><trkpt lat="44.29065995150355" lon="11.635841136121748"><ele>80.42857142857143</ele><time>2026-04-18T08:33:28Z</time></trkpt><trkpt lat="44.29061849310601" lon="11.635772378459594"><ele>80.57142857142857</ele><time>2026-04-18T08:33:29Z</time></trkpt><trkpt lat="44.290575900078814" lon="11.635705033616173"><ele>80.71428571428571</ele><time>2026-04-18T08:33:30Z</time></trkpt><trkpt lat="44.290532758507155" lon="11.635638271566625"><ele>80.85714285714286</ele><time>2026-04-18T08:33:31Z</time></trkpt><trkpt lat="44.29048939411462" lon="11.635570161414513"><ele>81.0</ele><time>2026-04-18T08:33:32Z</time></trkpt><trkpt lat="44.29044748327284" lon="11.635500267905106"><ele>81.0</ele><time>2026-04-18T08:33:33Z</time></trkpt><trkpt lat="44.2903663245635" lon="11.635367290464094"><ele>81.0</ele><time>2026-04-18T08:33:35Z</time></trkpt><trkpt lat="44.29032356067562" lon="11.635298937221176"><ele>81.0</ele><time>2026-04-18T08:33:36Z</time></trkpt><trkpt lat="44.29028276423769" lon="11.635229994881785"><ele>81.0</ele><time>2026-04-18T08:33:37Z</time></trkpt><trkpt lat="44.29020496889222" lon="11.6350977958903"><ele>81.0</ele><time>2026-04-18T08:33:39Z</time></trkpt><trkpt lat="44.290123631143594" lon="11.6349649239642"><ele>81.0</ele><time>2026-04-18T08:33:41Z</time></trkpt><trkpt lat="44.29004119834864" lon="11.634830073021385"><ele>81.0</ele><time>2026-04-18T08:33:43Z</time></trkpt><trkpt lat="44.290000420839725" lon="11.634762210728795"><ele>81.0</ele><time>2026-04-18T08:33:44Z</time></trkpt><trkpt lat="44.28995916013944" lon="11.634695359008813"><ele>81.0</ele><time>2026-04-18T08:33:45Z</time></trkpt><trkpt lat="44.28991824316043" lon="11.634624855417652"><ele>81.0</ele><time>2026-04-18T08:33:46Z</time></trkpt><trkpt lat="44.289877540765794" lon="11.634556085066258"><ele>81.0</ele><time>2026-04-18T08:33:47Z</time></trkpt><trkpt lat="44.289794185821194" lon="11.63442230901174"><ele>81.14285714285714</ele><time>2026-04-18T08:33:49Z</time></trkpt><trkpt lat="44.28975083482871" lon="11.634354302885448"><ele>81.28571428571428</ele><time>2026-04-18T08:33:50Z</time></trkpt><trkpt lat="44.28970775255389" lon="11.634286214983106"><ele>81.42857142857142</ele><time>2026-04-18T08:33:51Z</time></trkpt><trkpt lat="44.28966431670044" lon="11.634219268560047"><ele>81.57142857142857</ele><time>2026-04-18T08:33:52Z</time></trkpt><trkpt lat="44.28962320050717" lon="11.634152240832092"><ele>81.71428571428571</ele><time>2026-04-18T08:33:53Z</time></trkpt><trkpt lat="44.289581572141785" lon="11.634083306534446"><ele>81.85714285714285</ele><time>2026-04-18T08:33:54Z</time></trkpt><trkpt lat="44.289538000859274" lon="11.634016087229076"><ele>82.0</ele><time>2026-04-18T08:33:55Z</time></trkpt><trkpt lat="44.28949455315521" lon="11.63394631012067"><ele>81.99999999999999</ele><time>2026-04-18T08:33:56Z</time></trkpt><trkpt lat="44.28945396996544" lon="11.63387612296838"><ele>82.0</ele><time>2026-04-18T08:33:57Z</time></trkpt><trkpt lat="44.28941199559776" lon="11.633807122593753"><ele>82.0</ele><time>2026-04-18T08:33:58Z</time></trkpt><trkpt lat="44.289367956529205" lon="11.633737078378681"><ele>82.0</ele><time>2026-04-18T08:33:59Z</time></trkpt><trkpt lat="44.28932345558285" lon="11.633667657991436"><ele>82.0</ele><time>2026-04-18T08:34:00Z</time></trkpt><trkpt lat="44.28927937849922" lon="11.633596573528516"><ele>81.99999999999999</ele><time>2026-04-18T08:34:01Z</time></trkpt><trkpt lat="44.289235237406686" lon="11.633528909626978"><ele>82.0</ele><time>2026-04-18T08:34:02Z</time></trkpt><trkpt lat="44.289192299466954" lon="11.633459192072475"><ele>82.0</ele><time>2026-04-18T08:34:03Z</time></trkpt><trkpt lat="44.28915043280832" lon="11.633391206366568"><ele>82.0</ele><time>2026-04-18T08:34:04Z</time></trkpt><trkpt lat="44.28910861757445" lon="11.633322394402121"><ele>82.0</ele><time>2026-04-18T08:34:05Z</time></trkpt><trkpt lat="44.28906796220122" lon="11.633252310053225"><ele>82.0</ele><time>2026-04-18T08:34:06Z</time></trkpt><trkpt lat="44.28902715305877" lon="11.633180981768037"><ele>82.0</ele><time>2026-04-18T08:34:07Z</time></trkpt><trkpt lat="44.28894418356596" lon="11.633040047234246"><ele>82.0</ele><time>2026-04-18T08:34:09Z</time></trkpt><trkpt lat="44.28890178134486" lon="11.632972958081385"><ele>82.0</ele><time>2026-04-18T08:34:10Z</time></trkpt><trkpt lat="44.28885739402809" lon="11.632906342233097"><ele>82.0</ele><time>2026-04-18T08:34:11Z</time></trkpt><trkpt lat="44.28881460509116" lon="11.632841630374418"><ele>82.0</ele><time>2026-04-18T08:34:12Z</time></trkpt><trkpt lat="44.28877412112775" lon="11.632772045478157"><ele>82.0</ele><time>2026-04-18T08:34:13Z</time></trkpt><trkpt lat="44.288689840888985" lon="11.632635544837967"><ele>82.0</ele><time>2026-04-18T08:34:15Z</time></trkpt><trkpt lat="44.28864630309719" lon="11.632569826923397"><ele>82.0</ele><time>2026-04-18T08:34:16Z</time></trkpt><trkpt lat="44.28860106866746" lon="11.632505759511433"><ele>82.0</ele><time>2026-04-18T08:34:17Z</time></trkpt><trkpt lat="44.28855527790785" lon="11.632442052530767"><ele>82.0</ele><time>2026-04-18T08:34:18Z</time></trkpt><trkpt lat="44.28850810049741" lon="11.632383303631025"><ele>82.0</ele><time>2026-04-18T08:34:19Z</time></trkpt><trkpt lat="44.28841823917589" lon="11.632260612864473"><ele>82.0</ele><time>2026-04-18T08:34:21Z</time></trkpt><trkpt lat="44.28832662798173" lon="11.632148366944687"><ele>82.0</ele><time>2026-04-18T08:34:23Z</time></trkpt><trkpt lat="44.288279070445206" lon="11.632089795469788"><ele>82.0</ele><time>2026-04-18T08:34:24Z</time></trkpt><trkpt lat="44.28822994403381" lon="11.632031503446651"><ele>81.99999999999999</ele><time>2026-04-18T08:34:25Z</time></trkpt><trkpt lat="44.288180424704706" lon="11.631975130311323"><ele>82.0</ele><time>2026-04-18T08:34:26Z</time></trkpt><trkpt lat="44.28808099537349" lon="11.631867096146156"><ele>82.0</ele><time>2026-04-18T08:34:28Z</time></trkpt><trkpt lat="44.288031779255505" lon="11.631811470221598"><ele>82.0</ele><time>2026-04-18T08:34:29Z</time></trkpt><trkpt lat="44.287980387873255" lon="11.631757621224933"><ele>82.0</ele><time>2026-04-18T08:34:30Z</time></trkpt><trkpt lat="44.28792696762222" lon="11.631703847635418"><ele>81.99999999999999</ele><time>2026-04-18T08:34:31Z</time></trkpt><trkpt lat="44.287874027074714" lon="11.631653164710041"><ele>82.0</ele><time>2026-04-18T08:34:32Z</time></trkpt><trkpt lat="44.2878226467034" lon="11.631598005721445"><ele>82.66666666666666</ele><time>2026-04-18T08:34:33Z</time></trkpt><trkpt lat="44.28777012492909" lon="11.631547769868828"><ele>83.33333333333333</ele><time>2026-04-18T08:34:34Z</time></trkpt><trkpt lat="44.28771489074291" lon="11.631493471703065"><ele>84.0</ele><time>2026-04-18T08:34:35Z</time></trkpt><trkpt lat="44.28766185203383" lon="11.631440086954914"><ele>84.66666666666667</ele><time>2026-04-18T08:34:36Z</time></trkpt><trkpt lat="44.287607144346474" lon="11.631388256978326"><ele>85.33333333333334</ele><time>2026-04-18T08:34:37Z</time></trkpt><trkpt lat="44.28755306447671" lon="11.631332294466457"><ele>86.0</ele><time>2026-04-18T08:34:38Z</time></trkpt><trkpt lat="44.28744675941066" lon="11.631233520216492"><ele>86.00000000000001</ele><time>2026-04-18T08:34:40Z</time></trkpt><trkpt lat="44.28738956525136" lon="11.631180956145844"><ele>86.0</ele><time>2026-04-18T08:34:41Z</time></trkpt><trkpt lat="44.28733556990277" lon="11.631128246997863"><ele>86.0</ele><time>2026-04-18T08:34:42Z</time></trkpt><trkpt lat="44.28728317340854" lon="11.631077719717384"><ele>86.0</ele><time>2026-04-18T08:34:43Z</time></trkpt><trkpt lat="44.28722812999312" lon="11.631028783911814"><ele>86.0</ele><time>2026-04-18T08:34:44Z</time></trkpt><trkpt lat="44.28717363817485" lon="11.63097452985886"><ele>86.00000000000001</ele><time>2026-04-18T08:34:45Z</time></trkpt><trkpt lat="44.28711939174803" lon="11.630921090998607"><ele>86.0</ele><time>2026-04-18T08:34:46Z</time></trkpt><trkpt lat="44.28706631817856" lon="11.630868661931773"><ele>86.00000000000001</ele><time>2026-04-18T08:34:47Z</time></trkpt><trkpt lat="44.287012194817216" lon="11.630815617340678"><ele>86.0</ele><time>2026-04-18T08:34:48Z</time></trkpt><trkpt lat="44.28695748047049" lon="11.630761223121931"><ele>86.0</ele><time>2026-04-18T08:34:49Z</time></trkpt><trkpt lat="44.28690206702935" lon="11.630708082698074"><ele>86.0</ele><time>2026-04-18T08:34:50Z</time></trkpt><trkpt lat="44.2868457001954" lon="11.63065535956892"><ele>86.0</ele><time>2026-04-18T08:34:51Z</time></trkpt><trkpt lat="44.28678798870862" lon="11.630600865588711"><ele>86.00000000000001</ele><time>2026-04-18T08:34:52Z</time></trkpt><trkpt lat="44.286733231257806" lon="11.630544458032004"><ele>86.0</ele><time>2026-04-18T08:34:53Z</time></trkpt><trkpt lat="44.286677161165784" lon="11.630488413056625"><ele>86.00000000000001</ele><time>2026-04-18T08:34:54Z</time></trkpt><trkpt lat="44.286620723079324" lon="11.630432210689465"><ele>86.0</ele><time>2026-04-18T08:34:55Z</time></trkpt><trkpt lat="44.28656423970806" lon="11.63037422258432"><ele>86.0</ele><time>2026-04-18T08:34:56Z</time></trkpt><trkpt lat="44.28651067929212" lon="11.63031416104546"><ele>86.0</ele><time>2026-04-18T08:34:57Z</time></trkpt><trkpt lat="44.28646091375116" lon="11.630249376146194"><ele>86.0</ele><time>2026-04-18T08:34:58Z</time></trkpt><trkpt lat="44.28641322597475" lon="11.630182099636993"><ele>86.00000000000001</ele><time>2026-04-18T08:34:59Z</time></trkpt><trkpt lat="44.28636967971096" lon="11.63011145998047"><ele>86.0</ele><time>2026-04-18T08:35:00Z</time></trkpt><trkpt lat="44.28632805339423" lon="11.63003725783124"><ele>86.42857142857143</ele><time>2026-04-18T08:35:01Z</time></trkpt><trkpt lat="44.28628968020091" lon="11.629960411405655"><ele>86.85714285714286</ele><time>2026-04-18T08:35:02Z</time></trkpt><trkpt lat="44.28625366976389" lon="11.629880615863074"><ele>87.28571428571428</ele><time>2026-04-18T08:35:03Z</time></trkpt><trkpt lat="44.28622220942075" lon="11.629795981940967"><ele>87.71428571428572</ele><time>2026-04-18T08:35:04Z</time></trkpt><trkpt lat="44.2861911836699" lon="11.629711396349748"><ele>88.14285714285714</ele><time>2026-04-18T08:35:05Z</time></trkpt><trkpt lat="44.286158123176705" lon="11.629624489239623"><ele>88.57142857142857</ele><time>2026-04-18T08:35:06Z</time></trkpt><trkpt lat="44.286127047777924" lon="11.629536289882468"><ele>89.0</ele><time>2026-04-18T08:35:07Z</time></trkpt><trkpt lat="44.28609708098981" lon="11.62944861825341"><ele>87.85714285714285</ele><time>2026-04-18T08:35:08Z</time></trkpt><trkpt lat="44.28606795021841" lon="11.629361431235921"><ele>86.71428571428571</ele><time>2026-04-18T08:35:09Z</time></trkpt><trkpt lat="44.28604242511094" lon="11.629273149687643"><ele>85.57142857142857</ele><time>2026-04-18T08:35:10Z</time></trkpt><trkpt lat="44.28601270116325" lon="11.629187321012674"><ele>84.42857142857142</ele><time>2026-04-18T08:35:11Z</time></trkpt><trkpt lat="44.28598408035486" lon="11.629101325257711"><ele>83.28571428571428</ele><time>2026-04-18T08:35:12Z</time></trkpt><trkpt lat="44.28595041618219" lon="11.629012916549765"><ele>82.14285714285714</ele><time>2026-04-18T08:35:13Z</time></trkpt><trkpt lat="44.28592176683955" lon="11.628924753227656"><ele>81.0</ele><time>2026-04-18T08:35:14Z</time></trkpt><trkpt lat="44.28589560365462" lon="11.628842540182566"><ele>81.0</ele><time>2026-04-18T08:35:15Z</time></trkpt><trkpt lat="44.28586401960698" lon="11.628756010152092"><ele>81.0</ele><time>2026-04-18T08:35:16Z</time></trkpt><trkpt lat="44.28583472980528" lon="11.628669812880888"><ele>81.0</ele><time>2026-04-18T08:35:17Z</time></trkpt><trkpt lat="44.28580626656191" lon="11.62858421940409"><ele>81.0</ele><time>2026-04-18T08:35:18Z</time></trkpt><trkpt lat="44.285777848174554" lon="11.628499119531023"><ele>81.0</ele><time>2026-04-18T08:35:19Z</time></trkpt><trkpt lat="44.285749547835536" lon="11.62841287217039"><ele>81.0</ele><time>2026-04-18T08:35:20Z</time></trkpt><trkpt lat="44.28572011439705" lon="11.628327905098505"><ele>81.0</ele><time>2026-04-18T08:35:21Z</time></trkpt><trkpt lat="44.28569272166988" lon="11.628242764538024"><ele>81.0</ele><time>2026-04-18T08:35:22Z</time></trkpt><trkpt lat="44.285664069682724" lon="11.628159122463984"><ele>81.0</ele><time>2026-04-18T08:35:23Z</time></trkpt><trkpt lat="44.28563528611154" lon="11.628073057172362"><ele>81.0</ele><time>2026-04-18T08:35:24Z</time></trkpt><trkpt lat="44.28560742466906" lon="11.627990809243197"><ele>81.0</ele><time>2026-04-18T08:35:25Z</time></trkpt><trkpt lat="44.28557826983533" lon="11.627909735185936"><ele>81.0</ele><time>2026-04-18T08:35:26Z</time></trkpt><trkpt lat="44.28555063733851" lon="11.627825281712893"><ele>81.0</ele><time>2026-04-18T08:35:27Z</time></trkpt><trkpt lat="44.28552011579889" lon="11.627740875189268"><ele>81.0</ele><time>2026-04-18T08:35:28Z</time></trkpt><trkpt lat="44.28549039191135" lon="11.627653568446698"><ele>81.0</ele><time>2026-04-18T08:35:29Z</time></trkpt><trkpt lat="44.2854597181267" lon="11.627567183306603"><ele>81.0</ele><time>2026-04-18T08:35:30Z</time></trkpt><trkpt lat="44.2854298451765" lon="11.627481679639093"><ele>81.0</ele><time>2026-04-18T08:35:31Z</time></trkpt><trkpt lat="44.28540259169958" lon="11.627396472393501"><ele>81.0</ele><time>2026-04-18T08:35:32Z</time></trkpt><trkpt lat="44.28537482268416" lon="11.62731309790622"><ele>81.0</ele><time>2026-04-18T08:35:33Z</time></trkpt><trkpt lat="44.28534589752183" lon="11.627228852031628"><ele>81.0</ele><time>2026-04-18T08:35:34Z</time></trkpt><trkpt lat="44.28531518723054" lon="11.627142631921728"><ele>81.0</ele><time>2026-04-18T08:35:35Z</time></trkpt><trkpt lat="44.28528517715294" lon="11.62705688022182"><ele>80.42857142857143</ele><time>2026-04-18T08:35:36Z</time></trkpt><trkpt lat="44.28525734318132" lon="11.626972636518198"><ele>79.85714285714286</ele><time>2026-04-18T08:35:37Z</time></trkpt><trkpt lat="44.285229602448084" lon="11.626887883461128"><ele>79.28571428571428</ele><time>2026-04-18T08:35:38Z</time></trkpt><trkpt lat="44.285201557066586" lon="11.626802184575576"><ele>78.71428571428572</ele><time>2026-04-18T08:35:39Z</time></trkpt><trkpt lat="44.28517262315942" lon="11.626719749678125"><ele>78.14285714285714</ele><time>2026-04-18T08:35:40Z</time></trkpt><trkpt lat="44.28514199282902" lon="11.626634171856628"><ele>77.57142857142857</ele><time>2026-04-18T08:35:41Z</time></trkpt><trkpt lat="44.28511284199621" lon="11.626546369511539"><ele>77.0</ele><time>2026-04-18T08:35:42Z</time></trkpt><trkpt lat="44.28505640984048" lon="11.626380498428224"><ele>77.0</ele><time>2026-04-18T08:35:44Z</time></trkpt><trkpt lat="44.285030025697" lon="11.626294362846709"><ele>77.0</ele><time>2026-04-18T08:35:45Z</time></trkpt><trkpt lat="44.28500213611005" lon="11.626210484528993"><ele>77.0</ele><time>2026-04-18T08:35:46Z</time></trkpt><trkpt lat="44.28497161570035" lon="11.626126970973825"><ele>77.0</ele><time>2026-04-18T08:35:47Z</time></trkpt><trkpt lat="44.28494254879996" lon="11.626041984015647"><ele>77.0</ele><time>2026-04-18T08:35:48Z</time></trkpt><trkpt lat="44.28491430796766" lon="11.625956776783314"><ele>77.0</ele><time>2026-04-18T08:35:49Z</time></trkpt><trkpt lat="44.2848879298615" lon="11.625871680732487"><ele>77.0</ele><time>2026-04-18T08:35:50Z</time></trkpt><trkpt lat="44.284861971999305" lon="11.625782711608698"><ele>77.14285714285714</ele><time>2026-04-18T08:35:51Z</time></trkpt><trkpt lat="44.284833656414754" lon="11.625695676207068"><ele>77.28571428571428</ele><time>2026-04-18T08:35:52Z</time></trkpt><trkpt lat="44.284803238493765" lon="11.62560759028145"><ele>77.42857142857143</ele><time>2026-04-18T08:35:53Z</time></trkpt><trkpt lat="44.28477505645004" lon="11.625521182041423"><ele>77.57142857142857</ele><time>2026-04-18T08:35:54Z</time></trkpt><trkpt lat="44.284745151517726" lon="11.625435646778513"><ele>77.71428571428571</ele><time>2026-04-18T08:35:55Z</time></trkpt><trkpt lat="44.28471626467227" lon="11.625348480075035"><ele>77.85714285714286</ele><time>2026-04-18T08:35:56Z</time></trkpt><trkpt lat="44.28468843407645" lon="11.625260931719748"><ele>78.0</ele><time>2026-04-18T08:35:57Z</time></trkpt><trkpt lat="44.28465952145593" lon="11.625172738625265"><ele>78.71428571428572</ele><time>2026-04-18T08:35:58Z</time></trkpt><trkpt lat="44.28462812316741" lon="11.625091132027972"><ele>79.42857142857142</ele><time>2026-04-18T08:35:59Z</time></trkpt><trkpt lat="44.28460060002191" lon="11.625006719039325"><ele>80.14285714285714</ele><time>2026-04-18T08:36:00Z</time></trkpt><trkpt lat="44.284575315139925" lon="11.624921234881336"><ele>80.85714285714286</ele><time>2026-04-18T08:36:01Z</time></trkpt><trkpt lat="44.28454534288998" lon="11.624832697283452"><ele>81.57142857142858</ele><time>2026-04-18T08:36:02Z</time></trkpt><trkpt lat="44.28451727576037" lon="11.624753653045136"><ele>82.28571428571428</ele><time>2026-04-18T08:36:03Z</time></trkpt><trkpt lat="44.28448695072808" lon="11.624667028376315"><ele>83.0</ele><time>2026-04-18T08:36:04Z</time></trkpt><trkpt lat="44.28445791434715" lon="11.624576588692216"><ele>83.0</ele><time>2026-04-18T08:36:05Z</time></trkpt><trkpt lat="44.28442753013406" lon="11.624487726503451"><ele>83.0</ele><time>2026-04-18T08:36:06Z</time></trkpt><trkpt lat="44.28439887757049" lon="11.624398985167632"><ele>83.0</ele><time>2026-04-18T08:36:07Z</time></trkpt><trkpt lat="44.28436943177846" lon="11.624310168718786"><ele>83.0</ele><time>2026-04-18T08:36:08Z</time></trkpt><trkpt lat="44.284341835086735" lon="11.624220744578055"><ele>83.0</ele><time>2026-04-18T08:36:09Z</time></trkpt><trkpt lat="44.284313750554404" lon="11.6241314238008"><ele>83.0</ele><time>2026-04-18T08:36:10Z</time></trkpt><trkpt lat="44.28428676349139" lon="11.62404403958688"><ele>83.0</ele><time>2026-04-18T08:36:11Z</time></trkpt><trkpt lat="44.284259465318215" lon="11.623955395049885"><ele>82.71428571428571</ele><time>2026-04-18T08:36:12Z</time></trkpt><trkpt lat="44.284232287516744" lon="11.623868605243981"><ele>82.42857142857143</ele><time>2026-04-18T08:36:13Z</time></trkpt><trkpt lat="44.2842053229507" lon="11.623778680203678"><ele>82.14285714285714</ele><time>2026-04-18T08:36:14Z</time></trkpt><trkpt lat="44.28417907833191" lon="11.623687384665237"><ele>81.85714285714286</ele><time>2026-04-18T08:36:15Z</time></trkpt><trkpt lat="44.28415513164637" lon="11.623595752876899"><ele>81.57142857142857</ele><time>2026-04-18T08:36:16Z</time></trkpt><trkpt lat="44.28412984099089" lon="11.623507008446648"><ele>81.28571428571429</ele><time>2026-04-18T08:36:17Z</time></trkpt><trkpt lat="44.284105331815496" lon="11.623416918855291"><ele>81.0</ele><time>2026-04-18T08:36:18Z</time></trkpt><trkpt lat="44.284081776962005" lon="11.623324356826929"><ele>80.71428571428572</ele><time>2026-04-18T08:36:19Z</time></trkpt><trkpt lat="44.28405609718285" lon="11.623235953618458"><ele>80.42857142857143</ele><time>2026-04-18T08:36:20Z</time></trkpt><trkpt lat="44.284030888411124" lon="11.623144357080431"><ele>80.14285714285714</ele><time>2026-04-18T08:36:21Z</time></trkpt><trkpt lat="44.28400777298223" lon="11.623054134738126"><ele>79.85714285714286</ele><time>2026-04-18T08:36:22Z</time></trkpt><trkpt lat="44.28398251130216" lon="11.622963542476084"><ele>79.57142857142857</ele><time>2026-04-18T08:36:23Z</time></trkpt><trkpt lat="44.28395261438993" lon="11.622876631316803"><ele>79.28571428571429</ele><time>2026-04-18T08:36:24Z</time></trkpt><trkpt lat="44.283927537641055" lon="11.622786709119545"><ele>79.0</ele><time>2026-04-18T08:36:25Z</time></trkpt><trkpt lat="44.283910469605644" lon="11.622693296928448"><ele>79.00000000000001</ele><time>2026-04-18T08:36:26Z</time></trkpt><trkpt lat="44.28389021554374" lon="11.622604243294857"><ele>79.0</ele><time>2026-04-18T08:36:27Z</time></trkpt><trkpt lat="44.28386793021532" lon="11.62251626695728"><ele>79.0</ele><time>2026-04-18T08:36:28Z</time></trkpt><trkpt lat="44.28384430556606" lon="11.622429837531289"><ele>79.0</ele><time>2026-04-18T08:36:29Z</time></trkpt><trkpt lat="44.28382195228816" lon="11.62233897484846"><ele>79.0</ele><time>2026-04-18T08:36:30Z</time></trkpt><trkpt lat="44.28379926483075" lon="11.622249451691525"><ele>79.00000000000001</ele><time>2026-04-18T08:36:31Z</time></trkpt><trkpt lat="44.283774284255614" lon="11.622162864144347"><ele>79.0</ele><time>2026-04-18T08:36:32Z</time></trkpt><trkpt lat="44.283752199573186" lon="11.62207146294724"><ele>79.00000000000001</ele><time>2026-04-18T08:36:33Z</time></trkpt><trkpt lat="44.28372654291272" lon="11.621980065144298"><ele>79.0</ele><time>2026-04-18T08:36:34Z</time></trkpt><trkpt lat="44.283701273058654" lon="11.621889361749668"><ele>79.0</ele><time>2026-04-18T08:36:35Z</time></trkpt><trkpt lat="44.28367726053072" lon="11.621800695577583"><ele>79.0</ele><time>2026-04-18T08:36:36Z</time></trkpt><trkpt lat="44.283655091760295" lon="11.621714531841414"><ele>79.0</ele><time>2026-04-18T08:36:37Z</time></trkpt><trkpt lat="44.283633450746024" lon="11.621630325249225"><ele>79.00000000000001</ele><time>2026-04-18T08:36:38Z</time></trkpt><trkpt lat="44.283610872581505" lon="11.621542577172505"><ele>79.0</ele><time>2026-04-18T08:36:39Z</time></trkpt><trkpt lat="44.28358870851276" lon="11.621458355943426"><ele>79.00000000000001</ele><time>2026-04-18T08:36:40Z</time></trkpt><trkpt lat="44.28356573994881" lon="11.621372579631267"><ele>79.0</ele><time>2026-04-18T08:36:41Z</time></trkpt><trkpt lat="44.28354220233257" lon="11.621286606086171"><ele>79.0</ele><time>2026-04-18T08:36:42Z</time></trkpt><trkpt lat="44.28351835667326" lon="11.621203483850543"><ele>79.0</ele><time>2026-04-18T08:36:43Z</time></trkpt><trkpt lat="44.283494293450154" lon="11.621121836748616"><ele>79.0</ele><time>2026-04-18T08:36:44Z</time></trkpt><trkpt lat="44.28346604170927" lon="11.621042833031233"><ele>79.00000000000001</ele><time>2026-04-18T08:36:45Z</time></trkpt><trkpt lat="44.28342157527866" lon="11.620890433387865"><ele>79.0</ele><time>2026-04-18T08:36:47Z</time></trkpt><trkpt lat="44.28339688347325" lon="11.62073105367388"><ele>78.8</ele><time>2026-04-18T08:36:49Z</time></trkpt><trkpt lat="44.283239093315046" lon="11.620666924409768"><ele>78.60000000000001</ele><time>2026-04-18T08:36:51Z</time></trkpt><trkpt lat="44.28318297412383" lon="11.62062437287122"><ele>78.4</ele><time>2026-04-18T08:36:52Z</time></trkpt><trkpt lat="44.283068542285804" lon="11.620550533449878"><ele>78.2</ele><time>2026-04-18T08:36:54Z</time></trkpt><trkpt lat="44.28301332950154" lon="11.620495758314467"><ele>78.0</ele><time>2026-04-18T08:36:55Z</time></trkpt><trkpt lat="44.28294869468326" lon="11.620455546687742"><ele>78.14285714285715</ele><time>2026-04-18T08:36:56Z</time></trkpt><trkpt lat="44.282888908602985" lon="11.620419342907793"><ele>78.28571428571428</ele><time>2026-04-18T08:36:57Z</time></trkpt><trkpt lat="44.28282949703812" lon="11.620382243752339"><ele>78.42857142857143</ele><time>2026-04-18T08:36:58Z</time></trkpt><trkpt lat="44.2827669205836" lon="11.620357552342197"><ele>78.57142857142858</ele><time>2026-04-18T08:36:59Z</time></trkpt><trkpt lat="44.282707920739874" lon="11.620305621242077"><ele>78.71428571428572</ele><time>2026-04-18T08:37:00Z</time></trkpt><trkpt lat="44.28265892519326" lon="11.620233616324859"><ele>78.85714285714286</ele><time>2026-04-18T08:37:01Z</time></trkpt><trkpt lat="44.28263641789" lon="11.620134838913758"><ele>79.0</ele><time>2026-04-18T08:37:02Z</time></trkpt><trkpt lat="44.28259165472381" lon="11.620059977418542"><ele>79.00000000000001</ele><time>2026-04-18T08:37:03Z</time></trkpt><trkpt lat="44.28256283972131" lon="11.619974459434868"><ele>79.0</ele><time>2026-04-18T08:37:04Z</time></trkpt><trkpt lat="44.28254445592518" lon="11.619877022266467"><ele>79.0</ele><time>2026-04-18T08:37:05Z</time></trkpt><trkpt lat="44.28250129914543" lon="11.619802788946087"><ele>79.0</ele><time>2026-04-18T08:37:06Z</time></trkpt><trkpt lat="44.28247471310472" lon="11.619706797409602"><ele>79.0</ele><time>2026-04-18T08:37:07Z</time></trkpt><trkpt lat="44.28244736208174" lon="11.619615923878351"><ele>79.00000000000001</ele><time>2026-04-18T08:37:08Z</time></trkpt><trkpt lat="44.28241342964232" lon="11.619528641851685"><ele>79.0</ele><time>2026-04-18T08:37:09Z</time></trkpt><trkpt lat="44.28238289021619" lon="11.619442292276519"><ele>78.85714285714286</ele><time>2026-04-18T08:37:10Z</time></trkpt><trkpt lat="44.28234449149996" lon="11.619362578231112"><ele>78.71428571428572</ele><time>2026-04-18T08:37:11Z</time></trkpt><trkpt lat="44.28232246656974" lon="11.619276375719101"><ele>78.57142857142858</ele><time>2026-04-18T08:37:12Z</time></trkpt><trkpt lat="44.282290575955365" lon="11.619188808247284"><ele>78.42857142857143</ele><time>2026-04-18T08:37:13Z</time></trkpt><trkpt lat="44.282257364822" lon="11.619105649657547"><ele>78.28571428571428</ele><time>2026-04-18T08:37:14Z</time></trkpt><trkpt lat="44.28222984200583" lon="11.619018465712445"><ele>78.14285714285715</ele><time>2026-04-18T08:37:15Z</time></trkpt><trkpt lat="44.282206943871614" lon="11.618931452468448"><ele>78.0</ele><time>2026-04-18T08:37:16Z</time></trkpt><trkpt lat="44.28217579362418" lon="11.61884493464822"><ele>78.0</ele><time>2026-04-18T08:37:17Z</time></trkpt><trkpt lat="44.282144182908475" lon="11.618757137213143"><ele>78.0</ele><time>2026-04-18T08:37:18Z</time></trkpt><trkpt lat="44.28211010205561" lon="11.618669121825658"><ele>78.0</ele><time>2026-04-18T08:37:19Z</time></trkpt><trkpt lat="44.282078182777404" lon="11.618586771634796"><ele>78.0</ele><time>2026-04-18T08:37:20Z</time></trkpt><trkpt lat="44.2820343619821" lon="11.618512670662186"><ele>78.0</ele><time>2026-04-18T08:37:21Z</time></trkpt><trkpt lat="44.2819860794346" lon="11.618442615587934"><ele>78.0</ele><time>2026-04-18T08:37:22Z</time></trkpt><trkpt lat="44.281929164240374" lon="11.618389832039885"><ele>78.0</ele><time>2026-04-18T08:37:23Z</time></trkpt><trkpt lat="44.281869620360325" lon="11.618353777616663"><ele>78.0</ele><time>2026-04-18T08:37:24Z</time></trkpt><trkpt lat="44.28180846993648" lon="11.618307867942343"><ele>78.0</ele><time>2026-04-18T08:37:25Z</time></trkpt><trkpt lat="44.28174334724994" lon="11.618273733971755"><ele>78.0</ele><time>2026-04-18T08:37:26Z</time></trkpt><trkpt lat="44.28167977883183" lon="11.61820430342333"><ele>78.0</ele><time>2026-04-18T08:37:27Z</time></trkpt><trkpt lat="44.28161803745508" lon="11.618181044329795"><ele>78.0</ele><time>2026-04-18T08:37:28Z</time></trkpt><trkpt lat="44.28156025532864" lon="11.618128758785549"><ele>78.0</ele><time>2026-04-18T08:37:29Z</time></trkpt><trkpt lat="44.2814997322417" lon="11.61808946879303"><ele>78.0</ele><time>2026-04-18T08:37:30Z</time></trkpt><trkpt lat="44.28143924887216" lon="11.618046980375977"><ele>78.66666666666667</ele><time>2026-04-18T08:37:31Z</time></trkpt><trkpt lat="44.28137912515836" lon="11.617999023567872"><ele>79.33333333333333</ele><time>2026-04-18T08:37:32Z</time></trkpt><trkpt lat="44.28132010568882" lon="11.617956224277547"><ele>80.0</ele><time>2026-04-18T08:37:33Z</time></trkpt><trkpt lat="44.28126200534411" lon="11.617918065117815"><ele>80.66666666666666</ele><time>2026-04-18T08:37:34Z</time></trkpt><trkpt lat="44.2811974111602" lon="11.617875130297568"><ele>81.33333333333333</ele><time>2026-04-18T08:37:35Z</time></trkpt><trkpt lat="44.281087495131764" lon="11.617786589339842"><ele>82.0</ele><time>2026-04-18T08:37:37Z</time></trkpt><trkpt lat="44.28097808766366" lon="11.617701513595806"><ele>82.0</ele><time>2026-04-18T08:37:39Z</time></trkpt><trkpt lat="44.28086933453704" lon="11.617623237723768"><ele>82.0</ele><time>2026-04-18T08:37:41Z</time></trkpt><trkpt lat="44.280760923892146" lon="11.617546805108546"><ele>82.0</ele><time>2026-04-18T08:37:43Z</time></trkpt><trkpt lat="44.28066130658371" lon="11.617471376709206"><ele>82.0</ele><time>2026-04-18T08:37:45Z</time></trkpt><trkpt lat="44.28060517131426" lon="11.617426848112164"><ele>82.0</ele><time>2026-04-18T08:37:46Z</time></trkpt><trkpt lat="44.28054309457612" lon="11.617388490295053"><ele>84.6</ele><time>2026-04-18T08:37:47Z</time></trkpt><trkpt lat="44.2804360723072" lon="11.617308818114529"><ele>87.19999999999999</ele><time>2026-04-18T08:37:49Z</time></trkpt><trkpt lat="44.280324944225384" lon="11.617224142353761"><ele>89.8</ele><time>2026-04-18T08:37:51Z</time></trkpt><trkpt lat="44.2802681223123" lon="11.617185739567503"><ele>92.4</ele><time>2026-04-18T08:37:52Z</time></trkpt><trkpt lat="44.28015958075058" lon="11.617106355740422"><ele>95.0</ele><time>2026-04-18T08:37:54Z</time></trkpt><trkpt lat="44.28005716701876" lon="11.617019568525924"><ele>94.0</ele><time>2026-04-18T08:37:56Z</time></trkpt><trkpt lat="44.2799649129811" lon="11.61692618053342"><ele>93.0</ele><time>2026-04-18T08:37:58Z</time></trkpt><trkpt lat="44.27986432063644" lon="11.616845782455503"><ele>92.0</ele><time>2026-04-18T08:38:00Z</time></trkpt><trkpt lat="44.279766652834226" lon="11.616767721595346"><ele>91.0</ele><time>2026-04-18T08:38:02Z</time></trkpt><trkpt lat="44.27966640646341" lon="11.616698542588825"><ele>91.0</ele><time>2026-04-18T08:38:04Z</time></trkpt><trkpt lat="44.27957102902579" lon="11.616611967094016"><ele>91.0</ele><time>2026-04-18T08:38:06Z</time></trkpt><trkpt lat="44.279478261159035" lon="11.616514376907634"><ele>91.0</ele><time>2026-04-18T08:38:08Z</time></trkpt><trkpt lat="44.27940266399257" lon="11.616387430022218"><ele>91.0</ele><time>2026-04-18T08:38:10Z</time></trkpt><trkpt lat="44.27933475529663" lon="11.61626474532333"><ele>90.5</ele><time>2026-04-18T08:38:12Z</time></trkpt><trkpt lat="44.279293257365026" lon="11.616121373240226"><ele>90.0</ele><time>2026-04-18T08:38:14Z</time></trkpt><trkpt lat="44.27926942013584" lon="11.616039004822694"><ele>89.5</ele><time>2026-04-18T08:38:15Z</time></trkpt><trkpt lat="44.27921668468973" lon="11.615877177807338"><ele>89.0</ele><time>2026-04-18T08:38:17Z</time></trkpt><trkpt lat="44.27919110254226" lon="11.615790947872432"><ele>88.5</ele><time>2026-04-18T08:38:18Z</time></trkpt><trkpt lat="44.279160412671565" lon="11.615713751561556"><ele>88.0</ele><time>2026-04-18T08:38:19Z</time></trkpt><trkpt lat="44.27913092527901" lon="11.615633616603446"><ele>88.0</ele><time>2026-04-18T08:38:20Z</time></trkpt><trkpt lat="44.279082545037326" lon="11.615486250420801"><ele>88.0</ele><time>2026-04-18T08:38:22Z</time></trkpt><trkpt lat="44.27905101435499" lon="11.615400600922827"><ele>88.0</ele><time>2026-04-18T08:38:23Z</time></trkpt><trkpt lat="44.27902408026298" lon="11.615319756730141"><ele>88.0</ele><time>2026-04-18T08:38:24Z</time></trkpt><trkpt lat="44.278996359391684" lon="11.615235548468924"><ele>88.0</ele><time>2026-04-18T08:38:25Z</time></trkpt><trkpt lat="44.27897381044609" lon="11.615149349815605"><ele>88.0</ele><time>2026-04-18T08:38:26Z</time></trkpt><trkpt lat="44.2789434019958" lon="11.61507099203094"><ele>88.0</ele><time>2026-04-18T08:38:27Z</time></trkpt><trkpt lat="44.27891692595047" lon="11.614987169230766"><ele>88.16666666666666</ele><time>2026-04-18T08:38:28Z</time></trkpt><trkpt lat="44.27888430470778" lon="11.614903228952528"><ele>88.33333333333333</ele><time>2026-04-18T08:38:29Z</time></trkpt><trkpt lat="44.278856948421875" lon="11.614823749594521"><ele>88.5</ele><time>2026-04-18T08:38:30Z</time></trkpt><trkpt lat="44.278830206119856" lon="11.614734291071263"><ele>88.66666666666667</ele><time>2026-04-18T08:38:31Z</time></trkpt><trkpt lat="44.27877637857119" lon="11.614569530353291"><ele>88.83333333333334</ele><time>2026-04-18T08:38:33Z</time></trkpt><trkpt lat="44.278744979025426" lon="11.614486479803672"><ele>89.0</ele><time>2026-04-18T08:38:34Z</time></trkpt><trkpt lat="44.27871644293124" lon="11.614398418023994"><ele>88.99999999999999</ele><time>2026-04-18T08:38:35Z</time></trkpt><trkpt lat="44.27869235424434" lon="11.614310853800744"><ele>89.0</ele><time>2026-04-18T08:38:36Z</time></trkpt><trkpt lat="44.27866080911976" lon="11.61422677723958"><ele>89.0</ele><time>2026-04-18T08:38:37Z</time></trkpt><trkpt lat="44.27863042790646" lon="11.614139470053688"><ele>89.0</ele><time>2026-04-18T08:38:38Z</time></trkpt><trkpt lat="44.27861101019416" lon="11.614045473626884"><ele>89.0</ele><time>2026-04-18T08:38:39Z</time></trkpt><trkpt lat="44.27856140897621" lon="11.613979980753431"><ele>88.99999999999999</ele><time>2026-04-18T08:38:40Z</time></trkpt><trkpt lat="44.27852138269361" lon="11.61390530753912"><ele>89.0</ele><time>2026-04-18T08:38:41Z</time></trkpt><trkpt lat="44.27847271905888" lon="11.613838939669323"><ele>89.0</ele><time>2026-04-18T08:38:42Z</time></trkpt><trkpt lat="44.278424201307175" lon="11.613774446310863"><ele>89.0</ele><time>2026-04-18T08:38:43Z</time></trkpt><trkpt lat="44.278329240482385" lon="11.613676483239724"><ele>89.0</ele><time>2026-04-18T08:38:45Z</time></trkpt><trkpt lat="44.2782511579516" lon="11.613563649688667"><ele>89.0</ele><time>2026-04-18T08:38:47Z</time></trkpt><trkpt lat="44.27823376745927" lon="11.613437567547708"><ele>89.0</ele><time>2026-04-18T08:38:49Z</time></trkpt><trkpt lat="44.27831672438354" lon="11.613351277613349"><ele>88.83333333333334</ele><time>2026-04-18T08:38:51Z</time></trkpt><trkpt lat="44.27834877124679" lon="11.613235592948245"><ele>88.66666666666667</ele><time>2026-04-18T08:38:53Z</time></trkpt><trkpt lat="44.27838710767003" lon="11.613158380700426"><ele>88.5</ele><time>2026-04-18T08:38:57Z</time></trkpt><trkpt lat="44.27844935568599" lon="11.61305342874829"><ele>88.33333333333333</ele><time>2026-04-18T08:39:01Z</time></trkpt><trkpt lat="44.27847218146598" lon="11.612961078799604"><ele>88.16666666666666</ele><time>2026-04-18T08:39:04Z</time></trkpt><trkpt lat="44.27848765757837" lon="11.612855508436716"><ele>88.0</ele><time>2026-04-18T08:39:07Z</time></trkpt><trkpt lat="44.278451505430056" lon="11.612778720239442"><ele>88.66666666666666</ele><time>2026-04-18T08:39:11Z</time></trkpt><trkpt lat="44.278406487541275" lon="11.612702432074729"><ele>89.33333333333333</ele><time>2026-04-18T08:39:14Z</time></trkpt><trkpt lat="44.278062437654356" lon="11.612716417817078"><ele>90.0</ele><time>2026-04-18T08:39:15Z</time></trkpt><trkpt lat="44.278003475796645" lon="11.612652794671009"><ele>92.57142857142857</ele><time>2026-04-18T08:39:18Z</time></trkpt><trkpt lat="44.277944557755944" lon="11.61259422506101"><ele>95.14285714285715</ele><time>2026-04-18T08:39:21Z</time></trkpt><trkpt lat="44.277886381047196" lon="11.61254451902587"><ele>97.71428571428572</ele><time>2026-04-18T08:39:24Z</time></trkpt><trkpt lat="44.27782992674128" lon="11.612495362233517"><ele>100.28571428571428</ele><time>2026-04-18T08:39:27Z</time></trkpt><trkpt lat="44.27776892050939" lon="11.612452532431574"><ele>102.85714285714286</ele><time>2026-04-18T08:39:30Z</time></trkpt><trkpt lat="44.277696797371306" lon="11.612384906242479"><ele>105.42857142857143</ele><time>2026-04-18T08:39:35Z</time></trkpt><trkpt lat="44.2776413116574" lon="11.612324707181441"><ele>108.0</ele><time>2026-04-18T08:39:39Z</time></trkpt><trkpt lat="44.27758856053586" lon="11.612270868059781"><ele>108.0</ele><time>2026-04-18T08:39:41Z</time></trkpt><trkpt lat="44.27753426604402" lon="11.61222287435598"><ele>108.0</ele><time>2026-04-18T08:39:44Z</time></trkpt><trkpt lat="44.2774562226197" lon="11.612163847253683"><ele>108.0</ele><time>2026-04-18T08:39:48Z</time></trkpt><trkpt lat="44.2773967878589" lon="11.612111189519943"><ele>108.0</ele><time>2026-04-18T08:39:51Z</time></trkpt><trkpt lat="44.27732064998094" lon="11.612059757812666"><ele>108.0</ele><time>2026-04-18T08:39:55Z</time></trkpt><trkpt lat="44.277259080757005" lon="11.612012625534799"><ele>108.0</ele><time>2026-04-18T08:39:58Z</time></trkpt><trkpt lat="44.277200640157936" lon="11.611965403858147"><ele>108.0</ele><time>2026-04-18T08:40:01Z</time></trkpt><trkpt lat="44.27713746054388" lon="11.61191581098105"><ele>110.16666666666667</ele><time>2026-04-18T08:40:05Z</time></trkpt><trkpt lat="44.277077078232296" lon="11.611859220354807"><ele>112.33333333333334</ele><time>2026-04-18T08:40:08Z</time></trkpt><trkpt lat="44.27701511440732" lon="11.6117914832695"><ele>114.5</ele><time>2026-04-18T08:40:11Z</time></trkpt><trkpt lat="44.27693872180523" lon="11.611716268280246"><ele>116.66666666666667</ele><time>2026-04-18T08:40:14Z</time></trkpt><trkpt lat="44.27687343791928" lon="11.611650849172658"><ele>118.83333333333334</ele><time>2026-04-18T08:40:17Z</time></trkpt><trkpt lat="44.27678985545254" lon="11.61160255076298"><ele>121.0</ele><time>2026-04-18T08:40:21Z</time></trkpt><trkpt lat="44.27672059386004" lon="11.611568678438237"><ele>121.00000000000001</ele><time>2026-04-18T08:40:24Z</time></trkpt><trkpt lat="44.27664356276275" lon="11.611531356326903"><ele>121.0</ele><time>2026-04-18T08:40:28Z</time></trkpt><trkpt lat="44.27656713079286" lon="11.61148357480112"><ele>121.0</ele><time>2026-04-18T08:40:32Z</time></trkpt><trkpt lat="44.27652003474726" lon="11.611402345712948"><ele>121.0</ele><time>2026-04-18T08:40:35Z</time></trkpt><trkpt lat="44.276461113245055" lon="11.61133423357243"><ele>121.00000000000001</ele><time>2026-04-18T08:40:38Z</time></trkpt><trkpt lat="44.276397497307535" lon="11.611257552293349"><ele>121.0</ele><time>2026-04-18T08:40:42Z</time></trkpt><trkpt lat="44.27634701868856" lon="11.611192605121307"><ele>123.42857142857142</ele><time>2026-04-18T08:40:45Z</time></trkpt><trkpt lat="44.27629879565316" lon="11.61112822346089"><ele>125.85714285714285</ele><time>2026-04-18T08:40:48Z</time></trkpt><trkpt lat="44.276261288338674" lon="11.611042868426168"><ele>128.28571428571428</ele><time>2026-04-18T08:40:51Z</time></trkpt><trkpt lat="44.276225671399104" lon="11.610961195068267"><ele>130.71428571428572</ele><time>2026-04-18T08:40:54Z</time></trkpt><trkpt lat="44.276192869403616" lon="11.610877895111129"><ele>133.14285714285717</ele><time>2026-04-18T08:40:57Z</time></trkpt><trkpt lat="44.27616474138215" lon="11.610797791716132"><ele>135.57142857142858</ele><time>2026-04-18T08:41:00Z</time></trkpt><trkpt lat="44.27612864846658" lon="11.610698070686377"><ele>138.0</ele><time>2026-04-18T08:41:04Z</time></trkpt><trkpt lat="44.276080463592656" lon="11.610598864605763"><ele>138.0</ele><time>2026-04-18T08:41:08Z</time></trkpt><trkpt lat="44.27604896502505" lon="11.610518949963453"><ele>138.0</ele><time>2026-04-18T08:41:11Z</time></trkpt><trkpt lat="44.276005175718744" lon="11.610423287979968"><ele>138.0</ele><time>2026-04-18T08:41:15Z</time></trkpt><trkpt lat="44.275965161989504" lon="11.610326744023155"><ele>138.0</ele><time>2026-04-18T08:41:19Z</time></trkpt><trkpt lat="44.27592386627138" lon="11.610249529676532"><ele>138.0</ele><time>2026-04-18T08:41:22Z</time></trkpt><trkpt lat="44.27588252031626" lon="11.61017806011637"><ele>138.0</ele><time>2026-04-18T08:41:25Z</time></trkpt><trkpt lat="44.275845087177004" lon="11.61004455766699"><ele>139.42857142857144</ele><time>2026-04-18T08:41:29Z</time></trkpt><trkpt lat="44.27583161488914" lon="11.609949739999626"><ele>140.85714285714286</ele><time>2026-04-18T08:41:32Z</time></trkpt><trkpt lat="44.27581154576645" lon="11.609861040133854"><ele>142.28571428571428</ele><time>2026-04-18T08:41:33Z</time></trkpt><trkpt lat="44.27576600314738" lon="11.609795116013506"><ele>143.71428571428572</ele><time>2026-04-18T08:41:35Z</time></trkpt><trkpt lat="44.275704917012774" lon="11.60972605481813"><ele>145.14285714285714</ele><time>2026-04-18T08:41:37Z</time></trkpt><trkpt lat="44.27563382248169" lon="11.609678048387938"><ele>146.57142857142858</ele><time>2026-04-18T08:41:39Z</time></trkpt><trkpt lat="44.275571396028845" lon="11.609646448535367"><ele>148.0</ele><time>2026-04-18T08:41:41Z</time></trkpt><trkpt lat="44.27549389410039" lon="11.6096010900639"><ele>148.16666666666669</ele><time>2026-04-18T08:41:44Z</time></trkpt><trkpt lat="44.27540772240065" lon="11.609579170656163"><ele>148.33333333333334</ele><time>2026-04-18T08:41:47Z</time></trkpt><trkpt lat="44.27534119703656" lon="11.609555011573372"><ele>148.5</ele><time>2026-04-18T08:41:49.999Z</time></trkpt><trkpt lat="44.275278930264314" lon="11.609507335028244"><ele>148.66666666666666</ele><time>2026-04-18T08:41:52.999Z</time></trkpt><trkpt lat="44.275214145542805" lon="11.609436158932157"><ele>148.83333333333331</ele><time>2026-04-18T08:41:55.999Z</time></trkpt><trkpt lat="44.27516246839606" lon="11.609346766219613"><ele>149.0</ele><time>2026-04-18T08:41:58.999Z</time></trkpt><trkpt lat="44.27509855610947" lon="11.609272380327589"><ele>151.33333333333331</ele><time>2026-04-18T08:42:01.999Z</time></trkpt><trkpt lat="44.275042980381635" lon="11.609207436490173"><ele>153.66666666666666</ele><time>2026-04-18T08:42:04.999Z</time></trkpt><trkpt lat="44.27498090783324" lon="11.609143838652999"><ele>156.0</ele><time>2026-04-18T08:42:07.999Z</time></trkpt><trkpt lat="44.27492276850627" lon="11.609078501552576"><ele>158.33333333333334</ele><time>2026-04-18T08:42:10.999Z</time></trkpt><trkpt lat="44.27486848868629" lon="11.609018471315203"><ele>160.66666666666669</ele><time>2026-04-18T08:42:13.999Z</time></trkpt><trkpt lat="44.274795447413474" lon="11.608950093603"><ele>163.0</ele><time>2026-04-18T08:42:17Z</time></trkpt><trkpt lat="44.274723532880756" lon="11.608880093763876"><ele>163.0</ele><time>2026-04-18T08:42:20Z</time></trkpt><trkpt lat="44.27467337052125" lon="11.608797859384222"><ele>163.0</ele><time>2026-04-18T08:42:23Z</time></trkpt><trkpt lat="44.274615009652635" lon="11.608713253789784"><ele>163.0</ele><time>2026-04-18T08:42:27Z</time></trkpt><trkpt lat="44.27455493322758" lon="11.608631975597234"><ele>163.0</ele><time>2026-04-18T08:42:30Z</time></trkpt><trkpt lat="44.27450704427216" lon="11.60856735933936"><ele>163.0</ele><time>2026-04-18T08:42:32Z</time></trkpt><trkpt lat="44.274458895482134" lon="11.608488312231632"><ele>163.0</ele><time>2026-04-18T08:42:35Z</time></trkpt><trkpt lat="44.27439724068059" lon="11.60839422006871"><ele>165.83333333333334</ele><time>2026-04-18T08:42:38Z</time></trkpt><trkpt lat="44.27433993016428" lon="11.608312649207727"><ele>168.66666666666669</ele><time>2026-04-18T08:42:41Z</time></trkpt><trkpt lat="44.27427843560194" lon="11.608233340412827"><ele>171.5</ele><time>2026-04-18T08:42:44Z</time></trkpt><trkpt lat="44.274220135137064" lon="11.608174140649314"><ele>174.33333333333334</ele><time>2026-04-18T08:42:47Z</time></trkpt><trkpt lat="44.27415317882973" lon="11.608124143721142"><ele>177.16666666666666</ele><time>2026-04-18T08:42:50Z</time></trkpt><trkpt lat="44.27409418619719" lon="11.608061483125256"><ele>180.0</ele><time>2026-04-18T08:42:53Z</time></trkpt><trkpt lat="44.274033557425625" lon="11.607996783026504"><ele>180.0</ele><time>2026-04-18T08:42:56Z</time></trkpt><trkpt lat="44.27397004409782" lon="11.607942772279774"><ele>180.0</ele><time>2026-04-18T08:42:59Z</time></trkpt><trkpt lat="44.27391033724243" lon="11.607889557522434"><ele>180.0</ele><time>2026-04-18T08:43:02Z</time></trkpt><trkpt lat="44.27384371568074" lon="11.607848040651989"><ele>180.0</ele><time>2026-04-18T08:43:05Z</time></trkpt><trkpt lat="44.2737844290959" lon="11.60781517077239"><ele>180.0</ele><time>2026-04-18T08:43:08Z</time></trkpt><trkpt lat="44.27369955723617" lon="11.60778538755367"><ele>180.0</ele><time>2026-04-18T08:43:11Z</time></trkpt><trkpt lat="44.27362316933974" lon="11.607747135088298"><ele>183.0</ele><time>2026-04-18T08:43:14Z</time></trkpt><trkpt lat="44.27355337647185" lon="11.607696798521982"><ele>186.0</ele><time>2026-04-18T08:43:17Z</time></trkpt><trkpt lat="44.273482259643984" lon="11.60765522462441"><ele>189.0</ele><time>2026-04-18T08:43:20Z</time></trkpt><trkpt lat="44.27339857595438" lon="11.607620341101788"><ele>192.0</ele><time>2026-04-18T08:43:23Z</time></trkpt><trkpt lat="44.273326382416286" lon="11.607589323489236"><ele>195.0</ele><time>2026-04-18T08:43:26Z</time></trkpt><trkpt lat="44.27325060088585" lon="11.607545716499963"><ele>198.0</ele><time>2026-04-18T08:43:29Z</time></trkpt><trkpt lat="44.2732002869629" lon="11.607466247442943"><ele>198.0</ele><time>2026-04-18T08:43:33Z</time></trkpt><trkpt lat="44.273155120385525" lon="11.607397383504587"><ele>198.0</ele><time>2026-04-18T08:43:36Z</time></trkpt><trkpt lat="44.2731095906991" lon="11.607332597902223"><ele>198.0</ele><time>2026-04-18T08:43:38Z</time></trkpt><trkpt lat="44.27307792682341" lon="11.607239631028623"><ele>198.0</ele><time>2026-04-18T08:43:41Z</time></trkpt><trkpt lat="44.27305936518366" lon="11.60713079688095"><ele>198.0</ele><time>2026-04-18T08:43:44Z</time></trkpt><trkpt lat="44.27302046879939" lon="11.607029621238711"><ele>198.0</ele><time>2026-04-18T08:43:48Z</time></trkpt><trkpt lat="44.27299849794739" lon="11.606915556533739"><ele>203.28571428571428</ele><time>2026-04-18T08:43:51Z</time></trkpt><trkpt lat="44.272979240073" lon="11.606794378015984"><ele>208.57142857142856</ele><time>2026-04-18T08:43:55Z</time></trkpt><trkpt lat="44.272960686492404" lon="11.606690286981912"><ele>213.85714285714283</ele><time>2026-04-18T08:43:57.999Z</time></trkpt><trkpt lat="44.2729475428263" lon="11.606596119067701"><ele>219.14285714285714</ele><time>2026-04-18T08:44:00.999Z</time></trkpt><trkpt lat="44.272924232631645" lon="11.60651398437248"><ele>224.4285714285714</ele><time>2026-04-18T08:44:03.999Z</time></trkpt><trkpt lat="44.27291082315105" lon="11.606412599546564"><ele>229.7142857142857</ele><time>2026-04-18T08:44:06.999Z</time></trkpt><trkpt lat="44.27286416351235" lon="11.606334063760178"><ele>235.0</ele><time>2026-04-18T08:44:10.999Z</time></trkpt><trkpt lat="44.27281204126711" lon="11.60640774616637"><ele>235.0</ele><time>2026-04-18T08:44:14.999Z</time></trkpt><trkpt lat="44.272768081129364" lon="11.606497764071468"><ele>234.99999999999997</ele><time>2026-04-18T08:44:18.999Z</time></trkpt><trkpt lat="44.27272846448589" lon="11.606573902799877"><ele>235.0</ele><time>2026-04-18T08:44:21.999Z</time></trkpt><trkpt lat="44.27268295173496" lon="11.606662255172573"><ele>235.0</ele><time>2026-04-18T08:44:24.999Z</time></trkpt><trkpt lat="44.27264736303355" lon="11.606755048196437"><ele>234.99999999999997</ele><time>2026-04-18T08:44:27.999Z</time></trkpt><trkpt lat="44.272600546776445" lon="11.606843278781424"><ele>235.0</ele><time>2026-04-18T08:44:30.999Z</time></trkpt><trkpt lat="44.272570526699276" lon="11.606928950269861"><ele>235.0</ele><time>2026-04-18T08:44:35Z</time></trkpt><trkpt lat="44.2725349804539" lon="11.60701819583914"><ele>233.83333333333331</ele><time>2026-04-18T08:44:37Z</time></trkpt><trkpt lat="44.272495618708824" lon="11.60710985718646"><ele>232.66666666666666</ele><time>2026-04-18T08:44:40Z</time></trkpt><trkpt lat="44.27245226867594" lon="11.607202159801723"><ele>231.5</ele><time>2026-04-18T08:44:43Z</time></trkpt><trkpt lat="44.27240901125647" lon="11.607284934351995"><ele>230.33333333333331</ele><time>2026-04-18T08:44:46Z</time></trkpt><trkpt lat="44.272362770448574" lon="11.607370838396267"><ele>229.16666666666666</ele><time>2026-04-18T08:44:49Z</time></trkpt><trkpt lat="44.272311485513306" lon="11.60746060188922"><ele>228.0</ele><time>2026-04-18T08:44:52Z</time></trkpt><trkpt lat="44.272257271506966" lon="11.607550932824827"><ele>228.0</ele><time>2026-04-18T08:44:55Z</time></trkpt><trkpt lat="44.272206633252985" lon="11.60765376386255"><ele>228.0</ele><time>2026-04-18T08:44:58Z</time></trkpt><trkpt lat="44.27216486946432" lon="11.607721820824638"><ele>228.0</ele><time>2026-04-18T08:45:00Z</time></trkpt><trkpt lat="44.27211913363412" lon="11.607811066647582"><ele>228.0</ele><time>2026-04-18T08:45:03Z</time></trkpt><trkpt lat="44.27206613717619" lon="11.607911442487207"><ele>228.0</ele><time>2026-04-18T08:45:06Z</time></trkpt><trkpt lat="44.27201324761343" lon="11.608011913659382"><ele>228.0</ele><time>2026-04-18T08:45:09Z</time></trkpt><trkpt lat="44.2719638702273" lon="11.608093450249727"><ele>228.0</ele><time>2026-04-18T08:45:12Z</time></trkpt><trkpt lat="44.271884295963225" lon="11.608086264338299"><ele>228.0</ele><time>2026-04-18T08:45:15Z</time></trkpt><trkpt lat="44.271890461316644" lon="11.607976132784383"><ele>228.0</ele><time>2026-04-18T08:45:18Z</time></trkpt><trkpt lat="44.27192866700334" lon="11.607869840313594"><ele>228.0</ele><time>2026-04-18T08:45:21Z</time></trkpt><trkpt lat="44.27196813319845" lon="11.607758057807112"><ele>228.0</ele><time>2026-04-18T08:45:24Z</time></trkpt><trkpt lat="44.272004955782656" lon="11.607628855831578"><ele>228.0</ele><time>2026-04-18T08:45:27Z</time></trkpt><trkpt lat="44.272040638090715" lon="11.607550852517038"><ele>228.0</ele><time>2026-04-18T08:45:29Z</time></trkpt><trkpt lat="44.27208518127353" lon="11.607436635755379"><ele>228.0</ele><time>2026-04-18T08:45:32Z</time></trkpt><trkpt lat="44.27212136267727" lon="11.607320910658284"><ele>228.0</ele><time>2026-04-18T08:45:35Z</time></trkpt><trkpt lat="44.27216802633219" lon="11.607211432303469"><ele>228.0</ele><time>2026-04-18T08:45:38Z</time></trkpt><trkpt lat="44.27219349739203" lon="11.607112463312815"><ele>228.0</ele><time>2026-04-18T08:45:40Z</time></trkpt><trkpt lat="44.27222081825067" lon="11.607033044980929"><ele>228.0</ele><time>2026-04-18T08:45:42Z</time></trkpt><trkpt lat="44.2722398011728" lon="11.606937579524123"><ele>228.28571428571428</ele><time>2026-04-18T08:45:44Z</time></trkpt><trkpt lat="44.27225930553137" lon="11.606833757309358"><ele>228.57142857142856</ele><time>2026-04-18T08:45:46Z</time></trkpt><trkpt lat="44.27226565287552" lon="11.60674029981767"><ele>228.85714285714283</ele><time>2026-04-18T08:45:48Z</time></trkpt><trkpt lat="44.27226291918877" lon="11.606637499537653"><ele>229.1428571428571</ele><time>2026-04-18T08:45:50Z</time></trkpt><trkpt lat="44.27226060173211" lon="11.60654372802118"><ele>229.42857142857142</ele><time>2026-04-18T08:45:52Z</time></trkpt><trkpt lat="44.27225985837744" lon="11.606444785454268"><ele>229.71428571428567</ele><time>2026-04-18T08:45:54Z</time></trkpt><trkpt lat="44.27225042354067" lon="11.606331894874364"><ele>229.99999999999997</ele><time>2026-04-18T08:45:56Z</time></trkpt><trkpt lat="44.27223174477843" lon="11.606219574659727"><ele>232.33333333333334</ele><time>2026-04-18T08:45:58Z</time></trkpt><trkpt lat="44.27221745438781" lon="11.606108944777503"><ele>234.66666666666669</ele><time>2026-04-18T08:46:00Z</time></trkpt><trkpt lat="44.272200659481825" lon="11.605991824151248"><ele>237.0</ele><time>2026-04-18T08:46:01.999Z</time></trkpt><trkpt lat="44.27218554553956" lon="11.605867412106084"><ele>239.33333333333331</ele><time>2026-04-18T08:46:03.999Z</time></trkpt><trkpt lat="44.272174946816456" lon="11.605750525443186"><ele>241.66666666666666</ele><time>2026-04-18T08:46:05.999Z</time></trkpt><trkpt lat="44.27216680874602" lon="11.605638381762988"><ele>244.0</ele><time>2026-04-18T08:46:07.999Z</time></trkpt><trkpt lat="44.2721593650394" lon="11.605520811410733"><ele>243.99999999999997</ele><time>2026-04-18T08:46:09.999Z</time></trkpt><trkpt lat="44.27215389339365" lon="11.605392757170188"><ele>244.0</ele><time>2026-04-18T08:46:11.999Z</time></trkpt><trkpt lat="44.27216127701298" lon="11.6052734461595"><ele>244.0</ele><time>2026-04-18T08:46:13.999Z</time></trkpt><trkpt lat="44.27218837317827" lon="11.605175867291132"><ele>244.0</ele><time>2026-04-18T08:46:15.999Z</time></trkpt><trkpt lat="44.27222877616718" lon="11.605071478461573"><ele>243.99999999999997</ele><time>2026-04-18T08:46:17.999Z</time></trkpt><trkpt lat="44.27226452112272" lon="11.604957662845035"><ele>244.0</ele><time>2026-04-18T08:46:19.999Z</time></trkpt><trkpt lat="44.27229889638842" lon="11.604823091099766"><ele>245.2</ele><time>2026-04-18T08:46:21.999Z</time></trkpt><trkpt lat="44.27234983138105" lon="11.60469970287777"><ele>246.39999999999998</ele><time>2026-04-18T08:46:23.999Z</time></trkpt><trkpt lat="44.27238364403333" lon="11.604583061534608"><ele>247.6</ele><time>2026-04-18T08:46:26Z</time></trkpt><trkpt lat="44.27241233475315" lon="11.604460992493077"><ele>248.8</ele><time>2026-04-18T08:46:28Z</time></trkpt><trkpt lat="44.27245269827299" lon="11.604344021409148"><ele>250.0</ele><time>2026-04-18T08:46:30Z</time></trkpt><trkpt lat="44.272492044325126" lon="11.60424231040944"><ele>251.33333333333331</ele><time>2026-04-18T08:46:32Z</time></trkpt><trkpt lat="44.2725172775769" lon="11.60413376932325"><ele>252.66666666666666</ele><time>2026-04-18T08:46:34Z</time></trkpt><trkpt lat="44.27251282903279" lon="11.604005055596932"><ele>254.0</ele><time>2026-04-18T08:46:36Z</time></trkpt><trkpt lat="44.272482851672024" lon="11.603896367741742"><ele>255.33333333333331</ele><time>2026-04-18T08:46:38Z</time></trkpt><trkpt lat="44.272492869706255" lon="11.603785923489214"><ele>256.6666666666667</ele><time>2026-04-18T08:47:39Z</time></trkpt><trkpt lat="44.27242201490537" lon="11.603794853082253"><ele>258.0</ele><time>2026-04-18T08:47:44Z</time></trkpt><trkpt lat="44.27235514564857" lon="11.603797397126872"><ele>257.99999999999994</ele><time>2026-04-18T08:47:48.001Z</time></trkpt><trkpt lat="44.272296038491085" lon="11.603728418482872"><ele>258.0</ele><time>2026-04-18T08:47:51.001Z</time></trkpt><trkpt lat="44.27222848526267" lon="11.603625613649106"><ele>258.0</ele><time>2026-04-18T08:47:54.001Z</time></trkpt><trkpt lat="44.27218994441251" lon="11.60354877588896"><ele>258.0</ele><time>2026-04-18T08:47:56.001Z</time></trkpt><trkpt lat="44.272161818554665" lon="11.60346727296226"><ele>258.0</ele><time>2026-04-18T08:47:58.001Z</time></trkpt><trkpt lat="44.27214255238812" lon="11.603381833020137"><ele>257.99999999999994</ele><time>2026-04-18T08:48:00.001Z</time></trkpt><trkpt lat="44.272120653790886" lon="11.603290399390701"><ele>258.0</ele><time>2026-04-18T08:48:02.001Z</time></trkpt><trkpt lat="44.272094379056924" lon="11.603198933949619"><ele>260.6666666666667</ele><time>2026-04-18T08:48:04.001Z</time></trkpt><trkpt lat="44.27207572003932" lon="11.603113624452607"><ele>263.3333333333333</ele><time>2026-04-18T08:48:06.001Z</time></trkpt><trkpt lat="44.272060989013845" lon="11.603003122002576"><ele>266.0</ele><time>2026-04-18T08:48:08Z</time></trkpt><trkpt lat="44.27199353811902" lon="11.602921624639118"><ele>268.66666666666663</ele><time>2026-04-18T08:48:10Z</time></trkpt><trkpt lat="44.27192823589715" lon="11.602947431682225"><ele>271.3333333333333</ele><time>2026-04-18T08:48:11Z</time></trkpt><trkpt lat="44.27183298480266" lon="11.602944777629057"><ele>274.0</ele><time>2026-04-18T08:48:13Z</time></trkpt><trkpt lat="44.27173106469276" lon="11.602947269327343"><ele>274.0</ele><time>2026-04-18T08:48:15Z</time></trkpt><trkpt lat="44.27161947899466" lon="11.602947160387044"><ele>274.0</ele><time>2026-04-18T08:48:17Z</time></trkpt><trkpt lat="44.27149844867042" lon="11.60294298811146"><ele>274.0</ele><time>2026-04-18T08:48:19Z</time></trkpt><trkpt lat="44.271434429094704" lon="11.602941230107765"><ele>274.0</ele><time>2026-04-18T08:48:20Z</time></trkpt><trkpt lat="44.27137143189672" lon="11.602934165413348"><ele>274.0</ele><time>2026-04-18T08:48:21Z</time></trkpt><trkpt lat="44.27130754622813" lon="11.602919207718605"><ele>274.0</ele><time>2026-04-18T08:48:22Z</time></trkpt><trkpt lat="44.27124463714523" lon="11.602885610200122"><ele>272.16666666666663</ele><time>2026-04-18T08:48:23Z</time></trkpt><trkpt lat="44.27114653765708" lon="11.602793104569729"><ele>270.3333333333333</ele><time>2026-04-18T08:48:25Z</time></trkpt><trkpt lat="44.27110145631109" lon="11.602729404891056"><ele>268.5</ele><time>2026-04-18T08:48:26Z</time></trkpt><trkpt lat="44.2710635407903" lon="11.60265777218963"><ele>266.6666666666667</ele><time>2026-04-18T08:48:27Z</time></trkpt><trkpt lat="44.271029610949434" lon="11.602582144148421"><ele>264.83333333333337</ele><time>2026-04-18T08:48:28Z</time></trkpt><trkpt lat="44.2710001221522" lon="11.602502111852791"><ele>263.0</ele><time>2026-04-18T08:48:29Z</time></trkpt><trkpt lat="44.2709517422114" lon="11.602359540913408"><ele>263.0</ele><time>2026-04-18T08:48:31Z</time></trkpt><trkpt lat="44.270908883328474" lon="11.60220368038099"><ele>263.0</ele><time>2026-04-18T08:48:33Z</time></trkpt><trkpt lat="44.27086725062868" lon="11.602042376204986"><ele>263.0</ele><time>2026-04-18T08:48:35Z</time></trkpt><trkpt lat="44.2708274869339" lon="11.601885407163488"><ele>263.0</ele><time>2026-04-18T08:48:37Z</time></trkpt><trkpt lat="44.27078106615511" lon="11.601731836638095"><ele>262.75</ele><time>2026-04-18T08:48:39Z</time></trkpt><trkpt lat="44.27072244730349" lon="11.6015853620142"><ele>262.5</ele><time>2026-04-18T08:48:41Z</time></trkpt><trkpt lat="44.27063237160941" lon="11.601473241231542"><ele>262.25</ele><time>2026-04-18T08:48:43Z</time></trkpt><trkpt lat="44.27051001716029" lon="11.60142965712706"><ele>262.0</ele><time>2026-04-18T08:48:45Z</time></trkpt><trkpt lat="44.27039069566509" lon="11.601420403804035"><ele>262.0</ele><time>2026-04-18T08:48:47Z</time></trkpt><trkpt lat="44.27026542267524" lon="11.601455469071915"><ele>262.0</ele><time>2026-04-18T08:48:49Z</time></trkpt><trkpt lat="44.27015701846676" lon="11.601488336474302"><ele>262.0</ele><time>2026-04-18T08:48:51Z</time></trkpt><trkpt lat="44.27005540796262" lon="11.601517102607048"><ele>262.0</ele><time>2026-04-18T08:48:53Z</time></trkpt><trkpt lat="44.26997180698178" lon="11.601542351035748"><ele>262.0</ele><time>2026-04-18T08:48:55Z</time></trkpt><trkpt lat="44.2698845126822" lon="11.60155635952539"><ele>262.0</ele><time>2026-04-18T08:48:57Z</time></trkpt><trkpt lat="44.26978939960776" lon="11.601586507118586"><ele>262.0</ele><time>2026-04-18T08:48:59Z</time></trkpt><trkpt lat="44.26970255673143" lon="11.601620126857291"><ele>262.0</ele><time>2026-04-18T08:49:01Z</time></trkpt><trkpt lat="44.26961073621216" lon="11.601638989019452"><ele>262.0</ele><time>2026-04-18T08:49:03Z</time></trkpt><trkpt lat="44.269514888658215" lon="11.601663069763047"><ele>262.0</ele><time>2026-04-18T08:49:05Z</time></trkpt><trkpt lat="44.269420602186045" lon="11.601686147943061"><ele>261.2</ele><time>2026-04-18T08:49:07Z</time></trkpt><trkpt lat="44.26933385856995" lon="11.601706430486331"><ele>260.4</ele><time>2026-04-18T08:49:09Z</time></trkpt><trkpt lat="44.26924440020023" lon="11.601743799028814"><ele>259.6</ele><time>2026-04-18T08:49:11Z</time></trkpt><trkpt lat="44.26916519743828" lon="11.601808084044128"><ele>258.8</ele><time>2026-04-18T08:49:13Z</time></trkpt><trkpt lat="44.2690880468652" lon="11.601869341632936"><ele>258.0</ele><time>2026-04-18T08:49:15Z</time></trkpt><trkpt lat="44.269013551481656" lon="11.601940881649076"><ele>258.8</ele><time>2026-04-18T08:49:17Z</time></trkpt><trkpt lat="44.2689430330013" lon="11.602019453199956"><ele>259.6</ele><time>2026-04-18T08:49:19Z</time></trkpt><trkpt lat="44.26886412433928" lon="11.602095468899858"><ele>260.4</ele><time>2026-04-18T08:49:21Z</time></trkpt><trkpt lat="44.268797931656756" lon="11.60220075783546"><ele>261.2</ele><time>2026-04-18T08:49:23Z</time></trkpt><trkpt lat="44.26871211056635" lon="11.602173059903397"><ele>262.0</ele><time>2026-04-18T08:49:24Z</time></trkpt><trkpt lat="44.268614044385245" lon="11.602195970591817"><ele>262.0</ele><time>2026-04-18T08:49:26Z</time></trkpt><trkpt lat="44.26851229435091" lon="11.602220048389695"><ele>262.0</ele><time>2026-04-18T08:49:28.001Z</time></trkpt><trkpt lat="44.26841354320374" lon="11.602251124965917"><ele>262.0</ele><time>2026-04-18T08:49:30.001Z</time></trkpt><trkpt lat="44.26831143283049" lon="11.602283486462786"><ele>262.0</ele><time>2026-04-18T08:49:32.001Z</time></trkpt><trkpt lat="44.26820562661165" lon="11.60231007415553"><ele>262.0</ele><time>2026-04-18T08:49:34.001Z</time></trkpt><trkpt lat="44.26810059566249" lon="11.602334058061153"><ele>263.6</ele><time>2026-04-18T08:49:36.001Z</time></trkpt><trkpt lat="44.26799806462706" lon="11.60236671795223"><ele>265.2</ele><time>2026-04-18T08:49:38.001Z</time></trkpt><trkpt lat="44.267891430163154" lon="11.602382066926618"><ele>266.8</ele><time>2026-04-18T08:49:40.001Z</time></trkpt><trkpt lat="44.26778398652537" lon="11.60238911906142"><ele>268.4</ele><time>2026-04-18T08:49:42.001Z</time></trkpt><trkpt lat="44.2676835311918" lon="11.60239732643342"><ele>270.0</ele><time>2026-04-18T08:49:44.001Z</time></trkpt><trkpt lat="44.26758536098854" lon="11.602384772999983"><ele>270.0</ele><time>2026-04-18T08:49:46.001Z</time></trkpt><trkpt lat="44.26749820339728" lon="11.602374573348744"><ele>270.0</ele><time>2026-04-18T08:49:48.001Z</time></trkpt><trkpt lat="44.26741699055089" lon="11.602370447690262"><ele>270.0</ele><time>2026-04-18T08:49:50.001Z</time></trkpt><trkpt lat="44.26732418383183" lon="11.602359617497001"><ele>270.0</ele><time>2026-04-18T08:49:52.001Z</time></trkpt><trkpt lat="44.26724746695946" lon="11.602343748555889"><ele>270.0</ele><time>2026-04-18T08:49:54.001Z</time></trkpt><trkpt lat="44.267174725102606" lon="11.602342338161371"><ele>270.0</ele><time>2026-04-18T08:49:56.001Z</time></trkpt><trkpt lat="44.267104338352645" lon="11.602333316579887"><ele>270.3333333333333</ele><time>2026-04-18T08:49:58.001Z</time></trkpt><trkpt lat="44.26703752878481" lon="11.602326621263513"><ele>270.6666666666667</ele><time>2026-04-18T08:50:00.001Z</time></trkpt><trkpt lat="44.266969455098746" lon="11.602308273912826"><ele>271.0</ele><time>2026-04-18T08:50:02.001Z</time></trkpt><trkpt lat="44.26691410686289" lon="11.6022558391015"><ele>271.33333333333337</ele><time>2026-04-18T08:50:04.001Z</time></trkpt><trkpt lat="44.26683924755556" lon="11.602197997710164"><ele>271.6666666666667</ele><time>2026-04-18T08:50:07.001Z</time></trkpt><trkpt lat="44.26678818341278" lon="11.602095884507332"><ele>272.0</ele><time>2026-04-18T08:50:10.001Z</time></trkpt><trkpt lat="44.266728350356416" lon="11.602016674805888"><ele>273.1666666666667</ele><time>2026-04-18T08:50:13.001Z</time></trkpt><trkpt lat="44.266671136099156" lon="11.60194021734731"><ele>274.33333333333337</ele><time>2026-04-18T08:50:16Z</time></trkpt><trkpt lat="44.26659885649826" lon="11.601863368744556"><ele>275.5</ele><time>2026-04-18T08:50:19Z</time></trkpt><trkpt lat="44.26654216959842" lon="11.601797340502037"><ele>276.6666666666667</ele><time>2026-04-18T08:50:21Z</time></trkpt><trkpt lat="44.26649097535068" lon="11.601738191588673"><ele>277.8333333333333</ele><time>2026-04-18T08:50:23Z</time></trkpt><trkpt lat="44.266416303703" lon="11.60166336434841"><ele>279.0</ele><time>2026-04-18T08:50:26Z</time></trkpt><trkpt lat="44.26635390319307" lon="11.601577236827277"><ele>279.99999999999994</ele><time>2026-04-18T08:50:29Z</time></trkpt><trkpt lat="44.266291386504896" lon="11.601512973959212"><ele>281.0</ele><time>2026-04-18T08:50:32Z</time></trkpt><trkpt lat="44.2662308570229" lon="11.601443743025195"><ele>282.0</ele><time>2026-04-18T08:50:35Z</time></trkpt><trkpt lat="44.266176273299436" lon="11.601387664823166"><ele>283.0</ele><time>2026-04-18T08:50:38Z</time></trkpt><trkpt lat="44.26612333913014" lon="11.601337158322725"><ele>284.0</ele><time>2026-04-18T08:50:41Z</time></trkpt><trkpt lat="44.266064314541076" lon="11.601273262162074"><ele>284.99999999999994</ele><time>2026-04-18T08:50:45Z</time></trkpt><trkpt lat="44.2660139054956" lon="11.601211389994504"><ele>286.0</ele><time>2026-04-18T08:50:48Z</time></trkpt><trkpt lat="44.26596474554142" lon="11.601155696668783"><ele>287.5</ele><time>2026-04-18T08:50:51Z</time></trkpt><trkpt lat="44.265924366442086" lon="11.601076510197903"><ele>289.0</ele><time>2026-04-18T08:50:54Z</time></trkpt><trkpt lat="44.26589081826612" lon="11.600966351361356"><ele>290.5</ele><time>2026-04-18T08:50:58Z</time></trkpt><trkpt lat="44.2658540316294" lon="11.600854631618967"><ele>292.0</ele><time>2026-04-18T08:51:02Z</time></trkpt><trkpt lat="44.265822052535064" lon="11.600753505348598"><ele>293.5</ele><time>2026-04-18T08:51:06Z</time></trkpt><trkpt lat="44.26579360368662" lon="11.60067238068444"><ele>295.0</ele><time>2026-04-18T08:51:09Z</time></trkpt><trkpt lat="44.265747422610666" lon="11.600575032390926"><ele>295.0</ele><time>2026-04-18T08:51:13Z</time></trkpt><trkpt lat="44.265698581488536" lon="11.600512490607116"><ele>295.0</ele><time>2026-04-18T08:51:16.001Z</time></trkpt><trkpt lat="44.265651970752245" lon="11.600448454397947"><ele>295.0</ele><time>2026-04-18T08:51:19.001Z</time></trkpt><trkpt lat="44.26559208125505" lon="11.600367622783036"><ele>295.0</ele><time>2026-04-18T08:51:23.001Z</time></trkpt><trkpt lat="44.2655369289467" lon="11.600311435086333"><ele>295.0</ele><time>2026-04-18T08:51:26.001Z</time></trkpt><trkpt lat="44.26547884994978" lon="11.600250185559648"><ele>295.0</ele><time>2026-04-18T08:51:28.001Z</time></trkpt><trkpt lat="44.26539717315397" lon="11.600161060711804"><ele>294.5</ele><time>2026-04-18T08:51:30.001Z</time></trkpt><trkpt lat="44.26535181854959" lon="11.600096945609193"><ele>294.0</ele><time>2026-04-18T08:51:31.001Z</time></trkpt><trkpt lat="44.26530398575675" lon="11.600017881349487"><ele>293.5</ele><time>2026-04-18T08:51:32.001Z</time></trkpt><trkpt lat="44.26523513010106" lon="11.599943909492888"><ele>293.0</ele><time>2026-04-18T08:51:33.001Z</time></trkpt><trkpt lat="44.26514561370531" lon="11.599876380360062"><ele>292.5</ele><time>2026-04-18T08:51:34.001Z</time></trkpt><trkpt lat="44.26505625101355" lon="11.599781897890301"><ele>292.0</ele><time>2026-04-18T08:51:35.001Z</time></trkpt><trkpt lat="44.26497699437757" lon="11.599673761681974"><ele>292.0</ele><time>2026-04-18T08:51:36.001Z</time></trkpt><trkpt lat="44.264883989119745" lon="11.599572575854106"><ele>292.0</ele><time>2026-04-18T08:51:37.001Z</time></trkpt><trkpt lat="44.2647877921165" lon="11.599490146570263"><ele>292.0</ele><time>2026-04-18T08:51:38.001Z</time></trkpt><trkpt lat="44.26467835376072" lon="11.599432887884292"><ele>292.0</ele><time>2026-04-18T08:51:39.001Z</time></trkpt><trkpt lat="44.264567320445174" lon="11.599388202259757"><ele>289.75</ele><time>2026-04-18T08:51:40.001Z</time></trkpt><trkpt lat="44.26445366385444" lon="11.599335194517291"><ele>287.5</ele><time>2026-04-18T08:51:41.001Z</time></trkpt><trkpt lat="44.26433431778212" lon="11.599298731928219"><ele>285.25</ele><time>2026-04-18T08:51:42.001Z</time></trkpt><trkpt lat="44.26421603284179" lon="11.5992595993162"><ele>283.0</ele><time>2026-04-18T08:51:43.001Z</time></trkpt><trkpt lat="44.26410260811249" lon="11.59922053842682"><ele>283.0</ele><time>2026-04-18T08:51:44.001Z</time></trkpt><trkpt lat="44.26399683696778" lon="11.599172875242068"><ele>283.0</ele><time>2026-04-18T08:51:45.001Z</time></trkpt><trkpt lat="44.26389813012813" lon="11.599124916963204"><ele>283.0</ele><time>2026-04-18T08:51:46.001Z</time></trkpt><trkpt lat="44.26380565783627" lon="11.599084323601925"><ele>283.0</ele><time>2026-04-18T08:51:47.001Z</time></trkpt><trkpt lat="44.26372062283946" lon="11.599051240037554"><ele>283.0</ele><time>2026-04-18T08:51:48.001Z</time></trkpt><trkpt lat="44.26364997391885" lon="11.599016376772614"><ele>285.0</ele><time>2026-04-18T08:51:49.001Z</time></trkpt><trkpt lat="44.26357841907194" lon="11.59898993957996"><ele>287.0</ele><time>2026-04-18T08:51:50.001Z</time></trkpt><trkpt lat="44.26346901834196" lon="11.59895331134925"><ele>289.0</ele><time>2026-04-18T08:51:52.001Z</time></trkpt><trkpt lat="44.26338597112219" lon="11.598902866467753"><ele>291.0</ele><time>2026-04-18T08:51:54.001Z</time></trkpt><trkpt lat="44.26332310406135" lon="11.59887877706147"><ele>293.0</ele><time>2026-04-18T08:51:56.001Z</time></trkpt><trkpt lat="44.26325230810847" lon="11.598824999726586"><ele>295.0</ele><time>2026-04-18T08:51:59.001Z</time></trkpt><trkpt lat="44.26319355965646" lon="11.598774775765708"><ele>295.0</ele><time>2026-04-18T08:52:02.001Z</time></trkpt><trkpt lat="44.263134237002205" lon="11.598711110213326"><ele>295.0</ele><time>2026-04-18T08:52:05.001Z</time></trkpt><trkpt lat="44.26306145159624" lon="11.598669122473744"><ele>295.0</ele><time>2026-04-18T08:52:08.001Z</time></trkpt><trkpt lat="44.2629788180773" lon="11.598635679893528"><ele>295.0</ele><time>2026-04-18T08:52:11.001Z</time></trkpt><trkpt lat="44.262909124198224" lon="11.598601692606605"><ele>295.0</ele><time>2026-04-18T08:52:14.001Z</time></trkpt><trkpt lat="44.262837920462516" lon="11.598556237010488"><ele>295.0</ele><time>2026-04-18T08:52:17.001Z</time></trkpt><trkpt lat="44.26277045380004" lon="11.598499576535714"><ele>296.42857142857144</ele><time>2026-04-18T08:52:20Z</time></trkpt><trkpt lat="44.26270425674599" lon="11.598447758436297"><ele>297.8571428571429</ele><time>2026-04-18T08:52:23Z</time></trkpt><trkpt lat="44.26264151309505" lon="11.598387997113727"><ele>299.28571428571433</ele><time>2026-04-18T08:52:26Z</time></trkpt><trkpt lat="44.262578114377156" lon="11.598331820595092"><ele>300.7142857142857</ele><time>2026-04-18T08:52:29Z</time></trkpt><trkpt lat="44.26251215011379" lon="11.598277468971611"><ele>302.1428571428571</ele><time>2026-04-18T08:52:32Z</time></trkpt><trkpt lat="44.262451651241406" lon="11.598224911801946"><ele>303.5714285714286</ele><time>2026-04-18T08:52:35Z</time></trkpt><trkpt lat="44.26238705644357" lon="11.59819516804983"><ele>305.0</ele><time>2026-04-18T08:52:38Z</time></trkpt><trkpt lat="44.26232466290599" lon="11.598170152433875"><ele>307.8571428571429</ele><time>2026-04-18T08:52:41Z</time></trkpt><trkpt lat="44.26226041017305" lon="11.59815284462909"><ele>310.71428571428567</ele><time>2026-04-18T08:52:44Z</time></trkpt><trkpt lat="44.26218179287355" lon="11.598135645925737"><ele>313.57142857142856</ele><time>2026-04-18T08:52:48Z</time></trkpt><trkpt lat="44.26210032781815" lon="11.598125916227941"><ele>316.42857142857144</ele><time>2026-04-18T08:52:52Z</time></trkpt><trkpt lat="44.26202639202538" lon="11.598113741008019"><ele>319.28571428571433</ele><time>2026-04-18T08:52:56Z</time></trkpt><trkpt lat="44.26195387206394" lon="11.598109620834673"><ele>322.1428571428571</ele><time>2026-04-18T08:53:00Z</time></trkpt><trkpt lat="44.26188261642775" lon="11.59810839840151"><ele>325.0</ele><time>2026-04-18T08:53:04Z</time></trkpt><trkpt lat="44.261809459288166" lon="11.598100057204674"><ele>325.0</ele><time>2026-04-18T08:53:08Z</time></trkpt><trkpt lat="44.261742513017204" lon="11.598089286522939"><ele>325.0</ele><time>2026-04-18T08:53:12.001Z</time></trkpt><trkpt lat="44.261666835741856" lon="11.598062827478058"><ele>325.0</ele><time>2026-04-18T08:53:16.001Z</time></trkpt><trkpt lat="44.26159490925984" lon="11.598032787141879"><ele>325.0</ele><time>2026-04-18T08:53:19.001Z</time></trkpt><trkpt lat="44.2615098974558" lon="11.598012220526138"><ele>325.0</ele><time>2026-04-18T08:53:23.001Z</time></trkpt><trkpt lat="44.261438215051676" lon="11.597987394675998"><ele>325.0</ele><time>2026-04-18T08:53:26.001Z</time></trkpt><trkpt lat="44.26135180172784" lon="11.597969112750105"><ele>327.0</ele><time>2026-04-18T08:53:29.001Z</time></trkpt><trkpt lat="44.26128826816737" lon="11.597961862607796"><ele>329.0</ele><time>2026-04-18T08:53:32.001Z</time></trkpt><trkpt lat="44.26121619834197" lon="11.597956104656939"><ele>331.0</ele><time>2026-04-18T08:53:35.001Z</time></trkpt><trkpt lat="44.261141819150815" lon="11.597951093011039"><ele>333.0</ele><time>2026-04-18T08:53:38.001Z</time></trkpt><trkpt lat="44.26107116273018" lon="11.59794968514153"><ele>335.0</ele><time>2026-04-18T08:53:41.001Z</time></trkpt><trkpt lat="44.260997758547084" lon="11.597957595217409"><ele>337.0</ele><time>2026-04-18T08:53:44.001Z</time></trkpt><trkpt lat="44.26092079823596" lon="11.597961038024103"><ele>339.0</ele><time>2026-04-18T08:53:47.001Z</time></trkpt><trkpt lat="44.26084453792973" lon="11.597969106727193"><ele>339.0</ele><time>2026-04-18T08:53:50.001Z</time></trkpt><trkpt lat="44.26076866677404" lon="11.597956594258163"><ele>339.0</ele><time>2026-04-18T08:53:53.001Z</time></trkpt><trkpt lat="44.260700167279175" lon="11.597898979166358"><ele>339.0</ele><time>2026-04-18T08:53:56.001Z</time></trkpt><trkpt lat="44.26064575203129" lon="11.597827179967371"><ele>339.0</ele><time>2026-04-18T08:53:59.001Z</time></trkpt><trkpt lat="44.2606020086875" lon="11.59775134311583"><ele>339.0</ele><time>2026-04-18T08:54:02.001Z</time></trkpt><trkpt lat="44.260557833216644" lon="11.597671489526505"><ele>339.0</ele><time>2026-04-18T08:54:05.001Z</time></trkpt><trkpt lat="44.260505162613825" lon="11.59759670047764"><ele>339.0</ele><time>2026-04-18T08:54:08.001Z</time></trkpt><trkpt lat="44.26044867655514" lon="11.597535737874686"><ele>341.7142857142857</ele><time>2026-04-18T08:54:12.001Z</time></trkpt><trkpt lat="44.26039279904848" lon="11.597480791952309"><ele>344.42857142857144</ele><time>2026-04-18T08:54:16.001Z</time></trkpt><trkpt lat="44.260320550385195" lon="11.597444945322717"><ele>347.14285714285717</ele><time>2026-04-18T08:54:20.001Z</time></trkpt><trkpt lat="44.26025962246822" lon="11.597390741565883"><ele>349.8571428571429</ele><time>2026-04-18T08:54:24.001Z</time></trkpt><trkpt lat="44.26019549116275" lon="11.597341297043018"><ele>352.57142857142856</ele><time>2026-04-18T08:54:28Z</time></trkpt><trkpt lat="44.26013728100151" lon="11.597267757568094"><ele>355.28571428571433</ele><time>2026-04-18T08:54:32Z</time></trkpt><trkpt lat="44.260079240452846" lon="11.597196426254893"><ele>358.0</ele><time>2026-04-18T08:54:36Z</time></trkpt><trkpt lat="44.260021421172375" lon="11.59713760092647"><ele>358.0</ele><time>2026-04-18T08:54:40Z</time></trkpt><trkpt lat="44.259956418154744" lon="11.59708823234563"><ele>358.0</ele><time>2026-04-18T08:54:44Z</time></trkpt><trkpt lat="44.259885267146394" lon="11.597061760398182"><ele>358.0</ele><time>2026-04-18T08:54:48Z</time></trkpt><trkpt lat="44.25981225927061" lon="11.597045571289364"><ele>358.0</ele><time>2026-04-18T08:54:52Z</time></trkpt><trkpt lat="44.259745094726306" lon="11.597021830647012"><ele>358.0</ele><time>2026-04-18T08:54:56Z</time></trkpt><trkpt lat="44.2596784647176" lon="11.596988851716514"><ele>358.0</ele><time>2026-04-18T08:55:00Z</time></trkpt><trkpt lat="44.259589735062605" lon="11.596969730175708"><ele>360.0</ele><time>2026-04-18T08:55:05Z</time></trkpt><trkpt lat="44.2595003282326" lon="11.596965833286466"><ele>362.0</ele><time>2026-04-18T08:55:10Z</time></trkpt><trkpt lat="44.25942717142099" lon="11.596966815940954"><ele>364.0</ele><time>2026-04-18T08:55:14Z</time></trkpt><trkpt lat="44.25934587423575" lon="11.596978523050996"><ele>366.0</ele><time>2026-04-18T08:55:18Z</time></trkpt><trkpt lat="44.25926656516998" lon="11.596979750609178"><ele>368.0</ele><time>2026-04-18T08:55:22Z</time></trkpt><trkpt lat="44.2591997786342" lon="11.59698370887223"><ele>370.0</ele><time>2026-04-18T08:55:25Z</time></trkpt><trkpt lat="44.259136657474414" lon="11.596989602981127"><ele>369.99999999999994</ele><time>2026-04-18T08:55:28Z</time></trkpt><trkpt lat="44.25906858059935" lon="11.596997067536346"><ele>370.0</ele><time>2026-04-18T08:55:31.001Z</time></trkpt><trkpt lat="44.25900201726505" lon="11.59699419582806"><ele>370.0</ele><time>2026-04-18T08:55:34.001Z</time></trkpt><trkpt lat="44.25893659429173" lon="11.596991871822915"><ele>370.0</ele><time>2026-04-18T08:55:37.001Z</time></trkpt><trkpt lat="44.258872679529034" lon="11.596984885595218"><ele>370.0</ele><time>2026-04-18T08:55:40.001Z</time></trkpt><trkpt lat="44.25880664373097" lon="11.596985174787855"><ele>369.99999999999994</ele><time>2026-04-18T08:55:43.001Z</time></trkpt><trkpt lat="44.25874093725746" lon="11.59697690249797"><ele>370.0</ele><time>2026-04-18T08:55:46.001Z</time></trkpt><trkpt lat="44.25867415069647" lon="11.596965978351994"><ele>372.66666666666663</ele><time>2026-04-18T08:55:49.001Z</time></trkpt><trkpt lat="44.25860740163817" lon="11.596957252944083"><ele>375.3333333333333</ele><time>2026-04-18T08:55:52.001Z</time></trkpt><trkpt lat="44.258536348272266" lon="11.596936526330916"><ele>378.0</ele><time>2026-04-18T08:55:55.001Z</time></trkpt><trkpt lat="44.25846306157188" lon="11.596914490709608"><ele>380.66666666666663</ele><time>2026-04-18T08:55:58.001Z</time></trkpt><trkpt lat="44.25838473049739" lon="11.596878521178784"><ele>383.3333333333333</ele><time>2026-04-18T08:56:01.001Z</time></trkpt><trkpt lat="44.25830740964468" lon="11.596840259544033"><ele>386.0</ele><time>2026-04-18T08:56:04.001Z</time></trkpt><trkpt lat="44.25821783860815" lon="11.596809646781368"><ele>386.00000000000006</ele><time>2026-04-18T08:56:07.001Z</time></trkpt><trkpt lat="44.25815249073947" lon="11.596790552088976"><ele>386.0</ele><time>2026-04-18T08:56:09.001Z</time></trkpt><trkpt lat="44.25809000551113" lon="11.596777915132101"><ele>386.0</ele><time>2026-04-18T08:56:11.001Z</time></trkpt><trkpt lat="44.25802537578673" lon="11.596771551687032"><ele>386.0</ele><time>2026-04-18T08:56:13.001Z</time></trkpt><trkpt lat="44.25793272494714" lon="11.596753862910548"><ele>386.0</ele><time>2026-04-18T08:56:16.001Z</time></trkpt><trkpt lat="44.257870033165034" lon="11.596744496388338"><ele>386.00000000000006</ele><time>2026-04-18T08:56:18.001Z</time></trkpt><trkpt lat="44.257780904563376" lon="11.596711373072258"><ele>386.0</ele><time>2026-04-18T08:56:21.001Z</time></trkpt><trkpt lat="44.25769349309528" lon="11.59667736302987"><ele>387.3333333333333</ele><time>2026-04-18T08:56:24.001Z</time></trkpt><trkpt lat="44.2576086470094" lon="11.596632879997912"><ele>388.66666666666663</ele><time>2026-04-18T08:56:27.001Z</time></trkpt><trkpt lat="44.257534009631705" lon="11.596576455715399"><ele>390.0</ele><time>2026-04-18T08:56:30.001Z</time></trkpt><trkpt lat="44.257469438647405" lon="11.596517933196813"><ele>391.33333333333337</ele><time>2026-04-18T08:56:33Z</time></trkpt><trkpt lat="44.25740613274124" lon="11.596457508569387"><ele>392.6666666666667</ele><time>2026-04-18T08:56:36Z</time></trkpt><trkpt lat="44.25734512326991" lon="11.596397319057383"><ele>394.0</ele><time>2026-04-18T08:56:39Z</time></trkpt><trkpt lat="44.25728513039151" lon="11.596341097515207"><ele>394.00000000000006</ele><time>2026-04-18T08:56:42Z</time></trkpt><trkpt lat="44.25722223886315" lon="11.596289615942474"><ele>394.0</ele><time>2026-04-18T08:56:45Z</time></trkpt><trkpt lat="44.25716062537132" lon="11.596230118768952"><ele>394.0</ele><time>2026-04-18T08:56:48Z</time></trkpt><trkpt lat="44.25709794415572" lon="11.596166154273826"><ele>394.0</ele><time>2026-04-18T08:56:51Z</time></trkpt><trkpt lat="44.257029940673455" lon="11.596094864217081"><ele>394.00000000000006</ele><time>2026-04-18T08:56:54Z</time></trkpt><trkpt lat="44.25695750473117" lon="11.596033783858456"><ele>394.0</ele><time>2026-04-18T08:56:57Z</time></trkpt><trkpt lat="44.25687144199023" lon="11.595980049503812"><ele>395.50000000000006</ele><time>2026-04-18T08:57:00Z</time></trkpt><trkpt lat="44.256804196548785" lon="11.595927474881385"><ele>397.0</ele><time>2026-04-18T08:57:02Z</time></trkpt><trkpt lat="44.25672952356914" lon="11.595876130363727"><ele>398.5</ele><time>2026-04-18T08:57:04Z</time></trkpt><trkpt lat="44.256658698515885" lon="11.595818829965534"><ele>400.0</ele><time>2026-04-18T08:57:06Z</time></trkpt><trkpt lat="44.25659918492733" lon="11.595743725198446"><ele>401.50000000000006</ele><time>2026-04-18T08:57:08Z</time></trkpt><trkpt lat="44.25654484854042" lon="11.59565765259438"><ele>403.0</ele><time>2026-04-18T08:57:10Z</time></trkpt><trkpt lat="44.256490449791656" lon="11.595565850330955"><ele>403.6666666666667</ele><time>2026-04-18T08:57:12Z</time></trkpt><trkpt lat="44.256445027292536" lon="11.595472955442906"><ele>404.33333333333337</ele><time>2026-04-18T08:57:14Z</time></trkpt><trkpt lat="44.25640306873103" lon="11.59539040744574"><ele>405.0</ele><time>2026-04-18T08:57:16Z</time></trkpt><trkpt lat="44.2563603210896" lon="11.595317076410076"><ele>405.66666666666663</ele><time>2026-04-18T08:57:18Z</time></trkpt><trkpt lat="44.25630676089601" lon="11.595226205254999"><ele>406.3333333333333</ele><time>2026-04-18T08:57:21Z</time></trkpt><trkpt lat="44.25626076874697" lon="11.595141584767573"><ele>407.0</ele><time>2026-04-18T08:57:24Z</time></trkpt><trkpt lat="44.25623484550159" lon="11.595033221714118"><ele>408.49999999999994</ele><time>2026-04-18T08:57:27Z</time></trkpt><trkpt lat="44.25626413042911" lon="11.594930995739725"><ele>410.0</ele><time>2026-04-18T08:57:30Z</time></trkpt><trkpt lat="44.256276616783" lon="11.594824098230408"><ele>411.5</ele><time>2026-04-18T08:57:34Z</time></trkpt><trkpt lat="44.25626417897984" lon="11.594715239523037"><ele>413.0</ele><time>2026-04-18T08:57:38Z</time></trkpt><trkpt lat="44.256231150776934" lon="11.594621540012781"><ele>414.49999999999994</ele><time>2026-04-18T08:57:42Z</time></trkpt><trkpt lat="44.256170249907676" lon="11.594556484113442"><ele>416.0</ele><time>2026-04-18T08:57:46.001Z</time></trkpt><trkpt lat="44.2561084595788" lon="11.594518414540135"><ele>416.0</ele><time>2026-04-18T08:57:50.001Z</time></trkpt><trkpt lat="44.25604081059326" lon="11.594454954811386"><ele>416.0</ele><time>2026-04-18T08:57:54.001Z</time></trkpt><trkpt lat="44.255983427710355" lon="11.594367115827524"><ele>416.0</ele><time>2026-04-18T08:57:57.001Z</time></trkpt><trkpt lat="44.255935943090755" lon="11.594250928310991"><ele>416.0</ele><time>2026-04-18T08:58:00.001Z</time></trkpt><trkpt lat="44.25583980007675" lon="11.59415651483039"><ele>416.0</ele><time>2026-04-18T08:58:02.001Z</time></trkpt><trkpt lat="44.25576920258181" lon="11.594102097559414"><ele>416.0</ele><time>2026-04-18T08:58:03.001Z</time></trkpt><trkpt lat="44.25570243082404" lon="11.594045087319051"><ele>416.0</ele><time>2026-04-18T08:58:04.001Z</time></trkpt><trkpt lat="44.25563925701211" lon="11.59399422152018"><ele>416.0</ele><time>2026-04-18T08:58:05.001Z</time></trkpt><trkpt lat="44.255577427415545" lon="11.593946306028993"><ele>416.0</ele><time>2026-04-18T08:58:06.001Z</time></trkpt><trkpt lat="44.255513376131326" lon="11.59390108229165"><ele>416.0</ele><time>2026-04-18T08:58:07.001Z</time></trkpt><trkpt lat="44.255447466555204" lon="11.593850798854252"><ele>416.0</ele><time>2026-04-18T08:58:08.001Z</time></trkpt><trkpt lat="44.255384355996725" lon="11.593807586002628"><ele>416.0</ele><time>2026-04-18T08:58:09.001Z</time></trkpt><trkpt lat="44.25531600722593" lon="11.593772354016997"><ele>415.16666666666663</ele><time>2026-04-18T08:58:10.001Z</time></trkpt><trkpt lat="44.25520781681492" lon="11.593700715788243"><ele>414.3333333333333</ele><time>2026-04-18T08:58:12.001Z</time></trkpt><trkpt lat="44.255148618724974" lon="11.593661034293214"><ele>413.5</ele><time>2026-04-18T08:58:13.001Z</time></trkpt><trkpt lat="44.25504553834321" lon="11.593586220422239"><ele>412.66666666666663</ele><time>2026-04-18T08:58:15.001Z</time></trkpt><trkpt lat="44.2549886444161" lon="11.59354508937628"><ele>411.8333333333333</ele><time>2026-04-18T08:58:16.001Z</time></trkpt><trkpt lat="44.25492517065671" lon="11.59349401348997"><ele>411.0</ele><time>2026-04-18T08:58:17.001Z</time></trkpt><trkpt lat="44.25485868175544" lon="11.593449165772418"><ele>411.0</ele><time>2026-04-18T08:58:18.001Z</time></trkpt><trkpt lat="44.25479241067219" lon="11.593415187317683"><ele>411.0</ele><time>2026-04-18T08:58:19.001Z</time></trkpt><trkpt lat="44.25471648628174" lon="11.593362061180414"><ele>411.0</ele><time>2026-04-18T08:58:20.001Z</time></trkpt><trkpt lat="44.254637915381096" lon="11.593298679043347"><ele>411.0</ele><time>2026-04-18T08:58:21.001Z</time></trkpt><trkpt lat="44.25455767426013" lon="11.593229893175847"><ele>411.0</ele><time>2026-04-18T08:58:22.001Z</time></trkpt><trkpt lat="44.25447985273777" lon="11.593143689651088"><ele>411.0</ele><time>2026-04-18T08:58:23.001Z</time></trkpt><trkpt lat="44.254424927517896" lon="11.593040295246947"><ele>410.1666666666667</ele><time>2026-04-18T08:58:24.001Z</time></trkpt><trkpt lat="44.25439309084916" lon="11.592949515867364"><ele>409.33333333333337</ele><time>2026-04-18T08:58:25.001Z</time></trkpt><trkpt lat="44.25436641112536" lon="11.592801667883188"><ele>408.5</ele><time>2026-04-18T08:58:26.001Z</time></trkpt><trkpt lat="44.254350376571104" lon="11.59268527125828"><ele>407.6666666666667</ele><time>2026-04-18T08:58:27.001Z</time></trkpt><trkpt lat="44.254335030778876" lon="11.592592116269001"><ele>406.83333333333337</ele><time>2026-04-18T08:58:28.001Z</time></trkpt><trkpt lat="44.25428138875528" lon="11.592460485523224"><ele>406.0</ele><time>2026-04-18T08:58:30.001Z</time></trkpt><trkpt lat="44.25421127872911" lon="11.592379626569054"><ele>406.0</ele><time>2026-04-18T08:58:32.001Z</time></trkpt><trkpt lat="44.25413534090403" lon="11.592320968470542"><ele>406.0</ele><time>2026-04-18T08:58:34.001Z</time></trkpt><trkpt lat="44.2540335955329" lon="11.592218828560972"><ele>406.0</ele><time>2026-04-18T08:58:36.001Z</time></trkpt><trkpt lat="44.25396305261244" lon="11.592155843832236"><ele>406.0</ele><time>2026-04-18T08:58:37.001Z</time></trkpt><trkpt lat="44.25388405337567" lon="11.592098452347585"><ele>406.0</ele><time>2026-04-18T08:58:37.999Z</time></trkpt><trkpt lat="44.25378761033882" lon="11.592073752580626"><ele>408.1666666666667</ele><time>2026-04-18T08:58:38.999Z</time></trkpt><trkpt lat="44.25370634064311" lon="11.59209339736301"><ele>410.33333333333337</ele><time>2026-04-18T08:58:39.999Z</time></trkpt><trkpt lat="44.25363783442557" lon="11.592136349764909"><ele>412.5</ele><time>2026-04-18T08:58:40.999Z</time></trkpt><trkpt lat="44.2535815736675" lon="11.592179911870153"><ele>414.66666666666663</ele><time>2026-04-18T08:58:41.999Z</time></trkpt><trkpt lat="44.25346637686352" lon="11.59220065212957"><ele>416.8333333333333</ele><time>2026-04-18T08:58:43.999Z</time></trkpt><trkpt lat="44.253361766751446" lon="11.592230951314397"><ele>419.0</ele><time>2026-04-18T08:58:45.999Z</time></trkpt><trkpt lat="44.2532608103257" lon="11.592248467669313"><ele>418.99999999999994</ele><time>2026-04-18T08:58:47.999Z</time></trkpt><trkpt lat="44.25319187868668" lon="11.59224704985482"><ele>419.0</ele><time>2026-04-18T08:58:49.999Z</time></trkpt><trkpt lat="44.253109999691034" lon="11.592261727636808"><ele>419.0</ele><time>2026-04-18T08:58:53Z</time></trkpt><trkpt lat="44.25303958353973" lon="11.59226986281223"><ele>419.0</ele><time>2026-04-18T08:58:56Z</time></trkpt><trkpt lat="44.25296062233705" lon="11.592280708122045"><ele>418.99999999999994</ele><time>2026-04-18T08:58:59Z</time></trkpt><trkpt lat="44.25288099542637" lon="11.592281997030923"><ele>419.0</ele><time>2026-04-18T08:59:02Z</time></trkpt><trkpt lat="44.25279925549569" lon="11.592269164388638"><ele>419.4285714285714</ele><time>2026-04-18T08:59:05Z</time></trkpt><trkpt lat="44.25272252272604" lon="11.592257863344967"><ele>419.85714285714283</ele><time>2026-04-18T08:59:08Z</time></trkpt><trkpt lat="44.25265416293414" lon="11.592218474935084"><ele>420.2857142857143</ele><time>2026-04-18T08:59:11Z</time></trkpt><trkpt lat="44.252583887738126" lon="11.592167232468952"><ele>420.71428571428567</ele><time>2026-04-18T08:59:14Z</time></trkpt><trkpt lat="44.25251875889351" lon="11.592111103096617"><ele>421.14285714285717</ele><time>2026-04-18T08:59:17Z</time></trkpt><trkpt lat="44.25246370441347" lon="11.592050462831262"><ele>421.57142857142856</ele><time>2026-04-18T08:59:20Z</time></trkpt><trkpt lat="44.25241153015807" lon="11.591986311356271"><ele>422.0</ele><time>2026-04-18T08:59:23Z</time></trkpt><trkpt lat="44.252358380187054" lon="11.591918718629334"><ele>420.42857142857144</ele><time>2026-04-18T08:59:26Z</time></trkpt><trkpt lat="44.2523120860512" lon="11.591857494611027"><ele>418.8571428571429</ele><time>2026-04-18T08:59:29Z</time></trkpt><trkpt lat="44.25225941532767" lon="11.59179238699279"><ele>417.2857142857143</ele><time>2026-04-18T08:59:32Z</time></trkpt><trkpt lat="44.25221092667002" lon="11.591722383128172"><ele>415.7142857142857</ele><time>2026-04-18T08:59:35Z</time></trkpt><trkpt lat="44.25216130597669" lon="11.591642517130198"><ele>414.1428571428571</ele><time>2026-04-18T08:59:38Z</time></trkpt><trkpt lat="44.25211849701861" lon="11.59155554562866"><ele>412.57142857142856</ele><time>2026-04-18T08:59:41Z</time></trkpt><trkpt lat="44.252061815265506" lon="11.5914729661581"><ele>411.0</ele><time>2026-04-18T08:59:44Z</time></trkpt><trkpt lat="44.25200693732019" lon="11.591411949978264"><ele>414.8333333333333</ele><time>2026-04-18T08:59:47Z</time></trkpt><trkpt lat="44.25194539399605" lon="11.59136006712781"><ele>418.66666666666663</ele><time>2026-04-18T08:59:50Z</time></trkpt><trkpt lat="44.25186933566576" lon="11.591313912349321"><ele>422.5</ele><time>2026-04-18T08:59:54.001Z</time></trkpt><trkpt lat="44.251800405323245" lon="11.591280210333801"><ele>426.3333333333333</ele><time>2026-04-18T08:59:57.001Z</time></trkpt><trkpt lat="44.25173188646056" lon="11.591254200537566"><ele>430.16666666666663</ele><time>2026-04-18T09:00:00.001Z</time></trkpt><trkpt lat="44.25165398748117" lon="11.591226109416644"><ele>434.0</ele><time>2026-04-18T09:00:03.001Z</time></trkpt><trkpt lat="44.25158501678921" lon="11.59120504956942"><ele>434.0</ele><time>2026-04-18T09:00:06.001Z</time></trkpt><trkpt lat="44.25151109782698" lon="11.591186372274812"><ele>434.0</ele><time>2026-04-18T09:00:09.001Z</time></trkpt><trkpt lat="44.25144384478279" lon="11.591174149525314"><ele>434.0</ele><time>2026-04-18T09:00:12.001Z</time></trkpt><trkpt lat="44.25137915879928" lon="11.591163472367331"><ele>434.0</ele><time>2026-04-18T09:00:15.001Z</time></trkpt><trkpt lat="44.25131069383218" lon="11.591157553524969"><ele>434.0</ele><time>2026-04-18T09:00:18.001Z</time></trkpt><trkpt lat="44.2512325411021" lon="11.591141624768444"><ele>434.0</ele><time>2026-04-18T09:00:21.001Z</time></trkpt><trkpt lat="44.25116950549163" lon="11.59113835019504"><ele>434.0</ele><time>2026-04-18T09:00:24.001Z</time></trkpt><trkpt lat="44.25110129227297" lon="11.591131133493384"><ele>433.42857142857144</ele><time>2026-04-18T09:00:27.001Z</time></trkpt><trkpt lat="44.25103557041205" lon="11.591115455635556"><ele>432.8571428571429</ele><time>2026-04-18T09:00:30.001Z</time></trkpt><trkpt lat="44.25096339610219" lon="11.591107783396923"><ele>432.2857142857143</ele><time>2026-04-18T09:00:33.001Z</time></trkpt><trkpt lat="44.25089644512427" lon="11.59107440826995"><ele>431.7142857142857</ele><time>2026-04-18T09:00:36.001Z</time></trkpt><trkpt lat="44.250824972236686" lon="11.591031813029932"><ele>431.14285714285717</ele><time>2026-04-18T09:00:39.001Z</time></trkpt><trkpt lat="44.25076208704575" lon="11.590993932120764"><ele>430.57142857142856</ele><time>2026-04-18T09:00:42.001Z</time></trkpt><trkpt lat="44.25068710764611" lon="11.590977683294748"><ele>430.0</ele><time>2026-04-18T09:00:45Z</time></trkpt><trkpt lat="44.25061264806747" lon="11.590967116381579"><ele>430.0</ele><time>2026-04-18T09:00:48Z</time></trkpt><trkpt lat="44.250549512231665" lon="11.590917796470086"><ele>430.0</ele><time>2026-04-18T09:00:51Z</time></trkpt><trkpt lat="44.25048665795825" lon="11.590848596959418"><ele>430.0</ele><time>2026-04-18T09:00:54Z</time></trkpt><trkpt lat="44.250433112874745" lon="11.590772615513961"><ele>430.0</ele><time>2026-04-18T09:00:57Z</time></trkpt><trkpt lat="44.25038693562151" lon="11.590700066997098"><ele>430.0</ele><time>2026-04-18T09:01:00Z</time></trkpt><trkpt lat="44.25035020772391" lon="11.590620803427155"><ele>430.0</ele><time>2026-04-18T09:01:03Z</time></trkpt><trkpt lat="44.250322162620144" lon="11.590539872480116"><ele>430.0</ele><time>2026-04-18T09:01:06Z</time></trkpt><trkpt lat="44.25030044729743" lon="11.590449492226645"><ele>430.0</ele><time>2026-04-18T09:01:09Z</time></trkpt><trkpt lat="44.25030312138252" lon="11.590359670933928"><ele>430.0</ele><time>2026-04-18T09:01:12Z</time></trkpt><trkpt lat="44.250297616843035" lon="11.590271747499573"><ele>430.0</ele><time>2026-04-18T09:01:15Z</time></trkpt><trkpt lat="44.25029102039254" lon="11.590176240727779"><ele>430.0</ele><time>2026-04-18T09:01:18Z</time></trkpt><trkpt lat="44.25029025075187" lon="11.59008086694202"><ele>430.0</ele><time>2026-04-18T09:01:21Z</time></trkpt><trkpt lat="44.25027879329114" lon="11.589976577644974"><ele>430.0</ele><time>2026-04-18T09:01:24Z</time></trkpt><trkpt lat="44.25028417790843" lon="11.589856382827186"><ele>430.0</ele><time>2026-04-18T09:01:27Z</time></trkpt><trkpt lat="44.250265027995795" lon="11.58972888722689"><ele>431.6666666666667</ele><time>2026-04-18T09:01:30Z</time></trkpt><trkpt lat="44.250244639172514" lon="11.589636015676152"><ele>433.33333333333337</ele><time>2026-04-18T09:01:32Z</time></trkpt><trkpt lat="44.25022042584992" lon="11.589553137089483"><ele>435.0</ele><time>2026-04-18T09:01:34Z</time></trkpt><trkpt lat="44.25018887903914" lon="11.589429578428106"><ele>436.66666666666663</ele><time>2026-04-18T09:01:37.001Z</time></trkpt><trkpt lat="44.25015717803305" lon="11.589310813547494"><ele>438.3333333333333</ele><time>2026-04-18T09:01:40.001Z</time></trkpt><trkpt lat="44.250117735424084" lon="11.589198886667122"><ele>440.0</ele><time>2026-04-18T09:01:43.001Z</time></trkpt><trkpt lat="44.25007528333941" lon="11.589071214626033"><ele>442.66666666666663</ele><time>2026-04-18T09:01:47.001Z</time></trkpt><trkpt lat="44.250036844367074" lon="11.58896569942067"><ele>445.3333333333333</ele><time>2026-04-18T09:01:51.001Z</time></trkpt><trkpt lat="44.25001048016308" lon="11.588876226198503"><ele>448.0</ele><time>2026-04-18T09:01:54.001Z</time></trkpt><trkpt lat="44.24998098959028" lon="11.588793442674708"><ele>450.66666666666663</ele><time>2026-04-18T09:01:57.001Z</time></trkpt><trkpt lat="44.24993043237979" lon="11.588680262130156"><ele>453.3333333333333</ele><time>2026-04-18T09:02:00.001Z</time></trkpt><trkpt lat="44.249878920268515" lon="11.58860081349718"><ele>456.0</ele><time>2026-04-18T09:02:03.001Z</time></trkpt><trkpt lat="44.24981680965196" lon="11.588530058465262"><ele>457.5</ele><time>2026-04-18T09:02:06.001Z</time></trkpt><trkpt lat="44.249759330240956" lon="11.588466944179174"><ele>459.0</ele><time>2026-04-18T09:02:09.001Z</time></trkpt><trkpt lat="44.24968980228449" lon="11.588411905957708"><ele>460.5</ele><time>2026-04-18T09:02:12.001Z</time></trkpt><trkpt lat="44.24960991208724" lon="11.588366344648554"><ele>462.0</ele><time>2026-04-18T09:02:15.001Z</time></trkpt><trkpt lat="44.24953575144782" lon="11.58831004525829"><ele>463.5</ele><time>2026-04-18T09:02:18.001Z</time></trkpt><trkpt lat="44.249471308809625" lon="11.588231889319355"><ele>465.0</ele><time>2026-04-18T09:02:21.001Z</time></trkpt><trkpt lat="44.249427366694874" lon="11.588164476733393"><ele>465.0</ele><time>2026-04-18T09:02:23.001Z</time></trkpt><trkpt lat="44.249373446319694" lon="11.588070820445198"><ele>465.0</ele><time>2026-04-18T09:02:26.001Z</time></trkpt><trkpt lat="44.24930918215224" lon="11.587972949216782"><ele>465.0</ele><time>2026-04-18T09:02:29.001Z</time></trkpt><trkpt lat="44.24924518621458" lon="11.587899834795609"><ele>465.0</ele><time>2026-04-18T09:02:32.001Z</time></trkpt><trkpt lat="44.24919881683287" lon="11.587833318584538"><ele>465.0</ele><time>2026-04-18T09:02:34.001Z</time></trkpt><trkpt lat="44.24912180119453" lon="11.587765616832819"><ele>465.0</ele><time>2026-04-18T09:02:37.001Z</time></trkpt><trkpt lat="44.24904870726128" lon="11.587692917180485"><ele>466.8333333333333</ele><time>2026-04-18T09:02:40.001Z</time></trkpt><trkpt lat="44.248977196083544" lon="11.58761833959353"><ele>468.66666666666663</ele><time>2026-04-18T09:02:43.001Z</time></trkpt><trkpt lat="44.24892544886308" lon="11.58756633926161"><ele>470.5</ele><time>2026-04-18T09:02:45.001Z</time></trkpt><trkpt lat="44.24884011880874" lon="11.587522634236702"><ele>472.3333333333333</ele><time>2026-04-18T09:02:48.001Z</time></trkpt><trkpt lat="44.24875511556899" lon="11.587502732497645"><ele>474.16666666666663</ele><time>2026-04-18T09:02:50Z</time></trkpt><trkpt lat="44.248668352049776" lon="11.587472368671328"><ele>476.0</ele><time>2026-04-18T09:02:52Z</time></trkpt><trkpt lat="44.24858710632912" lon="11.587459285276244"><ele>476.1428571428571</ele><time>2026-04-18T09:02:54Z</time></trkpt><trkpt lat="44.2485066021644" lon="11.587448089317588"><ele>476.2857142857143</ele><time>2026-04-18T09:02:56Z</time></trkpt><trkpt lat="44.24843931590221" lon="11.58743700475863"><ele>476.42857142857144</ele><time>2026-04-18T09:02:58Z</time></trkpt><trkpt lat="44.24834919518317" lon="11.587412674633732"><ele>476.57142857142856</ele><time>2026-04-18T09:03:01Z</time></trkpt><trkpt lat="44.24828685829305" lon="11.587381668104852"><ele>476.71428571428567</ele><time>2026-04-18T09:03:03Z</time></trkpt><trkpt lat="44.24822734479524" lon="11.587339825984113"><ele>476.85714285714283</ele><time>2026-04-18T09:03:05Z</time></trkpt><trkpt lat="44.248163869090526" lon="11.587296800128183"><ele>477.0</ele><time>2026-04-18T09:03:07Z</time></trkpt><trkpt lat="44.24807195443203" lon="11.587251297968407"><ele>476.0</ele><time>2026-04-18T09:03:10Z</time></trkpt><trkpt lat="44.24799283686548" lon="11.58722635367322"><ele>475.00000000000006</ele><time>2026-04-18T09:03:12Z</time></trkpt><trkpt lat="44.24788224400685" lon="11.587220090770453"><ele>474.00000000000006</ele><time>2026-04-18T09:03:14Z</time></trkpt><trkpt lat="44.24776982801515" lon="11.587223212935802"><ele>473.0</ele><time>2026-04-18T09:03:16Z</time></trkpt><trkpt lat="44.24771092640216" lon="11.587303334118852"><ele>472.0</ele><time>2026-04-18T09:03:17Z</time></trkpt><trkpt lat="44.24758886808576" lon="11.587289266459532"><ele>472.0</ele><time>2026-04-18T09:03:19Z</time></trkpt><trkpt lat="44.24746652290203" lon="11.587247208287156"><ele>472.00000000000006</ele><time>2026-04-18T09:03:21Z</time></trkpt><trkpt lat="44.247404488713315" lon="11.587212417817236"><ele>472.00000000000006</ele><time>2026-04-18T09:03:22Z</time></trkpt><trkpt lat="44.24729163674435" lon="11.587150718227782"><ele>472.0</ele><time>2026-04-18T09:03:24Z</time></trkpt><trkpt lat="44.24717992448844" lon="11.587097993403145"><ele>472.0</ele><time>2026-04-18T09:03:26Z</time></trkpt><trkpt lat="44.247077468883596" lon="11.587056169378375"><ele>473.20000000000005</ele><time>2026-04-18T09:03:28Z</time></trkpt><trkpt lat="44.24697648422025" lon="11.587010283347881"><ele>474.40000000000003</ele><time>2026-04-18T09:03:30Z</time></trkpt><trkpt lat="44.246888105857565" lon="11.58696229281858"><ele>475.59999999999997</ele><time>2026-04-18T09:03:32Z</time></trkpt><trkpt lat="44.24678920741954" lon="11.586949526490459"><ele>476.79999999999995</ele><time>2026-04-18T09:03:34Z</time></trkpt><trkpt lat="44.24667980809685" lon="11.586977298345364"><ele>478.0</ele><time>2026-04-18T09:03:36Z</time></trkpt><trkpt lat="44.24657737563445" lon="11.586934893629168"><ele>478.00000000000006</ele><time>2026-04-18T09:03:38Z</time></trkpt><trkpt lat="44.246512801330155" lon="11.586911324617583"><ele>478.0</ele><time>2026-04-18T09:03:39Z</time></trkpt><trkpt lat="44.24644660127589" lon="11.586882843702961"><ele>478.00000000000006</ele><time>2026-04-18T09:03:40Z</time></trkpt><trkpt lat="44.246379507468916" lon="11.586860188602456"><ele>478.00000000000006</ele><time>2026-04-18T09:03:41Z</time></trkpt><trkpt lat="44.24631027293295" lon="11.586845787751752"><ele>478.0</ele><time>2026-04-18T09:03:42.001Z</time></trkpt><trkpt lat="44.24624065676025" lon="11.586830224156603"><ele>478.00000000000006</ele><time>2026-04-18T09:03:43.001Z</time></trkpt><trkpt lat="44.24617574296074" lon="11.586808063244721"><ele>478.00000000000006</ele><time>2026-04-18T09:03:44.001Z</time></trkpt><trkpt lat="44.246060619661634" lon="11.586819017600607"><ele>479.50000000000006</ele><time>2026-04-18T09:03:46.001Z</time></trkpt><trkpt lat="44.24599702876394" lon="11.586808291094343"><ele>481.0</ele><time>2026-04-18T09:03:47.001Z</time></trkpt><trkpt lat="44.24589238341712" lon="11.586838162549308"><ele>482.5</ele><time>2026-04-18T09:03:49.001Z</time></trkpt><trkpt lat="44.245804400292535" lon="11.586872419704129"><ele>484.0</ele><time>2026-04-18T09:03:51.001Z</time></trkpt><trkpt lat="44.24573979970916" lon="11.586920893520068"><ele>485.50000000000006</ele><time>2026-04-18T09:03:53.001Z</time></trkpt><trkpt lat="44.24565281113587" lon="11.586951165012366"><ele>487.0</ele><time>2026-04-18T09:03:56.001Z</time></trkpt><trkpt lat="44.24558310943666" lon="11.586906779577802"><ele>487.0</ele><time>2026-04-18T09:03:59.001Z</time></trkpt><trkpt lat="44.24551157404754" lon="11.586878840703358"><ele>487.00000000000006</ele><time>2026-04-18T09:04:01.001Z</time></trkpt><trkpt lat="44.24542171700467" lon="11.586836882182725"><ele>487.00000000000006</ele><time>2026-04-18T09:04:03.001Z</time></trkpt><trkpt lat="44.245327260533784" lon="11.586766249045107"><ele>487.0</ele><time>2026-04-18T09:04:05.001Z</time></trkpt><trkpt lat="44.24524508860825" lon="11.586661267890976"><ele>487.0</ele><time>2026-04-18T09:04:07.001Z</time></trkpt><trkpt lat="44.2451420007848" lon="11.586594328229745"><ele>487.0</ele><time>2026-04-18T09:04:09.001Z</time></trkpt><trkpt lat="44.245035400354745" lon="11.586544100579639"><ele>487.00000000000006</ele><time>2026-04-18T09:04:11.001Z</time></trkpt><trkpt lat="44.244930529808684" lon="11.586524487448242"><ele>487.00000000000006</ele><time>2026-04-18T09:04:13.001Z</time></trkpt><trkpt lat="44.24483823637598" lon="11.586528364313056"><ele>487.0</ele><time>2026-04-18T09:04:15.001Z</time></trkpt><trkpt lat="44.24475783208005" lon="11.586549200079904"><ele>487.0</ele><time>2026-04-18T09:04:17.001Z</time></trkpt><trkpt lat="44.24468884626938" lon="11.586557340081795"><ele>487.00000000000006</ele><time>2026-04-18T09:04:19.001Z</time></trkpt><trkpt lat="44.24460026743165" lon="11.586555002230513"><ele>487.0</ele><time>2026-04-18T09:04:22.001Z</time></trkpt><trkpt lat="44.24454444783926" lon="11.58651329952781"><ele>487.0</ele><time>2026-04-18T09:04:24.001Z</time></trkpt><trkpt lat="44.244469397336225" lon="11.58642390895373"><ele>487.0</ele><time>2026-04-18T09:04:27.001Z</time></trkpt><trkpt lat="44.24439276846385" lon="11.586344416277973"><ele>487.00000000000006</ele><time>2026-04-18T09:04:30.001Z</time></trkpt><trkpt lat="44.24434946880087" lon="11.586273561820812"><ele>487.0</ele><time>2026-04-18T09:04:32.001Z</time></trkpt><trkpt lat="44.24428635164497" lon="11.58621847278315"><ele>490.6666666666667</ele><time>2026-04-18T09:04:34.001Z</time></trkpt><trkpt lat="44.24419528849137" lon="11.586148142330293"><ele>494.33333333333337</ele><time>2026-04-18T09:04:36.001Z</time></trkpt><trkpt lat="44.244138766250195" lon="11.586108859777887"><ele>498.0</ele><time>2026-04-18T09:04:37.001Z</time></trkpt><trkpt lat="44.24407526068424" lon="11.586069939082508"><ele>501.66666666666663</ele><time>2026-04-18T09:04:38.001Z</time></trkpt><trkpt lat="44.24401351756532" lon="11.586034860482853"><ele>505.3333333333333</ele><time>2026-04-18T09:04:39.001Z</time></trkpt><trkpt lat="44.24392496117097" lon="11.585981767578609"><ele>509.0</ele><time>2026-04-18T09:04:40.001Z</time></trkpt><trkpt lat="44.243836894231315" lon="11.585956356356522"><ele>509.3333333333333</ele><time>2026-04-18T09:04:41.001Z</time></trkpt><trkpt lat="44.2437569270224" lon="11.58594883467956"><ele>509.66666666666663</ele><time>2026-04-18T09:04:42.001Z</time></trkpt><trkpt lat="44.243660948965484" lon="11.58595808962501"><ele>510.0</ele><time>2026-04-18T09:04:43.001Z</time></trkpt><trkpt lat="44.24359146846776" lon="11.585969427130816"><ele>510.33333333333337</ele><time>2026-04-18T09:04:44.001Z</time></trkpt><trkpt lat="44.24352647070481" lon="11.585981061567132"><ele>510.6666666666667</ele><time>2026-04-18T09:04:45.001Z</time></trkpt><trkpt lat="44.24346031990111" lon="11.585992902402008"><ele>511.0</ele><time>2026-04-18T09:04:46.001Z</time></trkpt><trkpt lat="44.2433401228748" lon="11.586008185460342"><ele>511.00000000000006</ele><time>2026-04-18T09:04:48.001Z</time></trkpt><trkpt lat="44.2432272673304" lon="11.586018568107953"><ele>511.0</ele><time>2026-04-18T09:04:50.001Z</time></trkpt><trkpt lat="44.24313234898734" lon="11.586022704010297"><ele>511.0</ele><time>2026-04-18T09:04:52.001Z</time></trkpt><trkpt lat="44.24306296531932" lon="11.586018118110838"><ele>511.0</ele><time>2026-04-18T09:04:54.001Z</time></trkpt><trkpt lat="44.24299507911022" lon="11.586009793685792"><ele>511.00000000000006</ele><time>2026-04-18T09:04:56Z</time></trkpt><trkpt lat="44.24291146982717" lon="11.585995404444818"><ele>511.0</ele><time>2026-04-18T09:04:58Z</time></trkpt><trkpt lat="44.242814178117946" lon="11.58597392798286"><ele>510.33333333333337</ele><time>2026-04-18T09:05:00Z</time></trkpt><trkpt lat="44.24272308091817" lon="11.585947379473884"><ele>509.6666666666667</ele><time>2026-04-18T09:05:02Z</time></trkpt><trkpt lat="44.242641075875866" lon="11.585915288245939"><ele>509.0</ele><time>2026-04-18T09:05:04Z</time></trkpt><trkpt lat="44.2425577066688" lon="11.585874735785117"><ele>508.33333333333337</ele><time>2026-04-18T09:05:06Z</time></trkpt><trkpt lat="44.242475149268714" lon="11.585822114555238"><ele>507.6666666666667</ele><time>2026-04-18T09:05:08Z</time></trkpt><trkpt lat="44.24240157204898" lon="11.585762939683203"><ele>507.0</ele><time>2026-04-18T09:05:10Z</time></trkpt><trkpt lat="44.242328440408215" lon="11.58572088744755"><ele>507.0</ele><time>2026-04-18T09:05:12Z</time></trkpt><trkpt lat="44.24226625906572" lon="11.585636571203528"><ele>507.0</ele><time>2026-04-18T09:05:14Z</time></trkpt><trkpt lat="44.242199191599916" lon="11.585567213510222"><ele>507.0</ele><time>2026-04-18T09:05:16Z</time></trkpt><trkpt lat="44.24213884292324" lon="11.585504550094862"><ele>507.0</ele><time>2026-04-18T09:05:18Z</time></trkpt><trkpt lat="44.24206979515154" lon="11.585458872813346"><ele>507.0</ele><time>2026-04-18T09:05:20Z</time></trkpt><trkpt lat="44.242007420495085" lon="11.585386791971473"><ele>507.0</ele><time>2026-04-18T09:05:23Z</time></trkpt><trkpt lat="44.2419566540525" lon="11.585320947918296"><ele>507.2857142857143</ele><time>2026-04-18T09:05:25Z</time></trkpt><trkpt lat="44.24190870751217" lon="11.585246160017967"><ele>507.57142857142856</ele><time>2026-04-18T09:05:27Z</time></trkpt><trkpt lat="44.241827154538385" lon="11.585176750847921"><ele>507.85714285714283</ele><time>2026-04-18T09:05:30Z</time></trkpt><trkpt lat="44.24176777836895" lon="11.585140034678794"><ele>508.1428571428571</ele><time>2026-04-18T09:05:32Z</time></trkpt><trkpt lat="44.24172122888039" lon="11.585076736024227"><ele>508.42857142857144</ele><time>2026-04-18T09:05:34Z</time></trkpt><trkpt lat="44.24165315992081" lon="11.585038859442383"><ele>508.71428571428567</ele><time>2026-04-18T09:05:37Z</time></trkpt><trkpt lat="44.24159503743396" lon="11.584965052577866"><ele>508.99999999999994</ele><time>2026-04-18T09:05:41Z</time></trkpt><trkpt lat="44.241546396211795" lon="11.584890337898102"><ele>508.99999999999994</ele><time>2026-04-18T09:05:43Z</time></trkpt><trkpt lat="44.24151619559522" lon="11.58480964899373"><ele>509.0</ele><time>2026-04-18T09:05:44Z</time></trkpt><trkpt lat="44.241493233710735" lon="11.584716046049989"><ele>508.99999999999994</ele><time>2026-04-18T09:05:45Z</time></trkpt><trkpt lat="44.2414643869653" lon="11.584627900797127"><ele>508.99999999999994</ele><time>2026-04-18T09:05:46Z</time></trkpt><trkpt lat="44.24146850337099" lon="11.584536260939174"><ele>509.0</ele><time>2026-04-18T09:05:47Z</time></trkpt><trkpt lat="44.24145949860297" lon="11.584411333424546"><ele>508.99999999999994</ele><time>2026-04-18T09:05:48Z</time></trkpt><trkpt lat="44.24144950051947" lon="11.584296940694271"><ele>508.99999999999994</ele><time>2026-04-18T09:05:49Z</time></trkpt><trkpt lat="44.24142211957231" lon="11.58418600013088"><ele>506.0</ele><time>2026-04-18T09:05:50Z</time></trkpt><trkpt lat="44.24139018798735" lon="11.584089864068043"><ele>503.0</ele><time>2026-04-18T09:05:51Z</time></trkpt><trkpt lat="44.241330747336995" lon="11.583975910555422"><ele>500.0</ele><time>2026-04-18T09:05:53.001Z</time></trkpt><trkpt lat="44.24123304457242" lon="11.584046085931137"><ele>497.0</ele><time>2026-04-18T09:05:57.001Z</time></trkpt><trkpt lat="44.241208564462234" lon="11.584150490589991"><ele>494.0</ele><time>2026-04-18T09:05:59.001Z</time></trkpt><trkpt lat="44.24115491118065" lon="11.584250724615496"><ele>494.0</ele><time>2026-04-18T09:06:01.001Z</time></trkpt><trkpt lat="44.24111774837083" lon="11.584363020892171"><ele>494.0</ele><time>2026-04-18T09:06:03.001Z</time></trkpt><trkpt lat="44.2410809128921" lon="11.58449618354464"><ele>494.0</ele><time>2026-04-18T09:06:05.001Z</time></trkpt><trkpt lat="44.24104019850469" lon="11.58463090531958"><ele>494.0</ele><time>2026-04-18T09:06:07.001Z</time></trkpt><trkpt lat="44.24100750005671" lon="11.584768914349894"><ele>494.0</ele><time>2026-04-18T09:06:09.001Z</time></trkpt><trkpt lat="44.240971259565654" lon="11.584912578668495"><ele>494.0</ele><time>2026-04-18T09:06:11.001Z</time></trkpt><trkpt lat="44.240927411841156" lon="11.58505446168986"><ele>494.0</ele><time>2026-04-18T09:06:13.001Z</time></trkpt><trkpt lat="44.24089383064053" lon="11.585197318698796"><ele>494.0</ele><time>2026-04-18T09:06:15.001Z</time></trkpt><trkpt lat="44.24085841239256" lon="11.585327759288232"><ele>494.0</ele><time>2026-04-18T09:06:17.001Z</time></trkpt><trkpt lat="44.24081476432662" lon="11.585452376151535"><ele>494.0</ele><time>2026-04-18T09:06:19.001Z</time></trkpt><trkpt lat="44.24076768258989" lon="11.585597512693216"><ele>495.25</ele><time>2026-04-18T09:06:21.001Z</time></trkpt><trkpt lat="44.24072760449216" lon="11.585747868549058"><ele>496.5</ele><time>2026-04-18T09:06:23.001Z</time></trkpt><trkpt lat="44.24068495795051" lon="11.585900082966079"><ele>497.75</ele><time>2026-04-18T09:06:25.001Z</time></trkpt><trkpt lat="44.240663439465685" lon="11.586064483031745"><ele>499.0</ele><time>2026-04-18T09:06:27.001Z</time></trkpt><trkpt lat="44.24066014137613" lon="11.586236753949493"><ele>499.00000000000006</ele><time>2026-04-18T09:06:29.001Z</time></trkpt><trkpt lat="44.24067489975827" lon="11.586325820988712"><ele>499.0</ele><time>2026-04-18T09:06:30.001Z</time></trkpt><trkpt lat="44.24069933398561" lon="11.586420348546785"><ele>499.00000000000006</ele><time>2026-04-18T09:06:31.001Z</time></trkpt><trkpt lat="44.240722036784824" lon="11.586516406383524"><ele>499.00000000000006</ele><time>2026-04-18T09:06:32.001Z</time></trkpt><trkpt lat="44.24073304688417" lon="11.58661570049326"><ele>499.0</ele><time>2026-04-18T09:06:33.001Z</time></trkpt><trkpt lat="44.240730746509854" lon="11.58672085832817"><ele>499.00000000000006</ele><time>2026-04-18T09:06:34.001Z</time></trkpt><trkpt lat="44.240716822011784" lon="11.586820551661278"><ele>499.00000000000006</ele><time>2026-04-18T09:06:35.001Z</time></trkpt><trkpt lat="44.24069480848944" lon="11.586915343977138"><ele>499.00000000000006</ele><time>2026-04-18T09:06:36.001Z</time></trkpt><trkpt lat="44.24066524736781" lon="11.587010876010842"><ele>499.0</ele><time>2026-04-18T09:06:37.001Z</time></trkpt><trkpt lat="44.24062944454575" lon="11.587105902901445"><ele>499.0</ele><time>2026-04-18T09:06:38.001Z</time></trkpt><trkpt lat="44.24058849374452" lon="11.587193890074195"><ele>499.0</ele><time>2026-04-18T09:06:39.001Z</time></trkpt><trkpt lat="44.24054202589414" lon="11.587281397498826"><ele>499.00000000000006</ele><time>2026-04-18T09:06:40.001Z</time></trkpt><trkpt lat="44.24048305507832" lon="11.587346919327938"><ele>499.0</ele><time>2026-04-18T09:06:41.001Z</time></trkpt><trkpt lat="44.24041194414241" lon="11.587431276762208"><ele>497.0</ele><time>2026-04-18T09:06:42.001Z</time></trkpt><trkpt lat="44.24035098561625" lon="11.587484030678509"><ele>495.0</ele><time>2026-04-18T09:06:43.001Z</time></trkpt><trkpt lat="44.24028422244879" lon="11.587545418687066"><ele>493.0</ele><time>2026-04-18T09:06:44.001Z</time></trkpt><trkpt lat="44.2402239239653" lon="11.587605854794585"><ele>491.0</ele><time>2026-04-18T09:06:45.001Z</time></trkpt><trkpt lat="44.240097583712235" lon="11.587718469013153"><ele>489.0</ele><time>2026-04-18T09:06:47.001Z</time></trkpt><trkpt lat="44.24002957953332" lon="11.587771738852297"><ele>489.0</ele><time>2026-04-18T09:06:48.001Z</time></trkpt><trkpt lat="44.239968508631954" lon="11.58783727637817"><ele>489.0</ele><time>2026-04-18T09:06:49.001Z</time></trkpt><trkpt lat="44.23990417694516" lon="11.587896186971282"><ele>489.0</ele><time>2026-04-18T09:06:50.001Z</time></trkpt><trkpt lat="44.239827185645666" lon="11.587961663437211"><ele>489.0</ele><time>2026-04-18T09:06:51.001Z</time></trkpt><trkpt lat="44.239756619307144" lon="11.588021710864028"><ele>489.0</ele><time>2026-04-18T09:06:52.001Z</time></trkpt><trkpt lat="44.23969266765863" lon="11.58807797560561"><ele>489.0</ele><time>2026-04-18T09:06:53.001Z</time></trkpt><trkpt lat="44.23963138327255" lon="11.588146347369527"><ele>488.6666666666667</ele><time>2026-04-18T09:06:54.001Z</time></trkpt><trkpt lat="44.23956315361276" lon="11.588213340024186"><ele>488.33333333333337</ele><time>2026-04-18T09:06:55.001Z</time></trkpt><trkpt lat="44.23949065426867" lon="11.588277892626326"><ele>488.0</ele><time>2026-04-18T09:06:56.001Z</time></trkpt><trkpt lat="44.2394232032721" lon="11.588335270264368"><ele>487.6666666666667</ele><time>2026-04-18T09:06:57.001Z</time></trkpt><trkpt lat="44.23935313795655" lon="11.588395551654045"><ele>487.33333333333337</ele><time>2026-04-18T09:06:58.001Z</time></trkpt><trkpt lat="44.239284963118834" lon="11.588451988892844"><ele>487.0</ele><time>2026-04-18T09:06:59.001Z</time></trkpt><trkpt lat="44.23920697848036" lon="11.588510824199103"><ele>487.00000000000006</ele><time>2026-04-18T09:07:00.001Z</time></trkpt><trkpt lat="44.23913180346225" lon="11.588553230115318"><ele>487.0</ele><time>2026-04-18T09:07:01.001Z</time></trkpt><trkpt lat="44.23905473169599" lon="11.588582736516992"><ele>487.0</ele><time>2026-04-18T09:07:02Z</time></trkpt><trkpt lat="44.238974970215935" lon="11.588600625790045"><ele>487.0</ele><time>2026-04-18T09:07:03Z</time></trkpt><trkpt lat="44.23890150701113" lon="11.588604552548597"><ele>487.00000000000006</ele><time>2026-04-18T09:07:04Z</time></trkpt><trkpt lat="44.23882381273242" lon="11.588602460006303"><ele>487.0</ele><time>2026-04-18T09:07:05Z</time></trkpt><trkpt lat="44.238749938646144" lon="11.588601975609793"><ele>487.1666666666667</ele><time>2026-04-18T09:07:06Z</time></trkpt><trkpt lat="44.23867985827262" lon="11.588598085567833"><ele>487.33333333333337</ele><time>2026-04-18T09:07:07Z</time></trkpt><trkpt lat="44.2386149533708" lon="11.58858762794581"><ele>487.5</ele><time>2026-04-18T09:07:08Z</time></trkpt><trkpt lat="44.23855039908952" lon="11.588583775543462"><ele>487.66666666666663</ele><time>2026-04-18T09:07:09Z</time></trkpt><trkpt lat="44.23842722769836" lon="11.588574857110407"><ele>487.8333333333333</ele><time>2026-04-18T09:07:11Z</time></trkpt><trkpt lat="44.23832230085091" lon="11.588585768432683"><ele>488.0</ele><time>2026-04-18T09:07:13Z</time></trkpt><trkpt lat="44.238222765824595" lon="11.588600250302118"><ele>487.99999999999994</ele><time>2026-04-18T09:07:15Z</time></trkpt><trkpt lat="44.23813725453429" lon="11.588647552530094"><ele>488.0</ele><time>2026-04-18T09:07:17Z</time></trkpt><trkpt lat="44.23805566581466" lon="11.588701735002502"><ele>488.0</ele><time>2026-04-18T09:07:19Z</time></trkpt><trkpt lat="44.23798459169942" lon="11.588772630834312"><ele>488.0</ele><time>2026-04-18T09:07:21Z</time></trkpt><trkpt lat="44.23791592539552" lon="11.588853081474321"><ele>487.99999999999994</ele><time>2026-04-18T09:07:23Z</time></trkpt><trkpt lat="44.237858689991" lon="11.588940574175599"><ele>488.0</ele><time>2026-04-18T09:07:25Z</time></trkpt><trkpt lat="44.237809496225225" lon="11.589036798505017"><ele>489.16666666666663</ele><time>2026-04-18T09:07:27Z</time></trkpt><trkpt lat="44.23776596799258" lon="11.58914386929216"><ele>490.3333333333333</ele><time>2026-04-18T09:07:29Z</time></trkpt><trkpt lat="44.237723880323436" lon="11.589247689903242"><ele>491.5</ele><time>2026-04-18T09:07:31Z</time></trkpt><trkpt lat="44.23768144766277" lon="11.589351818905643"><ele>492.66666666666663</ele><time>2026-04-18T09:07:33Z</time></trkpt><trkpt lat="44.2376415479816" lon="11.58945145246946"><ele>493.8333333333333</ele><time>2026-04-18T09:07:35Z</time></trkpt><trkpt lat="44.23760306239382" lon="11.589542024215493"><ele>495.0</ele><time>2026-04-18T09:07:37Z</time></trkpt><trkpt lat="44.23756354829103" lon="11.589624745164201"><ele>496.5</ele><time>2026-04-18T09:07:39Z</time></trkpt><trkpt lat="44.23752469708893" lon="11.589719290865455"><ele>498.0</ele><time>2026-04-18T09:07:41Z</time></trkpt><trkpt lat="44.23748710537306" lon="11.589812284163607"><ele>499.5</ele><time>2026-04-18T09:07:43Z</time></trkpt><trkpt lat="44.237451974004486" lon="11.589904422231363"><ele>501.0</ele><time>2026-04-18T09:07:45.001Z</time></trkpt><trkpt lat="44.23741393484384" lon="11.590001022951046"><ele>502.5</ele><time>2026-04-18T09:07:47.001Z</time></trkpt><trkpt lat="44.23737614531695" lon="11.590100663586611"><ele>504.0</ele><time>2026-04-18T09:07:49.001Z</time></trkpt><trkpt lat="44.237337429022666" lon="11.590199095800205"><ele>506.1666666666667</ele><time>2026-04-18T09:07:51.001Z</time></trkpt><trkpt lat="44.237300414443965" lon="11.59029401892123"><ele>508.33333333333337</ele><time>2026-04-18T09:07:53.001Z</time></trkpt><trkpt lat="44.237269036591805" lon="11.590384790111203"><ele>510.5</ele><time>2026-04-18T09:07:55.001Z</time></trkpt><trkpt lat="44.23723163738486" lon="11.590478920896125"><ele>512.6666666666667</ele><time>2026-04-18T09:07:57.001Z</time></trkpt><trkpt lat="44.2371882142286" lon="11.590571773909122"><ele>514.8333333333334</ele><time>2026-04-18T09:07:59.001Z</time></trkpt><trkpt lat="44.237153568145985" lon="11.590661960367061"><ele>517.0</ele><time>2026-04-18T09:08:01.001Z</time></trkpt><trkpt lat="44.23710890935458" lon="11.590750574671755"><ele>517.6666666666667</ele><time>2026-04-18T09:08:03.001Z</time></trkpt><trkpt lat="44.237068106319164" lon="11.590839258872395"><ele>518.3333333333334</ele><time>2026-04-18T09:08:05.001Z</time></trkpt><trkpt lat="44.23702081575355" lon="11.590925152631968"><ele>519.0</ele><time>2026-04-18T09:08:07.001Z</time></trkpt><trkpt lat="44.23697553552178" lon="11.591009461286243"><ele>519.6666666666666</ele><time>2026-04-18T09:08:09.001Z</time></trkpt><trkpt lat="44.236931705574875" lon="11.591086653747093"><ele>520.3333333333333</ele><time>2026-04-18T09:08:11.001Z</time></trkpt><trkpt lat="44.23688502712411" lon="11.591174980742805"><ele>521.0</ele><time>2026-04-18T09:08:13.001Z</time></trkpt><trkpt lat="44.23683972546461" lon="11.59126012810093"><ele>521.1666666666666</ele><time>2026-04-18T09:08:15.001Z</time></trkpt><trkpt lat="44.23679187344703" lon="11.591349762014016"><ele>521.3333333333333</ele><time>2026-04-18T09:08:17.001Z</time></trkpt><trkpt lat="44.23674139437257" lon="11.591433576019584"><ele>521.5</ele><time>2026-04-18T09:08:19.001Z</time></trkpt><trkpt lat="44.236695480620035" lon="11.591523909580175"><ele>521.6666666666666</ele><time>2026-04-18T09:08:21.001Z</time></trkpt><trkpt lat="44.23665496271457" lon="11.591623383016888"><ele>521.8333333333334</ele><time>2026-04-18T09:08:23.001Z</time></trkpt><trkpt lat="44.236622330143796" lon="11.591711404665865"><ele>522.0</ele><time>2026-04-18T09:08:25.001Z</time></trkpt><trkpt lat="44.23658691728969" lon="11.591817372173166"><ele>522.0</ele><time>2026-04-18T09:08:27.001Z</time></trkpt><trkpt lat="44.23656014824579" lon="11.591926480240566"><ele>522.0</ele><time>2026-04-18T09:08:29.001Z</time></trkpt><trkpt lat="44.23653264451449" lon="11.592032095725301"><ele>522.0</ele><time>2026-04-18T09:08:31.001Z</time></trkpt><trkpt lat="44.236514630520325" lon="11.592132905595664"><ele>522.0</ele><time>2026-04-18T09:08:33.001Z</time></trkpt><trkpt lat="44.236495655466435" lon="11.592237321535528"><ele>522.0</ele><time>2026-04-18T09:08:35.001Z</time></trkpt><trkpt lat="44.236471302849374" lon="11.592339467027335"><ele>522.0</ele><time>2026-04-18T09:08:37.001Z</time></trkpt><trkpt lat="44.23644807718936" lon="11.59244370532132"><ele>523.6666666666666</ele><time>2026-04-18T09:08:39.001Z</time></trkpt><trkpt lat="44.23641526835379" lon="11.592546111543447"><ele>525.3333333333334</ele><time>2026-04-18T09:08:41.001Z</time></trkpt><trkpt lat="44.23637881528558" lon="11.592646414916134"><ele>527.0</ele><time>2026-04-18T09:08:43.001Z</time></trkpt><trkpt lat="44.23633642969486" lon="11.592732645511255"><ele>528.6666666666667</ele><time>2026-04-18T09:08:45.001Z</time></trkpt><trkpt lat="44.23628942315846" lon="11.592812852893832"><ele>530.3333333333334</ele><time>2026-04-18T09:08:47.001Z</time></trkpt><trkpt lat="44.23622766203943" lon="11.592869187024673"><ele>532.0</ele><time>2026-04-18T09:08:49.001Z</time></trkpt><trkpt lat="44.23616980028966" lon="11.592934996635805"><ele>532.0</ele><time>2026-04-18T09:08:51.001Z</time></trkpt><trkpt lat="44.23611957704284" lon="11.593016094506867"><ele>532.0</ele><time>2026-04-18T09:08:53.002Z</time></trkpt><trkpt lat="44.23607256427095" lon="11.59308763340431"><ele>532.0</ele><time>2026-04-18T09:08:55.002Z</time></trkpt><trkpt lat="44.23602605256878" lon="11.593165234065571"><ele>532.0</ele><time>2026-04-18T09:08:57.002Z</time></trkpt><trkpt lat="44.23598275562386" lon="11.593236791379848"><ele>532.0</ele><time>2026-04-18T09:08:59.002Z</time></trkpt><trkpt lat="44.23593642805641" lon="11.593311582116776"><ele>532.0</ele><time>2026-04-18T09:09:01.002Z</time></trkpt><trkpt lat="44.235887064685194" lon="11.59338191651108"><ele>532.0</ele><time>2026-04-18T09:09:03.002Z</time></trkpt><trkpt lat="44.2358395622019" lon="11.593457758259422"><ele>532.0</ele><time>2026-04-18T09:09:05.002Z</time></trkpt><trkpt lat="44.235793392528755" lon="11.593533490322367"><ele>532.0</ele><time>2026-04-18T09:09:07.002Z</time></trkpt><trkpt lat="44.23574587528716" lon="11.593611273254279"><ele>532.0</ele><time>2026-04-18T09:09:09Z</time></trkpt><trkpt lat="44.23569890635777" lon="11.593691207824879"><ele>532.0</ele><time>2026-04-18T09:09:11Z</time></trkpt><trkpt lat="44.23566853392404" lon="11.593778919157993"><ele>532.0</ele><time>2026-04-18T09:09:13Z</time></trkpt><trkpt lat="44.23562744606205" lon="11.593863780080477"><ele>532.0</ele><time>2026-04-18T09:09:15Z</time></trkpt><trkpt lat="44.23557971820188" lon="11.59393597795455"><ele>532.0</ele><time>2026-04-18T09:09:17Z</time></trkpt><trkpt lat="44.23552990177386" lon="11.594014159499839"><ele>533.6666666666667</ele><time>2026-04-18T09:09:19Z</time></trkpt><trkpt lat="44.235472856797394" lon="11.594093954304284"><ele>535.3333333333334</ele><time>2026-04-18T09:09:21Z</time></trkpt><trkpt lat="44.2354244741927" lon="11.594169506583977"><ele>537.0</ele><time>2026-04-18T09:09:23Z</time></trkpt><trkpt lat="44.23536694446716" lon="11.594274254665155"><ele>538.6666666666666</ele><time>2026-04-18T09:09:26Z</time></trkpt><trkpt lat="44.23532147513263" lon="11.594345118515808"><ele>540.3333333333333</ele><time>2026-04-18T09:09:28Z</time></trkpt><trkpt lat="44.23527430977679" lon="11.594418684218248"><ele>542.0</ele><time>2026-04-18T09:09:30Z</time></trkpt><trkpt lat="44.23522773122509" lon="11.594494435481137"><ele>542.0</ele><time>2026-04-18T09:09:32Z</time></trkpt><trkpt lat="44.23518656669087" lon="11.594579859152512"><ele>542.0</ele><time>2026-04-18T09:09:34Z</time></trkpt><trkpt lat="44.23515224768706" lon="11.594660201590816"><ele>542.0</ele><time>2026-04-18T09:09:36Z</time></trkpt><trkpt lat="44.23509587869366" lon="11.594604408568507"><ele>542.0</ele><time>2026-04-18T09:09:38Z</time></trkpt><trkpt lat="44.23514337267049" lon="11.594531528533075"><ele>542.0</ele><time>2026-04-18T09:09:40Z</time></trkpt><trkpt lat="44.23518650675435" lon="11.594449565259783"><ele>542.0</ele><time>2026-04-18T09:09:43Z</time></trkpt><trkpt lat="44.23520605746379" lon="11.594330798042375"><ele>542.0</ele><time>2026-04-18T09:09:46Z</time></trkpt><trkpt lat="44.23522455434909" lon="11.594198000883726"><ele>542.0</ele><time>2026-04-18T09:09:49.001Z</time></trkpt><trkpt lat="44.23523164240093" lon="11.594100866425123"><ele>542.0</ele><time>2026-04-18T09:09:51.001Z</time></trkpt><trkpt lat="44.23523553771831" lon="11.593970747694266"><ele>542.0</ele><time>2026-04-18T09:09:54.001Z</time></trkpt><trkpt lat="44.23525245241059" lon="11.593844287947325"><ele>542.0</ele><time>2026-04-18T09:09:57.001Z</time></trkpt><trkpt lat="44.23525464306979" lon="11.593745064210546"><ele>542.0</ele><time>2026-04-18T09:09:59.001Z</time></trkpt><trkpt lat="44.23525184826514" lon="11.593655452731934"><ele>542.0</ele><time>2026-04-18T09:10:01.001Z</time></trkpt><trkpt lat="44.2352532827688" lon="11.593520734992453"><ele>544.0</ele><time>2026-04-18T09:10:04.001Z</time></trkpt><trkpt lat="44.235245902637686" lon="11.593400365112148"><ele>546.0</ele><time>2026-04-18T09:10:07.001Z</time></trkpt><trkpt lat="44.23525395907079" lon="11.593269207767873"><ele>548.0</ele><time>2026-04-18T09:10:10.001Z</time></trkpt><trkpt lat="44.235265862085406" lon="11.593140749063256"><ele>550.0</ele><time>2026-04-18T09:10:13.001Z</time></trkpt><trkpt lat="44.23527629061981" lon="11.593046122284361"><ele>552.0</ele><time>2026-04-18T09:10:15.001Z</time></trkpt><trkpt lat="44.23529031662654" lon="11.59292624916832"><ele>554.0</ele><time>2026-04-18T09:10:18.001Z</time></trkpt><trkpt lat="44.23528046246616" lon="11.592822918676614"><ele>554.2857142857142</ele><time>2026-04-18T09:10:20.001Z</time></trkpt><trkpt lat="44.235278436260074" lon="11.592729949496658"><ele>554.5714285714286</ele><time>2026-04-18T09:10:22.001Z</time></trkpt><trkpt lat="44.23526693928037" lon="11.592642017945026"><ele>554.8571428571429</ele><time>2026-04-18T09:10:24.001Z</time></trkpt><trkpt lat="44.23525125069568" lon="11.592522637765558"><ele>555.1428571428571</ele><time>2026-04-18T09:10:27.001Z</time></trkpt><trkpt lat="44.235246799879725" lon="11.592421179510977"><ele>555.4285714285714</ele><time>2026-04-18T09:10:30.001Z</time></trkpt><trkpt lat="44.23524542629717" lon="11.592325276823598"><ele>555.7142857142857</ele><time>2026-04-18T09:10:33.001Z</time></trkpt><trkpt lat="44.235248179707135" lon="11.592226721846945"><ele>556.0</ele><time>2026-04-18T09:10:36.001Z</time></trkpt><trkpt lat="44.23523095152301" lon="11.592132339349309"><ele>556.0</ele><time>2026-04-18T09:10:39.001Z</time></trkpt><trkpt lat="44.23521290200133" lon="11.592028151147867"><ele>556.0</ele><time>2026-04-18T09:10:42.001Z</time></trkpt><trkpt lat="44.235131608886846" lon="11.59200902692321"><ele>556.0</ele><time>2026-04-18T09:10:45.001Z</time></trkpt><trkpt lat="44.23505128475215" lon="11.592057344917631"><ele>556.0</ele><time>2026-04-18T09:10:48.001Z</time></trkpt><trkpt lat="44.23501664265422" lon="11.592173300215466"><ele>556.0</ele><time>2026-04-18T09:10:51.001Z</time></trkpt><trkpt lat="44.23496329058081" lon="11.592266507850406"><ele>556.0</ele><time>2026-04-18T09:10:55.001Z</time></trkpt><trkpt lat="44.234917846412955" lon="11.59236403763925"><ele>556.0</ele><time>2026-04-18T09:10:59.001Z</time></trkpt><trkpt lat="44.23487235782838" lon="11.592432204352907"><ele>556.0</ele><time>2026-04-18T09:11:01.001Z</time></trkpt><trkpt lat="44.2348207511444" lon="11.592509337418232"><ele>556.0</ele><time>2026-04-18T09:11:04.002Z</time></trkpt><trkpt lat="44.234760479483654" lon="11.592587161057478"><ele>556.0</ele><time>2026-04-18T09:11:07.002Z</time></trkpt><trkpt lat="44.23471169931753" lon="11.592663110517183"><ele>556.0</ele><time>2026-04-18T09:11:10.002Z</time></trkpt><trkpt lat="44.23465699913573" lon="11.59274142178319"><ele>556.0</ele><time>2026-04-18T09:11:13.002Z</time></trkpt><trkpt lat="44.23458495141866" lon="11.592813676919405"><ele>555.8333333333334</ele><time>2026-04-18T09:11:16Z</time></trkpt><trkpt lat="44.23451429967315" lon="11.592879346869262"><ele>555.6666666666667</ele><time>2026-04-18T09:11:19Z</time></trkpt><trkpt lat="44.23445089051495" lon="11.592919665356487"><ele>555.5</ele><time>2026-04-18T09:11:22Z</time></trkpt><trkpt lat="44.23436489508141" lon="11.59292599151283"><ele>555.3333333333334</ele><time>2026-04-18T09:11:25Z</time></trkpt><trkpt lat="44.23429866430534" lon="11.592903142436343"><ele>555.1666666666666</ele><time>2026-04-18T09:11:28Z</time></trkpt><trkpt lat="44.23422539206309" lon="11.592823614778522"><ele>555.0</ele><time>2026-04-18T09:11:33Z</time></trkpt><trkpt lat="44.23415781617724" lon="11.592812160230148"><ele>557.0</ele><time>2026-04-18T09:11:35Z</time></trkpt><trkpt lat="44.23407733509297" lon="11.592766365887043"><ele>559.0</ele><time>2026-04-18T09:11:38Z</time></trkpt><trkpt lat="44.23399897873161" lon="11.592749964454539"><ele>561.0</ele><time>2026-04-18T09:11:41Z</time></trkpt><trkpt lat="44.233927474479295" lon="11.592730753235346"><ele>563.0</ele><time>2026-04-18T09:11:44Z</time></trkpt><trkpt lat="44.2338510989809" lon="11.592695248385976"><ele>565.0</ele><time>2026-04-18T09:11:47Z</time></trkpt><trkpt lat="44.233789550923554" lon="11.592672881419833"><ele>567.0</ele><time>2026-04-18T09:11:49Z</time></trkpt><trkpt lat="44.23371513361003" lon="11.592611921909736"><ele>568.1666666666666</ele><time>2026-04-18T09:11:53.001Z</time></trkpt><trkpt lat="44.23362225113442" lon="11.592569421219162"><ele>569.3333333333334</ele><time>2026-04-18T09:11:57.001Z</time></trkpt><trkpt lat="44.23355470530754" lon="11.592498003772864"><ele>570.5</ele><time>2026-04-18T09:12:01.001Z</time></trkpt><trkpt lat="44.23348291570091" lon="11.592441939387596"><ele>571.6666666666667</ele><time>2026-04-18T09:12:05.001Z</time></trkpt><trkpt lat="44.23341963489152" lon="11.592388500413477"><ele>572.8333333333334</ele><time>2026-04-18T09:12:08.001Z</time></trkpt><trkpt lat="44.2333538613304" lon="11.592327255544728"><ele>574.0</ele><time>2026-04-18T09:12:11.001Z</time></trkpt><trkpt lat="44.23327135008073" lon="11.592279039807295"><ele>574.0</ele><time>2026-04-18T09:12:13.001Z</time></trkpt><trkpt lat="44.23321521355225" lon="11.592226179530668"><ele>574.0</ele><time>2026-04-18T09:12:16.001Z</time></trkpt><trkpt lat="44.23315987950048" lon="11.592179860097591"><ele>574.0</ele><time>2026-04-18T09:12:18.001Z</time></trkpt><trkpt lat="44.23307896048618" lon="11.592132041890688"><ele>574.0</ele><time>2026-04-18T09:12:21.001Z</time></trkpt><trkpt lat="44.23299669798181" lon="11.592086771874552"><ele>574.0</ele><time>2026-04-18T09:12:24.001Z</time></trkpt><trkpt lat="44.23292978490681" lon="11.592038537987317"><ele>574.0</ele><time>2026-04-18T09:12:27.001Z</time></trkpt><trkpt lat="44.23285180712635" lon="11.592007016713918"><ele>577.0</ele><time>2026-04-18T09:12:30.001Z</time></trkpt><trkpt lat="44.2327700618422" lon="11.591969917934282"><ele>580.0</ele><time>2026-04-18T09:12:33.001Z</time></trkpt><trkpt lat="44.23268915505924" lon="11.591947954464219"><ele>583.0</ele><time>2026-04-18T09:12:36.001Z</time></trkpt><trkpt lat="44.23259809900638" lon="11.591932127178008"><ele>586.0</ele><time>2026-04-18T09:12:39.001Z</time></trkpt><trkpt lat="44.23251040563934" lon="11.591893891528658"><ele>589.0</ele><time>2026-04-18T09:12:42.001Z</time></trkpt><trkpt lat="44.23244475310441" lon="11.591908878476673"><ele>592.0</ele><time>2026-04-18T09:12:44.001Z</time></trkpt><trkpt lat="44.23235977746707" lon="11.5919262667345"><ele>588.4</ele><time>2026-04-18T09:12:47.001Z</time></trkpt><trkpt lat="44.23227558514118" lon="11.591949877472777"><ele>584.8000000000001</ele><time>2026-04-18T09:12:50.001Z</time></trkpt><trkpt lat="44.232211343517655" lon="11.59195481288749"><ele>581.2</ele><time>2026-04-18T09:12:53.001Z</time></trkpt><trkpt lat="44.232124251082794" lon="11.591959690166927"><ele>577.6</ele><time>2026-04-18T09:12:55.001Z</time></trkpt><trkpt lat="44.23206271307821" lon="11.591993424344421"><ele>574.0</ele><time>2026-04-18T09:12:56.001Z</time></trkpt><trkpt lat="44.232078963229476" lon="11.592301641009024"><ele>573.1666666666667</ele><time>2026-04-18T09:12:57.001Z</time></trkpt><trkpt lat="44.232141611817475" lon="11.592334928592921"><ele>572.3333333333334</ele><time>2026-04-18T09:12:59.001Z</time></trkpt><trkpt lat="44.232110172580526" lon="11.592430069345903"><ele>571.5</ele><time>2026-04-18T09:13:02.001Z</time></trkpt><trkpt lat="44.232026172084076" lon="11.59245186166187"><ele>570.6666666666666</ele><time>2026-04-18T09:13:04.001Z</time></trkpt><trkpt lat="44.231921904183835" lon="11.592520041859249"><ele>569.8333333333333</ele><time>2026-04-18T09:13:06.001Z</time></trkpt><trkpt lat="44.231847631924296" lon="11.592526765519189"><ele>569.0</ele><time>2026-04-18T09:13:08.001Z</time></trkpt><trkpt lat="44.23180981822857" lon="11.592642903893074"><ele>569.0</ele><time>2026-04-18T09:13:10.001Z</time></trkpt><trkpt lat="44.231774093317426" lon="11.592740257148714"><ele>569.0</ele><time>2026-04-18T09:13:11.001Z</time></trkpt><trkpt lat="44.23174093546605" lon="11.592816050852106"><ele>569.0</ele><time>2026-04-18T09:13:12.001Z</time></trkpt><trkpt lat="44.231697116148545" lon="11.592971517351042"><ele>569.0</ele><time>2026-04-18T09:13:14.001Z</time></trkpt><trkpt lat="44.231643541127646" lon="11.593064792237794"><ele>569.0</ele><time>2026-04-18T09:13:17.002Z</time></trkpt><trkpt lat="44.23158953721905" lon="11.592975465623814"><ele>569.0</ele><time>2026-04-18T09:13:21Z</time></trkpt><trkpt lat="44.231559084262244" lon="11.592828922640246"><ele>566.2</ele><time>2026-04-18T09:13:23Z</time></trkpt><trkpt lat="44.23154361853691" lon="11.592972039275967"><ele>563.4</ele><time>2026-04-18T09:13:27Z</time></trkpt><trkpt lat="44.231558594397036" lon="11.593104504542705"><ele>560.6</ele><time>2026-04-18T09:13:29Z</time></trkpt><trkpt lat="44.23157560892711" lon="11.593245862212054"><ele>557.8</ele><time>2026-04-18T09:13:31Z</time></trkpt><trkpt lat="44.23149055215724" lon="11.59328868720121"><ele>555.0</ele><time>2026-04-18T09:13:34Z</time></trkpt><trkpt lat="44.231511942325795" lon="11.593413924383007"><ele>548.2</ele><time>2026-04-18T09:13:36Z</time></trkpt><trkpt lat="44.23144000130747" lon="11.593536001727129"><ele>541.4</ele><time>2026-04-18T09:13:38Z</time></trkpt><trkpt lat="44.231345644224" lon="11.593557529259408"><ele>534.6</ele><time>2026-04-18T09:13:40Z</time></trkpt><trkpt lat="44.23128933751063" lon="11.593636978032016"><ele>527.8</ele><time>2026-04-18T09:13:42Z</time></trkpt><trkpt lat="44.231274015447426" lon="11.593523230532439"><ele>521.0</ele><time>2026-04-18T09:13:44Z</time></trkpt><trkpt lat="44.2312254718996" lon="11.593640791634995"><ele>521.0</ele><time>2026-04-18T09:13:46Z</time></trkpt><trkpt lat="44.23118888070897" lon="11.59373186068004"><ele>521.0</ele><time>2026-04-18T09:13:48Z</time></trkpt><trkpt lat="44.231144459995136" lon="11.593593504701136"><ele>521.0</ele><time>2026-04-18T09:13:50Z</time></trkpt><trkpt lat="44.23119503161108" lon="11.593476869578906"><ele>521.0</ele><time>2026-04-18T09:13:52Z</time></trkpt><trkpt lat="44.23123815001121" lon="11.593320723935182"><ele>521.0</ele><time>2026-04-18T09:13:54Z</time></trkpt><trkpt lat="44.231218135544516" lon="11.593174735652145"><ele>521.0</ele><time>2026-04-18T09:13:56Z</time></trkpt><trkpt lat="44.23119552638006" lon="11.593037492577432"><ele>521.0</ele><time>2026-04-18T09:13:58Z</time></trkpt><trkpt lat="44.231098470502474" lon="11.592924846504552"><ele>521.0</ele><time>2026-04-18T09:14:00Z</time></trkpt><trkpt lat="44.23101936836237" lon="11.592819708453286"><ele>521.0</ele><time>2026-04-18T09:14:02Z</time></trkpt><trkpt lat="44.23094398990929" lon="11.592775077354522"><ele>521.0</ele><time>2026-04-18T09:14:04.001Z</time></trkpt><trkpt lat="44.230874527517635" lon="11.592811984383559"><ele>521.0</ele><time>2026-04-18T09:14:06.001Z</time></trkpt><trkpt lat="44.23081488487109" lon="11.592768552593208"><ele>521.0</ele><time>2026-04-18T09:14:08.001Z</time></trkpt><trkpt lat="44.23076473973591" lon="11.592850245578978"><ele>521.0</ele><time>2026-04-18T09:14:10.001Z</time></trkpt><trkpt lat="44.23069417171858" lon="11.592877256354939"><ele>521.0</ele><time>2026-04-18T09:14:12.001Z</time></trkpt><trkpt lat="44.23062441872975" lon="11.592847748843202"><ele>521.0</ele><time>2026-04-18T09:14:14.001Z</time></trkpt><trkpt lat="44.23055976066555" lon="11.5929257738657"><ele>521.0</ele><time>2026-04-18T09:14:16.001Z</time></trkpt><trkpt lat="44.23046593108083" lon="11.592945527967949"><ele>515.2</ele><time>2026-04-18T09:14:17.001Z</time></trkpt><trkpt lat="44.230376925926976" lon="11.592981740493538"><ele>509.40000000000003</ele><time>2026-04-18T09:14:19.001Z</time></trkpt><trkpt lat="44.23040946966171" lon="11.592821111788872"><ele>503.6</ele><time>2026-04-18T09:14:21.001Z</time></trkpt><trkpt lat="44.23042191263388" lon="11.592648172926285"><ele>497.8</ele><time>2026-04-18T09:14:23.001Z</time></trkpt><trkpt lat="44.23043524337481" lon="11.592532600665308"><ele>492.0</ele><time>2026-04-18T09:14:24.001Z</time></trkpt><trkpt lat="44.230457887665644" lon="11.592432626061198"><ele>492.0</ele><time>2026-04-18T09:14:25.001Z</time></trkpt><trkpt lat="44.23045287757764" lon="11.592332780879365"><ele>492.00000000000006</ele><time>2026-04-18T09:14:28.001Z</time></trkpt><trkpt lat="44.2303768193223" lon="11.592271389095645"><ele>492.00000000000006</ele><time>2026-04-18T09:14:30.001Z</time></trkpt><trkpt lat="44.23024953174543" lon="11.592265003275973"><ele>492.0</ele><time>2026-04-18T09:14:32.001Z</time></trkpt><trkpt lat="44.230217658883646" lon="11.592396475418019"><ele>492.0</ele><time>2026-04-18T09:14:34.001Z</time></trkpt><trkpt lat="44.230150272589135" lon="11.592561513056841"><ele>492.0</ele><time>2026-04-18T09:14:36.001Z</time></trkpt><trkpt lat="44.230131101441366" lon="11.592676086191242"><ele>492.00000000000006</ele><time>2026-04-18T09:14:37.001Z</time></trkpt><trkpt lat="44.23011906385922" lon="11.59277213062534"><ele>492.00000000000006</ele><time>2026-04-18T09:14:38.001Z</time></trkpt><trkpt lat="44.23007091762474" lon="11.592873473306543"><ele>492.0</ele><time>2026-04-18T09:14:39.001Z</time></trkpt><trkpt lat="44.23005872297517" lon="11.59308844363628"><ele>492.0</ele><time>2026-04-18T09:14:41.001Z</time></trkpt><trkpt lat="44.23003347676816" lon="11.593202075389698"><ele>492.3333333333333</ele><time>2026-04-18T09:14:42.001Z</time></trkpt><trkpt lat="44.23004276390999" lon="11.593316972434941"><ele>492.66666666666663</ele><time>2026-04-18T09:14:43.001Z</time></trkpt><trkpt lat="44.2300770523661" lon="11.593434764075958"><ele>493.0</ele><time>2026-04-18T09:14:44.001Z</time></trkpt><trkpt lat="44.2301210276235" lon="11.59355530947314"><ele>493.3333333333333</ele><time>2026-04-18T09:14:45.001Z</time></trkpt><trkpt lat="44.230091432272665" lon="11.593693532294472"><ele>493.66666666666663</ele><time>2026-04-18T09:14:46.001Z</time></trkpt><trkpt lat="44.230100318240325" lon="11.593793741646211"><ele>494.0</ele><time>2026-04-18T09:14:52.001Z</time></trkpt><trkpt lat="44.23008978385591" lon="11.593891188022889"><ele>494.0</ele><time>2026-04-18T09:14:58.001Z</time></trkpt><trkpt lat="44.23003584166141" lon="11.59394035215486"><ele>494.0</ele><time>2026-04-18T09:15:03.001Z</time></trkpt><trkpt lat="44.22997799054506" lon="11.593986696585967"><ele>494.0</ele><time>2026-04-18T09:15:07.001Z</time></trkpt><trkpt lat="44.22992223443158" lon="11.594031875733211"><ele>494.0</ele><time>2026-04-18T09:15:10.001Z</time></trkpt><trkpt lat="44.22985927918071" lon="11.594064280764766"><ele>494.0</ele><time>2026-04-18T09:15:13.001Z</time></trkpt><trkpt lat="44.22979107135699" lon="11.594138760911216"><ele>494.0</ele><time>2026-04-18T09:15:16.001Z</time></trkpt><trkpt lat="44.22971763425788" lon="11.594214278746401"><ele>494.0</ele><time>2026-04-18T09:15:19.001Z</time></trkpt><trkpt lat="44.22966445823898" lon="11.594298044960622"><ele>492.49999999999994</ele><time>2026-04-18T09:15:22.001Z</time></trkpt><trkpt lat="44.2296132807597" lon="11.594384927918497"><ele>491.0</ele><time>2026-04-18T09:15:25.001Z</time></trkpt><trkpt lat="44.229563868397" lon="11.594477610278675"><ele>489.5</ele><time>2026-04-18T09:15:28.001Z</time></trkpt><trkpt lat="44.22953341492271" lon="11.59455815884845"><ele>488.0</ele><time>2026-04-18T09:15:30.001Z</time></trkpt><trkpt lat="44.229493447668126" lon="11.594673590487597"><ele>486.49999999999994</ele><time>2026-04-18T09:15:33Z</time></trkpt><trkpt lat="44.22948740946179" lon="11.59479614059418"><ele>485.0</ele><time>2026-04-18T09:15:36Z</time></trkpt><trkpt lat="44.22950078641539" lon="11.594921590102498"><ele>484.99999999999994</ele><time>2026-04-18T09:15:39Z</time></trkpt><trkpt lat="44.22952013816366" lon="11.595044062815314"><ele>485.0</ele><time>2026-04-18T09:15:42Z</time></trkpt><trkpt lat="44.229551404091296" lon="11.595153193861426"><ele>485.0</ele><time>2026-04-18T09:15:45Z</time></trkpt><trkpt lat="44.229597449591864" lon="11.595260210051052"><ele>485.0</ele><time>2026-04-18T09:15:48Z</time></trkpt><trkpt lat="44.22964764646059" lon="11.595352823934508"><ele>484.99999999999994</ele><time>2026-04-18T09:15:51Z</time></trkpt><trkpt lat="44.22970568870646" lon="11.595431587695863"><ele>485.0</ele><time>2026-04-18T09:15:54Z</time></trkpt><trkpt lat="44.22976429046786" lon="11.59547735684619"><ele>486.7142857142858</ele><time>2026-04-18T09:15:56.001Z</time></trkpt><trkpt lat="44.2298343713407" lon="11.59549014361559"><ele>488.42857142857144</ele><time>2026-04-18T09:15:58.001Z</time></trkpt><trkpt lat="44.22990380423003" lon="11.595483001841922"><ele>490.14285714285717</ele><time>2026-04-18T09:16:00.001Z</time></trkpt><trkpt lat="44.230003121281776" lon="11.595470466428614"><ele>491.8571428571429</ele><time>2026-04-18T09:16:03.001Z</time></trkpt><trkpt lat="44.230071068116516" lon="11.595467971349043"><ele>493.57142857142856</ele><time>2026-04-18T09:16:05.001Z</time></trkpt><trkpt lat="44.23014126416483" lon="11.595474739445605"><ele>495.2857142857143</ele><time>2026-04-18T09:16:07.001Z</time></trkpt><trkpt lat="44.2302077129218" lon="11.595490929742079"><ele>497.0</ele><time>2026-04-18T09:16:09.001Z</time></trkpt><trkpt lat="44.230274490052224" lon="11.595502635159914"><ele>496.99999999999994</ele><time>2026-04-18T09:16:11.001Z</time></trkpt><trkpt lat="44.23034048055535" lon="11.595532491903151"><ele>497.0</ele><time>2026-04-18T09:16:13.001Z</time></trkpt><trkpt lat="44.230428480200146" lon="11.595536224521316"><ele>497.0</ele><time>2026-04-18T09:16:16.001Z</time></trkpt><trkpt lat="44.23049039262681" lon="11.595494677936408"><ele>497.0</ele><time>2026-04-18T09:16:18.001Z</time></trkpt><trkpt lat="44.2305479848144" lon="11.595421210888809"><ele>496.99999999999994</ele><time>2026-04-18T09:16:20.001Z</time></trkpt><trkpt lat="44.230581396481476" lon="11.595329428244849"><ele>497.0</ele><time>2026-04-18T09:16:22.001Z</time></trkpt><trkpt lat="44.230601596212736" lon="11.595233036415664"><ele>498.3333333333333</ele><time>2026-04-18T09:16:24.001Z</time></trkpt><trkpt lat="44.230617663820134" lon="11.595131198994604"><ele>499.66666666666663</ele><time>2026-04-18T09:16:26.001Z</time></trkpt><trkpt lat="44.23063352997455" lon="11.595022769658167"><ele>501.0</ele><time>2026-04-18T09:16:28.001Z</time></trkpt><trkpt lat="44.23065890890895" lon="11.594920625025221"><ele>502.33333333333337</ele><time>2026-04-18T09:16:30.001Z</time></trkpt><trkpt lat="44.23069015057768" lon="11.594818076716816"><ele>503.6666666666667</ele><time>2026-04-18T09:16:32.001Z</time></trkpt><trkpt lat="44.23072814412968" lon="11.594717647036031"><ele>505.0</ele><time>2026-04-18T09:16:34.001Z</time></trkpt><trkpt lat="44.23077541745556" lon="11.594640451884503"><ele>505.00000000000006</ele><time>2026-04-18T09:16:36.001Z</time></trkpt><trkpt lat="44.23083036091306" lon="11.59458350991529"><ele>505.0</ele><time>2026-04-18T09:16:38.001Z</time></trkpt><trkpt lat="44.23088478767473" lon="11.594535732205843"><ele>505.0</ele><time>2026-04-18T09:16:40.001Z</time></trkpt><trkpt lat="44.23096246408707" lon="11.594449478724785"><ele>505.0</ele><time>2026-04-18T09:16:42.001Z</time></trkpt><trkpt lat="44.23104658758466" lon="11.594392313760697"><ele>505.00000000000006</ele><time>2026-04-18T09:16:44.001Z</time></trkpt><trkpt lat="44.231131725788295" lon="11.594344498791452"><ele>505.0</ele><time>2026-04-18T09:16:46.001Z</time></trkpt><trkpt lat="44.23122673567647" lon="11.594316988659081"><ele>507.4</ele><time>2026-04-18T09:16:48.001Z</time></trkpt><trkpt lat="44.231326302741174" lon="11.5943186919345"><ele>509.8</ele><time>2026-04-18T09:16:50.001Z</time></trkpt><trkpt lat="44.23141104612501" lon="11.594400624045022"><ele>512.2</ele><time>2026-04-18T09:16:52.001Z</time></trkpt><trkpt lat="44.23150905408632" lon="11.594390040979874"><ele>514.6</ele><time>2026-04-18T09:16:54.001Z</time></trkpt><trkpt lat="44.23160269266244" lon="11.594422100620191"><ele>517.0</ele><time>2026-04-18T09:16:56.001Z</time></trkpt><trkpt lat="44.231695122890265" lon="11.59445039617548"><ele>518.8333333333334</ele><time>2026-04-18T09:16:58.001Z</time></trkpt><trkpt lat="44.23179605822391" lon="11.594469096341717"><ele>520.6666666666667</ele><time>2026-04-18T09:17:00.001Z</time></trkpt><trkpt lat="44.23188395712469" lon="11.594465821413044"><ele>522.5</ele><time>2026-04-18T09:17:02.001Z</time></trkpt><trkpt lat="44.23196033980095" lon="11.594466736099973"><ele>524.3333333333334</ele><time>2026-04-18T09:17:04.001Z</time></trkpt><trkpt lat="44.23203003588323" lon="11.594477602897392"><ele>526.1666666666666</ele><time>2026-04-18T09:17:06.001Z</time></trkpt><trkpt lat="44.23210748778136" lon="11.59447163649101"><ele>528.0</ele><time>2026-04-18T09:17:08.001Z</time></trkpt><trkpt lat="44.23218813173828" lon="11.594443902237321"><ele>528.0</ele><time>2026-04-18T09:17:10.001Z</time></trkpt><trkpt lat="44.23227394868034" lon="11.594438084406066"><ele>528.0</ele><time>2026-04-18T09:17:12.001Z</time></trkpt><trkpt lat="44.23237360735524" lon="11.594438907483127"><ele>528.0</ele><time>2026-04-18T09:17:14.001Z</time></trkpt><trkpt lat="44.23246685311828" lon="11.594468691447338"><ele>528.0</ele><time>2026-04-18T09:17:16.001Z</time></trkpt><trkpt lat="44.23255304770022" lon="11.594433725614048"><ele>528.0</ele><time>2026-04-18T09:17:18.001Z</time></trkpt><trkpt lat="44.23264813718426" lon="11.594435196902369"><ele>528.6</ele><time>2026-04-18T09:17:20.001Z</time></trkpt><trkpt lat="44.23274560132368" lon="11.594421240871407"><ele>529.1999999999999</ele><time>2026-04-18T09:17:22.001Z</time></trkpt><trkpt lat="44.232845802033054" lon="11.594400667808433"><ele>529.8</ele><time>2026-04-18T09:17:24.001Z</time></trkpt><trkpt lat="44.23294692483686" lon="11.594415861168407"><ele>530.4</ele><time>2026-04-18T09:17:26.001Z</time></trkpt><trkpt lat="44.233056543215916" lon="11.594380636436455"><ele>531.0</ele><time>2026-04-18T09:17:28.001Z</time></trkpt><trkpt lat="44.23315564419159" lon="11.594364961259085"><ele>529.6</ele><time>2026-04-18T09:17:30.001Z</time></trkpt><trkpt lat="44.233263888109484" lon="11.594342281540953"><ele>528.2</ele><time>2026-04-18T09:17:32.001Z</time></trkpt><trkpt lat="44.233364361783536" lon="11.594324791019817"><ele>526.8</ele><time>2026-04-18T09:17:34.001Z</time></trkpt><trkpt lat="44.2334587213823" lon="11.594316479457898"><ele>525.4</ele><time>2026-04-18T09:17:36.001Z</time></trkpt><trkpt lat="44.23355384645296" lon="11.594324014614694"><ele>524.0</ele><time>2026-04-18T09:17:38.001Z</time></trkpt><trkpt lat="44.23364463748889" lon="11.594348358734981"><ele>524.0</ele><time>2026-04-18T09:17:40.001Z</time></trkpt><trkpt lat="44.23373595937341" lon="11.594368383206469"><ele>524.0</ele><time>2026-04-18T09:17:42.001Z</time></trkpt><trkpt lat="44.23382537821221" lon="11.594382329987846"><ele>524.0</ele><time>2026-04-18T09:17:44Z</time></trkpt><trkpt lat="44.233913384209814" lon="11.59439070639253"><ele>524.0</ele><time>2026-04-18T09:17:46Z</time></trkpt><trkpt lat="44.23400298668091" lon="11.594399800782652"><ele>524.0</ele><time>2026-04-18T09:17:48Z</time></trkpt><trkpt lat="44.234087789582944" lon="11.594403886370365"><ele>524.0</ele><time>2026-04-18T09:17:50Z</time></trkpt><trkpt lat="44.23417575209142" lon="11.594390607796546"><ele>525.8</ele><time>2026-04-18T09:17:52Z</time></trkpt><trkpt lat="44.23426346472162" lon="11.594375331904011"><ele>527.5999999999999</ele><time>2026-04-18T09:17:54Z</time></trkpt><trkpt lat="44.23435157484912" lon="11.59435933780777"><ele>529.4</ele><time>2026-04-18T09:17:56Z</time></trkpt><trkpt lat="44.234441168954035" lon="11.59436248053095"><ele>531.1999999999999</ele><time>2026-04-18T09:17:58Z</time></trkpt><trkpt lat="44.234541344409124" lon="11.5943995417898"><ele>533.0</ele><time>2026-04-18T09:18:00Z</time></trkpt><trkpt lat="44.23462652290568" lon="11.594450438530439"><ele>533.0</ele><time>2026-04-18T09:18:02Z</time></trkpt><trkpt lat="44.2347014984172" lon="11.59449671205329"><ele>533.0</ele><time>2026-04-18T09:18:04Z</time></trkpt><trkpt lat="44.234781227128984" lon="11.594536295653423"><ele>533.0</ele><time>2026-04-18T09:18:06Z</time></trkpt><trkpt lat="44.23485533926052" lon="11.594573054887038"><ele>533.0</ele><time>2026-04-18T09:18:08Z</time></trkpt><trkpt lat="44.23492271669245" lon="11.594616947830167"><ele>533.0</ele><time>2026-04-18T09:18:10Z</time></trkpt><trkpt lat="44.23498276858066" lon="11.594655592152076"><ele>533.0</ele><time>2026-04-18T09:18:12Z</time></trkpt><trkpt lat="44.235040894284374" lon="11.59471456168368"><ele>533.1666666666666</ele><time>2026-04-18T09:18:15Z</time></trkpt><trkpt lat="44.235088914988836" lon="11.594826785559079"><ele>533.3333333333333</ele><time>2026-04-18T09:18:18Z</time></trkpt><trkpt lat="44.23514909774546" lon="11.594897830067044"><ele>533.5</ele><time>2026-04-18T09:18:21Z</time></trkpt><trkpt lat="44.23509800979547" lon="11.595016518584845"><ele>533.6666666666666</ele><time>2026-04-18T09:18:22Z</time></trkpt><trkpt lat="44.23509343964213" lon="11.595125543390667"><ele>533.8333333333334</ele><time>2026-04-18T09:18:24.001Z</time></trkpt><trkpt lat="44.235091812988415" lon="11.595238675781"><ele>534.0</ele><time>2026-04-18T09:18:26.001Z</time></trkpt><trkpt lat="44.235064732801355" lon="11.595367460013295"><ele>533.5</ele><time>2026-04-18T09:18:28.001Z</time></trkpt><trkpt lat="44.2350143838943" lon="11.595512604137154"><ele>533.0</ele><time>2026-04-18T09:18:30.001Z</time></trkpt><trkpt lat="44.23494977818117" lon="11.595662139208745"><ele>532.5</ele><time>2026-04-18T09:18:32.001Z</time></trkpt><trkpt lat="44.234907883062114" lon="11.595736351458276"><ele>532.0</ele><time>2026-04-18T09:18:33.001Z</time></trkpt><trkpt lat="44.23486544005937" lon="11.595819863220065"><ele>531.5</ele><time>2026-04-18T09:18:34.001Z</time></trkpt><trkpt lat="44.23484887928215" lon="11.59591025531868"><ele>531.0</ele><time>2026-04-18T09:18:35.001Z</time></trkpt><trkpt lat="44.2348752795776" lon="11.596014076358516"><ele>531.0</ele><time>2026-04-18T09:18:36.001Z</time></trkpt><trkpt lat="44.23491679178742" lon="11.596106347038388"><ele>531.0</ele><time>2026-04-18T09:18:37.001Z</time></trkpt><trkpt lat="44.23498216486839" lon="11.5961728344469"><ele>531.0</ele><time>2026-04-18T09:18:38.001Z</time></trkpt><trkpt lat="44.235059947131155" lon="11.596219720603482"><ele>531.0</ele><time>2026-04-18T09:18:39.001Z</time></trkpt><trkpt lat="44.23513918772306" lon="11.596246004571245"><ele>531.0</ele><time>2026-04-18T09:18:40.001Z</time></trkpt><trkpt lat="44.23522493406638" lon="11.59628946393019"><ele>531.0</ele><time>2026-04-18T09:18:41.001Z</time></trkpt><trkpt lat="44.235305784667894" lon="11.596350807845726"><ele>533.3333333333334</ele><time>2026-04-18T09:18:42.001Z</time></trkpt><trkpt lat="44.23539024670694" lon="11.596408665392923"><ele>535.6666666666666</ele><time>2026-04-18T09:18:43.001Z</time></trkpt><trkpt lat="44.235466014464265" lon="11.596484664919341"><ele>538.0</ele><time>2026-04-18T09:18:44.001Z</time></trkpt><trkpt lat="44.23552566239163" lon="11.596576797967774"><ele>540.3333333333333</ele><time>2026-04-18T09:18:45.001Z</time></trkpt><trkpt lat="44.235575280940566" lon="11.596680248005017"><ele>542.6666666666666</ele><time>2026-04-18T09:18:46.001Z</time></trkpt><trkpt lat="44.23561299305122" lon="11.59678370514234"><ele>545.0</ele><time>2026-04-18T09:18:47.001Z</time></trkpt><trkpt lat="44.235642907929154" lon="11.596887637191626"><ele>545.0</ele><time>2026-04-18T09:18:48.001Z</time></trkpt><trkpt lat="44.235668235741706" lon="11.596998405453206"><ele>545.0</ele><time>2026-04-18T09:18:49.001Z</time></trkpt><trkpt lat="44.235678218789495" lon="11.597111985256472"><ele>545.0</ele><time>2026-04-18T09:18:50.001Z</time></trkpt><trkpt lat="44.235670488998586" lon="11.597229322051382"><ele>545.0</ele><time>2026-04-18T09:18:51.001Z</time></trkpt><trkpt lat="44.23564691968542" lon="11.597340333571978"><ele>545.0</ele><time>2026-04-18T09:18:52.001Z</time></trkpt><trkpt lat="44.23562653177762" lon="11.597450081197447"><ele>545.0</ele><time>2026-04-18T09:18:53.001Z</time></trkpt><trkpt lat="44.23561525890645" lon="11.597564985796872"><ele>542.0</ele><time>2026-04-18T09:18:54.001Z</time></trkpt><trkpt lat="44.23561581307265" lon="11.59767738475607"><ele>539.0</ele><time>2026-04-18T09:18:55.001Z</time></trkpt><trkpt lat="44.23563066286305" lon="11.597787811731468"><ele>536.0</ele><time>2026-04-18T09:18:56.001Z</time></trkpt><trkpt lat="44.235662032703985" lon="11.59788708075199"><ele>533.0</ele><time>2026-04-18T09:18:57.001Z</time></trkpt><trkpt lat="44.23568832968219" lon="11.597981573610998"><ele>530.0</ele><time>2026-04-18T09:18:58.001Z</time></trkpt><trkpt lat="44.23572294235487" lon="11.59807202925572"><ele>527.0</ele><time>2026-04-18T09:18:59.001Z</time></trkpt><trkpt lat="44.23576421118287" lon="11.598156521354015"><ele>527.0</ele><time>2026-04-18T09:19:00.001Z</time></trkpt><trkpt lat="44.23580624056794" lon="11.598242028929878"><ele>527.0</ele><time>2026-04-18T09:19:01.001Z</time></trkpt><trkpt lat="44.23585466339867" lon="11.598332296054075"><ele>527.0</ele><time>2026-04-18T09:19:02.001Z</time></trkpt><trkpt lat="44.23590872269451" lon="11.59843070826759"><ele>527.0</ele><time>2026-04-18T09:19:03.001Z</time></trkpt><trkpt lat="44.235961048250054" lon="11.598537828193441"><ele>527.0</ele><time>2026-04-18T09:19:04.001Z</time></trkpt><trkpt lat="44.23601225469467" lon="11.598648431631009"><ele>527.0</ele><time>2026-04-18T09:19:05.001Z</time></trkpt><trkpt lat="44.236043139395036" lon="11.598777700455686"><ele>523.8000000000001</ele><time>2026-04-18T09:19:06.001Z</time></trkpt><trkpt lat="44.236056237179035" lon="11.598910266158276"><ele>520.6</ele><time>2026-04-18T09:19:07.001Z</time></trkpt><trkpt lat="44.23604722442395" lon="11.599054295820864"><ele>517.4000000000001</ele><time>2026-04-18T09:19:08.001Z</time></trkpt><trkpt lat="44.23601345317352" lon="11.599202630911165"><ele>514.2</ele><time>2026-04-18T09:19:09.001Z</time></trkpt><trkpt lat="44.235975773094125" lon="11.599346094384215"><ele>511.0</ele><time>2026-04-18T09:19:10.001Z</time></trkpt><trkpt lat="44.23593366304905" lon="11.599467154539022"><ele>509.0</ele><time>2026-04-18T09:19:11.001Z</time></trkpt><trkpt lat="44.235878146434466" lon="11.599589168788695"><ele>507.0</ele><time>2026-04-18T09:19:12.001Z</time></trkpt><trkpt lat="44.23583463606674" lon="11.599689571399113"><ele>505.0</ele><time>2026-04-18T09:19:13.001Z</time></trkpt><trkpt lat="44.235575789106406" lon="11.600076447783682"><ele>505.0</ele><time>2026-04-18T09:19:14.001Z</time></trkpt><trkpt lat="44.23573410366953" lon="11.60040274405344"><ele>505.0</ele><time>2026-04-18T09:19:15.001Z</time></trkpt><trkpt lat="44.236082060328435" lon="11.6002439390621"><ele>505.0</ele><time>2026-04-18T09:19:16.001Z</time></trkpt><trkpt lat="44.23619539705792" lon="11.600329961195515"><ele>505.0</ele><time>2026-04-18T09:19:17.001Z</time></trkpt><trkpt lat="44.236268558812505" lon="11.60044442335423"><ele>505.0</ele><time>2026-04-18T09:19:18.001Z</time></trkpt><trkpt lat="44.23636106313174" lon="11.600546523187441"><ele>505.0</ele><time>2026-04-18T09:19:19.001Z</time></trkpt><trkpt lat="44.236463434486055" lon="11.600619431416668"><ele>502.25</ele><time>2026-04-18T09:19:20.001Z</time></trkpt><trkpt lat="44.23658086086138" lon="11.600618699160389"><ele>499.5</ele><time>2026-04-18T09:19:21.001Z</time></trkpt><trkpt lat="44.23668186224431" lon="11.600632705513588"><ele>496.75</ele><time>2026-04-18T09:19:22.001Z</time></trkpt><trkpt lat="44.23679937687709" lon="11.600660485780987"><ele>494.0</ele><time>2026-04-18T09:19:23.001Z</time></trkpt><trkpt lat="44.236913122670224" lon="11.600680436427329"><ele>494.0</ele><time>2026-04-18T09:19:24.001Z</time></trkpt><trkpt lat="44.23701383686934" lon="11.600711406581135"><ele>494.0</ele><time>2026-04-18T09:19:25.001Z</time></trkpt><trkpt lat="44.23713358881665" lon="11.600746171492112"><ele>494.0</ele><time>2026-04-18T09:19:26.001Z</time></trkpt><trkpt lat="44.237244890474415" lon="11.60080886996077"><ele>494.0</ele><time>2026-04-18T09:19:27.001Z</time></trkpt><trkpt lat="44.23733524127896" lon="11.600892755139773"><ele>495.4</ele><time>2026-04-18T09:19:28.001Z</time></trkpt><trkpt lat="44.237471608002345" lon="11.600886166053542"><ele>496.79999999999995</ele><time>2026-04-18T09:19:29.001Z</time></trkpt><trkpt lat="44.23754595528495" lon="11.600972274476646"><ele>498.20000000000005</ele><time>2026-04-18T09:19:30.001Z</time></trkpt><trkpt lat="44.237589846319594" lon="11.601059234738718"><ele>499.6</ele><time>2026-04-18T09:19:31.001Z</time></trkpt><trkpt lat="44.237644748778536" lon="11.601134179403694"><ele>501.0</ele><time>2026-04-18T09:19:32.001Z</time></trkpt><trkpt lat="44.23773465820835" lon="11.601226417331885"><ele>500.8</ele><time>2026-04-18T09:19:34.001Z</time></trkpt><trkpt lat="44.23784016557724" lon="11.601277231981474"><ele>500.6</ele><time>2026-04-18T09:19:36.001Z</time></trkpt><trkpt lat="44.23792944528976" lon="11.601326784538468"><ele>500.4</ele><time>2026-04-18T09:19:38Z</time></trkpt><trkpt lat="44.2380228251444" lon="11.601381173656984"><ele>500.2</ele><time>2026-04-18T09:19:40Z</time></trkpt><trkpt lat="44.238112332780844" lon="11.601428205395592"><ele>500.0</ele><time>2026-04-18T09:19:42Z</time></trkpt><trkpt lat="44.23820921232203" lon="11.601483122194495"><ele>499.99999999999994</ele><time>2026-04-18T09:19:44Z</time></trkpt><trkpt lat="44.23829677177463" lon="11.601529170961074"><ele>500.0</ele><time>2026-04-18T09:19:46Z</time></trkpt><trkpt lat="44.238358184177265" lon="11.601573110394526"><ele>500.0</ele><time>2026-04-18T09:19:48Z</time></trkpt><trkpt lat="44.23842467065473" lon="11.601567843887986"><ele>500.0</ele><time>2026-04-18T09:19:50Z</time></trkpt><trkpt lat="44.238497892890734" lon="11.601582016284707"><ele>499.99999999999994</ele><time>2026-04-18T09:19:53Z</time></trkpt><trkpt lat="44.23855848589846" lon="11.6017540193285"><ele>500.0</ele><time>2026-04-18T09:19:56Z</time></trkpt><trkpt lat="44.23860293852082" lon="11.601834020516515"><ele>500.0</ele><time>2026-04-18T09:19:58Z</time></trkpt><trkpt lat="44.238666125413296" lon="11.601929998683165"><ele>500.0</ele><time>2026-04-18T09:20:01Z</time></trkpt><trkpt lat="44.238670586850475" lon="11.601828913656178"><ele>500.0</ele><time>2026-04-18T09:20:09Z</time></trkpt><trkpt lat="44.23865148989101" lon="11.601739832098708"><ele>500.0</ele><time>2026-04-18T09:20:12Z</time></trkpt><trkpt lat="44.238659716278065" lon="11.601647503056373"><ele>500.0</ele><time>2026-04-18T09:20:16Z</time></trkpt><trkpt lat="44.23870349066464" lon="11.601584233483425"><ele>500.0</ele><time>2026-04-18T09:20:22Z</time></trkpt><trkpt lat="44.238751524230565" lon="11.601648954786803"><ele>500.0</ele><time>2026-04-18T09:20:27Z</time></trkpt><trkpt lat="44.238813485991976" lon="11.601703945912519"><ele>499.99999999999994</ele><time>2026-04-18T09:20:30Z</time></trkpt><trkpt lat="44.238869452430194" lon="11.60175791055271"><ele>500.0</ele><time>2026-04-18T09:20:33Z</time></trkpt><trkpt lat="44.238922303318674" lon="11.601809709931683"><ele>500.0</ele><time>2026-04-18T09:20:37Z</time></trkpt><trkpt lat="44.23899533277553" lon="11.601897176868148"><ele>500.0</ele><time>2026-04-18T09:20:41Z</time></trkpt><trkpt lat="44.23907063655618" lon="11.601973900469414"><ele>499.99999999999994</ele><time>2026-04-18T09:20:45Z</time></trkpt><trkpt lat="44.239120924826" lon="11.602051891216306"><ele>500.0</ele><time>2026-04-18T09:20:48Z</time></trkpt><trkpt lat="44.239177861206166" lon="11.60213110549533"><ele>501.99999999999994</ele><time>2026-04-18T09:20:51Z</time></trkpt><trkpt lat="44.23924464689812" lon="11.602218587395278"><ele>504.0</ele><time>2026-04-18T09:20:54.001Z</time></trkpt><trkpt lat="44.23930025245011" lon="11.602318588727341"><ele>506.0</ele><time>2026-04-18T09:20:57.001Z</time></trkpt><trkpt lat="44.239363949113184" lon="11.602372655027803"><ele>508.0</ele><time>2026-04-18T09:20:59.001Z</time></trkpt><trkpt lat="44.239456439435315" lon="11.602415460620737"><ele>509.99999999999994</ele><time>2026-04-18T09:21:03.001Z</time></trkpt><trkpt lat="44.239511526332976" lon="11.602464950628175"><ele>512.0</ele><time>2026-04-18T09:21:06.001Z</time></trkpt><trkpt lat="44.23972636378248" lon="11.602489621019343"><ele>511.99999999999994</ele><time>2026-04-18T09:21:14.001Z</time></trkpt><trkpt lat="44.23979289309947" lon="11.602520515617885"><ele>512.0</ele><time>2026-04-18T09:21:17.001Z</time></trkpt><trkpt lat="44.23987256050451" lon="11.602538690640491"><ele>512.0</ele><time>2026-04-18T09:21:21.001Z</time></trkpt><trkpt lat="44.23994033883614" lon="11.602615785565968"><ele>512.0</ele><time>2026-04-18T09:21:24.001Z</time></trkpt><trkpt lat="44.23999848214609" lon="11.602671146700585"><ele>511.99999999999994</ele><time>2026-04-18T09:21:27.001Z</time></trkpt><trkpt lat="44.24006905175708" lon="11.602729214059718"><ele>512.0</ele><time>2026-04-18T09:21:30.001Z</time></trkpt><trkpt lat="44.24012101290286" lon="11.602789515164554"><ele>514.1666666666666</ele><time>2026-04-18T09:21:33.001Z</time></trkpt><trkpt lat="44.24019343803606" lon="11.602852338604794"><ele>516.3333333333333</ele><time>2026-04-18T09:21:35.001Z</time></trkpt><trkpt lat="44.240275085435556" lon="11.602897741969835"><ele>518.5</ele><time>2026-04-18T09:21:38.001Z</time></trkpt><trkpt lat="44.240327231650056" lon="11.602967328982366"><ele>520.6666666666666</ele><time>2026-04-18T09:21:41.001Z</time></trkpt><trkpt lat="44.24038615211222" lon="11.6030355691039"><ele>522.8333333333334</ele><time>2026-04-18T09:21:43.001Z</time></trkpt><trkpt lat="44.2404546551275" lon="11.60312061159826"><ele>525.0</ele><time>2026-04-18T09:21:46Z</time></trkpt><trkpt lat="44.24049434930962" lon="11.603204827918843"><ele>525.0</ele><time>2026-04-18T09:21:48Z</time></trkpt><trkpt lat="44.24053980320827" lon="11.603275260256787"><ele>525.0</ele><time>2026-04-18T09:21:50Z</time></trkpt><trkpt lat="44.24055956755092" lon="11.60336965078147"><ele>525.0</ele><time>2026-04-18T09:21:52Z</time></trkpt><trkpt lat="44.24055272204043" lon="11.603492064247742"><ele>525.0</ele><time>2026-04-18T09:21:54Z</time></trkpt><trkpt lat="44.240501215761284" lon="11.603646542663043"><ele>525.0</ele><time>2026-04-18T09:21:56Z</time></trkpt><trkpt lat="44.24044268882264" lon="11.603791029073953"><ele>526.0</ele><time>2026-04-18T09:21:58Z</time></trkpt><trkpt lat="44.24041267371332" lon="11.60393030216828"><ele>527.0</ele><time>2026-04-18T09:22:00Z</time></trkpt><trkpt lat="44.24040075585788" lon="11.604038706065682"><ele>528.0</ele><time>2026-04-18T09:22:01Z</time></trkpt><trkpt lat="44.2403701740794" lon="11.604115869039543"><ele>529.0</ele><time>2026-04-18T09:22:02Z</time></trkpt><trkpt lat="44.240282099253164" lon="11.604231750727743"><ele>530.0</ele><time>2026-04-18T09:22:04Z</time></trkpt><trkpt lat="44.240228520407484" lon="11.604323090786458"><ele>530.0</ele><time>2026-04-18T09:22:05Z</time></trkpt><trkpt lat="44.2401739818361" lon="11.604398800471934"><ele>530.0</ele><time>2026-04-18T09:22:06Z</time></trkpt><trkpt lat="44.24011452640996" lon="11.604441814690249"><ele>530.0</ele><time>2026-04-18T09:22:07Z</time></trkpt><trkpt lat="44.24001197319709" lon="11.604453293267586"><ele>530.0</ele><time>2026-04-18T09:22:08Z</time></trkpt><trkpt lat="44.239959733024" lon="11.604505928408132"><ele>530.0</ele><time>2026-04-18T09:22:09Z</time></trkpt><trkpt lat="44.239934663744016" lon="11.60460235467575"><ele>530.0</ele><time>2026-04-18T09:22:10Z</time></trkpt><trkpt lat="44.23985992133454" lon="11.604744596994802"><ele>528.0</ele><time>2026-04-18T09:22:12Z</time></trkpt><trkpt lat="44.23975600867324" lon="11.60482982603012"><ele>526.0</ele><time>2026-04-18T09:22:14Z</time></trkpt><trkpt lat="44.23967831887374" lon="11.604880264657577"><ele>524.0</ele><time>2026-04-18T09:22:16Z</time></trkpt><trkpt lat="44.23960196216739" lon="11.604902391925108"><ele>522.0</ele><time>2026-04-18T09:22:17Z</time></trkpt><trkpt lat="44.239521210219486" lon="11.604946660823256"><ele>520.0</ele><time>2026-04-18T09:22:19Z</time></trkpt><trkpt lat="44.239455326228565" lon="11.604957277563424"><ele>518.0</ele><time>2026-04-18T09:22:20Z</time></trkpt><trkpt lat="44.23938470470334" lon="11.604937008339501"><ele>518.0</ele><time>2026-04-18T09:22:21Z</time></trkpt><trkpt lat="44.239364555560975" lon="11.605040706477832"><ele>518.0</ele><time>2026-04-18T09:22:23Z</time></trkpt><trkpt lat="44.239331418996414" lon="11.605120882066897"><ele>518.0</ele><time>2026-04-18T09:22:24Z</time></trkpt><trkpt lat="44.23926416578076" lon="11.605143369923216"><ele>518.0</ele><time>2026-04-18T09:22:25Z</time></trkpt><trkpt lat="44.23919116620507" lon="11.605258750369854"><ele>518.0</ele><time>2026-04-18T09:22:26Z</time></trkpt><trkpt lat="44.23913110189129" lon="11.605338098398196"><ele>518.0</ele><time>2026-04-18T09:22:27Z</time></trkpt><trkpt lat="44.23905602410292" lon="11.60542761052023"><ele>516.8333333333333</ele><time>2026-04-18T09:22:28Z</time></trkpt><trkpt lat="44.23896834713549" lon="11.605465631430603"><ele>515.6666666666666</ele><time>2026-04-18T09:22:29Z</time></trkpt><trkpt lat="44.238879466025054" lon="11.60546012915686"><ele>514.5</ele><time>2026-04-18T09:22:31Z</time></trkpt><trkpt lat="44.23881897333586" lon="11.605491326958518"><ele>513.3333333333334</ele><time>2026-04-18T09:22:32Z</time></trkpt><trkpt lat="44.23882039223433" lon="11.605619713288311"><ele>512.1666666666667</ele><time>2026-04-18T09:22:34Z</time></trkpt><trkpt lat="44.23887354507575" lon="11.605722091649685"><ele>511.0</ele><time>2026-04-18T09:22:36Z</time></trkpt><trkpt lat="44.238978707619275" lon="11.605786354113972"><ele>511.0</ele><time>2026-04-18T09:22:38Z</time></trkpt><trkpt lat="44.23908642678732" lon="11.605826984428035"><ele>511.0</ele><time>2026-04-18T09:22:40Z</time></trkpt><trkpt lat="44.23917729472874" lon="11.605797926075944"><ele>511.0</ele><time>2026-04-18T09:22:42Z</time></trkpt><trkpt lat="44.23925635279727" lon="11.605726814522125"><ele>511.0</ele><time>2026-04-18T09:22:43Z</time></trkpt><trkpt lat="44.23933491103991" lon="11.605670182865275"><ele>511.0</ele><time>2026-04-18T09:22:44Z</time></trkpt><trkpt lat="44.23942288814868" lon="11.605669750825943"><ele>511.0</ele><time>2026-04-18T09:22:45Z</time></trkpt><trkpt lat="44.23949887390517" lon="11.60564757556492"><ele>511.0</ele><time>2026-04-18T09:22:46Z</time></trkpt><trkpt lat="44.23959317304607" lon="11.605713776342464"><ele>511.0</ele><time>2026-04-18T09:22:48Z</time></trkpt><trkpt lat="44.239664373658485" lon="11.605719829542405"><ele>511.0</ele><time>2026-04-18T09:22:49Z</time></trkpt><trkpt lat="44.23978727364213" lon="11.605788121574921"><ele>511.0</ele><time>2026-04-18T09:22:51Z</time></trkpt><trkpt lat="44.239868568200365" lon="11.605818852219414"><ele>512.8333333333334</ele><time>2026-04-18T09:22:52Z</time></trkpt><trkpt lat="44.23995222616023" lon="11.605850720519168"><ele>514.6666666666667</ele><time>2026-04-18T09:22:53Z</time></trkpt><trkpt lat="44.24002315422188" lon="11.605864922716831"><ele>516.5</ele><time>2026-04-18T09:22:54Z</time></trkpt><trkpt lat="44.24008716651084" lon="11.605880835349495"><ele>518.3333333333334</ele><time>2026-04-18T09:22:55Z</time></trkpt><trkpt lat="44.24017918311951" lon="11.605956133485769"><ele>520.1666666666666</ele><time>2026-04-18T09:22:57Z</time></trkpt><trkpt lat="44.240214276406974" lon="11.606047865950782"><ele>522.0</ele><time>2026-04-18T09:22:59Z</time></trkpt><trkpt lat="44.24022066958288" lon="11.60614129393074"><ele>517.5714285714286</ele><time>2026-04-18T09:23:00Z</time></trkpt><trkpt lat="44.2402370714154" lon="11.606236584933683"><ele>513.1428571428571</ele><time>2026-04-18T09:23:01Z</time></trkpt><trkpt lat="44.24025027184598" lon="11.606339121593301"><ele>508.71428571428567</ele><time>2026-04-18T09:23:02Z</time></trkpt><trkpt lat="44.240291774544794" lon="11.606413639041808"><ele>504.2857142857143</ele><time>2026-04-18T09:23:03Z</time></trkpt><trkpt lat="44.24034185465078" lon="11.6064776493499"><ele>499.8571428571428</ele><time>2026-04-18T09:23:04.001Z</time></trkpt><trkpt lat="44.24040673477547" lon="11.606528687162491"><ele>495.4285714285714</ele><time>2026-04-18T09:23:05.001Z</time></trkpt><trkpt lat="44.24047676763297" lon="11.606598486335331"><ele>491.0</ele><time>2026-04-18T09:23:06.001Z</time></trkpt><trkpt lat="44.240543441574886" lon="11.606691918910451"><ele>491.0</ele><time>2026-04-18T09:23:07.001Z</time></trkpt><trkpt lat="44.24058778321642" lon="11.606786859665712"><ele>491.0</ele><time>2026-04-18T09:23:08.001Z</time></trkpt><trkpt lat="44.24066305031594" lon="11.606862996644944"><ele>491.0</ele><time>2026-04-18T09:23:09.001Z</time></trkpt><trkpt lat="44.24073508817991" lon="11.607014235732233"><ele>491.0</ele><time>2026-04-18T09:23:10.001Z</time></trkpt><trkpt lat="44.24078931393975" lon="11.607154465439892"><ele>491.0</ele><time>2026-04-18T09:23:12.001Z</time></trkpt><trkpt lat="44.240856792071035" lon="11.607261981633217"><ele>490.8</ele><time>2026-04-18T09:23:15.001Z</time></trkpt><trkpt lat="44.24092516292153" lon="11.6073708177023"><ele>490.6</ele><time>2026-04-18T09:23:17.001Z</time></trkpt><trkpt lat="44.24100417685328" lon="11.607408569462462"><ele>490.4</ele><time>2026-04-18T09:23:18.001Z</time></trkpt><trkpt lat="44.24112423687848" lon="11.607509538421"><ele>490.2</ele><time>2026-04-18T09:23:20.001Z</time></trkpt><trkpt lat="44.24119013050536" lon="11.607545529010036"><ele>490.0</ele><time>2026-04-18T09:23:22.001Z</time></trkpt><trkpt lat="44.24124367499067" lon="11.607643094114486"><ele>486.25</ele><time>2026-04-18T09:23:25.001Z</time></trkpt><trkpt lat="44.24138515423309" lon="11.607871451490066"><ele>482.5</ele><time>2026-04-18T09:23:33.001Z</time></trkpt><trkpt lat="44.24147346399241" lon="11.607980335907456"><ele>478.75</ele><time>2026-04-18T09:23:35.001Z</time></trkpt><trkpt lat="44.24157503524067" lon="11.608019793295504"><ele>475.0</ele><time>2026-04-18T09:23:37.001Z</time></trkpt><trkpt lat="44.241633496252334" lon="11.608072353552505"><ele>475.00000000000006</ele><time>2026-04-18T09:23:38.001Z</time></trkpt><trkpt lat="44.24171597924913" lon="11.608153812561651"><ele>475.0</ele><time>2026-04-18T09:23:40.001Z</time></trkpt><trkpt lat="44.24177190717771" lon="11.608198464326545"><ele>475.0</ele><time>2026-04-18T09:23:41.001Z</time></trkpt><trkpt lat="44.241873396764376" lon="11.608175346281437"><ele>475.0</ele><time>2026-04-18T09:23:43.001Z</time></trkpt><trkpt lat="44.241941970926064" lon="11.608252278897233"><ele>475.00000000000006</ele><time>2026-04-18T09:23:45.001Z</time></trkpt><trkpt lat="44.24201041244312" lon="11.608271198027422"><ele>475.0</ele><time>2026-04-18T09:23:49.001Z</time></trkpt><trkpt lat="44.24208850885365" lon="11.608267574580298"><ele>475.00000000000006</ele><time>2026-04-18T09:23:52Z</time></trkpt><trkpt lat="44.242149679057036" lon="11.608321776367973"><ele>475.0</ele><time>2026-04-18T09:23:54Z</time></trkpt><trkpt lat="44.24224630147835" lon="11.60839462457222"><ele>475.0</ele><time>2026-04-18T09:23:56Z</time></trkpt><trkpt lat="44.242313842638396" lon="11.60843289336082"><ele>475.0</ele><time>2026-04-18T09:23:57Z</time></trkpt><trkpt lat="44.24237755125027" lon="11.608514091662082"><ele>475.00000000000006</ele><time>2026-04-18T09:23:58Z</time></trkpt><trkpt lat="44.24241940926327" lon="11.608592593505985"><ele>475.0</ele><time>2026-04-18T09:23:59Z</time></trkpt><trkpt lat="44.24246359225638" lon="11.608715834390093"><ele>473.1666666666667</ele><time>2026-04-18T09:24:00Z</time></trkpt><trkpt lat="44.242516384082734" lon="11.608802031442211"><ele>471.33333333333337</ele><time>2026-04-18T09:24:01Z</time></trkpt><trkpt lat="44.24258033411437" lon="11.608858753782581"><ele>469.5</ele><time>2026-04-18T09:24:02Z</time></trkpt><trkpt lat="44.24263162305905" lon="11.608915220862464"><ele>467.66666666666663</ele><time>2026-04-18T09:24:03Z</time></trkpt><trkpt lat="44.24270311510501" lon="11.60902226473369"><ele>465.8333333333333</ele><time>2026-04-18T09:24:05Z</time></trkpt><trkpt lat="44.24274430359228" lon="11.609095042686254"><ele>464.0</ele><time>2026-04-18T09:24:06Z</time></trkpt><trkpt lat="44.24278393998984" lon="11.609166670764289"><ele>464.0</ele><time>2026-04-18T09:24:07Z</time></trkpt><trkpt lat="44.24284414971418" lon="11.609286706093243"><ele>464.0</ele><time>2026-04-18T09:24:09Z</time></trkpt><trkpt lat="44.24289549291058" lon="11.609429696653217"><ele>464.0</ele><time>2026-04-18T09:24:11Z</time></trkpt><trkpt lat="44.242933004011405" lon="11.609551899627183"><ele>464.0</ele><time>2026-04-18T09:24:13Z</time></trkpt><trkpt lat="44.2430059026693" lon="11.609682493310402"><ele>464.0</ele><time>2026-04-18T09:24:15Z</time></trkpt><trkpt lat="44.24304889864611" lon="11.609753715067912"><ele>463.8333333333333</ele><time>2026-04-18T09:24:16Z</time></trkpt><trkpt lat="44.24308742026417" lon="11.609824321326476"><ele>463.66666666666663</ele><time>2026-04-18T09:24:17Z</time></trkpt><trkpt lat="44.24312435955929" lon="11.609896330566182"><ele>463.5</ele><time>2026-04-18T09:24:18Z</time></trkpt><trkpt lat="44.2431574251806" lon="11.609972355908347"><ele>463.33333333333337</ele><time>2026-04-18T09:24:19Z</time></trkpt><trkpt lat="44.24322189574343" lon="11.610120774558554"><ele>463.1666666666667</ele><time>2026-04-18T09:24:21Z</time></trkpt><trkpt lat="44.243270790911815" lon="11.610258837198847"><ele>463.0</ele><time>2026-04-18T09:24:23Z</time></trkpt><trkpt lat="44.24330646708741" lon="11.61040696336902"><ele>463.0</ele><time>2026-04-18T09:24:25Z</time></trkpt><trkpt lat="44.243349751334854" lon="11.610538276761933"><ele>462.99999999999994</ele><time>2026-04-18T09:24:27Z</time></trkpt><trkpt lat="44.24340845836182" lon="11.610679880499346"><ele>462.99999999999994</ele><time>2026-04-18T09:24:29Z</time></trkpt><trkpt lat="44.24348607263228" lon="11.610801766895378"><ele>463.0</ele><time>2026-04-18T09:24:31Z</time></trkpt><trkpt lat="44.243538256557464" lon="11.61093627685829"><ele>463.0</ele><time>2026-04-18T09:24:33Z</time></trkpt><trkpt lat="44.24358435478528" lon="11.6110282580979"><ele>463.0</ele><time>2026-04-18T09:24:34Z</time></trkpt><trkpt lat="44.24363039443871" lon="11.611101986983206"><ele>462.99999999999994</ele><time>2026-04-18T09:24:35Z</time></trkpt><trkpt lat="44.24371885962102" lon="11.611242513831202"><ele>462.99999999999994</ele><time>2026-04-18T09:24:37Z</time></trkpt><trkpt lat="44.243798559904725" lon="11.611406264233485"><ele>463.0</ele><time>2026-04-18T09:24:39.001Z</time></trkpt><trkpt lat="44.243822893955844" lon="11.611503294070554"><ele>463.0</ele><time>2026-04-18T09:24:40.001Z</time></trkpt><trkpt lat="44.24383838930612" lon="11.611607363850304"><ele>463.2</ele><time>2026-04-18T09:24:41.001Z</time></trkpt><trkpt lat="44.24383737187405" lon="11.61170744358833"><ele>463.4</ele><time>2026-04-18T09:24:42.001Z</time></trkpt><trkpt lat="44.24383031674382" lon="11.61180014330316"><ele>463.59999999999997</ele><time>2026-04-18T09:24:43.001Z</time></trkpt><trkpt lat="44.2438296556133" lon="11.611967174245258"><ele>463.79999999999995</ele><time>2026-04-18T09:24:45.001Z</time></trkpt><trkpt lat="44.243834767407314" lon="11.612117636329197"><ele>464.0</ele><time>2026-04-18T09:24:47.001Z</time></trkpt><trkpt lat="44.24381701700691" lon="11.612271653499636"><ele>464.0</ele><time>2026-04-18T09:24:49.001Z</time></trkpt><trkpt lat="44.24379155857172" lon="11.612409012507841"><ele>464.0</ele><time>2026-04-18T09:24:51.001Z</time></trkpt><trkpt lat="44.24376987222656" lon="11.612553967942656"><ele>464.0</ele><time>2026-04-18T09:24:53.001Z</time></trkpt><trkpt lat="44.243700946130154" lon="11.612688729082377"><ele>464.0</ele><time>2026-04-18T09:24:55.001Z</time></trkpt><trkpt lat="44.24359222408454" lon="11.612755381943256"><ele>464.0</ele><time>2026-04-18T09:24:57.001Z</time></trkpt><trkpt lat="44.24347693876086" lon="11.612795611626021"><ele>464.8333333333333</ele><time>2026-04-18T09:24:59.001Z</time></trkpt><trkpt lat="44.24337100559804" lon="11.612847298228878"><ele>465.66666666666663</ele><time>2026-04-18T09:25:01.001Z</time></trkpt><trkpt lat="44.24324943201728" lon="11.61290088729528"><ele>466.5</ele><time>2026-04-18T09:25:03.001Z</time></trkpt><trkpt lat="44.24318769960428" lon="11.61293398606616"><ele>467.33333333333337</ele><time>2026-04-18T09:25:04.001Z</time></trkpt><trkpt lat="44.2431292860692" lon="11.61297679629742"><ele>468.1666666666667</ele><time>2026-04-18T09:25:05.001Z</time></trkpt><trkpt lat="44.24306139858913" lon="11.612990325894776"><ele>469.0</ele><time>2026-04-18T09:25:06.001Z</time></trkpt><trkpt lat="44.24298636989581" lon="11.61301684879979"><ele>469.00000000000006</ele><time>2026-04-18T09:25:07.001Z</time></trkpt><trkpt lat="44.24291481793743" lon="11.613037651417718"><ele>469.0</ele><time>2026-04-18T09:25:08.001Z</time></trkpt><trkpt lat="44.24284272535601" lon="11.613055249691326"><ele>469.0</ele><time>2026-04-18T09:25:09.001Z</time></trkpt><trkpt lat="44.24276975131046" lon="11.613067655181856"><ele>469.0</ele><time>2026-04-18T09:25:10.001Z</time></trkpt><trkpt lat="44.242699856889416" lon="11.613095740861986"><ele>469.00000000000006</ele><time>2026-04-18T09:25:11.001Z</time></trkpt><trkpt lat="44.242599259764404" lon="11.613073447634086"><ele>469.0</ele><time>2026-04-18T09:25:12.001Z</time></trkpt><trkpt lat="44.24246628531097" lon="11.613089750374929"><ele>469.00000000000006</ele><time>2026-04-18T09:25:14.001Z</time></trkpt><trkpt lat="44.24239257099886" lon="11.613091823378575"><ele>469.0</ele><time>2026-04-18T09:25:15.001Z</time></trkpt><trkpt lat="44.24232651245669" lon="11.613160037423686"><ele>469.0</ele><time>2026-04-18T09:25:16.001Z</time></trkpt><trkpt lat="44.24227854585204" lon="11.613249245132822"><ele>469.0</ele><time>2026-04-18T09:25:17.001Z</time></trkpt><trkpt lat="44.24226934069969" lon="11.613382994585939"><ele>469.00000000000006</ele><time>2026-04-18T09:25:18.001Z</time></trkpt><trkpt lat="44.242273146113234" lon="11.613497284759516"><ele>469.0</ele><time>2026-04-18T09:25:19.001Z</time></trkpt><trkpt lat="44.24228567200012" lon="11.613606683866475"><ele>467.2</ele><time>2026-04-18T09:25:20.001Z</time></trkpt><trkpt lat="44.24231268079461" lon="11.613739269608319"><ele>465.4</ele><time>2026-04-18T09:25:21.001Z</time></trkpt><trkpt lat="44.24237184295265" lon="11.613831191227787"><ele>463.6</ele><time>2026-04-18T09:25:22.001Z</time></trkpt><trkpt lat="44.242466082347455" lon="11.613880841691268"><ele>461.8</ele><time>2026-04-18T09:25:23.001Z</time></trkpt><trkpt lat="44.24253444776412" lon="11.61392590939238"><ele>460.0</ele><time>2026-04-18T09:25:24.001Z</time></trkpt><trkpt lat="44.24259769844405" lon="11.614010712577716"><ele>460.0</ele><time>2026-04-18T09:25:26.001Z</time></trkpt><trkpt lat="44.24266479440245" lon="11.614077312944458"><ele>460.0</ele><time>2026-04-18T09:25:28.001Z</time></trkpt><trkpt lat="44.242751884424734" lon="11.61416375954303"><ele>460.0</ele><time>2026-04-18T09:25:30.001Z</time></trkpt><trkpt lat="44.24297492077015" lon="11.613854673796787"><ele>460.00000000000006</ele><time>2026-04-18T09:25:31.001Z</time></trkpt><trkpt lat="44.243069709890186" lon="11.613880098653926"><ele>460.0</ele><time>2026-04-18T09:25:33.001Z</time></trkpt><trkpt lat="44.243165077712945" lon="11.613929650262405"><ele>460.0</ele><time>2026-04-18T09:25:35.001Z</time></trkpt><trkpt lat="44.24325708517168" lon="11.61399711930261"><ele>460.0</ele><time>2026-04-18T09:25:37.001Z</time></trkpt><trkpt lat="44.24331882977834" lon="11.614053974816976"><ele>460.00000000000006</ele><time>2026-04-18T09:25:38.001Z</time></trkpt><trkpt lat="44.243373504104305" lon="11.614106980999907"><ele>460.0</ele><time>2026-04-18T09:25:39.001Z</time></trkpt><trkpt lat="44.24343854859557" lon="11.614159396300623"><ele>461.0</ele><time>2026-04-18T09:25:40.001Z</time></trkpt><trkpt lat="44.243504329876984" lon="11.614229843819396"><ele>462.0</ele><time>2026-04-18T09:25:41.001Z</time></trkpt><trkpt lat="44.24356862905453" lon="11.614312695199645"><ele>463.0</ele><time>2026-04-18T09:25:42.001Z</time></trkpt><trkpt lat="44.24363512917779" lon="11.614401698228292"><ele>464.0</ele><time>2026-04-18T09:25:43.001Z</time></trkpt><trkpt lat="44.243697009890454" lon="11.614496211617816"><ele>465.0</ele><time>2026-04-18T09:25:44.001Z</time></trkpt><trkpt lat="44.2437702668607" lon="11.614602020568169"><ele>462.2</ele><time>2026-04-18T09:25:45.001Z</time></trkpt><trkpt lat="44.243836241392074" lon="11.614719374664604"><ele>459.4</ele><time>2026-04-18T09:25:46.001Z</time></trkpt><trkpt lat="44.243915484193835" lon="11.614820868743056"><ele>456.6</ele><time>2026-04-18T09:25:47.001Z</time></trkpt><trkpt lat="44.24396968188631" lon="11.614955051585738"><ele>453.8</ele><time>2026-04-18T09:25:48.001Z</time></trkpt><trkpt lat="44.24401503176838" lon="11.61510678086301"><ele>451.0</ele><time>2026-04-18T09:25:49.001Z</time></trkpt><trkpt lat="44.24405576387719" lon="11.615279382896727"><ele>450.20000000000005</ele><time>2026-04-18T09:25:50.001Z</time></trkpt><trkpt lat="44.24409821147179" lon="11.615430188185117"><ele>449.40000000000003</ele><time>2026-04-18T09:25:51.001Z</time></trkpt><trkpt lat="44.244137380180234" lon="11.615566120553721"><ele>448.6</ele><time>2026-04-18T09:25:52.001Z</time></trkpt><trkpt lat="44.24416667630088" lon="11.615649843987816"><ele>447.8</ele><time>2026-04-18T09:25:53.001Z</time></trkpt><trkpt lat="44.24424121546689" lon="11.615736327246198"><ele>447.0</ele><time>2026-04-18T09:25:55.001Z</time></trkpt><trkpt lat="44.24430178019726" lon="11.6157705327403"><ele>447.0</ele><time>2026-04-18T09:26:00.001Z</time></trkpt><trkpt lat="44.244366721955316" lon="11.61585897181845"><ele>447.0</ele><time>2026-04-18T09:26:05Z</time></trkpt><trkpt lat="44.244391625838" lon="11.615944953435012"><ele>447.0</ele><time>2026-04-18T09:26:08Z</time></trkpt><trkpt lat="44.244441602377634" lon="11.616019518162132"><ele>447.0</ele><time>2026-04-18T09:26:10Z</time></trkpt><trkpt lat="44.24450588700975" lon="11.616041271729443"><ele>447.0</ele><time>2026-04-18T09:26:12Z</time></trkpt><trkpt lat="44.24455115405199" lon="11.616115867728862"><ele>447.0</ele><time>2026-04-18T09:26:14Z</time></trkpt><trkpt lat="44.24461537287116" lon="11.616207156084725"><ele>446.0</ele><time>2026-04-18T09:26:16Z</time></trkpt><trkpt lat="44.24465930821583" lon="11.61630703362432"><ele>445.0</ele><time>2026-04-18T09:26:18Z</time></trkpt><trkpt lat="44.24470767936536" lon="11.61639313837562"><ele>444.0</ele><time>2026-04-18T09:26:20Z</time></trkpt><trkpt lat="44.244758242079925" lon="11.616461178880488"><ele>443.0</ele><time>2026-04-18T09:26:22Z</time></trkpt><trkpt lat="44.2448019139421" lon="11.616524566001216"><ele>442.0</ele><time>2026-04-18T09:26:24Z</time></trkpt><trkpt lat="44.24485219859987" lon="11.616640732915663"><ele>441.0</ele><time>2026-04-18T09:26:27Z</time></trkpt><trkpt lat="44.24486881534723" lon="11.616746968064177"><ele>443.8</ele><time>2026-04-18T09:26:29Z</time></trkpt><trkpt lat="44.24488800255929" lon="11.616849894555548"><ele>446.6</ele><time>2026-04-18T09:26:31Z</time></trkpt><trkpt lat="44.24490019911298" lon="11.616992425699493"><ele>449.4</ele><time>2026-04-18T09:26:33Z</time></trkpt><trkpt lat="44.244905066994484" lon="11.617160203676583"><ele>452.2</ele><time>2026-04-18T09:26:35Z</time></trkpt><trkpt lat="44.244893344704515" lon="11.61727356585133"><ele>455.0</ele><time>2026-04-18T09:26:37Z</time></trkpt><trkpt lat="44.2449014037154" lon="11.617375219653388"><ele>455.0</ele><time>2026-04-18T09:26:39Z</time></trkpt><trkpt lat="44.24489397383626" lon="11.617534366597614"><ele>455.0</ele><time>2026-04-18T09:26:41Z</time></trkpt><trkpt lat="44.244903193241164" lon="11.617701424813891"><ele>455.0</ele><time>2026-04-18T09:26:43Z</time></trkpt><trkpt lat="44.24488216610549" lon="11.617867379697516"><ele>455.0</ele><time>2026-04-18T09:26:45Z</time></trkpt><trkpt lat="44.24485925568488" lon="11.618026869908864"><ele>455.2</ele><time>2026-04-18T09:26:47.001Z</time></trkpt><trkpt lat="44.24485576162928" lon="11.618173000345134"><ele>455.4</ele><time>2026-04-18T09:26:49.001Z</time></trkpt><trkpt lat="44.24486332177678" lon="11.61832447659566"><ele>455.6</ele><time>2026-04-18T09:26:51.001Z</time></trkpt><trkpt lat="44.24487715650906" lon="11.618482193202384"><ele>455.8</ele><time>2026-04-18T09:26:53.001Z</time></trkpt><trkpt lat="44.244905254825476" lon="11.618628594348403"><ele>456.0</ele><time>2026-04-18T09:26:55.001Z</time></trkpt><trkpt lat="44.244951579618764" lon="11.618766943617494"><ele>456.6666666666667</ele><time>2026-04-18T09:26:57.001Z</time></trkpt><trkpt lat="44.24500622744446" lon="11.61889822520178"><ele>457.33333333333337</ele><time>2026-04-18T09:26:59.001Z</time></trkpt><trkpt lat="44.24507353744322" lon="11.61904271950508"><ele>458.0</ele><time>2026-04-18T09:27:01.001Z</time></trkpt><trkpt lat="44.245115308796365" lon="11.619124769254771"><ele>458.6666666666667</ele><time>2026-04-18T09:27:02.001Z</time></trkpt><trkpt lat="44.24516021281933" lon="11.619203062402347"><ele>459.33333333333337</ele><time>2026-04-18T09:27:03.001Z</time></trkpt><trkpt lat="44.2452001472659" lon="11.619278596018079"><ele>460.0</ele><time>2026-04-18T09:27:04.001Z</time></trkpt><trkpt lat="44.24524633979354" lon="11.619354620515269"><ele>460.00000000000006</ele><time>2026-04-18T09:27:05.001Z</time></trkpt><trkpt lat="44.2452947836738" lon="11.619435019349357"><ele>460.0</ele><time>2026-04-18T09:27:06.001Z</time></trkpt><trkpt lat="44.24532565525686" lon="11.619522035299289"><ele>460.0</ele><time>2026-04-18T09:27:07.001Z</time></trkpt><trkpt lat="44.24533903739713" lon="11.619616594081895"><ele>460.0</ele><time>2026-04-18T09:27:08.001Z</time></trkpt><trkpt lat="44.245358363305314" lon="11.619776657284094"><ele>460.00000000000006</ele><time>2026-04-18T09:27:10.001Z</time></trkpt><trkpt lat="44.24541847968264" lon="11.61986509328577"><ele>460.0</ele><time>2026-04-18T09:27:12.001Z</time></trkpt><trkpt lat="44.245467902140774" lon="11.61994372361482"><ele>460.00000000000006</ele><time>2026-04-18T09:27:14.001Z</time></trkpt><trkpt lat="44.24546900843567" lon="11.620035112425496"><ele>460.0</ele><time>2026-04-18T09:27:16.001Z</time></trkpt><trkpt lat="44.245457133956755" lon="11.620156374442043"><ele>460.0</ele><time>2026-04-18T09:27:18.001Z</time></trkpt><trkpt lat="44.24545161516278" lon="11.620311599474281"><ele>460.0</ele><time>2026-04-18T09:27:20.001Z</time></trkpt><trkpt lat="44.2454669858622" lon="11.620433911646119"><ele>460.00000000000006</ele><time>2026-04-18T09:27:21.001Z</time></trkpt><trkpt lat="44.24548579833074" lon="11.620554405834302"><ele>460.0</ele><time>2026-04-18T09:27:22.001Z</time></trkpt><trkpt lat="44.2454877411278" lon="11.62067409942115"><ele>459.99999999999994</ele><time>2026-04-18T09:27:23.001Z</time></trkpt><trkpt lat="44.245481561928756" lon="11.620789591724119"><ele>460.0</ele><time>2026-04-18T09:27:24.001Z</time></trkpt><trkpt lat="44.24547453677081" lon="11.620893520686513"><ele>459.99999999999994</ele><time>2026-04-18T09:27:25.001Z</time></trkpt><trkpt lat="44.24546391633071" lon="11.620985459662336"><ele>459.99999999999994</ele><time>2026-04-18T09:27:26.001Z</time></trkpt><trkpt lat="44.24544115461877" lon="11.621073420160862"><ele>460.0</ele><time>2026-04-18T09:27:27.001Z</time></trkpt><trkpt lat="44.245416622038974" lon="11.621161360088035"><ele>459.99999999999994</ele><time>2026-04-18T09:27:28.001Z</time></trkpt><trkpt lat="44.24540934430524" lon="11.621254699873464"><ele>459.99999999999994</ele><time>2026-04-18T09:27:29.001Z</time></trkpt><trkpt lat="44.24540027579758" lon="11.621434210403834"><ele>458.50000000000006</ele><time>2026-04-18T09:27:31.001Z</time></trkpt><trkpt lat="44.24539690225262" lon="11.621530983037902"><ele>457.0</ele><time>2026-04-18T09:27:32.001Z</time></trkpt><trkpt lat="44.24541582058991" lon="11.621629842436226"><ele>455.5</ele><time>2026-04-18T09:27:33.001Z</time></trkpt><trkpt lat="44.24543351706714" lon="11.621726630280623"><ele>454.0</ele><time>2026-04-18T09:27:34.001Z</time></trkpt><trkpt lat="44.245451328016564" lon="11.62183705163997"><ele>452.50000000000006</ele><time>2026-04-18T09:27:35.001Z</time></trkpt><trkpt lat="44.24548082785057" lon="11.621944891802652"><ele>451.0</ele><time>2026-04-18T09:27:36.001Z</time></trkpt><trkpt lat="44.2455063303204" lon="11.622070887738207"><ele>449.00000000000006</ele><time>2026-04-18T09:27:37.001Z</time></trkpt><trkpt lat="44.24551321287516" lon="11.622196785718906"><ele>447.0</ele><time>2026-04-18T09:27:38.001Z</time></trkpt><trkpt lat="44.24552287705375" lon="11.622328391182755"><ele>445.0</ele><time>2026-04-18T09:27:39.001Z</time></trkpt><trkpt lat="44.24554308471741" lon="11.622443280181722"><ele>443.0</ele><time>2026-04-18T09:27:40.001Z</time></trkpt><trkpt lat="44.245602129522034" lon="11.622538712475807"><ele>441.00000000000006</ele><time>2026-04-18T09:27:41.001Z</time></trkpt><trkpt lat="44.245660148350034" lon="11.622632621962687"><ele>439.0</ele><time>2026-04-18T09:27:42.001Z</time></trkpt><trkpt lat="44.24571923807693" lon="11.622736350390598"><ele>436.5</ele><time>2026-04-18T09:27:43.001Z</time></trkpt><trkpt lat="44.24579911261217" lon="11.622866797720413"><ele>434.0</ele><time>2026-04-18T09:27:44.001Z</time></trkpt><trkpt lat="44.245906866587" lon="11.623028285682183"><ele>431.5</ele><time>2026-04-18T09:27:45.001Z</time></trkpt><trkpt lat="44.24599491756259" lon="11.623190524694053"><ele>429.0</ele><time>2026-04-18T09:27:46.001Z</time></trkpt><trkpt lat="44.246079064330615" lon="11.623347599435608"><ele>429.0</ele><time>2026-04-18T09:27:47.001Z</time></trkpt><trkpt lat="44.246123594729525" lon="11.623420368810462"><ele>429.0</ele><time>2026-04-18T09:27:48.001Z</time></trkpt><trkpt lat="44.246182458444764" lon="11.62355163819271"><ele>429.0</ele><time>2026-04-18T09:27:50.001Z</time></trkpt><trkpt lat="44.24631142001368" lon="11.623814699673868"><ele>429.0</ele><time>2026-04-18T09:27:51.001Z</time></trkpt><trkpt lat="44.24638041525108" lon="11.623951238714236"><ele>425.25</ele><time>2026-04-18T09:27:52.001Z</time></trkpt><trkpt lat="44.246444505867466" lon="11.624088744886489"><ele>421.5</ele><time>2026-04-18T09:27:53.001Z</time></trkpt><trkpt lat="44.24650873908103" lon="11.62421574678558"><ele>417.75</ele><time>2026-04-18T09:27:54.001Z</time></trkpt><trkpt lat="44.24656400081998" lon="11.624345988342467"><ele>414.0</ele><time>2026-04-18T09:27:55.001Z</time></trkpt><trkpt lat="44.24662313271437" lon="11.624481094879549"><ele>413.0</ele><time>2026-04-18T09:27:56.001Z</time></trkpt><trkpt lat="44.246670239807244" lon="11.624608067047173"><ele>412.0</ele><time>2026-04-18T09:27:57.001Z</time></trkpt><trkpt lat="44.24672147615622" lon="11.624717283862578"><ele>411.0</ele><time>2026-04-18T09:27:58.001Z</time></trkpt><trkpt lat="44.246762269148704" lon="11.62481676795293"><ele>410.0</ele><time>2026-04-18T09:27:59.001Z</time></trkpt><trkpt lat="44.24679393115364" lon="11.624936932872515"><ele>409.0</ele><time>2026-04-18T09:28:00.001Z</time></trkpt><trkpt lat="44.24680520815261" lon="11.625064363694925"><ele>409.00000000000006</ele><time>2026-04-18T09:28:01.001Z</time></trkpt><trkpt lat="44.2467996298342" lon="11.625187618950616"><ele>409.0</ele><time>2026-04-18T09:28:02Z</time></trkpt><trkpt lat="44.24678790935109" lon="11.625309880734019"><ele>409.0</ele><time>2026-04-18T09:28:03Z</time></trkpt><trkpt lat="44.24676025983372" lon="11.625398657390427"><ele>409.0</ele><time>2026-04-18T09:28:04Z</time></trkpt><trkpt lat="44.24672340175599" lon="11.625487674120333"><ele>409.00000000000006</ele><time>2026-04-18T09:28:05Z</time></trkpt><trkpt lat="44.24668909280655" lon="11.625606030001302"><ele>409.0</ele><time>2026-04-18T09:28:06Z</time></trkpt><trkpt lat="44.246647115643" lon="11.625702294317339"><ele>407.79999999999995</ele><time>2026-04-18T09:28:07Z</time></trkpt><trkpt lat="44.246579159359136" lon="11.625771528114523"><ele>406.59999999999997</ele><time>2026-04-18T09:28:09Z</time></trkpt><trkpt lat="44.24645828369318" lon="11.62566746847255"><ele>405.4</ele><time>2026-04-18T09:28:11Z</time></trkpt><trkpt lat="44.24640555351178" lon="11.62556533755469"><ele>404.2</ele><time>2026-04-18T09:28:12Z</time></trkpt><trkpt lat="44.24634368702653" lon="11.625454751263371"><ele>403.0</ele><time>2026-04-18T09:28:13Z</time></trkpt><trkpt lat="44.246276333964396" lon="11.625337786918585"><ele>401.59999999999997</ele><time>2026-04-18T09:28:14Z</time></trkpt><trkpt lat="44.246184487057" lon="11.625174607386777"><ele>400.2</ele><time>2026-04-18T09:28:15Z</time></trkpt><trkpt lat="44.2461277605064" lon="11.625095730784107"><ele>398.8</ele><time>2026-04-18T09:28:16Z</time></trkpt><trkpt lat="44.24607628145517" lon="11.62502234258361"><ele>397.4</ele><time>2026-04-18T09:28:17Z</time></trkpt><trkpt lat="44.24597972425546" lon="11.62493069387609"><ele>396.0</ele><time>2026-04-18T09:28:19Z</time></trkpt><trkpt lat="44.24592704043663" lon="11.624873709428334"><ele>396.0</ele><time>2026-04-18T09:28:20Z</time></trkpt><trkpt lat="44.24586463620437" lon="11.624830888669498"><ele>396.0</ele><time>2026-04-18T09:28:21Z</time></trkpt><trkpt lat="44.24580378945662" lon="11.624764476189672"><ele>396.0</ele><time>2026-04-18T09:28:22Z</time></trkpt><trkpt lat="44.24574774999408" lon="11.62470488875588"><ele>396.0</ele><time>2026-04-18T09:28:23Z</time></trkpt><trkpt lat="44.245684003110384" lon="11.624646322042144"><ele>396.0</ele><time>2026-04-18T09:28:24Z</time></trkpt><trkpt lat="44.245626253399294" lon="11.62458434539437"><ele>396.0</ele><time>2026-04-18T09:28:25Z</time></trkpt><trkpt lat="44.24556337483591" lon="11.624514056442301"><ele>396.0</ele><time>2026-04-18T09:28:26Z</time></trkpt><trkpt lat="44.245504028901145" lon="11.624443418378533"><ele>396.0</ele><time>2026-04-18T09:28:27Z</time></trkpt><trkpt lat="44.24544126704422" lon="11.624376675483841"><ele>396.0</ele><time>2026-04-18T09:28:28Z</time></trkpt><trkpt lat="44.24537894445174" lon="11.624319858342401"><ele>396.0</ele><time>2026-04-18T09:28:29Z</time></trkpt><trkpt lat="44.24531128644826" lon="11.624277860333757"><ele>396.0</ele><time>2026-04-18T09:28:30Z</time></trkpt><trkpt lat="44.24522888032887" lon="11.624256634424778"><ele>396.0</ele><time>2026-04-18T09:28:31Z</time></trkpt><trkpt lat="44.24514705494437" lon="11.624247816489328"><ele>396.0</ele><time>2026-04-18T09:28:32Z</time></trkpt><trkpt lat="44.24507055394111" lon="11.624253939517766"><ele>396.0</ele><time>2026-04-18T09:28:33Z</time></trkpt><trkpt lat="44.24499248290488" lon="11.624259288669046"><ele>396.0</ele><time>2026-04-18T09:28:34Z</time></trkpt><trkpt lat="44.24491898097892" lon="11.624241558339293"><ele>396.0</ele><time>2026-04-18T09:28:35Z</time></trkpt><trkpt lat="44.24484673727456" lon="11.62424057305233"><ele>396.0</ele><time>2026-04-18T09:28:36Z</time></trkpt><trkpt lat="44.24477351419644" lon="11.624196864944556"><ele>396.0</ele><time>2026-04-18T09:28:37Z</time></trkpt><trkpt lat="44.24471130560062" lon="11.624147452554675"><ele>396.0</ele><time>2026-04-18T09:28:38Z</time></trkpt><trkpt lat="44.24464777822423" lon="11.624098286161788"><ele>396.0</ele><time>2026-04-18T09:28:39Z</time></trkpt><trkpt lat="44.24457611827312" lon="11.624067220228879"><ele>395.1666666666667</ele><time>2026-04-18T09:28:40Z</time></trkpt><trkpt lat="44.24450412993795" lon="11.624061018173311"><ele>394.33333333333337</ele><time>2026-04-18T09:28:41Z</time></trkpt><trkpt lat="44.24444597360859" lon="11.62401446104305"><ele>393.5</ele><time>2026-04-18T09:28:42Z</time></trkpt><trkpt lat="44.24437859567874" lon="11.62400914805"><ele>392.6666666666667</ele><time>2026-04-18T09:28:43Z</time></trkpt><trkpt lat="44.244266044582666" lon="11.623912441030017"><ele>391.83333333333337</ele><time>2026-04-18T09:28:45Z</time></trkpt><trkpt lat="44.24420014021691" lon="11.623901400485163"><ele>391.0</ele><time>2026-04-18T09:28:46Z</time></trkpt><trkpt lat="44.244131635551305" lon="11.623938104698082"><ele>391.00000000000006</ele><time>2026-04-18T09:28:47Z</time></trkpt><trkpt lat="44.244064913189725" lon="11.624043155728998"><ele>391.0</ele><time>2026-04-18T09:28:48Z</time></trkpt><trkpt lat="44.24400460049943" lon="11.62409618476876"><ele>391.0</ele><time>2026-04-18T09:28:49Z</time></trkpt><trkpt lat="44.243934170251" lon="11.624137182761311"><ele>391.0</ele><time>2026-04-18T09:28:50Z</time></trkpt><trkpt lat="44.24386171635919" lon="11.624198337222253"><ele>391.00000000000006</ele><time>2026-04-18T09:28:51Z</time></trkpt><trkpt lat="44.24380652821604" lon="11.6242711301847"><ele>391.0</ele><time>2026-04-18T09:28:52Z</time></trkpt><trkpt lat="44.2437410768412" lon="11.624347019836232"><ele>392.8</ele><time>2026-04-18T09:28:53Z</time></trkpt><trkpt lat="44.243668856165954" lon="11.624414251763183"><ele>394.6</ele><time>2026-04-18T09:28:54Z</time></trkpt><trkpt lat="44.24359545027199" lon="11.624452646622293"><ele>396.4</ele><time>2026-04-18T09:28:55Z</time></trkpt><trkpt lat="44.243511933571014" lon="11.624408365038603"><ele>398.2</ele><time>2026-04-18T09:28:56Z</time></trkpt><trkpt lat="44.24335836000174" lon="11.62445793586124"><ele>400.0</ele><time>2026-04-18T09:28:58Z</time></trkpt><trkpt lat="44.24327228892059" lon="11.62449703579097"><ele>400.83333333333337</ele><time>2026-04-18T09:28:59Z</time></trkpt><trkpt lat="44.243193556556584" lon="11.624553669857635"><ele>401.6666666666667</ele><time>2026-04-18T09:29:01Z</time></trkpt><trkpt lat="44.24312364952686" lon="11.624609277578964"><ele>402.5</ele><time>2026-04-18T09:29:03Z</time></trkpt><trkpt lat="44.24305164856486" lon="11.624683842824876"><ele>403.33333333333337</ele><time>2026-04-18T09:29:05Z</time></trkpt><trkpt lat="44.24298799858699" lon="11.624754619425136"><ele>404.1666666666667</ele><time>2026-04-18T09:29:07Z</time></trkpt><trkpt lat="44.24294341107382" lon="11.624831303039207"><ele>405.0</ele><time>2026-04-18T09:29:09Z</time></trkpt><trkpt lat="44.2428858522267" lon="11.62491040632536"><ele>405.0</ele><time>2026-04-18T09:29:11Z</time></trkpt><trkpt lat="44.242829185422416" lon="11.624974408768349"><ele>405.0</ele><time>2026-04-18T09:29:13Z</time></trkpt><trkpt lat="44.24276966136145" lon="11.62501590593913"><ele>405.0</ele><time>2026-04-18T09:29:15Z</time></trkpt><trkpt lat="44.242697217818595" lon="11.625046114651163"><ele>405.0</ele><time>2026-04-18T09:29:18Z</time></trkpt><trkpt lat="44.242624826664574" lon="11.625085322257672"><ele>405.0</ele><time>2026-04-18T09:29:21Z</time></trkpt><trkpt lat="44.24254687280487" lon="11.625121720943667"><ele>405.0</ele><time>2026-04-18T09:29:24Z</time></trkpt><trkpt lat="44.24248842879002" lon="11.62518773907027"><ele>404.99999999999994</ele><time>2026-04-18T09:29:26Z</time></trkpt><trkpt lat="44.24240853856868" lon="11.6252710360266"><ele>405.0</ele><time>2026-04-18T09:29:29Z</time></trkpt><trkpt lat="44.24235861363469" lon="11.6253402315421"><ele>405.0</ele><time>2026-04-18T09:29:31Z</time></trkpt><trkpt lat="44.2423085799963" lon="11.62540270088206"><ele>405.0</ele><time>2026-04-18T09:29:33Z</time></trkpt><trkpt lat="44.24226757770164" lon="11.625475706853125"><ele>405.0</ele><time>2026-04-18T09:29:35Z</time></trkpt><trkpt lat="44.242222743973585" lon="11.625537770724435"><ele>404.99999999999994</ele><time>2026-04-18T09:29:37.001Z</time></trkpt><trkpt lat="44.242179070534604" lon="11.625618184826527"><ele>405.0</ele><time>2026-04-18T09:29:39.001Z</time></trkpt><trkpt lat="44.24213715280245" lon="11.625697395663074"><ele>402.6666666666667</ele><time>2026-04-18T09:29:41.001Z</time></trkpt><trkpt lat="44.242075596964725" lon="11.625744748376329"><ele>400.33333333333337</ele><time>2026-04-18T09:29:43.001Z</time></trkpt><trkpt lat="44.2420093775933" lon="11.625756298641173"><ele>398.0</ele><time>2026-04-18T09:29:45.001Z</time></trkpt><trkpt lat="44.24194590191946" lon="11.625703232844575"><ele>395.6666666666667</ele><time>2026-04-18T09:29:47.001Z</time></trkpt><trkpt lat="44.24188603871616" lon="11.625649233848018"><ele>393.33333333333337</ele><time>2026-04-18T09:29:49.001Z</time></trkpt><trkpt lat="44.24181509555358" lon="11.625577787269709"><ele>391.0</ele><time>2026-04-18T09:29:51.001Z</time></trkpt><trkpt lat="44.241740880470545" lon="11.625505991648168"><ele>391.0</ele><time>2026-04-18T09:29:53.001Z</time></trkpt><trkpt lat="44.241661686798885" lon="11.625435107072764"><ele>391.0</ele><time>2026-04-18T09:29:55.001Z</time></trkpt><trkpt lat="44.241567643010754" lon="11.62539952698232"><ele>391.0</ele><time>2026-04-18T09:29:57.001Z</time></trkpt><trkpt lat="44.24146696476638" lon="11.625403192366889"><ele>391.0</ele><time>2026-04-18T09:29:59.001Z</time></trkpt><trkpt lat="44.24135509380663" lon="11.625429487464244"><ele>391.0</ele><time>2026-04-18T09:30:01.001Z</time></trkpt><trkpt lat="44.24123417448434" lon="11.625438787660316"><ele>390.1428571428571</ele><time>2026-04-18T09:30:03.001Z</time></trkpt><trkpt lat="44.24117127252903" lon="11.625444337224197"><ele>389.2857142857143</ele><time>2026-04-18T09:30:04.001Z</time></trkpt><trkpt lat="44.24110178848028" lon="11.625448642537181"><ele>388.42857142857144</ele><time>2026-04-18T09:30:05.001Z</time></trkpt><trkpt lat="44.241028770366945" lon="11.625452701441963"><ele>387.57142857142856</ele><time>2026-04-18T09:30:06.001Z</time></trkpt><trkpt lat="44.240960323575955" lon="11.625470195674103"><ele>386.7142857142857</ele><time>2026-04-18T09:30:07.001Z</time></trkpt><trkpt lat="44.24089770408168" lon="11.62552592189861"><ele>385.85714285714283</ele><time>2026-04-18T09:30:08Z</time></trkpt><trkpt lat="44.24082172065864" lon="11.625576164714767"><ele>385.0</ele><time>2026-04-18T09:30:09Z</time></trkpt><trkpt lat="44.240750162868274" lon="11.62563759483329"><ele>385.00000000000006</ele><time>2026-04-18T09:30:10Z</time></trkpt><trkpt lat="44.24068211892016" lon="11.625693200017485"><ele>385.0</ele><time>2026-04-18T09:30:11Z</time></trkpt><trkpt lat="44.24061447852745" lon="11.62575208950467"><ele>385.0</ele><time>2026-04-18T09:30:12Z</time></trkpt><trkpt lat="44.24054171393589" lon="11.6258109581681"><ele>385.0</ele><time>2026-04-18T09:30:13Z</time></trkpt><trkpt lat="44.24048995770052" lon="11.62588199791518"><ele>385.00000000000006</ele><time>2026-04-18T09:30:14Z</time></trkpt><trkpt lat="44.24043087718081" lon="11.625937919307153"><ele>385.0</ele><time>2026-04-18T09:30:15Z</time></trkpt><trkpt lat="44.24037022665968" lon="11.625992270007977"><ele>385.42857142857144</ele><time>2026-04-18T09:30:16Z</time></trkpt><trkpt lat="44.24031571887362" lon="11.626052005797266"><ele>385.8571428571429</ele><time>2026-04-18T09:30:17Z</time></trkpt><trkpt lat="44.24025283317217" lon="11.626100589369173"><ele>386.2857142857143</ele><time>2026-04-18T09:30:18Z</time></trkpt><trkpt lat="44.240189000764275" lon="11.626142561757451"><ele>386.7142857142857</ele><time>2026-04-18T09:30:19Z</time></trkpt><trkpt lat="44.24013238008985" lon="11.626186497841859"><ele>387.14285714285717</ele><time>2026-04-18T09:30:20Z</time></trkpt><trkpt lat="44.24005669883995" lon="11.62622808598103"><ele>387.57142857142856</ele><time>2026-04-18T09:30:21Z</time></trkpt><trkpt lat="44.239972173574465" lon="11.626235785012158"><ele>388.0</ele><time>2026-04-18T09:30:22Z</time></trkpt><trkpt lat="44.239870959531984" lon="11.626214846697458"><ele>385.59999999999997</ele><time>2026-04-18T09:30:23Z</time></trkpt><trkpt lat="44.23976587124046" lon="11.626182745316893"><ele>383.2</ele><time>2026-04-18T09:30:24Z</time></trkpt><trkpt lat="44.2396581093727" lon="11.626129759010928"><ele>380.8</ele><time>2026-04-18T09:30:25Z</time></trkpt><trkpt lat="44.239556228752114" lon="11.626080629391513"><ele>378.4</ele><time>2026-04-18T09:30:26Z</time></trkpt><trkpt lat="44.23945572591985" lon="11.626050413971587"><ele>376.0</ele><time>2026-04-18T09:30:27Z</time></trkpt><trkpt lat="44.239364134765715" lon="11.626029793168113"><ele>376.0</ele><time>2026-04-18T09:30:28Z</time></trkpt><trkpt lat="44.23928115413536" lon="11.62602270658026"><ele>376.0</ele><time>2026-04-18T09:30:29Z</time></trkpt><trkpt lat="44.23921095372971" lon="11.62603376633694"><ele>376.0</ele><time>2026-04-18T09:30:30Z</time></trkpt><trkpt lat="44.23915016573016" lon="11.626063067471414"><ele>376.0</ele><time>2026-04-18T09:30:31Z</time></trkpt><trkpt lat="44.23908738166311" lon="11.62609280308843"><ele>376.0</ele><time>2026-04-18T09:30:32Z</time></trkpt><trkpt lat="44.23902809208696" lon="11.626130588882534"><ele>376.0</ele><time>2026-04-18T09:30:33Z</time></trkpt><trkpt lat="44.2389680308033" lon="11.626183683145966"><ele>376.0</ele><time>2026-04-18T09:30:34Z</time></trkpt><trkpt lat="44.238913069577706" lon="11.626244342435935"><ele>375.66666666666663</ele><time>2026-04-18T09:30:35Z</time></trkpt><trkpt lat="44.23885758092987" lon="11.626311567024663"><ele>375.3333333333333</ele><time>2026-04-18T09:30:36Z</time></trkpt><trkpt lat="44.238804170028544" lon="11.62640782515357"><ele>375.0</ele><time>2026-04-18T09:30:37Z</time></trkpt><trkpt lat="44.2387513020922" lon="11.626498859995513"><ele>374.6666666666667</ele><time>2026-04-18T09:30:38Z</time></trkpt><trkpt lat="44.238658878951014" lon="11.626572760258131"><ele>374.33333333333337</ele><time>2026-04-18T09:30:39Z</time></trkpt><trkpt lat="44.238583047596315" lon="11.626570995189388"><ele>374.0</ele><time>2026-04-18T09:30:40Z</time></trkpt><trkpt lat="44.23847016696336" lon="11.626560957611352"><ele>374.0</ele><time>2026-04-18T09:30:41Z</time></trkpt><trkpt lat="44.238370601488995" lon="11.626592428188204"><ele>374.0</ele><time>2026-04-18T09:30:42Z</time></trkpt><trkpt lat="44.23828942974987" lon="11.626655334804257"><ele>374.0</ele><time>2026-04-18T09:30:43Z</time></trkpt><trkpt lat="44.23820896359929" lon="11.626712307524974"><ele>374.0</ele><time>2026-04-18T09:30:44Z</time></trkpt><trkpt lat="44.23813247746893" lon="11.626751187301778"><ele>374.0</ele><time>2026-04-18T09:30:45Z</time></trkpt><trkpt lat="44.238045437189726" lon="11.626764291098626"><ele>373.4</ele><time>2026-04-18T09:30:47Z</time></trkpt><trkpt lat="44.237966613708366" lon="11.626715230036185"><ele>372.79999999999995</ele><time>2026-04-18T09:30:49Z</time></trkpt><trkpt lat="44.23785166371231" lon="11.626704197753496"><ele>372.20000000000005</ele><time>2026-04-18T09:30:51Z</time></trkpt><trkpt lat="44.23778562172808" lon="11.6266909474301"><ele>371.6</ele><time>2026-04-18T09:30:52Z</time></trkpt><trkpt lat="44.237676189834275" lon="11.626685049633242"><ele>371.0</ele><time>2026-04-18T09:30:54Z</time></trkpt><trkpt lat="44.23761042940936" lon="11.62661612822271"><ele>371.0</ele><time>2026-04-18T09:30:55Z</time></trkpt><trkpt lat="44.237497657834666" lon="11.626589959664766"><ele>371.0</ele><time>2026-04-18T09:30:57Z</time></trkpt><trkpt lat="44.237408849123824" lon="11.626532353182737"><ele>371.0</ele><time>2026-04-18T09:30:59Z</time></trkpt><trkpt lat="44.23730182702535" lon="11.626441092172787"><ele>371.0</ele><time>2026-04-18T09:31:01Z</time></trkpt><trkpt lat="44.23719976741866" lon="11.62635967926645"><ele>369.0</ele><time>2026-04-18T09:31:03Z</time></trkpt><trkpt lat="44.23706215016078" lon="11.626598473630994"><ele>367.0</ele><time>2026-04-18T09:31:07Z</time></trkpt><trkpt lat="44.23704409627084" lon="11.626702262494335"><ele>365.0</ele><time>2026-04-18T09:31:08Z</time></trkpt><trkpt lat="44.23699184916694" lon="11.626810400194783"><ele>363.0</ele><time>2026-04-18T09:31:09Z</time></trkpt><trkpt lat="44.236940239392304" lon="11.626874528096916"><ele>363.0</ele><time>2026-04-18T09:31:10Z</time></trkpt><trkpt lat="44.23679991102578" lon="11.626876109273343"><ele>363.0</ele><time>2026-04-18T09:31:12Z</time></trkpt><trkpt lat="44.236690185359826" lon="11.626864884749972"><ele>363.0</ele><time>2026-04-18T09:31:13Z</time></trkpt><trkpt lat="44.23659536899481" lon="11.626871907014216"><ele>363.0</ele><time>2026-04-18T09:31:14Z</time></trkpt><trkpt lat="44.236514233857385" lon="11.62687523192142"><ele>363.0</ele><time>2026-04-18T09:31:15Z</time></trkpt><trkpt lat="44.23644829986534" lon="11.626933980109815"><ele>361.3333333333333</ele><time>2026-04-18T09:31:16Z</time></trkpt><trkpt lat="44.2363558354293" lon="11.62693245822342"><ele>359.6666666666667</ele><time>2026-04-18T09:31:18Z</time></trkpt><trkpt lat="44.23626113538053" lon="11.626921170058795"><ele>358.0</ele><time>2026-04-18T09:31:19Z</time></trkpt><trkpt lat="44.236192688988865" lon="11.626986849992367"><ele>356.33333333333337</ele><time>2026-04-18T09:31:21Z</time></trkpt><trkpt lat="44.23615007372368" lon="11.627059207558963"><ele>354.6666666666667</ele><time>2026-04-18T09:31:23Z</time></trkpt><trkpt lat="44.23612060997535" lon="11.627156811660026"><ele>353.0</ele><time>2026-04-18T09:31:25Z</time></trkpt><trkpt lat="44.236119262961" lon="11.627263105625982"><ele>353.0</ele><time>2026-04-18T09:31:27.001Z</time></trkpt><trkpt lat="44.236126891416696" lon="11.627379155303462"><ele>353.0</ele><time>2026-04-18T09:31:29.001Z</time></trkpt><trkpt lat="44.23613258238197" lon="11.627477796937677"><ele>353.0</ele><time>2026-04-18T09:31:30.001Z</time></trkpt><trkpt lat="44.23614481948281" lon="11.627577712446026"><ele>353.0</ele><time>2026-04-18T09:31:31.001Z</time></trkpt><trkpt lat="44.236142502730964" lon="11.627702115334875"><ele>353.0</ele><time>2026-04-18T09:31:32.001Z</time></trkpt><trkpt lat="44.23614018681175" lon="11.62781574080315"><ele>353.0</ele><time>2026-04-18T09:31:33.001Z</time></trkpt><trkpt lat="44.23614064294351" lon="11.627930795156264"><ele>352.2857142857143</ele><time>2026-04-18T09:31:34.001Z</time></trkpt><trkpt lat="44.23613589513986" lon="11.628030357145267"><ele>351.5714285714286</ele><time>2026-04-18T09:31:35.001Z</time></trkpt><trkpt lat="44.23613281252202" lon="11.628121750076156"><ele>350.8571428571429</ele><time>2026-04-18T09:31:36.001Z</time></trkpt><trkpt lat="44.236093249582154" lon="11.628208510164072"><ele>350.1428571428571</ele><time>2026-04-18T09:31:40.001Z</time></trkpt><trkpt lat="44.236006513486295" lon="11.628235324110499"><ele>349.42857142857144</ele><time>2026-04-18T09:31:43.001Z</time></trkpt><trkpt lat="44.23594412130113" lon="11.62819373364381"><ele>348.7142857142857</ele><time>2026-04-18T09:31:46.001Z</time></trkpt><trkpt lat="44.2358744989298" lon="11.628159562613725"><ele>348.0</ele><time>2026-04-18T09:31:49.001Z</time></trkpt><trkpt lat="44.235761665729676" lon="11.628122550322203"><ele>348.0</ele><time>2026-04-18T09:31:52.001Z</time></trkpt><trkpt lat="44.23569786127874" lon="11.62810486243094"><ele>348.0</ele><time>2026-04-18T09:31:54.001Z</time></trkpt><trkpt lat="44.23561966942609" lon="11.628023603155237"><ele>348.0</ele><time>2026-04-18T09:31:58.001Z</time></trkpt><trkpt lat="44.2355000669583" lon="11.627995790352962"><ele>348.0</ele><time>2026-04-18T09:32:00.001Z</time></trkpt><trkpt lat="44.23537756986921" lon="11.627962611833114"><ele>348.0</ele><time>2026-04-18T09:32:02.001Z</time></trkpt><trkpt lat="44.23532426254663" lon="11.6279046615356"><ele>346.8333333333333</ele><time>2026-04-18T09:32:03.001Z</time></trkpt><trkpt lat="44.23522963679099" lon="11.627873740192834"><ele>345.6666666666667</ele><time>2026-04-18T09:32:05.001Z</time></trkpt><trkpt lat="44.235286817791916" lon="11.627764326056367"><ele>344.5</ele><time>2026-04-18T09:32:07.001Z</time></trkpt><trkpt lat="44.23533654899469" lon="11.627688206625818"><ele>343.33333333333337</ele><time>2026-04-18T09:32:08.001Z</time></trkpt><trkpt lat="44.23538930542499" lon="11.627628034893705"><ele>342.1666666666667</ele><time>2026-04-18T09:32:09.001Z</time></trkpt><trkpt lat="44.23536523849143" lon="11.627508842970192"><ele>341.0</ele><time>2026-04-18T09:32:12.001Z</time></trkpt><trkpt lat="44.23530289117666" lon="11.627460497322836"><ele>339.8</ele><time>2026-04-18T09:32:14Z</time></trkpt><trkpt lat="44.235186865815805" lon="11.627421377974935"><ele>338.6</ele><time>2026-04-18T09:32:16Z</time></trkpt><trkpt lat="44.235113777727406" lon="11.62736682157809"><ele>337.4</ele><time>2026-04-18T09:32:17Z</time></trkpt><trkpt lat="44.23502793290751" lon="11.627287931563774"><ele>336.2</ele><time>2026-04-18T09:32:19Z</time></trkpt><trkpt lat="44.2350245759374" lon="11.627171641382988"><ele>335.0</ele><time>2026-04-18T09:32:21Z</time></trkpt><trkpt lat="44.234945415666076" lon="11.62709057109725"><ele>335.0</ele><time>2026-04-18T09:32:23Z</time></trkpt><trkpt lat="44.234840954759996" lon="11.626986830734662"><ele>335.0</ele><time>2026-04-18T09:32:25Z</time></trkpt><trkpt lat="44.23479338734594" lon="11.626917090456457"><ele>335.0</ele><time>2026-04-18T09:32:26Z</time></trkpt><trkpt lat="44.23466893187343" lon="11.626917139246833"><ele>335.0</ele><time>2026-04-18T09:32:28Z</time></trkpt><trkpt lat="44.23461956703553" lon="11.626860772820203"><ele>335.0</ele><time>2026-04-18T09:32:29Z</time></trkpt><trkpt lat="44.23455922751415" lon="11.626805432610533"><ele>330.5</ele><time>2026-04-18T09:32:30Z</time></trkpt><trkpt lat="44.23445449951011" lon="11.626734851943683"><ele>326.0</ele><time>2026-04-18T09:32:32Z</time></trkpt><trkpt lat="44.23439100882969" lon="11.626758536988245"><ele>321.5</ele><time>2026-04-18T09:32:33Z</time></trkpt><trkpt lat="44.23429747087098" lon="11.626697002784352"><ele>317.0</ele><time>2026-04-18T09:32:35Z</time></trkpt><trkpt lat="44.23423265071343" lon="11.626712775295172"><ele>312.5</ele><time>2026-04-18T09:32:36Z</time></trkpt><trkpt lat="44.234171547780846" lon="11.626736463747635"><ele>308.0</ele><time>2026-04-18T09:32:37Z</time></trkpt><trkpt lat="44.234104392301255" lon="11.626741862178376"><ele>308.0</ele><time>2026-04-18T09:32:38Z</time></trkpt><trkpt lat="44.23402883595466" lon="11.626727165127447"><ele>308.0</ele><time>2026-04-18T09:32:39Z</time></trkpt><trkpt lat="44.23393925342043" lon="11.626644305085003"><ele>308.0</ele><time>2026-04-18T09:32:41Z</time></trkpt><trkpt lat="44.23385246531875" lon="11.626607296255361"><ele>308.0</ele><time>2026-04-18T09:32:42Z</time></trkpt><trkpt lat="44.233782893906294" lon="11.626565735666532"><ele>308.0</ele><time>2026-04-18T09:32:43Z</time></trkpt><trkpt lat="44.23370912711034" lon="11.626534280781916"><ele>308.0</ele><time>2026-04-18T09:32:44Z</time></trkpt><trkpt lat="44.23362232755806" lon="11.626542735350627"><ele>305.6666666666667</ele><time>2026-04-18T09:32:45Z</time></trkpt><trkpt lat="44.23352857867986" lon="11.626558237221014"><ele>303.33333333333337</ele><time>2026-04-18T09:32:46Z</time></trkpt><trkpt lat="44.2334533700346" lon="11.626568563358177"><ele>301.0</ele><time>2026-04-18T09:32:47Z</time></trkpt><trkpt lat="44.233361469008344" lon="11.626655480035593"><ele>298.6666666666667</ele><time>2026-04-18T09:32:49Z</time></trkpt><trkpt lat="44.23334627790946" lon="11.62674182470437"><ele>296.3333333333333</ele><time>2026-04-18T09:32:50Z</time></trkpt><trkpt lat="44.23329001941768" lon="11.626807688743314"><ele>294.0</ele><time>2026-04-18T09:32:51Z</time></trkpt><trkpt lat="44.23324494082716" lon="11.626908611895272"><ele>293.8333333333333</ele><time>2026-04-18T09:32:52Z</time></trkpt><trkpt lat="44.233168472965644" lon="11.6270037343785"><ele>293.6666666666667</ele><time>2026-04-18T09:32:54Z</time></trkpt><trkpt lat="44.23309316422195" lon="11.627013547188307"><ele>293.5</ele><time>2026-04-18T09:32:55Z</time></trkpt><trkpt lat="44.23301953785277" lon="11.627012213246903"><ele>293.33333333333337</ele><time>2026-04-18T09:32:56Z</time></trkpt><trkpt lat="44.232934001175316" lon="11.627006658284055"><ele>293.1666666666667</ele><time>2026-04-18T09:32:57Z</time></trkpt><trkpt lat="44.23284957062603" lon="11.627012115088004"><ele>293.0</ele><time>2026-04-18T09:32:58Z</time></trkpt><trkpt lat="44.23276954069118" lon="11.626998994209593"><ele>293.0</ele><time>2026-04-18T09:32:59Z</time></trkpt><trkpt lat="44.23268987715753" lon="11.626964589929052"><ele>293.0</ele><time>2026-04-18T09:33:00Z</time></trkpt><trkpt lat="44.23260072904994" lon="11.626873031427793"><ele>293.0</ele><time>2026-04-18T09:33:02Z</time></trkpt><trkpt lat="44.23251147191845" lon="11.626875407285521"><ele>293.0</ele><time>2026-04-18T09:33:05Z</time></trkpt><trkpt lat="44.23245886580828" lon="11.626989703313736"><ele>293.0</ele><time>2026-04-18T09:33:08Z</time></trkpt><trkpt lat="44.23240381648477" lon="11.627087818384483"><ele>288.1666666666667</ele><time>2026-04-18T09:33:11Z</time></trkpt><trkpt lat="44.232301855678166" lon="11.627176125944617"><ele>283.33333333333337</ele><time>2026-04-18T09:33:13Z</time></trkpt><trkpt lat="44.23224690386888" lon="11.627233242957761"><ele>278.5</ele><time>2026-04-18T09:33:14Z</time></trkpt><trkpt lat="44.23217124362228" lon="11.627255141110007"><ele>273.6666666666667</ele><time>2026-04-18T09:33:15Z</time></trkpt><trkpt lat="44.23210084926246" lon="11.62725458479926"><ele>268.8333333333333</ele><time>2026-04-18T09:33:16Z</time></trkpt><trkpt lat="44.23201589473993" lon="11.627286410400993"><ele>264.0</ele><time>2026-04-18T09:33:17Z</time></trkpt><trkpt lat="44.23194609517533" lon="11.627299642222189"><ele>264.0</ele><time>2026-04-18T09:33:18Z</time></trkpt><trkpt lat="44.23180828989085" lon="11.627301316478624"><ele>264.0</ele><time>2026-04-18T09:33:20Z</time></trkpt><trkpt lat="44.23172722761985" lon="11.627321663384333"><ele>264.0</ele><time>2026-04-18T09:33:21Z</time></trkpt><trkpt lat="44.23166626440387" lon="11.62736094926752"><ele>264.0</ele><time>2026-04-18T09:33:22Z</time></trkpt><trkpt lat="44.23159796748646" lon="11.627463931233954"><ele>264.0</ele><time>2026-04-18T09:33:23Z</time></trkpt><trkpt lat="44.231567163290386" lon="11.62755500102107"><ele>264.0</ele><time>2026-04-18T09:33:24Z</time></trkpt><trkpt lat="44.23158334845976" lon="11.62766112593863"><ele>264.0</ele><time>2026-04-18T09:33:25.001Z</time></trkpt><trkpt lat="44.23164145684953" lon="11.62776139694875"><ele>264.0</ele><time>2026-04-18T09:33:26.001Z</time></trkpt><trkpt lat="44.23156159953369" lon="11.627797126240893"><ele>264.0</ele><time>2026-04-18T09:33:29.001Z</time></trkpt><trkpt lat="44.23149580759463" lon="11.627649326218487"><ele>264.0</ele><time>2026-04-18T09:33:31.001Z</time></trkpt><trkpt lat="44.231463682570514" lon="11.627557229257135"><ele>258.0</ele><time>2026-04-18T09:33:32.001Z</time></trkpt><trkpt lat="44.23142778692387" lon="11.627470668425914"><ele>252.0</ele><time>2026-04-18T09:33:33.001Z</time></trkpt><trkpt lat="44.23138242397281" lon="11.627370735496315"><ele>246.0</ele><time>2026-04-18T09:33:34.001Z</time></trkpt><trkpt lat="44.23139188272081" lon="11.627193730018"><ele>240.0</ele><time>2026-04-18T09:33:36.001Z</time></trkpt><trkpt lat="44.23144273148154" lon="11.62713460971154"><ele>234.0</ele><time>2026-04-18T09:33:37.001Z</time></trkpt><trkpt lat="44.231363676493" lon="11.627076563539658"><ele>228.0</ele><time>2026-04-18T09:33:41.001Z</time></trkpt><trkpt lat="44.23128609031082" lon="11.627136041817975"><ele>228.0</ele><time>2026-04-18T09:33:43.001Z</time></trkpt><trkpt lat="44.23128155908246" lon="11.627239482060759"><ele>228.0</ele><time>2026-04-18T09:33:45.001Z</time></trkpt><trkpt lat="44.23123942905707" lon="11.62736274910399"><ele>228.0</ele><time>2026-04-18T09:33:47.001Z</time></trkpt><trkpt lat="44.23119432345199" lon="11.627533166056095"><ele>228.0</ele><time>2026-04-18T09:33:49.001Z</time></trkpt><trkpt lat="44.23115149747795" lon="11.627619659150232"><ele>228.0</ele><time>2026-04-18T09:33:50.001Z</time></trkpt><trkpt lat="44.23112730489517" lon="11.627716616494357"><ele>227.60000000000002</ele><time>2026-04-18T09:33:51.001Z</time></trkpt><trkpt lat="44.23112458067868" lon="11.627859906950695"><ele>227.20000000000002</ele><time>2026-04-18T09:33:53.001Z</time></trkpt><trkpt lat="44.23117620417153" lon="11.627954095019133"><ele>226.8</ele><time>2026-04-18T09:33:55.001Z</time></trkpt><trkpt lat="44.23120753621545" lon="11.628100796105663"><ele>226.4</ele><time>2026-04-18T09:33:57.001Z</time></trkpt><trkpt lat="44.2311002223174" lon="11.628136786942328"><ele>226.0</ele><time>2026-04-18T09:33:59.001Z</time></trkpt><trkpt lat="44.23097797920511" lon="11.628069894051091"><ele>226.0</ele><time>2026-04-18T09:34:01.001Z</time></trkpt><trkpt lat="44.230908279278374" lon="11.62802961213851"><ele>226.00000000000003</ele><time>2026-04-18T09:34:03.001Z</time></trkpt><trkpt lat="44.230898500807534" lon="11.628205338858203"><ele>226.00000000000003</ele><time>2026-04-18T09:34:05.001Z</time></trkpt><trkpt lat="44.23081525658743" lon="11.628181005004379"><ele>226.0</ele><time>2026-04-18T09:34:07.001Z</time></trkpt><trkpt lat="44.2307389682915" lon="11.628079645305458"><ele>226.0</ele><time>2026-04-18T09:34:09.001Z</time></trkpt><trkpt lat="44.23073915173911" lon="11.627931743936191"><ele>226.33333333333331</ele><time>2026-04-18T09:34:11.001Z</time></trkpt><trkpt lat="44.230749830881074" lon="11.62779490595813"><ele>226.66666666666666</ele><time>2026-04-18T09:34:13.001Z</time></trkpt><trkpt lat="44.23074716590801" lon="11.627693109248504"><ele>227.0</ele><time>2026-04-18T09:34:14.001Z</time></trkpt><trkpt lat="44.23071897727685" lon="11.627610721307715"><ele>227.33333333333331</ele><time>2026-04-18T09:34:15.001Z</time></trkpt><trkpt lat="44.230697443519304" lon="11.627478810397847"><ele>227.66666666666666</ele><time>2026-04-18T09:34:17.001Z</time></trkpt><trkpt lat="44.23069392812635" lon="11.627388843992708"><ele>228.0</ele><time>2026-04-18T09:34:19.001Z</time></trkpt><trkpt lat="44.230632645615884" lon="11.627354237375593"><ele>226.33333333333334</ele><time>2026-04-18T09:34:21Z</time></trkpt><trkpt lat="44.23057417948746" lon="11.627395067553985"><ele>224.66666666666669</ele><time>2026-04-18T09:34:22Z</time></trkpt><trkpt lat="44.23052411586107" lon="11.627465220055047"><ele>223.0</ele><time>2026-04-18T09:34:23Z</time></trkpt><trkpt lat="44.23048050580502" lon="11.627573697823777"><ele>221.33333333333334</ele><time>2026-04-18T09:34:24Z</time></trkpt><trkpt lat="44.23044312286715" lon="11.62765994891143"><ele>219.66666666666669</ele><time>2026-04-18T09:34:25Z</time></trkpt><trkpt lat="44.23048703191839" lon="11.627735680716258"><ele>218.0</ele><time>2026-04-18T09:34:27Z</time></trkpt><trkpt lat="44.23053336246465" lon="11.62784366373229"><ele>216.60000000000002</ele><time>2026-04-18T09:34:29Z</time></trkpt><trkpt lat="44.23056294664363" lon="11.627978202215825"><ele>215.20000000000002</ele><time>2026-04-18T09:34:31Z</time></trkpt><trkpt lat="44.23047734925935" lon="11.628075539334656"><ele>213.8</ele><time>2026-04-18T09:34:33Z</time></trkpt><trkpt lat="44.23037457108199" lon="11.628117271869042"><ele>212.4</ele><time>2026-04-18T09:34:35Z</time></trkpt><trkpt lat="44.230298183949635" lon="11.628209383703698"><ele>211.0</ele><time>2026-04-18T09:34:37Z</time></trkpt><trkpt lat="44.23023030543411" lon="11.628328653782283"><ele>211.0</ele><time>2026-04-18T09:34:39Z</time></trkpt><trkpt lat="44.23019480980697" lon="11.628464532245102"><ele>211.0</ele><time>2026-04-18T09:34:41Z</time></trkpt><trkpt lat="44.230191819841" lon="11.62863863115482"><ele>211.0</ele><time>2026-04-18T09:34:43Z</time></trkpt><trkpt lat="44.23021791226383" lon="11.628720459027246"><ele>211.0</ele><time>2026-04-18T09:34:44Z</time></trkpt><trkpt lat="44.23021746116282" lon="11.628894225751383"><ele>211.0</ele><time>2026-04-18T09:34:46Z</time></trkpt><trkpt lat="44.23019698588995" lon="11.628988764852455"><ele>210.20000000000002</ele><time>2026-04-18T09:34:47Z</time></trkpt><trkpt lat="44.230192753605095" lon="11.629131367041303"><ele>209.4</ele><time>2026-04-18T09:34:49Z</time></trkpt><trkpt lat="44.230211350598" lon="11.629267037504906"><ele>208.6</ele><time>2026-04-18T09:34:52Z</time></trkpt><trkpt lat="44.230234824112244" lon="11.629354439918925"><ele>207.8</ele><time>2026-04-18T09:34:54Z</time></trkpt><trkpt lat="44.230273223390085" lon="11.629457918639224"><ele>207.0</ele><time>2026-04-18T09:34:56Z</time></trkpt><trkpt lat="44.230304704512896" lon="11.629590054920058"><ele>205.6</ele><time>2026-04-18T09:34:58Z</time></trkpt><trkpt lat="44.23034043738082" lon="11.629745816161554"><ele>204.2</ele><time>2026-04-18T09:35:00Z</time></trkpt><trkpt lat="44.23037316745289" lon="11.629913190558511"><ele>202.8</ele><time>2026-04-18T09:35:02Z</time></trkpt><trkpt lat="44.23038839320713" lon="11.630004000853226"><ele>201.4</ele><time>2026-04-18T09:35:03Z</time></trkpt><trkpt lat="44.23041041476962" lon="11.630098020374104"><ele>200.0</ele><time>2026-04-18T09:35:04Z</time></trkpt><trkpt lat="44.23043021662163" lon="11.630200608246021"><ele>200.00000000000003</ele><time>2026-04-18T09:35:05Z</time></trkpt><trkpt lat="44.230449789070924" lon="11.630305550715184"><ele>200.0</ele><time>2026-04-18T09:35:06Z</time></trkpt><trkpt lat="44.23047000646152" lon="11.630410971533133"><ele>200.0</ele><time>2026-04-18T09:35:07Z</time></trkpt><trkpt lat="44.23048607121547" lon="11.63052080287982"><ele>200.0</ele><time>2026-04-18T09:35:08Z</time></trkpt><trkpt lat="44.23050304109776" lon="11.630632939486"><ele>200.00000000000003</ele><time>2026-04-18T09:35:09Z</time></trkpt><trkpt lat="44.23050203992667" lon="11.630750197360092"><ele>200.0</ele><time>2026-04-18T09:35:10Z</time></trkpt><trkpt lat="44.230482706677165" lon="11.630872079357394"><ele>198.8</ele><time>2026-04-18T09:35:11Z</time></trkpt><trkpt lat="44.23045605910409" lon="11.63099452872902"><ele>197.6</ele><time>2026-04-18T09:35:12Z</time></trkpt><trkpt lat="44.230434232860006" lon="11.631119890447243"><ele>196.39999999999998</ele><time>2026-04-18T09:35:13Z</time></trkpt><trkpt lat="44.230415382633865" lon="11.631242909671066"><ele>195.2</ele><time>2026-04-18T09:35:14Z</time></trkpt><trkpt lat="44.230389179222826" lon="11.63137911436123"><ele>194.0</ele><time>2026-04-18T09:35:15Z</time></trkpt><trkpt lat="44.23035736492591" lon="11.631492217049537"><ele>193.6</ele><time>2026-04-18T09:35:16Z</time></trkpt><trkpt lat="44.23029836998597" lon="11.631581905848234"><ele>193.2</ele><time>2026-04-18T09:35:17Z</time></trkpt><trkpt lat="44.23023046746819" lon="11.631668767030789"><ele>192.79999999999998</ele><time>2026-04-18T09:35:18Z</time></trkpt><trkpt lat="44.23011736758482" lon="11.631662507588624"><ele>192.39999999999998</ele><time>2026-04-18T09:35:19Z</time></trkpt><trkpt lat="44.230028170472416" lon="11.631620899239083"><ele>192.0</ele><time>2026-04-18T09:35:20Z</time></trkpt><trkpt lat="44.22995150064018" lon="11.631557233677395"><ele>192.0</ele><time>2026-04-18T09:35:21Z</time></trkpt><trkpt lat="44.22988321874312" lon="11.631485570959844"><ele>192.0</ele><time>2026-04-18T09:35:22Z</time></trkpt><trkpt lat="44.229821800817646" lon="11.631401631126325"><ele>192.0</ele><time>2026-04-18T09:35:23Z</time></trkpt><trkpt lat="44.229755549741796" lon="11.631330367504116"><ele>192.0</ele><time>2026-04-18T09:35:24Z</time></trkpt><trkpt lat="44.229691674752125" lon="11.6312644226685"><ele>192.0</ele><time>2026-04-18T09:35:25Z</time></trkpt><trkpt lat="44.22962630860491" lon="11.631198905853402"><ele>192.0</ele><time>2026-04-18T09:35:26Z</time></trkpt><trkpt lat="44.229562154968825" lon="11.631133838337066"><ele>192.28571428571428</ele><time>2026-04-18T09:35:27Z</time></trkpt><trkpt lat="44.22950412419018" lon="11.631069979478491"><ele>192.57142857142856</ele><time>2026-04-18T09:35:28Z</time></trkpt><trkpt lat="44.229446487165134" lon="11.631005472872854"><ele>192.85714285714283</ele><time>2026-04-18T09:35:29Z</time></trkpt><trkpt lat="44.22938787184572" lon="11.630942645505808"><ele>193.14285714285714</ele><time>2026-04-18T09:35:30Z</time></trkpt><trkpt lat="44.229330367335024" lon="11.63088120889525"><ele>193.42857142857144</ele><time>2026-04-18T09:35:31Z</time></trkpt><trkpt lat="44.229272903731996" lon="11.630818548911114"><ele>193.7142857142857</ele><time>2026-04-18T09:35:32Z</time></trkpt><trkpt lat="44.22921618504144" lon="11.630758810075676"><ele>194.0</ele><time>2026-04-18T09:35:33.001Z</time></trkpt><trkpt lat="44.22916001151306" lon="11.630697018563145"><ele>194.0</ele><time>2026-04-18T09:35:34.001Z</time></trkpt><trkpt lat="44.22910522024503" lon="11.630636422647697"><ele>194.0</ele><time>2026-04-18T09:35:35.001Z</time></trkpt><trkpt lat="44.229051004498416" lon="11.63057875816303"><ele>194.0</ele><time>2026-04-18T09:35:36.001Z</time></trkpt><trkpt lat="44.22899725484854" lon="11.630519640733157"><ele>194.0</ele><time>2026-04-18T09:35:37.001Z</time></trkpt><trkpt lat="44.22894429570964" lon="11.63046453055716"><ele>194.0</ele><time>2026-04-18T09:35:38.001Z</time></trkpt><trkpt lat="44.228891323188876" lon="11.630407784347483"><ele>194.0</ele><time>2026-04-18T09:35:39.001Z</time></trkpt><trkpt lat="44.22884056209466" lon="11.630351820322533"><ele>194.0</ele><time>2026-04-18T09:35:40.001Z</time></trkpt><trkpt lat="44.22878967346506" lon="11.63029581901849"><ele>193.83333333333334</ele><time>2026-04-18T09:35:41.001Z</time></trkpt><trkpt lat="44.228691057320454" lon="11.630190215155611"><ele>193.66666666666669</ele><time>2026-04-18T09:35:43.001Z</time></trkpt><trkpt lat="44.22859004758246" lon="11.630087282645224"><ele>193.5</ele><time>2026-04-18T09:35:45.001Z</time></trkpt><trkpt lat="44.22853925511848" lon="11.630032550449103"><ele>193.33333333333331</ele><time>2026-04-18T09:35:46.001Z</time></trkpt><trkpt lat="44.22848898605232" lon="11.629976552790565"><ele>193.16666666666666</ele><time>2026-04-18T09:35:47.001Z</time></trkpt><trkpt lat="44.228436820775514" lon="11.62992343032851"><ele>193.0</ele><time>2026-04-18T09:35:48.001Z</time></trkpt><trkpt lat="44.22838495453187" lon="11.629869892322281"><ele>192.99999999999997</ele><time>2026-04-18T09:35:49.001Z</time></trkpt><trkpt lat="44.22833300935231" lon="11.629814875446229"><ele>193.0</ele><time>2026-04-18T09:35:50.001Z</time></trkpt><trkpt lat="44.22828190596313" lon="11.629760316751286"><ele>193.0</ele><time>2026-04-18T09:35:51.001Z</time></trkpt><trkpt lat="44.22823010310943" lon="11.6297075982351"><ele>193.0</ele><time>2026-04-18T09:35:52.001Z</time></trkpt><trkpt lat="44.228128282256165" lon="11.62960838467894"><ele>192.99999999999997</ele><time>2026-04-18T09:35:54.001Z</time></trkpt><trkpt lat="44.22803019480052" lon="11.629505502841331"><ele>193.0</ele><time>2026-04-18T09:35:56.001Z</time></trkpt><trkpt lat="44.22793289194319" lon="11.629405492522215"><ele>193.75</ele><time>2026-04-18T09:35:58.001Z</time></trkpt><trkpt lat="44.22783824793528" lon="11.629310728028793"><ele>194.5</ele><time>2026-04-18T09:36:00.001Z</time></trkpt><trkpt lat="44.22775131364383" lon="11.629208054525355"><ele>195.25</ele><time>2026-04-18T09:36:02.001Z</time></trkpt><trkpt lat="44.227665499546355" lon="11.62910974612818"><ele>196.0</ele><time>2026-04-18T09:36:04.001Z</time></trkpt><trkpt lat="44.22758054551381" lon="11.62901044989064"><ele>196.0</ele><time>2026-04-18T09:36:06.001Z</time></trkpt><trkpt lat="44.22749021863542" lon="11.628913872996073"><ele>196.0</ele><time>2026-04-18T09:36:08.001Z</time></trkpt><trkpt lat="44.22739666688034" lon="11.628812637409553"><ele>196.0</ele><time>2026-04-18T09:36:10.001Z</time></trkpt><trkpt lat="44.22730600515339" lon="11.62871277047452"><ele>196.0</ele><time>2026-04-18T09:36:12.001Z</time></trkpt><trkpt lat="44.22721314642718" lon="11.628607233582267"><ele>196.25</ele><time>2026-04-18T09:36:14.001Z</time></trkpt><trkpt lat="44.22712134719111" lon="11.628508946395296"><ele>196.5</ele><time>2026-04-18T09:36:16.001Z</time></trkpt><trkpt lat="44.22702566317896" lon="11.628409857673665"><ele>196.75</ele><time>2026-04-18T09:36:18.001Z</time></trkpt><trkpt lat="44.226934060181534" lon="11.628311976418475"><ele>197.0</ele><time>2026-04-18T09:36:20.001Z</time></trkpt><trkpt lat="44.226842353454686" lon="11.628213582170055"><ele>197.0</ele><time>2026-04-18T09:36:22.001Z</time></trkpt><trkpt lat="44.226752138655975" lon="11.628116093955052"><ele>197.0</ele><time>2026-04-18T09:36:24.001Z</time></trkpt><trkpt lat="44.226666648608216" lon="11.628010659943145"><ele>197.0</ele><time>2026-04-18T09:36:26Z</time></trkpt><trkpt lat="44.22658030825076" lon="11.62790664543885"><ele>197.0</ele><time>2026-04-18T09:36:28Z</time></trkpt><trkpt lat="44.226502075962934" lon="11.627801268756226"><ele>196.5</ele><time>2026-04-18T09:36:30Z</time></trkpt><trkpt lat="44.2264143263042" lon="11.627693557038109"><ele>196.0</ele><time>2026-04-18T09:36:32Z</time></trkpt><trkpt lat="44.22633267861419" lon="11.62758299301314"><ele>195.5</ele><time>2026-04-18T09:36:34Z</time></trkpt><trkpt lat="44.226250419926956" lon="11.6274715580554"><ele>195.0</ele><time>2026-04-18T09:36:36Z</time></trkpt><trkpt lat="44.22616362886401" lon="11.627364083032937"><ele>195.0</ele><time>2026-04-18T09:36:38Z</time></trkpt><trkpt lat="44.226078885318756" lon="11.627256882957575"><ele>195.0</ele><time>2026-04-18T09:36:40Z</time></trkpt><trkpt lat="44.22598852558372" lon="11.627143041065773"><ele>195.0</ele><time>2026-04-18T09:36:42Z</time></trkpt><trkpt lat="44.225899487192684" lon="11.627030244529507"><ele>195.0</ele><time>2026-04-18T09:36:44Z</time></trkpt><trkpt lat="44.2258056335123" lon="11.6269219079397"><ele>194.8</ele><time>2026-04-18T09:36:46Z</time></trkpt><trkpt lat="44.22571328979072" lon="11.626807508777027"><ele>194.6</ele><time>2026-04-18T09:36:48Z</time></trkpt><trkpt lat="44.22562826397635" lon="11.626689480358795"><ele>194.39999999999998</ele><time>2026-04-18T09:36:50Z</time></trkpt><trkpt lat="44.22558036854111" lon="11.62663061408734"><ele>194.2</ele><time>2026-04-18T09:36:51Z</time></trkpt><trkpt lat="44.22548178886003" lon="11.62651602947505"><ele>194.0</ele><time>2026-04-18T09:36:53Z</time></trkpt><trkpt lat="44.22543428736132" lon="11.62645273660193"><ele>194.0</ele><time>2026-04-18T09:36:54Z</time></trkpt><trkpt lat="44.22534297716079" lon="11.626339609819972"><ele>194.0</ele><time>2026-04-18T09:36:56Z</time></trkpt><trkpt lat="44.225244010089895" lon="11.626213775718186"><ele>194.0</ele><time>2026-04-18T09:36:58Z</time></trkpt><trkpt lat="44.22515051468271" lon="11.626095230263555"><ele>194.0</ele><time>2026-04-18T09:37:00Z</time></trkpt><trkpt lat="44.225101631695246" lon="11.626033152886556"><ele>194.0</ele><time>2026-04-18T09:37:01Z</time></trkpt><trkpt lat="44.22505106631471" lon="11.625965637354176"><ele>194.28571428571428</ele><time>2026-04-18T09:37:02Z</time></trkpt><trkpt lat="44.225000280044014" lon="11.625901433094466"><ele>194.57142857142858</ele><time>2026-04-18T09:37:03Z</time></trkpt><trkpt lat="44.2249486878472" lon="11.625834403983987"><ele>194.85714285714286</ele><time>2026-04-18T09:37:04Z</time></trkpt><trkpt lat="44.22489698529359" lon="11.625770965403076"><ele>195.14285714285714</ele><time>2026-04-18T09:37:05Z</time></trkpt><trkpt lat="44.22484775078136" lon="11.625709121220083"><ele>195.42857142857144</ele><time>2026-04-18T09:37:06Z</time></trkpt><trkpt lat="44.224795118880486" lon="11.625642429487776"><ele>195.71428571428572</ele><time>2026-04-18T09:37:07Z</time></trkpt><trkpt lat="44.22474736472654" lon="11.625580982099722"><ele>196.0</ele><time>2026-04-18T09:37:08Z</time></trkpt><trkpt lat="44.22469966137035" lon="11.625519099339426"><ele>196.0</ele><time>2026-04-18T09:37:09Z</time></trkpt><trkpt lat="44.22465178028594" lon="11.625454308183734"><ele>196.0</ele><time>2026-04-18T09:37:10Z</time></trkpt><trkpt lat="44.22459972087992" lon="11.625393301517688"><ele>196.0</ele><time>2026-04-18T09:37:11Z</time></trkpt><trkpt lat="44.2245450242754" lon="11.625331648949755"><ele>196.0</ele><time>2026-04-18T09:37:12Z</time></trkpt><trkpt lat="44.22449124885703" lon="11.625267801244094"><ele>196.0</ele><time>2026-04-18T09:37:13Z</time></trkpt><trkpt lat="44.2244321003719" lon="11.625204536974831"><ele>196.0</ele><time>2026-04-18T09:37:14Z</time></trkpt><trkpt lat="44.224390788603465" lon="11.625136339922827"><ele>196.0</ele><time>2026-04-18T09:37:15Z</time></trkpt><trkpt lat="44.224354792908215" lon="11.625056875425194"><ele>196.8</ele><time>2026-04-18T09:37:16Z</time></trkpt><trkpt lat="44.224318019706374" lon="11.624980771192549"><ele>197.60000000000002</ele><time>2026-04-18T09:37:17Z</time></trkpt><trkpt lat="44.22424484885029" lon="11.624841475413605"><ele>198.4</ele><time>2026-04-18T09:37:19Z</time></trkpt><trkpt lat="44.22417686011066" lon="11.624698797161527"><ele>199.2</ele><time>2026-04-18T09:37:21Z</time></trkpt><trkpt lat="44.224134111300806" lon="11.624628047022023"><ele>200.0</ele><time>2026-04-18T09:37:22Z</time></trkpt><trkpt lat="44.224056553693956" lon="11.624494007883543"><ele>200.25</ele><time>2026-04-18T09:37:24Z</time></trkpt><trkpt lat="44.223983165250104" lon="11.624367688050315"><ele>200.5</ele><time>2026-04-18T09:37:26Z</time></trkpt><trkpt lat="44.223918528083125" lon="11.624235819662422"><ele>200.75</ele><time>2026-04-18T09:37:28Z</time></trkpt><trkpt lat="44.223850026101005" lon="11.624113887024656"><ele>201.0</ele><time>2026-04-18T09:37:30Z</time></trkpt><trkpt lat="44.22377974389007" lon="11.623988956512841"><ele>201.0</ele><time>2026-04-18T09:37:32Z</time></trkpt><trkpt lat="44.223714321680696" lon="11.623872408529298"><ele>201.0</ele><time>2026-04-18T09:37:34Z</time></trkpt><trkpt lat="44.22364660869688" lon="11.623741973149516"><ele>201.0</ele><time>2026-04-18T09:37:36Z</time></trkpt><trkpt lat="44.22357771806477" lon="11.623625231153428"><ele>201.0</ele><time>2026-04-18T09:37:38Z</time></trkpt><trkpt lat="44.22351568989775" lon="11.623501844472786"><ele>201.0</ele><time>2026-04-18T09:37:40Z</time></trkpt><trkpt lat="44.22344746813737" lon="11.623377115159094"><ele>201.0</ele><time>2026-04-18T09:37:42Z</time></trkpt><trkpt lat="44.22338363740602" lon="11.623252966390817"><ele>201.0</ele><time>2026-04-18T09:37:44Z</time></trkpt><trkpt lat="44.223318503603394" lon="11.623129858638384"><ele>201.0</ele><time>2026-04-18T09:37:46Z</time></trkpt><trkpt lat="44.22325222902059" lon="11.622997193960618"><ele>201.0</ele><time>2026-04-18T09:37:48Z</time></trkpt><trkpt lat="44.2231861684193" lon="11.622879275247723"><ele>201.0</ele><time>2026-04-18T09:37:50Z</time></trkpt><trkpt lat="44.22312756072541" lon="11.622773083759034"><ele>201.25</ele><time>2026-04-18T09:37:52Z</time></trkpt><trkpt lat="44.22307489557" lon="11.622677225702187"><ele>201.5</ele><time>2026-04-18T09:37:54Z</time></trkpt><trkpt lat="44.22303093485068" lon="11.622597599692432"><ele>201.75</ele><time>2026-04-18T09:37:56Z</time></trkpt><trkpt lat="44.22298283556421" lon="11.622516793782285"><ele>202.0</ele><time>2026-04-18T09:37:59.001Z</time></trkpt><trkpt lat="44.223227701191306" lon="11.622215006511304"><ele>202.0</ele><time>2026-04-18T09:40:24.001Z</time></trkpt><trkpt lat="44.223004829094116" lon="11.622498045585997"><ele>202.0</ele><time>2026-04-18T09:40:36.001Z</time></trkpt><trkpt lat="44.22295201648152" lon="11.622433371443233"><ele>202.0</ele><time>2026-04-18T09:54:01Z</time></trkpt><trkpt lat="44.22291231730623" lon="11.622358841014895"><ele>202.0</ele><time>2026-04-18T09:54:06Z</time></trkpt><trkpt lat="44.22287297713372" lon="11.622265535327154"><ele>201.99999999999997</ele><time>2026-04-18T09:54:10Z</time></trkpt><trkpt lat="44.22282264463044" lon="11.622200398692899"><ele>202.0</ele><time>2026-04-18T09:54:12Z</time></trkpt><trkpt lat="44.22277128869673" lon="11.62212575793102"><ele>202.0</ele><time>2026-04-18T09:54:14Z</time></trkpt><trkpt lat="44.2227271569746" lon="11.622035431122283"><ele>202.0</ele><time>2026-04-18T09:54:16Z</time></trkpt><trkpt lat="44.222672203098725" lon="11.62194348149564"><ele>201.99999999999997</ele><time>2026-04-18T09:54:17.999Z</time></trkpt><trkpt lat="44.222613362475386" lon="11.621834455461064"><ele>202.0</ele><time>2026-04-18T09:54:19.999Z</time></trkpt><trkpt lat="44.22255250915105" lon="11.621725589226306"><ele>202.39999999999998</ele><time>2026-04-18T09:54:21.999Z</time></trkpt><trkpt lat="44.22249974069752" lon="11.621617688949945"><ele>202.79999999999998</ele><time>2026-04-18T09:54:23.999Z</time></trkpt><trkpt lat="44.22244044837887" lon="11.621511424311466"><ele>203.2</ele><time>2026-04-18T09:54:25.999Z</time></trkpt><trkpt lat="44.222380726728645" lon="11.621410334091362"><ele>203.6</ele><time>2026-04-18T09:54:27.999Z</time></trkpt><trkpt lat="44.222325507642196" lon="11.62130182794898"><ele>204.0</ele><time>2026-04-18T09:54:29.999Z</time></trkpt><trkpt lat="44.22226354565908" lon="11.621198512303023"><ele>203.0</ele><time>2026-04-18T09:54:31.999Z</time></trkpt><trkpt lat="44.22220566814809" lon="11.621084932890007"><ele>202.0</ele><time>2026-04-18T09:54:33.999Z</time></trkpt><trkpt lat="44.22214666299665" lon="11.620978785719542"><ele>201.0</ele><time>2026-04-18T09:54:35.999Z</time></trkpt><trkpt lat="44.22208558025138" lon="11.620863905757513"><ele>200.0</ele><time>2026-04-18T09:54:37.999Z</time></trkpt><trkpt lat="44.222017567825" lon="11.62074942864688"><ele>199.0</ele><time>2026-04-18T09:54:39.999Z</time></trkpt><trkpt lat="44.22195764176718" lon="11.620629453798372"><ele>199.0</ele><time>2026-04-18T09:54:41.999Z</time></trkpt><trkpt lat="44.22189172058394" lon="11.620513264397147"><ele>199.0</ele><time>2026-04-18T09:54:43.999Z</time></trkpt><trkpt lat="44.22182319264347" lon="11.620390712063372"><ele>199.0</ele><time>2026-04-18T09:54:45.999Z</time></trkpt><trkpt lat="44.221756903473576" lon="11.620271501541714"><ele>199.0</ele><time>2026-04-18T09:54:47.999Z</time></trkpt><trkpt lat="44.221692004372315" lon="11.62015255521811"><ele>199.0</ele><time>2026-04-18T09:54:49.999Z</time></trkpt><trkpt lat="44.221620529304914" lon="11.620037211379772"><ele>200.5</ele><time>2026-04-18T09:54:51.999Z</time></trkpt><trkpt lat="44.221552349258246" lon="11.619912830382416"><ele>202.0</ele><time>2026-04-18T09:54:53.999Z</time></trkpt><trkpt lat="44.221485404255375" lon="11.619787672556544"><ele>203.5</ele><time>2026-04-18T09:54:55.999Z</time></trkpt><trkpt lat="44.22142001199132" lon="11.619664200961953"><ele>205.0</ele><time>2026-04-18T09:54:57.999Z</time></trkpt><trkpt lat="44.221347555509055" lon="11.619535792053288"><ele>204.25</ele><time>2026-04-18T09:54:59.999Z</time></trkpt><trkpt lat="44.22127396038706" lon="11.619404353601475"><ele>203.5</ele><time>2026-04-18T09:55:01.999Z</time></trkpt><trkpt lat="44.22119763034793" lon="11.619284675306746"><ele>202.75</ele><time>2026-04-18T09:55:03.999Z</time></trkpt><trkpt lat="44.2211290090254" lon="11.619162665792002"><ele>202.0</ele><time>2026-04-18T09:55:05.999Z</time></trkpt><trkpt lat="44.22105625040046" lon="11.619034885759453"><ele>202.0</ele><time>2026-04-18T09:55:07.999Z</time></trkpt><trkpt lat="44.22097586314705" lon="11.618905265751556"><ele>202.0</ele><time>2026-04-18T09:55:09.999Z</time></trkpt><trkpt lat="44.220896525235545" lon="11.618792170642989"><ele>202.0</ele><time>2026-04-18T09:55:11.999Z</time></trkpt><trkpt lat="44.220818666704375" lon="11.618666912746164"><ele>202.0</ele><time>2026-04-18T09:55:13.999Z</time></trkpt><trkpt lat="44.22073522031126" lon="11.618538642220745"><ele>200.8</ele><time>2026-04-18T09:55:15.999Z</time></trkpt><trkpt lat="44.220691079123114" lon="11.618474843826723"><ele>199.6</ele><time>2026-04-18T09:55:16.999Z</time></trkpt><trkpt lat="44.22060345670889" lon="11.618355384965433"><ele>198.4</ele><time>2026-04-18T09:55:18.999Z</time></trkpt><trkpt lat="44.22050942538972" lon="11.61824007467314"><ele>197.20000000000002</ele><time>2026-04-18T09:55:20.999Z</time></trkpt><trkpt lat="44.22040862053613" lon="11.618133059757382"><ele>196.0</ele><time>2026-04-18T09:55:22.999Z</time></trkpt><trkpt lat="44.22035187631338" lon="11.618086006915048"><ele>195.99999999999997</ele><time>2026-04-18T09:55:23.999Z</time></trkpt><trkpt lat="44.22029520110117" lon="11.618041196878398"><ele>196.0</ele><time>2026-04-18T09:55:24.999Z</time></trkpt><trkpt lat="44.22023921428272" lon="11.61799685078521"><ele>196.0</ele><time>2026-04-18T09:55:25.999Z</time></trkpt><trkpt lat="44.22018113894813" lon="11.617952285612834"><ele>196.0</ele><time>2026-04-18T09:55:26.999Z</time></trkpt><trkpt lat="44.22012499856685" lon="11.617911115268337"><ele>195.99999999999997</ele><time>2026-04-18T09:55:27.999Z</time></trkpt><trkpt lat="44.22001446690788" lon="11.617830264346267"><ele>196.0</ele><time>2026-04-18T09:55:29.999Z</time></trkpt><trkpt lat="44.21992245703005" lon="11.617747558385751"><ele>196.83333333333331</ele><time>2026-04-18T09:55:31.999Z</time></trkpt><trkpt lat="44.219828974075355" lon="11.617679381862215"><ele>197.66666666666666</ele><time>2026-04-18T09:55:33.999Z</time></trkpt><trkpt lat="44.21975324749759" lon="11.61761534997218"><ele>198.5</ele><time>2026-04-18T09:55:35.999Z</time></trkpt><trkpt lat="44.21969004978575" lon="11.617568774532256"><ele>199.33333333333331</ele><time>2026-04-18T09:55:37.999Z</time></trkpt><trkpt lat="44.219625031704574" lon="11.617528008391677"><ele>200.16666666666666</ele><time>2026-04-18T09:55:40.999Z</time></trkpt><trkpt lat="44.21956861118833" lon="11.617478416119068"><ele>201.0</ele><time>2026-04-18T09:55:45.999Z</time></trkpt><trkpt lat="44.21949032748717" lon="11.617445900572662"><ele>201.0</ele><time>2026-04-18T09:56:06.999Z</time></trkpt><trkpt lat="44.21942212138887" lon="11.61739883600628"><ele>201.0</ele><time>2026-04-18T09:56:08.999Z</time></trkpt><trkpt lat="44.21933838849157" lon="11.617336165167785"><ele>201.0</ele><time>2026-04-18T09:56:10.999Z</time></trkpt><trkpt lat="44.219248858873556" lon="11.617259623302315"><ele>201.0</ele><time>2026-04-18T09:56:12.999Z</time></trkpt><trkpt lat="44.21915209131841" lon="11.61719183002344"><ele>201.0</ele><time>2026-04-18T09:56:14.999Z</time></trkpt><trkpt lat="44.21904935210143" lon="11.617130022836829"><ele>200.4</ele><time>2026-04-18T09:56:16.999Z</time></trkpt><trkpt lat="44.21895422574811" lon="11.617047946267965"><ele>199.8</ele><time>2026-04-18T09:56:18.999Z</time></trkpt><trkpt lat="44.218864665039845" lon="11.616969327118987"><ele>199.20000000000002</ele><time>2026-04-18T09:56:20.999Z</time></trkpt><trkpt lat="44.21876981701261" lon="11.616899167618383"><ele>198.60000000000002</ele><time>2026-04-18T09:56:22.999Z</time></trkpt><trkpt lat="44.21867277414961" lon="11.616830083114879"><ele>198.0</ele><time>2026-04-18T09:56:24.999Z</time></trkpt><trkpt lat="44.21856966676551" lon="11.616767920965586"><ele>204.5</ele><time>2026-04-18T09:56:26.999Z</time></trkpt><trkpt lat="44.21846420036213" lon="11.616722336020675"><ele>211.0</ele><time>2026-04-18T09:56:28.999Z</time></trkpt><trkpt lat="44.21835485080766" lon="11.616695583970218"><ele>217.5</ele><time>2026-04-18T09:56:30.999Z</time></trkpt><trkpt lat="44.2182421934205" lon="11.616722211824937"><ele>224.0</ele><time>2026-04-18T09:56:32.999Z</time></trkpt><trkpt lat="44.218141862264915" lon="11.616802404138657"><ele>221.0</ele><time>2026-04-18T09:56:34.999Z</time></trkpt><trkpt lat="44.21804624161182" lon="11.616893868653362"><ele>218.0</ele><time>2026-04-18T09:56:36.999Z</time></trkpt><trkpt lat="44.21794288469325" lon="11.616977689961786"><ele>215.0</ele><time>2026-04-18T09:56:38.999Z</time></trkpt><trkpt lat="44.21784256986127" lon="11.617076677545118"><ele>212.0</ele><time>2026-04-18T09:56:40.999Z</time></trkpt><trkpt lat="44.217737607855604" lon="11.617161748929794"><ele>212.0</ele><time>2026-04-18T09:56:42.999Z</time></trkpt><trkpt lat="44.21763409002446" lon="11.617256777559813"><ele>212.0</ele><time>2026-04-18T09:56:44.999Z</time></trkpt><trkpt lat="44.21758030257837" lon="11.617305997717862"><ele>212.0</ele><time>2026-04-18T09:56:45.999Z</time></trkpt><trkpt lat="44.217477155117386" lon="11.61739762231811"><ele>212.0</ele><time>2026-04-18T09:56:47.999Z</time></trkpt><trkpt lat="44.21736786403389" lon="11.617484732404396"><ele>212.0</ele><time>2026-04-18T09:56:49.999Z</time></trkpt><trkpt lat="44.21731104045797" lon="11.617527602864135"><ele>213.5</ele><time>2026-04-18T09:56:50.999Z</time></trkpt><trkpt lat="44.217192392824394" lon="11.617595903707072"><ele>215.0</ele><time>2026-04-18T09:56:52.999Z</time></trkpt><trkpt lat="44.217072837710575" lon="11.61762991025574"><ele>216.5</ele><time>2026-04-18T09:56:54.999Z</time></trkpt><trkpt lat="44.21695161835322" lon="11.61764619899572"><ele>218.0</ele><time>2026-04-18T09:56:56.999Z</time></trkpt><trkpt lat="44.21682755559164" lon="11.617653710742449"><ele>218.0</ele><time>2026-04-18T09:56:58.999Z</time></trkpt><trkpt lat="44.216763161547775" lon="11.617655715570368"><ele>218.0</ele><time>2026-04-18T09:56:59.999Z</time></trkpt><trkpt lat="44.216640586875776" lon="11.617663494051415"><ele>218.0</ele><time>2026-04-18T09:57:01.999Z</time></trkpt><trkpt lat="44.216517588121704" lon="11.617670126071868"><ele>218.0</ele><time>2026-04-18T09:57:03.999Z</time></trkpt><trkpt lat="44.216328596211284" lon="11.617674375446347"><ele>218.00000000000003</ele><time>2026-04-18T09:57:06.999Z</time></trkpt><trkpt lat="44.21626324860687" lon="11.617675909701443"><ele>218.0</ele><time>2026-04-18T09:57:07.999Z</time></trkpt><trkpt lat="44.21613822406578" lon="11.617679355112513"><ele>218.0</ele><time>2026-04-18T09:57:09.999Z</time></trkpt><trkpt lat="44.216074645343134" lon="11.617680075198342"><ele>218.0</ele><time>2026-04-18T09:57:10.999Z</time></trkpt><trkpt lat="44.21600818864504" lon="11.617681056567777"><ele>218.00000000000003</ele><time>2026-04-18T09:57:11.999Z</time></trkpt><trkpt lat="44.2159422628074" lon="11.617683784960038"><ele>218.0</ele><time>2026-04-18T09:57:12.999Z</time></trkpt><trkpt lat="44.21587450829435" lon="11.617686983472463"><ele>218.0</ele><time>2026-04-18T09:57:13.999Z</time></trkpt><trkpt lat="44.21580554046532" lon="11.617691271697725"><ele>218.0</ele><time>2026-04-18T09:57:14.999Z</time></trkpt><trkpt lat="44.21573705199948" lon="11.617694192602126"><ele>218.0</ele><time>2026-04-18T09:57:15.999Z</time></trkpt><trkpt lat="44.21567008024419" lon="11.61769826517622"><ele>218.0</ele><time>2026-04-18T09:57:16.999Z</time></trkpt><trkpt lat="44.215603277146755" lon="11.617700437412338"><ele>218.0</ele><time>2026-04-18T09:57:17.999Z</time></trkpt><trkpt lat="44.21553658341809" lon="11.617702193074397"><ele>218.0</ele><time>2026-04-18T09:57:18.999Z</time></trkpt><trkpt lat="44.21546852683133" lon="11.617706363096714"><ele>218.0</ele><time>2026-04-18T09:57:19.999Z</time></trkpt><trkpt lat="44.21540144511498" lon="11.617710781728821"><ele>218.14285714285714</ele><time>2026-04-18T09:57:20.999Z</time></trkpt><trkpt lat="44.21533313004195" lon="11.617715351164215"><ele>218.28571428571428</ele><time>2026-04-18T09:57:21.999Z</time></trkpt><trkpt lat="44.215266706666185" lon="11.617718350894126"><ele>218.42857142857144</ele><time>2026-04-18T09:57:22.999Z</time></trkpt><trkpt lat="44.215198088149265" lon="11.617723005074303"><ele>218.57142857142856</ele><time>2026-04-18T09:57:23.999Z</time></trkpt><trkpt lat="44.21513191827691" lon="11.61772611778518"><ele>218.7142857142857</ele><time>2026-04-18T09:57:24.998Z</time></trkpt><trkpt lat="44.215063893033054" lon="11.617730996634549"><ele>218.85714285714286</ele><time>2026-04-18T09:57:25.998Z</time></trkpt><trkpt lat="44.21499930077571" lon="11.617734846650633"><ele>219.0</ele><time>2026-04-18T09:57:26.998Z</time></trkpt><trkpt lat="44.21493375039212" lon="11.617738729244195"><ele>220.5</ele><time>2026-04-18T09:57:27.998Z</time></trkpt><trkpt lat="44.21480422837498" lon="11.617744910517697"><ele>222.0</ele><time>2026-04-18T09:57:29.998Z</time></trkpt><trkpt lat="44.21467406633599" lon="11.617751190126539"><ele>223.5</ele><time>2026-04-18T09:57:31.998Z</time></trkpt><trkpt lat="44.2146095967398" lon="11.617754955290017"><ele>225.0</ele><time>2026-04-18T09:57:32.998Z</time></trkpt><trkpt lat="44.21448393911389" lon="11.617759270405617"><ele>225.0</ele><time>2026-04-18T09:57:34.998Z</time></trkpt><trkpt lat="44.214357579133136" lon="11.61776719280784"><ele>225.0</ele><time>2026-04-18T09:57:36.998Z</time></trkpt><trkpt lat="44.21429424234965" lon="11.617776020372608"><ele>225.0</ele><time>2026-04-18T09:57:37.998Z</time></trkpt><trkpt lat="44.21422967282678" lon="11.617782580049866"><ele>225.0</ele><time>2026-04-18T09:57:38.998Z</time></trkpt><trkpt lat="44.21410836225393" lon="11.617783727326863"><ele>225.0</ele><time>2026-04-18T09:57:40.998Z</time></trkpt><trkpt lat="44.21398254874585" lon="11.617787842015758"><ele>224.83333333333334</ele><time>2026-04-18T09:57:42.998Z</time></trkpt><trkpt lat="44.21385492197172" lon="11.617789452040764"><ele>224.66666666666669</ele><time>2026-04-18T09:57:44.998Z</time></trkpt><trkpt lat="44.21378942075988" lon="11.617784817371678"><ele>224.5</ele><time>2026-04-18T09:57:45.998Z</time></trkpt><trkpt lat="44.21372286374636" lon="11.617778448173105"><ele>224.33333333333334</ele><time>2026-04-18T09:57:46.999Z</time></trkpt><trkpt lat="44.21365363993715" lon="11.617767412916708"><ele>224.16666666666669</ele><time>2026-04-18T09:57:47.999Z</time></trkpt><trkpt lat="44.21358699566957" lon="11.617751044507443"><ele>224.0</ele><time>2026-04-18T09:57:48.999Z</time></trkpt><trkpt lat="44.213523624753726" lon="11.617730206580134"><ele>224.0</ele><time>2026-04-18T09:57:49.999Z</time></trkpt><trkpt lat="44.21345501778831" lon="11.617708586274862"><ele>223.99999999999997</ele><time>2026-04-18T09:57:50.999Z</time></trkpt><trkpt lat="44.213331565537345" lon="11.617664321295281"><ele>223.99999999999997</ele><time>2026-04-18T09:57:52.999Z</time></trkpt><trkpt lat="44.213209806087164" lon="11.617620318133868"><ele>224.0</ele><time>2026-04-18T09:57:54.999Z</time></trkpt><trkpt lat="44.2130885446676" lon="11.617576556598708"><ele>224.0</ele><time>2026-04-18T09:57:56.999Z</time></trkpt><trkpt lat="44.21302503325158" lon="11.617549108756437"><ele>223.39999999999998</ele><time>2026-04-18T09:57:57.999Z</time></trkpt><trkpt lat="44.2129023533504" lon="11.61750217683396"><ele>222.79999999999998</ele><time>2026-04-18T09:57:59.999Z</time></trkpt><trkpt lat="44.21283956679206" lon="11.617481562441576"><ele>222.20000000000002</ele><time>2026-04-18T09:58:00.999Z</time></trkpt><trkpt lat="44.2127772882873" lon="11.617460987063286"><ele>221.60000000000002</ele><time>2026-04-18T09:58:01.999Z</time></trkpt><trkpt lat="44.21265712140594" lon="11.617412417744964"><ele>221.0</ele><time>2026-04-18T09:58:03.999Z</time></trkpt><trkpt lat="44.212545188380304" lon="11.617372573154313"><ele>221.0</ele><time>2026-04-18T09:58:05.999Z</time></trkpt><trkpt lat="44.21244433357779" lon="11.617331569598992"><ele>221.00000000000003</ele><time>2026-04-18T09:58:07.999Z</time></trkpt><trkpt lat="44.21234495968598" lon="11.617290753999544"><ele>221.00000000000003</ele><time>2026-04-18T09:58:09.999Z</time></trkpt><trkpt lat="44.21222869634433" lon="11.617242113953587"><ele>221.0</ele><time>2026-04-18T09:58:11.999Z</time></trkpt><trkpt lat="44.2121675519537" lon="11.617221211053364"><ele>221.0</ele><time>2026-04-18T09:58:12.999Z</time></trkpt><trkpt lat="44.212102887026255" lon="11.617199435927361"><ele>222.16666666666669</ele><time>2026-04-18T09:58:13.999Z</time></trkpt><trkpt lat="44.21203706859553" lon="11.617177428742531"><ele>223.33333333333334</ele><time>2026-04-18T09:58:14.999Z</time></trkpt><trkpt lat="44.211971720735505" lon="11.61714147244949"><ele>224.5</ele><time>2026-04-18T09:58:15.999Z</time></trkpt><trkpt lat="44.21187516126112" lon="11.617100246924503"><ele>225.66666666666669</ele><time>2026-04-18T09:58:17.999Z</time></trkpt><trkpt lat="44.21181282625571" lon="11.617066793419944"><ele>226.83333333333334</ele><time>2026-04-18T09:59:08.999Z</time></trkpt><trkpt lat="44.21174091607526" lon="11.617011000725844"><ele>228.0</ele><time>2026-04-18T09:59:10.999Z</time></trkpt><trkpt lat="44.21162413385514" lon="11.616962114454843"><ele>228.0</ele><time>2026-04-18T09:59:12.999Z</time></trkpt><trkpt lat="44.21156390295288" lon="11.61692709657183"><ele>227.99999999999997</ele><time>2026-04-18T09:59:13.999Z</time></trkpt><trkpt lat="44.21150203972028" lon="11.616895782184352"><ele>228.0</ele><time>2026-04-18T09:59:14.999Z</time></trkpt><trkpt lat="44.211433707082904" lon="11.616871360597527"><ele>228.0</ele><time>2026-04-18T09:59:15.999Z</time></trkpt><trkpt lat="44.21136220068771" lon="11.61684017003346"><ele>227.99999999999997</ele><time>2026-04-18T09:59:16.999Z</time></trkpt><trkpt lat="44.211283465176706" lon="11.616813029809324"><ele>228.0</ele><time>2026-04-18T09:59:17.999Z</time></trkpt><trkpt lat="44.211206297852144" lon="11.616788702894512"><ele>228.0</ele><time>2026-04-18T09:59:18.999Z</time></trkpt><trkpt lat="44.21112798690693" lon="11.616761713012053"><ele>226.33333333333334</ele><time>2026-04-18T09:59:19.999Z</time></trkpt><trkpt lat="44.21104690021007" lon="11.616744804707444"><ele>224.66666666666669</ele><time>2026-04-18T09:59:20.999Z</time></trkpt><trkpt lat="44.21096527985675" lon="11.616722760672928"><ele>223.0</ele><time>2026-04-18T09:59:21.999Z</time></trkpt><trkpt lat="44.21088752292262" lon="11.616690964201405"><ele>221.33333333333334</ele><time>2026-04-18T09:59:22.999Z</time></trkpt><trkpt lat="44.210803530990546" lon="11.616669825108657"><ele>219.66666666666669</ele><time>2026-04-18T09:59:24Z</time></trkpt><trkpt lat="44.21071972749623" lon="11.616643639677994"><ele>218.0</ele><time>2026-04-18T09:59:25Z</time></trkpt><trkpt lat="44.21063371581746" lon="11.61662192941201"><ele>217.16666666666669</ele><time>2026-04-18T09:59:26Z</time></trkpt><trkpt lat="44.210549465245926" lon="11.616609864333137"><ele>216.33333333333334</ele><time>2026-04-18T09:59:27Z</time></trkpt><trkpt lat="44.21046785913732" lon="11.616600624436568"><ele>215.5</ele><time>2026-04-18T09:59:28Z</time></trkpt><trkpt lat="44.210389198264856" lon="11.61659860340772"><ele>214.66666666666669</ele><time>2026-04-18T09:59:29Z</time></trkpt><trkpt lat="44.21030694999294" lon="11.61661518069516"><ele>213.83333333333334</ele><time>2026-04-18T09:59:30Z</time></trkpt><trkpt lat="44.210230527251326" lon="11.616642722168063"><ele>213.0</ele><time>2026-04-18T09:59:30.998Z</time></trkpt><trkpt lat="44.21015581771288" lon="11.616686129477198"><ele>213.0</ele><time>2026-04-18T09:59:31.998Z</time></trkpt><trkpt lat="44.210086859058336" lon="11.616747763886528"><ele>213.0</ele><time>2026-04-18T09:59:32.998Z</time></trkpt><trkpt lat="44.21003800908817" lon="11.616838774575001"><ele>213.0</ele><time>2026-04-18T09:59:33.998Z</time></trkpt><trkpt lat="44.21001055367891" lon="11.616951803880138"><ele>213.0</ele><time>2026-04-18T09:59:34.998Z</time></trkpt><trkpt lat="44.209984591465634" lon="11.617065157423855"><ele>213.0</ele><time>2026-04-18T09:59:35.998Z</time></trkpt><trkpt lat="44.20995701199666" lon="11.617173496556044"><ele>213.0</ele><time>2026-04-18T09:59:36.998Z</time></trkpt><trkpt lat="44.20992498495092" lon="11.617277684992604"><ele>212.33333333333334</ele><time>2026-04-18T09:59:37.998Z</time></trkpt><trkpt lat="44.20989270686685" lon="11.617381699793684"><ele>211.66666666666669</ele><time>2026-04-18T09:59:38.998Z</time></trkpt><trkpt lat="44.20986317156458" lon="11.617484523572143"><ele>211.0</ele><time>2026-04-18T09:59:39.998Z</time></trkpt><trkpt lat="44.20983507605389" lon="11.617587892166506"><ele>210.33333333333334</ele><time>2026-04-18T09:59:40.998Z</time></trkpt><trkpt lat="44.20980831743981" lon="11.617693868621364"><ele>209.66666666666669</ele><time>2026-04-18T09:59:41.998Z</time></trkpt><trkpt lat="44.20977975794494" lon="11.617801211868493"><ele>209.0</ele><time>2026-04-18T09:59:42.999Z</time></trkpt><trkpt lat="44.20974444650944" lon="11.617895533600915"><ele>211.00000000000003</ele><time>2026-04-18T09:59:43.999Z</time></trkpt><trkpt lat="44.20969019841591" lon="11.617974617019824"><ele>213.0</ele><time>2026-04-18T09:59:44.999Z</time></trkpt><trkpt lat="44.20961669854221" lon="11.618030758306348"><ele>215.0</ele><time>2026-04-18T09:59:45.999Z</time></trkpt><trkpt lat="44.20954505528431" lon="11.618062139478845"><ele>217.0</ele><time>2026-04-18T09:59:46.999Z</time></trkpt><trkpt lat="44.20947076820791" lon="11.618087169108902"><ele>219.00000000000003</ele><time>2026-04-18T09:59:47.999Z</time></trkpt><trkpt lat="44.209402206562416" lon="11.61810027227852"><ele>221.0</ele><time>2026-04-18T09:59:48.999Z</time></trkpt><trkpt lat="44.20933305402432" lon="11.618099853345162"><ele>221.00000000000003</ele><time>2026-04-18T09:59:49.999Z</time></trkpt><trkpt lat="44.20926594536582" lon="11.61807198055728"><ele>221.0</ele><time>2026-04-18T09:59:50.999Z</time></trkpt><trkpt lat="44.209208225486" lon="11.618027030006987"><ele>221.0</ele><time>2026-04-18T09:59:51.999Z</time></trkpt><trkpt lat="44.20915117672677" lon="11.617985955206338"><ele>221.0</ele><time>2026-04-18T09:59:52.999Z</time></trkpt><trkpt lat="44.20909609738457" lon="11.617942008169088"><ele>221.00000000000003</ele><time>2026-04-18T09:59:53.999Z</time></trkpt><trkpt lat="44.2089814493823" lon="11.617864717715339"><ele>221.0</ele><time>2026-04-18T09:59:55.999Z</time></trkpt><trkpt lat="44.20892212575545" lon="11.617825179675568"><ele>220.83333333333334</ele><time>2026-04-18T09:59:56.999Z</time></trkpt><trkpt lat="44.208864355230546" lon="11.617785565083079"><ele>220.66666666666669</ele><time>2026-04-18T09:59:57.999Z</time></trkpt><trkpt lat="44.20880804962854" lon="11.61774427192157"><ele>220.5</ele><time>2026-04-18T09:59:58.999Z</time></trkpt><trkpt lat="44.208748944400895" lon="11.617701797049246"><ele>220.33333333333331</ele><time>2026-04-18T09:59:59.999Z</time></trkpt><trkpt lat="44.20869034621279" lon="11.617661086647761"><ele>220.16666666666666</ele><time>2026-04-18T10:00:00.999Z</time></trkpt><trkpt lat="44.208576154642444" lon="11.617579146530252"><ele>220.0</ele><time>2026-04-18T10:00:02.999Z</time></trkpt><trkpt lat="44.20851802466866" lon="11.617537638209338"><ele>219.99999999999997</ele><time>2026-04-18T10:00:03.999Z</time></trkpt><trkpt lat="44.208460797832586" lon="11.61749493739281"><ele>220.0</ele><time>2026-04-18T10:00:04.999Z</time></trkpt><trkpt lat="44.208403357277" lon="11.617452198502638"><ele>220.0</ele><time>2026-04-18T10:00:05.999Z</time></trkpt><trkpt lat="44.20834837526498" lon="11.617409356895749"><ele>220.0</ele><time>2026-04-18T10:00:06.999Z</time></trkpt><trkpt lat="44.208290276811866" lon="11.617364162827197"><ele>220.0</ele><time>2026-04-18T10:00:07.999Z</time></trkpt><trkpt lat="44.20823272756292" lon="11.61732134049327"><ele>219.99999999999997</ele><time>2026-04-18T10:00:08.999Z</time></trkpt><trkpt lat="44.20817658012007" lon="11.617276851594589"><ele>220.0</ele><time>2026-04-18T10:00:09.999Z</time></trkpt><trkpt lat="44.20812139627431" lon="11.617231879677853"><ele>220.85714285714283</ele><time>2026-04-18T10:00:10.999Z</time></trkpt><trkpt lat="44.208067136094954" lon="11.617187086576878"><ele>221.71428571428572</ele><time>2026-04-18T10:00:11.999Z</time></trkpt><trkpt lat="44.208009087387325" lon="11.617138722542347"><ele>222.57142857142856</ele><time>2026-04-18T10:00:12.999Z</time></trkpt><trkpt lat="44.20795341050884" lon="11.617089905061531"><ele>223.42857142857142</ele><time>2026-04-18T10:00:13.999Z</time></trkpt><trkpt lat="44.20789795759484" lon="11.617044847114467"><ele>224.28571428571428</ele><time>2026-04-18T10:00:14.999Z</time></trkpt><trkpt lat="44.20783800221762" lon="11.616998161537659"><ele>225.14285714285714</ele><time>2026-04-18T10:00:15.999Z</time></trkpt><trkpt lat="44.20778197906655" lon="11.616945982406799"><ele>226.0</ele><time>2026-04-18T10:00:16.999Z</time></trkpt><trkpt lat="44.207728505866925" lon="11.616893609497307"><ele>226.0</ele><time>2026-04-18T10:00:18Z</time></trkpt><trkpt lat="44.2076710400062" lon="11.616843868346352"><ele>226.0</ele><time>2026-04-18T10:00:19Z</time></trkpt><trkpt lat="44.20761558916741" lon="11.616792860109474"><ele>226.0</ele><time>2026-04-18T10:00:20Z</time></trkpt><trkpt lat="44.207560323520546" lon="11.616738035512569"><ele>226.0</ele><time>2026-04-18T10:00:21Z</time></trkpt><trkpt lat="44.20750622745708" lon="11.616682943414872"><ele>226.0</ele><time>2026-04-18T10:00:22Z</time></trkpt><trkpt lat="44.20745102319378" lon="11.61662619076795"><ele>226.0</ele><time>2026-04-18T10:00:23Z</time></trkpt><trkpt lat="44.20739777561001" lon="11.616567909542782"><ele>226.0</ele><time>2026-04-18T10:00:24Z</time></trkpt><trkpt lat="44.207344566707434" lon="11.616508729784057"><ele>226.14285714285717</ele><time>2026-04-18T10:00:25Z</time></trkpt><trkpt lat="44.20729084063037" lon="11.61645284787503"><ele>226.28571428571428</ele><time>2026-04-18T10:00:26Z</time></trkpt><trkpt lat="44.20723655792089" lon="11.616395022151165"><ele>226.42857142857144</ele><time>2026-04-18T10:00:27Z</time></trkpt><trkpt lat="44.207183368525826" lon="11.616332538294232"><ele>226.57142857142858</ele><time>2026-04-18T10:00:28Z</time></trkpt><trkpt lat="44.207130458812046" lon="11.616272744407471"><ele>226.71428571428572</ele><time>2026-04-18T10:00:29Z</time></trkpt><trkpt lat="44.2070793156752" lon="11.616212530435346"><ele>226.85714285714286</ele><time>2026-04-18T10:00:30Z</time></trkpt><trkpt lat="44.20702860767547" lon="11.616152203220919"><ele>227.0</ele><time>2026-04-18T10:00:31Z</time></trkpt><trkpt lat="44.20697252104645" lon="11.616092699089352"><ele>227.0</ele><time>2026-04-18T10:00:32Z</time></trkpt><trkpt lat="44.20691664741078" lon="11.616034404659505"><ele>227.00000000000003</ele><time>2026-04-18T10:00:33Z</time></trkpt><trkpt lat="44.20686631457434" lon="11.615975915887603"><ele>227.0</ele><time>2026-04-18T10:00:34Z</time></trkpt><trkpt lat="44.20681481205921" lon="11.615914544841527"><ele>227.0</ele><time>2026-04-18T10:00:35Z</time></trkpt><trkpt lat="44.206763014278536" lon="11.615857879365809"><ele>227.00000000000003</ele><time>2026-04-18T10:00:36Z</time></trkpt><trkpt lat="44.2067100067394" lon="11.61579894797188"><ele>227.0</ele><time>2026-04-18T10:00:37Z</time></trkpt><trkpt lat="44.20665801449789" lon="11.615739245520809"><ele>227.0</ele><time>2026-04-18T10:00:38Z</time></trkpt><trkpt lat="44.206607534714216" lon="11.615681414366387"><ele>227.0</ele><time>2026-04-18T10:00:39Z</time></trkpt><trkpt lat="44.20655831044556" lon="11.61562485090918"><ele>227.00000000000003</ele><time>2026-04-18T10:00:40Z</time></trkpt><trkpt lat="44.20650801945929" lon="11.615569382678972"><ele>227.0</ele><time>2026-04-18T10:00:41Z</time></trkpt><trkpt lat="44.20645906474397" lon="11.615513324089923"><ele>227.0</ele><time>2026-04-18T10:00:42Z</time></trkpt><trkpt lat="44.20640919188018" lon="11.615459010942523"><ele>227.00000000000003</ele><time>2026-04-18T10:00:43Z</time></trkpt><trkpt lat="44.206315255087574" lon="11.615345239953648"><ele>227.0</ele><time>2026-04-18T10:00:45Z</time></trkpt><trkpt lat="44.20626742837557" lon="11.615285782607952"><ele>227.0</ele><time>2026-04-18T10:00:46Z</time></trkpt><trkpt lat="44.20617193453103" lon="11.615168956496863"><ele>228.5</ele><time>2026-04-18T10:00:48Z</time></trkpt><trkpt lat="44.20608369998953" lon="11.61505024909661"><ele>230.0</ele><time>2026-04-18T10:00:50Z</time></trkpt><trkpt lat="44.20599664164544" lon="11.614935047058713"><ele>231.5</ele><time>2026-04-18T10:00:52Z</time></trkpt><trkpt lat="44.20591334178911" lon="11.61481842050834"><ele>233.0</ele><time>2026-04-18T10:00:54Z</time></trkpt><trkpt lat="44.205830502429365" lon="11.614704663720191"><ele>233.0</ele><time>2026-04-18T10:00:56Z</time></trkpt><trkpt lat="44.205746583633434" lon="11.61458804567277"><ele>233.0</ele><time>2026-04-18T10:00:58Z</time></trkpt><trkpt lat="44.205658043949434" lon="11.614474138202754"><ele>233.0</ele><time>2026-04-18T10:01:00Z</time></trkpt><trkpt lat="44.20557429341681" lon="11.614354990446598"><ele>233.0</ele><time>2026-04-18T10:01:02Z</time></trkpt><trkpt lat="44.205487095254405" lon="11.614235897825088"><ele>233.75</ele><time>2026-04-18T10:01:04Z</time></trkpt><trkpt lat="44.205399375103624" lon="11.614116185096892"><ele>234.5</ele><time>2026-04-18T10:01:06Z</time></trkpt><trkpt lat="44.20530891692811" lon="11.614001543961876"><ele>235.25</ele><time>2026-04-18T10:01:08Z</time></trkpt><trkpt lat="44.20522267484872" lon="11.61388120415159"><ele>236.0</ele><time>2026-04-18T10:01:10Z</time></trkpt><trkpt lat="44.20513263805117" lon="11.613759931417919"><ele>236.00000000000003</ele><time>2026-04-18T10:01:12Z</time></trkpt><trkpt lat="44.20508434694926" lon="11.61369944921399"><ele>236.0</ele><time>2026-04-18T10:01:13Z</time></trkpt><trkpt lat="44.20499493286941" lon="11.613585163987397"><ele>236.0</ele><time>2026-04-18T10:01:15Z</time></trkpt><trkpt lat="44.20490344029934" lon="11.613459974084003"><ele>236.0</ele><time>2026-04-18T10:01:17Z</time></trkpt><trkpt lat="44.204858567168245" lon="11.61339629115667"><ele>236.00000000000003</ele><time>2026-04-18T10:01:18Z</time></trkpt><trkpt lat="44.20481307229542" lon="11.613331401453369"><ele>236.0</ele><time>2026-04-18T10:01:19Z</time></trkpt><trkpt lat="44.204768400191405" lon="11.613263359385634"><ele>237.50000000000003</ele><time>2026-04-18T10:01:20Z</time></trkpt><trkpt lat="44.20472530758399" lon="11.613194102171125"><ele>239.0</ele><time>2026-04-18T10:01:21Z</time></trkpt><trkpt lat="44.20464696212733" lon="11.613057895279633"><ele>240.5</ele><time>2026-04-18T10:01:23Z</time></trkpt><trkpt lat="44.20461085328815" lon="11.612985599557852"><ele>242.0</ele><time>2026-04-18T10:01:24Z</time></trkpt><trkpt lat="44.20457558500024" lon="11.6129110268627"><ele>243.50000000000003</ele><time>2026-04-18T10:01:25Z</time></trkpt><trkpt lat="44.20450989999315" lon="11.612771881436544"><ele>245.0</ele><time>2026-04-18T10:01:27Z</time></trkpt><trkpt lat="44.20445297822016" lon="11.61263073479079"><ele>245.0</ele><time>2026-04-18T10:01:29Z</time></trkpt><trkpt lat="44.204399105853554" lon="11.612486208282181"><ele>245.0</ele><time>2026-04-18T10:01:31Z</time></trkpt><trkpt lat="44.204347245609405" lon="11.612346792957812"><ele>245.0</ele><time>2026-04-18T10:01:33Z</time></trkpt><trkpt lat="44.20429250574941" lon="11.612205006353422"><ele>245.0</ele><time>2026-04-18T10:01:35Z</time></trkpt><trkpt lat="44.20423604089803" lon="11.61206224261982"><ele>244.00000000000003</ele><time>2026-04-18T10:01:36.999Z</time></trkpt><trkpt lat="44.20417793872885" lon="11.611913014096492"><ele>243.0</ele><time>2026-04-18T10:01:38.999Z</time></trkpt><trkpt lat="44.20414703189734" lon="11.611836042713204"><ele>242.0</ele><time>2026-04-18T10:01:39.999Z</time></trkpt><trkpt lat="44.20411610360297" lon="11.611758746866844"><ele>241.0</ele><time>2026-04-18T10:01:40.999Z</time></trkpt><trkpt lat="44.20408176701843" lon="11.611678733353186"><ele>240.00000000000003</ele><time>2026-04-18T10:01:41.999Z</time></trkpt><trkpt lat="44.20401838585722" lon="11.61154114241463"><ele>239.0</ele><time>2026-04-18T10:01:43.999Z</time></trkpt><trkpt lat="44.20395516526683" lon="11.611394814127474"><ele>240.39999999999998</ele><time>2026-04-18T10:01:45.999Z</time></trkpt><trkpt lat="44.20389065740468" lon="11.611250093569366"><ele>241.79999999999998</ele><time>2026-04-18T10:01:47.999Z</time></trkpt><trkpt lat="44.203826542128304" lon="11.611103421212425"><ele>243.20000000000002</ele><time>2026-04-18T10:01:49.999Z</time></trkpt><trkpt lat="44.20379336479257" lon="11.611024755427936"><ele>244.60000000000002</ele><time>2026-04-18T10:01:50.999Z</time></trkpt><trkpt lat="44.20375938610067" lon="11.610946178084731"><ele>246.0</ele><time>2026-04-18T10:01:51.999Z</time></trkpt><trkpt lat="44.203691954897195" lon="11.610797364710804"><ele>246.0</ele><time>2026-04-18T10:01:53.999Z</time></trkpt><trkpt lat="44.20361891547161" lon="11.610662173256644"><ele>246.00000000000003</ele><time>2026-04-18T10:01:55.999Z</time></trkpt><trkpt lat="44.203565014844436" lon="11.61050900328525"><ele>246.00000000000003</ele><time>2026-04-18T10:01:57.999Z</time></trkpt><trkpt lat="44.20353277378213" lon="11.610426331117273"><ele>246.0</ele><time>2026-04-18T10:01:58.999Z</time></trkpt><trkpt lat="44.20349596335878" lon="11.610352935440845"><ele>246.0</ele><time>2026-04-18T10:01:59.999Z</time></trkpt><trkpt lat="44.20342106292902" lon="11.610218522010289"><ele>245.5</ele><time>2026-04-18T10:02:01.999Z</time></trkpt><trkpt lat="44.203337078551876" lon="11.610088801164826"><ele>245.0</ele><time>2026-04-18T10:02:03.999Z</time></trkpt><trkpt lat="44.203250867489295" lon="11.609962759728873"><ele>244.5</ele><time>2026-04-18T10:02:05.999Z</time></trkpt><trkpt lat="44.203203292653804" lon="11.60990021539537"><ele>244.0</ele><time>2026-04-18T10:02:06.999Z</time></trkpt><trkpt lat="44.203155062173316" lon="11.609836992877987"><ele>243.5</ele><time>2026-04-18T10:02:07.999Z</time></trkpt><trkpt lat="44.20310819573603" lon="11.609775559391002"><ele>243.0</ele><time>2026-04-18T10:02:09Z</time></trkpt><trkpt lat="44.20306297753684" lon="11.609712448246148"><ele>243.71428571428572</ele><time>2026-04-18T10:02:10Z</time></trkpt><trkpt lat="44.20301934861591" lon="11.609646863210916"><ele>244.42857142857144</ele><time>2026-04-18T10:02:11Z</time></trkpt><trkpt lat="44.202975802952686" lon="11.609582855536239"><ele>245.14285714285717</ele><time>2026-04-18T10:02:12Z</time></trkpt><trkpt lat="44.202888249104795" lon="11.609462662840741"><ele>245.85714285714286</ele><time>2026-04-18T10:02:14Z</time></trkpt><trkpt lat="44.20284209993058" lon="11.609398207972625"><ele>246.5714285714286</ele><time>2026-04-18T10:02:15Z</time></trkpt><trkpt lat="44.20279604950141" lon="11.609334170040041"><ele>247.2857142857143</ele><time>2026-04-18T10:02:16Z</time></trkpt><trkpt lat="44.20274649127066" lon="11.609268383721703"><ele>248.0</ele><time>2026-04-18T10:02:17Z</time></trkpt><trkpt lat="44.202700719703635" lon="11.60920756489087"><ele>248.0</ele><time>2026-04-18T10:02:18Z</time></trkpt><trkpt lat="44.202653795049685" lon="11.6091424574897"><ele>248.00000000000003</ele><time>2026-04-18T10:02:19Z</time></trkpt><trkpt lat="44.20260786279601" lon="11.609075184086214"><ele>248.0</ele><time>2026-04-18T10:02:20Z</time></trkpt><trkpt lat="44.202559679392984" lon="11.609008677642517"><ele>248.0</ele><time>2026-04-18T10:02:21Z</time></trkpt><trkpt lat="44.20251193101108" lon="11.608939890334128"><ele>248.00000000000003</ele><time>2026-04-18T10:02:22Z</time></trkpt><trkpt lat="44.202464620021864" lon="11.60887268595004"><ele>248.0</ele><time>2026-04-18T10:02:23Z</time></trkpt><trkpt lat="44.20241789821188" lon="11.608807075023863"><ele>248.0</ele><time>2026-04-18T10:02:24Z</time></trkpt><trkpt lat="44.202370593554825" lon="11.60874179145301"><ele>248.57142857142858</ele><time>2026-04-18T10:02:25Z</time></trkpt><trkpt lat="44.20232438420816" lon="11.60867687953328"><ele>249.14285714285717</ele><time>2026-04-18T10:02:26Z</time></trkpt><trkpt lat="44.20227638030299" lon="11.608610755221862"><ele>249.71428571428572</ele><time>2026-04-18T10:02:27Z</time></trkpt><trkpt lat="44.20222884164062" lon="11.608543201958662"><ele>250.28571428571428</ele><time>2026-04-18T10:02:28Z</time></trkpt><trkpt lat="44.20218119343289" lon="11.608474126641266"><ele>250.85714285714286</ele><time>2026-04-18T10:02:29Z</time></trkpt><trkpt lat="44.20213537323605" lon="11.608410259879026"><ele>251.42857142857144</ele><time>2026-04-18T10:02:30Z</time></trkpt><trkpt lat="44.20208805647255" lon="11.60834560522607"><ele>252.0</ele><time>2026-04-18T10:02:31Z</time></trkpt><trkpt lat="44.20204004740536" lon="11.608278374318019"><ele>252.0</ele><time>2026-04-18T10:02:32Z</time></trkpt><trkpt lat="44.20199072792815" lon="11.608208497860375"><ele>252.0</ele><time>2026-04-18T10:02:33Z</time></trkpt><trkpt lat="44.201942233448364" lon="11.608141916852423"><ele>252.0</ele><time>2026-04-18T10:02:34Z</time></trkpt><trkpt lat="44.20189371402679" lon="11.608074224295944"><ele>252.0</ele><time>2026-04-18T10:02:35Z</time></trkpt><trkpt lat="44.20184466922923" lon="11.608006770287671"><ele>252.0</ele><time>2026-04-18T10:02:36Z</time></trkpt><trkpt lat="44.2017963452955" lon="11.607940413890729"><ele>252.0</ele><time>2026-04-18T10:02:37Z</time></trkpt><trkpt lat="44.201744501557776" lon="11.607869394973843"><ele>252.0</ele><time>2026-04-18T10:02:38Z</time></trkpt><trkpt lat="44.201693416996385" lon="11.607797477601027"><ele>251.5</ele><time>2026-04-18T10:02:39Z</time></trkpt><trkpt lat="44.20164541513991" lon="11.60772629338677"><ele>251.0</ele><time>2026-04-18T10:02:40Z</time></trkpt><trkpt lat="44.201592913165456" lon="11.607651883337466"><ele>250.5</ele><time>2026-04-18T10:02:41Z</time></trkpt><trkpt lat="44.201499676586" lon="11.607533138492945"><ele>250.0</ele><time>2026-04-18T10:02:43Z</time></trkpt><trkpt lat="44.201452790356505" lon="11.607467807623772"><ele>249.5</ele><time>2026-04-18T10:02:44Z</time></trkpt><trkpt lat="44.201402783125616" lon="11.607399062862475"><ele>249.0</ele><time>2026-04-18T10:02:45Z</time></trkpt><trkpt lat="44.20135415282125" lon="11.60733486624109"><ele>249.57142857142856</ele><time>2026-04-18T10:02:46Z</time></trkpt><trkpt lat="44.20130199221016" lon="11.607269089755961"><ele>250.1428571428571</ele><time>2026-04-18T10:02:47Z</time></trkpt><trkpt lat="44.20125102675088" lon="11.607199172949823"><ele>250.71428571428572</ele><time>2026-04-18T10:02:48Z</time></trkpt><trkpt lat="44.20120673581698" lon="11.607130271556166"><ele>251.28571428571428</ele><time>2026-04-18T10:02:49Z</time></trkpt><trkpt lat="44.20116249867612" lon="11.607062933796879"><ele>251.85714285714286</ele><time>2026-04-18T10:02:50Z</time></trkpt><trkpt lat="44.20111224413736" lon="11.606994449065143"><ele>252.42857142857144</ele><time>2026-04-18T10:02:51Z</time></trkpt><trkpt lat="44.20106127966637" lon="11.606926830371584"><ele>253.00000000000003</ele><time>2026-04-18T10:02:52Z</time></trkpt><trkpt lat="44.20101622098444" lon="11.606853484420006"><ele>252.99999999999997</ele><time>2026-04-18T10:02:53Z</time></trkpt><trkpt lat="44.20097138868528" lon="11.606774100832244"><ele>253.0</ele><time>2026-04-18T10:02:54Z</time></trkpt><trkpt lat="44.20092674417505" lon="11.606693827838416"><ele>253.0</ele><time>2026-04-18T10:02:55Z</time></trkpt><trkpt lat="44.200886595841204" lon="11.606607943786496"><ele>253.0</ele><time>2026-04-18T10:02:56Z</time></trkpt><trkpt lat="44.20084887988372" lon="11.606515663139794"><ele>252.99999999999997</ele><time>2026-04-18T10:02:57Z</time></trkpt><trkpt lat="44.20081491071932" lon="11.60641283926202"><ele>253.0</ele><time>2026-04-18T10:02:58Z</time></trkpt><trkpt lat="44.20078285690503" lon="11.606315604586241"><ele>252.99999999999997</ele><time>2026-04-18T10:02:59Z</time></trkpt><trkpt lat="44.20075563455714" lon="11.606211368472906"><ele>253.0</ele><time>2026-04-18T10:03:00Z</time></trkpt><trkpt lat="44.20072918169909" lon="11.606107720960123"><ele>253.0</ele><time>2026-04-18T10:03:01Z</time></trkpt><trkpt lat="44.200700603442556" lon="11.606009733009907"><ele>253.0</ele><time>2026-04-18T10:03:02Z</time></trkpt><trkpt lat="44.20067666155655" lon="11.60591085026105"><ele>252.99999999999997</ele><time>2026-04-18T10:03:03Z</time></trkpt><trkpt lat="44.20064230542131" lon="11.605795952492828"><ele>253.0</ele><time>2026-04-18T10:03:04Z</time></trkpt><trkpt lat="44.20060253138347" lon="11.60565853194466"><ele>252.8</ele><time>2026-04-18T10:03:05Z</time></trkpt><trkpt lat="44.200569797849965" lon="11.60553124411176"><ele>252.60000000000002</ele><time>2026-04-18T10:03:06Z</time></trkpt><trkpt lat="44.200533899629505" lon="11.605401865008186"><ele>252.39999999999998</ele><time>2026-04-18T10:03:07Z</time></trkpt><trkpt lat="44.200498923727444" lon="11.605285809214937"><ele>252.2</ele><time>2026-04-18T10:03:08Z</time></trkpt><trkpt lat="44.200463210348474" lon="11.605166443149827"><ele>252.0</ele><time>2026-04-18T10:03:09Z</time></trkpt><trkpt lat="44.20043183035823" lon="11.605044513122024"><ele>252.0</ele><time>2026-04-18T10:03:10Z</time></trkpt><trkpt lat="44.200405709114435" lon="11.604927186985577"><ele>252.0</ele><time>2026-04-18T10:03:11Z</time></trkpt><trkpt lat="44.2003717179283" lon="11.604810145191292"><ele>252.0</ele><time>2026-04-18T10:03:12Z</time></trkpt><trkpt lat="44.200337753755626" lon="11.604695766495604"><ele>252.0</ele><time>2026-04-18T10:03:13.001Z</time></trkpt><trkpt lat="44.20030582813948" lon="11.604579091718655"><ele>252.0</ele><time>2026-04-18T10:03:14.001Z</time></trkpt><trkpt lat="44.200271083900844" lon="11.604460133494628"><ele>252.0</ele><time>2026-04-18T10:03:15.001Z</time></trkpt><trkpt lat="44.20023711385441" lon="11.604346077612208"><ele>250.5</ele><time>2026-04-18T10:03:16.001Z</time></trkpt><trkpt lat="44.200196704862755" lon="11.604235366107494"><ele>249.0</ele><time>2026-04-18T10:03:17.001Z</time></trkpt><trkpt lat="44.20015669914449" lon="11.604130006141137"><ele>247.5</ele><time>2026-04-18T10:03:18.001Z</time></trkpt><trkpt lat="44.200104651609486" lon="11.604029832596455"><ele>246.0</ele><time>2026-04-18T10:03:19.001Z</time></trkpt><trkpt lat="44.20005630171671" lon="11.603933543167315"><ele>244.5</ele><time>2026-04-18T10:03:20.001Z</time></trkpt><trkpt lat="44.200007989234145" lon="11.603841399473128"><ele>243.0</ele><time>2026-04-18T10:03:21.001Z</time></trkpt><trkpt lat="44.19995294277121" lon="11.603748192660948"><ele>242.5</ele><time>2026-04-18T10:03:22.001Z</time></trkpt><trkpt lat="44.19989712652659" lon="11.603660350760082"><ele>242.0</ele><time>2026-04-18T10:03:23.001Z</time></trkpt><trkpt lat="44.19984669198982" lon="11.603584807468286"><ele>241.5</ele><time>2026-04-18T10:03:24.001Z</time></trkpt><trkpt lat="44.19978998622115" lon="11.603495727775748"><ele>241.0</ele><time>2026-04-18T10:03:25.001Z</time></trkpt><trkpt lat="44.19973052213109" lon="11.60341739037832"><ele>240.5</ele><time>2026-04-18T10:03:26.001Z</time></trkpt><trkpt lat="44.19966348158593" lon="11.603343053554426"><ele>240.0</ele><time>2026-04-18T10:03:27.001Z</time></trkpt><trkpt lat="44.19959434042021" lon="11.603269297723747"><ele>242.16666666666666</ele><time>2026-04-18T10:03:28.001Z</time></trkpt><trkpt lat="44.19952754455453" lon="11.603201733198908"><ele>244.33333333333331</ele><time>2026-04-18T10:03:29.001Z</time></trkpt><trkpt lat="44.19946276471872" lon="11.603132243351299"><ele>246.5</ele><time>2026-04-18T10:03:30.001Z</time></trkpt><trkpt lat="44.19939608212582" lon="11.603062922588867"><ele>248.66666666666666</ele><time>2026-04-18T10:03:31.001Z</time></trkpt><trkpt lat="44.19932781687256" lon="11.602995078262078"><ele>250.83333333333331</ele><time>2026-04-18T10:03:32.001Z</time></trkpt><trkpt lat="44.199258760204344" lon="11.602928072950455"><ele>253.0</ele><time>2026-04-18T10:03:33.001Z</time></trkpt><trkpt lat="44.199190228001996" lon="11.602859632793264"><ele>251.49999999999997</ele><time>2026-04-18T10:03:34.001Z</time></trkpt><trkpt lat="44.19912128438028" lon="11.602787689022831"><ele>250.0</ele><time>2026-04-18T10:03:35.001Z</time></trkpt><trkpt lat="44.199051636960384" lon="11.602721510971078"><ele>248.5</ele><time>2026-04-18T10:03:36.001Z</time></trkpt><trkpt lat="44.19898359485765" lon="11.602656665751317"><ele>247.0</ele><time>2026-04-18T10:03:37.001Z</time></trkpt><trkpt lat="44.1989142934371" lon="11.602586082896165"><ele>245.49999999999997</ele><time>2026-04-18T10:03:38.001Z</time></trkpt><trkpt lat="44.1988436446226" lon="11.602514999685567"><ele>244.0</ele><time>2026-04-18T10:03:39.001Z</time></trkpt><trkpt lat="44.19877223849481" lon="11.602445048684988"><ele>243.99999999999997</ele><time>2026-04-18T10:03:40.001Z</time></trkpt><trkpt lat="44.19870057960631" lon="11.602381572334487"><ele>244.0</ele><time>2026-04-18T10:03:41.001Z</time></trkpt><trkpt lat="44.198626097246496" lon="11.602325280743875"><ele>244.0</ele><time>2026-04-18T10:03:42.001Z</time></trkpt><trkpt lat="44.19855139135586" lon="11.60227999004922"><ele>244.0</ele><time>2026-04-18T10:03:42.999Z</time></trkpt><trkpt lat="44.19847026378998" lon="11.602237502759685"><ele>243.99999999999997</ele><time>2026-04-18T10:03:43.999Z</time></trkpt><trkpt lat="44.198388191566515" lon="11.602206192948195"><ele>244.0</ele><time>2026-04-18T10:03:44.999Z</time></trkpt><trkpt lat="44.19830287639112" lon="11.602191233875308"><ele>243.99999999999997</ele><time>2026-04-18T10:03:45.999Z</time></trkpt><trkpt lat="44.19821607488329" lon="11.602182101652632"><ele>244.0</ele><time>2026-04-18T10:03:46.999Z</time></trkpt><trkpt lat="44.19812988945979" lon="11.602176931515222"><ele>244.0</ele><time>2026-04-18T10:03:47.999Z</time></trkpt><trkpt lat="44.19804005231062" lon="11.602174855197179"><ele>244.0</ele><time>2026-04-18T10:03:48.999Z</time></trkpt><trkpt lat="44.19795040490652" lon="11.60217290642401"><ele>243.99999999999997</ele><time>2026-04-18T10:03:49.999Z</time></trkpt><trkpt lat="44.19786441960659" lon="11.60216700813871"><ele>244.0</ele><time>2026-04-18T10:03:50.999Z</time></trkpt><trkpt lat="44.19777920660317" lon="11.602159639708235"><ele>243.49999999999997</ele><time>2026-04-18T10:03:51.999Z</time></trkpt><trkpt lat="44.197696713714734" lon="11.602156169250964"><ele>243.0</ele><time>2026-04-18T10:03:52.999Z</time></trkpt><trkpt lat="44.19761388752742" lon="11.602154010561001"><ele>242.5</ele><time>2026-04-18T10:03:53.999Z</time></trkpt><trkpt lat="44.19753092054138" lon="11.602147751131247"><ele>242.0</ele><time>2026-04-18T10:03:54.999Z</time></trkpt><trkpt lat="44.19744920477291" lon="11.602143469841309"><ele>241.49999999999997</ele><time>2026-04-18T10:03:55.999Z</time></trkpt><trkpt lat="44.19736529118374" lon="11.602139362791565"><ele>241.0</ele><time>2026-04-18T10:03:56.999Z</time></trkpt><trkpt lat="44.19728315221902" lon="11.602137611905174"><ele>240.99999999999997</ele><time>2026-04-18T10:03:57.999Z</time></trkpt><trkpt lat="44.19720084921652" lon="11.602134102509282"><ele>241.0</ele><time>2026-04-18T10:03:58.999Z</time></trkpt><trkpt lat="44.19712194234166" lon="11.602133021809559"><ele>241.0</ele><time>2026-04-18T10:03:59.999Z</time></trkpt><trkpt lat="44.19704157428618" lon="11.602129658119813"><ele>241.0</ele><time>2026-04-18T10:04:00.999Z</time></trkpt><trkpt lat="44.1969607243053" lon="11.602124764505836"><ele>240.99999999999997</ele><time>2026-04-18T10:04:01.999Z</time></trkpt><trkpt lat="44.19688284614607" lon="11.602118188681661"><ele>241.0</ele><time>2026-04-18T10:04:03Z</time></trkpt><trkpt lat="44.19680497484148" lon="11.602111274744829"><ele>241.0</ele><time>2026-04-18T10:04:04Z</time></trkpt><trkpt lat="44.196729359128284" lon="11.602106480694822"><ele>241.00000000000003</ele><time>2026-04-18T10:04:05Z</time></trkpt><trkpt lat="44.19665233362965" lon="11.602102742156616"><ele>241.0</ele><time>2026-04-18T10:04:06Z</time></trkpt><trkpt lat="44.19657615691838" lon="11.602095906728655"><ele>241.0</ele><time>2026-04-18T10:04:07Z</time></trkpt><trkpt lat="44.19650631220378" lon="11.602085970029803"><ele>241.00000000000003</ele><time>2026-04-18T10:04:08Z</time></trkpt><trkpt lat="44.196437493724915" lon="11.6020714513823"><ele>241.0</ele><time>2026-04-18T10:04:09Z</time></trkpt><trkpt lat="44.196375123929066" lon="11.602055431624333"><ele>241.0</ele><time>2026-04-18T10:04:10Z</time></trkpt><trkpt lat="44.196309775081275" lon="11.602037469258736"><ele>241.4</ele><time>2026-04-18T10:04:11Z</time></trkpt><trkpt lat="44.196248304201184" lon="11.602014704300421"><ele>241.8</ele><time>2026-04-18T10:04:12Z</time></trkpt><trkpt lat="44.19618733656659" lon="11.601990940909896"><ele>242.20000000000002</ele><time>2026-04-18T10:04:13Z</time></trkpt><trkpt lat="44.19607012220989" lon="11.601939122783092"><ele>242.60000000000002</ele><time>2026-04-18T10:04:15Z</time></trkpt><trkpt lat="44.19596167673106" lon="11.601879003200786"><ele>243.0</ele><time>2026-04-18T10:04:17Z</time></trkpt><trkpt lat="44.195850645122306" lon="11.601834317119424"><ele>244.5</ele><time>2026-04-18T10:04:19Z</time></trkpt><trkpt lat="44.19574287873988" lon="11.601778756679796"><ele>246.0</ele><time>2026-04-18T10:04:21Z</time></trkpt><trkpt lat="44.19563494402026" lon="11.60172398754729"><ele>247.5</ele><time>2026-04-18T10:04:23Z</time></trkpt><trkpt lat="44.19552965011314" lon="11.60167759718227"><ele>249.0</ele><time>2026-04-18T10:04:25Z</time></trkpt><trkpt lat="44.195423278302684" lon="11.60162815894221"><ele>249.79999999999998</ele><time>2026-04-18T10:04:27Z</time></trkpt><trkpt lat="44.195317942059766" lon="11.601576915017747"><ele>250.59999999999997</ele><time>2026-04-18T10:04:29Z</time></trkpt><trkpt lat="44.19521464340109" lon="11.601528932920981"><ele>251.4</ele><time>2026-04-18T10:04:31Z</time></trkpt><trkpt lat="44.19510943172071" lon="11.601481135584892"><ele>252.2</ele><time>2026-04-18T10:04:33Z</time></trkpt><trkpt lat="44.19500664374535" lon="11.601434462216805"><ele>253.0</ele><time>2026-04-18T10:04:35Z</time></trkpt><trkpt lat="44.194901515669635" lon="11.601402636262502"><ele>253.60000000000002</ele><time>2026-04-18T10:04:37Z</time></trkpt><trkpt lat="44.19479203189505" lon="11.60139289184579"><ele>254.20000000000002</ele><time>2026-04-18T10:04:39Z</time></trkpt><trkpt lat="44.194681307966455" lon="11.601398206357931"><ele>254.8</ele><time>2026-04-18T10:04:41Z</time></trkpt><trkpt lat="44.19456908225576" lon="11.601427360154887"><ele>255.4</ele><time>2026-04-18T10:04:43Z</time></trkpt><trkpt lat="44.19445750724975" lon="11.601461655725418"><ele>256.0</ele><time>2026-04-18T10:04:45Z</time></trkpt><trkpt lat="44.19435148178862" lon="11.60150627498845"><ele>256.0</ele><time>2026-04-18T10:04:47Z</time></trkpt><trkpt lat="44.19424427632621" lon="11.601548018554029"><ele>256.0</ele><time>2026-04-18T10:04:49Z</time></trkpt><trkpt lat="44.19413578668914" lon="11.60158660551834"><ele>256.0</ele><time>2026-04-18T10:04:51.001Z</time></trkpt><trkpt lat="44.194031708312274" lon="11.6016207420019"><ele>256.0</ele><time>2026-04-18T10:04:53.001Z</time></trkpt><trkpt lat="44.19392700808524" lon="11.601661111994195"><ele>256.0</ele><time>2026-04-18T10:04:55.001Z</time></trkpt><trkpt lat="44.19382469628579" lon="11.601699206117305"><ele>257.2</ele><time>2026-04-18T10:04:57.001Z</time></trkpt><trkpt lat="44.1937214719537" lon="11.601663166964133"><ele>258.40000000000003</ele><time>2026-04-18T10:04:59.001Z</time></trkpt><trkpt lat="44.19363399223767" lon="11.601590800379617"><ele>259.6</ele><time>2026-04-18T10:05:01.001Z</time></trkpt><trkpt lat="44.19354018272986" lon="11.601556274428317"><ele>260.8</ele><time>2026-04-18T10:05:03.001Z</time></trkpt><trkpt lat="44.19343899039193" lon="11.601561258111914"><ele>262.0</ele><time>2026-04-18T10:05:05.001Z</time></trkpt><trkpt lat="44.19333785803033" lon="11.601564687035784"><ele>262.0</ele><time>2026-04-18T10:05:07.001Z</time></trkpt><trkpt lat="44.193228469300486" lon="11.601592862579212"><ele>262.0</ele><time>2026-04-18T10:05:09.001Z</time></trkpt><trkpt lat="44.1931199904259" lon="11.6016131868054"><ele>262.0</ele><time>2026-04-18T10:05:11.001Z</time></trkpt><trkpt lat="44.19301096553198" lon="11.601630435732286"><ele>262.0</ele><time>2026-04-18T10:05:13.001Z</time></trkpt><trkpt lat="44.1928997664745" lon="11.601654580056422"><ele>262.0</ele><time>2026-04-18T10:05:15.001Z</time></trkpt><trkpt lat="44.192789274980505" lon="11.60167144934376"><ele>262.25</ele><time>2026-04-18T10:05:17.001Z</time></trkpt><trkpt lat="44.19267593563558" lon="11.60168758098007"><ele>262.5</ele><time>2026-04-18T10:05:19.001Z</time></trkpt><trkpt lat="44.19256316813914" lon="11.601706381286801"><ele>262.75</ele><time>2026-04-18T10:05:21.001Z</time></trkpt><trkpt lat="44.19245365793876" lon="11.601737360179074"><ele>263.0</ele><time>2026-04-18T10:05:23.001Z</time></trkpt><trkpt lat="44.19234062358167" lon="11.601739546773581"><ele>263.6</ele><time>2026-04-18T10:05:25.001Z</time></trkpt><trkpt lat="44.192226750075804" lon="11.60175895602139"><ele>264.20000000000005</ele><time>2026-04-18T10:05:27.001Z</time></trkpt><trkpt lat="44.192125247946215" lon="11.601799569017988"><ele>264.8</ele><time>2026-04-18T10:05:29.001Z</time></trkpt><trkpt lat="44.192019777650486" lon="11.601794233583115"><ele>265.40000000000003</ele><time>2026-04-18T10:05:31.001Z</time></trkpt><trkpt lat="44.19191589712609" lon="11.60182897956816"><ele>266.0</ele><time>2026-04-18T10:05:33.001Z</time></trkpt><trkpt lat="44.19181874441093" lon="11.60184798362414"><ele>266.0</ele><time>2026-04-18T10:05:35.001Z</time></trkpt><trkpt lat="44.19172346832314" lon="11.601866776706288"><ele>266.0</ele><time>2026-04-18T10:05:37.001Z</time></trkpt><trkpt lat="44.19163887194964" lon="11.601865649996197"><ele>266.0</ele><time>2026-04-18T10:05:39.001Z</time></trkpt><trkpt lat="44.191566145729965" lon="11.60187946518612"><ele>266.0</ele><time>2026-04-18T10:05:41.001Z</time></trkpt><trkpt lat="44.19150265550723" lon="11.601906649864839"><ele>266.0</ele><time>2026-04-18T10:07:27.001Z</time></trkpt><trkpt lat="44.19143500239847" lon="11.601908302079428"><ele>266.0</ele><time>2026-04-18T10:07:46.002Z</time></trkpt><trkpt lat="44.19136080132934" lon="11.60188781462624"><ele>264.0</ele><time>2026-04-18T10:07:50.002Z</time></trkpt><trkpt lat="44.19127171237136" lon="11.601856501145157"><ele>262.0</ele><time>2026-04-18T10:07:53.002Z</time></trkpt><trkpt lat="44.19118385529143" lon="11.601820842043384"><ele>260.0</ele><time>2026-04-18T10:07:56.002Z</time></trkpt><trkpt lat="44.191119165723414" lon="11.601789137435132"><ele>258.0</ele><time>2026-04-18T10:07:58.002Z</time></trkpt><trkpt lat="44.19104811284411" lon="11.601744414760912"><ele>256.0</ele><time>2026-04-18T10:08:00.002Z</time></trkpt><trkpt lat="44.190972554252156" lon="11.6016656028685"><ele>254.0</ele><time>2026-04-18T10:08:02.001Z</time></trkpt><trkpt lat="44.19088671668111" lon="11.601569587252946"><ele>254.0</ele><time>2026-04-18T10:08:04.001Z</time></trkpt><trkpt lat="44.19083696033091" lon="11.601514787979328"><ele>254.0</ele><time>2026-04-18T10:08:05.001Z</time></trkpt><trkpt lat="44.19078529411587" lon="11.601458060503337"><ele>254.0</ele><time>2026-04-18T10:08:06.001Z</time></trkpt><trkpt lat="44.190725599189165" lon="11.601404131668394"><ele>254.0</ele><time>2026-04-18T10:08:07.001Z</time></trkpt><trkpt lat="44.19066637217596" lon="11.601353727654137"><ele>254.0</ele><time>2026-04-18T10:08:08.001Z</time></trkpt><trkpt lat="44.19060011994602" lon="11.601295708507523"><ele>254.0</ele><time>2026-04-18T10:08:09.001Z</time></trkpt><trkpt lat="44.19053940601915" lon="11.60122674541571"><ele>254.0</ele><time>2026-04-18T10:08:10.001Z</time></trkpt><trkpt lat="44.19048852690694" lon="11.601145449965776"><ele>252.79999999999998</ele><time>2026-04-18T10:08:11.001Z</time></trkpt><trkpt lat="44.19044266778321" lon="11.601055906194139"><ele>251.59999999999997</ele><time>2026-04-18T10:08:12.001Z</time></trkpt><trkpt lat="44.1904062154057" lon="11.600945925488094"><ele>250.4</ele><time>2026-04-18T10:08:13.001Z</time></trkpt><trkpt lat="44.19036016969055" lon="11.60084870909663"><ele>249.2</ele><time>2026-04-18T10:08:14.001Z</time></trkpt><trkpt lat="44.19032023139502" lon="11.60073927695561"><ele>248.0</ele><time>2026-04-18T10:08:15.001Z</time></trkpt><trkpt lat="44.19031274606107" lon="11.600572467142682"><ele>248.00000000000003</ele><time>2026-04-18T10:08:16.001Z</time></trkpt><trkpt lat="44.190300469417124" lon="11.600422312831295"><ele>248.0</ele><time>2026-04-18T10:08:17.001Z</time></trkpt><trkpt lat="44.190273564139524" lon="11.600298263707858"><ele>248.0</ele><time>2026-04-18T10:08:18.001Z</time></trkpt><trkpt lat="44.190253972530044" lon="11.600187520233435"><ele>248.0</ele><time>2026-04-18T10:08:19.001Z</time></trkpt><trkpt lat="44.19022046014935" lon="11.600081456396698"><ele>248.00000000000003</ele><time>2026-04-18T10:08:20.001Z</time></trkpt><trkpt lat="44.19016964820988" lon="11.600000493283973"><ele>248.0</ele><time>2026-04-18T10:08:21.001Z</time></trkpt><trkpt lat="44.19010753482091" lon="11.599947358194552"><ele>248.50000000000003</ele><time>2026-04-18T10:08:22.001Z</time></trkpt><trkpt lat="44.1900221663045" lon="11.599873863798532"><ele>249.0</ele><time>2026-04-18T10:08:24.001Z</time></trkpt><trkpt lat="44.189970691205936" lon="11.599798474910363"><ele>249.5</ele><time>2026-04-18T10:08:26.001Z</time></trkpt><trkpt lat="44.18992392972569" lon="11.599722573817989"><ele>250.0</ele><time>2026-04-18T10:08:28.001Z</time></trkpt><trkpt lat="44.18986712840359" lon="11.599651379925092"><ele>250.50000000000003</ele><time>2026-04-18T10:08:30.001Z</time></trkpt><trkpt lat="44.18981370509795" lon="11.59956724279528"><ele>251.0</ele><time>2026-04-18T10:08:33.001Z</time></trkpt><trkpt lat="44.18977069352422" lon="11.599450546469628"><ele>252.1428571428571</ele><time>2026-04-18T10:08:38.001Z</time></trkpt><trkpt lat="44.189740977021465" lon="11.599354578248711"><ele>253.28571428571428</ele><time>2026-04-18T10:08:39.001Z</time></trkpt><trkpt lat="44.18972696444696" lon="11.599262776680979"><ele>254.42857142857142</ele><time>2026-04-18T10:08:41.001Z</time></trkpt><trkpt lat="44.18971113567573" lon="11.599165937862603"><ele>255.57142857142856</ele><time>2026-04-18T10:08:43.001Z</time></trkpt><trkpt lat="44.18975252530148" lon="11.5990720810213"><ele>256.7142857142857</ele><time>2026-04-18T10:08:45.001Z</time></trkpt><trkpt lat="44.18975047351642" lon="11.598981309139603"><ele>257.85714285714283</ele><time>2026-04-18T10:08:48.001Z</time></trkpt><trkpt lat="44.189772546642594" lon="11.598877639189908"><ele>259.0</ele><time>2026-04-18T10:08:50.001Z</time></trkpt><trkpt lat="44.189772997645676" lon="11.59878120826852"><ele>259.0</ele><time>2026-04-18T10:08:52.001Z</time></trkpt><trkpt lat="44.18978189079178" lon="11.59868715927517"><ele>259.0</ele><time>2026-04-18T10:08:54.001Z</time></trkpt><trkpt lat="44.18978032214454" lon="11.59859648220474"><ele>259.0</ele><time>2026-04-18T10:08:56.001Z</time></trkpt><trkpt lat="44.18980219725192" lon="11.598484162570186"><ele>259.0</ele><time>2026-04-18T10:08:59.001Z</time></trkpt><trkpt lat="44.1898198076832" lon="11.598362057074272"><ele>259.0</ele><time>2026-04-18T10:09:02.001Z</time></trkpt><trkpt lat="44.18981556532659" lon="11.59826939447745"><ele>259.0</ele><time>2026-04-18T10:09:04.001Z</time></trkpt><trkpt lat="44.18981908975068" lon="11.598175757914692"><ele>259.0</ele><time>2026-04-18T10:09:06.001Z</time></trkpt><trkpt lat="44.189830631448416" lon="11.59808681263722"><ele>260.16666666666663</ele><time>2026-04-18T10:09:08.001Z</time></trkpt><trkpt lat="44.18985038510248" lon="11.59799016892284"><ele>261.3333333333333</ele><time>2026-04-18T10:09:10.001Z</time></trkpt><trkpt lat="44.18985122354187" lon="11.597884266102412"><ele>262.5</ele><time>2026-04-18T10:09:12.001Z</time></trkpt><trkpt lat="44.18987539671498" lon="11.597774264151528"><ele>263.6666666666667</ele><time>2026-04-18T10:09:14.001Z</time></trkpt><trkpt lat="44.18988937954376" lon="11.597651443144969"><ele>264.83333333333337</ele><time>2026-04-18T10:09:16.001Z</time></trkpt><trkpt lat="44.18991927822246" lon="11.597544253683633"><ele>266.0</ele><time>2026-04-18T10:09:18.001Z</time></trkpt><trkpt lat="44.18995232696635" lon="11.597438289415182"><ele>266.40000000000003</ele><time>2026-04-18T10:09:20.001Z</time></trkpt><trkpt lat="44.189981813761136" lon="11.597317769226994"><ele>266.8</ele><time>2026-04-18T10:09:22.001Z</time></trkpt><trkpt lat="44.19002485409192" lon="11.59719235723364"><ele>267.20000000000005</ele><time>2026-04-18T10:09:24.001Z</time></trkpt><trkpt lat="44.19006511299114" lon="11.597072176793093"><ele>267.6</ele><time>2026-04-18T10:09:26.001Z</time></trkpt><trkpt lat="44.19011115922249" lon="11.5969450660103"><ele>268.0</ele><time>2026-04-18T10:09:28.002Z</time></trkpt><trkpt lat="44.19015170170949" lon="11.596809036505208"><ele>269.25</ele><time>2026-04-18T10:09:30.002Z</time></trkpt><trkpt lat="44.19019009952795" lon="11.596670465650114"><ele>270.5</ele><time>2026-04-18T10:09:32.002Z</time></trkpt><trkpt lat="44.19023220511381" lon="11.596518690992877"><ele>271.75</ele><time>2026-04-18T10:09:34.002Z</time></trkpt><trkpt lat="44.19026038383815" lon="11.596367462806192"><ele>273.0</ele><time>2026-04-18T10:09:36.002Z</time></trkpt><trkpt lat="44.19026640778663" lon="11.596202681675061"><ele>274.6</ele><time>2026-04-18T10:09:38.002Z</time></trkpt><trkpt lat="44.19027655809436" lon="11.596055252056468"><ele>276.20000000000005</ele><time>2026-04-18T10:09:40.002Z</time></trkpt><trkpt lat="44.190276817583324" lon="11.595912593581323"><ele>277.8</ele><time>2026-04-18T10:09:42.002Z</time></trkpt><trkpt lat="44.19026864271182" lon="11.595761506633048"><ele>279.40000000000003</ele><time>2026-04-18T10:09:44.002Z</time></trkpt><trkpt lat="44.190262270939584" lon="11.59563889630431"><ele>281.0</ele><time>2026-04-18T10:09:46.002Z</time></trkpt><trkpt lat="44.190245446949824" lon="11.595515340777196"><ele>281.0</ele><time>2026-04-18T10:09:48.002Z</time></trkpt><trkpt lat="44.190220031180445" lon="11.595402019172688"><ele>281.0</ele><time>2026-04-18T10:09:50.002Z</time></trkpt><trkpt lat="44.190187765526275" lon="11.595305590966346"><ele>281.0</ele><time>2026-04-18T10:09:52.002Z</time></trkpt><trkpt lat="44.190160261198294" lon="11.595212539301146"><ele>281.0</ele><time>2026-04-18T10:09:54.002Z</time></trkpt><trkpt lat="44.1901146740709" lon="11.595102715285709"><ele>281.0</ele><time>2026-04-18T10:09:56.002Z</time></trkpt><trkpt lat="44.190079351594015" lon="11.595013647448734"><ele>281.0</ele><time>2026-04-18T10:09:58.002Z</time></trkpt><trkpt lat="44.19004808560919" lon="11.59493198300991"><ele>280.6666666666667</ele><time>2026-04-18T10:10:00.002Z</time></trkpt><trkpt lat="44.19001572736902" lon="11.594828672510905"><ele>280.33333333333337</ele><time>2026-04-18T10:10:02.001Z</time></trkpt><trkpt lat="44.18995842303355" lon="11.594733995485866"><ele>280.0</ele><time>2026-04-18T10:10:04.001Z</time></trkpt><trkpt lat="44.18994509952564" lon="11.59463454493486"><ele>279.6666666666667</ele><time>2026-04-18T10:10:06.001Z</time></trkpt><trkpt lat="44.18992779930154" lon="11.59451592443289"><ele>279.3333333333333</ele><time>2026-04-18T10:10:08Z</time></trkpt><trkpt lat="44.18991933463688" lon="11.594394900368405"><ele>279.0</ele><time>2026-04-18T10:10:10Z</time></trkpt><trkpt lat="44.189921218530436" lon="11.594272837887537"><ele>279.0</ele><time>2026-04-18T10:10:12Z</time></trkpt><trkpt lat="44.189933708748924" lon="11.59414914044319"><ele>279.0</ele><time>2026-04-18T10:10:14Z</time></trkpt><trkpt lat="44.18994991393437" lon="11.59402585821949"><ele>279.0</ele><time>2026-04-18T10:10:16Z</time></trkpt><trkpt lat="44.189927082594785" lon="11.593896683828701"><ele>279.0</ele><time>2026-04-18T10:10:18Z</time></trkpt><trkpt lat="44.189912982547206" lon="11.593774463547385"><ele>279.0</ele><time>2026-04-18T10:10:20Z</time></trkpt><trkpt lat="44.18989675162334" lon="11.593650493643459"><ele>278.4</ele><time>2026-04-18T10:10:22Z</time></trkpt><trkpt lat="44.189876995618555" lon="11.59353860075892"><ele>277.79999999999995</ele><time>2026-04-18T10:10:24Z</time></trkpt><trkpt lat="44.18986643876535" lon="11.593389617161076"><ele>277.20000000000005</ele><time>2026-04-18T10:10:26Z</time></trkpt><trkpt lat="44.189830634194" lon="11.593252622058925"><ele>276.6</ele><time>2026-04-18T10:10:28Z</time></trkpt><trkpt lat="44.189791988092786" lon="11.593147460613995"><ele>276.0</ele><time>2026-04-18T10:10:30Z</time></trkpt><trkpt lat="44.189753412031614" lon="11.593033638441373"><ele>280.3333333333333</ele><time>2026-04-18T10:10:32Z</time></trkpt><trkpt lat="44.18971430597617" lon="11.592930101070522"><ele>284.6666666666667</ele><time>2026-04-18T10:10:34Z</time></trkpt><trkpt lat="44.18965915031732" lon="11.592828571336131"><ele>289.0</ele><time>2026-04-18T10:10:36Z</time></trkpt><trkpt lat="44.18960260477496" lon="11.592726859031913"><ele>293.33333333333337</ele><time>2026-04-18T10:10:38Z</time></trkpt><trkpt lat="44.189561393065304" lon="11.592640446874974"><ele>297.6666666666667</ele><time>2026-04-18T10:10:40Z</time></trkpt><trkpt lat="44.189509670844686" lon="11.59253370637059"><ele>302.0</ele><time>2026-04-18T10:10:42Z</time></trkpt><trkpt lat="44.189464988437656" lon="11.592439558283893"><ele>303.0</ele><time>2026-04-18T10:10:44Z</time></trkpt><trkpt lat="44.189424619243745" lon="11.592340701355598"><ele>304.0</ele><time>2026-04-18T10:10:46Z</time></trkpt><trkpt lat="44.18938555183552" lon="11.592208435019604"><ele>305.0</ele><time>2026-04-18T10:10:48.001Z</time></trkpt><trkpt lat="44.18936512722046" lon="11.59208855003379"><ele>306.0</ele><time>2026-04-18T10:10:50.001Z</time></trkpt><trkpt lat="44.18935563718249" lon="11.591944322633244"><ele>307.0</ele><time>2026-04-18T10:10:52.001Z</time></trkpt><trkpt lat="44.18935068706753" lon="11.591802925802073"><ele>307.0</ele><time>2026-04-18T10:10:54.001Z</time></trkpt><trkpt lat="44.189357689125245" lon="11.591662059683678"><ele>307.0</ele><time>2026-04-18T10:10:56.001Z</time></trkpt><trkpt lat="44.18935819047515" lon="11.591520227090205"><ele>307.0</ele><time>2026-04-18T10:10:58.001Z</time></trkpt><trkpt lat="44.189362160758506" lon="11.591386944662036"><ele>307.0</ele><time>2026-04-18T10:11:00.001Z</time></trkpt><trkpt lat="44.189344979979765" lon="11.59124956539143"><ele>307.0</ele><time>2026-04-18T10:11:02.001Z</time></trkpt><trkpt lat="44.18929562393602" lon="11.591140103251048"><ele>306.66666666666663</ele><time>2026-04-18T10:11:04.001Z</time></trkpt><trkpt lat="44.189260259230174" lon="11.591038512530364"><ele>306.3333333333333</ele><time>2026-04-18T10:11:06.001Z</time></trkpt><trkpt lat="44.189203980476584" lon="11.590943745610426"><ele>306.0</ele><time>2026-04-18T10:11:08.001Z</time></trkpt><trkpt lat="44.18915174917726" lon="11.590827724813318"><ele>305.6666666666667</ele><time>2026-04-18T10:11:10.001Z</time></trkpt><trkpt lat="44.18911895744061" lon="11.590715362892459"><ele>305.33333333333337</ele><time>2026-04-18T10:11:12.001Z</time></trkpt><trkpt lat="44.18910663445882" lon="11.590598788565195"><ele>305.0</ele><time>2026-04-18T10:11:14.001Z</time></trkpt><trkpt lat="44.1890943033836" lon="11.590477479626045"><ele>305.0</ele><time>2026-04-18T10:11:16.001Z</time></trkpt><trkpt lat="44.18910367740055" lon="11.590354943900982"><ele>305.0</ele><time>2026-04-18T10:11:18.001Z</time></trkpt><trkpt lat="44.18911174409458" lon="11.590232780834818"><ele>305.0</ele><time>2026-04-18T10:11:20.001Z</time></trkpt><trkpt lat="44.18914084923752" lon="11.590114946387068"><ele>305.0</ele><time>2026-04-18T10:11:22.001Z</time></trkpt><trkpt lat="44.18916148532092" lon="11.590006644996501"><ele>305.0</ele><time>2026-04-18T10:11:24.001Z</time></trkpt><trkpt lat="44.18920720136623" lon="11.589911226125663"><ele>305.0</ele><time>2026-04-18T10:11:26.001Z</time></trkpt><trkpt lat="44.189232149399295" lon="11.589811351770763"><ele>307.0</ele><time>2026-04-18T10:11:28.001Z</time></trkpt><trkpt lat="44.18926766175761" lon="11.589726841229421"><ele>309.0</ele><time>2026-04-18T10:11:30.001Z</time></trkpt><trkpt lat="44.18929591980599" lon="11.589628339899482"><ele>311.0</ele><time>2026-04-18T10:11:32.001Z</time></trkpt><trkpt lat="44.189317728649996" lon="11.589536736704746"><ele>313.0</ele><time>2026-04-18T10:11:34.001Z</time></trkpt><trkpt lat="44.18933195003818" lon="11.589440511225236"><ele>315.0</ele><time>2026-04-18T10:11:36.001Z</time></trkpt><trkpt lat="44.18933628354152" lon="11.589334433226789"><ele>317.0</ele><time>2026-04-18T10:11:38.001Z</time></trkpt><trkpt lat="44.18934571608657" lon="11.5892026847846"><ele>318.42857142857144</ele><time>2026-04-18T10:11:41.001Z</time></trkpt><trkpt lat="44.189342150216234" lon="11.58910820744469"><ele>319.85714285714283</ele><time>2026-04-18T10:11:43.001Z</time></trkpt><trkpt lat="44.189349381469135" lon="11.589014641569399"><ele>321.2857142857143</ele><time>2026-04-18T10:11:45.001Z</time></trkpt><trkpt lat="44.18933168555964" lon="11.588916606206809"><ele>322.7142857142857</ele><time>2026-04-18T10:11:47.001Z</time></trkpt><trkpt lat="44.189328854979394" lon="11.58878442288197"><ele>324.14285714285717</ele><time>2026-04-18T10:11:50.001Z</time></trkpt><trkpt lat="44.1893162893164" lon="11.58868986342604"><ele>325.57142857142856</ele><time>2026-04-18T10:11:52.001Z</time></trkpt><trkpt lat="44.18932031535839" lon="11.588593187724141"><ele>327.0</ele><time>2026-04-18T10:11:54.001Z</time></trkpt><trkpt lat="44.18930780511749" lon="11.58846953282615"><ele>328.6666666666667</ele><time>2026-04-18T10:11:57.001Z</time></trkpt><trkpt lat="44.189293842298575" lon="11.588342380389955"><ele>330.3333333333333</ele><time>2026-04-18T10:12:00.001Z</time></trkpt><trkpt lat="44.18930591274568" lon="11.588241483268646"><ele>332.0</ele><time>2026-04-18T10:12:03.001Z</time></trkpt><trkpt lat="44.18932713036957" lon="11.588127916105005"><ele>333.66666666666663</ele><time>2026-04-18T10:12:06.001Z</time></trkpt><trkpt lat="44.18934839009985" lon="11.588041862486595"><ele>335.3333333333333</ele><time>2026-04-18T10:12:08Z</time></trkpt><trkpt lat="44.18938937889835" lon="11.587921245422159"><ele>337.0</ele><time>2026-04-18T10:12:10Z</time></trkpt><trkpt lat="44.18941890827573" lon="11.587791851343033"><ele>338.14285714285717</ele><time>2026-04-18T10:12:12Z</time></trkpt><trkpt lat="44.18943268637107" lon="11.587675785040865"><ele>339.2857142857143</ele><time>2026-04-18T10:12:14Z</time></trkpt><trkpt lat="44.18944114827515" lon="11.587571800510549"><ele>340.42857142857144</ele><time>2026-04-18T10:12:16Z</time></trkpt><trkpt lat="44.18945355626059" lon="11.587468627675182"><ele>341.57142857142856</ele><time>2026-04-18T10:12:18Z</time></trkpt><trkpt lat="44.18946598563657" lon="11.587370112272138"><ele>342.7142857142857</ele><time>2026-04-18T10:12:20Z</time></trkpt><trkpt lat="44.18946159710305" lon="11.587273926104029"><ele>343.8571428571429</ele><time>2026-04-18T10:12:22Z</time></trkpt><trkpt lat="44.189483678757725" lon="11.587185581719233"><ele>345.0</ele><time>2026-04-18T10:12:24Z</time></trkpt><trkpt lat="44.189485893756" lon="11.587071861410758"><ele>346.7142857142857</ele><time>2026-04-18T10:12:26Z</time></trkpt><trkpt lat="44.1894845348905" lon="11.586969104939916"><ele>348.42857142857144</ele><time>2026-04-18T10:12:28Z</time></trkpt><trkpt lat="44.1894876660488" lon="11.586878274582142"><ele>350.1428571428571</ele><time>2026-04-18T10:12:30Z</time></trkpt><trkpt lat="44.189486587944096" lon="11.586769418798555"><ele>351.8571428571429</ele><time>2026-04-18T10:12:32Z</time></trkpt><trkpt lat="44.18946509228099" lon="11.586678047417402"><ele>353.57142857142856</ele><time>2026-04-18T10:12:34Z</time></trkpt><trkpt lat="44.189461232175" lon="11.586579549174868"><ele>355.2857142857143</ele><time>2026-04-18T10:12:36Z</time></trkpt><trkpt lat="44.18946759528741" lon="11.586489951178864"><ele>357.0</ele><time>2026-04-18T10:12:38Z</time></trkpt><trkpt lat="44.18945745831818" lon="11.586394177990304"><ele>357.0</ele><time>2026-04-18T10:12:40Z</time></trkpt><trkpt lat="44.189446199496054" lon="11.586292455132924"><ele>357.0</ele><time>2026-04-18T10:12:42Z</time></trkpt><trkpt lat="44.18944968199855" lon="11.586198407936395"><ele>357.0</ele><time>2026-04-18T10:12:44Z</time></trkpt><trkpt lat="44.1894309799511" lon="11.586056947785536"><ele>357.0</ele><time>2026-04-18T10:12:47Z</time></trkpt><trkpt lat="44.18944259094157" lon="11.585935216137075"><ele>357.0</ele><time>2026-04-18T10:12:49Z</time></trkpt><trkpt lat="44.18943904423225" lon="11.585843695155171"><ele>357.0</ele><time>2026-04-18T10:12:50Z</time></trkpt><trkpt lat="44.189440895716174" lon="11.585705838928948"><ele>358.20000000000005</ele><time>2026-04-18T10:12:52Z</time></trkpt><trkpt lat="44.189470888938665" lon="11.585579554757235"><ele>359.4</ele><time>2026-04-18T10:12:54Z</time></trkpt><trkpt lat="44.189510885116476" lon="11.585447947920716"><ele>360.6</ele><time>2026-04-18T10:12:56Z</time></trkpt><trkpt lat="44.18950335721833" lon="11.585301000231516"><ele>361.79999999999995</ele><time>2026-04-18T10:12:58Z</time></trkpt><trkpt lat="44.18948275072676" lon="11.585164050505375"><ele>363.0</ele><time>2026-04-18T10:13:00Z</time></trkpt><trkpt lat="44.18948616427819" lon="11.585015343919984"><ele>365.0</ele><time>2026-04-18T10:13:02Z</time></trkpt><trkpt lat="44.18950462235927" lon="11.584876208550618"><ele>367.0</ele><time>2026-04-18T10:13:04Z</time></trkpt><trkpt lat="44.189536107600716" lon="11.584734791826117"><ele>369.0</ele><time>2026-04-18T10:13:06Z</time></trkpt><trkpt lat="44.18957816906422" lon="11.58457645224521"><ele>371.0</ele><time>2026-04-18T10:13:08Z</time></trkpt><trkpt lat="44.18963539860695" lon="11.584434025992191"><ele>373.0</ele><time>2026-04-18T10:13:10Z</time></trkpt><trkpt lat="44.18969881990486" lon="11.584283944775716"><ele>374.79999999999995</ele><time>2026-04-18T10:13:12.001Z</time></trkpt><trkpt lat="44.189751581801815" lon="11.584128910780029"><ele>376.6</ele><time>2026-04-18T10:13:14.001Z</time></trkpt><trkpt lat="44.189774574118324" lon="11.58404279189951"><ele>378.4</ele><time>2026-04-18T10:13:15.001Z</time></trkpt><trkpt lat="44.189809382010594" lon="11.583879427862863"><ele>380.20000000000005</ele><time>2026-04-18T10:13:17.001Z</time></trkpt><trkpt lat="44.18982767763016" lon="11.583728380251037"><ele>382.0</ele><time>2026-04-18T10:13:19.001Z</time></trkpt><trkpt lat="44.18984281186068" lon="11.583602963147252"><ele>371.6</ele><time>2026-04-18T10:13:21.001Z</time></trkpt><trkpt lat="44.18985238846601" lon="11.583506946324658"><ele>361.20000000000005</ele><time>2026-04-18T10:13:22.001Z</time></trkpt><trkpt lat="44.18985933959167" lon="11.583367095831518"><ele>350.8</ele><time>2026-04-18T10:13:24.001Z</time></trkpt><trkpt lat="44.1898700900774" lon="11.583230033077134"><ele>340.4</ele><time>2026-04-18T10:13:26.001Z</time></trkpt><trkpt lat="44.18988191961606" lon="11.583088144911962"><ele>330.0</ele><time>2026-04-18T10:13:28.001Z</time></trkpt><trkpt lat="44.18985559781916" lon="11.582940178735843"><ele>341.2</ele><time>2026-04-18T10:13:30.001Z</time></trkpt><trkpt lat="44.18981220084688" lon="11.582805718454685"><ele>352.4</ele><time>2026-04-18T10:13:32.001Z</time></trkpt><trkpt lat="44.189789685757844" lon="11.582679676977172"><ele>363.6</ele><time>2026-04-18T10:13:34.001Z</time></trkpt><trkpt lat="44.189771850823774" lon="11.582560716357053"><ele>374.8</ele><time>2026-04-18T10:13:36.001Z</time></trkpt><trkpt lat="44.189752252905556" lon="11.582449613151446"><ele>386.0</ele><time>2026-04-18T10:13:38.001Z</time></trkpt><trkpt lat="44.18970215470793" lon="11.5823266713486"><ele>386.0</ele><time>2026-04-18T10:13:40.001Z</time></trkpt><trkpt lat="44.1896734628044" lon="11.582209709364722"><ele>386.0</ele><time>2026-04-18T10:13:42.001Z</time></trkpt><trkpt lat="44.18962594894127" lon="11.58209262212478"><ele>386.0</ele><time>2026-04-18T10:13:44.001Z</time></trkpt><trkpt lat="44.18957811178232" lon="11.581986026250702"><ele>386.0</ele><time>2026-04-18T10:13:46.001Z</time></trkpt><trkpt lat="44.18953414931966" lon="11.581889464530486"><ele>386.0</ele><time>2026-04-18T10:13:48.001Z</time></trkpt><trkpt lat="44.189465085794595" lon="11.581783986744872"><ele>382.99999999999994</ele><time>2026-04-18T10:13:50.001Z</time></trkpt><trkpt lat="44.18941099539612" lon="11.581693441555233"><ele>380.0</ele><time>2026-04-18T10:13:52.001Z</time></trkpt><trkpt lat="44.18934166751471" lon="11.581637986655155"><ele>377.0</ele><time>2026-04-18T10:13:54.001Z</time></trkpt><trkpt lat="44.189267134748775" lon="11.581553874101775"><ele>374.0</ele><time>2026-04-18T10:13:56.001Z</time></trkpt><trkpt lat="44.18920332681584" lon="11.581477801308147"><ele>371.0</ele><time>2026-04-18T10:13:58.001Z</time></trkpt><trkpt lat="44.18914346441015" lon="11.581418894261642"><ele>368.0</ele><time>2026-04-18T10:14:00.001Z</time></trkpt><trkpt lat="44.18925354053875" lon="11.581114681180745"><ele>367.0</ele><time>2026-04-18T10:14:02.001Z</time></trkpt><trkpt lat="44.189294130055934" lon="11.580949137844"><ele>366.0</ele><time>2026-04-18T10:14:04.001Z</time></trkpt><trkpt lat="44.189329064890124" lon="11.580871772277051"><ele>365.0</ele><time>2026-04-18T10:14:05.001Z</time></trkpt><trkpt lat="44.18940242791699" lon="11.580725077907335"><ele>364.0</ele><time>2026-04-18T10:14:07.001Z</time></trkpt><trkpt lat="44.18944580613962" lon="11.58056350839538"><ele>363.0</ele><time>2026-04-18T10:14:09.001Z</time></trkpt><trkpt lat="44.189395303487856" lon="11.580420575855346"><ele>363.0</ele><time>2026-04-18T10:14:11.001Z</time></trkpt><trkpt lat="44.18933295966261" lon="11.58028830174705"><ele>363.0</ele><time>2026-04-18T10:14:13Z</time></trkpt><trkpt lat="44.189282222681804" lon="11.580217235215432"><ele>363.0</ele><time>2026-04-18T10:14:14Z</time></trkpt><trkpt lat="44.18923464478181" lon="11.580148655089715"><ele>363.0</ele><time>2026-04-18T10:14:15Z</time></trkpt><trkpt lat="44.18917801487579" lon="11.580088762170975"><ele>363.0</ele><time>2026-04-18T10:14:16Z</time></trkpt><trkpt lat="44.18911778263809" lon="11.580035218181264"><ele>363.0</ele><time>2026-04-18T10:14:17Z</time></trkpt><trkpt lat="44.18906330863362" lon="11.57997038998289"><ele>363.0</ele><time>2026-04-18T10:14:18Z</time></trkpt><trkpt lat="44.18900967973678" lon="11.579923545883506"><ele>363.0</ele><time>2026-04-18T10:14:19Z</time></trkpt><trkpt lat="44.188952834068154" lon="11.579875893781134"><ele>363.0</ele><time>2026-04-18T10:14:20Z</time></trkpt><trkpt lat="44.18889321991667" lon="11.57983386723914"><ele>363.0</ele><time>2026-04-18T10:14:21Z</time></trkpt><trkpt lat="44.18879805140725" lon="11.579735776240302"><ele>363.0</ele><time>2026-04-18T10:14:23Z</time></trkpt><trkpt lat="44.18874527776232" lon="11.57968483339232"><ele>363.0</ele><time>2026-04-18T10:14:24Z</time></trkpt><trkpt lat="44.188695944080855" lon="11.579611564742386"><ele>365.79999999999995</ele><time>2026-04-18T10:14:25Z</time></trkpt><trkpt lat="44.18864838946033" lon="11.57954627669158"><ele>368.6</ele><time>2026-04-18T10:14:26Z</time></trkpt><trkpt lat="44.18860286719865" lon="11.579467578674697"><ele>371.4</ele><time>2026-04-18T10:14:27Z</time></trkpt><trkpt lat="44.1885876295333" lon="11.57932063236617"><ele>374.20000000000005</ele><time>2026-04-18T10:14:29Z</time></trkpt><trkpt lat="44.18859783574163" lon="11.57915393618201"><ele>377.0</ele><time>2026-04-18T10:14:31Z</time></trkpt><trkpt lat="44.18866380463063" lon="11.57901287978958"><ele>377.0</ele><time>2026-04-18T10:14:33Z</time></trkpt><trkpt lat="44.188767870287826" lon="11.578943018539272"><ele>377.0</ele><time>2026-04-18T10:14:35Z</time></trkpt><trkpt lat="44.188831663429085" lon="11.578936013962357"><ele>377.0</ele><time>2026-04-18T10:14:36Z</time></trkpt><trkpt lat="44.18889523136705" lon="11.578939022328615"><ele>377.0</ele><time>2026-04-18T10:14:37Z</time></trkpt><trkpt lat="44.189007877588956" lon="11.578975813838191"><ele>377.0</ele><time>2026-04-18T10:14:39Z</time></trkpt><trkpt lat="44.189102865481416" lon="11.579009044422037"><ele>375.8</ele><time>2026-04-18T10:14:41Z</time></trkpt><trkpt lat="44.189196863691535" lon="11.579060010133798"><ele>374.6</ele><time>2026-04-18T10:14:43Z</time></trkpt><trkpt lat="44.18929371206011" lon="11.579105493972502"><ele>373.40000000000003</ele><time>2026-04-18T10:14:45Z</time></trkpt><trkpt lat="44.18939608743198" lon="11.579148028182606"><ele>372.20000000000005</ele><time>2026-04-18T10:14:47Z</time></trkpt><trkpt lat="44.18948977552608" lon="11.579188324301628"><ele>371.0</ele><time>2026-04-18T10:14:49Z</time></trkpt><trkpt lat="44.18958229053914" lon="11.579238433917132"><ele>371.0</ele><time>2026-04-18T10:14:51Z</time></trkpt><trkpt lat="44.189687882803895" lon="11.579230975621781"><ele>371.0</ele><time>2026-04-18T10:14:53Z</time></trkpt><trkpt lat="44.18975477716782" lon="11.579103854672741"><ele>371.0</ele><time>2026-04-18T10:14:55Z</time></trkpt><trkpt lat="44.189724099811585" lon="11.57894917280248"><ele>371.0</ele><time>2026-04-18T10:14:57.001Z</time></trkpt><trkpt lat="44.18967475245825" lon="11.57882997668506"><ele>371.0</ele><time>2026-04-18T10:14:59.001Z</time></trkpt><trkpt lat="44.189642014827086" lon="11.578695321475484"><ele>374.0</ele><time>2026-04-18T10:15:01.001Z</time></trkpt><trkpt lat="44.189612444216266" lon="11.57856176372101"><ele>377.0</ele><time>2026-04-18T10:15:03.001Z</time></trkpt><trkpt lat="44.189589208297434" lon="11.578400052374137"><ele>380.0</ele><time>2026-04-18T10:15:05.001Z</time></trkpt><trkpt lat="44.18957963105341" lon="11.578309754010913"><ele>383.0</ele><time>2026-04-18T10:15:06.001Z</time></trkpt><trkpt lat="44.18958712849308" lon="11.578219804769821"><ele>385.99999999999994</ele><time>2026-04-18T10:15:07.001Z</time></trkpt><trkpt lat="44.189572575487915" lon="11.578126021319466"><ele>389.0</ele><time>2026-04-18T10:15:08.001Z</time></trkpt><trkpt lat="44.18956005954789" lon="11.578032701981643"><ele>388.99999999999994</ele><time>2026-04-18T10:15:09.001Z</time></trkpt><trkpt lat="44.18955677546085" lon="11.577931074857236"><ele>389.0</ele><time>2026-04-18T10:15:10.001Z</time></trkpt><trkpt lat="44.18954956350651" lon="11.577825363985891"><ele>389.0</ele><time>2026-04-18T10:15:11.001Z</time></trkpt><trkpt lat="44.1895374379853" lon="11.577728027382358"><ele>389.0</ele><time>2026-04-18T10:15:12.001Z</time></trkpt><trkpt lat="44.18953770182647" lon="11.577616096935968"><ele>388.99999999999994</ele><time>2026-04-18T10:15:13.001Z</time></trkpt><trkpt lat="44.18953748546658" lon="11.577499035051686"><ele>389.0</ele><time>2026-04-18T10:15:14.001Z</time></trkpt><trkpt lat="44.18953337932347" lon="11.57738903981668"><ele>389.66666666666663</ele><time>2026-04-18T10:15:15.001Z</time></trkpt><trkpt lat="44.189546553308695" lon="11.577273911188456"><ele>390.3333333333333</ele><time>2026-04-18T10:15:16.001Z</time></trkpt><trkpt lat="44.18954389860752" lon="11.577157220291909"><ele>391.0</ele><time>2026-04-18T10:15:17.001Z</time></trkpt><trkpt lat="44.18954194144847" lon="11.577035967539693"><ele>391.66666666666663</ele><time>2026-04-18T10:15:18.001Z</time></trkpt><trkpt lat="44.189546876108956" lon="11.576921071631528"><ele>392.3333333333333</ele><time>2026-04-18T10:15:19.001Z</time></trkpt><trkpt lat="44.18956466646655" lon="11.576797639313218"><ele>393.0</ele><time>2026-04-18T10:15:20.001Z</time></trkpt><trkpt lat="44.18958591218267" lon="11.57668847405607"><ele>393.00000000000006</ele><time>2026-04-18T10:15:21.001Z</time></trkpt><trkpt lat="44.18960417351435" lon="11.5765948351046"><ele>393.0</ele><time>2026-04-18T10:15:22.001Z</time></trkpt><trkpt lat="44.18961873309849" lon="11.57649274067368"><ele>393.0</ele><time>2026-04-18T10:15:23.001Z</time></trkpt><trkpt lat="44.189638328762264" lon="11.576396042270693"><ele>393.0</ele><time>2026-04-18T10:15:24.001Z</time></trkpt><trkpt lat="44.18965613337232" lon="11.576310310247935"><ele>393.0</ele><time>2026-04-18T10:15:25.001Z</time></trkpt><trkpt lat="44.18967938816886" lon="11.576223753300205"><ele>393.00000000000006</ele><time>2026-04-18T10:15:26.001Z</time></trkpt><trkpt lat="44.18969680209061" lon="11.576138910792379"><ele>393.0</ele><time>2026-04-18T10:15:27.001Z</time></trkpt><trkpt lat="44.189753750575534" lon="11.57604996846343"><ele>395.3333333333333</ele><time>2026-04-18T10:15:28.001Z</time></trkpt><trkpt lat="44.18979864860646" lon="11.575975768813462"><ele>397.66666666666663</ele><time>2026-04-18T10:15:29.001Z</time></trkpt><trkpt lat="44.18987154174858" lon="11.57582967448598"><ele>400.0</ele><time>2026-04-18T10:15:31.001Z</time></trkpt><trkpt lat="44.18990353270754" lon="11.575742076299987"><ele>402.3333333333333</ele><time>2026-04-18T10:15:32.001Z</time></trkpt><trkpt lat="44.189961568010794" lon="11.575661419273285"><ele>404.66666666666663</ele><time>2026-04-18T10:15:33.001Z</time></trkpt><trkpt lat="44.190016069368085" lon="11.575591114522622"><ele>407.0</ele><time>2026-04-18T10:15:34.001Z</time></trkpt><trkpt lat="44.19006565103227" lon="11.575522813496983"><ele>399.20000000000005</ele><time>2026-04-18T10:15:35.001Z</time></trkpt><trkpt lat="44.19016909660315" lon="11.575412151339556"><ele>391.4</ele><time>2026-04-18T10:15:37.001Z</time></trkpt><trkpt lat="44.19024142626651" lon="11.575270603577195"><ele>383.6</ele><time>2026-04-18T10:15:39.001Z</time></trkpt><trkpt lat="44.19027671959147" lon="11.575192129034079"><ele>375.79999999999995</ele><time>2026-04-18T10:15:40.001Z</time></trkpt><trkpt lat="44.19030500786495" lon="11.57509602479419"><ele>368.0</ele><time>2026-04-18T10:15:41.001Z</time></trkpt><trkpt lat="44.19031256693615" lon="11.574992737651101"><ele>368.0</ele><time>2026-04-18T10:15:42.001Z</time></trkpt><trkpt lat="44.19031572060245" lon="11.574893064107954"><ele>368.0</ele><time>2026-04-18T10:15:43.001Z</time></trkpt><trkpt lat="44.19029129998106" lon="11.574794967396407"><ele>368.0</ele><time>2026-04-18T10:15:44.001Z</time></trkpt><trkpt lat="44.190234996773114" lon="11.574721653349613"><ele>368.0</ele><time>2026-04-18T10:15:45.001Z</time></trkpt><trkpt lat="44.190159263165526" lon="11.574680279088806"><ele>368.0</ele><time>2026-04-18T10:15:46.001Z</time></trkpt><trkpt lat="44.19008219801592" lon="11.574660580569724"><ele>368.0</ele><time>2026-04-18T10:15:47.001Z</time></trkpt><trkpt lat="44.19001344563182" lon="11.57463638576741"><ele>368.0</ele><time>2026-04-18T10:15:48.001Z</time></trkpt><trkpt lat="44.189949116536546" lon="11.574611322604728"><ele>368.0</ele><time>2026-04-18T10:15:49.001Z</time></trkpt><trkpt lat="44.189828989446184" lon="11.574565431630575"><ele>368.0</ele><time>2026-04-18T10:15:51.001Z</time></trkpt><trkpt lat="44.189760540281576" lon="11.574525858173471"><ele>368.0</ele><time>2026-04-18T10:15:52.001Z</time></trkpt><trkpt lat="44.18969635739432" lon="11.574480220255749"><ele>368.0</ele><time>2026-04-18T10:15:53.001Z</time></trkpt><trkpt lat="44.18963368499808" lon="11.57444309081547"><ele>368.0</ele><time>2026-04-18T10:15:54.001Z</time></trkpt><trkpt lat="44.189570945791765" lon="11.5744146794643"><ele>369.4</ele><time>2026-04-18T10:15:55.001Z</time></trkpt><trkpt lat="44.189446489854426" lon="11.574408388189637"><ele>370.79999999999995</ele><time>2026-04-18T10:15:57.001Z</time></trkpt><trkpt lat="44.18937677408368" lon="11.574360232796257"><ele>372.2</ele><time>2026-04-18T10:15:58.001Z</time></trkpt><trkpt lat="44.189310881243664" lon="11.574330997047364"><ele>373.6</ele><time>2026-04-18T10:15:59.001Z</time></trkpt><trkpt lat="44.18918961811998" lon="11.57428182485175"><ele>375.0</ele><time>2026-04-18T10:16:01.001Z</time></trkpt><trkpt lat="44.189129899715496" lon="11.574243385517452"><ele>375.0</ele><time>2026-04-18T10:16:02.001Z</time></trkpt><trkpt lat="44.189070095657684" lon="11.574206371702449"><ele>375.0</ele><time>2026-04-18T10:16:03.001Z</time></trkpt><trkpt lat="44.189012753379416" lon="11.574166026378428"><ele>375.0</ele><time>2026-04-18T10:16:04.001Z</time></trkpt><trkpt lat="44.18895379059728" lon="11.57411451922691"><ele>375.0</ele><time>2026-04-18T10:16:05.001Z</time></trkpt><trkpt lat="44.1888977272916" lon="11.574069391690312"><ele>375.0</ele><time>2026-04-18T10:16:06.001Z</time></trkpt><trkpt lat="44.18878397396579" lon="11.573977035619079"><ele>375.0</ele><time>2026-04-18T10:16:08.001Z</time></trkpt><trkpt lat="44.18867808644055" lon="11.57389486951822"><ele>377.6666666666667</ele><time>2026-04-18T10:16:10.001Z</time></trkpt><trkpt lat="44.18862147656984" lon="11.573855461274404"><ele>380.33333333333337</ele><time>2026-04-18T10:16:11.001Z</time></trkpt><trkpt lat="44.18853215335666" lon="11.573703241929701"><ele>383.0</ele><time>2026-04-18T10:16:13.001Z</time></trkpt><trkpt lat="44.18853367842982" lon="11.573582667505843"><ele>385.6666666666667</ele><time>2026-04-18T10:16:14.001Z</time></trkpt><trkpt lat="44.18857937424595" lon="11.573511981863131"><ele>388.33333333333337</ele><time>2026-04-18T10:16:15.001Z</time></trkpt><trkpt lat="44.188649167968926" lon="11.57349888719179"><ele>391.0</ele><time>2026-04-18T10:16:16.001Z</time></trkpt><trkpt lat="44.18871865277536" lon="11.5735004490443"><ele>391.50000000000006</ele><time>2026-04-18T10:16:17.001Z</time></trkpt><trkpt lat="44.188781913733344" lon="11.573507289072241"><ele>392.0</ele><time>2026-04-18T10:16:18.001Z</time></trkpt><trkpt lat="44.18884662929124" lon="11.573520556696343"><ele>392.5</ele><time>2026-04-18T10:16:19.001Z</time></trkpt><trkpt lat="44.188946087708835" lon="11.573529765430449"><ele>393.0</ele><time>2026-04-18T10:16:21.001Z</time></trkpt><trkpt lat="44.18907183371357" lon="11.573555108003221"><ele>393.50000000000006</ele><time>2026-04-18T10:16:23.001Z</time></trkpt><trkpt lat="44.18914188510955" lon="11.573576894974725"><ele>394.0</ele><time>2026-04-18T10:16:24.001Z</time></trkpt><trkpt lat="44.18926692464712" lon="11.573600367409194"><ele>392.79999999999995</ele><time>2026-04-18T10:16:26.001Z</time></trkpt><trkpt lat="44.189370707166724" lon="11.573618101123408"><ele>391.59999999999997</ele><time>2026-04-18T10:16:28.001Z</time></trkpt><trkpt lat="44.18943288821842" lon="11.573635801359067"><ele>390.4</ele><time>2026-04-18T10:16:29.001Z</time></trkpt><trkpt lat="44.18954932862183" lon="11.57364926854808"><ele>389.2</ele><time>2026-04-18T10:16:31.001Z</time></trkpt><trkpt lat="44.18968022975899" lon="11.573702297663703"><ele>388.0</ele><time>2026-04-18T10:16:33.001Z</time></trkpt><trkpt lat="44.18980392489867" lon="11.57368938547089"><ele>384.4</ele><time>2026-04-18T10:16:35.001Z</time></trkpt><trkpt lat="44.189919455615495" lon="11.573698930714768"><ele>380.79999999999995</ele><time>2026-04-18T10:16:37.001Z</time></trkpt><trkpt lat="44.190023835006826" lon="11.573632796144512"><ele>377.2</ele><time>2026-04-18T10:16:39.001Z</time></trkpt><trkpt lat="44.19007351456318" lon="11.57347564838497"><ele>373.6</ele><time>2026-04-18T10:16:41.001Z</time></trkpt><trkpt lat="44.19007879184725" lon="11.573372828016097"><ele>370.0</ele><time>2026-04-18T10:16:42.001Z</time></trkpt><trkpt lat="44.19004776392656" lon="11.573292611576043"><ele>370.0</ele><time>2026-04-18T10:16:43.001Z</time></trkpt><trkpt lat="44.190062266879075" lon="11.573202900389447"><ele>370.0</ele><time>2026-04-18T10:16:44.001Z</time></trkpt><trkpt lat="44.190071430798454" lon="11.573114591841959"><ele>370.0</ele><time>2026-04-18T10:16:45.001Z</time></trkpt><trkpt lat="44.19007328213372" lon="11.572941500359633"><ele>370.0</ele><time>2026-04-18T10:16:47.001Z</time></trkpt><trkpt lat="44.190061557126064" lon="11.572766230711315"><ele>370.0</ele><time>2026-04-18T10:16:49.001Z</time></trkpt><trkpt lat="44.19007206926787" lon="11.572596118845368"><ele>372.4</ele><time>2026-04-18T10:16:51.001Z</time></trkpt><trkpt lat="44.190072995011484" lon="11.572426141780074"><ele>374.8</ele><time>2026-04-18T10:16:53.001Z</time></trkpt><trkpt lat="44.190088475860804" lon="11.572255164683632"><ele>377.20000000000005</ele><time>2026-04-18T10:16:55.001Z</time></trkpt><trkpt lat="44.19009955375951" lon="11.57210035158028"><ele>379.6</ele><time>2026-04-18T10:16:57.001Z</time></trkpt><trkpt lat="44.190134954341204" lon="11.572009653563693"><ele>382.0</ele><time>2026-04-18T10:16:58.001Z</time></trkpt><trkpt lat="44.190113581963345" lon="11.57192669801889"><ele>383.25</ele><time>2026-04-18T10:16:59.001Z</time></trkpt><trkpt lat="44.190106425733404" lon="11.571765381931352"><ele>384.5</ele><time>2026-04-18T10:17:01.001Z</time></trkpt><trkpt lat="44.19012348336993" lon="11.571600548207549"><ele>385.75</ele><time>2026-04-18T10:17:03.001Z</time></trkpt><trkpt lat="44.19013312329368" lon="11.571439739011588"><ele>387.0</ele><time>2026-04-18T10:17:05.001Z</time></trkpt><trkpt lat="44.190168837178256" lon="11.571262195766213"><ele>388.6666666666667</ele><time>2026-04-18T10:17:07.001Z</time></trkpt><trkpt lat="44.19017728032494" lon="11.571167682440315"><ele>390.33333333333337</ele><time>2026-04-18T10:17:08.001Z</time></trkpt><trkpt lat="44.190195790081845" lon="11.571067313615393"><ele>392.0</ele><time>2026-04-18T10:17:09.001Z</time></trkpt><trkpt lat="44.190208664896225" lon="11.570963308180414"><ele>393.6666666666667</ele><time>2026-04-18T10:17:10.001Z</time></trkpt><trkpt lat="44.19021732123744" lon="11.570851765721187"><ele>395.33333333333337</ele><time>2026-04-18T10:17:11.001Z</time></trkpt><trkpt lat="44.19023098925789" lon="11.570740423084278"><ele>397.0</ele><time>2026-04-18T10:17:12.001Z</time></trkpt><trkpt lat="44.19023981728259" lon="11.57063702160606"><ele>397.00000000000006</ele><time>2026-04-18T10:17:13.001Z</time></trkpt><trkpt lat="44.190260765446915" lon="11.570529212552943"><ele>397.0</ele><time>2026-04-18T10:17:14.001Z</time></trkpt><trkpt lat="44.19028253823478" lon="11.570427331228382"><ele>397.0</ele><time>2026-04-18T10:17:15.001Z</time></trkpt><trkpt lat="44.19030237140783" lon="11.570330449253506"><ele>397.0</ele><time>2026-04-18T10:17:16.001Z</time></trkpt><trkpt lat="44.190315744713274" lon="11.570216306983639"><ele>397.00000000000006</ele><time>2026-04-18T10:17:17.001Z</time></trkpt><trkpt lat="44.19031750600077" lon="11.570113691746137"><ele>397.0</ele><time>2026-04-18T10:17:18.001Z</time></trkpt><trkpt lat="44.19033773806784" lon="11.570021585346346"><ele>397.57142857142856</ele><time>2026-04-18T10:17:19.001Z</time></trkpt><trkpt lat="44.19036609182838" lon="11.569934900411921"><ele>398.1428571428571</ele><time>2026-04-18T10:17:20.001Z</time></trkpt><trkpt lat="44.190397344864955" lon="11.56984692610932"><ele>398.7142857142857</ele><time>2026-04-18T10:17:21.001Z</time></trkpt><trkpt lat="44.19042954735214" lon="11.569760821400452"><ele>399.2857142857143</ele><time>2026-04-18T10:17:22.001Z</time></trkpt><trkpt lat="44.19045518330422" lon="11.569671107742122"><ele>399.8571428571429</ele><time>2026-04-18T10:17:23.001Z</time></trkpt><trkpt lat="44.19046738495677" lon="11.569574913616087"><ele>400.42857142857144</ele><time>2026-04-18T10:17:24.001Z</time></trkpt><trkpt lat="44.19047358892313" lon="11.56948419579287"><ele>401.0</ele><time>2026-04-18T10:17:25.001Z</time></trkpt><trkpt lat="44.19048833236456" lon="11.569385803742254"><ele>399.49999999999994</ele><time>2026-04-18T10:17:26.001Z</time></trkpt><trkpt lat="44.19055335471938" lon="11.569285397237122"><ele>398.0</ele><time>2026-04-18T10:17:27.001Z</time></trkpt><trkpt lat="44.19057830834211" lon="11.56918792589012"><ele>396.5</ele><time>2026-04-18T10:17:28.001Z</time></trkpt><trkpt lat="44.19054871875111" lon="11.569094097879185"><ele>395.0</ele><time>2026-04-18T10:17:29.001Z</time></trkpt><trkpt lat="44.19053608841567" lon="11.568998889639367"><ele>393.49999999999994</ele><time>2026-04-18T10:17:30.001Z</time></trkpt><trkpt lat="44.190500356181694" lon="11.568912412873889"><ele>392.0</ele><time>2026-04-18T10:17:31.001Z</time></trkpt><trkpt lat="44.190454620526616" lon="11.568830600005533"><ele>392.0</ele><time>2026-04-18T10:17:32.001Z</time></trkpt><trkpt lat="44.190382054567415" lon="11.56879049193979"><ele>392.0</ele><time>2026-04-18T10:17:33.001Z</time></trkpt><trkpt lat="44.190313657660205" lon="11.568773304006736"><ele>392.0</ele><time>2026-04-18T10:17:34.001Z</time></trkpt><trkpt lat="44.190237743450695" lon="11.568743702594922"><ele>392.0</ele><time>2026-04-18T10:17:35.001Z</time></trkpt><trkpt lat="44.19016889848212" lon="11.568730051732162"><ele>392.0</ele><time>2026-04-18T10:17:36.001Z</time></trkpt><trkpt lat="44.190094683831546" lon="11.568716468715822"><ele>392.0</ele><time>2026-04-18T10:17:37.001Z</time></trkpt><trkpt lat="44.190017271546886" lon="11.568702830864265"><ele>392.0</ele><time>2026-04-18T10:17:38.001Z</time></trkpt><trkpt lat="44.18993987354233" lon="11.568673749360695"><ele>391.2857142857143</ele><time>2026-04-18T10:17:39.001Z</time></trkpt><trkpt lat="44.189869396086344" lon="11.568663813349565"><ele>390.57142857142856</ele><time>2026-04-18T10:17:40.001Z</time></trkpt><trkpt lat="44.189789495811915" lon="11.568652316013054"><ele>389.8571428571429</ele><time>2026-04-18T10:17:41.001Z</time></trkpt><trkpt lat="44.18971923538775" lon="11.568654683586692"><ele>389.1428571428571</ele><time>2026-04-18T10:17:42.001Z</time></trkpt><trkpt lat="44.18965186440012" lon="11.568657669515922"><ele>388.42857142857144</ele><time>2026-04-18T10:17:43.001Z</time></trkpt><trkpt lat="44.18958037555097" lon="11.568642248088043"><ele>387.7142857142857</ele><time>2026-04-18T10:17:44.001Z</time></trkpt><trkpt lat="44.18951113039554" lon="11.568631396046637"><ele>387.0</ele><time>2026-04-18T10:17:45.001Z</time></trkpt><trkpt lat="44.189438301820445" lon="11.568603098118851"><ele>387.0</ele><time>2026-04-18T10:17:46.001Z</time></trkpt><trkpt lat="44.189368299557366" lon="11.56860842175549"><ele>387.0</ele><time>2026-04-18T10:17:47.001Z</time></trkpt><trkpt lat="44.189304218819856" lon="11.56863552822327"><ele>387.0</ele><time>2026-04-18T10:17:48.001Z</time></trkpt><trkpt lat="44.18923895600116" lon="11.568655792397175"><ele>387.0</ele><time>2026-04-18T10:17:49.001Z</time></trkpt><trkpt lat="44.18911993455288" lon="11.568671566335997"><ele>387.0</ele><time>2026-04-18T10:17:51.001Z</time></trkpt><trkpt lat="44.18905192328749" lon="11.568662397154194"><ele>387.0</ele><time>2026-04-18T10:17:52.001Z</time></trkpt><trkpt lat="44.18897998901129" lon="11.568635648234892"><ele>388.7142857142857</ele><time>2026-04-18T10:17:53.001Z</time></trkpt><trkpt lat="44.18890829860534" lon="11.568601286824487"><ele>390.42857142857144</ele><time>2026-04-18T10:17:54.001Z</time></trkpt><trkpt lat="44.18884103288886" lon="11.568555924781622"><ele>392.1428571428571</ele><time>2026-04-18T10:17:55.001Z</time></trkpt><trkpt lat="44.18877680247642" lon="11.56850255479862"><ele>393.8571428571429</ele><time>2026-04-18T10:17:56.001Z</time></trkpt><trkpt lat="44.1887256333171" lon="11.568425476597882"><ele>395.57142857142856</ele><time>2026-04-18T10:17:57.001Z</time></trkpt><trkpt lat="44.1887077307828" lon="11.568326359862658"><ele>397.2857142857143</ele><time>2026-04-18T10:17:58.001Z</time></trkpt><trkpt lat="44.18872729638565" lon="11.5682379052755"><ele>399.0</ele><time>2026-04-18T10:17:59.001Z</time></trkpt><trkpt lat="44.188827422400685" lon="11.56818454325801"><ele>399.0</ele><time>2026-04-18T10:18:01.001Z</time></trkpt><trkpt lat="44.18892858737098" lon="11.568177553538757"><ele>399.0</ele><time>2026-04-18T10:18:03.001Z</time></trkpt><trkpt lat="44.18902352817137" lon="11.568144806505932"><ele>399.0</ele><time>2026-04-18T10:18:05.001Z</time></trkpt><trkpt lat="44.18911471985048" lon="11.568110347044023"><ele>399.0</ele><time>2026-04-18T10:18:07.001Z</time></trkpt><trkpt lat="44.18920885911303" lon="11.568052710737879"><ele>399.0</ele><time>2026-04-18T10:18:09.001Z</time></trkpt><trkpt lat="44.18929815578482" lon="11.567991304133592"><ele>396.6</ele><time>2026-04-18T10:18:11.001Z</time></trkpt><trkpt lat="44.18935661730474" lon="11.567958120768859"><ele>394.2</ele><time>2026-04-18T10:18:12.001Z</time></trkpt><trkpt lat="44.18945447140254" lon="11.567946148806433"><ele>391.8</ele><time>2026-04-18T10:18:14.001Z</time></trkpt><trkpt lat="44.189547337899704" lon="11.56790119442714"><ele>389.40000000000003</ele><time>2026-04-18T10:18:16.001Z</time></trkpt><trkpt lat="44.189642368109055" lon="11.567866729978187"><ele>387.0</ele><time>2026-04-18T10:18:18.001Z</time></trkpt><trkpt lat="44.18974599341413" lon="11.567845281627221"><ele>390.20000000000005</ele><time>2026-04-18T10:18:20.001Z</time></trkpt><trkpt lat="44.18984435312462" lon="11.567813011478702"><ele>393.4</ele><time>2026-04-18T10:18:22.001Z</time></trkpt><trkpt lat="44.189931367253095" lon="11.567782267797522"><ele>396.6</ele><time>2026-04-18T10:18:24.001Z</time></trkpt><trkpt lat="44.19002141634883" lon="11.567745095018473"><ele>399.79999999999995</ele><time>2026-04-18T10:18:26.001Z</time></trkpt><trkpt lat="44.19012961363575" lon="11.567756212879859"><ele>403.0</ele><time>2026-04-18T10:18:28.001Z</time></trkpt><trkpt lat="44.190213154568916" lon="11.567753799444633"><ele>403.0</ele><time>2026-04-18T10:18:30.001Z</time></trkpt><trkpt lat="44.1903095419556" lon="11.567703244699837"><ele>403.0</ele><time>2026-04-18T10:18:32.001Z</time></trkpt><trkpt lat="44.19035453721297" lon="11.567573672564462"><ele>403.0</ele><time>2026-04-18T10:18:34.001Z</time></trkpt><trkpt lat="44.19035943458065" lon="11.567431178342257"><ele>403.0</ele><time>2026-04-18T10:18:36.001Z</time></trkpt><trkpt lat="44.19036331037837" lon="11.56730213954579"><ele>403.0</ele><time>2026-04-18T10:18:38.001Z</time></trkpt><trkpt lat="44.19038638550471" lon="11.567159864261795"><ele>407.4</ele><time>2026-04-18T10:18:40.001Z</time></trkpt><trkpt lat="44.19039940603112" lon="11.567018844985757"><ele>411.79999999999995</ele><time>2026-04-18T10:18:42.001Z</time></trkpt><trkpt lat="44.19041342716047" lon="11.566880299780445"><ele>416.2</ele><time>2026-04-18T10:18:44.001Z</time></trkpt><trkpt lat="44.190421562504234" lon="11.566746574504103"><ele>420.6</ele><time>2026-04-18T10:18:46.001Z</time></trkpt><trkpt lat="44.19043648355445" lon="11.56661372760796"><ele>425.0</ele><time>2026-04-18T10:18:48.001Z</time></trkpt><trkpt lat="44.190445360560346" lon="11.566473219886964"><ele>425.0</ele><time>2026-04-18T10:18:50.001Z</time></trkpt><trkpt lat="44.190456093811584" lon="11.566327179229255"><ele>425.0</ele><time>2026-04-18T10:18:52.001Z</time></trkpt><trkpt lat="44.19044636995877" lon="11.56618661678239"><ele>425.0</ele><time>2026-04-18T10:18:54.001Z</time></trkpt><trkpt lat="44.19043186332419" lon="11.566054405134912"><ele>425.0</ele><time>2026-04-18T10:18:56.001Z</time></trkpt><trkpt lat="44.19040135852587" lon="11.565926954330601"><ele>425.0</ele><time>2026-04-18T10:18:58.001Z</time></trkpt><trkpt lat="44.19038058862491" lon="11.565811105799765"><ele>424.6</ele><time>2026-04-18T10:19:00.001Z</time></trkpt><trkpt lat="44.19039763639737" lon="11.565681457011891"><ele>424.2</ele><time>2026-04-18T10:19:02.001Z</time></trkpt><trkpt lat="44.19044249198979" lon="11.565559851996259"><ele>423.79999999999995</ele><time>2026-04-18T10:19:04.001Z</time></trkpt><trkpt lat="44.190487331594234" lon="11.565456379903317"><ele>423.4</ele><time>2026-04-18T10:19:06.001Z</time></trkpt><trkpt lat="44.19053585374013" lon="11.565342587060297"><ele>423.0</ele><time>2026-04-18T10:19:08.001Z</time></trkpt><trkpt lat="44.1905526917758" lon="11.56521773165795"><ele>422.2</ele><time>2026-04-18T10:19:10.001Z</time></trkpt><trkpt lat="44.19057355439907" lon="11.565082423989274"><ele>421.4</ele><time>2026-04-18T10:19:12.001Z</time></trkpt><trkpt lat="44.19054977745326" lon="11.564954402847722"><ele>420.59999999999997</ele><time>2026-04-18T10:19:14.001Z</time></trkpt><trkpt lat="44.19051796533553" lon="11.564836131834438"><ele>419.79999999999995</ele><time>2026-04-18T10:19:16.001Z</time></trkpt><trkpt lat="44.19046994804388" lon="11.564736779937824"><ele>419.0</ele><time>2026-04-18T10:19:18.001Z</time></trkpt><trkpt lat="44.19041787766911" lon="11.564642605083726"><ele>419.79999999999995</ele><time>2026-04-18T10:19:20.001Z</time></trkpt><trkpt lat="44.19039207502798" lon="11.564526916297686"><ele>420.59999999999997</ele><time>2026-04-18T10:19:22.001Z</time></trkpt><trkpt lat="44.19039876088393" lon="11.564397476829956"><ele>421.4</ele><time>2026-04-18T10:19:24.001Z</time></trkpt><trkpt lat="44.190412453341516" lon="11.56427122689"><ele>422.2</ele><time>2026-04-18T10:19:26.001Z</time></trkpt><trkpt lat="44.190445377826514" lon="11.564138653434856"><ele>423.0</ele><time>2026-04-18T10:19:28.001Z</time></trkpt><trkpt lat="44.1905113462061" lon="11.564036939760404"><ele>423.0</ele><time>2026-04-18T10:19:30.001Z</time></trkpt><trkpt lat="44.19058852432933" lon="11.563965314448593"><ele>423.0</ele><time>2026-04-18T10:19:32.001Z</time></trkpt><trkpt lat="44.19068412490062" lon="11.563915477976867"><ele>423.0</ele><time>2026-04-18T10:19:34.001Z</time></trkpt><trkpt lat="44.190776165127424" lon="11.563895888827062"><ele>423.0</ele><time>2026-04-18T10:19:36.001Z</time></trkpt><trkpt lat="44.19086608795436" lon="11.563868283413363"><ele>423.0</ele><time>2026-04-18T10:19:38.001Z</time></trkpt><trkpt lat="44.19094456246526" lon="11.563827161141944"><ele>422.59999999999997</ele><time>2026-04-18T10:19:40.001Z</time></trkpt><trkpt lat="44.19102625676506" lon="11.563735661927737"><ele>422.2</ele><time>2026-04-18T10:19:42.001Z</time></trkpt><trkpt lat="44.191083570452996" lon="11.563656655775477"><ele>421.8</ele><time>2026-04-18T10:19:44.001Z</time></trkpt><trkpt lat="44.19109887049525" lon="11.56351242934757"><ele>421.4</ele><time>2026-04-18T10:19:46.001Z</time></trkpt><trkpt lat="44.19108600276926" lon="11.563382707884147"><ele>421.0</ele><time>2026-04-18T10:19:48.001Z</time></trkpt><trkpt lat="44.191080877233226" lon="11.563266609342888"><ele>421.00000000000006</ele><time>2026-04-18T10:19:50.001Z</time></trkpt><trkpt lat="44.19106241312701" lon="11.563160029006102"><ele>421.0</ele><time>2026-04-18T10:19:52.001Z</time></trkpt><trkpt lat="44.19105095445253" lon="11.563048410402757"><ele>421.0</ele><time>2026-04-18T10:19:54.001Z</time></trkpt><trkpt lat="44.19103658866801" lon="11.56293145806115"><ele>421.0</ele><time>2026-04-18T10:19:56.001Z</time></trkpt><trkpt lat="44.19100188797773" lon="11.562824288955499"><ele>421.00000000000006</ele><time>2026-04-18T10:19:58.001Z</time></trkpt><trkpt lat="44.19095897045589" lon="11.562721991425091"><ele>421.0</ele><time>2026-04-18T10:20:00.001Z</time></trkpt><trkpt lat="44.19091985574756" lon="11.56262096219342"><ele>421.1666666666667</ele><time>2026-04-18T10:20:02.001Z</time></trkpt><trkpt lat="44.19088499168726" lon="11.56251540148075"><ele>421.33333333333337</ele><time>2026-04-18T10:20:04.001Z</time></trkpt><trkpt lat="44.19083379631131" lon="11.562408489792167"><ele>421.5</ele><time>2026-04-18T10:20:06.001Z</time></trkpt><trkpt lat="44.19080926448013" lon="11.562297003299"><ele>421.66666666666663</ele><time>2026-04-18T10:20:08.001Z</time></trkpt><trkpt lat="44.19078720450045" lon="11.562166747746543"><ele>421.8333333333333</ele><time>2026-04-18T10:20:10.001Z</time></trkpt><trkpt lat="44.19080399516158" lon="11.56205112371695"><ele>422.0</ele><time>2026-04-18T10:20:12.001Z</time></trkpt><trkpt lat="44.19080215368618" lon="11.561928529373438"><ele>421.99999999999994</ele><time>2026-04-18T10:20:14.001Z</time></trkpt><trkpt lat="44.19079987710147" lon="11.56179821779102"><ele>422.0</ele><time>2026-04-18T10:20:16.001Z</time></trkpt><trkpt lat="44.19079268371232" lon="11.561678247836992"><ele>422.0</ele><time>2026-04-18T10:20:18.001Z</time></trkpt><trkpt lat="44.19080524784255" lon="11.561550607584534"><ele>422.0</ele><time>2026-04-18T10:20:20.001Z</time></trkpt><trkpt lat="44.19082010684344" lon="11.561424034631786"><ele>421.99999999999994</ele><time>2026-04-18T10:20:22.001Z</time></trkpt><trkpt lat="44.19082271133754" lon="11.56130840413749"><ele>422.0</ele><time>2026-04-18T10:20:24.001Z</time></trkpt><trkpt lat="44.19081814907585" lon="11.561207473596058"><ele>420.99999999999994</ele><time>2026-04-18T10:20:26.001Z</time></trkpt><trkpt lat="44.19080534785502" lon="11.561083994012357"><ele>420.0</ele><time>2026-04-18T10:20:28.001Z</time></trkpt><trkpt lat="44.19075836620775" lon="11.561000204172089"><ele>419.0</ele><time>2026-04-18T10:20:30.001Z</time></trkpt><trkpt lat="44.19071316153598" lon="11.560926867264751"><ele>418.0</ele><time>2026-04-18T10:20:32.001Z</time></trkpt><trkpt lat="44.19063460227013" lon="11.560870780277982"><ele>416.99999999999994</ele><time>2026-04-18T10:20:34.001Z</time></trkpt><trkpt lat="44.19055819259019" lon="11.560820544060542"><ele>416.0</ele><time>2026-04-18T10:20:36.001Z</time></trkpt><trkpt lat="44.190488569627185" lon="11.560764743622583"><ele>421.3333333333333</ele><time>2026-04-18T10:20:38.001Z</time></trkpt><trkpt lat="44.1904278258109" lon="11.560704125752785"><ele>426.66666666666663</ele><time>2026-04-18T10:20:40.001Z</time></trkpt><trkpt lat="44.1903712502441" lon="11.560640918581747"><ele>432.0</ele><time>2026-04-18T10:20:42.001Z</time></trkpt><trkpt lat="44.19030777415327" lon="11.560591700736731"><ele>437.33333333333337</ele><time>2026-04-18T10:20:44.001Z</time></trkpt><trkpt lat="44.19023446396116" lon="11.560555247289075"><ele>442.6666666666667</ele><time>2026-04-18T10:20:46.001Z</time></trkpt><trkpt lat="44.190143420505294" lon="11.560506609063477"><ele>448.0</ele><time>2026-04-18T10:20:48.001Z</time></trkpt><trkpt lat="44.19006532596733" lon="11.560486632925935"><ele>448.00000000000006</ele><time>2026-04-18T10:20:50.001Z</time></trkpt><trkpt lat="44.18998790524871" lon="11.560458188063416"><ele>448.0</ele><time>2026-04-18T10:20:52.001Z</time></trkpt><trkpt lat="44.18989989945241" lon="11.5604233524573"><ele>448.0</ele><time>2026-04-18T10:20:54.001Z</time></trkpt><trkpt lat="44.18983752497089" lon="11.56037921440252"><ele>448.0</ele><time>2026-04-18T10:20:56.001Z</time></trkpt><trkpt lat="44.18975080242646" lon="11.560324373557357"><ele>448.00000000000006</ele><time>2026-04-18T10:20:59.001Z</time></trkpt><trkpt lat="44.189686682457975" lon="11.560220882606265"><ele>448.0</ele><time>2026-04-18T10:21:01.001Z</time></trkpt><trkpt lat="44.18968183391338" lon="11.560096180992547"><ele>450.00000000000006</ele><time>2026-04-18T10:21:03.001Z</time></trkpt><trkpt lat="44.18962584313178" lon="11.560013600644087"><ele>452.0</ele><time>2026-04-18T10:21:05.001Z</time></trkpt><trkpt lat="44.189588242704154" lon="11.55989162593582"><ele>454.0</ele><time>2026-04-18T10:21:07.001Z</time></trkpt><trkpt lat="44.18955144024365" lon="11.559776288241936"><ele>456.0</ele><time>2026-04-18T10:21:09.001Z</time></trkpt><trkpt lat="44.189540982849216" lon="11.55967346997981"><ele>458.00000000000006</ele><time>2026-04-18T10:21:11Z</time></trkpt><trkpt lat="44.18947210594269" lon="11.559587886214352"><ele>460.0</ele><time>2026-04-18T10:21:13Z</time></trkpt><trkpt lat="44.18940927050851" lon="11.559536745124499"><ele>459.1666666666667</ele><time>2026-04-18T10:21:15Z</time></trkpt><trkpt lat="44.18932072847522" lon="11.559511839318539"><ele>458.33333333333337</ele><time>2026-04-18T10:21:17Z</time></trkpt><trkpt lat="44.18924464690551" lon="11.559530295527807"><ele>457.5</ele><time>2026-04-18T10:21:19Z</time></trkpt><trkpt lat="44.18915902047472" lon="11.559513196807755"><ele>456.66666666666663</ele><time>2026-04-18T10:21:21Z</time></trkpt><trkpt lat="44.18908867022686" lon="11.559513659595986"><ele>455.8333333333333</ele><time>2026-04-18T10:21:23Z</time></trkpt><trkpt lat="44.18901248820529" lon="11.559490415987664"><ele>455.0</ele><time>2026-04-18T10:21:25Z</time></trkpt><trkpt lat="44.188932756438675" lon="11.559421030570661"><ele>454.99999999999994</ele><time>2026-04-18T10:21:27Z</time></trkpt><trkpt lat="44.18885072355501" lon="11.559387378484802"><ele>455.0</ele><time>2026-04-18T10:21:29Z</time></trkpt><trkpt lat="44.18878304657347" lon="11.559426996407373"><ele>455.0</ele><time>2026-04-18T10:21:31Z</time></trkpt><trkpt lat="44.188682286874034" lon="11.559408725682028"><ele>455.0</ele><time>2026-04-18T10:21:33Z</time></trkpt><trkpt lat="44.18860517499021" lon="11.559455078046945"><ele>454.99999999999994</ele><time>2026-04-18T10:21:35Z</time></trkpt><trkpt lat="44.1885306575053" lon="11.559484676611875"><ele>455.0</ele><time>2026-04-18T10:21:37Z</time></trkpt><trkpt lat="44.18845312341808" lon="11.55952361715502"><ele>454.99999999999994</ele><time>2026-04-18T10:21:39Z</time></trkpt><trkpt lat="44.188374771614825" lon="11.559537120630035"><ele>455.0</ele><time>2026-04-18T10:21:41Z</time></trkpt><trkpt lat="44.18829280269124" lon="11.559548473315784"><ele>455.0</ele><time>2026-04-18T10:21:43Z</time></trkpt><trkpt lat="44.188218352337636" lon="11.559486672531424"><ele>455.0</ele><time>2026-04-18T10:21:45Z</time></trkpt><trkpt lat="44.188181196821546" lon="11.559370342272814"><ele>454.99999999999994</ele><time>2026-04-18T10:21:47Z</time></trkpt><trkpt lat="44.1881643180612" lon="11.559267067320427"><ele>455.0</ele><time>2026-04-18T10:21:48Z</time></trkpt><trkpt lat="44.188186728932905" lon="11.55918425091672"><ele>454.99999999999994</ele><time>2026-04-18T10:21:50Z</time></trkpt><trkpt lat="44.18821764184808" lon="11.559070743790656"><ele>455.0</ele><time>2026-04-18T10:21:52Z</time></trkpt><trkpt lat="44.18819049174784" lon="11.558955647773772"><ele>455.0</ele><time>2026-04-18T10:21:54Z</time></trkpt><trkpt lat="44.18815139535629" lon="11.558866710271625"><ele>455.0</ele><time>2026-04-18T10:21:56Z</time></trkpt><trkpt lat="44.18812641541439" lon="11.558754202915498"><ele>454.99999999999994</ele><time>2026-04-18T10:21:58Z</time></trkpt><trkpt lat="44.18811794428538" lon="11.558639243870685"><ele>455.0</ele><time>2026-04-18T10:22:00Z</time></trkpt><trkpt lat="44.18812430630859" lon="11.55854514671011"><ele>454.8333333333333</ele><time>2026-04-18T10:22:02Z</time></trkpt><trkpt lat="44.18815106869068" lon="11.558437264324615"><ele>454.66666666666663</ele><time>2026-04-18T10:22:04Z</time></trkpt><trkpt lat="44.188165709437996" lon="11.558328271273423"><ele>454.5</ele><time>2026-04-18T10:22:06Z</time></trkpt><trkpt lat="44.18818239391848" lon="11.558228898117155"><ele>454.33333333333337</ele><time>2026-04-18T10:22:08Z</time></trkpt><trkpt lat="44.18821064342512" lon="11.558124498631985"><ele>454.1666666666667</ele><time>2026-04-18T10:22:10Z</time></trkpt><trkpt lat="44.188235523348645" lon="11.55801918791433"><ele>454.0</ele><time>2026-04-18T10:22:12Z</time></trkpt><trkpt lat="44.188227629981256" lon="11.557920235626543"><ele>453.6666666666667</ele><time>2026-04-18T10:22:14Z</time></trkpt><trkpt lat="44.18820963339178" lon="11.557817877052832"><ele>453.33333333333337</ele><time>2026-04-18T10:22:16.001Z</time></trkpt><trkpt lat="44.18820144665332" lon="11.557722302560695"><ele>453.0</ele><time>2026-04-18T10:22:18.001Z</time></trkpt><trkpt lat="44.18816768910741" lon="11.557631071738074"><ele>452.66666666666663</ele><time>2026-04-18T10:22:20.001Z</time></trkpt><trkpt lat="44.188133946540745" lon="11.557551816595302"><ele>452.3333333333333</ele><time>2026-04-18T10:22:22.001Z</time></trkpt><trkpt lat="44.18809123362265" lon="11.557465221944499"><ele>452.0</ele><time>2026-04-18T10:22:24.001Z</time></trkpt><trkpt lat="44.18803273002678" lon="11.557356249880785"><ele>456.99999999999994</ele><time>2026-04-18T10:22:27.001Z</time></trkpt><trkpt lat="44.18796221193045" lon="11.557255664997871"><ele>462.0</ele><time>2026-04-18T10:22:30.001Z</time></trkpt><trkpt lat="44.18792476524901" lon="11.55717268318122"><ele>467.0</ele><time>2026-04-18T10:22:32.001Z</time></trkpt><trkpt lat="44.18785864985765" lon="11.557100325177426"><ele>472.0</ele><time>2026-04-18T10:22:34.001Z</time></trkpt><trkpt lat="44.1878000132306" lon="11.55700948564094"><ele>476.99999999999994</ele><time>2026-04-18T10:22:36.001Z</time></trkpt><trkpt lat="44.187753096099605" lon="11.556921018403857"><ele>482.0</ele><time>2026-04-18T10:22:38.001Z</time></trkpt><trkpt lat="44.187715635395165" lon="11.556825135480638"><ele>481.99999999999994</ele><time>2026-04-18T10:22:40.001Z</time></trkpt><trkpt lat="44.187644710904344" lon="11.556733893407229"><ele>482.0</ele><time>2026-04-18T10:22:42.001Z</time></trkpt><trkpt lat="44.187562580928926" lon="11.556690872930739"><ele>482.0</ele><time>2026-04-18T10:22:44.001Z</time></trkpt><trkpt lat="44.18747616149459" lon="11.556661691765706"><ele>482.0</ele><time>2026-04-18T10:22:46.001Z</time></trkpt><trkpt lat="44.1874265725329" lon="11.556589130208815"><ele>481.99999999999994</ele><time>2026-04-18T10:22:48.001Z</time></trkpt><trkpt lat="44.187390439582394" lon="11.556498125932091"><ele>482.0</ele><time>2026-04-18T10:22:50.001Z</time></trkpt><trkpt lat="44.1873825934372" lon="11.556365607516087"><ele>481.99999999999994</ele><time>2026-04-18T10:22:52.001Z</time></trkpt><trkpt lat="44.18743124523726" lon="11.556274880914897"><ele>482.0</ele><time>2026-04-18T10:22:54Z</time></trkpt><trkpt lat="44.18749407487567" lon="11.556202647027524"><ele>482.0</ele><time>2026-04-18T10:22:56Z</time></trkpt><trkpt lat="44.18756294355222" lon="11.556142923805313"><ele>482.0</ele><time>2026-04-18T10:22:58Z</time></trkpt><trkpt lat="44.18764917094325" lon="11.556037805813453"><ele>481.99999999999994</ele><time>2026-04-18T10:23:01Z</time></trkpt><trkpt lat="44.18766361331011" lon="11.555932483374466"><ele>482.0</ele><time>2026-04-18T10:23:03Z</time></trkpt><trkpt lat="44.18768195782593" lon="11.555807766584032"><ele>482.8333333333333</ele><time>2026-04-18T10:23:05Z</time></trkpt><trkpt lat="44.187671911919516" lon="11.555698612256878"><ele>483.66666666666663</ele><time>2026-04-18T10:23:07Z</time></trkpt><trkpt lat="44.18766532675149" lon="11.555582402867971"><ele>484.5</ele><time>2026-04-18T10:23:09Z</time></trkpt><trkpt lat="44.187659706893854" lon="11.555472377251713"><ele>485.33333333333337</ele><time>2026-04-18T10:23:11Z</time></trkpt><trkpt lat="44.18763136354896" lon="11.555356174090878"><ele>486.1666666666667</ele><time>2026-04-18T10:23:13Z</time></trkpt><trkpt lat="44.1876159712795" lon="11.55524343426168"><ele>487.0</ele><time>2026-04-18T10:23:15Z</time></trkpt><trkpt lat="44.187554133984776" lon="11.555142178040033"><ele>487.00000000000006</ele><time>2026-04-18T10:23:17Z</time></trkpt><trkpt lat="44.18748349725584" lon="11.555055347378577"><ele>487.0</ele><time>2026-04-18T10:23:19Z</time></trkpt><trkpt lat="44.187422599134564" lon="11.554955775447889"><ele>487.0</ele><time>2026-04-18T10:23:21Z</time></trkpt><trkpt lat="44.18738138437235" lon="11.554875295611588"><ele>487.0</ele><time>2026-04-18T10:23:23Z</time></trkpt><trkpt lat="44.18733624669082" lon="11.55477901091164"><ele>487.00000000000006</ele><time>2026-04-18T10:23:25Z</time></trkpt><trkpt lat="44.18728849003504" lon="11.554686966095254"><ele>487.0</ele><time>2026-04-18T10:23:27Z</time></trkpt><trkpt lat="44.187229006272126" lon="11.55457737526201"><ele>490.7142857142857</ele><time>2026-04-18T10:23:29Z</time></trkpt><trkpt lat="44.187226999250235" lon="11.554488188847065"><ele>494.42857142857144</ele><time>2026-04-18T10:23:31Z</time></trkpt><trkpt lat="44.18719344830032" lon="11.554384526174587"><ele>498.14285714285717</ele><time>2026-04-18T10:23:33Z</time></trkpt><trkpt lat="44.18715205618895" lon="11.554296237470998"><ele>501.8571428571429</ele><time>2026-04-18T10:23:35Z</time></trkpt><trkpt lat="44.18712289953595" lon="11.554208528945743"><ele>505.57142857142856</ele><time>2026-04-18T10:23:37Z</time></trkpt><trkpt lat="44.18710824847333" lon="11.55411541853979"><ele>509.28571428571433</ele><time>2026-04-18T10:23:39Z</time></trkpt><trkpt lat="44.18707919368669" lon="11.554036732452836"><ele>513.0</ele><time>2026-04-18T10:23:41Z</time></trkpt><trkpt lat="44.18706077621751" lon="11.553902012562416"><ele>513.0</ele><time>2026-04-18T10:23:44Z</time></trkpt><trkpt lat="44.187029371692645" lon="11.553813395903981"><ele>513.0</ele><time>2026-04-18T10:23:46Z</time></trkpt><trkpt lat="44.187024599024824" lon="11.55370075938643"><ele>513.0</ele><time>2026-04-18T10:23:48Z</time></trkpt><trkpt lat="44.18700017572749" lon="11.553585795453477"><ele>513.0</ele><time>2026-04-18T10:23:51Z</time></trkpt><trkpt lat="44.18695714586076" lon="11.553468932842604"><ele>513.0</ele><time>2026-04-18T10:23:54Z</time></trkpt><trkpt lat="44.18692257275529" lon="11.553362175491458"><ele>513.0</ele><time>2026-04-18T10:23:56Z</time></trkpt><trkpt lat="44.186893753129084" lon="11.553240528751166"><ele>510.79999999999995</ele><time>2026-04-18T10:23:58Z</time></trkpt><trkpt lat="44.18684023105304" lon="11.553154508531472"><ele>508.59999999999997</ele><time>2026-04-18T10:24:00Z</time></trkpt><trkpt lat="44.18679364753506" lon="11.553058943333605"><ele>506.40000000000003</ele><time>2026-04-18T10:24:02Z</time></trkpt><trkpt lat="44.18671396742031" lon="11.552962517034432"><ele>504.20000000000005</ele><time>2026-04-18T10:24:04Z</time></trkpt><trkpt lat="44.186630888344794" lon="11.552899527807233"><ele>502.0</ele><time>2026-04-18T10:24:06Z</time></trkpt><trkpt lat="44.186533213663495" lon="11.552905219622634"><ele>503.6</ele><time>2026-04-18T10:24:08Z</time></trkpt><trkpt lat="44.18644759662173" lon="11.55296721903142"><ele>505.20000000000005</ele><time>2026-04-18T10:24:10Z</time></trkpt><trkpt lat="44.186362539260244" lon="11.553020027462793"><ele>506.8</ele><time>2026-04-18T10:24:12Z</time></trkpt><trkpt lat="44.18627440376163" lon="11.553064662634084"><ele>508.4</ele><time>2026-04-18T10:24:14Z</time></trkpt><trkpt lat="44.186182988188754" lon="11.55311682798995"><ele>510.0</ele><time>2026-04-18T10:24:16Z</time></trkpt><trkpt lat="44.186103775713704" lon="11.553197620528517"><ele>510.0</ele><time>2026-04-18T10:24:18Z</time></trkpt><trkpt lat="44.18599883527152" lon="11.553272240186809"><ele>510.0</ele><time>2026-04-18T10:24:20Z</time></trkpt><trkpt lat="44.18588170646046" lon="11.553231158656015"><ele>510.0</ele><time>2026-04-18T10:24:22Z</time></trkpt><trkpt lat="44.18581914916141" lon="11.553091448170779"><ele>510.0</ele><time>2026-04-18T10:24:24Z</time></trkpt><trkpt lat="44.1858501381788" lon="11.55293674073152"><ele>511.2</ele><time>2026-04-18T10:24:26Z</time></trkpt><trkpt lat="44.18577573874057" lon="11.552792354854196"><ele>512.4</ele><time>2026-04-18T10:24:28Z</time></trkpt><trkpt lat="44.185705633541566" lon="11.552777790028383"><ele>513.6</ele><time>2026-04-18T10:24:29Z</time></trkpt><trkpt lat="44.18563229554325" lon="11.552804643916405"><ele>514.8</ele><time>2026-04-18T10:24:30Z</time></trkpt><trkpt lat="44.18556402149848" lon="11.552827260820154"><ele>516.0</ele><time>2026-04-18T10:24:31Z</time></trkpt><trkpt lat="44.18543522406376" lon="11.552800532470464"><ele>516.0</ele><time>2026-04-18T10:24:33Z</time></trkpt><trkpt lat="44.18537682439673" lon="11.552735621662935"><ele>516.0</ele><time>2026-04-18T10:24:34Z</time></trkpt><trkpt lat="44.18533391399176" lon="11.55264697939691"><ele>516.0</ele><time>2026-04-18T10:24:35Z</time></trkpt><trkpt lat="44.18531567063752" lon="11.552529617092054"><ele>516.0</ele><time>2026-04-18T10:24:36Z</time></trkpt><trkpt lat="44.185310350953706" lon="11.552418755985672"><ele>516.0</ele><time>2026-04-18T10:24:37Z</time></trkpt><trkpt lat="44.1853116513588" lon="11.552324882252993"><ele>516.0</ele><time>2026-04-18T10:24:38Z</time></trkpt><trkpt lat="44.185312718058235" lon="11.552233109075559"><ele>516.0</ele><time>2026-04-18T10:24:39Z</time></trkpt><trkpt lat="44.18530128586366" lon="11.55214661181482"><ele>516.0</ele><time>2026-04-18T10:24:40Z</time></trkpt><trkpt lat="44.185223651257886" lon="11.55201540226489"><ele>516.0</ele><time>2026-04-18T10:24:42Z</time></trkpt><trkpt lat="44.18516111528133" lon="11.55200144633169"><ele>516.0</ele><time>2026-04-18T10:24:43Z</time></trkpt><trkpt lat="44.18505219822998" lon="11.55202538105644"><ele>516.0</ele><time>2026-04-18T10:24:45Z</time></trkpt><trkpt lat="44.184960117249965" lon="11.551999119494548"><ele>514.2</ele><time>2026-04-18T10:24:47Z</time></trkpt><trkpt lat="44.18489039075294" lon="11.551892109376091"><ele>512.4000000000001</ele><time>2026-04-18T10:24:49Z</time></trkpt><trkpt lat="44.18487271782966" lon="11.551765548349769"><ele>510.6</ele><time>2026-04-18T10:24:51Z</time></trkpt><trkpt lat="44.18486815733358" lon="11.55164043575074"><ele>508.8</ele><time>2026-04-18T10:24:53Z</time></trkpt><trkpt lat="44.184868769984696" lon="11.551522829997571"><ele>507.0</ele><time>2026-04-18T10:24:55Z</time></trkpt><trkpt lat="44.18487184299822" lon="11.551403333153289"><ele>507.0</ele><time>2026-04-18T10:24:57Z</time></trkpt><trkpt lat="44.18489561428644" lon="11.551301647096958"><ele>507.0</ele><time>2026-04-18T10:24:59Z</time></trkpt><trkpt lat="44.18492984464712" lon="11.551189019129557"><ele>507.0</ele><time>2026-04-18T10:25:01Z</time></trkpt><trkpt lat="44.184951067321684" lon="11.551076124995248"><ele>507.0</ele><time>2026-04-18T10:25:03Z</time></trkpt><trkpt lat="44.18494466133315" lon="11.550957958733882"><ele>507.0</ele><time>2026-04-18T10:25:05Z</time></trkpt><trkpt lat="44.18491208421497" lon="11.550845696878154"><ele>507.0</ele><time>2026-04-18T10:25:07Z</time></trkpt><trkpt lat="44.18486157749947" lon="11.550752262108187"><ele>512.0</ele><time>2026-04-18T10:25:09Z</time></trkpt><trkpt lat="44.18479054880892" lon="11.550693969514171"><ele>517.0</ele><time>2026-04-18T10:25:11Z</time></trkpt><trkpt lat="44.18471208476876" lon="11.55065677370945"><ele>522.0</ele><time>2026-04-18T10:25:13Z</time></trkpt><trkpt lat="44.18462482257036" lon="11.550626907979586"><ele>527.0</ele><time>2026-04-18T10:25:15Z</time></trkpt><trkpt lat="44.18453517902056" lon="11.550606290005934"><ele>532.0</ele><time>2026-04-18T10:25:17Z</time></trkpt><trkpt lat="44.184448099457846" lon="11.550568149175328"><ele>537.0</ele><time>2026-04-18T10:25:19Z</time></trkpt><trkpt lat="44.18438283235964" lon="11.550508889291224"><ele>537.0</ele><time>2026-04-18T10:25:21Z</time></trkpt><trkpt lat="44.18430576573457" lon="11.550423791129788"><ele>537.0</ele><time>2026-04-18T10:25:23Z</time></trkpt><trkpt lat="44.18423870203408" lon="11.550332810536029"><ele>537.0</ele><time>2026-04-18T10:25:25Z</time></trkpt><trkpt lat="44.18416322627778" lon="11.550262135319644"><ele>537.0</ele><time>2026-04-18T10:25:27Z</time></trkpt><trkpt lat="44.18409757982838" lon="11.550192887658525"><ele>537.0</ele><time>2026-04-18T10:25:29Z</time></trkpt><trkpt lat="44.184032226378015" lon="11.55012377258022"><ele>537.0</ele><time>2026-04-18T10:25:31Z</time></trkpt><trkpt lat="44.18396699375246" lon="11.550039662553571"><ele>540.1666666666666</ele><time>2026-04-18T10:25:33Z</time></trkpt><trkpt lat="44.18389050999527" lon="11.549982104878309"><ele>543.3333333333334</ele><time>2026-04-18T10:25:35Z</time></trkpt><trkpt lat="44.18380358156293" lon="11.549967612642165"><ele>546.5</ele><time>2026-04-18T10:25:37Z</time></trkpt><trkpt lat="44.183712272485614" lon="11.54994723612658"><ele>549.6666666666667</ele><time>2026-04-18T10:25:39Z</time></trkpt><trkpt lat="44.18361972462462" lon="11.549937559879663"><ele>552.8333333333334</ele><time>2026-04-18T10:25:41Z</time></trkpt><trkpt lat="44.183564993997955" lon="11.549856498165763"><ele>556.0</ele><time>2026-04-18T10:25:43Z</time></trkpt><trkpt lat="44.18358387411763" lon="11.549726446898818"><ele>556.0</ele><time>2026-04-18T10:25:45Z</time></trkpt><trkpt lat="44.18361980848554" lon="11.549597247585055"><ele>556.0</ele><time>2026-04-18T10:25:47Z</time></trkpt><trkpt lat="44.183667526672934" lon="11.54947606084046"><ele>556.0</ele><time>2026-04-18T10:25:49Z</time></trkpt><trkpt lat="44.183721246306355" lon="11.549343605552004"><ele>556.0</ele><time>2026-04-18T10:25:51Z</time></trkpt><trkpt lat="44.18376642906551" lon="11.549189122363668"><ele>556.0</ele><time>2026-04-18T10:25:53Z</time></trkpt><trkpt lat="44.18376373372959" lon="11.549036029470281"><ele>553.4</ele><time>2026-04-18T10:25:55Z</time></trkpt><trkpt lat="44.183723068500406" lon="11.548899591269759"><ele>550.8</ele><time>2026-04-18T10:25:57Z</time></trkpt><trkpt lat="44.18364396954911" lon="11.548800789294225"><ele>548.1999999999999</ele><time>2026-04-18T10:25:59Z</time></trkpt><trkpt lat="44.183535776004796" lon="11.548762893303048"><ele>545.6</ele><time>2026-04-18T10:26:01Z</time></trkpt><trkpt lat="44.18343225478197" lon="11.548724760331286"><ele>543.0</ele><time>2026-04-18T10:26:03Z</time></trkpt><trkpt lat="44.18333752447302" lon="11.54868881499463"><ele>544.6</ele><time>2026-04-18T10:26:05Z</time></trkpt><trkpt lat="44.183238530412176" lon="11.548648983522435"><ele>546.1999999999999</ele><time>2026-04-18T10:26:07Z</time></trkpt><trkpt lat="44.18314663951555" lon="11.548605368039743"><ele>547.8</ele><time>2026-04-18T10:26:09Z</time></trkpt><trkpt lat="44.18305005384926" lon="11.54855461400621"><ele>549.4</ele><time>2026-04-18T10:26:11Z</time></trkpt><trkpt lat="44.182953965429306" lon="11.548504389686252"><ele>551.0</ele><time>2026-04-18T10:26:13Z</time></trkpt><trkpt lat="44.18287008384931" lon="11.548444430625652"><ele>551.0</ele><time>2026-04-18T10:26:15Z</time></trkpt><trkpt lat="44.182825367028165" lon="11.548370122366775"><ele>551.0</ele><time>2026-04-18T10:26:17Z</time></trkpt><trkpt lat="44.18276109753664" lon="11.548253728084962"><ele>551.0</ele><time>2026-04-18T10:26:19Z</time></trkpt><trkpt lat="44.182713097170534" lon="11.548119262601748"><ele>551.0</ele><time>2026-04-18T10:26:21Z</time></trkpt><trkpt lat="44.18269237627901" lon="11.548028838063525"><ele>551.0</ele><time>2026-04-18T10:26:22Z</time></trkpt><trkpt lat="44.182713550461955" lon="11.547895585389078"><ele>551.0</ele><time>2026-04-18T10:26:24Z</time></trkpt><trkpt lat="44.1826637165819" lon="11.547761439462358"><ele>549.8571428571428</ele><time>2026-04-18T10:26:26Z</time></trkpt><trkpt lat="44.18261691748235" lon="11.54770142987726"><ele>548.7142857142857</ele><time>2026-04-18T10:26:27Z</time></trkpt><trkpt lat="44.18256090428898" lon="11.54763805511482"><ele>547.5714285714286</ele><time>2026-04-18T10:26:28Z</time></trkpt><trkpt lat="44.18251023695131" lon="11.54758257627532"><ele>546.4285714285713</ele><time>2026-04-18T10:26:29Z</time></trkpt><trkpt lat="44.18246186616689" lon="11.547524934956549"><ele>545.2857142857142</ele><time>2026-04-18T10:26:30Z</time></trkpt><trkpt lat="44.182413243068886" lon="11.547417385087622"><ele>544.1428571428571</ele><time>2026-04-18T10:26:32Z</time></trkpt><trkpt lat="44.182382747805555" lon="11.547300157761052"><ele>543.0</ele><time>2026-04-18T10:26:34Z</time></trkpt><trkpt lat="44.18236793557721" lon="11.547145298124162"><ele>542.4</ele><time>2026-04-18T10:26:36Z</time></trkpt><trkpt lat="44.18239326648938" lon="11.547003293870398"><ele>541.8</ele><time>2026-04-18T10:26:38Z</time></trkpt><trkpt lat="44.18240947122789" lon="11.54685512341787"><ele>541.2</ele><time>2026-04-18T10:26:40Z</time></trkpt><trkpt lat="44.18237106397174" lon="11.546724708201337"><ele>540.6</ele><time>2026-04-18T10:26:42Z</time></trkpt><trkpt lat="44.18232002500682" lon="11.546600059524428"><ele>540.0</ele><time>2026-04-18T10:26:44Z</time></trkpt><trkpt lat="44.18226791543618" lon="11.546481760947142"><ele>539.6</ele><time>2026-04-18T10:26:46Z</time></trkpt><trkpt lat="44.182218696512585" lon="11.546362516578347"><ele>539.2</ele><time>2026-04-18T10:26:48Z</time></trkpt><trkpt lat="44.182164728145494" lon="11.546240160440009"><ele>538.8</ele><time>2026-04-18T10:26:50Z</time></trkpt><trkpt lat="44.18208748410912" lon="11.546141721030148"><ele>538.4</ele><time>2026-04-18T10:26:52Z</time></trkpt><trkpt lat="44.18199679704509" lon="11.546141382410966"><ele>538.0</ele><time>2026-04-18T10:26:54Z</time></trkpt><trkpt lat="44.1819604519699" lon="11.546280216248908"><ele>542.6</ele><time>2026-04-18T10:26:56Z</time></trkpt><trkpt lat="44.18202626934285" lon="11.546389464181198"><ele>547.1999999999999</ele><time>2026-04-18T10:26:58Z</time></trkpt><trkpt lat="44.1821141425871" lon="11.546463024582295"><ele>551.8</ele><time>2026-04-18T10:27:00Z</time></trkpt><trkpt lat="44.18215377558562" lon="11.546584838026055"><ele>556.4</ele><time>2026-04-18T10:27:02Z</time></trkpt><trkpt lat="44.182168205536556" lon="11.54671332408991"><ele>561.0</ele><time>2026-04-18T10:27:04Z</time></trkpt><trkpt lat="44.18214717238343" lon="11.546810416208787"><ele>561.0</ele><time>2026-04-18T10:27:06Z</time></trkpt><trkpt lat="44.182126283416274" lon="11.546904252009039"><ele>561.0</ele><time>2026-04-18T10:27:08Z</time></trkpt><trkpt lat="44.182107244367664" lon="11.546989923461608"><ele>561.0</ele><time>2026-04-18T10:27:10Z</time></trkpt><trkpt lat="44.18206582530136" lon="11.547110840082796"><ele>561.0</ele><time>2026-04-18T10:27:12Z</time></trkpt><trkpt lat="44.18204603397723" lon="11.547211656635598"><ele>561.0</ele><time>2026-04-18T10:27:14Z</time></trkpt><trkpt lat="44.18203472779964" lon="11.547324585773717"><ele>561.0</ele><time>2026-04-18T10:27:16Z</time></trkpt><trkpt lat="44.18204352772137" lon="11.54743684898665"><ele>563.6666666666666</ele><time>2026-04-18T10:27:18Z</time></trkpt><trkpt lat="44.182051304251004" lon="11.54753353933183"><ele>566.3333333333334</ele><time>2026-04-18T10:27:20Z</time></trkpt><trkpt lat="44.18205376229662" lon="11.547640319417502"><ele>569.0</ele><time>2026-04-18T10:27:22Z</time></trkpt><trkpt lat="44.18207212578777" lon="11.5477341843567"><ele>571.6666666666667</ele><time>2026-04-18T10:27:24Z</time></trkpt><trkpt lat="44.182088845133265" lon="11.547846189947995"><ele>574.3333333333334</ele><time>2026-04-18T10:27:26Z</time></trkpt><trkpt lat="44.182075879690466" lon="11.547964679621952"><ele>577.0</ele><time>2026-04-18T10:27:28Z</time></trkpt><trkpt lat="44.182115972690646" lon="11.548071420398804"><ele>579.8000000000001</ele><time>2026-04-18T10:27:30Z</time></trkpt><trkpt lat="44.182131598078946" lon="11.548196638026486"><ele>582.6</ele><time>2026-04-18T10:27:34Z</time></trkpt><trkpt lat="44.182160046510084" lon="11.548316300135077"><ele>585.4000000000001</ele><time>2026-04-18T10:27:36Z</time></trkpt><trkpt lat="44.182191173736854" lon="11.5484361374146"><ele>588.2</ele><time>2026-04-18T10:27:38Z</time></trkpt><trkpt lat="44.182219571201856" lon="11.548561350098254"><ele>591.0</ele><time>2026-04-18T10:27:40Z</time></trkpt><trkpt lat="44.18225143050556" lon="11.54867387567881"><ele>593.8333333333334</ele><time>2026-04-18T10:27:42Z</time></trkpt><trkpt lat="44.18227466278167" lon="11.54878425053733"><ele>596.6666666666666</ele><time>2026-04-18T10:27:44Z</time></trkpt><trkpt lat="44.18231399451285" lon="11.548859598754502"><ele>599.5</ele><time>2026-04-18T10:27:46Z</time></trkpt><trkpt lat="44.182397555932425" lon="11.548962998031005"><ele>602.3333333333333</ele><time>2026-04-18T10:27:48Z</time></trkpt><trkpt lat="44.18244729170632" lon="11.549038243621249"><ele>605.1666666666666</ele><time>2026-04-18T10:27:50Z</time></trkpt><trkpt lat="44.18251673504646" lon="11.549115327293297"><ele>608.0</ele><time>2026-04-18T10:27:52Z</time></trkpt><trkpt lat="44.18258338286803" lon="11.549169914711651"><ele>602.0</ele><time>2026-04-18T10:27:54Z</time></trkpt><trkpt lat="44.18265651848203" lon="11.549221345006927"><ele>596.0</ele><time>2026-04-18T10:27:56Z</time></trkpt><trkpt lat="44.18272644043817" lon="11.549264671739925"><ele>590.0</ele><time>2026-04-18T10:27:58Z</time></trkpt><trkpt lat="44.18280328395537" lon="11.549293809018494"><ele>584.0</ele><time>2026-04-18T10:28:00Z</time></trkpt><trkpt lat="44.18287741070409" lon="11.549337328181135"><ele>578.0</ele><time>2026-04-18T10:28:02Z</time></trkpt><trkpt lat="44.18293899681479" lon="11.549405672960473"><ele>572.0</ele><time>2026-04-18T10:28:04Z</time></trkpt><trkpt lat="44.18294935434913" lon="11.549511125619407"><ele>574.6666666666666</ele><time>2026-04-18T10:28:06Z</time></trkpt><trkpt lat="44.18289081646277" lon="11.549610030410035"><ele>577.3333333333333</ele><time>2026-04-18T10:28:08Z</time></trkpt><trkpt lat="44.182800224714875" lon="11.549622716887523"><ele>580.0</ele><time>2026-04-18T10:28:10Z</time></trkpt><trkpt lat="44.18271298145819" lon="11.549604745706754"><ele>582.6666666666666</ele><time>2026-04-18T10:28:12Z</time></trkpt><trkpt lat="44.18262596576409" lon="11.549591459892504"><ele>585.3333333333334</ele><time>2026-04-18T10:28:14Z</time></trkpt><trkpt lat="44.182538507260574" lon="11.549575413800031"><ele>588.0</ele><time>2026-04-18T10:28:16Z</time></trkpt><trkpt lat="44.18246182126256" lon="11.549557964945018"><ele>585.7142857142857</ele><time>2026-04-18T10:28:18Z</time></trkpt><trkpt lat="44.18240090454873" lon="11.549525466703832"><ele>583.4285714285714</ele><time>2026-04-18T10:28:20Z</time></trkpt><trkpt lat="44.18232565083245" lon="11.549465653756434"><ele>581.1428571428571</ele><time>2026-04-18T10:28:23Z</time></trkpt><trkpt lat="44.18226961813245" lon="11.549415998332275"><ele>578.8571428571429</ele><time>2026-04-18T10:28:25Z</time></trkpt><trkpt lat="44.182201704844196" lon="11.549335779263334"><ele>576.5714285714286</ele><time>2026-04-18T10:28:28Z</time></trkpt><trkpt lat="44.18215123106503" lon="11.549278039930613"><ele>574.2857142857142</ele><time>2026-04-18T10:28:30Z</time></trkpt><trkpt lat="44.18210276337128" lon="11.549218953288005"><ele>572.0</ele><time>2026-04-18T10:28:32Z</time></trkpt><trkpt lat="44.182036041230944" lon="11.549125334218848"><ele>574.7142857142857</ele><time>2026-04-18T10:28:35Z</time></trkpt><trkpt lat="44.18198979223529" lon="11.549058117073725"><ele>577.4285714285714</ele><time>2026-04-18T10:28:37Z</time></trkpt><trkpt lat="44.18194647076698" lon="11.548987872599753"><ele>580.1428571428571</ele><time>2026-04-18T10:28:39Z</time></trkpt><trkpt lat="44.18189492913146" lon="11.548920224604288"><ele>582.8571428571429</ele><time>2026-04-18T10:28:41Z</time></trkpt><trkpt lat="44.18184635902802" lon="11.548812969579005"><ele>585.5714285714286</ele><time>2026-04-18T10:28:44Z</time></trkpt><trkpt lat="44.181818496580114" lon="11.548730975782695"><ele>588.2857142857142</ele><time>2026-04-18T10:28:46Z</time></trkpt><trkpt lat="44.18179659050592" lon="11.548646311132664"><ele>591.0</ele><time>2026-04-18T10:28:48Z</time></trkpt><trkpt lat="44.181758566189956" lon="11.548520573955315"><ele>591.0</ele><time>2026-04-18T10:28:51Z</time></trkpt><trkpt lat="44.18174433066865" lon="11.54842844136651"><ele>591.0</ele><time>2026-04-18T10:28:53Z</time></trkpt><trkpt lat="44.18173465288569" lon="11.548340075621335"><ele>591.0</ele><time>2026-04-18T10:28:55Z</time></trkpt><trkpt lat="44.18172492635305" lon="11.54823409685896"><ele>591.0</ele><time>2026-04-18T10:28:57Z</time></trkpt><trkpt lat="44.18170892976523" lon="11.548148426159381"><ele>591.0</ele><time>2026-04-18T10:28:59Z</time></trkpt><trkpt lat="44.18165054445294" lon="11.548049675155386"><ele>591.0</ele><time>2026-04-18T10:29:02Z</time></trkpt><trkpt lat="44.18159842959121" lon="11.5479934124934"><ele>591.0</ele><time>2026-04-18T10:29:04Z</time></trkpt><trkpt lat="44.1815212962044" lon="11.547957145113271"><ele>594.1666666666666</ele><time>2026-04-18T10:29:07Z</time></trkpt><trkpt lat="44.1814505400559" lon="11.547966802489672"><ele>597.3333333333334</ele><time>2026-04-18T10:29:09Z</time></trkpt><trkpt lat="44.181362713641015" lon="11.547971509718627"><ele>600.5</ele><time>2026-04-18T10:29:12Z</time></trkpt><trkpt lat="44.18127119871039" lon="11.547987771324793"><ele>603.6666666666667</ele><time>2026-04-18T10:29:15Z</time></trkpt><trkpt lat="44.181186911410826" lon="11.548009754148254"><ele>606.8333333333334</ele><time>2026-04-18T10:29:18Z</time></trkpt><trkpt lat="44.18112056398145" lon="11.54799931630939"><ele>610.0</ele><time>2026-04-18T10:29:20Z</time></trkpt><trkpt lat="44.18103139228254" lon="11.548023379109122"><ele>610.0</ele><time>2026-04-18T10:29:23Z</time></trkpt><trkpt lat="44.18093937472478" lon="11.548028120857346"><ele>610.0</ele><time>2026-04-18T10:29:26Z</time></trkpt><trkpt lat="44.18087235286688" lon="11.548040544212377"><ele>610.0</ele><time>2026-04-18T10:29:28Z</time></trkpt><trkpt lat="44.18078756782893" lon="11.548046845080863"><ele>610.0</ele><time>2026-04-18T10:29:31Z</time></trkpt><trkpt lat="44.1806864396422" lon="11.54805126951126"><ele>610.0</ele><time>2026-04-18T10:29:34Z</time></trkpt><trkpt lat="44.18061587536411" lon="11.548059855408518"><ele>610.0</ele><time>2026-04-18T10:29:36Z</time></trkpt><trkpt lat="44.18055166844473" lon="11.548061736301051"><ele>610.0</ele><time>2026-04-18T10:29:38Z</time></trkpt><trkpt lat="44.1804880669419" lon="11.548051129574121"><ele>610.0</ele><time>2026-04-18T10:29:40Z</time></trkpt><trkpt lat="44.180420749330196" lon="11.548041921990741"><ele>610.0</ele><time>2026-04-18T10:29:42Z</time></trkpt><trkpt lat="44.1803480912774" lon="11.548009989850176"><ele>610.0</ele><time>2026-04-18T10:29:45Z</time></trkpt><trkpt lat="44.18026824484797" lon="11.547975040079834"><ele>610.0</ele><time>2026-04-18T10:29:47Z</time></trkpt><trkpt lat="44.18020035173036" lon="11.547950180680035"><ele>610.0</ele><time>2026-04-18T10:29:49Z</time></trkpt><trkpt lat="44.180121269276796" lon="11.547918052499506"><ele>610.0</ele><time>2026-04-18T10:29:52Z</time></trkpt><trkpt lat="44.18006235390017" lon="11.547873501293912"><ele>610.0</ele><time>2026-04-18T10:29:54Z</time></trkpt><trkpt lat="44.1799972269197" lon="11.547814394109077"><ele>610.0</ele><time>2026-04-18T10:29:57Z</time></trkpt><trkpt lat="44.17993727024373" lon="11.54770502266986"><ele>610.0</ele><time>2026-04-18T10:30:00Z</time></trkpt><trkpt lat="44.17988475781895" lon="11.547599221355926"><ele>610.0</ele><time>2026-04-18T10:30:03Z</time></trkpt><trkpt lat="44.17984324511915" lon="11.54748253483318"><ele>610.0</ele><time>2026-04-18T10:30:05Z</time></trkpt><trkpt lat="44.179807216209156" lon="11.547407952188669"><ele>610.0</ele><time>2026-04-18T10:30:07Z</time></trkpt><trkpt lat="44.17978290900989" lon="11.547323336167587"><ele>614.6666666666667</ele><time>2026-04-18T10:30:09Z</time></trkpt><trkpt lat="44.179764819472005" lon="11.547219379278122"><ele>619.3333333333334</ele><time>2026-04-18T10:30:11Z</time></trkpt><trkpt lat="44.17976042044598" lon="11.547082157876176"><ele>624.0</ele><time>2026-04-18T10:30:14Z</time></trkpt><trkpt lat="44.17976468866312" lon="11.546965588851647"><ele>628.6666666666666</ele><time>2026-04-18T10:30:16Z</time></trkpt><trkpt lat="44.17976100889866" lon="11.546862656324125"><ele>633.3333333333333</ele><time>2026-04-18T10:30:18Z</time></trkpt><trkpt lat="44.17977299630441" lon="11.546758122269097"><ele>638.0</ele><time>2026-04-18T10:30:20Z</time></trkpt><trkpt lat="44.17976244517077" lon="11.54666135337373"><ele>638.0</ele><time>2026-04-18T10:30:23Z</time></trkpt><trkpt lat="44.17977070631965" lon="11.546555672822885"><ele>638.0</ele><time>2026-04-18T10:30:24Z</time></trkpt><trkpt lat="44.179773971164025" lon="11.546461495352311"><ele>638.0</ele><time>2026-04-18T10:30:26Z</time></trkpt><trkpt lat="44.179751245002336" lon="11.546306547689008"><ele>638.0</ele><time>2026-04-18T10:30:29Z</time></trkpt><trkpt lat="44.17972080930499" lon="11.546219039900379"><ele>638.0</ele><time>2026-04-18T10:30:31Z</time></trkpt><trkpt lat="44.179648655631794" lon="11.546120864088474"><ele>638.0</ele><time>2026-04-18T10:30:33Z</time></trkpt><trkpt lat="44.17957366581803" lon="11.546072392738326"><ele>636.3333333333333</ele><time>2026-04-18T10:30:35Z</time></trkpt><trkpt lat="44.179507211949314" lon="11.546012296564152"><ele>634.6666666666666</ele><time>2026-04-18T10:30:37Z</time></trkpt><trkpt lat="44.179428812110466" lon="11.5459017553135"><ele>633.0</ele><time>2026-04-18T10:30:39Z</time></trkpt><trkpt lat="44.17936480271422" lon="11.54579975072335"><ele>631.3333333333334</ele><time>2026-04-18T10:30:41Z</time></trkpt><trkpt lat="44.17931190970996" lon="11.545704380663773"><ele>629.6666666666667</ele><time>2026-04-18T10:30:43Z</time></trkpt><trkpt lat="44.179287707857384" lon="11.545609201104298"><ele>628.0</ele><time>2026-04-18T10:30:45Z</time></trkpt><trkpt lat="44.17925020952061" lon="11.545508523576077"><ele>628.0</ele><time>2026-04-18T10:30:47Z</time></trkpt><trkpt lat="44.1792092755127" lon="11.545438927732611"><ele>628.0</ele><time>2026-04-18T10:30:49Z</time></trkpt><trkpt lat="44.179164696871716" lon="11.545342384753658"><ele>628.0</ele><time>2026-04-18T10:30:51Z</time></trkpt><trkpt lat="44.179150665193674" lon="11.545225825602918"><ele>628.0</ele><time>2026-04-18T10:30:53Z</time></trkpt><trkpt lat="44.17912068977096" lon="11.545139769813241"><ele>628.0</ele><time>2026-04-18T10:30:55Z</time></trkpt><trkpt lat="44.17904232165116" lon="11.54510834352647"><ele>628.0</ele><time>2026-04-18T10:30:57Z</time></trkpt><trkpt lat="44.17898198660822" lon="11.545162904492644"><ele>627.9999999999999</ele><time>2026-04-18T10:31:00Z</time></trkpt><trkpt lat="44.17901973379797" lon="11.545256125888528"><ele>628.0</ele><time>2026-04-18T10:31:03Z</time></trkpt><trkpt lat="44.17906029019824" lon="11.54532926137806"><ele>628.0</ele><time>2026-04-18T10:31:05Z</time></trkpt><trkpt lat="44.17908013113646" lon="11.545415488219076"><ele>628.0</ele><time>2026-04-18T10:31:07Z</time></trkpt><trkpt lat="44.17909265595391" lon="11.54551467583186"><ele>628.0</ele><time>2026-04-18T10:31:09Z</time></trkpt><trkpt lat="44.179119547032506" lon="11.545596348428198"><ele>627.9999999999999</ele><time>2026-04-18T10:31:11Z</time></trkpt><trkpt lat="44.17914189832076" lon="11.545732642762012"><ele>628.0</ele><time>2026-04-18T10:31:15Z</time></trkpt><trkpt lat="44.179162809063655" lon="11.545838779297894"><ele>628.0</ele><time>2026-04-18T10:31:17Z</time></trkpt><trkpt lat="44.179181093853124" lon="11.545937921252607"><ele>628.0</ele><time>2026-04-18T10:31:19Z</time></trkpt><trkpt lat="44.179206346743214" lon="11.546019918074489"><ele>628.0</ele><time>2026-04-18T10:31:21Z</time></trkpt><trkpt lat="44.17925536243817" lon="11.546141191236813"><ele>628.0</ele><time>2026-04-18T10:31:24Z</time></trkpt><trkpt lat="44.179281634324205" lon="11.546239606053364"><ele>628.0</ele><time>2026-04-18T10:31:26Z</time></trkpt><trkpt lat="44.179299790190655" lon="11.54634303020708"><ele>628.0</ele><time>2026-04-18T10:31:28Z</time></trkpt><trkpt lat="44.179326963163795" lon="11.54643545326065"><ele>629.6666666666667</ele><time>2026-04-18T10:31:30Z</time></trkpt><trkpt lat="44.17933374235943" lon="11.54654096281931"><ele>631.3333333333334</ele><time>2026-04-18T10:31:32Z</time></trkpt><trkpt lat="44.1793464182169" lon="11.546669305174518"><ele>633.0</ele><time>2026-04-18T10:31:35Z</time></trkpt><trkpt lat="44.17932126988262" lon="11.54679017309908"><ele>634.6666666666666</ele><time>2026-04-18T10:31:38Z</time></trkpt><trkpt lat="44.17928643123959" lon="11.546889588723767"><ele>636.3333333333333</ele><time>2026-04-18T10:31:40Z</time></trkpt><trkpt lat="44.17924798631783" lon="11.546991913731905"><ele>638.0</ele><time>2026-04-18T10:31:42Z</time></trkpt><trkpt lat="44.17919743916076" lon="11.547111335319574"><ele>639.1666666666666</ele><time>2026-04-18T10:31:44Z</time></trkpt><trkpt lat="44.17917513756849" lon="11.547202195197986"><ele>640.3333333333333</ele><time>2026-04-18T10:31:46Z</time></trkpt><trkpt lat="44.17916073184992" lon="11.54730795132605"><ele>641.5</ele><time>2026-04-18T10:31:48Z</time></trkpt><trkpt lat="44.17914735426907" lon="11.547395530299632"><ele>642.6666666666666</ele><time>2026-04-18T10:31:50Z</time></trkpt><trkpt lat="44.17913592244175" lon="11.547487034530853"><ele>643.8333333333334</ele><time>2026-04-18T10:31:52Z</time></trkpt><trkpt lat="44.17912775665735" lon="11.54761304572635"><ele>645.0</ele><time>2026-04-18T10:31:55Z</time></trkpt><trkpt lat="44.179122543148615" lon="11.547728386702891"><ele>645.0</ele><time>2026-04-18T10:31:57Z</time></trkpt><trkpt lat="44.17913369848585" lon="11.547819637414502"><ele>645.0</ele><time>2026-04-18T10:32:00Z</time></trkpt><trkpt lat="44.179142940828505" lon="11.54794969022723"><ele>645.0</ele><time>2026-04-18T10:32:02Z</time></trkpt><trkpt lat="44.17916709811003" lon="11.54806916324997"><ele>645.0</ele><time>2026-04-18T10:32:05Z</time></trkpt><trkpt lat="44.17920239474657" lon="11.548190508398973"><ele>645.0</ele><time>2026-04-18T10:32:07Z</time></trkpt><trkpt lat="44.17922324519038" lon="11.548277045658555"><ele>645.0</ele><time>2026-04-18T10:32:09Z</time></trkpt><trkpt lat="44.17924973174789" lon="11.548382942052339"><ele>647.0</ele><time>2026-04-18T10:32:11Z</time></trkpt><trkpt lat="44.17927169725079" lon="11.548481660125184"><ele>649.0</ele><time>2026-04-18T10:32:13Z</time></trkpt><trkpt lat="44.17927636649235" lon="11.548572135819134"><ele>651.0</ele><time>2026-04-18T10:32:15Z</time></trkpt><trkpt lat="44.17929547589986" lon="11.548674826887286"><ele>653.0</ele><time>2026-04-18T10:32:17Z</time></trkpt><trkpt lat="44.179333782112614" lon="11.548772361061536"><ele>655.0</ele><time>2026-04-18T10:32:19Z</time></trkpt><trkpt lat="44.179360223311654" lon="11.548856740438067"><ele>657.0</ele><time>2026-04-18T10:32:21Z</time></trkpt><trkpt lat="44.17942863690418" lon="11.548943504558611"><ele>659.1666666666666</ele><time>2026-04-18T10:32:23Z</time></trkpt><trkpt lat="44.17947300136376" lon="11.549019832550469"><ele>661.3333333333334</ele><time>2026-04-18T10:32:25Z</time></trkpt><trkpt lat="44.17954396408044" lon="11.549114929859442"><ele>663.5</ele><time>2026-04-18T10:32:28Z</time></trkpt><trkpt lat="44.17958201741127" lon="11.549190510984138"><ele>665.6666666666667</ele><time>2026-04-18T10:32:30Z</time></trkpt><trkpt lat="44.179628962789906" lon="11.54927295484368"><ele>667.8333333333334</ele><time>2026-04-18T10:32:32Z</time></trkpt><trkpt lat="44.1796698215793" lon="11.549351772078063"><ele>670.0</ele><time>2026-04-18T10:32:34Z</time></trkpt><trkpt lat="44.179702662294005" lon="11.54946120317171"><ele>669.3333333333334</ele><time>2026-04-18T10:32:36Z</time></trkpt><trkpt lat="44.179743908307856" lon="11.54956130773711"><ele>668.6666666666667</ele><time>2026-04-18T10:32:38Z</time></trkpt><trkpt lat="44.17977271747152" lon="11.549678243315842"><ele>668.0</ele><time>2026-04-18T10:32:41Z</time></trkpt><trkpt lat="44.17979444939816" lon="11.549814315788241"><ele>667.3333333333334</ele><time>2026-04-18T10:32:45Z</time></trkpt><trkpt lat="44.17981724389351" lon="11.549902624425668"><ele>666.6666666666666</ele><time>2026-04-18T10:32:46Z</time></trkpt><trkpt lat="44.17984199286019" lon="11.550004572591673"><ele>666.0</ele><time>2026-04-18T10:32:48Z</time></trkpt><trkpt lat="44.179899054809624" lon="11.550080327867434"><ele>666.0</ele><time>2026-04-18T10:32:50Z</time></trkpt><trkpt lat="44.179952180398104" lon="11.550139275230654"><ele>666.0</ele><time>2026-04-18T10:32:52Z</time></trkpt><trkpt lat="44.180043672534964" lon="11.55018921373644"><ele>666.0</ele><time>2026-04-18T10:32:55Z</time></trkpt><trkpt lat="44.1801239302364" lon="11.550250024376552"><ele>666.0</ele><time>2026-04-18T10:32:57Z</time></trkpt><trkpt lat="44.180216609342196" lon="11.550284654906442"><ele>666.0</ele><time>2026-04-18T10:33:00Z</time></trkpt><trkpt lat="44.18027926010617" lon="11.550317224745015"><ele>666.0</ele><time>2026-04-18T10:33:02Z</time></trkpt><trkpt lat="44.18035073367987" lon="11.550323284894269"><ele>667.4</ele><time>2026-04-18T10:33:04Z</time></trkpt><trkpt lat="44.18041211950462" lon="11.550389046854658"><ele>668.8</ele><time>2026-04-18T10:33:06Z</time></trkpt><trkpt lat="44.180482502263665" lon="11.550467263023213"><ele>670.1999999999999</ele><time>2026-04-18T10:33:08Z</time></trkpt><trkpt lat="44.18054614564858" lon="11.550569776511272"><ele>671.5999999999999</ele><time>2026-04-18T10:33:11Z</time></trkpt><trkpt lat="44.180641907086574" lon="11.550608922202418"><ele>673.0</ele><time>2026-04-18T10:33:13Z</time></trkpt><trkpt lat="44.1806972589873" lon="11.550714829668442"><ele>673.0</ele><time>2026-04-18T10:33:16Z</time></trkpt><trkpt lat="44.18075807405115" lon="11.55079496573656"><ele>673.0</ele><time>2026-04-18T10:33:18Z</time></trkpt><trkpt lat="44.180786499406246" lon="11.550913700740374"><ele>673.0</ele><time>2026-04-18T10:33:21Z</time></trkpt><trkpt lat="44.180763271629864" lon="11.551005930650497"><ele>673.0</ele><time>2026-04-18T10:33:23Z</time></trkpt><trkpt lat="44.1807511832011" lon="11.55110428143484"><ele>673.0</ele><time>2026-04-18T10:33:25Z</time></trkpt><trkpt lat="44.180730858729746" lon="11.551206525682229"><ele>673.0</ele><time>2026-04-18T10:33:27Z</time></trkpt><trkpt lat="44.180719910800015" lon="11.551304160631117"><ele>675.1666666666667</ele><time>2026-04-18T10:33:29Z</time></trkpt><trkpt lat="44.18070683739567" lon="11.551410376264451"><ele>677.3333333333334</ele><time>2026-04-18T10:33:31Z</time></trkpt><trkpt lat="44.18070751190424" lon="11.551507057778162"><ele>679.5</ele><time>2026-04-18T10:33:33Z</time></trkpt><trkpt lat="44.180713206414204" lon="11.551655492904535"><ele>681.6666666666666</ele><time>2026-04-18T10:33:36Z</time></trkpt><trkpt lat="44.18070260916676" lon="11.551762159629035"><ele>683.8333333333333</ele><time>2026-04-18T10:33:38Z</time></trkpt><trkpt lat="44.18069856389202" lon="11.551858994457685"><ele>686.0</ele><time>2026-04-18T10:33:40Z</time></trkpt><trkpt lat="44.180684086384005" lon="11.551965945637694"><ele>687.0</ele><time>2026-04-18T10:33:42Z</time></trkpt><trkpt lat="44.18068066811516" lon="11.552060293220293"><ele>688.0</ele><time>2026-04-18T10:33:44Z</time></trkpt><trkpt lat="44.18066573001144" lon="11.552191552527708"><ele>689.0</ele><time>2026-04-18T10:33:47Z</time></trkpt><trkpt lat="44.180655648464665" lon="11.552279376622604"><ele>690.0</ele><time>2026-04-18T10:33:49Z</time></trkpt><trkpt lat="44.18067706653176" lon="11.552375599273605"><ele>691.0</ele><time>2026-04-18T10:33:51Z</time></trkpt><trkpt lat="44.18070735197162" lon="11.552467667248255"><ele>692.0</ele><time>2026-04-18T10:33:53Z</time></trkpt><trkpt lat="44.18076763517786" lon="11.55257939304423"><ele>692.0</ele><time>2026-04-18T10:33:56Z</time></trkpt><trkpt lat="44.18080522699064" lon="11.5526877302899"><ele>692.0</ele><time>2026-04-18T10:33:59Z</time></trkpt><trkpt lat="44.18076392485936" lon="11.552791181020849"><ele>692.0</ele><time>2026-04-18T10:34:02Z</time></trkpt><trkpt lat="44.18068677499078" lon="11.55278786585071"><ele>692.0</ele><time>2026-04-18T10:34:05Z</time></trkpt><trkpt lat="44.180625367945964" lon="11.552726493531082"><ele>692.0</ele><time>2026-04-18T10:34:08Z</time></trkpt><trkpt lat="44.18056090873746" lon="11.552641786282498"><ele>692.0</ele><time>2026-04-18T10:34:11Z</time></trkpt><trkpt lat="44.180506799852864" lon="11.552536002280664"><ele>694.8333333333333</ele><time>2026-04-18T10:34:14Z</time></trkpt><trkpt lat="44.180456493811164" lon="11.552428917396194"><ele>697.6666666666666</ele><time>2026-04-18T10:34:16Z</time></trkpt><trkpt lat="44.18043310685064" lon="11.552334345252014"><ele>700.5</ele><time>2026-04-18T10:34:18Z</time></trkpt><trkpt lat="44.180423706504165" lon="11.552238007878104"><ele>703.3333333333334</ele><time>2026-04-18T10:34:20Z</time></trkpt><trkpt lat="44.180387330216426" lon="11.552141061302885"><ele>706.1666666666667</ele><time>2026-04-18T10:34:22Z</time></trkpt><trkpt lat="44.18032463430749" lon="11.552057392027917"><ele>709.0</ele><time>2026-04-18T10:34:25Z</time></trkpt><trkpt lat="44.18026483040155" lon="11.552004496842658"><ele>709.0</ele><time>2026-04-18T10:34:27Z</time></trkpt><trkpt lat="44.180197546256174" lon="11.552000937186564"><ele>709.0</ele><time>2026-04-18T10:34:29Z</time></trkpt><trkpt lat="44.18012822029252" lon="11.552044471066917"><ele>709.0</ele><time>2026-04-18T10:34:31Z</time></trkpt><trkpt lat="44.180052358029485" lon="11.55211588830828"><ele>709.0</ele><time>2026-04-18T10:34:34Z</time></trkpt><trkpt lat="44.17998956673912" lon="11.55216916905866"><ele>709.0</ele><time>2026-04-18T10:34:36Z</time></trkpt><trkpt lat="44.179963492741784" lon="11.552279563695675"><ele>709.0</ele><time>2026-04-18T10:34:38Z</time></trkpt><trkpt lat="44.17992709765736" lon="11.552370242456663"><ele>710.5</ele><time>2026-04-18T10:34:40Z</time></trkpt><trkpt lat="44.17996862425967" lon="11.552447380340956"><ele>712.0</ele><time>2026-04-18T10:34:42Z</time></trkpt><trkpt lat="44.179984356847974" lon="11.55253996699266"><ele>713.5</ele><time>2026-04-18T10:34:44Z</time></trkpt><trkpt lat="44.179984338042075" lon="11.552653459631186"><ele>715.0</ele><time>2026-04-18T10:34:46Z</time></trkpt><trkpt lat="44.17999734196452" lon="11.552756778082019"><ele>716.5</ele><time>2026-04-18T10:34:48Z</time></trkpt><trkpt lat="44.18003250413975" lon="11.552850627181348"><ele>718.0</ele><time>2026-04-18T10:34:50Z</time></trkpt><trkpt lat="44.180014937343806" lon="11.552974141186562"><ele>718.6666666666667</ele><time>2026-04-18T10:34:54Z</time></trkpt><trkpt lat="44.17991673941681" lon="11.55300005719517"><ele>719.3333333333334</ele><time>2026-04-18T10:34:57Z</time></trkpt><trkpt lat="44.17985183953964" lon="11.553001291620948"><ele>720.0</ele><time>2026-04-18T10:34:59Z</time></trkpt><trkpt lat="44.17978504583837" lon="11.553029293205915"><ele>720.6666666666666</ele><time>2026-04-18T10:35:01Z</time></trkpt><trkpt lat="44.17969542579128" lon="11.553049589023512"><ele>721.3333333333333</ele><time>2026-04-18T10:35:03Z</time></trkpt><trkpt lat="44.17964063891783" lon="11.553098683302686"><ele>722.0</ele><time>2026-04-18T10:35:05Z</time></trkpt><trkpt lat="44.17956647030107" lon="11.553117039248706"><ele>722.0</ele><time>2026-04-18T10:35:07Z</time></trkpt><trkpt lat="44.17948678693355" lon="11.553126853629308"><ele>722.0</ele><time>2026-04-18T10:35:09Z</time></trkpt><trkpt lat="44.17942172030289" lon="11.553137878060582"><ele>722.0</ele><time>2026-04-18T10:35:11Z</time></trkpt><trkpt lat="44.17934302915834" lon="11.553131970503417"><ele>722.0</ele><time>2026-04-18T10:35:13Z</time></trkpt><trkpt lat="44.17926575257996" lon="11.553110220022425"><ele>722.0</ele><time>2026-04-18T10:35:15Z</time></trkpt><trkpt lat="44.17920323101737" lon="11.5530876034559"><ele>722.0</ele><time>2026-04-18T10:35:17Z</time></trkpt><trkpt lat="44.179135353797214" lon="11.553079215522565"><ele>722.0</ele><time>2026-04-18T10:35:19Z</time></trkpt><trkpt lat="44.17907408355544" lon="11.55305691621664"><ele>722.0</ele><time>2026-04-18T10:35:22Z</time></trkpt><trkpt lat="44.17901932354138" lon="11.553007007446222"><ele>722.0</ele><time>2026-04-18T10:35:25Z</time></trkpt><trkpt lat="44.178962017742506" lon="11.552946773494424"><ele>722.0</ele><time>2026-04-18T10:35:28Z</time></trkpt><trkpt lat="44.178909613596595" lon="11.552877817740324"><ele>722.0</ele><time>2026-04-18T10:35:30Z</time></trkpt><trkpt lat="44.17885706863374" lon="11.55281856803448"><ele>722.0</ele><time>2026-04-18T10:35:32Z</time></trkpt><trkpt lat="44.17879866586742" lon="11.552740511723115"><ele>722.0</ele><time>2026-04-18T10:35:34Z</time></trkpt><trkpt lat="44.178741541343484" lon="11.552681072880574"><ele>722.0</ele><time>2026-04-18T10:35:36Z</time></trkpt><trkpt lat="44.17867988620141" lon="11.552599398509596"><ele>723.6666666666666</ele><time>2026-04-18T10:35:39Z</time></trkpt><trkpt lat="44.17862892753636" lon="11.55250489089209"><ele>725.3333333333333</ele><time>2026-04-18T10:35:42Z</time></trkpt><trkpt lat="44.178575096879385" lon="11.552411570496119"><ele>727.0</ele><time>2026-04-18T10:35:45Z</time></trkpt><trkpt lat="44.17851869313469" lon="11.55231691739705"><ele>728.6666666666666</ele><time>2026-04-18T10:35:48Z</time></trkpt><trkpt lat="44.178465161397746" lon="11.552235083575198"><ele>730.3333333333334</ele><time>2026-04-18T10:35:51Z</time></trkpt><trkpt lat="44.17842211127727" lon="11.552146606035635"><ele>732.0</ele><time>2026-04-18T10:35:53Z</time></trkpt><trkpt lat="44.17836993086908" lon="11.552079477138305"><ele>733.2</ele><time>2026-04-18T10:35:55Z</time></trkpt><trkpt lat="44.17832377423454" lon="11.551971526788433"><ele>734.4000000000001</ele><time>2026-04-18T10:35:57Z</time></trkpt><trkpt lat="44.178256320801005" lon="11.551888763434038"><ele>735.5999999999999</ele><time>2026-04-18T10:35:59Z</time></trkpt><trkpt lat="44.178187794934395" lon="11.551790847640842"><ele>736.8</ele><time>2026-04-18T10:36:01Z</time></trkpt><trkpt lat="44.17812232316638" lon="11.551719335817323"><ele>738.0</ele><time>2026-04-18T10:36:03Z</time></trkpt><trkpt lat="44.178076227959046" lon="11.551600304829622"><ele>737.5999999999999</ele><time>2026-04-18T10:36:05Z</time></trkpt><trkpt lat="44.17798397859095" lon="11.551498801659204"><ele>737.1999999999999</ele><time>2026-04-18T10:36:07Z</time></trkpt><trkpt lat="44.17793592811928" lon="11.551391606486515"><ele>736.8</ele><time>2026-04-18T10:36:09Z</time></trkpt><trkpt lat="44.17789821524928" lon="11.55131940366605"><ele>736.4</ele><time>2026-04-18T10:36:10Z</time></trkpt><trkpt lat="44.17781939896804" lon="11.551204641954723"><ele>736.0</ele><time>2026-04-18T10:36:12Z</time></trkpt><trkpt lat="44.177720966830584" lon="11.551064231044712"><ele>736.0</ele><time>2026-04-18T10:36:14Z</time></trkpt><trkpt lat="44.17768120403385" lon="11.550989062051972"><ele>736.0</ele><time>2026-04-18T10:36:15Z</time></trkpt><trkpt lat="44.17762681208177" lon="11.55083776810265"><ele>736.0</ele><time>2026-04-18T10:36:17Z</time></trkpt><trkpt lat="44.177570773302406" lon="11.550683456137257"><ele>736.0</ele><time>2026-04-18T10:36:19Z</time></trkpt><trkpt lat="44.17753297919818" lon="11.550535960275878"><ele>736.0</ele><time>2026-04-18T10:36:21Z</time></trkpt><trkpt lat="44.17753328948335" lon="11.550426452114554"><ele>736.4</ele><time>2026-04-18T10:36:23Z</time></trkpt><trkpt lat="44.17749980716962" lon="11.550348725356546"><ele>736.8</ele><time>2026-04-18T10:36:24Z</time></trkpt><trkpt lat="44.17744598413903" lon="11.55022527406111"><ele>737.1999999999999</ele><time>2026-04-18T10:36:26Z</time></trkpt><trkpt lat="44.17741118769546" lon="11.550123157303503"><ele>737.5999999999999</ele><time>2026-04-18T10:36:28Z</time></trkpt><trkpt lat="44.1773779698199" lon="11.54998775997692"><ele>738.0</ele><time>2026-04-18T10:36:30Z</time></trkpt><trkpt lat="44.17733441447461" lon="11.549785388424894"><ele>742.0</ele><time>2026-04-18T10:36:33Z</time></trkpt><trkpt lat="44.17732777523368" lon="11.54967560544745"><ele>746.0</ele><time>2026-04-18T10:36:34Z</time></trkpt><trkpt lat="44.17731095072803" lon="11.549579350751921"><ele>750.0</ele><time>2026-04-18T10:36:35Z</time></trkpt><trkpt lat="44.17727953622365" lon="11.549462728625654"><ele>754.0</ele><time>2026-04-18T10:36:36Z</time></trkpt><trkpt lat="44.17726105867401" lon="11.549370475778314"><ele>758.0</ele><time>2026-04-18T10:36:37Z</time></trkpt><trkpt lat="44.17722521914925" lon="11.549194536269141"><ele>762.0</ele><time>2026-04-18T10:36:39Z</time></trkpt><trkpt lat="44.17720501588526" lon="11.549104026084702"><ele>760.5</ele><time>2026-04-18T10:36:40Z</time></trkpt><trkpt lat="44.177159857733024" lon="11.548923456904875"><ele>759.0</ele><time>2026-04-18T10:36:42Z</time></trkpt><trkpt lat="44.17711159550376" lon="11.548777413075136"><ele>757.5</ele><time>2026-04-18T10:36:44Z</time></trkpt><trkpt lat="44.17704848243777" lon="11.548624357762352"><ele>756.0</ele><time>2026-04-18T10:36:46Z</time></trkpt><trkpt lat="44.1769804658908" lon="11.548487448133809"><ele>756.0</ele><time>2026-04-18T10:36:48Z</time></trkpt><trkpt lat="44.17694065177507" lon="11.548408059390752"><ele>756.0</ele><time>2026-04-18T10:36:49Z</time></trkpt><trkpt lat="44.17689734448525" lon="11.548320357907302"><ele>756.0</ele><time>2026-04-18T10:36:51Z</time></trkpt><trkpt lat="44.17685033371192" lon="11.548186405050963"><ele>756.0</ele><time>2026-04-18T10:36:52Z</time></trkpt><trkpt lat="44.176804898985125" lon="11.548032282905472"><ele>756.0</ele><time>2026-04-18T10:36:54Z</time></trkpt><trkpt lat="44.17677125718343" lon="11.54795215036087"><ele>756.0</ele><time>2026-04-18T10:36:55Z</time></trkpt><trkpt lat="44.17673528248816" lon="11.547852623988053"><ele>756.0</ele><time>2026-04-18T10:36:56Z</time></trkpt><trkpt lat="44.17668034249103" lon="11.547781009801563"><ele>756.0</ele><time>2026-04-18T10:36:57Z</time></trkpt><trkpt lat="44.17664187519909" lon="11.547693872151571"><ele>756.0</ele><time>2026-04-18T10:36:58Z</time></trkpt><trkpt lat="44.17655992513686" lon="11.547600661405667"><ele>756.0</ele><time>2026-04-18T10:37:00Z</time></trkpt><trkpt lat="44.17650105075678" lon="11.547541845139259"><ele>756.0</ele><time>2026-04-18T10:37:01Z</time></trkpt><trkpt lat="44.17643707331027" lon="11.54748071294587"><ele>756.0</ele><time>2026-04-18T10:37:02Z</time></trkpt><trkpt lat="44.17637874660751" lon="11.5474307937445"><ele>756.0</ele><time>2026-04-18T10:37:03Z</time></trkpt><trkpt lat="44.176318467250276" lon="11.54738453522582"><ele>756.0</ele><time>2026-04-18T10:37:04Z</time></trkpt><trkpt lat="44.17625048138408" lon="11.547363456587687"><ele>756.0</ele><time>2026-04-18T10:37:05Z</time></trkpt><trkpt lat="44.17617963328996" lon="11.54730464832056"><ele>756.0</ele><time>2026-04-18T10:37:06Z</time></trkpt><trkpt lat="44.176107899479355" lon="11.547273999202291"><ele>756.0</ele><time>2026-04-18T10:37:07Z</time></trkpt><trkpt lat="44.17605973987442" lon="11.547215613248387"><ele>756.0</ele><time>2026-04-18T10:37:08Z</time></trkpt><trkpt lat="44.175989223110896" lon="11.547182492581275"><ele>756.0</ele><time>2026-04-18T10:37:09Z</time></trkpt><trkpt lat="44.175900854276414" lon="11.547090390643065"><ele>754.8333333333334</ele><time>2026-04-18T10:37:11Z</time></trkpt><trkpt lat="44.17579605299063" lon="11.546988611243611"><ele>753.6666666666666</ele><time>2026-04-18T10:37:13Z</time></trkpt><trkpt lat="44.175733539828556" lon="11.546947199805938"><ele>752.5</ele><time>2026-04-18T10:37:14Z</time></trkpt><trkpt lat="44.175662035773385" lon="11.54693299489578"><ele>751.3333333333333</ele><time>2026-04-18T10:37:15Z</time></trkpt><trkpt lat="44.17559684185575" lon="11.546927614859865"><ele>750.1666666666666</ele><time>2026-04-18T10:37:16Z</time></trkpt><trkpt lat="44.175529742030584" lon="11.54693712357711"><ele>749.0</ele><time>2026-04-18T10:37:17Z</time></trkpt><trkpt lat="44.17542792525444" lon="11.546946005659759"><ele>749.0</ele><time>2026-04-18T10:37:19Z</time></trkpt><trkpt lat="44.17531504281955" lon="11.546964659926934"><ele>749.0</ele><time>2026-04-18T10:37:21Z</time></trkpt><trkpt lat="44.17521684386541" lon="11.546967545552388"><ele>749.0</ele><time>2026-04-18T10:37:23Z</time></trkpt><trkpt lat="44.17512137151854" lon="11.546941992575219"><ele>749.0</ele><time>2026-04-18T10:37:25Z</time></trkpt><trkpt lat="44.175050123881526" lon="11.546889369594336"><ele>749.0</ele><time>2026-04-18T10:37:27Z</time></trkpt><trkpt lat="44.1749859226302" lon="11.546825012396997"><ele>749.0</ele><time>2026-04-18T10:37:29Z</time></trkpt><trkpt lat="44.174907791186044" lon="11.54676770568433"><ele>749.0</ele><time>2026-04-18T10:37:31Z</time></trkpt><trkpt lat="44.17483398363558" lon="11.546692240991392"><ele>749.0</ele><time>2026-04-18T10:37:33Z</time></trkpt><trkpt lat="44.174754430718345" lon="11.546643012672583"><ele>749.0</ele><time>2026-04-18T10:37:35Z</time></trkpt><trkpt lat="44.1746705479269" lon="11.54659430087127"><ele>749.0</ele><time>2026-04-18T10:37:37Z</time></trkpt><trkpt lat="44.174590988537005" lon="11.546536042198392"><ele>749.0</ele><time>2026-04-18T10:37:39Z</time></trkpt><trkpt lat="44.17451688615045" lon="11.546513656552618"><ele>748.8000000000001</ele><time>2026-04-18T10:37:41Z</time></trkpt><trkpt lat="44.17444654295442" lon="11.546430094517047"><ele>748.6</ele><time>2026-04-18T10:37:43Z</time></trkpt><trkpt lat="44.1744193560767" lon="11.546332498195207"><ele>748.4</ele><time>2026-04-18T10:37:45Z</time></trkpt><trkpt lat="44.174371103027326" lon="11.546225921327077"><ele>748.2</ele><time>2026-04-18T10:37:47Z</time></trkpt><trkpt lat="44.17431129807184" lon="11.546087936971038"><ele>748.0</ele><time>2026-04-18T10:37:49Z</time></trkpt><trkpt lat="44.17423751205033" lon="11.546026119890369"><ele>748.0</ele><time>2026-04-18T10:37:51Z</time></trkpt><trkpt lat="44.1741684109788" lon="11.545953878002114"><ele>748.0</ele><time>2026-04-18T10:37:53Z</time></trkpt><trkpt lat="44.17409132425248" lon="11.5458738672765"><ele>748.0</ele><time>2026-04-18T10:37:56Z</time></trkpt><trkpt lat="44.17403704722993" lon="11.545754668474329"><ele>748.0</ele><time>2026-04-18T10:37:58Z</time></trkpt><trkpt lat="44.173988628995836" lon="11.545633508295674"><ele>748.0</ele><time>2026-04-18T10:38:00Z</time></trkpt><trkpt lat="44.173951667819104" lon="11.5455268290661"><ele>746.0</ele><time>2026-04-18T10:38:02Z</time></trkpt><trkpt lat="44.17388216570006" lon="11.545427613291622"><ele>744.0</ele><time>2026-04-18T10:38:04Z</time></trkpt><trkpt lat="44.173822985413324" lon="11.545310104495512"><ele>742.0</ele><time>2026-04-18T10:38:06Z</time></trkpt><trkpt lat="44.17374463169627" lon="11.545224350844824"><ele>740.0</ele><time>2026-04-18T10:38:08Z</time></trkpt><trkpt lat="44.17364916856341" lon="11.545130509288738"><ele>738.0</ele><time>2026-04-18T10:38:10Z</time></trkpt><trkpt lat="44.173524891761616" lon="11.545044235790616"><ele>738.0</ele><time>2026-04-18T10:38:12Z</time></trkpt><trkpt lat="44.17346982573938" lon="11.544971025348019"><ele>738.0</ele><time>2026-04-18T10:38:13Z</time></trkpt><trkpt lat="44.17340109380253" lon="11.544912917155765"><ele>738.0</ele><time>2026-04-18T10:38:14Z</time></trkpt><trkpt lat="44.1733293099991" lon="11.544853850625014"><ele>738.0</ele><time>2026-04-18T10:38:15Z</time></trkpt><trkpt lat="44.17323100913391" lon="11.544778053813134"><ele>738.0</ele><time>2026-04-18T10:38:16Z</time></trkpt><trkpt lat="44.1731302547084" lon="11.54470126706449"><ele>738.2</ele><time>2026-04-18T10:38:17Z</time></trkpt><trkpt lat="44.17303123664365" lon="11.544647044884792"><ele>738.4</ele><time>2026-04-18T10:38:18Z</time></trkpt><trkpt lat="44.17294142998502" lon="11.544568339611873"><ele>738.6</ele><time>2026-04-18T10:38:19Z</time></trkpt><trkpt lat="44.172855772447946" lon="11.544501472929932"><ele>738.8000000000001</ele><time>2026-04-18T10:38:20Z</time></trkpt><trkpt lat="44.1727830157857" lon="11.5444316767538"><ele>739.0</ele><time>2026-04-18T10:38:21Z</time></trkpt><trkpt lat="44.17271643045949" lon="11.544355950231834"><ele>739.0</ele><time>2026-04-18T10:38:22Z</time></trkpt><trkpt lat="44.17265375177073" lon="11.54426356182562"><ele>739.0</ele><time>2026-04-18T10:38:23Z</time></trkpt><trkpt lat="44.1725988421599" lon="11.544203041237685"><ele>739.0</ele><time>2026-04-18T10:38:24Z</time></trkpt><trkpt lat="44.1725077721119" lon="11.544126703490665"><ele>739.0</ele><time>2026-04-18T10:38:26Z</time></trkpt><trkpt lat="44.172441173251244" lon="11.54406575315717"><ele>739.0</ele><time>2026-04-18T10:38:27Z</time></trkpt><trkpt lat="44.1723686287161" lon="11.544027872342083"><ele>739.0</ele><time>2026-04-18T10:38:28Z</time></trkpt><trkpt lat="44.172296297146424" lon="11.544004251207582"><ele>738.5</ele><time>2026-04-18T10:38:29Z</time></trkpt><trkpt lat="44.1722279147939" lon="11.543992085872972"><ele>738.0</ele><time>2026-04-18T10:38:30Z</time></trkpt><trkpt lat="44.17215549216509" lon="11.543975952178107"><ele>737.5</ele><time>2026-04-18T10:38:31Z</time></trkpt><trkpt lat="44.17207569805962" lon="11.543989599840263"><ele>737.0</ele><time>2026-04-18T10:38:32Z</time></trkpt><trkpt lat="44.17199454458363" lon="11.54404296467467"><ele>736.5</ele><time>2026-04-18T10:38:33Z</time></trkpt><trkpt lat="44.17191045557942" lon="11.544029769726697"><ele>736.0</ele><time>2026-04-18T10:38:34Z</time></trkpt><trkpt lat="44.17183349744456" lon="11.54402417647545"><ele>736.0</ele><time>2026-04-18T10:38:35Z</time></trkpt><trkpt lat="44.17174006290016" lon="11.54401336275754"><ele>736.0</ele><time>2026-04-18T10:38:36Z</time></trkpt><trkpt lat="44.17164770272077" lon="11.544023924346703"><ele>736.0</ele><time>2026-04-18T10:38:37Z</time></trkpt><trkpt lat="44.171537087758445" lon="11.543991032562671"><ele>736.0</ele><time>2026-04-18T10:38:38Z</time></trkpt><trkpt lat="44.1714381526148" lon="11.543966534618965"><ele>736.0</ele><time>2026-04-18T10:38:39Z</time></trkpt><trkpt lat="44.171329870819676" lon="11.543940986512887"><ele>734.1999999999999</ele><time>2026-04-18T10:38:40Z</time></trkpt><trkpt lat="44.17122436262935" lon="11.543927562421676"><ele>732.4</ele><time>2026-04-18T10:38:41Z</time></trkpt><trkpt lat="44.17112335639903" lon="11.543877264038219"><ele>730.6</ele><time>2026-04-18T10:38:42Z</time></trkpt><trkpt lat="44.171027876262514" lon="11.543812685234492"><ele>728.8</ele><time>2026-04-18T10:38:43Z</time></trkpt><trkpt lat="44.170926038360975" lon="11.543754283527953"><ele>727.0</ele><time>2026-04-18T10:38:44Z</time></trkpt><trkpt lat="44.17084191258004" lon="11.543666070758956"><ele>727.0</ele><time>2026-04-18T10:38:45Z</time></trkpt><trkpt lat="44.17078011750396" lon="11.543556536556743"><ele>727.0</ele><time>2026-04-18T10:38:46Z</time></trkpt><trkpt lat="44.17071520640021" lon="11.543456477628677"><ele>727.0</ele><time>2026-04-18T10:38:47Z</time></trkpt><trkpt lat="44.17065152570264" lon="11.543353196093834"><ele>727.0</ele><time>2026-04-18T10:38:48Z</time></trkpt><trkpt lat="44.17058489072573" lon="11.543247315259805"><ele>727.0</ele><time>2026-04-18T10:38:49Z</time></trkpt><trkpt lat="44.17051259988979" lon="11.54315752586264"><ele>728.0</ele><time>2026-04-18T10:38:50Z</time></trkpt><trkpt lat="44.17043069517806" lon="11.543088953307715"><ele>729.0</ele><time>2026-04-18T10:38:51Z</time></trkpt><trkpt lat="44.170347299228695" lon="11.543051462865648"><ele>730.0</ele><time>2026-04-18T10:38:52Z</time></trkpt><trkpt lat="44.17026446600236" lon="11.543038314028"><ele>731.0</ele><time>2026-04-18T10:38:53Z</time></trkpt><trkpt lat="44.17018365928702" lon="11.543050358649637"><ele>732.0</ele><time>2026-04-18T10:38:54Z</time></trkpt><trkpt lat="44.17005911657272" lon="11.543077373582232"><ele>732.0</ele><time>2026-04-18T10:38:56Z</time></trkpt><trkpt lat="44.16999235009675" lon="11.54307676441834"><ele>732.0</ele><time>2026-04-18T10:38:57Z</time></trkpt><trkpt lat="44.169861667078166" lon="11.543120265658048"><ele>732.0</ele><time>2026-04-18T10:38:59Z</time></trkpt><trkpt lat="44.16979146044681" lon="11.543142756193971"><ele>732.0</ele><time>2026-04-18T10:39:00Z</time></trkpt><trkpt lat="44.16972286711911" lon="11.54314520239688"><ele>732.0</ele><time>2026-04-18T10:39:01Z</time></trkpt><trkpt lat="44.169648708189555" lon="11.543140066599685"><ele>732.0</ele><time>2026-04-18T10:39:02Z</time></trkpt><trkpt lat="44.16957752663758" lon="11.54312317448821"><ele>733.1666666666666</ele><time>2026-04-18T10:39:03Z</time></trkpt><trkpt lat="44.16951566357948" lon="11.543088100193515"><ele>734.3333333333334</ele><time>2026-04-18T10:39:04Z</time></trkpt><trkpt lat="44.169458731842234" lon="11.543039125197181"><ele>735.5</ele><time>2026-04-18T10:39:05Z</time></trkpt><trkpt lat="44.169412769555585" lon="11.542977399420467"><ele>736.6666666666667</ele><time>2026-04-18T10:39:06Z</time></trkpt><trkpt lat="44.169399988728685" lon="11.542834073718923"><ele>737.8333333333334</ele><time>2026-04-18T10:39:08Z</time></trkpt><trkpt lat="44.16943225820053" lon="11.542758585159527"><ele>739.0</ele><time>2026-04-18T10:39:09Z</time></trkpt><trkpt lat="44.16941290415729" lon="11.542614748784448"><ele>739.0</ele><time>2026-04-18T10:39:11Z</time></trkpt><trkpt lat="44.16939148679978" lon="11.5424890196796"><ele>739.0</ele><time>2026-04-18T10:39:13Z</time></trkpt><trkpt lat="44.169346696905215" lon="11.54237111218789"><ele>739.0</ele><time>2026-04-18T10:39:15Z</time></trkpt><trkpt lat="44.169285208758005" lon="11.54227537206474"><ele>739.0</ele><time>2026-04-18T10:39:17Z</time></trkpt><trkpt lat="44.16921251124248" lon="11.542213515349433"><ele>739.0</ele><time>2026-04-18T10:39:19Z</time></trkpt><trkpt lat="44.16914655619371" lon="11.542134699690724"><ele>739.0</ele><time>2026-04-18T10:39:21Z</time></trkpt><trkpt lat="44.169084108438064" lon="11.542065313887354"><ele>739.0</ele><time>2026-04-18T10:39:22Z</time></trkpt><trkpt lat="44.16904178970476" lon="11.541938197222912"><ele>739.0</ele><time>2026-04-18T10:39:24Z</time></trkpt><trkpt lat="44.1690297615354" lon="11.541803088957442"><ele>739.0</ele><time>2026-04-18T10:39:26Z</time></trkpt><trkpt lat="44.16902981557844" lon="11.541638941513682"><ele>739.0</ele><time>2026-04-18T10:39:28Z</time></trkpt><trkpt lat="44.1690655405752" lon="11.541476852011767"><ele>738.8000000000001</ele><time>2026-04-18T10:39:30Z</time></trkpt><trkpt lat="44.16912305162798" lon="11.54131799824871"><ele>738.6</ele><time>2026-04-18T10:39:32Z</time></trkpt><trkpt lat="44.16914772873454" lon="11.541224222318048"><ele>738.4</ele><time>2026-04-18T10:39:33Z</time></trkpt><trkpt lat="44.169186454255644" lon="11.541054526028601"><ele>738.2</ele><time>2026-04-18T10:39:35Z</time></trkpt><trkpt lat="44.16920001283333" lon="11.540952525743238"><ele>738.0</ele><time>2026-04-18T10:39:36Z</time></trkpt><trkpt lat="44.16921782371982" lon="11.540846451296183"><ele>736.5</ele><time>2026-04-18T10:39:37Z</time></trkpt><trkpt lat="44.16923243399469" lon="11.540732378642117"><ele>735.0</ele><time>2026-04-18T10:39:38Z</time></trkpt><trkpt lat="44.16924227438325" lon="11.540618631428066"><ele>733.5</ele><time>2026-04-18T10:39:39Z</time></trkpt><trkpt lat="44.16923038118537" lon="11.540500686825581"><ele>732.0</ele><time>2026-04-18T10:39:40Z</time></trkpt><trkpt lat="44.1691903483562" lon="11.540415334237116"><ele>730.5</ele><time>2026-04-18T10:39:41Z</time></trkpt><trkpt lat="44.16911829570706" lon="11.540358616262123"><ele>729.0</ele><time>2026-04-18T10:39:42Z</time></trkpt><trkpt lat="44.16903375466305" lon="11.540348227098475"><ele>729.3333333333334</ele><time>2026-04-18T10:39:43Z</time></trkpt><trkpt lat="44.168947434209905" lon="11.540328344941395"><ele>729.6666666666666</ele><time>2026-04-18T10:39:44Z</time></trkpt><trkpt lat="44.168871021724776" lon="11.540283920503143"><ele>730.0</ele><time>2026-04-18T10:39:45Z</time></trkpt><trkpt lat="44.16878544983692" lon="11.540222670919276"><ele>730.3333333333333</ele><time>2026-04-18T10:39:46Z</time></trkpt><trkpt lat="44.168707263714374" lon="11.540146937221378"><ele>730.6666666666666</ele><time>2026-04-18T10:39:47Z</time></trkpt><trkpt lat="44.16865338886019" lon="11.540063821121331"><ele>731.0</ele><time>2026-04-18T10:39:48Z</time></trkpt><trkpt lat="44.16859476191508" lon="11.539955567160808"><ele>731.0</ele><time>2026-04-18T10:39:49Z</time></trkpt><trkpt lat="44.16854725307114" lon="11.539852808200054"><ele>731.0</ele><time>2026-04-18T10:39:50Z</time></trkpt><trkpt lat="44.16848935565945" lon="11.53978848275142"><ele>731.0</ele><time>2026-04-18T10:39:51Z</time></trkpt><trkpt lat="44.16840094123607" lon="11.5396949025725"><ele>731.0</ele><time>2026-04-18T10:39:52Z</time></trkpt><trkpt lat="44.16831930246039" lon="11.539616056039462"><ele>731.0</ele><time>2026-04-18T10:39:53Z</time></trkpt><trkpt lat="44.16825458814344" lon="11.539537346250762"><ele>736.1666666666666</ele><time>2026-04-18T10:39:54Z</time></trkpt><trkpt lat="44.168190110702014" lon="11.539459397732502"><ele>741.3333333333333</ele><time>2026-04-18T10:39:55Z</time></trkpt><trkpt lat="44.168126192223205" lon="11.539386682430457"><ele>746.5</ele><time>2026-04-18T10:39:56Z</time></trkpt><trkpt lat="44.16805478213886" lon="11.539306491191919"><ele>751.6666666666666</ele><time>2026-04-18T10:39:57Z</time></trkpt><trkpt lat="44.16798524829705" lon="11.539226245930587"><ele>756.8333333333334</ele><time>2026-04-18T10:39:58Z</time></trkpt><trkpt lat="44.16793744849186" lon="11.539138880365988"><ele>762.0</ele><time>2026-04-18T10:39:59Z</time></trkpt><trkpt lat="44.167907854124074" lon="11.5390461001838"><ele>762.0</ele><time>2026-04-18T10:40:00Z</time></trkpt><trkpt lat="44.16788725183571" lon="11.53895469785058"><ele>762.0</ele><time>2026-04-18T10:40:01Z</time></trkpt><trkpt lat="44.16786781457538" lon="11.538817315879054"><ele>762.0</ele><time>2026-04-18T10:40:03Z</time></trkpt><trkpt lat="44.16789816803758" lon="11.538680975105837"><ele>762.0</ele><time>2026-04-18T10:40:05Z</time></trkpt><trkpt lat="44.167939617264096" lon="11.538533058500393"><ele>762.0</ele><time>2026-04-18T10:40:07Z</time></trkpt><trkpt lat="44.16797820938311" lon="11.538395994761443"><ele>761.0</ele><time>2026-04-18T10:40:09Z</time></trkpt><trkpt lat="44.16800861593595" lon="11.538266696492961"><ele>760.0</ele><time>2026-04-18T10:40:11Z</time></trkpt><trkpt lat="44.16805759947647" lon="11.538200435416464"><ele>759.0</ele><time>2026-04-18T10:40:12Z</time></trkpt><trkpt lat="44.16808048593693" lon="11.53806872788014"><ele>758.0</ele><time>2026-04-18T10:40:14Z</time></trkpt><trkpt lat="44.16810408928311" lon="11.537913081551222"><ele>757.0</ele><time>2026-04-18T10:40:16Z</time></trkpt><trkpt lat="44.16812537561442" lon="11.537763272976465"><ele>757.0</ele><time>2026-04-18T10:40:18Z</time></trkpt><trkpt lat="44.168127880481514" lon="11.537616921050565"><ele>757.0</ele><time>2026-04-18T10:40:20Z</time></trkpt><trkpt lat="44.16813664072786" lon="11.537473014138786"><ele>757.0</ele><time>2026-04-18T10:40:22Z</time></trkpt><trkpt lat="44.16809758562941" lon="11.5373555470882"><ele>757.0</ele><time>2026-04-18T10:40:24Z</time></trkpt><trkpt lat="44.16802491815803" lon="11.537256071944421"><ele>757.0</ele><time>2026-04-18T10:40:26Z</time></trkpt><trkpt lat="44.167945222913104" lon="11.537202943794057"><ele>757.0</ele><time>2026-04-18T10:40:28Z</time></trkpt><trkpt lat="44.16788079589224" lon="11.537170805793577"><ele>757.0</ele><time>2026-04-18T10:40:30Z</time></trkpt><trkpt lat="44.16782193530677" lon="11.53712909307113"><ele>757.0</ele><time>2026-04-18T10:40:32Z</time></trkpt><trkpt lat="44.16776677314954" lon="11.53707637340162"><ele>757.0</ele><time>2026-04-18T10:40:34Z</time></trkpt><trkpt lat="44.16769635503352" lon="11.537054155434932"><ele>757.0</ele><time>2026-04-18T10:40:36Z</time></trkpt><trkpt lat="44.167631212155044" lon="11.537037479787429"><ele>757.0</ele><time>2026-04-18T10:40:38Z</time></trkpt><trkpt lat="44.16756660471132" lon="11.537034174183331"><ele>757.0</ele><time>2026-04-18T10:40:40Z</time></trkpt><trkpt lat="44.16750351722416" lon="11.537029842751046"><ele>757.3333333333334</ele><time>2026-04-18T10:40:42Z</time></trkpt><trkpt lat="44.16741789263968" lon="11.537001373435512"><ele>757.6666666666667</ele><time>2026-04-18T10:40:45Z</time></trkpt><trkpt lat="44.16734394031113" lon="11.536971235026796"><ele>758.0</ele><time>2026-04-18T10:40:48Z</time></trkpt><trkpt lat="44.16727258616854" lon="11.536942395984429"><ele>758.3333333333334</ele><time>2026-04-18T10:40:51Z</time></trkpt><trkpt lat="44.16719143296322" lon="11.53692901407469"><ele>758.6666666666666</ele><time>2026-04-18T10:40:54Z</time></trkpt><trkpt lat="44.16710491963765" lon="11.53691729159572"><ele>759.0</ele><time>2026-04-18T10:40:57Z</time></trkpt><trkpt lat="44.167041428761685" lon="11.536916065542211"><ele>759.0</ele><time>2026-04-18T10:40:59Z</time></trkpt><trkpt lat="44.166957321517664" lon="11.536939831067041"><ele>759.0</ele><time>2026-04-18T10:41:02Z</time></trkpt><trkpt lat="44.16687664807376" lon="11.5369444799262"><ele>759.0</ele><time>2026-04-18T10:41:05Z</time></trkpt><trkpt lat="44.166799985695214" lon="11.536893215876532"><ele>759.0</ele><time>2026-04-18T10:41:08Z</time></trkpt><trkpt lat="44.16673620275673" lon="11.536823862346816"><ele>759.0</ele><time>2026-04-18T10:41:11Z</time></trkpt><trkpt lat="44.16668490107032" lon="11.536754478154693"><ele>759.0</ele><time>2026-04-18T10:41:14Z</time></trkpt><trkpt lat="44.16661580184268" lon="11.53666650154032"><ele>759.0</ele><time>2026-04-18T10:41:17Z</time></trkpt><trkpt lat="44.16656460275164" lon="11.536608306525162"><ele>759.0</ele><time>2026-04-18T10:41:19Z</time></trkpt><trkpt lat="44.16651186743622" lon="11.536548935147225"><ele>759.0</ele><time>2026-04-18T10:41:21Z</time></trkpt><trkpt lat="44.166462953728086" lon="11.536491523588337"><ele>759.0</ele><time>2026-04-18T10:41:23Z</time></trkpt><trkpt lat="44.166420405049216" lon="11.536422394947337"><ele>759.0</ele><time>2026-04-18T10:41:25Z</time></trkpt><trkpt lat="44.16636248755132" lon="11.536323038231"><ele>759.0</ele><time>2026-04-18T10:41:28Z</time></trkpt><trkpt lat="44.16631646711854" lon="11.536246978638234"><ele>759.0</ele><time>2026-04-18T10:41:30Z</time></trkpt><trkpt lat="44.16626273121146" lon="11.536185708823458"><ele>756.3333333333334</ele><time>2026-04-18T10:41:32Z</time></trkpt><trkpt lat="44.16620507998111" lon="11.536127217114961"><ele>753.6666666666666</ele><time>2026-04-18T10:41:34Z</time></trkpt><trkpt lat="44.16614634704444" lon="11.536066110998155"><ele>751.0</ele><time>2026-04-18T10:41:36Z</time></trkpt><trkpt lat="44.166100665970454" lon="11.5359822755498"><ele>748.3333333333333</ele><time>2026-04-18T10:41:38Z</time></trkpt><trkpt lat="44.16610966999482" lon="11.535860240094685"><ele>745.6666666666666</ele><time>2026-04-18T10:41:40Z</time></trkpt><trkpt lat="44.16614477138279" lon="11.53575937110556"><ele>743.0</ele><time>2026-04-18T10:41:42Z</time></trkpt><trkpt lat="44.16620167267557" lon="11.535661761201984"><ele>743.0</ele><time>2026-04-18T10:41:44Z</time></trkpt><trkpt lat="44.16625547966651" lon="11.535563269152522"><ele>743.0</ele><time>2026-04-18T10:41:46Z</time></trkpt><trkpt lat="44.16628972672697" lon="11.535435677700995"><ele>743.0</ele><time>2026-04-18T10:41:48Z</time></trkpt><trkpt lat="44.16630646582066" lon="11.53528811839755"><ele>743.0</ele><time>2026-04-18T10:41:50Z</time></trkpt><trkpt lat="44.16629663986947" lon="11.53513213313118"><ele>743.0</ele><time>2026-04-18T10:41:52Z</time></trkpt><trkpt lat="44.166284654598876" lon="11.534987632740217"><ele>744.4</ele><time>2026-04-18T10:41:54Z</time></trkpt><trkpt lat="44.16619804794608" lon="11.534884294610563"><ele>745.8</ele><time>2026-04-18T10:41:56Z</time></trkpt><trkpt lat="44.16609258973885" lon="11.534852960392998"><ele>747.2</ele><time>2026-04-18T10:41:58Z</time></trkpt><trkpt lat="44.1660077508516" lon="11.534793497441868"><ele>748.6</ele><time>2026-04-18T10:42:00Z</time></trkpt><trkpt lat="44.16592156543596" lon="11.534706802854249"><ele>750.0</ele><time>2026-04-18T10:42:02Z</time></trkpt><trkpt lat="44.165836115387776" lon="11.534610834223725"><ele>750.0</ele><time>2026-04-18T10:42:04Z</time></trkpt><trkpt lat="44.16574664964471" lon="11.534518826283854"><ele>750.0</ele><time>2026-04-18T10:42:06Z</time></trkpt><trkpt lat="44.16564212286587" lon="11.534460264719543"><ele>750.0</ele><time>2026-04-18T10:42:08Z</time></trkpt><trkpt lat="44.16553766846134" lon="11.534436655106706"><ele>750.0</ele><time>2026-04-18T10:42:10Z</time></trkpt><trkpt lat="44.16544008496485" lon="11.53439929500585"><ele>750.0</ele><time>2026-04-18T10:42:12Z</time></trkpt><trkpt lat="44.16535487201759" lon="11.53432361850601"><ele>748.8</ele><time>2026-04-18T10:42:14Z</time></trkpt><trkpt lat="44.165305657617765" lon="11.5342032406498"><ele>747.6</ele><time>2026-04-18T10:42:16Z</time></trkpt><trkpt lat="44.165300561836034" lon="11.534068040712613"><ele>746.4000000000001</ele><time>2026-04-18T10:42:18Z</time></trkpt><trkpt lat="44.16529115743093" lon="11.533912528831797"><ele>745.2</ele><time>2026-04-18T10:42:20Z</time></trkpt><trkpt lat="44.16524465424561" lon="11.533771624737367"><ele>744.0</ele><time>2026-04-18T10:42:22Z</time></trkpt><trkpt lat="44.16516519911666" lon="11.53366185379497"><ele>746.0</ele><time>2026-04-18T10:42:24Z</time></trkpt><trkpt lat="44.16508704512195" lon="11.533551982608632"><ele>748.0</ele><time>2026-04-18T10:42:26Z</time></trkpt><trkpt lat="44.164995982565415" lon="11.533458159870726"><ele>750.0</ele><time>2026-04-18T10:42:28Z</time></trkpt><trkpt lat="44.164894564692084" lon="11.533396173179584"><ele>752.0</ele><time>2026-04-18T10:42:30Z</time></trkpt><trkpt lat="44.16479712203633" lon="11.533343603779986"><ele>754.0</ele><time>2026-04-18T10:42:32Z</time></trkpt><trkpt lat="44.1647066442363" lon="11.53330525699009"><ele>754.0</ele><time>2026-04-18T10:42:34Z</time></trkpt><trkpt lat="44.164616452004324" lon="11.533254911354874"><ele>754.0</ele><time>2026-04-18T10:42:36Z</time></trkpt><trkpt lat="44.16453330069482" lon="11.533201217793485"><ele>754.0</ele><time>2026-04-18T10:42:38Z</time></trkpt><trkpt lat="44.16445954525346" lon="11.533136789729905"><ele>754.0</ele><time>2026-04-18T10:42:40Z</time></trkpt><trkpt lat="44.16438990736807" lon="11.533067570796486"><ele>754.0</ele><time>2026-04-18T10:42:42Z</time></trkpt><trkpt lat="44.16433785509704" lon="11.5329915902092"><ele>754.0</ele><time>2026-04-18T10:42:44Z</time></trkpt><trkpt lat="44.16428587627798" lon="11.532933769406215"><ele>752.3333333333334</ele><time>2026-04-18T10:42:46Z</time></trkpt><trkpt lat="44.16423068220555" lon="11.532862295344032"><ele>750.6666666666667</ele><time>2026-04-18T10:42:48Z</time></trkpt><trkpt lat="44.16415606550751" lon="11.532791938444612"><ele>749.0</ele><time>2026-04-18T10:42:50Z</time></trkpt><trkpt lat="44.16406549209801" lon="11.53274192127574"><ele>747.3333333333334</ele><time>2026-04-18T10:42:53Z</time></trkpt><trkpt lat="44.16399844545719" lon="11.5327096134625"><ele>745.6666666666666</ele><time>2026-04-18T10:42:55Z</time></trkpt><trkpt lat="44.16391906374686" lon="11.532635452510405"><ele>744.0</ele><time>2026-04-18T10:42:57Z</time></trkpt><trkpt lat="44.16389510756829" lon="11.532530816001678"><ele>744.0</ele><time>2026-04-18T10:42:59Z</time></trkpt><trkpt lat="44.16391275837037" lon="11.532410287639193"><ele>744.0</ele><time>2026-04-18T10:43:01Z</time></trkpt><trkpt lat="44.16396404933866" lon="11.532304596572745"><ele>744.0</ele><time>2026-04-18T10:43:03Z</time></trkpt><trkpt lat="44.16403028855358" lon="11.532193160775003"><ele>744.0</ele><time>2026-04-18T10:43:05Z</time></trkpt><trkpt lat="44.164054173755254" lon="11.53209809828451"><ele>744.0</ele><time>2026-04-18T10:43:06Z</time></trkpt><trkpt lat="44.164063277545154" lon="11.531926078580353"><ele>743.3333333333334</ele><time>2026-04-18T10:43:08Z</time></trkpt><trkpt lat="44.16406821314664" lon="11.531827054025145"><ele>742.6666666666666</ele><time>2026-04-18T10:43:09Z</time></trkpt><trkpt lat="44.16407163374076" lon="11.531734448368812"><ele>742.0</ele><time>2026-04-18T10:43:10Z</time></trkpt><trkpt lat="44.16405531994148" lon="11.531553981195708"><ele>741.3333333333333</ele><time>2026-04-18T10:43:12Z</time></trkpt><trkpt lat="44.16404478135448" lon="11.531457877095912"><ele>740.6666666666666</ele><time>2026-04-18T10:43:13Z</time></trkpt><trkpt lat="44.16403727169726" lon="11.531349777558622"><ele>740.0</ele><time>2026-04-18T10:43:14Z</time></trkpt><trkpt lat="44.16402744074958" lon="11.531238739711403"><ele>741.3333333333333</ele><time>2026-04-18T10:43:15Z</time></trkpt><trkpt lat="44.16401725938047" lon="11.531143958806085"><ele>742.6666666666666</ele><time>2026-04-18T10:43:16Z</time></trkpt><trkpt lat="44.16399360564306" lon="11.531060854857365"><ele>744.0</ele><time>2026-04-18T10:43:17Z</time></trkpt><trkpt lat="44.1639279565965" lon="11.530940861408526"><ele>745.3333333333334</ele><time>2026-04-18T10:43:19Z</time></trkpt><trkpt lat="44.16387804550198" lon="11.53085198330987"><ele>746.6666666666667</ele><time>2026-04-18T10:43:21Z</time></trkpt><trkpt lat="44.16382448981179" lon="11.530760164635144"><ele>748.0</ele><time>2026-04-18T10:43:23Z</time></trkpt><trkpt lat="44.16377050238866" lon="11.530666112449515"><ele>748.0</ele><time>2026-04-18T10:43:25Z</time></trkpt><trkpt lat="44.16371004201299" lon="11.530590713910996"><ele>748.0</ele><time>2026-04-18T10:43:27Z</time></trkpt><trkpt lat="44.16364675570064" lon="11.53052427925524"><ele>748.0</ele><time>2026-04-18T10:43:29Z</time></trkpt><trkpt lat="44.16359275821838" lon="11.530446306547468"><ele>748.0</ele><time>2026-04-18T10:43:31Z</time></trkpt><trkpt lat="44.16354329834777" lon="11.530350147018364"><ele>748.0</ele><time>2026-04-18T10:43:33Z</time></trkpt><trkpt lat="44.16352680140816" lon="11.5302472453562"><ele>748.0</ele><time>2026-04-18T10:43:35Z</time></trkpt><trkpt lat="44.16351317094515" lon="11.530144537747269"><ele>751.3333333333334</ele><time>2026-04-18T10:43:37Z</time></trkpt><trkpt lat="44.16351076389974" lon="11.530055027534479"><ele>754.6666666666667</ele><time>2026-04-18T10:43:39Z</time></trkpt><trkpt lat="44.16350545825168" lon="11.52993922735651"><ele>758.0</ele><time>2026-04-18T10:43:42Z</time></trkpt><trkpt lat="44.16357111869109" lon="11.529958510627377"><ele>761.3333333333334</ele><time>2026-04-18T10:43:45Z</time></trkpt><trkpt lat="44.163578777620025" lon="11.5300771668712"><ele>764.6666666666666</ele><time>2026-04-18T10:43:48Z</time></trkpt><trkpt lat="44.16363875175088" lon="11.53014386036631"><ele>768.0</ele><time>2026-04-18T10:43:51Z</time></trkpt><trkpt lat="44.16369380107918" lon="11.530216927112578"><ele>767.9999999999999</ele><time>2026-04-18T10:43:54Z</time></trkpt><trkpt lat="44.163747117141746" lon="11.530276120333033"><ele>768.0</ele><time>2026-04-18T10:43:57Z</time></trkpt><trkpt lat="44.1638181749076" lon="11.530267667226328"><ele>768.0</ele><time>2026-04-18T10:44:00Z</time></trkpt><trkpt lat="44.16389014938151" lon="11.530280747832851"><ele>768.0</ele><time>2026-04-18T10:44:04Z</time></trkpt><trkpt lat="44.16390637454614" lon="11.530176986478864"><ele>768.0</ele><time>2026-04-18T10:44:08Z</time></trkpt><trkpt lat="44.163925831805486" lon="11.530083239164005"><ele>767.9999999999999</ele><time>2026-04-18T10:44:11Z</time></trkpt><trkpt lat="44.163942078223535" lon="11.529965695722751"><ele>768.0</ele><time>2026-04-18T10:44:14Z</time></trkpt><trkpt lat="44.1639556245255" lon="11.529853271662574"><ele>768.0</ele><time>2026-04-18T10:44:17Z</time></trkpt><trkpt lat="44.163982757476305" lon="11.529736473846302"><ele>768.0</ele><time>2026-04-18T10:44:20Z</time></trkpt><trkpt lat="44.16403598487412" lon="11.529632710695827"><ele>768.0</ele><time>2026-04-18T10:44:23Z</time></trkpt><trkpt lat="44.16406786089901" lon="11.529546587660866"><ele>768.0</ele><time>2026-04-18T10:44:25Z</time></trkpt><trkpt lat="44.164117373829285" lon="11.529468850001466"><ele>768.0</ele><time>2026-04-18T10:44:27Z</time></trkpt><trkpt lat="44.16416324609134" lon="11.529375805403888"><ele>768.0</ele><time>2026-04-18T10:44:29Z</time></trkpt><trkpt lat="44.16421198183727" lon="11.529293956192813"><ele>773.1666666666666</ele><time>2026-04-18T10:44:31Z</time></trkpt><trkpt lat="44.164256802223996" lon="11.529230699153494"><ele>778.3333333333333</ele><time>2026-04-18T10:44:33Z</time></trkpt><trkpt lat="44.1642902757698" lon="11.529138830002951"><ele>783.5</ele><time>2026-04-18T10:44:35Z</time></trkpt><trkpt lat="44.16432438802078" lon="11.529024274279156"><ele>788.6666666666666</ele><time>2026-04-18T10:44:37Z</time></trkpt><trkpt lat="44.16433026783973" lon="11.528924643222162"><ele>793.8333333333333</ele><time>2026-04-18T10:44:39Z</time></trkpt><trkpt lat="44.164363513556424" lon="11.528780108250643"><ele>799.0</ele><time>2026-04-18T10:44:41Z</time></trkpt><trkpt lat="44.16440410856423" lon="11.528623730492303"><ele>801.8000000000001</ele><time>2026-04-18T10:44:43Z</time></trkpt><trkpt lat="44.16447018049948" lon="11.528504420579154"><ele>804.6</ele><time>2026-04-18T10:44:45Z</time></trkpt><trkpt lat="44.164557092540434" lon="11.528433989950024"><ele>807.4</ele><time>2026-04-18T10:44:47Z</time></trkpt><trkpt lat="44.16464521227159" lon="11.528354414828334"><ele>810.2</ele><time>2026-04-18T10:44:49Z</time></trkpt><trkpt lat="44.16474687988593" lon="11.528268652883062"><ele>813.0</ele><time>2026-04-18T10:44:51Z</time></trkpt><trkpt lat="44.16482270651896" lon="11.528164614066917"><ele>806.5</ele><time>2026-04-18T10:44:53Z</time></trkpt><trkpt lat="44.164909191835825" lon="11.52803587096778"><ele>800.0</ele><time>2026-04-18T10:44:55Z</time></trkpt><trkpt lat="44.16501205319056" lon="11.527977879762366"><ele>793.5</ele><time>2026-04-18T10:44:57Z</time></trkpt><trkpt lat="44.16511461540584" lon="11.527909123928925"><ele>787.0</ele><time>2026-04-18T10:44:59Z</time></trkpt><trkpt lat="44.165235908939884" lon="11.527906184308502"><ele>788.0</ele><time>2026-04-18T10:45:01Z</time></trkpt><trkpt lat="44.16530298354375" lon="11.527810888255631"><ele>789.0</ele><time>2026-04-18T10:45:03Z</time></trkpt><trkpt lat="44.165285450436656" lon="11.527672358371776"><ele>790.0</ele><time>2026-04-18T10:45:05Z</time></trkpt><trkpt lat="44.16522730591127" lon="11.527552646563038"><ele>791.0</ele><time>2026-04-18T10:45:07Z</time></trkpt><trkpt lat="44.165142671371456" lon="11.52745428640189"><ele>792.0</ele><time>2026-04-18T10:45:09Z</time></trkpt><trkpt lat="44.165084900835694" lon="11.527410870880342"><ele>792.0</ele><time>2026-04-18T10:45:11Z</time></trkpt><trkpt lat="44.16502512508089" lon="11.527362885263924"><ele>792.0</ele><time>2026-04-18T10:45:13Z</time></trkpt><trkpt lat="44.16496384964566" lon="11.527291404559502"><ele>792.0</ele><time>2026-04-18T10:45:16Z</time></trkpt><trkpt lat="44.16488288145687" lon="11.527218844712932"><ele>792.0</ele><time>2026-04-18T10:45:18Z</time></trkpt><trkpt lat="44.16479390426918" lon="11.527161515153715"><ele>792.0</ele><time>2026-04-18T10:45:20Z</time></trkpt><trkpt lat="44.164700468704226" lon="11.527062001375311"><ele>789.8333333333334</ele><time>2026-04-18T10:45:22Z</time></trkpt><trkpt lat="44.164618650377335" lon="11.52698390714083"><ele>787.6666666666667</ele><time>2026-04-18T10:45:24Z</time></trkpt><trkpt lat="44.164537158694806" lon="11.526918873503394"><ele>785.5</ele><time>2026-04-18T10:45:26Z</time></trkpt><trkpt lat="44.16446445477668" lon="11.526870463885972"><ele>783.3333333333334</ele><time>2026-04-18T10:45:29Z</time></trkpt><trkpt lat="44.16439477053046" lon="11.526852680639688"><ele>781.1666666666667</ele><time>2026-04-18T10:45:32Z</time></trkpt><trkpt lat="44.16432670349281" lon="11.526800714478908"><ele>779.0</ele><time>2026-04-18T10:45:35Z</time></trkpt><trkpt lat="44.16426156290444" lon="11.526770934519744"><ele>779.0000000000001</ele><time>2026-04-18T10:45:36Z</time></trkpt><trkpt lat="44.16418294586216" lon="11.526735249115921"><ele>779.0</ele><time>2026-04-18T10:45:37Z</time></trkpt><trkpt lat="44.164114791219276" lon="11.526704694344508"><ele>779.0</ele><time>2026-04-18T10:45:38Z</time></trkpt><trkpt lat="44.164022637319405" lon="11.526663380355025"><ele>779.0</ele><time>2026-04-18T10:45:41Z</time></trkpt><trkpt lat="44.163938444730555" lon="11.526625635538755"><ele>779.0000000000001</ele><time>2026-04-18T10:45:42.999Z</time></trkpt><trkpt lat="44.16385751699662" lon="11.526589665120996"><ele>779.0</ele><time>2026-04-18T10:45:44.999Z</time></trkpt><trkpt lat="44.163790359985654" lon="11.526564393210093"><ele>780.4000000000001</ele><time>2026-04-18T10:45:46.999Z</time></trkpt><trkpt lat="44.16369862754659" lon="11.526529873291075"><ele>781.8</ele><time>2026-04-18T10:45:48.999Z</time></trkpt><trkpt lat="44.16357839309973" lon="11.526484627774838"><ele>783.2</ele><time>2026-04-18T10:45:50.999Z</time></trkpt><trkpt lat="44.163475516699336" lon="11.526443478501726"><ele>784.5999999999999</ele><time>2026-04-18T10:45:52.999Z</time></trkpt><trkpt lat="44.16339660239777" lon="11.526409832666191"><ele>786.0</ele><time>2026-04-18T10:45:54.999Z</time></trkpt><trkpt lat="44.16333191369329" lon="11.526380993685688"><ele>786.0000000000001</ele><time>2026-04-18T10:45:56.999Z</time></trkpt><trkpt lat="44.16326687454992" lon="11.526351077058113"><ele>786.0</ele><time>2026-04-18T10:45:58.999Z</time></trkpt><trkpt lat="44.163205352215506" lon="11.526322778035878"><ele>786.0</ele><time>2026-04-18T10:46:01.999Z</time></trkpt><trkpt lat="44.163122788463994" lon="11.526283194144343"><ele>786.0</ele><time>2026-04-18T10:46:03.999Z</time></trkpt><trkpt lat="44.16306356625143" lon="11.52623916960898"><ele>786.0</ele><time>2026-04-18T10:46:08Z</time></trkpt><trkpt lat="44.16300849136746" lon="11.526196328510306"><ele>786.0000000000001</ele><time>2026-04-18T10:46:10Z</time></trkpt><trkpt lat="44.162937521005034" lon="11.526153999838302"><ele>786.0</ele><time>2026-04-18T10:46:12Z</time></trkpt><trkpt lat="44.16286671080288" lon="11.526093730283886"><ele>785.5</ele><time>2026-04-18T10:46:14Z</time></trkpt><trkpt lat="44.16280277570932" lon="11.526092408314565"><ele>785.0</ele><time>2026-04-18T10:46:16Z</time></trkpt><trkpt lat="44.1627896584457" lon="11.525948469330546"><ele>784.5</ele><time>2026-04-18T10:46:19Z</time></trkpt><trkpt lat="44.1627383312797" lon="11.525796117231582"><ele>784.0</ele><time>2026-04-18T10:46:21Z</time></trkpt><trkpt lat="44.16272136139527" lon="11.525687833319259"><ele>783.5</ele><time>2026-04-18T10:46:23Z</time></trkpt><trkpt lat="44.162728698913305" lon="11.525587889378004"><ele>783.0</ele><time>2026-04-18T10:46:25Z</time></trkpt><trkpt lat="44.16268978677485" lon="11.52551701148076"><ele>783.0</ele><time>2026-04-18T10:46:28Z</time></trkpt><trkpt lat="44.1626835134692" lon="11.525604719598096"><ele>783.0</ele><time>2026-04-18T10:46:32Z</time></trkpt><trkpt lat="44.162671227174165" lon="11.525706325033724"><ele>783.0</ele><time>2026-04-18T10:46:35Z</time></trkpt><trkpt lat="44.16267904177583" lon="11.525793584207156"><ele>783.0</ele><time>2026-04-18T10:46:37Z</time></trkpt><trkpt lat="44.16268978398484" lon="11.52590384782161"><ele>783.0</ele><time>2026-04-18T10:46:39Z</time></trkpt><trkpt lat="44.16269224779159" lon="11.5260028553788"><ele>783.0</ele><time>2026-04-18T10:46:43Z</time></trkpt><trkpt lat="44.162634181149336" lon="11.525966135042811"><ele>783.0</ele><time>2026-04-18T10:46:53Z</time></trkpt><trkpt lat="44.162601401174484" lon="11.525875565089638"><ele>783.0</ele><time>2026-04-18T10:46:58Z</time></trkpt><trkpt lat="44.16257660827324" lon="11.525789593878125"><ele>783.0</ele><time>2026-04-18T10:47:03Z</time></trkpt><trkpt lat="44.162530706209594" lon="11.525712859748111"><ele>783.0</ele><time>2026-04-18T10:47:06Z</time></trkpt><trkpt lat="44.16248872188971" lon="11.525638401401922"><ele>783.0</ele><time>2026-04-18T10:47:08Z</time></trkpt><trkpt lat="44.16243831706478" lon="11.525538204698208"><ele>783.0</ele><time>2026-04-18T10:47:11Z</time></trkpt><trkpt lat="44.16237645335491" lon="11.525444041574941"><ele>783.0</ele><time>2026-04-18T10:47:13Z</time></trkpt><trkpt lat="44.16230078264933" lon="11.525356297795039"><ele>781.0</ele><time>2026-04-18T10:47:15Z</time></trkpt><trkpt lat="44.16221613943801" lon="11.525261512704285"><ele>779.0</ele><time>2026-04-18T10:47:17Z</time></trkpt><trkpt lat="44.16210058263338" lon="11.525259184930775"><ele>777.0</ele><time>2026-04-18T10:47:19Z</time></trkpt><trkpt lat="44.16201523835211" lon="11.52518783978283"><ele>775.0</ele><time>2026-04-18T10:47:21Z</time></trkpt><trkpt lat="44.16196094256017" lon="11.525122168125769"><ele>773.0</ele><time>2026-04-18T10:47:23Z</time></trkpt><trkpt lat="44.16183830138291" lon="11.525088731086324"><ele>773.0</ele><time>2026-04-18T10:47:25Z</time></trkpt><trkpt lat="44.1617487495796" lon="11.525005304947946"><ele>773.0</ele><time>2026-04-18T10:47:27Z</time></trkpt><trkpt lat="44.161662314545765" lon="11.524970424587968"><ele>773.0</ele><time>2026-04-18T10:47:29Z</time></trkpt><trkpt lat="44.16155994871423" lon="11.524878148518278"><ele>773.0</ele><time>2026-04-18T10:47:31Z</time></trkpt><trkpt lat="44.161453695718286" lon="11.524834894947514"><ele>773.0</ele><time>2026-04-18T10:47:33Z</time></trkpt><trkpt lat="44.16134437407644" lon="11.52475736403533"><ele>774.3333333333334</ele><time>2026-04-18T10:47:35Z</time></trkpt><trkpt lat="44.16128055258947" lon="11.524730030667834"><ele>775.6666666666667</ele><time>2026-04-18T10:47:37Z</time></trkpt><trkpt lat="44.16124279808763" lon="11.52464383238338"><ele>777.0</ele><time>2026-04-18T10:47:39Z</time></trkpt><trkpt lat="44.161170922936485" lon="11.52458824639762"><ele>778.3333333333333</ele><time>2026-04-18T10:47:41Z</time></trkpt><trkpt lat="44.161069369593505" lon="11.524574586329601"><ele>779.6666666666666</ele><time>2026-04-18T10:47:43Z</time></trkpt><trkpt lat="44.16100154330252" lon="11.524525464556845"><ele>781.0</ele><time>2026-04-18T10:47:46Z</time></trkpt><trkpt lat="44.16095180023509" lon="11.524463508866928"><ele>780.9999999999999</ele><time>2026-04-18T10:47:48Z</time></trkpt><trkpt lat="44.160881085725855" lon="11.524327050783478"><ele>781.0</ele><time>2026-04-18T10:47:52.999Z</time></trkpt><trkpt lat="44.16086053350015" lon="11.524238279286797"><ele>781.0</ele><time>2026-04-18T10:47:54.999Z</time></trkpt><trkpt lat="44.16085207118403" lon="11.524146498280512"><ele>781.0</ele><time>2026-04-18T10:47:56.999Z</time></trkpt><trkpt lat="44.16085383410295" lon="11.524045518571583"><ele>780.9999999999999</ele><time>2026-04-18T10:48:11Z</time></trkpt><trkpt lat="44.16083450063218" lon="11.523952962309835"><ele>781.0</ele><time>2026-04-18T10:48:21Z</time></trkpt><trkpt lat="44.16085209478085" lon="11.523866410521073"><ele>781.0</ele><time>2026-04-18T10:48:24Z</time></trkpt><trkpt lat="44.16086384440997" lon="11.523767177713523"><ele>781.0</ele><time>2026-04-18T10:48:30Z</time></trkpt><trkpt lat="44.16090898492093" lon="11.523699675618571"><ele>781.0</ele><time>2026-04-18T10:48:37Z</time></trkpt><trkpt lat="44.16093705874336" lon="11.523600464356077"><ele>781.0</ele><time>2026-04-18T10:48:42Z</time></trkpt><trkpt lat="44.16097676909449" lon="11.523518096280187"><ele>781.0</ele><time>2026-04-18T10:49:06Z</time></trkpt><trkpt lat="44.1610288273836" lon="11.523466123684283"><ele>781.0</ele><time>2026-04-18T10:49:11Z</time></trkpt><trkpt lat="44.16109114257114" lon="11.52344514201851"><ele>781.0</ele><time>2026-04-18T10:49:14Z</time></trkpt><trkpt lat="44.16116901631396" lon="11.52341114121335"><ele>783.9999999999999</ele><time>2026-04-18T10:49:17Z</time></trkpt><trkpt lat="44.16124955324436" lon="11.523377932925861"><ele>787.0</ele><time>2026-04-18T10:49:20Z</time></trkpt><trkpt lat="44.16131523538458" lon="11.523347645578404"><ele>790.0</ele><time>2026-04-18T10:49:22Z</time></trkpt><trkpt lat="44.16137984862532" lon="11.523282327435567"><ele>793.0</ele><time>2026-04-18T10:49:25Z</time></trkpt><trkpt lat="44.16143139641068" lon="11.523174771909158"><ele>795.9999999999999</ele><time>2026-04-18T10:49:28Z</time></trkpt><trkpt lat="44.16145310599981" lon="11.523062568885543"><ele>799.0</ele><time>2026-04-18T10:49:31Z</time></trkpt><trkpt lat="44.16148670413796" lon="11.522960132843002"><ele>800.0</ele><time>2026-04-18T10:49:34Z</time></trkpt><trkpt lat="44.16152276485372" lon="11.522887217609409"><ele>801.0</ele><time>2026-04-18T10:49:36Z</time></trkpt><trkpt lat="44.16158055408119" lon="11.522838762643579"><ele>802.0</ele><time>2026-04-18T10:49:38Z</time></trkpt><trkpt lat="44.16166041374061" lon="11.522779025717265"><ele>803.0</ele><time>2026-04-18T10:49:41Z</time></trkpt><trkpt lat="44.161728548340164" lon="11.522735733025385"><ele>804.0</ele><time>2026-04-18T10:49:43Z</time></trkpt><trkpt lat="44.16178325042335" lon="11.522691094016178"><ele>805.0</ele><time>2026-04-18T10:49:45Z</time></trkpt><trkpt lat="44.16182889744397" lon="11.522621191435961"><ele>806.0</ele><time>2026-04-18T10:49:47Z</time></trkpt><trkpt lat="44.161896444881506" lon="11.522549633007475"><ele>803.6666666666667</ele><time>2026-04-18T10:49:49Z</time></trkpt><trkpt lat="44.16198086211276" lon="11.52250954296071"><ele>801.3333333333334</ele><time>2026-04-18T10:49:51Z</time></trkpt><trkpt lat="44.162042559755996" lon="11.522447137618872"><ele>799.0</ele><time>2026-04-18T10:49:53Z</time></trkpt><trkpt lat="44.162107556812394" lon="11.522477728744763"><ele>796.6666666666667</ele><time>2026-04-18T10:49:54Z</time></trkpt><trkpt lat="44.162196149337596" lon="11.52251130775797"><ele>794.3333333333334</ele><time>2026-04-18T10:49:56Z</time></trkpt><trkpt lat="44.162271302308554" lon="11.522521874190446"><ele>792.0</ele><time>2026-04-18T10:49:58Z</time></trkpt><trkpt lat="44.16234308741893" lon="11.522508024559805"><ele>790.4000000000001</ele><time>2026-04-18T10:50:00Z</time></trkpt><trkpt lat="44.16243584740875" lon="11.52254179586766"><ele>788.8000000000001</ele><time>2026-04-18T10:50:02Z</time></trkpt><trkpt lat="44.16251304317582" lon="11.522507937658512"><ele>787.2</ele><time>2026-04-18T10:50:04Z</time></trkpt><trkpt lat="44.162586060138615" lon="11.52241457075053"><ele>785.6</ele><time>2026-04-18T10:50:06Z</time></trkpt><trkpt lat="44.16263775228391" lon="11.52230866191701"><ele>784.0</ele><time>2026-04-18T10:50:08Z</time></trkpt><trkpt lat="44.16269270493694" lon="11.522192022773568"><ele>784.0</ele><time>2026-04-18T10:50:10Z</time></trkpt><trkpt lat="44.16278763209123" lon="11.522119809120898"><ele>784.0</ele><time>2026-04-18T10:50:12Z</time></trkpt><trkpt lat="44.1628784222816" lon="11.522036886965902"><ele>784.0</ele><time>2026-04-18T10:50:14Z</time></trkpt><trkpt lat="44.16296776933215" lon="11.521995856650761"><ele>784.0</ele><time>2026-04-18T10:50:16Z</time></trkpt><trkpt lat="44.16303612815134" lon="11.5218973481439"><ele>784.0</ele><time>2026-04-18T10:50:19Z</time></trkpt><trkpt lat="44.16309009879412" lon="11.521850547818726"><ele>784.3333333333333</ele><time>2026-04-18T10:50:21Z</time></trkpt><trkpt lat="44.16317520095666" lon="11.521786089731222"><ele>784.6666666666666</ele><time>2026-04-18T10:50:24Z</time></trkpt><trkpt lat="44.16326279853524" lon="11.521775008384111"><ele>785.0</ele><time>2026-04-18T10:50:27Z</time></trkpt><trkpt lat="44.163327676366755" lon="11.521752648170109"><ele>785.3333333333333</ele><time>2026-04-18T10:50:30Z</time></trkpt><trkpt lat="44.16341839943456" lon="11.521786381983706"><ele>785.6666666666666</ele><time>2026-04-18T10:50:33Z</time></trkpt><trkpt lat="44.163489194641684" lon="11.521765276549399"><ele>786.0</ele><time>2026-04-18T10:50:36Z</time></trkpt><trkpt lat="44.163578440684866" lon="11.5216931394791"><ele>786.0000000000001</ele><time>2026-04-18T10:50:39Z</time></trkpt><trkpt lat="44.16359627082805" lon="11.521607942213285"><ele>786.0</ele><time>2026-04-18T10:50:40Z</time></trkpt><trkpt lat="44.1635861161186" lon="11.521512809908407"><ele>786.0</ele><time>2026-04-18T10:50:41Z</time></trkpt><trkpt lat="44.163607142582876" lon="11.521410324812"><ele>786.0</ele><time>2026-04-18T10:50:42Z</time></trkpt><trkpt lat="44.163627725949105" lon="11.521312216592465"><ele>786.0</ele><time>2026-04-18T10:50:43Z</time></trkpt><trkpt lat="44.163652252522624" lon="11.521226786026443"><ele>786.0000000000001</ele><time>2026-04-18T10:50:45Z</time></trkpt><trkpt lat="44.163700891718015" lon="11.521142418341393"><ele>786.0</ele><time>2026-04-18T10:50:46Z</time></trkpt><trkpt lat="44.16377457348111" lon="11.521050296334941"><ele>785.5</ele><time>2026-04-18T10:50:48Z</time></trkpt><trkpt lat="44.16380387536099" lon="11.520921496671855"><ele>785.0</ele><time>2026-04-18T10:50:50Z</time></trkpt><trkpt lat="44.16383940771973" lon="11.520822744157163"><ele>784.5</ele><time>2026-04-18T10:50:51Z</time></trkpt><trkpt lat="44.16390221598605" lon="11.52075225298731"><ele>784.0</ele><time>2026-04-18T10:50:52Z</time></trkpt><trkpt lat="44.16398222671708" lon="11.520697736730307"><ele>783.5</ele><time>2026-04-18T10:50:53Z</time></trkpt><trkpt lat="44.1640491279171" lon="11.520602759191508"><ele>783.0</ele><time>2026-04-18T10:50:54Z</time></trkpt><trkpt lat="44.16411739136347" lon="11.52054009075626"><ele>783.0</ele><time>2026-04-18T10:50:55Z</time></trkpt><trkpt lat="44.164191752981" lon="11.520527059907634"><ele>783.0</ele><time>2026-04-18T10:50:57Z</time></trkpt><trkpt lat="44.164298851873745" lon="11.520423983710751"><ele>783.0</ele><time>2026-04-18T10:50:59Z</time></trkpt><trkpt lat="44.16434965841482" lon="11.520367712562004"><ele>783.0</ele><time>2026-04-18T10:51:00Z</time></trkpt><trkpt lat="44.164409934467244" lon="11.52030166255803"><ele>783.0</ele><time>2026-04-18T10:51:01Z</time></trkpt><trkpt lat="44.16445025044087" lon="11.520231836028666"><ele>783.0</ele><time>2026-04-18T10:51:02Z</time></trkpt><trkpt lat="44.164516966435514" lon="11.520115489787463"><ele>780.5999999999999</ele><time>2026-04-18T10:51:04Z</time></trkpt><trkpt lat="44.164591121650346" lon="11.51995810188948"><ele>778.1999999999999</ele><time>2026-04-18T10:51:06Z</time></trkpt><trkpt lat="44.16463514683383" lon="11.519888402002492"><ele>775.8</ele><time>2026-04-18T10:51:07Z</time></trkpt><trkpt lat="44.16472883933352" lon="11.519802369471439"><ele>773.4</ele><time>2026-04-18T10:51:09Z</time></trkpt><trkpt lat="44.16477737127892" lon="11.519729801103374"><ele>771.0</ele><time>2026-04-18T10:51:10Z</time></trkpt><trkpt lat="44.16483765413058" lon="11.519623421827612"><ele>770.7142857142858</ele><time>2026-04-18T10:51:11Z</time></trkpt><trkpt lat="44.164877427407745" lon="11.519536533797037"><ele>770.4285714285713</ele><time>2026-04-18T10:51:12Z</time></trkpt><trkpt lat="44.164932144118936" lon="11.519483956870408"><ele>770.1428571428571</ele><time>2026-04-18T10:51:13Z</time></trkpt><trkpt lat="44.16496474575253" lon="11.519394371403216"><ele>769.8571428571429</ele><time>2026-04-18T10:51:14Z</time></trkpt><trkpt lat="44.16500832099112" lon="11.519317103806516"><ele>769.5714285714287</ele><time>2026-04-18T10:51:15Z</time></trkpt><trkpt lat="44.1650416481906" lon="11.519229936929294"><ele>769.2857142857142</ele><time>2026-04-18T10:51:16Z</time></trkpt><trkpt lat="44.1650797605433" lon="11.519153467980855"><ele>769.0</ele><time>2026-04-18T10:51:17Z</time></trkpt><trkpt lat="44.16517961908059" lon="11.51905741010691"><ele>768.9999999999999</ele><time>2026-04-18T10:51:19Z</time></trkpt><trkpt lat="44.16523638771544" lon="11.518977471360015"><ele>769.0</ele><time>2026-04-18T10:51:20Z</time></trkpt><trkpt lat="44.16530118700141" lon="11.518932338338836"><ele>769.0</ele><time>2026-04-18T10:51:21Z</time></trkpt><trkpt lat="44.16536829903513" lon="11.518892183572682"><ele>769.0</ele><time>2026-04-18T10:51:22Z</time></trkpt><trkpt lat="44.16549612649813" lon="11.518874988936627"><ele>768.9999999999999</ele><time>2026-04-18T10:51:24Z</time></trkpt><trkpt lat="44.165553374893065" lon="11.518783113648874"><ele>769.0</ele><time>2026-04-18T10:51:25Z</time></trkpt><trkpt lat="44.16561908573653" lon="11.518698168265379"><ele>766.6666666666666</ele><time>2026-04-18T10:51:26Z</time></trkpt><trkpt lat="44.16567896698315" lon="11.51864077482597"><ele>764.3333333333333</ele><time>2026-04-18T10:51:27Z</time></trkpt><trkpt lat="44.165747716548324" lon="11.518589802370954"><ele>762.0</ele><time>2026-04-18T10:51:28Z</time></trkpt><trkpt lat="44.165815325716764" lon="11.518545998428728"><ele>759.6666666666666</ele><time>2026-04-18T10:51:29Z</time></trkpt><trkpt lat="44.165878058497995" lon="11.518471939584591"><ele>757.3333333333333</ele><time>2026-04-18T10:51:30Z</time></trkpt><trkpt lat="44.16593704617447" lon="11.518392441376033"><ele>755.0</ele><time>2026-04-18T10:51:31Z</time></trkpt><trkpt lat="44.16600321869069" lon="11.518325284654164"><ele>755.0</ele><time>2026-04-18T10:51:32Z</time></trkpt><trkpt lat="44.16606743172189" lon="11.518253403231602"><ele>755.0</ele><time>2026-04-18T10:51:33Z</time></trkpt><trkpt lat="44.16612269593226" lon="11.518163892050916"><ele>755.0</ele><time>2026-04-18T10:51:34Z</time></trkpt><trkpt lat="44.16617545526627" lon="11.518080620389675"><ele>755.0</ele><time>2026-04-18T10:51:35Z</time></trkpt><trkpt lat="44.16623030399362" lon="11.518002425617484"><ele>755.0</ele><time>2026-04-18T10:51:36Z</time></trkpt><trkpt lat="44.16627956167787" lon="11.51791792111982"><ele>755.0</ele><time>2026-04-18T10:51:37Z</time></trkpt><trkpt lat="44.1663398251914" lon="11.517853949367044"><ele>754.6666666666666</ele><time>2026-04-18T10:51:38Z</time></trkpt><trkpt lat="44.16640149533887" lon="11.517810330567738"><ele>754.3333333333333</ele><time>2026-04-18T10:51:39Z</time></trkpt><trkpt lat="44.16650361003642" lon="11.51777006668315"><ele>754.0</ele><time>2026-04-18T10:51:41Z</time></trkpt><trkpt lat="44.166566010199446" lon="11.51774478475729"><ele>753.6666666666666</ele><time>2026-04-18T10:51:43Z</time></trkpt><trkpt lat="44.16661864815561" lon="11.517649974361719"><ele>753.3333333333334</ele><time>2026-04-18T10:51:45Z</time></trkpt><trkpt lat="44.16667024371616" lon="11.517525714720819"><ele>753.0</ele><time>2026-04-18T10:51:47Z</time></trkpt><trkpt lat="44.16673374979962" lon="11.517410666189647"><ele>753.0</ele><time>2026-04-18T10:51:49Z</time></trkpt><trkpt lat="44.16675333109304" lon="11.517241391204616"><ele>753.0</ele><time>2026-04-18T10:51:51Z</time></trkpt><trkpt lat="44.166762718513034" lon="11.517152047755616"><ele>753.0</ele><time>2026-04-18T10:51:52Z</time></trkpt><trkpt lat="44.166788367035934" lon="11.517063874626094"><ele>753.0</ele><time>2026-04-18T10:51:53Z</time></trkpt><trkpt lat="44.166835922956665" lon="11.516998294712563"><ele>753.0</ele><time>2026-04-18T10:51:54Z</time></trkpt><trkpt lat="44.166882871987035" lon="11.516937223054995"><ele>753.0</ele><time>2026-04-18T10:51:55Z</time></trkpt><trkpt lat="44.16691094423598" lon="11.51685714951547"><ele>749.5</ele><time>2026-04-18T10:51:56Z</time></trkpt><trkpt lat="44.166941556420475" lon="11.516763837175665"><ele>746.0</ele><time>2026-04-18T10:51:57Z</time></trkpt><trkpt lat="44.166968817398946" lon="11.516684123079095"><ele>742.5</ele><time>2026-04-18T10:51:58.001Z</time></trkpt><trkpt lat="44.167062725391936" lon="11.516571069910965"><ele>739.0</ele><time>2026-04-18T10:52:00.001Z</time></trkpt><trkpt lat="44.16712281095688" lon="11.516517966769248"><ele>735.5</ele><time>2026-04-18T10:52:01Z</time></trkpt><trkpt lat="44.167187928265946" lon="11.516465022149237"><ele>732.0</ele><time>2026-04-18T10:52:02Z</time></trkpt><trkpt lat="44.167248062785774" lon="11.516388498079047"><ele>732.0</ele><time>2026-04-18T10:52:03Z</time></trkpt><trkpt lat="44.167313231262405" lon="11.516283585483169"><ele>732.0</ele><time>2026-04-18T10:52:05Z</time></trkpt><trkpt lat="44.16737035807722" lon="11.516239569719229"><ele>732.0</ele><time>2026-04-18T10:52:08Z</time></trkpt><trkpt lat="44.167434163680234" lon="11.516208462791125"><ele>732.0</ele><time>2026-04-18T10:52:12Z</time></trkpt><trkpt lat="44.1675021448575" lon="11.516176055222004"><ele>732.0</ele><time>2026-04-18T10:52:14Z</time></trkpt><trkpt lat="44.16760128575623" lon="11.516125731781194"><ele>732.0</ele><time>2026-04-18T10:52:16Z</time></trkpt><trkpt lat="44.1677106646818" lon="11.516052670929456"><ele>736.8333333333334</ele><time>2026-04-18T10:52:18Z</time></trkpt><trkpt lat="44.16776780772392" lon="11.515965302895173"><ele>741.6666666666666</ele><time>2026-04-18T10:52:19Z</time></trkpt><trkpt lat="44.167829713142616" lon="11.51590043442587"><ele>746.5</ele><time>2026-04-18T10:52:20Z</time></trkpt><trkpt lat="44.16788658907769" lon="11.515842085347735"><ele>751.3333333333333</ele><time>2026-04-18T10:52:21Z</time></trkpt><trkpt lat="44.167958676813825" lon="11.515817698383243"><ele>756.1666666666666</ele><time>2026-04-18T10:52:22Z</time></trkpt><trkpt lat="44.16806643254369" lon="11.515798249486089"><ele>761.0</ele><time>2026-04-18T10:52:24Z</time></trkpt><trkpt lat="44.168145149891124" lon="11.51574256693376"><ele>757.5999999999999</ele><time>2026-04-18T10:52:26Z</time></trkpt><trkpt lat="44.168276945085104" lon="11.515711795978959"><ele>754.2</ele><time>2026-04-18T10:52:28Z</time></trkpt><trkpt lat="44.1683383269828" lon="11.515679009191334"><ele>750.8</ele><time>2026-04-18T10:52:29Z</time></trkpt><trkpt lat="44.16841464269256" lon="11.515642370637675"><ele>747.4000000000001</ele><time>2026-04-18T10:52:30Z</time></trkpt><trkpt lat="44.16853439470889" lon="11.51565638930086"><ele>744.0</ele><time>2026-04-18T10:52:32Z</time></trkpt><trkpt lat="44.16862558315658" lon="11.515613383091335"><ele>744.0</ele><time>2026-04-18T10:52:33Z</time></trkpt><trkpt lat="44.16874480413874" lon="11.515570074189172"><ele>744.0</ele><time>2026-04-18T10:52:34Z</time></trkpt><trkpt lat="44.16879536893145" lon="11.515499749647832"><ele>744.0</ele><time>2026-04-18T10:52:35Z</time></trkpt><trkpt lat="44.16888560028506" lon="11.515476467862605"><ele>744.0</ele><time>2026-04-18T10:52:36Z</time></trkpt><trkpt lat="44.16895168942656" lon="11.515388276839763"><ele>744.0</ele><time>2026-04-18T10:52:37Z</time></trkpt><trkpt lat="44.16902891341923" lon="11.51536163808875"><ele>743.5714285714287</ele><time>2026-04-18T10:52:38Z</time></trkpt><trkpt lat="44.16910604094581" lon="11.515342794058565"><ele>743.1428571428571</ele><time>2026-04-18T10:52:40Z</time></trkpt><trkpt lat="44.16915333408707" lon="11.515268896338359"><ele>742.7142857142858</ele><time>2026-04-18T10:52:42Z</time></trkpt><trkpt lat="44.16922560734296" lon="11.515262975293407"><ele>742.2857142857143</ele><time>2026-04-18T10:52:45Z</time></trkpt><trkpt lat="44.16929555326233" lon="11.515291733251036"><ele>741.8571428571429</ele><time>2026-04-18T10:52:47Z</time></trkpt><trkpt lat="44.1693644443543" lon="11.515320540609864"><ele>741.4285714285714</ele><time>2026-04-18T10:52:49Z</time></trkpt><trkpt lat="44.169418818929884" lon="11.515368083317398"><ele>741.0</ele><time>2026-04-18T10:52:51Z</time></trkpt><trkpt lat="44.169500773985526" lon="11.515288550957216"><ele>741.0</ele><time>2026-04-18T10:52:53Z</time></trkpt><trkpt lat="44.16960693665477" lon="11.515198933003424"><ele>741.0</ele><time>2026-04-18T10:52:55Z</time></trkpt><trkpt lat="44.16972035284654" lon="11.515146093303565"><ele>741.0</ele><time>2026-04-18T10:52:57Z</time></trkpt><trkpt lat="44.16978325404059" lon="11.515115871659622"><ele>741.0</ele><time>2026-04-18T10:52:58Z</time></trkpt><trkpt lat="44.169904898967886" lon="11.515155577910235"><ele>741.0</ele><time>2026-04-18T10:53:00Z</time></trkpt><trkpt lat="44.17001934444097" lon="11.515164905084934"><ele>738.0</ele><time>2026-04-18T10:53:02Z</time></trkpt><trkpt lat="44.17013240459584" lon="11.515116809449326"><ele>735.0</ele><time>2026-04-18T10:53:04Z</time></trkpt><trkpt lat="44.17021275625934" lon="11.515134955177405"><ele>732.0</ele><time>2026-04-18T10:53:05Z</time></trkpt><trkpt lat="44.17029284530009" lon="11.515211005696438"><ele>729.0</ele><time>2026-04-18T10:53:06Z</time></trkpt><trkpt lat="44.17036217154214" lon="11.515262249910844"><ele>726.0</ele><time>2026-04-18T10:53:07Z</time></trkpt><trkpt lat="44.17046624954802" lon="11.515233172965981"><ele>726.0</ele><time>2026-04-18T10:53:09Z</time></trkpt><trkpt lat="44.170549020381124" lon="11.515132680956507"><ele>726.0</ele><time>2026-04-18T10:53:11Z</time></trkpt><trkpt lat="44.17064938049804" lon="11.515040843952907"><ele>726.0</ele><time>2026-04-18T10:53:13Z</time></trkpt><trkpt lat="44.170716503618564" lon="11.515004288171639"><ele>726.0</ele><time>2026-04-18T10:53:14Z</time></trkpt><trkpt lat="44.170789023158775" lon="11.514995070114589"><ele>726.0</ele><time>2026-04-18T10:53:15Z</time></trkpt><trkpt lat="44.170863619838315" lon="11.514997319278157"><ele>726.0</ele><time>2026-04-18T10:53:16Z</time></trkpt><trkpt lat="44.1709412204047" lon="11.514996913364516"><ele>726.2857142857142</ele><time>2026-04-18T10:53:17Z</time></trkpt><trkpt lat="44.17101837756146" lon="11.514983803694175"><ele>726.5714285714286</ele><time>2026-04-18T10:53:18Z</time></trkpt><trkpt lat="44.17109721260124" lon="11.514999216483545"><ele>726.8571428571429</ele><time>2026-04-18T10:53:19Z</time></trkpt><trkpt lat="44.17117273881817" lon="11.515037590994968"><ele>727.1428571428571</ele><time>2026-04-18T10:53:20Z</time></trkpt><trkpt lat="44.17123778850371" lon="11.515062184023426"><ele>727.4285714285714</ele><time>2026-04-18T10:53:21Z</time></trkpt><trkpt lat="44.17130221824371" lon="11.51508656525813"><ele>727.7142857142857</ele><time>2026-04-18T10:53:22Z</time></trkpt><trkpt lat="44.17136302024371" lon="11.515110572705554"><ele>728.0</ele><time>2026-04-18T10:53:23Z</time></trkpt><trkpt lat="44.171487515254725" lon="11.515162702325005"><ele>727.8</ele><time>2026-04-18T10:53:25Z</time></trkpt><trkpt lat="44.17157007374511" lon="11.515180270565896"><ele>727.5999999999999</ele><time>2026-04-18T10:53:27Z</time></trkpt><trkpt lat="44.171684693441286" lon="11.51521592735957"><ele>727.4000000000001</ele><time>2026-04-18T10:53:29Z</time></trkpt><trkpt lat="44.17177884255117" lon="11.515315343939054"><ele>727.2</ele><time>2026-04-18T10:53:31Z</time></trkpt><trkpt lat="44.17188890346354" lon="11.515390249317921"><ele>727.0</ele><time>2026-04-18T10:53:33Z</time></trkpt><trkpt lat="44.1719482896846" lon="11.515447910144443"><ele>727.0</ele><time>2026-04-18T10:53:34Z</time></trkpt><trkpt lat="44.172012232321926" lon="11.515482696536033"><ele>727.0</ele><time>2026-04-18T10:53:35Z</time></trkpt><trkpt lat="44.1720707977561" lon="11.515519405358667"><ele>727.0</ele><time>2026-04-18T10:53:36Z</time></trkpt><trkpt lat="44.172186163587604" lon="11.515589646158872"><ele>727.0</ele><time>2026-04-18T10:53:38Z</time></trkpt><trkpt lat="44.172254323067676" lon="11.515618961386066"><ele>727.0</ele><time>2026-04-18T10:53:39Z</time></trkpt><trkpt lat="44.17231853698046" lon="11.51563604581917"><ele>727.0</ele><time>2026-04-18T10:53:40Z</time></trkpt><trkpt lat="44.172412617921964" lon="11.515634985900528"><ele>726.5</ele><time>2026-04-18T10:53:42.001Z</time></trkpt><trkpt lat="44.17250562318471" lon="11.515619219722181"><ele>726.0</ele><time>2026-04-18T10:53:45.001Z</time></trkpt><trkpt lat="44.17260060234645" lon="11.51561104745188"><ele>725.5</ele><time>2026-04-18T10:53:47.001Z</time></trkpt><trkpt lat="44.17266915654939" lon="11.515615461711626"><ele>725.0</ele><time>2026-04-18T10:53:49.001Z</time></trkpt><trkpt lat="44.17274289792784" lon="11.515649936795967"><ele>724.5</ele><time>2026-04-18T10:53:53.001Z</time></trkpt><trkpt lat="44.172805779077635" lon="11.515673780214799"><ele>724.0</ele><time>2026-04-18T10:53:57.001Z</time></trkpt><trkpt lat="44.17287953043111" lon="11.51568870812826"><ele>724.0</ele><time>2026-04-18T10:54:01.001Z</time></trkpt><trkpt lat="44.172944654117536" lon="11.51570179073137"><ele>724.0</ele><time>2026-04-18T10:54:04.001Z</time></trkpt><trkpt lat="44.173018343744786" lon="11.515732779846376"><ele>724.0</ele><time>2026-04-18T10:54:07Z</time></trkpt><trkpt lat="44.17310022482177" lon="11.515772210704267"><ele>724.0</ele><time>2026-04-18T10:54:10Z</time></trkpt><trkpt lat="44.173163312251006" lon="11.515807867007599"><ele>724.0</ele><time>2026-04-18T10:54:12Z</time></trkpt><trkpt lat="44.173251373020214" lon="11.515863073189369"><ele>724.0</ele><time>2026-04-18T10:54:15Z</time></trkpt><trkpt lat="44.17333877888979" lon="11.51587788730622"><ele>725.2857142857142</ele><time>2026-04-18T10:54:18Z</time></trkpt><trkpt lat="44.173399558977835" lon="11.515929416968087"><ele>726.5714285714286</ele><time>2026-04-18T10:54:20Z</time></trkpt><trkpt lat="44.173453172826115" lon="11.515976336645291"><ele>727.8571428571429</ele><time>2026-04-18T10:54:22Z</time></trkpt><trkpt lat="44.17351577214133" lon="11.515994927916635"><ele>729.1428571428571</ele><time>2026-04-18T10:54:24Z</time></trkpt><trkpt lat="44.17358277226018" lon="11.515995828550205"><ele>730.4285714285714</ele><time>2026-04-18T10:54:26Z</time></trkpt><trkpt lat="44.17366906309702" lon="11.515994667412853"><ele>731.7142857142857</ele><time>2026-04-18T10:54:29Z</time></trkpt><trkpt lat="44.17373186903032" lon="11.51600913603091"><ele>733.0</ele><time>2026-04-18T10:54:31Z</time></trkpt><trkpt lat="44.17383699550353" lon="11.516024254917445"><ele>733.0</ele><time>2026-04-18T10:54:33Z</time></trkpt><trkpt lat="44.173909920836344" lon="11.516018133469975"><ele>733.0</ele><time>2026-04-18T10:54:35Z</time></trkpt><trkpt lat="44.173965379937705" lon="11.51594535815201"><ele>733.0</ele><time>2026-04-18T10:55:40.001Z</time></trkpt><trkpt lat="44.17402845419992" lon="11.515977349907772"><ele>733.0</ele><time>2026-04-18T10:55:43.001Z</time></trkpt><trkpt lat="44.17410281375689" lon="11.515963094234138"><ele>733.0</ele><time>2026-04-18T10:55:46.001Z</time></trkpt><trkpt lat="44.17418847657703" lon="11.51597446774331"><ele>733.0</ele><time>2026-04-18T10:55:48.001Z</time></trkpt><trkpt lat="44.17410110969619" lon="11.515966520775834"><ele>733.6666666666667</ele><time>2026-04-18T10:56:01.001Z</time></trkpt><trkpt lat="44.17415588919291" lon="11.516025606781348"><ele>734.3333333333334</ele><time>2026-04-18T10:56:07.001Z</time></trkpt><trkpt lat="44.17423858062567" lon="11.516038368733703"><ele>735.0</ele><time>2026-04-18T10:56:10.001Z</time></trkpt><trkpt lat="44.174310440173166" lon="11.516124684247716"><ele>735.6666666666666</ele><time>2026-04-18T10:56:13.001Z</time></trkpt><trkpt lat="44.17438038001583" lon="11.51613784163915"><ele>736.3333333333333</ele><time>2026-04-18T10:56:15.001Z</time></trkpt><trkpt lat="44.17444466865489" lon="11.516160766421565"><ele>737.0</ele><time>2026-04-18T10:56:17.001Z</time></trkpt><trkpt lat="44.174525622056755" lon="11.516184375722194"><ele>737.0</ele><time>2026-04-18T10:56:20.001Z</time></trkpt><trkpt lat="44.174607975833275" lon="11.516155402041957"><ele>737.0</ele><time>2026-04-18T10:56:24.001Z</time></trkpt><trkpt lat="44.174707603112346" lon="11.51621054114684"><ele>737.0</ele><time>2026-04-18T10:56:26.001Z</time></trkpt><trkpt lat="44.17481231674576" lon="11.516217988611817"><ele>737.0</ele><time>2026-04-18T10:56:28.001Z</time></trkpt><trkpt lat="44.174906982107096" lon="11.516258595091342"><ele>737.0</ele><time>2026-04-18T10:56:29.001Z</time></trkpt><trkpt lat="44.175000675434745" lon="11.516295529547932"><ele>734.8</ele><time>2026-04-18T10:56:30.001Z</time></trkpt><trkpt lat="44.17508986267355" lon="11.516296433265826"><ele>732.6</ele><time>2026-04-18T10:56:31.001Z</time></trkpt><trkpt lat="44.17518737901173" lon="11.51628446248434"><ele>730.4</ele><time>2026-04-18T10:56:32.001Z</time></trkpt><trkpt lat="44.17528376155137" lon="11.516299153462203"><ele>728.1999999999999</ele><time>2026-04-18T10:56:33.001Z</time></trkpt><trkpt lat="44.17537761622675" lon="11.516276554647648"><ele>726.0</ele><time>2026-04-18T10:56:34.001Z</time></trkpt><trkpt lat="44.175477248610605" lon="11.516226066518184"><ele>726.0</ele><time>2026-04-18T10:56:35Z</time></trkpt><trkpt lat="44.17557050268004" lon="11.516159198777688"><ele>726.0</ele><time>2026-04-18T10:56:36Z</time></trkpt><trkpt lat="44.17568254716637" lon="11.51615306230621"><ele>726.0</ele><time>2026-04-18T10:56:37Z</time></trkpt><trkpt lat="44.175766429684934" lon="11.516185896575768"><ele>726.0</ele><time>2026-04-18T10:56:38Z</time></trkpt><trkpt lat="44.17584883061292" lon="11.516244734942688"><ele>726.0</ele><time>2026-04-18T10:56:39Z</time></trkpt><trkpt lat="44.17594634195668" lon="11.51627314067874"><ele>724.6666666666666</ele><time>2026-04-18T10:56:40Z</time></trkpt><trkpt lat="44.17602787173992" lon="11.516318653003854"><ele>723.3333333333334</ele><time>2026-04-18T10:56:41Z</time></trkpt><trkpt lat="44.17610076327631" lon="11.516343814254897"><ele>722.0</ele><time>2026-04-18T10:56:42Z</time></trkpt><trkpt lat="44.17616669902948" lon="11.51637879718225"><ele>720.6666666666667</ele><time>2026-04-18T10:56:43Z</time></trkpt><trkpt lat="44.17624583718974" lon="11.516407462487281"><ele>719.3333333333334</ele><time>2026-04-18T10:56:44Z</time></trkpt><trkpt lat="44.17632861103513" lon="11.516451022968022"><ele>718.0</ele><time>2026-04-18T10:56:45Z</time></trkpt><trkpt lat="44.1764293925152" lon="11.516492164575126"><ele>718.0</ele><time>2026-04-18T10:56:46Z</time></trkpt><trkpt lat="44.1765111177287" lon="11.516484533322718"><ele>718.0</ele><time>2026-04-18T10:56:47Z</time></trkpt><trkpt lat="44.1766634863453" lon="11.516490229947859"><ele>718.0</ele><time>2026-04-18T10:56:49Z</time></trkpt><trkpt lat="44.17676804435671" lon="11.51650913137188"><ele>718.0</ele><time>2026-04-18T10:56:50Z</time></trkpt><trkpt lat="44.176886944837996" lon="11.516572042186478"><ele>718.5</ele><time>2026-04-18T10:56:52Z</time></trkpt><trkpt lat="44.176961916766665" lon="11.516591911236954"><ele>719.0</ele><time>2026-04-18T10:56:53Z</time></trkpt><trkpt lat="44.17705479606914" lon="11.516686380475038"><ele>719.5</ele><time>2026-04-18T10:56:55Z</time></trkpt><trkpt lat="44.177123606692426" lon="11.51673514495677"><ele>720.0</ele><time>2026-04-18T10:56:56Z</time></trkpt><trkpt lat="44.177170024656434" lon="11.516805267405628"><ele>720.5</ele><time>2026-04-18T10:56:57Z</time></trkpt><trkpt lat="44.17721741046974" lon="11.516873379774358"><ele>721.0</ele><time>2026-04-18T10:56:58Z</time></trkpt><trkpt lat="44.177272864758656" lon="11.51696722040302"><ele>721.4</ele><time>2026-04-18T10:56:59Z</time></trkpt><trkpt lat="44.17733673835548" lon="11.51707641399909"><ele>721.8</ele><time>2026-04-18T10:57:00Z</time></trkpt><trkpt lat="44.17742180866795" lon="11.517191443494166"><ele>722.1999999999999</ele><time>2026-04-18T10:57:01Z</time></trkpt><trkpt lat="44.177459865042444" lon="11.517299100462878"><ele>722.5999999999999</ele><time>2026-04-18T10:57:02Z</time></trkpt><trkpt lat="44.17748436768236" lon="11.517407033670501"><ele>723.0</ele><time>2026-04-18T10:57:03Z</time></trkpt><trkpt lat="44.17754424463875" lon="11.517529434369337"><ele>720.0</ele><time>2026-04-18T10:57:04Z</time></trkpt><trkpt lat="44.17760970944154" lon="11.517647552470828"><ele>717.0</ele><time>2026-04-18T10:57:05Z</time></trkpt><trkpt lat="44.177675845807656" lon="11.51774101634637"><ele>714.0</ele><time>2026-04-18T10:57:06Z</time></trkpt><trkpt lat="44.177755510696045" lon="11.517833872549256"><ele>711.0</ele><time>2026-04-18T10:57:07Z</time></trkpt><trkpt lat="44.17783020410891" lon="11.51791933517268"><ele>708.0</ele><time>2026-04-18T10:57:08Z</time></trkpt><trkpt lat="44.1779178458958" lon="11.517961807645547"><ele>706.6666666666666</ele><time>2026-04-18T10:57:09Z</time></trkpt><trkpt lat="44.17800614503152" lon="11.518006928906324"><ele>705.3333333333334</ele><time>2026-04-18T10:57:10Z</time></trkpt><trkpt lat="44.17807146481857" lon="11.518070508842088"><ele>704.0</ele><time>2026-04-18T10:57:11Z</time></trkpt><trkpt lat="44.17813507862518" lon="11.518152942749456"><ele>702.6666666666667</ele><time>2026-04-18T10:57:12Z</time></trkpt><trkpt lat="44.17818912017293" lon="11.518237818581518"><ele>701.3333333333334</ele><time>2026-04-18T10:57:13Z</time></trkpt><trkpt lat="44.1782489930206" lon="11.518307616908727"><ele>700.0</ele><time>2026-04-18T10:57:14Z</time></trkpt><trkpt lat="44.178303143066856" lon="11.518398628465311"><ele>700.0</ele><time>2026-04-18T10:57:15Z</time></trkpt><trkpt lat="44.1783580442105" lon="11.518500617934015"><ele>700.0</ele><time>2026-04-18T10:57:16Z</time></trkpt><trkpt lat="44.17842899763396" lon="11.518588103063863"><ele>700.0</ele><time>2026-04-18T10:57:17Z</time></trkpt><trkpt lat="44.17849104090559" lon="11.518687512892457"><ele>700.0</ele><time>2026-04-18T10:57:18Z</time></trkpt><trkpt lat="44.178528919075895" lon="11.518783939590639"><ele>700.0</ele><time>2026-04-18T10:57:19Z</time></trkpt><trkpt lat="44.17858953775624" lon="11.518869497493649"><ele>700.0</ele><time>2026-04-18T10:57:20Z</time></trkpt><trkpt lat="44.17867316702947" lon="11.518940943286399"><ele>700.0</ele><time>2026-04-18T10:57:21Z</time></trkpt><trkpt lat="44.178717563544794" lon="11.51900713693047"><ele>700.0</ele><time>2026-04-18T10:57:22Z</time></trkpt><trkpt lat="44.17874893871244" lon="11.519118872947935"><ele>700.0</ele><time>2026-04-18T10:57:23Z</time></trkpt><trkpt lat="44.17877773557506" lon="11.519262382292185"><ele>700.0</ele><time>2026-04-18T10:57:24Z</time></trkpt><trkpt lat="44.17879739170715" lon="11.51940649701974"><ele>700.0</ele><time>2026-04-18T10:57:25Z</time></trkpt><trkpt lat="44.178841156360605" lon="11.519526379465585"><ele>695.75</ele><time>2026-04-18T10:57:26Z</time></trkpt><trkpt lat="44.178908978327286" lon="11.519663976563805"><ele>691.5</ele><time>2026-04-18T10:57:27Z</time></trkpt><trkpt lat="44.17895314214402" lon="11.519775573753662"><ele>687.25</ele><time>2026-04-18T10:57:28Z</time></trkpt><trkpt lat="44.17899521459174" lon="11.519943758203105"><ele>683.0</ele><time>2026-04-18T10:57:29Z</time></trkpt><trkpt lat="44.179052199577306" lon="11.520086269091689"><ele>683.0</ele><time>2026-04-18T10:57:30Z</time></trkpt><trkpt lat="44.17912706995409" lon="11.520194867246248"><ele>683.0</ele><time>2026-04-18T10:57:31Z</time></trkpt><trkpt lat="44.17919542648254" lon="11.520274087431632"><ele>683.0</ele><time>2026-04-18T10:57:32Z</time></trkpt><trkpt lat="44.179253988629455" lon="11.520378721662452"><ele>683.0</ele><time>2026-04-18T10:57:33.001Z</time></trkpt><trkpt lat="44.17931056507547" lon="11.520449195870105"><ele>683.0</ele><time>2026-04-18T10:57:34.001Z</time></trkpt><trkpt lat="44.179390980142614" lon="11.520467783636011"><ele>683.0</ele><time>2026-04-18T10:57:35.001Z</time></trkpt><trkpt lat="44.17949115659262" lon="11.520468728593562"><ele>682.8333333333333</ele><time>2026-04-18T10:57:36.001Z</time></trkpt><trkpt lat="44.179545002929125" lon="11.520411490590922"><ele>682.6666666666666</ele><time>2026-04-18T10:57:38.001Z</time></trkpt><trkpt lat="44.179613421850554" lon="11.520421186794215"><ele>682.5</ele><time>2026-04-18T10:57:40.001Z</time></trkpt><trkpt lat="44.17969572546785" lon="11.52041213127049"><ele>682.3333333333334</ele><time>2026-04-18T11:09:03.999Z</time></trkpt><trkpt lat="44.17978683713416" lon="11.520428280441426"><ele>682.1666666666667</ele><time>2026-04-18T11:09:07Z</time></trkpt><trkpt lat="44.179846257997525" lon="11.520457679344753"><ele>682.0</ele><time>2026-04-18T11:09:08Z</time></trkpt><trkpt lat="44.17994172766464" lon="11.520543665470369"><ele>682.0</ele><time>2026-04-18T11:09:10Z</time></trkpt><trkpt lat="44.18004221073192" lon="11.520635025438361"><ele>682.0</ele><time>2026-04-18T11:09:12Z</time></trkpt><trkpt lat="44.18010841676885" lon="11.520685421930244"><ele>682.0</ele><time>2026-04-18T11:09:14Z</time></trkpt><trkpt lat="44.18015311168982" lon="11.520765115019783"><ele>682.0</ele><time>2026-04-18T11:09:16Z</time></trkpt><trkpt lat="44.180224161071145" lon="11.520858037676138"><ele>682.0</ele><time>2026-04-18T11:09:18Z</time></trkpt><trkpt lat="44.18030491701388" lon="11.520962989319942"><ele>682.0</ele><time>2026-04-18T11:09:20Z</time></trkpt><trkpt lat="44.180389564424594" lon="11.521064587080705"><ele>682.0</ele><time>2026-04-18T11:09:22Z</time></trkpt><trkpt lat="44.18044918688353" lon="11.521156609517917"><ele>682.0</ele><time>2026-04-18T11:09:24Z</time></trkpt><trkpt lat="44.18050564169077" lon="11.521244048178396"><ele>682.0</ele><time>2026-04-18T11:09:26Z</time></trkpt><trkpt lat="44.1805648258331" lon="11.521309235913627"><ele>682.0</ele><time>2026-04-18T11:09:28Z</time></trkpt><trkpt lat="44.18063404164201" lon="11.521381789930194"><ele>682.0</ele><time>2026-04-18T11:09:30Z</time></trkpt><trkpt lat="44.1807188316313" lon="11.521474970070624"><ele>681.6</ele><time>2026-04-18T11:09:32Z</time></trkpt><trkpt lat="44.180793776637074" lon="11.521586198899593"><ele>681.2</ele><time>2026-04-18T11:09:34Z</time></trkpt><trkpt lat="44.18087578031463" lon="11.521699610310945"><ele>680.8</ele><time>2026-04-18T11:09:36Z</time></trkpt><trkpt lat="44.18096596020604" lon="11.521789219115185"><ele>680.4</ele><time>2026-04-18T11:09:38Z</time></trkpt><trkpt lat="44.181052584715644" lon="11.521859095864933"><ele>680.0</ele><time>2026-04-18T11:09:40Z</time></trkpt><trkpt lat="44.181131645066266" lon="11.521932328637515"><ele>680.0</ele><time>2026-04-18T11:09:42Z</time></trkpt><trkpt lat="44.18121812253288" lon="11.521996775096772"><ele>680.0</ele><time>2026-04-18T11:09:44Z</time></trkpt><trkpt lat="44.18129456053627" lon="11.522057553487246"><ele>680.0</ele><time>2026-04-18T11:09:46Z</time></trkpt><trkpt lat="44.18134889811037" lon="11.522108218763547"><ele>680.0</ele><time>2026-04-18T11:09:47Z</time></trkpt><trkpt lat="44.18144838876557" lon="11.522204899190797"><ele>680.0</ele><time>2026-04-18T11:09:49Z</time></trkpt><trkpt lat="44.18154708094262" lon="11.522302832448757"><ele>680.2</ele><time>2026-04-18T11:09:51Z</time></trkpt><trkpt lat="44.18162986540884" lon="11.522423914693167"><ele>680.4</ele><time>2026-04-18T11:09:53Z</time></trkpt><trkpt lat="44.181695019882675" lon="11.522533916360908"><ele>680.5999999999999</ele><time>2026-04-18T11:09:55Z</time></trkpt><trkpt lat="44.18175855664368" lon="11.522627313878296"><ele>680.8</ele><time>2026-04-18T11:09:57Z</time></trkpt><trkpt lat="44.181866864981586" lon="11.52272100775725"><ele>681.0</ele><time>2026-04-18T11:09:59Z</time></trkpt><trkpt lat="44.1819654692743" lon="11.52281523017451"><ele>684.4</ele><time>2026-04-18T11:10:01Z</time></trkpt><trkpt lat="44.18205254996525" lon="11.522919757244122"><ele>687.8</ele><time>2026-04-18T11:10:03Z</time></trkpt><trkpt lat="44.182121192214034" lon="11.523038443259436"><ele>691.1999999999999</ele><time>2026-04-18T11:10:05Z</time></trkpt><trkpt lat="44.18219719829326" lon="11.52315828854812"><ele>694.5999999999999</ele><time>2026-04-18T11:10:07Z</time></trkpt><trkpt lat="44.18226928695129" lon="11.523272199249641"><ele>698.0</ele><time>2026-04-18T11:10:09Z</time></trkpt><trkpt lat="44.182333908968424" lon="11.523379939279705"><ele>696.8333333333333</ele><time>2026-04-18T11:10:11Z</time></trkpt><trkpt lat="44.18240369437279" lon="11.523473758040579"><ele>695.6666666666666</ele><time>2026-04-18T11:10:13Z</time></trkpt><trkpt lat="44.1824772834062" lon="11.523568827550367"><ele>694.5</ele><time>2026-04-18T11:10:15Z</time></trkpt><trkpt lat="44.182536422298746" lon="11.523676469436177"><ele>693.3333333333334</ele><time>2026-04-18T11:10:17Z</time></trkpt><trkpt lat="44.18259348275933" lon="11.523744579564331"><ele>692.1666666666667</ele><time>2026-04-18T11:10:20Z</time></trkpt><trkpt lat="44.18264368859317" lon="11.52381436712857"><ele>691.0</ele><time>2026-04-18T11:10:23Z</time></trkpt><trkpt lat="44.182702932148146" lon="11.523866133112026"><ele>691.0</ele><time>2026-04-18T11:10:27Z</time></trkpt><trkpt lat="44.18278085634348" lon="11.523924293382947"><ele>691.0</ele><time>2026-04-18T11:10:30Z</time></trkpt><trkpt lat="44.18287372324152" lon="11.523969369342247"><ele>691.0</ele><time>2026-04-18T11:10:34Z</time></trkpt><trkpt lat="44.18294419480717" lon="11.524020173811177"><ele>691.0</ele><time>2026-04-18T11:10:37.001Z</time></trkpt><trkpt lat="44.18301333068184" lon="11.524036447349184"><ele>691.0</ele><time>2026-04-18T11:10:40.001Z</time></trkpt><trkpt lat="44.18307629578433" lon="11.524017188323791"><ele>691.0</ele><time>2026-04-18T11:10:42.001Z</time></trkpt><trkpt lat="44.18316496492095" lon="11.523994409591367"><ele>691.0</ele><time>2026-04-18T11:10:44.001Z</time></trkpt><trkpt lat="44.18326345967112" lon="11.523976334434328"><ele>691.0</ele><time>2026-04-18T11:10:47.001Z</time></trkpt><trkpt lat="44.18347186604373" lon="11.523973132128338"><ele>691.0</ele><time>2026-04-18T11:10:49.001Z</time></trkpt><trkpt lat="44.183567313022" lon="11.524015092492856"><ele>691.0</ele><time>2026-04-18T11:10:51.001Z</time></trkpt><trkpt lat="44.18365451417208" lon="11.524034991036173"><ele>691.0</ele><time>2026-04-18T11:10:53.001Z</time></trkpt><trkpt lat="44.1837454104015" lon="11.524043704398833"><ele>691.0</ele><time>2026-04-18T11:10:54.999Z</time></trkpt><trkpt lat="44.18382412748981" lon="11.524048452364045"><ele>691.0</ele><time>2026-04-18T11:10:56.999Z</time></trkpt><trkpt lat="44.183905496380554" lon="11.524090447596278"><ele>691.0</ele><time>2026-04-18T11:10:58.999Z</time></trkpt><trkpt lat="44.18399218611862" lon="11.524121381016064"><ele>691.0</ele><time>2026-04-18T11:11:00.999Z</time></trkpt><trkpt lat="44.18408580221195" lon="11.524136788679574"><ele>691.0</ele><time>2026-04-18T11:11:02.999Z</time></trkpt><trkpt lat="44.18413431595049" lon="11.524206048240226"><ele>692.1428571428571</ele><time>2026-04-18T11:11:04.999Z</time></trkpt><trkpt lat="44.18417402200023" lon="11.524283608260877"><ele>693.2857142857142</ele><time>2026-04-18T11:11:07.999Z</time></trkpt><trkpt lat="44.18422371436908" lon="11.524364059715877"><ele>694.4285714285713</ele><time>2026-04-18T11:11:10.999Z</time></trkpt><trkpt lat="44.18428709360915" lon="11.524427207343416"><ele>695.5714285714286</ele><time>2026-04-18T11:11:13.999Z</time></trkpt><trkpt lat="44.18435498517673" lon="11.524466551919982"><ele>696.7142857142858</ele><time>2026-04-18T11:11:16.999Z</time></trkpt><trkpt lat="44.184412791738886" lon="11.524513184127853"><ele>697.8571428571428</ele><time>2026-04-18T11:11:19.999Z</time></trkpt><trkpt lat="44.18446567729599" lon="11.524582863536114"><ele>699.0</ele><time>2026-04-18T11:11:23Z</time></trkpt><trkpt lat="44.184523692071146" lon="11.524638969475069"><ele>700.5</ele><time>2026-04-18T11:11:25Z</time></trkpt><trkpt lat="44.18459099105569" lon="11.52470574936307"><ele>702.0</ele><time>2026-04-18T11:11:28Z</time></trkpt><trkpt lat="44.18465007163315" lon="11.524786269927537"><ele>703.5</ele><time>2026-04-18T11:11:31Z</time></trkpt><trkpt lat="44.18469953562985" lon="11.524865002429436"><ele>705.0</ele><time>2026-04-18T11:11:34Z</time></trkpt><trkpt lat="44.18476009002521" lon="11.524959760980577"><ele>706.5</ele><time>2026-04-18T11:11:37Z</time></trkpt><trkpt lat="44.18482266306535" lon="11.525011537551215"><ele>708.0</ele><time>2026-04-18T11:11:40Z</time></trkpt><trkpt lat="44.18490231848688" lon="11.525066439407865"><ele>708.8333333333334</ele><time>2026-04-18T11:11:43Z</time></trkpt><trkpt lat="44.184975234984265" lon="11.525099951293168"><ele>709.6666666666666</ele><time>2026-04-18T11:11:46Z</time></trkpt><trkpt lat="44.185041968828266" lon="11.525164246073254"><ele>710.5</ele><time>2026-04-18T11:11:49Z</time></trkpt><trkpt lat="44.18509204582331" lon="11.525232028632901"><ele>711.3333333333333</ele><time>2026-04-18T11:11:52Z</time></trkpt><trkpt lat="44.185152101681275" lon="11.525311984135895"><ele>712.1666666666666</ele><time>2026-04-18T11:11:55Z</time></trkpt><trkpt lat="44.18520506394903" lon="11.525395225005028"><ele>713.0</ele><time>2026-04-18T11:11:58Z</time></trkpt><trkpt lat="44.18528387471312" lon="11.525454505676102"><ele>713.0</ele><time>2026-04-18T11:12:01Z</time></trkpt><trkpt lat="44.1853690490358" lon="11.525476783695249"><ele>713.0</ele><time>2026-04-18T11:12:04Z</time></trkpt><trkpt lat="44.185453713271244" lon="11.525510255017076"><ele>713.0</ele><time>2026-04-18T11:12:07Z</time></trkpt><trkpt lat="44.1855280945364" lon="11.525553870419776"><ele>713.0</ele><time>2026-04-18T11:12:10Z</time></trkpt><trkpt lat="44.185618596571054" lon="11.525627861186809"><ele>713.0</ele><time>2026-04-18T11:12:13Z</time></trkpt><trkpt lat="44.185672712606944" lon="11.525696143515246"><ele>713.0</ele><time>2026-04-18T11:12:14Z</time></trkpt><trkpt lat="44.18573445761797" lon="11.525760663186844"><ele>714.5</ele><time>2026-04-18T11:12:15Z</time></trkpt><trkpt lat="44.18577807124719" lon="11.525848454023894"><ele>716.0</ele><time>2026-04-18T11:12:16Z</time></trkpt><trkpt lat="44.18580514162626" lon="11.525940917942052"><ele>717.5</ele><time>2026-04-18T11:12:17Z</time></trkpt><trkpt lat="44.18584681482995" lon="11.526057876638163"><ele>719.0</ele><time>2026-04-18T11:12:18Z</time></trkpt><trkpt lat="44.18590563886825" lon="11.52612291086546"><ele>720.5</ele><time>2026-04-18T11:12:19Z</time></trkpt><trkpt lat="44.18598718892878" lon="11.526200179057598"><ele>722.0</ele><time>2026-04-18T11:12:21Z</time></trkpt><trkpt lat="44.186099408247195" lon="11.526261721706677"><ele>722.0</ele><time>2026-04-18T11:12:23Z</time></trkpt><trkpt lat="44.18616047011964" lon="11.526188715084773"><ele>722.0</ele><time>2026-04-18T11:12:24Z</time></trkpt><trkpt lat="44.18624151757179" lon="11.526099850010047"><ele>722.0</ele><time>2026-04-18T11:12:25Z</time></trkpt><trkpt lat="44.1863476536499" lon="11.526073845906243"><ele>722.0</ele><time>2026-04-18T11:12:26Z</time></trkpt><trkpt lat="44.18639481813764" lon="11.52613777915464"><ele>722.0</ele><time>2026-04-18T11:12:27Z</time></trkpt><trkpt lat="44.186402112280724" lon="11.526268607962777"><ele>717.8</ele><time>2026-04-18T11:12:29Z</time></trkpt><trkpt lat="44.186458242749346" lon="11.526424802060802"><ele>713.6</ele><time>2026-04-18T11:12:31Z</time></trkpt><trkpt lat="44.186542629541655" lon="11.52644160353676"><ele>709.4</ele><time>2026-04-18T11:12:32Z</time></trkpt><trkpt lat="44.186623638562885" lon="11.526388226692363"><ele>705.1999999999999</ele><time>2026-04-18T11:12:33Z</time></trkpt><trkpt lat="44.18669506196969" lon="11.526408620804142"><ele>701.0</ele><time>2026-04-18T11:12:34Z</time></trkpt><trkpt lat="44.186785929179166" lon="11.526510992745285"><ele>700.3333333333333</ele><time>2026-04-18T11:12:36.001Z</time></trkpt><trkpt lat="44.18688510371328" lon="11.52665194718197"><ele>699.6666666666666</ele><time>2026-04-18T11:12:38.001Z</time></trkpt><trkpt lat="44.18690942651605" lon="11.52675899181649"><ele>699.0</ele><time>2026-04-18T11:12:39.001Z</time></trkpt><trkpt lat="44.186967265240376" lon="11.526812601654052"><ele>698.3333333333334</ele><time>2026-04-18T11:12:40.001Z</time></trkpt><trkpt lat="44.187032522249375" lon="11.526859192207754"><ele>697.6666666666667</ele><time>2026-04-18T11:12:41.001Z</time></trkpt><trkpt lat="44.18710650677159" lon="11.526906603698544"><ele>697.0</ele><time>2026-04-18T11:12:42.001Z</time></trkpt><trkpt lat="44.18718692670639" lon="11.526949302268992"><ele>697.0</ele><time>2026-04-18T11:12:43.001Z</time></trkpt><trkpt lat="44.187247712394175" lon="11.526978045778957"><ele>697.0</ele><time>2026-04-18T11:12:44.001Z</time></trkpt><trkpt lat="44.187307594110244" lon="11.527010901108492"><ele>697.0</ele><time>2026-04-18T11:12:45.001Z</time></trkpt><trkpt lat="44.18739193167644" lon="11.52716293132148"><ele>697.0</ele><time>2026-04-18T11:12:47.001Z</time></trkpt><trkpt lat="44.18742536976356" lon="11.527274416405742"><ele>697.0</ele><time>2026-04-18T11:12:48.001Z</time></trkpt><trkpt lat="44.187430948695464" lon="11.527389385327233"><ele>697.0</ele><time>2026-04-18T11:12:49.001Z</time></trkpt><trkpt lat="44.187463877478024" lon="11.52749249090423"><ele>696.1428571428571</ele><time>2026-04-18T11:12:50.001Z</time></trkpt><trkpt lat="44.1874960331236" lon="11.527595207287984"><ele>695.2857142857142</ele><time>2026-04-18T11:12:51.001Z</time></trkpt><trkpt lat="44.18750059718005" lon="11.527684081322652"><ele>694.4285714285713</ele><time>2026-04-18T11:12:52.001Z</time></trkpt><trkpt lat="44.18752839628666" lon="11.527783938577613"><ele>693.5714285714286</ele><time>2026-04-18T11:12:53.001Z</time></trkpt><trkpt lat="44.187565250424576" lon="11.52788541325342"><ele>692.7142857142857</ele><time>2026-04-18T11:12:54.001Z</time></trkpt><trkpt lat="44.18761260243096" lon="11.527945000309925"><ele>691.8571428571428</ele><time>2026-04-18T11:12:55.001Z</time></trkpt><trkpt lat="44.187676085562025" lon="11.527990905120669"><ele>691.0</ele><time>2026-04-18T11:12:56.001Z</time></trkpt><trkpt lat="44.18774734671944" lon="11.528063101484973"><ele>687.4</ele><time>2026-04-18T11:12:58.001Z</time></trkpt><trkpt lat="44.1878122717053" lon="11.528164387072176"><ele>683.8</ele><time>2026-04-18T11:13:00.001Z</time></trkpt><trkpt lat="44.1878858728811" lon="11.528277725740146"><ele>680.1999999999999</ele><time>2026-04-18T11:13:01.999Z</time></trkpt><trkpt lat="44.18797113402073" lon="11.528402542402874"><ele>676.5999999999999</ele><time>2026-04-18T11:13:03.999Z</time></trkpt><trkpt lat="44.18802777295763" lon="11.528459969476518"><ele>673.0</ele><time>2026-04-18T11:13:04.999Z</time></trkpt><trkpt lat="44.18810302930136" lon="11.52851399076573"><ele>673.0</ele><time>2026-04-18T11:13:05.999Z</time></trkpt><trkpt lat="44.18813199376492" lon="11.528592025651323"><ele>673.0</ele><time>2026-04-18T11:13:06.999Z</time></trkpt><trkpt lat="44.18821119653912" lon="11.528608244811306"><ele>673.0</ele><time>2026-04-18T11:13:08.999Z</time></trkpt><trkpt lat="44.188277993705064" lon="11.528614532105532"><ele>673.0</ele><time>2026-04-18T11:13:10.999Z</time></trkpt><trkpt lat="44.18834672670044" lon="11.52863837228425"><ele>673.0</ele><time>2026-04-18T11:13:12.999Z</time></trkpt><trkpt lat="44.18842326923464" lon="11.52869828795871"><ele>673.0</ele><time>2026-04-18T11:13:15Z</time></trkpt><trkpt lat="44.188497759967554" lon="11.528762308592471"><ele>673.2</ele><time>2026-04-18T11:13:17Z</time></trkpt><trkpt lat="44.18857144918503" lon="11.52880090602592"><ele>673.4</ele><time>2026-04-18T11:13:19Z</time></trkpt><trkpt lat="44.188655858065374" lon="11.528862153144578"><ele>673.6</ele><time>2026-04-18T11:13:21Z</time></trkpt><trkpt lat="44.18874061766947" lon="11.5289426134706"><ele>673.8000000000001</ele><time>2026-04-18T11:13:23Z</time></trkpt><trkpt lat="44.18881446590956" lon="11.529064862529852"><ele>674.0</ele><time>2026-04-18T11:13:25Z</time></trkpt><trkpt lat="44.18888534859207" lon="11.529151561161312"><ele>674.0</ele><time>2026-04-18T11:13:27Z</time></trkpt><trkpt lat="44.1889062717399" lon="11.529239492922922"><ele>674.0</ele><time>2026-04-18T11:13:29Z</time></trkpt><trkpt lat="44.18894499951449" lon="11.529331512418002"><ele>674.0</ele><time>2026-04-18T11:13:31Z</time></trkpt><trkpt lat="44.188987387743005" lon="11.529412001439676"><ele>674.0</ele><time>2026-04-18T11:13:33Z</time></trkpt><trkpt lat="44.189051555578544" lon="11.52952405609126"><ele>674.0</ele><time>2026-04-18T11:13:36Z</time></trkpt><trkpt lat="44.18911798681524" lon="11.529606146014002"><ele>674.0</ele><time>2026-04-18T11:13:38Z</time></trkpt><trkpt lat="44.189170995916314" lon="11.529691111622991"><ele>675.4000000000001</ele><time>2026-04-18T11:13:40Z</time></trkpt><trkpt lat="44.1892071950469" lon="11.529792745387802"><ele>676.8</ele><time>2026-04-18T11:13:42Z</time></trkpt><trkpt lat="44.18922489579429" lon="11.529891096981288"><ele>678.2</ele><time>2026-04-18T11:13:44Z</time></trkpt><trkpt lat="44.18924471448661" lon="11.53001173329951"><ele>679.5999999999999</ele><time>2026-04-18T11:13:46Z</time></trkpt><trkpt lat="44.18931043333128" lon="11.530133266954396"><ele>681.0</ele><time>2026-04-18T11:13:48Z</time></trkpt><trkpt lat="44.18938163554539" lon="11.530253767291631"><ele>679.8</ele><time>2026-04-18T11:13:50Z</time></trkpt><trkpt lat="44.18942872937305" lon="11.530393257601366"><ele>678.5999999999999</ele><time>2026-04-18T11:13:52Z</time></trkpt><trkpt lat="44.18944699025866" lon="11.530537986050877"><ele>677.4</ele><time>2026-04-18T11:13:54Z</time></trkpt><trkpt lat="44.189471279433604" lon="11.530684813670556"><ele>676.2</ele><time>2026-04-18T11:13:56Z</time></trkpt><trkpt lat="44.18950540124795" lon="11.530819885170496"><ele>675.0</ele><time>2026-04-18T11:13:58Z</time></trkpt><trkpt lat="44.18951853159086" lon="11.530966886465608"><ele>675.0</ele><time>2026-04-18T11:14:00Z</time></trkpt><trkpt lat="44.18957033366265" lon="11.531076856650085"><ele>675.0</ele><time>2026-04-18T11:14:02Z</time></trkpt><trkpt lat="44.189738102337316" lon="11.531283997387384"><ele>675.0</ele><time>2026-04-18T11:14:06Z</time></trkpt><trkpt lat="44.189800519697755" lon="11.5314126266427"><ele>675.0</ele><time>2026-04-18T11:14:08Z</time></trkpt><trkpt lat="44.18982111304144" lon="11.531567299910796"><ele>679.2</ele><time>2026-04-18T11:14:10Z</time></trkpt><trkpt lat="44.18985408835415" lon="11.531704487980015"><ele>683.4</ele><time>2026-04-18T11:14:12Z</time></trkpt><trkpt lat="44.18991745894509" lon="11.531812262103369"><ele>687.5999999999999</ele><time>2026-04-18T11:14:14Z</time></trkpt><trkpt lat="44.190015937559295" lon="11.53183461154196"><ele>691.8</ele><time>2026-04-18T11:14:16Z</time></trkpt><trkpt lat="44.19010978036916" lon="11.531868750055645"><ele>696.0</ele><time>2026-04-18T11:14:18Z</time></trkpt><trkpt lat="44.19021123478205" lon="11.531907795110456"><ele>696.0</ele><time>2026-04-18T11:14:20Z</time></trkpt><trkpt lat="44.19031188163638" lon="11.531973746559352"><ele>696.0</ele><time>2026-04-18T11:14:22.001Z</time></trkpt><trkpt lat="44.19038664627546" lon="11.532076305415602"><ele>696.0</ele><time>2026-04-18T11:14:24.001Z</time></trkpt><trkpt lat="44.190449382162406" lon="11.532163437232896"><ele>696.0</ele><time>2026-04-18T11:14:26.001Z</time></trkpt><trkpt lat="44.19050728277583" lon="11.53225874361409"><ele>696.0</ele><time>2026-04-18T11:14:29.001Z</time></trkpt><trkpt lat="44.190554801315955" lon="11.532321045244652"><ele>695.5714285714286</ele><time>2026-04-18T11:14:31.001Z</time></trkpt><trkpt lat="44.1905969003384" lon="11.532391107289314"><ele>695.1428571428571</ele><time>2026-04-18T11:14:33.001Z</time></trkpt><trkpt lat="44.19064854242139" lon="11.532467109863147"><ele>694.7142857142858</ele><time>2026-04-18T11:14:35.001Z</time></trkpt><trkpt lat="44.19068393537233" lon="11.532549088504723"><ele>694.2857142857142</ele><time>2026-04-18T11:14:37.001Z</time></trkpt><trkpt lat="44.19070408140334" lon="11.532666013287288"><ele>693.8571428571429</ele><time>2026-04-18T11:14:40.001Z</time></trkpt><trkpt lat="44.1907166500449" lon="11.532754848149501"><ele>693.4285714285714</ele><time>2026-04-18T11:14:42.001Z</time></trkpt><trkpt lat="44.19072613736509" lon="11.532846556879566"><ele>693.0</ele><time>2026-04-18T11:14:44.001Z</time></trkpt><trkpt lat="44.19074063036653" lon="11.532968873325496"><ele>694.5</ele><time>2026-04-18T11:14:47.001Z</time></trkpt><trkpt lat="44.190760204597886" lon="11.533053461653585"><ele>696.0</ele><time>2026-04-18T11:14:49.001Z</time></trkpt><trkpt lat="44.190799722692695" lon="11.533165723237317"><ele>697.5</ele><time>2026-04-18T11:14:52.001Z</time></trkpt><trkpt lat="44.19084613303133" lon="11.533257418433884"><ele>699.0</ele><time>2026-04-18T11:14:55.001Z</time></trkpt><trkpt lat="44.190898294286384" lon="11.53338116717785"><ele>700.5</ele><time>2026-04-18T11:14:58.001Z</time></trkpt><trkpt lat="44.19095791970273" lon="11.53349824340916"><ele>702.0</ele><time>2026-04-18T11:15:00.001Z</time></trkpt><trkpt lat="44.19105722380998" lon="11.53359736963497"><ele>702.0</ele><time>2026-04-18T11:15:02.001Z</time></trkpt><trkpt lat="44.19116256936943" lon="11.533673163347128"><ele>702.0</ele><time>2026-04-18T11:15:04.001Z</time></trkpt><trkpt lat="44.19125020505364" lon="11.533747578987935"><ele>702.0</ele><time>2026-04-18T11:15:06.001Z</time></trkpt><trkpt lat="44.19133164601031" lon="11.53383019509445"><ele>702.0</ele><time>2026-04-18T11:15:07.999Z</time></trkpt><trkpt lat="44.19142617368846" lon="11.533915496258746"><ele>702.0</ele><time>2026-04-18T11:15:09.999Z</time></trkpt><trkpt lat="44.19151862966259" lon="11.533984808714346"><ele>703.6</ele><time>2026-04-18T11:15:11.999Z</time></trkpt><trkpt lat="44.19160111209251" lon="11.5340735747873"><ele>705.2</ele><time>2026-04-18T11:15:13.999Z</time></trkpt><trkpt lat="44.191687658670176" lon="11.534163460438013"><ele>706.8</ele><time>2026-04-18T11:15:15.999Z</time></trkpt><trkpt lat="44.191757542678744" lon="11.53426345673633"><ele>708.4</ele><time>2026-04-18T11:15:18Z</time></trkpt><trkpt lat="44.19180691326918" lon="11.534396679251174"><ele>710.0</ele><time>2026-04-18T11:15:20Z</time></trkpt><trkpt lat="44.19182735571928" lon="11.534489628154049"><ele>711.6</ele><time>2026-04-18T11:15:21Z</time></trkpt><trkpt lat="44.1918444035242" lon="11.534591899042487"><ele>713.2</ele><time>2026-04-18T11:15:22Z</time></trkpt><trkpt lat="44.19185358787363" lon="11.534685321427714"><ele>714.8</ele><time>2026-04-18T11:15:23Z</time></trkpt><trkpt lat="44.191886547058424" lon="11.534848555530631"><ele>716.4</ele><time>2026-04-18T11:15:25Z</time></trkpt><trkpt lat="44.19191832091372" lon="11.535004664636759"><ele>718.0</ele><time>2026-04-18T11:15:27Z</time></trkpt><trkpt lat="44.19199794261549" lon="11.535137682749902"><ele>718.0</ele><time>2026-04-18T11:15:29Z</time></trkpt><trkpt lat="44.192076337995076" lon="11.53526629929523"><ele>718.0</ele><time>2026-04-18T11:15:31Z</time></trkpt><trkpt lat="44.19216530947319" lon="11.535396088599644"><ele>718.0</ele><time>2026-04-18T11:15:33Z</time></trkpt><trkpt lat="44.19225851679062" lon="11.535498252597604"><ele>718.0</ele><time>2026-04-18T11:15:35Z</time></trkpt><trkpt lat="44.192338190452126" lon="11.535596389635336"><ele>715.1666666666667</ele><time>2026-04-18T11:15:37Z</time></trkpt><trkpt lat="44.192409711967414" lon="11.535663358809625"><ele>712.3333333333334</ele><time>2026-04-18T11:15:39Z</time></trkpt><trkpt lat="44.192488367583216" lon="11.535705824392426"><ele>709.5</ele><time>2026-04-18T11:15:41Z</time></trkpt><trkpt lat="44.19259012211083" lon="11.535712804531771"><ele>706.6666666666666</ele><time>2026-04-18T11:15:43Z</time></trkpt><trkpt lat="44.192670380305664" lon="11.535678579034169"><ele>703.8333333333333</ele><time>2026-04-18T11:15:44Z</time></trkpt><trkpt lat="44.19273658427588" lon="11.535657559688245"><ele>701.0</ele><time>2026-04-18T11:15:45Z</time></trkpt><trkpt lat="44.19281213072524" lon="11.535616676075618"><ele>701.0</ele><time>2026-04-18T11:15:46Z</time></trkpt><trkpt lat="44.192869928253934" lon="11.535513680217823"><ele>701.0</ele><time>2026-04-18T11:15:47Z</time></trkpt><trkpt lat="44.19295356420732" lon="11.535390480621654"><ele>701.0</ele><time>2026-04-18T11:15:49Z</time></trkpt><trkpt lat="44.193045008583645" lon="11.535272296642209"><ele>701.0</ele><time>2026-04-18T11:15:51Z</time></trkpt><trkpt lat="44.193107606163046" lon="11.53524060931287"><ele>701.0</ele><time>2026-04-18T11:15:52Z</time></trkpt><trkpt lat="44.193223953524495" lon="11.535268101357419"><ele>699.3333333333333</ele><time>2026-04-18T11:15:54Z</time></trkpt><trkpt lat="44.19329071186705" lon="11.535306498681974"><ele>697.6666666666666</ele><time>2026-04-18T11:15:55Z</time></trkpt><trkpt lat="44.193368333939716" lon="11.535322989928826"><ele>696.0</ele><time>2026-04-18T11:15:56Z</time></trkpt><trkpt lat="44.19345771566708" lon="11.535312334279736"><ele>694.3333333333334</ele><time>2026-04-18T11:15:57Z</time></trkpt><trkpt lat="44.19356005479436" lon="11.535306324212465"><ele>692.6666666666667</ele><time>2026-04-18T11:15:58Z</time></trkpt><trkpt lat="44.19364839731263" lon="11.535337803369053"><ele>691.0</ele><time>2026-04-18T11:15:59Z</time></trkpt><trkpt lat="44.19374081969593" lon="11.535379014900068"><ele>689.5999999999999</ele><time>2026-04-18T11:16:00Z</time></trkpt><trkpt lat="44.193820173810764" lon="11.535416082024115"><ele>688.2</ele><time>2026-04-18T11:16:01Z</time></trkpt><trkpt lat="44.19388143703968" lon="11.535500263899394"><ele>686.8</ele><time>2026-04-18T11:16:02Z</time></trkpt><trkpt lat="44.19394506697349" lon="11.535611470914048"><ele>685.4000000000001</ele><time>2026-04-18T11:16:03Z</time></trkpt><trkpt lat="44.19401262180784" lon="11.53570200828451"><ele>684.0</ele><time>2026-04-18T11:16:04Z</time></trkpt><trkpt lat="44.194096070473186" lon="11.535788949059526"><ele>684.0</ele><time>2026-04-18T11:16:05Z</time></trkpt><trkpt lat="44.19419634406686" lon="11.535827314252536"><ele>684.0</ele><time>2026-04-18T11:16:06Z</time></trkpt><trkpt lat="44.19430843383942" lon="11.535857577379804"><ele>684.0</ele><time>2026-04-18T11:16:07Z</time></trkpt><trkpt lat="44.1944119950406" lon="11.535888798129983"><ele>684.0</ele><time>2026-04-18T11:16:08Z</time></trkpt><trkpt lat="44.19451163340029" lon="11.53592150867612"><ele>684.0</ele><time>2026-04-18T11:16:09Z</time></trkpt><trkpt lat="44.1946015415005" lon="11.535968059849235"><ele>684.0</ele><time>2026-04-18T11:16:10.001Z</time></trkpt><trkpt lat="44.194667086536015" lon="11.535994221550334"><ele>684.0</ele><time>2026-04-18T11:16:11.001Z</time></trkpt><trkpt lat="44.19475395341747" lon="11.536025852112589"><ele>684.0</ele><time>2026-04-18T11:16:12.001Z</time></trkpt><trkpt lat="44.194876592202064" lon="11.536062485117652"><ele>684.0</ele><time>2026-04-18T11:16:13.001Z</time></trkpt><trkpt lat="44.1949740425838" lon="11.536082124362416"><ele>684.0</ele><time>2026-04-18T11:16:14.001Z</time></trkpt><trkpt lat="44.19506743331984" lon="11.536106909167717"><ele>680.25</ele><time>2026-04-18T11:16:15.001Z</time></trkpt><trkpt lat="44.19517380604251" lon="11.536163719929267"><ele>676.5</ele><time>2026-04-18T11:16:16.001Z</time></trkpt><trkpt lat="44.19526564965243" lon="11.5362500216546"><ele>672.75</ele><time>2026-04-18T11:16:17.001Z</time></trkpt><trkpt lat="44.19536759103184" lon="11.536334692596611"><ele>669.0</ele><time>2026-04-18T11:16:18.001Z</time></trkpt><trkpt lat="44.19549102231434" lon="11.536413620125483"><ele>667.5</ele><time>2026-04-18T11:16:19.001Z</time></trkpt><trkpt lat="44.195599701181884" lon="11.536468260613784"><ele>666.0</ele><time>2026-04-18T11:16:20.001Z</time></trkpt><trkpt lat="44.19572144919923" lon="11.536582915998371"><ele>664.5</ele><time>2026-04-18T11:16:21.001Z</time></trkpt><trkpt lat="44.1958100313243" lon="11.536685750046752"><ele>663.0</ele><time>2026-04-18T11:16:22.001Z</time></trkpt><trkpt lat="44.19587354142847" lon="11.536814211179632"><ele>663.0</ele><time>2026-04-18T11:16:23.001Z</time></trkpt><trkpt lat="44.19593304808499" lon="11.536916554208887"><ele>663.0</ele><time>2026-04-18T11:16:24.001Z</time></trkpt><trkpt lat="44.19600557948776" lon="11.536986325383802"><ele>663.0</ele><time>2026-04-18T11:16:25.001Z</time></trkpt><trkpt lat="44.19608014370253" lon="11.537017485041757"><ele>663.0</ele><time>2026-04-18T11:16:26.001Z</time></trkpt><trkpt lat="44.19615195446213" lon="11.536973361207732"><ele>663.0</ele><time>2026-04-18T11:16:28.001Z</time></trkpt><trkpt lat="44.19621751597962" lon="11.53701364939065"><ele>663.0</ele><time>2026-04-18T11:16:29.001Z</time></trkpt><trkpt lat="44.19628384386358" lon="11.537041375476555"><ele>661.5714285714286</ele><time>2026-04-18T11:16:31.001Z</time></trkpt><trkpt lat="44.19635320753415" lon="11.537084969553785"><ele>660.1428571428571</ele><time>2026-04-18T11:16:33.001Z</time></trkpt><trkpt lat="44.19642818408886" lon="11.537089279883576"><ele>658.7142857142858</ele><time>2026-04-18T11:16:35.001Z</time></trkpt><trkpt lat="44.19649277579524" lon="11.537117272187547"><ele>657.2857142857142</ele><time>2026-04-18T11:16:37.001Z</time></trkpt><trkpt lat="44.19656208992886" lon="11.537139155122185"><ele>655.8571428571429</ele><time>2026-04-18T11:16:39.001Z</time></trkpt><trkpt lat="44.1966279674426" lon="11.537154165177007"><ele>654.4285714285714</ele><time>2026-04-18T11:16:41.001Z</time></trkpt><trkpt lat="44.19670667748425" lon="11.537201543666974"><ele>653.0</ele><time>2026-04-18T11:16:44.001Z</time></trkpt><trkpt lat="44.19676664987959" lon="11.5372364703722"><ele>658.2857142857143</ele><time>2026-04-18T11:16:46.001Z</time></trkpt><trkpt lat="44.19684341845174" lon="11.537248623469319"><ele>663.5714285714286</ele><time>2026-04-18T11:16:49.001Z</time></trkpt><trkpt lat="44.196911412179354" lon="11.53726539850002"><ele>668.8571428571429</ele><time>2026-04-18T11:16:51.001Z</time></trkpt><trkpt lat="44.196974180784075" lon="11.537277386652553"><ele>674.1428571428571</ele><time>2026-04-18T11:16:53.001Z</time></trkpt><trkpt lat="44.197065748228866" lon="11.537275808457279"><ele>679.4285714285714</ele><time>2026-04-18T11:16:56.001Z</time></trkpt><trkpt lat="44.19713545397848" lon="11.537296110827935"><ele>684.7142857142858</ele><time>2026-04-18T11:16:59.001Z</time></trkpt><trkpt lat="44.197184590331496" lon="11.537363484273381"><ele>690.0</ele><time>2026-04-18T11:17:02.001Z</time></trkpt><trkpt lat="44.19723261220267" lon="11.537439142781855"><ele>690.0</ele><time>2026-04-18T11:17:05.001Z</time></trkpt><trkpt lat="44.197263992749505" lon="11.537535913495221"><ele>690.0</ele><time>2026-04-18T11:17:07.001Z</time></trkpt><trkpt lat="44.19727108938533" lon="11.537678603811894"><ele>690.0</ele><time>2026-04-18T11:17:09.001Z</time></trkpt><trkpt lat="44.197253620500135" lon="11.53777868778168"><ele>690.0</ele><time>2026-04-18T11:17:10.001Z</time></trkpt><trkpt lat="44.19725164047101" lon="11.537885751947073"><ele>690.0</ele><time>2026-04-18T11:17:11.001Z</time></trkpt><trkpt lat="44.19723864044957" lon="11.53800120644918"><ele>690.0</ele><time>2026-04-18T11:17:12.001Z</time></trkpt><trkpt lat="44.19723097867645" lon="11.538128254109271"><ele>687.2</ele><time>2026-04-18T11:17:13Z</time></trkpt><trkpt lat="44.197206830252284" lon="11.538241053748468"><ele>684.4</ele><time>2026-04-18T11:17:14Z</time></trkpt><trkpt lat="44.197158827664" lon="11.538345313770831"><ele>681.5999999999999</ele><time>2026-04-18T11:17:15Z</time></trkpt><trkpt lat="44.197078708095496" lon="11.53847662780901"><ele>678.8</ele><time>2026-04-18T11:17:16Z</time></trkpt><trkpt lat="44.19704630691995" lon="11.53861974407345"><ele>676.0</ele><time>2026-04-18T11:17:17Z</time></trkpt><trkpt lat="44.197046344782414" lon="11.538784246043614"><ele>670.25</ele><time>2026-04-18T11:17:18Z</time></trkpt><trkpt lat="44.1970457750323" lon="11.538960220753445"><ele>664.5</ele><time>2026-04-18T11:17:19Z</time></trkpt><trkpt lat="44.197037712214325" lon="11.539120021410099"><ele>658.75</ele><time>2026-04-18T11:17:20Z</time></trkpt><trkpt lat="44.19702974494106" lon="11.53926442806104"><ele>653.0</ele><time>2026-04-18T11:17:21Z</time></trkpt><trkpt lat="44.19702761401004" lon="11.539429429114834"><ele>651.4</ele><time>2026-04-18T11:17:22Z</time></trkpt><trkpt lat="44.1970481850844" lon="11.539589300319733"><ele>649.8</ele><time>2026-04-18T11:17:23Z</time></trkpt><trkpt lat="44.19705647782672" lon="11.539750826973378"><ele>648.2</ele><time>2026-04-18T11:17:24Z</time></trkpt><trkpt lat="44.197054854040815" lon="11.539910211932712"><ele>646.6</ele><time>2026-04-18T11:17:25Z</time></trkpt><trkpt lat="44.197071891940276" lon="11.540048839991153"><ele>645.0</ele><time>2026-04-18T11:17:26Z</time></trkpt><trkpt lat="44.19711889049992" lon="11.540178405564728"><ele>645.0</ele><time>2026-04-18T11:17:27Z</time></trkpt><trkpt lat="44.19718168195915" lon="11.540262149487848"><ele>645.0</ele><time>2026-04-18T11:17:28Z</time></trkpt><trkpt lat="44.19727241321147" lon="11.540339107208434"><ele>645.0</ele><time>2026-04-18T11:17:29Z</time></trkpt><trkpt lat="44.19737296002412" lon="11.540414526149213"><ele>645.0</ele><time>2026-04-18T11:17:30Z</time></trkpt><trkpt lat="44.197443201000794" lon="11.540531129926954"><ele>645.0</ele><time>2026-04-18T11:17:31Z</time></trkpt><trkpt lat="44.1975076876103" lon="11.540654242268817"><ele>648.2</ele><time>2026-04-18T11:17:32Z</time></trkpt><trkpt lat="44.19756460908654" lon="11.540755483451072"><ele>651.4</ele><time>2026-04-18T11:17:33Z</time></trkpt><trkpt lat="44.19764921389277" lon="11.540861590053256"><ele>654.5999999999999</ele><time>2026-04-18T11:17:34Z</time></trkpt><trkpt lat="44.19774520930377" lon="11.540963800611124"><ele>657.8</ele><time>2026-04-18T11:17:35Z</time></trkpt><trkpt lat="44.197836110581655" lon="11.541027892077457"><ele>661.0</ele><time>2026-04-18T11:17:36Z</time></trkpt><trkpt lat="44.197951385411315" lon="11.541091223978643"><ele>661.0</ele><time>2026-04-18T11:17:37Z</time></trkpt><trkpt lat="44.198057394707696" lon="11.541151529233458"><ele>661.0</ele><time>2026-04-18T11:17:38Z</time></trkpt><trkpt lat="44.198155998381345" lon="11.541213691408082"><ele>661.0</ele><time>2026-04-18T11:17:39Z</time></trkpt><trkpt lat="44.1982613225666" lon="11.541265116140162"><ele>661.0</ele><time>2026-04-18T11:17:40Z</time></trkpt><trkpt lat="44.198359491313774" lon="11.541320519060159"><ele>661.0</ele><time>2026-04-18T11:17:41Z</time></trkpt><trkpt lat="44.19845959258799" lon="11.541373973174638"><ele>662.5999999999999</ele><time>2026-04-18T11:17:42Z</time></trkpt><trkpt lat="44.19855256693954" lon="11.541422510129268"><ele>664.2</ele><time>2026-04-18T11:17:43Z</time></trkpt><trkpt lat="44.19864663149004" lon="11.541434442186631"><ele>665.8</ele><time>2026-04-18T11:17:44Z</time></trkpt><trkpt lat="44.19874672707122" lon="11.541413325298992"><ele>667.4000000000001</ele><time>2026-04-18T11:17:45Z</time></trkpt><trkpt lat="44.198844120510934" lon="11.541383290951636"><ele>669.0</ele><time>2026-04-18T11:17:46Z</time></trkpt><trkpt lat="44.198937586209055" lon="11.541341407563344"><ele>669.2</ele><time>2026-04-18T11:17:47Z</time></trkpt><trkpt lat="44.1990032613668" lon="11.541230107753861"><ele>669.4000000000001</ele><time>2026-04-18T11:17:48Z</time></trkpt><trkpt lat="44.199059525397196" lon="11.541124985707835"><ele>669.6</ele><time>2026-04-18T11:17:49Z</time></trkpt><trkpt lat="44.199121867073934" lon="11.541035536420589"><ele>669.8</ele><time>2026-04-18T11:17:50Z</time></trkpt><trkpt lat="44.19919505972142" lon="11.540967515921635"><ele>670.0</ele><time>2026-04-18T11:17:51Z</time></trkpt><trkpt lat="44.19928108102997" lon="11.540936523916146"><ele>666.2</ele><time>2026-04-18T11:17:52Z</time></trkpt><trkpt lat="44.19934849598796" lon="11.541005629636155"><ele>662.4</ele><time>2026-04-18T11:17:53Z</time></trkpt><trkpt lat="44.19945486491575" lon="11.54102838191149"><ele>658.5999999999999</ele><time>2026-04-18T11:17:54Z</time></trkpt><trkpt lat="44.19954044540935" lon="11.541023781515173"><ele>654.8</ele><time>2026-04-18T11:17:55Z</time></trkpt><trkpt lat="44.199637321343246" lon="11.541023084104285"><ele>651.0</ele><time>2026-04-18T11:17:56Z</time></trkpt><trkpt lat="44.19971309649861" lon="11.541063055698919"><ele>651.0</ele><time>2026-04-18T11:17:57Z</time></trkpt><trkpt lat="44.19977755217595" lon="11.54113612946166"><ele>651.0</ele><time>2026-04-18T11:17:58Z</time></trkpt><trkpt lat="44.199848191133135" lon="11.54121123971168"><ele>651.0</ele><time>2026-04-18T11:17:59Z</time></trkpt><trkpt lat="44.19994864492274" lon="11.541283794569658"><ele>651.0</ele><time>2026-04-18T11:18:00Z</time></trkpt><trkpt lat="44.200030523269646" lon="11.541369234174718"><ele>651.0</ele><time>2026-04-18T11:18:01Z</time></trkpt><trkpt lat="44.200066384524405" lon="11.541491988190936"><ele>651.0</ele><time>2026-04-18T11:18:02Z</time></trkpt><trkpt lat="44.20005836413035" lon="11.541637037147655"><ele>651.0</ele><time>2026-04-18T11:18:03Z</time></trkpt><trkpt lat="44.200011513985814" lon="11.541766757746194"><ele>651.0</ele><time>2026-04-18T11:18:04Z</time></trkpt><trkpt lat="44.20000102782186" lon="11.541892748179762"><ele>651.0</ele><time>2026-04-18T11:18:05Z</time></trkpt><trkpt lat="44.20001029500081" lon="11.542017795504186"><ele>651.0</ele><time>2026-04-18T11:18:06Z</time></trkpt><trkpt lat="44.20001654633389" lon="11.542140503745133"><ele>653.1999999999999</ele><time>2026-04-18T11:18:07.001Z</time></trkpt><trkpt lat="44.2000330133002" lon="11.54227373113617"><ele>655.4</ele><time>2026-04-18T11:18:08.001Z</time></trkpt><trkpt lat="44.20005655285275" lon="11.542398727344134"><ele>657.6</ele><time>2026-04-18T11:18:09.001Z</time></trkpt><trkpt lat="44.20010886124854" lon="11.542500388418892"><ele>659.8</ele><time>2026-04-18T11:18:10.001Z</time></trkpt><trkpt lat="44.20018407608232" lon="11.54259170215764"><ele>662.0</ele><time>2026-04-18T11:18:11.001Z</time></trkpt><trkpt lat="44.20027948222999" lon="11.542626572867714"><ele>662.0</ele><time>2026-04-18T11:18:12.001Z</time></trkpt><trkpt lat="44.200372743216455" lon="11.542653413676137"><ele>662.0</ele><time>2026-04-18T11:18:13.001Z</time></trkpt><trkpt lat="44.20045122886645" lon="11.542692083502217"><ele>662.0</ele><time>2026-04-18T11:18:14.001Z</time></trkpt><trkpt lat="44.20054045001" lon="11.542744031734262"><ele>662.0</ele><time>2026-04-18T11:18:15.001Z</time></trkpt><trkpt lat="44.200615014337494" lon="11.542811916180227"><ele>662.0</ele><time>2026-04-18T11:18:16.001Z</time></trkpt><trkpt lat="44.20068948332241" lon="11.54286559857452"><ele>662.0</ele><time>2026-04-18T11:18:17.001Z</time></trkpt><trkpt lat="44.20075205721528" lon="11.542957362872551"><ele>661.1666666666666</ele><time>2026-04-18T11:18:18.001Z</time></trkpt><trkpt lat="44.200786435130155" lon="11.543058704213808"><ele>660.3333333333333</ele><time>2026-04-18T11:18:19.001Z</time></trkpt><trkpt lat="44.200851717274546" lon="11.54314548222311"><ele>659.5</ele><time>2026-04-18T11:18:20.001Z</time></trkpt><trkpt lat="44.200941958983364" lon="11.543223860111846"><ele>658.6666666666666</ele><time>2026-04-18T11:18:21.001Z</time></trkpt><trkpt lat="44.20102552069823" lon="11.543270097211265"><ele>657.8333333333334</ele><time>2026-04-18T11:18:22.001Z</time></trkpt><trkpt lat="44.20108509306152" lon="11.543332197195143"><ele>657.0</ele><time>2026-04-18T11:18:23.001Z</time></trkpt><trkpt lat="44.201146331233765" lon="11.543406715416133"><ele>657.0</ele><time>2026-04-18T11:18:24.001Z</time></trkpt><trkpt lat="44.20118518153488" lon="11.54352273476659"><ele>657.0</ele><time>2026-04-18T11:18:25.001Z</time></trkpt><trkpt lat="44.20120082906239" lon="11.543640504566659"><ele>657.0</ele><time>2026-04-18T11:18:26.001Z</time></trkpt><trkpt lat="44.2012393203317" lon="11.54374306778754"><ele>657.0</ele><time>2026-04-18T11:18:27.001Z</time></trkpt><trkpt lat="44.201256851938695" lon="11.543854081634326"><ele>657.0</ele><time>2026-04-18T11:18:28.001Z</time></trkpt><trkpt lat="44.20128649271911" lon="11.543958489762256"><ele>657.0</ele><time>2026-04-18T11:18:29.001Z</time></trkpt><trkpt lat="44.201313373781026" lon="11.54407109530937"><ele>655.6666666666666</ele><time>2026-04-18T11:18:30.001Z</time></trkpt><trkpt lat="44.201344207615485" lon="11.544182572349232"><ele>654.3333333333334</ele><time>2026-04-18T11:18:31.001Z</time></trkpt><trkpt lat="44.201372169620164" lon="11.544289416759456"><ele>653.0</ele><time>2026-04-18T11:18:32.001Z</time></trkpt><trkpt lat="44.20140659965791" lon="11.544382671137313"><ele>651.6666666666667</ele><time>2026-04-18T11:18:33.001Z</time></trkpt><trkpt lat="44.20145864352344" lon="11.544479900934014"><ele>650.3333333333334</ele><time>2026-04-18T11:18:34.001Z</time></trkpt><trkpt lat="44.201500679227806" lon="11.544574869484535"><ele>649.0</ele><time>2026-04-18T11:18:35.001Z</time></trkpt><trkpt lat="44.20155044343829" lon="11.544666678887875"><ele>649.0</ele><time>2026-04-18T11:18:36.001Z</time></trkpt><trkpt lat="44.20159620421666" lon="11.544757290385585"><ele>649.0</ele><time>2026-04-18T11:18:37.001Z</time></trkpt><trkpt lat="44.201637373698105" lon="11.544847402225924"><ele>649.0</ele><time>2026-04-18T11:18:38.001Z</time></trkpt><trkpt lat="44.20167735976644" lon="11.544935686646784"><ele>649.0</ele><time>2026-04-18T11:18:39.001Z</time></trkpt><trkpt lat="44.20172947654968" lon="11.545014258915915"><ele>649.0</ele><time>2026-04-18T11:18:40.001Z</time></trkpt><trkpt lat="44.20177835851137" lon="11.545105654392053"><ele>649.0</ele><time>2026-04-18T11:18:41.001Z</time></trkpt><trkpt lat="44.20183536603618" lon="11.545188104884593"><ele>649.0</ele><time>2026-04-18T11:18:42.001Z</time></trkpt><trkpt lat="44.20189932659827" lon="11.545257822980684"><ele>649.0</ele><time>2026-04-18T11:18:43.001Z</time></trkpt><trkpt lat="44.20196262732599" lon="11.54532132418943"><ele>649.0</ele><time>2026-04-18T11:18:44.001Z</time></trkpt><trkpt lat="44.20204428908746" lon="11.5453756967303"><ele>649.0</ele><time>2026-04-18T11:18:45.001Z</time></trkpt><trkpt lat="44.20211782619045" lon="11.545448527984213"><ele>649.0</ele><time>2026-04-18T11:18:46.001Z</time></trkpt><trkpt lat="44.202178392163226" lon="11.54552649237103"><ele>649.0</ele><time>2026-04-18T11:18:47.001Z</time></trkpt><trkpt lat="44.20223670076706" lon="11.545617178125068"><ele>650.3333333333334</ele><time>2026-04-18T11:18:48.001Z</time></trkpt><trkpt lat="44.202292537229106" lon="11.545714929075718"><ele>651.6666666666667</ele><time>2026-04-18T11:18:49.001Z</time></trkpt><trkpt lat="44.20233898200812" lon="11.545815210029774"><ele>653.0</ele><time>2026-04-18T11:18:50.001Z</time></trkpt><trkpt lat="44.202401965176335" lon="11.545901866541493"><ele>654.3333333333334</ele><time>2026-04-18T11:18:51.001Z</time></trkpt><trkpt lat="44.20247903900652" lon="11.545968113145454"><ele>655.6666666666666</ele><time>2026-04-18T11:18:52.001Z</time></trkpt><trkpt lat="44.202565261312365" lon="11.546010919862622"><ele>657.0</ele><time>2026-04-18T11:18:53.001Z</time></trkpt><trkpt lat="44.202645513025914" lon="11.54603176465732"><ele>652.8000000000001</ele><time>2026-04-18T11:18:54.001Z</time></trkpt><trkpt lat="44.20273445445018" lon="11.546076843456673"><ele>648.6</ele><time>2026-04-18T11:18:55.001Z</time></trkpt><trkpt lat="44.20280673875598" lon="11.546142161755725"><ele>644.4000000000001</ele><time>2026-04-18T11:18:56.001Z</time></trkpt><trkpt lat="44.20285905140355" lon="11.546256308664065"><ele>640.2</ele><time>2026-04-18T11:18:57.001Z</time></trkpt><trkpt lat="44.20287279086068" lon="11.54637852506984"><ele>636.0</ele><time>2026-04-18T11:18:58.001Z</time></trkpt><trkpt lat="44.20292272576173" lon="11.546496882021126"><ele>636.3333333333334</ele><time>2026-04-18T11:18:59.001Z</time></trkpt><trkpt lat="44.20300067331978" lon="11.546567843804493"><ele>636.6666666666666</ele><time>2026-04-18T11:19:00.001Z</time></trkpt><trkpt lat="44.20308215639231" lon="11.546564436711222"><ele>637.0</ele><time>2026-04-18T11:19:01.001Z</time></trkpt><trkpt lat="44.203147323981035" lon="11.54652459559373"><ele>637.3333333333333</ele><time>2026-04-18T11:19:02.001Z</time></trkpt><trkpt lat="44.20324640566937" lon="11.546483070534014"><ele>637.6666666666666</ele><time>2026-04-18T11:19:04.001Z</time></trkpt><trkpt lat="44.203333933017376" lon="11.546479467174587"><ele>638.0</ele><time>2026-04-18T11:19:06.001Z</time></trkpt><trkpt lat="44.203409384297366" lon="11.546504894011589"><ele>638.0</ele><time>2026-04-18T11:19:08.001Z</time></trkpt><trkpt lat="44.203476054836926" lon="11.546547823801752"><ele>638.0</ele><time>2026-04-18T11:19:10.001Z</time></trkpt><trkpt lat="44.20353792880888" lon="11.546606403638767"><ele>638.0</ele><time>2026-04-18T11:19:12.001Z</time></trkpt><trkpt lat="44.2035979239695" lon="11.546680497901233"><ele>638.0</ele><time>2026-04-18T11:19:14.001Z</time></trkpt><trkpt lat="44.20366078293266" lon="11.54674684620481"><ele>638.0</ele><time>2026-04-18T11:19:16.002Z</time></trkpt><trkpt lat="44.20372833136724" lon="11.5468038619432"><ele>638.0</ele><time>2026-04-18T11:19:18.002Z</time></trkpt><trkpt lat="44.20380130426325" lon="11.546838095184745"><ele>638.0</ele><time>2026-04-18T11:19:20.001Z</time></trkpt><trkpt lat="44.20390570664049" lon="11.546866051520349"><ele>638.0</ele><time>2026-04-18T11:19:23.001Z</time></trkpt><trkpt lat="44.203981248963686" lon="11.546862067048975"><ele>638.0</ele><time>2026-04-18T11:19:25.001Z</time></trkpt><trkpt lat="44.204050570956475" lon="11.546843380836927"><ele>638.0</ele><time>2026-04-18T11:19:27.001Z</time></trkpt><trkpt lat="44.2041174034825" lon="11.546835994636762"><ele>638.0</ele><time>2026-04-18T11:19:29.001Z</time></trkpt><trkpt lat="44.2041901062696" lon="11.546816938588247"><ele>638.0</ele><time>2026-04-18T11:19:31.001Z</time></trkpt><trkpt lat="44.20425672664742" lon="11.546803803908123"><ele>640.1666666666666</ele><time>2026-04-18T11:19:33.001Z</time></trkpt><trkpt lat="44.20432637303393" lon="11.54677081391949"><ele>642.3333333333333</ele><time>2026-04-18T11:19:35.001Z</time></trkpt><trkpt lat="44.204378638156896" lon="11.546701800389828"><ele>644.5</ele><time>2026-04-18T11:19:37.001Z</time></trkpt><trkpt lat="44.20441584332185" lon="11.546615743081015"><ele>646.6666666666666</ele><time>2026-04-18T11:19:39.001Z</time></trkpt><trkpt lat="44.204443656799384" lon="11.546510975293963"><ele>648.8333333333334</ele><time>2026-04-18T11:19:41.001Z</time></trkpt><trkpt lat="44.204485629985626" lon="11.546403547440203"><ele>651.0</ele><time>2026-04-18T11:19:43.001Z</time></trkpt><trkpt lat="44.20453780341825" lon="11.546312248887372"><ele>651.0</ele><time>2026-04-18T11:19:45.001Z</time></trkpt><trkpt lat="44.204605231801935" lon="11.546243462820593"><ele>651.0</ele><time>2026-04-18T11:19:47.001Z</time></trkpt><trkpt lat="44.204664850328996" lon="11.546164043659825"><ele>651.0</ele><time>2026-04-18T11:19:49.001Z</time></trkpt><trkpt lat="44.20471187212357" lon="11.54608236480033"><ele>651.0</ele><time>2026-04-18T11:19:51.001Z</time></trkpt><trkpt lat="44.204763465377" lon="11.545998666725637"><ele>651.0</ele><time>2026-04-18T11:19:53.001Z</time></trkpt><trkpt lat="44.204802713631324" lon="11.545894820079003"><ele>651.0</ele><time>2026-04-18T11:19:55.001Z</time></trkpt><trkpt lat="44.204844225659556" lon="11.545795598323163"><ele>651.4</ele><time>2026-04-18T11:19:57.001Z</time></trkpt><trkpt lat="44.204913293033464" lon="11.545726550194553"><ele>651.8</ele><time>2026-04-18T11:19:59.001Z</time></trkpt><trkpt lat="44.205011870015035" lon="11.545679409814614"><ele>652.1999999999999</ele><time>2026-04-18T11:20:01.001Z</time></trkpt><trkpt lat="44.20510622070934" lon="11.545614137378053"><ele>652.5999999999999</ele><time>2026-04-18T11:20:03.001Z</time></trkpt><trkpt lat="44.2051888115922" lon="11.545524958710415"><ele>653.0</ele><time>2026-04-18T11:20:05.001Z</time></trkpt><trkpt lat="44.205275457847904" lon="11.54541800300371"><ele>653.0</ele><time>2026-04-18T11:20:07.001Z</time></trkpt><trkpt lat="44.205387955439335" lon="11.545345309946924"><ele>653.0</ele><time>2026-04-18T11:20:09.001Z</time></trkpt><trkpt lat="44.205454817386816" lon="11.54535575502845"><ele>653.0</ele><time>2026-04-18T11:20:10.001Z</time></trkpt><trkpt lat="44.205517431685905" lon="11.54539333863071"><ele>653.0</ele><time>2026-04-18T11:20:11.001Z</time></trkpt><trkpt lat="44.20559132277899" lon="11.545418202611282"><ele>653.0</ele><time>2026-04-18T11:20:12.001Z</time></trkpt><trkpt lat="44.20567252923893" lon="11.54548269878239"><ele>653.0</ele><time>2026-04-18T11:20:13.001Z</time></trkpt><trkpt lat="44.2057379706295" lon="11.545559955104332"><ele>653.8</ele><time>2026-04-18T11:20:14.001Z</time></trkpt><trkpt lat="44.205782117240254" lon="11.5456600861048"><ele>654.5999999999999</ele><time>2026-04-18T11:20:15.001Z</time></trkpt><trkpt lat="44.20583149153814" lon="11.545770960307113"><ele>655.4000000000001</ele><time>2026-04-18T11:20:16.001Z</time></trkpt><trkpt lat="44.20588209177627" lon="11.54589489806901"><ele>656.2</ele><time>2026-04-18T11:20:17.001Z</time></trkpt><trkpt lat="44.20594966687292" lon="11.545960463613758"><ele>657.0</ele><time>2026-04-18T11:20:18.001Z</time></trkpt><trkpt lat="44.20603770436082" lon="11.546001636575213"><ele>657.0</ele><time>2026-04-18T11:20:19.001Z</time></trkpt><trkpt lat="44.20614377713079" lon="11.54603229043209"><ele>657.0</ele><time>2026-04-18T11:20:20.001Z</time></trkpt><trkpt lat="44.206235590351" lon="11.546052087689214"><ele>657.0</ele><time>2026-04-18T11:20:21.001Z</time></trkpt><trkpt lat="44.2063214795737" lon="11.546050237969071"><ele>657.0</ele><time>2026-04-18T11:20:22.001Z</time></trkpt><trkpt lat="44.206416315591305" lon="11.546066568515558"><ele>657.0</ele><time>2026-04-18T11:20:23.001Z</time></trkpt><trkpt lat="44.20650253832609" lon="11.546133083932896"><ele>654.8</ele><time>2026-04-18T11:20:24.001Z</time></trkpt><trkpt lat="44.20656150844756" lon="11.546241373856303"><ele>652.6</ele><time>2026-04-18T11:20:25.001Z</time></trkpt><trkpt lat="44.20655998020922" lon="11.54638067450328"><ele>650.4</ele><time>2026-04-18T11:20:26.001Z</time></trkpt><trkpt lat="44.206523622978686" lon="11.546500802358716"><ele>648.1999999999999</ele><time>2026-04-18T11:20:27.001Z</time></trkpt><trkpt lat="44.20649077521498" lon="11.546620288909429"><ele>646.0</ele><time>2026-04-18T11:20:28.001Z</time></trkpt><trkpt lat="44.20648795543155" lon="11.546758061302981"><ele>646.0</ele><time>2026-04-18T11:20:29.001Z</time></trkpt><trkpt lat="44.20652237321074" lon="11.546879937429031"><ele>646.0</ele><time>2026-04-18T11:20:30.001Z</time></trkpt><trkpt lat="44.20654185041226" lon="11.546991722296491"><ele>646.0</ele><time>2026-04-18T11:20:31.001Z</time></trkpt><trkpt lat="44.206555606096565" lon="11.547094429552466"><ele>646.0</ele><time>2026-04-18T11:20:32.001Z</time></trkpt><trkpt lat="44.20658114351755" lon="11.547216025927135"><ele>646.0</ele><time>2026-04-18T11:20:33.001Z</time></trkpt><trkpt lat="44.2066285896753" lon="11.547330937897312"><ele>646.0</ele><time>2026-04-18T11:20:34.001Z</time></trkpt><trkpt lat="44.2066712530355" lon="11.547435381136397"><ele>646.6666666666667</ele><time>2026-04-18T11:20:35.001Z</time></trkpt><trkpt lat="44.20672942943579" lon="11.547524393849002"><ele>647.3333333333334</ele><time>2026-04-18T11:20:36.001Z</time></trkpt><trkpt lat="44.206809411760055" lon="11.547585755917972"><ele>648.0</ele><time>2026-04-18T11:20:37.001Z</time></trkpt><trkpt lat="44.20688978208376" lon="11.547618982740511"><ele>648.6666666666666</ele><time>2026-04-18T11:20:38.001Z</time></trkpt><trkpt lat="44.20696976747408" lon="11.547646603206328"><ele>649.3333333333333</ele><time>2026-04-18T11:20:39.001Z</time></trkpt><trkpt lat="44.20705248001886" lon="11.547679418515061"><ele>650.0</ele><time>2026-04-18T11:20:40.001Z</time></trkpt><trkpt lat="44.207133385607335" lon="11.547711127538062"><ele>650.0</ele><time>2026-04-18T11:20:41.001Z</time></trkpt><trkpt lat="44.20720882902727" lon="11.547753833333937"><ele>650.0</ele><time>2026-04-18T11:20:42.001Z</time></trkpt><trkpt lat="44.20728009300465" lon="11.547831638969111"><ele>650.0</ele><time>2026-04-18T11:20:43.001Z</time></trkpt><trkpt lat="44.20735263953801" lon="11.54791594184429"><ele>650.0</ele><time>2026-04-18T11:20:44.001Z</time></trkpt><trkpt lat="44.207398205757606" lon="11.54801020253332"><ele>650.0</ele><time>2026-04-18T11:20:45.001Z</time></trkpt><trkpt lat="44.20743068316983" lon="11.548136287707658"><ele>650.0</ele><time>2026-04-18T11:20:46.001Z</time></trkpt><trkpt lat="44.20748044488437" lon="11.548241019649959"><ele>648.8</ele><time>2026-04-18T11:20:47.001Z</time></trkpt><trkpt lat="44.20753210504431" lon="11.548347151770297"><ele>647.6</ele><time>2026-04-18T11:20:48.001Z</time></trkpt><trkpt lat="44.20756407863739" lon="11.548476157270306"><ele>646.4000000000001</ele><time>2026-04-18T11:20:49.001Z</time></trkpt><trkpt lat="44.20760270638061" lon="11.54858288479706"><ele>645.2</ele><time>2026-04-18T11:20:50.001Z</time></trkpt><trkpt lat="44.20763350599965" lon="11.548701019553006"><ele>644.0</ele><time>2026-04-18T11:20:51.001Z</time></trkpt><trkpt lat="44.20765766047886" lon="11.548830652410823"><ele>644.0</ele><time>2026-04-18T11:20:52.001Z</time></trkpt><trkpt lat="44.20765711622878" lon="11.548946982425587"><ele>644.0</ele><time>2026-04-18T11:20:53.001Z</time></trkpt><trkpt lat="44.20766714494145" lon="11.549068281276625"><ele>644.0</ele><time>2026-04-18T11:20:54.001Z</time></trkpt><trkpt lat="44.207655279937256" lon="11.549192112052523"><ele>644.0</ele><time>2026-04-18T11:20:55.001Z</time></trkpt><trkpt lat="44.207669342533976" lon="11.549323315720256"><ele>644.0</ele><time>2026-04-18T11:20:56.001Z</time></trkpt><trkpt lat="44.207717550555564" lon="11.549440573226038"><ele>644.0</ele><time>2026-04-18T11:20:57.001Z</time></trkpt><trkpt lat="44.2077922434791" lon="11.549526409435094"><ele>644.0</ele><time>2026-04-18T11:20:58.001Z</time></trkpt><trkpt lat="44.20787583752288" lon="11.549579326987772"><ele>644.0</ele><time>2026-04-18T11:20:59.002Z</time></trkpt><trkpt lat="44.20793777918406" lon="11.549634720878412"><ele>644.0</ele><time>2026-04-18T11:21:00.002Z</time></trkpt><trkpt lat="44.20799175163898" lon="11.549727556441205"><ele>644.0</ele><time>2026-04-18T11:21:01.002Z</time></trkpt><trkpt lat="44.208033687256865" lon="11.549837762090146"><ele>644.0</ele><time>2026-04-18T11:21:02.002Z</time></trkpt><trkpt lat="44.20805940837587" lon="11.549947239492102"><ele>645.8333333333333</ele><time>2026-04-18T11:21:03.002Z</time></trkpt><trkpt lat="44.2080898763227" lon="11.55006389755646"><ele>647.6666666666666</ele><time>2026-04-18T11:21:04.002Z</time></trkpt><trkpt lat="44.20813967426628" lon="11.550182425537786"><ele>649.5</ele><time>2026-04-18T11:21:05.002Z</time></trkpt><trkpt lat="44.20819065131243" lon="11.550273220848156"><ele>651.3333333333334</ele><time>2026-04-18T11:21:06.002Z</time></trkpt><trkpt lat="44.20827041466542" lon="11.550345893778475"><ele>653.1666666666667</ele><time>2026-04-18T11:21:07.002Z</time></trkpt><trkpt lat="44.20832447203134" lon="11.550435261425998"><ele>655.0</ele><time>2026-04-18T11:21:08.002Z</time></trkpt><trkpt lat="44.20832844731237" lon="11.55055570000375"><ele>654.6</ele><time>2026-04-18T11:21:09.002Z</time></trkpt><trkpt lat="44.20829263362838" lon="11.550676107902381"><ele>654.2</ele><time>2026-04-18T11:21:10.002Z</time></trkpt><trkpt lat="44.208232614359034" lon="11.550779366271717"><ele>653.8</ele><time>2026-04-18T11:21:11.002Z</time></trkpt><trkpt lat="44.208165200446395" lon="11.550863189255583"><ele>653.4</ele><time>2026-04-18T11:21:12.002Z</time></trkpt><trkpt lat="44.20810742458165" lon="11.550964584893322"><ele>653.0</ele><time>2026-04-18T11:21:13.002Z</time></trkpt><trkpt lat="44.20806331629109" lon="11.551064878222753"><ele>653.0</ele><time>2026-04-18T11:21:14.002Z</time></trkpt><trkpt lat="44.208010878717104" lon="11.551169188440054"><ele>653.0</ele><time>2026-04-18T11:21:15.002Z</time></trkpt><trkpt lat="44.207942033898966" lon="11.551246965000859"><ele>653.0</ele><time>2026-04-18T11:21:16.002Z</time></trkpt><trkpt lat="44.20786854592249" lon="11.551311505672462"><ele>653.0</ele><time>2026-04-18T11:21:17.002Z</time></trkpt><trkpt lat="44.20779122819693" lon="11.551382664730413"><ele>653.0</ele><time>2026-04-18T11:21:18.002Z</time></trkpt><trkpt lat="44.20771407190151" lon="11.551447560780385"><ele>653.0</ele><time>2026-04-18T11:21:19.002Z</time></trkpt><trkpt lat="44.207630303666356" lon="11.55149708665167"><ele>648.6666666666666</ele><time>2026-04-18T11:21:20.002Z</time></trkpt><trkpt lat="44.207543177784544" lon="11.55151841497526"><ele>644.3333333333333</ele><time>2026-04-18T11:21:21.002Z</time></trkpt><trkpt lat="44.20746196014886" lon="11.551560374955725"><ele>640.0</ele><time>2026-04-18T11:21:22.002Z</time></trkpt><trkpt lat="44.2074012458157" lon="11.55164271734768"><ele>635.6666666666666</ele><time>2026-04-18T11:21:23.002Z</time></trkpt><trkpt lat="44.207340631770236" lon="11.55173859693561"><ele>631.3333333333334</ele><time>2026-04-18T11:21:24.002Z</time></trkpt><trkpt lat="44.20727639746485" lon="11.551837182281849"><ele>627.0</ele><time>2026-04-18T11:21:25.002Z</time></trkpt><trkpt lat="44.20722362167703" lon="11.551937370020195"><ele>623.6666666666666</ele><time>2026-04-18T11:21:26.002Z</time></trkpt><trkpt lat="44.207181094992144" lon="11.552046139201885"><ele>620.3333333333334</ele><time>2026-04-18T11:21:27.001Z</time></trkpt><trkpt lat="44.20713901743968" lon="11.552161591133663"><ele>617.0</ele><time>2026-04-18T11:21:28.001Z</time></trkpt><trkpt lat="44.20709986908328" lon="11.552264342028327"><ele>613.6666666666667</ele><time>2026-04-18T11:21:29.001Z</time></trkpt><trkpt lat="44.207065257732005" lon="11.552361746834356"><ele>610.3333333333334</ele><time>2026-04-18T11:21:30.001Z</time></trkpt><trkpt lat="44.20703179774618" lon="11.552457503661987"><ele>607.0</ele><time>2026-04-18T11:21:31.001Z</time></trkpt><trkpt lat="44.2069781944193" lon="11.552605511914688"><ele>607.0</ele><time>2026-04-18T11:21:33.001Z</time></trkpt><trkpt lat="44.20695788198529" lon="11.552726726402913"><ele>607.0</ele><time>2026-04-18T11:21:35.001Z</time></trkpt><trkpt lat="44.20692164286886" lon="11.552838820751964"><ele>607.0</ele><time>2026-04-18T11:21:37.001Z</time></trkpt><trkpt lat="44.206887952445" lon="11.552921248960631"><ele>607.0</ele><time>2026-04-18T11:21:39.001Z</time></trkpt><trkpt lat="44.20686778452952" lon="11.553062481492688"><ele>607.0</ele><time>2026-04-18T11:21:42.001Z</time></trkpt><trkpt lat="44.20688804162652" lon="11.553177587092467"><ele>607.0</ele><time>2026-04-18T11:21:44.001Z</time></trkpt><trkpt lat="44.20692348312602" lon="11.553288589609142"><ele>607.6</ele><time>2026-04-18T11:21:46.001Z</time></trkpt><trkpt lat="44.206979752093055" lon="11.553388221943212"><ele>608.2</ele><time>2026-04-18T11:21:48.001Z</time></trkpt><trkpt lat="44.207035875776135" lon="11.553504722921277"><ele>608.8</ele><time>2026-04-18T11:21:50.001Z</time></trkpt><trkpt lat="44.20707280968373" lon="11.553670554160265"><ele>609.4</ele><time>2026-04-18T11:21:52.001Z</time></trkpt><trkpt lat="44.207060787253276" lon="11.553757282707528"><ele>610.0</ele><time>2026-04-18T11:21:53.001Z</time></trkpt><trkpt lat="44.207089412007555" lon="11.55392859558677"><ele>608.7142857142858</ele><time>2026-04-18T11:21:55.001Z</time></trkpt><trkpt lat="44.207090786897126" lon="11.554027664858808"><ele>607.4285714285713</ele><time>2026-04-18T11:21:56.001Z</time></trkpt><trkpt lat="44.20710628912751" lon="11.55411541643091"><ele>606.1428571428571</ele><time>2026-04-18T11:21:57.001Z</time></trkpt><trkpt lat="44.207142482950324" lon="11.55419583267452"><ele>604.8571428571429</ele><time>2026-04-18T11:21:58.001Z</time></trkpt><trkpt lat="44.20718447670759" lon="11.55427082143886"><ele>603.5714285714287</ele><time>2026-04-18T11:21:59.001Z</time></trkpt><trkpt lat="44.2072312495183" lon="11.55436464378861"><ele>602.2857142857142</ele><time>2026-04-18T11:22:00.001Z</time></trkpt><trkpt lat="44.20725671467644" lon="11.554470900972253"><ele>601.0</ele><time>2026-04-18T11:22:01.001Z</time></trkpt><trkpt lat="44.20723555240824" lon="11.554579289486679"><ele>598.3333333333334</ele><time>2026-04-18T11:22:02.001Z</time></trkpt><trkpt lat="44.207245393670554" lon="11.554686530943039"><ele>595.6666666666667</ele><time>2026-04-18T11:22:03.001Z</time></trkpt><trkpt lat="44.20724230352444" lon="11.5547988031374"><ele>593.0</ele><time>2026-04-18T11:22:04.001Z</time></trkpt><trkpt lat="44.207232963667344" lon="11.554913794327875"><ele>590.3333333333334</ele><time>2026-04-18T11:22:05.001Z</time></trkpt><trkpt lat="44.20725002132276" lon="11.555033422760408"><ele>587.6666666666666</ele><time>2026-04-18T11:22:06.001Z</time></trkpt><trkpt lat="44.20727200567274" lon="11.555158118021783"><ele>585.0</ele><time>2026-04-18T11:22:07.001Z</time></trkpt><trkpt lat="44.20729292068142" lon="11.555285629417606"><ele>585.4</ele><time>2026-04-18T11:22:08.001Z</time></trkpt><trkpt lat="44.207320943538555" lon="11.555411098933384"><ele>585.8</ele><time>2026-04-18T11:22:09.001Z</time></trkpt><trkpt lat="44.20734765943252" lon="11.555543657348785"><ele>586.2</ele><time>2026-04-18T11:22:10.001Z</time></trkpt><trkpt lat="44.207346058616274" lon="11.555682907591182"><ele>586.6</ele><time>2026-04-18T11:22:11.001Z</time></trkpt><trkpt lat="44.2073188736232" lon="11.555808793334242"><ele>587.0</ele><time>2026-04-18T11:22:12.001Z</time></trkpt><trkpt lat="44.207267452683325" lon="11.555932587037214"><ele>587.0</ele><time>2026-04-18T11:22:13.001Z</time></trkpt><trkpt lat="44.207215236871114" lon="11.556028810050433"><ele>587.0</ele><time>2026-04-18T11:22:14.001Z</time></trkpt><trkpt lat="44.207168963360495" lon="11.556123113337355"><ele>587.0</ele><time>2026-04-18T11:22:15.001Z</time></trkpt><trkpt lat="44.207143307506755" lon="11.556211755229208"><ele>587.0</ele><time>2026-04-18T11:22:16.001Z</time></trkpt><trkpt lat="44.207135410515264" lon="11.556320826657702"><ele>587.0</ele><time>2026-04-18T11:22:17.001Z</time></trkpt><trkpt lat="44.20712914685726" lon="11.556425309794594"><ele>587.0</ele><time>2026-04-18T11:22:18.001Z</time></trkpt><trkpt lat="44.20712982548107" lon="11.55653047919456"><ele>588.0</ele><time>2026-04-18T11:22:19.001Z</time></trkpt><trkpt lat="44.20713474606546" lon="11.556639429043516"><ele>589.0</ele><time>2026-04-18T11:22:20.001Z</time></trkpt><trkpt lat="44.20713051411399" lon="11.55674525495093"><ele>590.0</ele><time>2026-04-18T11:22:21.001Z</time></trkpt><trkpt lat="44.20711479983869" lon="11.556847670843565"><ele>591.0</ele><time>2026-04-18T11:22:22.001Z</time></trkpt><trkpt lat="44.207082694899675" lon="11.5569346093401"><ele>592.0</ele><time>2026-04-18T11:22:23.001Z</time></trkpt><trkpt lat="44.20704255730559" lon="11.55701925268928"><ele>593.0</ele><time>2026-04-18T11:22:24.001Z</time></trkpt><trkpt lat="44.20701198797223" lon="11.55711202740167"><ele>594.0</ele><time>2026-04-18T11:22:25.001Z</time></trkpt><trkpt lat="44.2069604719557" lon="11.557285021283658"><ele>595.0</ele><time>2026-04-18T11:22:27.001Z</time></trkpt><trkpt lat="44.206944304978286" lon="11.557383156381803"><ele>596.0</ele><time>2026-04-18T11:22:28.001Z</time></trkpt><trkpt lat="44.206935595495416" lon="11.557483107565337"><ele>597.0</ele><time>2026-04-18T11:22:29.001Z</time></trkpt><trkpt lat="44.20691833813172" lon="11.557579507250722"><ele>598.0</ele><time>2026-04-18T11:22:30.001Z</time></trkpt><trkpt lat="44.20690184812828" lon="11.55766701363427"><ele>599.0</ele><time>2026-04-18T11:22:31.001Z</time></trkpt><trkpt lat="44.206879391700866" lon="11.557755076348512"><ele>600.0</ele><time>2026-04-18T11:22:32.001Z</time></trkpt><trkpt lat="44.206838194473626" lon="11.557899163311864"><ele>602.6</ele><time>2026-04-18T11:22:34.001Z</time></trkpt><trkpt lat="44.206822220282184" lon="11.558028479417427"><ele>605.2</ele><time>2026-04-18T11:22:36.001Z</time></trkpt><trkpt lat="44.20681619305001" lon="11.558162515175862"><ele>607.8</ele><time>2026-04-18T11:22:38.001Z</time></trkpt><trkpt lat="44.206819990982346" lon="11.558294381434527"><ele>610.4</ele><time>2026-04-18T11:22:40.001Z</time></trkpt><trkpt lat="44.20683912354677" lon="11.558427226557516"><ele>613.0</ele><time>2026-04-18T11:22:42.001Z</time></trkpt><trkpt lat="44.20686144260546" lon="11.55854689546006"><ele>613.0</ele><time>2026-04-18T11:22:44.001Z</time></trkpt><trkpt lat="44.206892988865434" lon="11.558681850120013"><ele>613.0</ele><time>2026-04-18T11:22:46.001Z</time></trkpt><trkpt lat="44.206925925510994" lon="11.55881600084108"><ele>613.0</ele><time>2026-04-18T11:22:48.001Z</time></trkpt><trkpt lat="44.206967436601175" lon="11.558944102236351"><ele>613.0</ele><time>2026-04-18T11:22:50.001Z</time></trkpt><trkpt lat="44.20700068541773" lon="11.559107152322095"><ele>613.0</ele><time>2026-04-18T11:22:52.001Z</time></trkpt><trkpt lat="44.20705409204916" lon="11.559259298727508"><ele>613.6</ele><time>2026-04-18T11:22:54.001Z</time></trkpt><trkpt lat="44.20709198725518" lon="11.559333836330632"><ele>614.1999999999999</ele><time>2026-04-18T11:22:55.001Z</time></trkpt><trkpt lat="44.20714524344408" lon="11.559398667874648"><ele>614.8</ele><time>2026-04-18T11:22:56.001Z</time></trkpt><trkpt lat="44.20723240779026" lon="11.55951013299668"><ele>615.4</ele><time>2026-04-18T11:22:58.001Z</time></trkpt><trkpt lat="44.207316548167604" lon="11.559634374520176"><ele>616.0</ele><time>2026-04-18T11:23:00.001Z</time></trkpt><trkpt lat="44.20740081426314" lon="11.559768450766919"><ele>616.0</ele><time>2026-04-18T11:23:02.001Z</time></trkpt><trkpt lat="44.20747855314606" lon="11.559887348862878"><ele>616.0</ele><time>2026-04-18T11:23:04.001Z</time></trkpt><trkpt lat="44.207559062059104" lon="11.560004640686046"><ele>616.0</ele><time>2026-04-18T11:23:06.001Z</time></trkpt><trkpt lat="44.20764052086292" lon="11.560125497134116"><ele>616.0</ele><time>2026-04-18T11:23:08.001Z</time></trkpt><trkpt lat="44.20768643372121" lon="11.560194532380237"><ele>616.0</ele><time>2026-04-18T11:23:09.001Z</time></trkpt><trkpt lat="44.20776540493028" lon="11.560309825622836"><ele>617.0</ele><time>2026-04-18T11:23:11.001Z</time></trkpt><trkpt lat="44.207855134476894" lon="11.560421071780143"><ele>618.0</ele><time>2026-04-18T11:23:13.001Z</time></trkpt><trkpt lat="44.20791508090368" lon="11.560475962900886"><ele>619.0</ele><time>2026-04-18T11:23:14.001Z</time></trkpt><trkpt lat="44.207975267570916" lon="11.560516012413716"><ele>620.0</ele><time>2026-04-18T11:23:15.001Z</time></trkpt><trkpt lat="44.208039933763004" lon="11.56055518159525"><ele>621.0</ele><time>2026-04-18T11:23:16.001Z</time></trkpt><trkpt lat="44.208110221588946" lon="11.560581430643376"><ele>622.0</ele><time>2026-04-18T11:23:17.001Z</time></trkpt><trkpt lat="44.20821496112208" lon="11.560656674985083"><ele>622.0</ele><time>2026-04-18T11:23:19.001Z</time></trkpt><trkpt lat="44.208269959499695" lon="11.560721054025809"><ele>622.0</ele><time>2026-04-18T11:23:20.001Z</time></trkpt><trkpt lat="44.20833240776513" lon="11.560773262647038"><ele>622.0</ele><time>2026-04-18T11:23:21.001Z</time></trkpt><trkpt lat="44.20838233518137" lon="11.560854293773177"><ele>622.0</ele><time>2026-04-18T11:23:22.002Z</time></trkpt><trkpt lat="44.20843526697994" lon="11.560909624128321"><ele>622.0</ele><time>2026-04-18T11:23:23.002Z</time></trkpt><trkpt lat="44.208482747261876" lon="11.56100482480365"><ele>622.0</ele><time>2026-04-18T11:23:24.002Z</time></trkpt><trkpt lat="44.20853489499182" lon="11.56105765092284"><ele>622.0</ele><time>2026-04-18T11:23:25.002Z</time></trkpt><trkpt lat="44.208570235787626" lon="11.561133198021531"><ele>619.4285714285714</ele><time>2026-04-18T11:23:26.002Z</time></trkpt><trkpt lat="44.208613214406576" lon="11.56121094174485"><ele>616.8571428571429</ele><time>2026-04-18T11:23:27.002Z</time></trkpt><trkpt lat="44.20865979226189" lon="11.561289684908454"><ele>614.2857142857143</ele><time>2026-04-18T11:23:28.002Z</time></trkpt><trkpt lat="44.20869908780303" lon="11.561367960517833"><ele>611.7142857142858</ele><time>2026-04-18T11:23:29.002Z</time></trkpt><trkpt lat="44.20874583600018" lon="11.561445817104708"><ele>609.1428571428571</ele><time>2026-04-18T11:23:30.002Z</time></trkpt><trkpt lat="44.20880667834647" lon="11.561529486732509"><ele>606.5714285714287</ele><time>2026-04-18T11:23:31.001Z</time></trkpt><trkpt lat="44.20887407237503" lon="11.561562891174946"><ele>604.0</ele><time>2026-04-18T11:23:32.001Z</time></trkpt><trkpt lat="44.208939227076506" lon="11.561595545188368"><ele>606.7142857142858</ele><time>2026-04-18T11:23:33.001Z</time></trkpt><trkpt lat="44.20901464570168" lon="11.561640142103501"><ele>609.4285714285714</ele><time>2026-04-18T11:23:34.001Z</time></trkpt><trkpt lat="44.209074085644815" lon="11.56172005643936"><ele>612.1428571428571</ele><time>2026-04-18T11:23:35.001Z</time></trkpt><trkpt lat="44.20910999501054" lon="11.561803405757317"><ele>614.8571428571429</ele><time>2026-04-18T11:23:36.001Z</time></trkpt><trkpt lat="44.209149668863965" lon="11.561876543973979"><ele>617.5714285714286</ele><time>2026-04-18T11:23:37.001Z</time></trkpt><trkpt lat="44.20918911556906" lon="11.56195125296241"><ele>620.2857142857143</ele><time>2026-04-18T11:23:38.001Z</time></trkpt><trkpt lat="44.20922804308524" lon="11.562041764131186"><ele>623.0</ele><time>2026-04-18T11:23:39.001Z</time></trkpt><trkpt lat="44.20926709338877" lon="11.562118516243231"><ele>623.0</ele><time>2026-04-18T11:23:40.001Z</time></trkpt><trkpt lat="44.209306823017194" lon="11.562201696958079"><ele>623.0</ele><time>2026-04-18T11:23:41.001Z</time></trkpt><trkpt lat="44.209336949460855" lon="11.562289263474806"><ele>623.0</ele><time>2026-04-18T11:23:42.001Z</time></trkpt><trkpt lat="44.20935673900658" lon="11.562391321807462"><ele>623.0</ele><time>2026-04-18T11:23:43.001Z</time></trkpt><trkpt lat="44.209333861336944" lon="11.562499489162231"><ele>623.0</ele><time>2026-04-18T11:23:44.001Z</time></trkpt><trkpt lat="44.209304363787936" lon="11.56258495978464"><ele>623.0</ele><time>2026-04-18T11:23:45.001Z</time></trkpt><trkpt lat="44.20927085568392" lon="11.562669070909328"><ele>623.0</ele><time>2026-04-18T11:23:46.001Z</time></trkpt><trkpt lat="44.209246908649305" lon="11.562765361567303"><ele>622.0</ele><time>2026-04-18T11:23:47.001Z</time></trkpt><trkpt lat="44.20919510075664" lon="11.56291523110849"><ele>621.0</ele><time>2026-04-18T11:23:49.001Z</time></trkpt><trkpt lat="44.20921022834056" lon="11.563003351710169"><ele>620.0</ele><time>2026-04-18T11:23:50.001Z</time></trkpt><trkpt lat="44.20924991915621" lon="11.563081423357172"><ele>619.0</ele><time>2026-04-18T11:23:51.001Z</time></trkpt><trkpt lat="44.20930207924886" lon="11.563133632274802"><ele>618.0</ele><time>2026-04-18T11:23:52.001Z</time></trkpt><trkpt lat="44.209398850811624" lon="11.563203324808335"><ele>617.0</ele><time>2026-04-18T11:23:54.001Z</time></trkpt><trkpt lat="44.209487708630085" lon="11.56326373625424"><ele>617.0</ele><time>2026-04-18T11:23:56.001Z</time></trkpt><trkpt lat="44.209563855211314" lon="11.563316835490859"><ele>617.0</ele><time>2026-04-18T11:23:58.001Z</time></trkpt><trkpt lat="44.209631538300606" lon="11.563383764443609"><ele>617.0</ele><time>2026-04-18T11:24:00.001Z</time></trkpt><trkpt lat="44.209701334009594" lon="11.563461063677265"><ele>617.0</ele><time>2026-04-18T11:24:02.001Z</time></trkpt><trkpt lat="44.20975383488702" lon="11.56355545673943"><ele>617.0</ele><time>2026-04-18T11:24:04.001Z</time></trkpt><trkpt lat="44.20979939833813" lon="11.563661867800661"><ele>617.0</ele><time>2026-04-18T11:24:06.001Z</time></trkpt><trkpt lat="44.209850409416994" lon="11.563764769335666"><ele>617.4</ele><time>2026-04-18T11:24:08.001Z</time></trkpt><trkpt lat="44.209913828409576" lon="11.563853540202553"><ele>617.8000000000001</ele><time>2026-04-18T11:24:10.001Z</time></trkpt><trkpt lat="44.21000794334551" lon="11.563913237821138"><ele>618.2</ele><time>2026-04-18T11:24:12.001Z</time></trkpt><trkpt lat="44.210123187325536" lon="11.563984501090866"><ele>618.6</ele><time>2026-04-18T11:24:14.001Z</time></trkpt><trkpt lat="44.21019344253685" lon="11.563999348968533"><ele>619.0</ele><time>2026-04-18T11:24:15.001Z</time></trkpt><trkpt lat="44.21024662795712" lon="11.564056218288016"><ele>619.0</ele><time>2026-04-18T11:24:16.001Z</time></trkpt><trkpt lat="44.21030147447945" lon="11.56410702628107"><ele>619.0</ele><time>2026-04-18T11:24:17.001Z</time></trkpt><trkpt lat="44.21033636552437" lon="11.564206526144417"><ele>619.0</ele><time>2026-04-18T11:24:18.001Z</time></trkpt><trkpt lat="44.2103302669587" lon="11.564377431130808"><ele>619.0</ele><time>2026-04-18T11:24:20.001Z</time></trkpt><trkpt lat="44.2103653130886" lon="11.564473656296007"><ele>619.0</ele><time>2026-04-18T11:24:21.001Z</time></trkpt><trkpt lat="44.21042482276036" lon="11.564556397249591"><ele>619.0</ele><time>2026-04-18T11:24:22.001Z</time></trkpt><trkpt lat="44.21047823835687" lon="11.564632670537078"><ele>617.5</ele><time>2026-04-18T11:24:23.001Z</time></trkpt><trkpt lat="44.21053093058691" lon="11.56471822460297"><ele>616.0</ele><time>2026-04-18T11:24:24.001Z</time></trkpt><trkpt lat="44.21057984674438" lon="11.564808563821027"><ele>614.5</ele><time>2026-04-18T11:24:25.001Z</time></trkpt><trkpt lat="44.21063261649804" lon="11.564908318768017"><ele>613.0</ele><time>2026-04-18T11:24:26.001Z</time></trkpt><trkpt lat="44.210691989348916" lon="11.565016235751317"><ele>611.5</ele><time>2026-04-18T11:24:27.001Z</time></trkpt><trkpt lat="44.21074679394434" lon="11.565115157237107"><ele>610.0</ele><time>2026-04-18T11:24:28.001Z</time></trkpt><trkpt lat="44.21081135092753" lon="11.56523233311289"><ele>610.0</ele><time>2026-04-18T11:24:29.001Z</time></trkpt><trkpt lat="44.21087983264091" lon="11.565322111790758"><ele>610.0</ele><time>2026-04-18T11:24:30.001Z</time></trkpt><trkpt lat="44.21093237309984" lon="11.565459136022533"><ele>610.0</ele><time>2026-04-18T11:24:31.001Z</time></trkpt><trkpt lat="44.210992700831895" lon="11.565576972402768"><ele>610.0</ele><time>2026-04-18T11:24:32.001Z</time></trkpt><trkpt lat="44.21106408535458" lon="11.565714299517738"><ele>610.0</ele><time>2026-04-18T11:24:33.001Z</time></trkpt><trkpt lat="44.211167300463785" lon="11.565815316318789"><ele>610.6</ele><time>2026-04-18T11:24:34.001Z</time></trkpt><trkpt lat="44.21125690109994" lon="11.5659068414833"><ele>611.2</ele><time>2026-04-18T11:24:35.001Z</time></trkpt><trkpt lat="44.21134324958635" lon="11.565987943550907"><ele>611.8</ele><time>2026-04-18T11:24:36.001Z</time></trkpt><trkpt lat="44.21141262305244" lon="11.56607018005605"><ele>612.4</ele><time>2026-04-18T11:24:37.001Z</time></trkpt><trkpt lat="44.21146912974815" lon="11.566181711913153"><ele>613.0</ele><time>2026-04-18T11:24:38.001Z</time></trkpt><trkpt lat="44.21151972675886" lon="11.566275986873547"><ele>613.0</ele><time>2026-04-18T11:24:39.001Z</time></trkpt><trkpt lat="44.21155365501744" lon="11.566367851061942"><ele>613.0</ele><time>2026-04-18T11:24:40.001Z</time></trkpt><trkpt lat="44.211557043740775" lon="11.566497481507326"><ele>613.0</ele><time>2026-04-18T11:24:41.001Z</time></trkpt><trkpt lat="44.211545192989945" lon="11.566600136385727"><ele>613.0</ele><time>2026-04-18T11:24:42.001Z</time></trkpt><trkpt lat="44.211534210765805" lon="11.566705113556543"><ele>613.0</ele><time>2026-04-18T11:24:43.001Z</time></trkpt><trkpt lat="44.211502170000834" lon="11.566864103715353"><ele>613.0</ele><time>2026-04-18T11:24:45.001Z</time></trkpt><trkpt lat="44.21149008674952" lon="11.566958185537407"><ele>613.0</ele><time>2026-04-18T11:24:46.001Z</time></trkpt><trkpt lat="44.21148715389634" lon="11.567047508886073"><ele>613.0</ele><time>2026-04-18T11:24:47.001Z</time></trkpt><trkpt lat="44.211509157201284" lon="11.567134917914359"><ele>613.0</ele><time>2026-04-18T11:24:48.001Z</time></trkpt><trkpt lat="44.21154224826802" lon="11.56720979417755"><ele>613.0</ele><time>2026-04-18T11:24:49.001Z</time></trkpt><trkpt lat="44.21160497160073" lon="11.567344093410425"><ele>613.0</ele><time>2026-04-18T11:24:51.001Z</time></trkpt><trkpt lat="44.21162964399661" lon="11.567444331450682"><ele>613.0</ele><time>2026-04-18T11:24:52.001Z</time></trkpt><trkpt lat="44.21163253675212" lon="11.567605109577523"><ele>613.0</ele><time>2026-04-18T11:24:54.001Z</time></trkpt><trkpt lat="44.21162093365916" lon="11.567716178864258"><ele>613.0</ele><time>2026-04-18T11:24:55.001Z</time></trkpt><trkpt lat="44.21160231448645" lon="11.567806927527078"><ele>613.0</ele><time>2026-04-18T11:24:56.001Z</time></trkpt><trkpt lat="44.2115872670614" lon="11.567893589010847"><ele>613.0</ele><time>2026-04-18T11:24:57.001Z</time></trkpt><trkpt lat="44.21159791630089" lon="11.567989299953673"><ele>613.0</ele><time>2026-04-18T11:24:58.001Z</time></trkpt><trkpt lat="44.21162234774029" lon="11.568088760659553"><ele>613.0</ele><time>2026-04-18T11:24:59.001Z</time></trkpt><trkpt lat="44.21166043379228" lon="11.568171997788466"><ele>613.0</ele><time>2026-04-18T11:25:00.001Z</time></trkpt><trkpt lat="44.211704761909154" lon="11.568253863078086"><ele>613.0</ele><time>2026-04-18T11:25:01.001Z</time></trkpt><trkpt lat="44.21173943154575" lon="11.56833646204246"><ele>613.0</ele><time>2026-04-18T11:25:02.001Z</time></trkpt><trkpt lat="44.211783011551695" lon="11.5684975891618"><ele>613.0</ele><time>2026-04-18T11:25:04.001Z</time></trkpt><trkpt lat="44.21177766159758" lon="11.568609565710727"><ele>613.0</ele><time>2026-04-18T11:25:05.001Z</time></trkpt><trkpt lat="44.211792951901565" lon="11.568700306475758"><ele>613.0</ele><time>2026-04-18T11:25:06.001Z</time></trkpt><trkpt lat="44.21184311272192" lon="11.568768624932229"><ele>613.0</ele><time>2026-04-18T11:25:07.001Z</time></trkpt><trkpt lat="44.21188401130746" lon="11.568852865128619"><ele>611.5</ele><time>2026-04-18T11:25:08.001Z</time></trkpt><trkpt lat="44.21190754297454" lon="11.56894184681466"><ele>610.0</ele><time>2026-04-18T11:25:09.001Z</time></trkpt><trkpt lat="44.211915428262934" lon="11.569043087518669"><ele>608.5</ele><time>2026-04-18T11:25:10.001Z</time></trkpt><trkpt lat="44.211908138899844" lon="11.569151806957043"><ele>607.0</ele><time>2026-04-18T11:25:11.001Z</time></trkpt><trkpt lat="44.211892823414935" lon="11.569260287475979"><ele>605.5</ele><time>2026-04-18T11:25:12.001Z</time></trkpt><trkpt lat="44.2118676594855" lon="11.569372692987708"><ele>604.0</ele><time>2026-04-18T11:25:13.001Z</time></trkpt><trkpt lat="44.21183685050369" lon="11.569478063300938"><ele>603.6666666666667</ele><time>2026-04-18T11:25:14.001Z</time></trkpt><trkpt lat="44.21179726800577" lon="11.56957409961311"><ele>603.3333333333334</ele><time>2026-04-18T11:25:15.001Z</time></trkpt><trkpt lat="44.21174990541011" lon="11.569670767922052"><ele>603.0</ele><time>2026-04-18T11:25:16.001Z</time></trkpt><trkpt lat="44.2117072436366" lon="11.56976558481257"><ele>602.6666666666666</ele><time>2026-04-18T11:25:17.001Z</time></trkpt><trkpt lat="44.211676807101476" lon="11.569868985269535"><ele>602.3333333333333</ele><time>2026-04-18T11:25:18.001Z</time></trkpt><trkpt lat="44.21165954423561" lon="11.56998105706816"><ele>602.0</ele><time>2026-04-18T11:25:19.001Z</time></trkpt><trkpt lat="44.21167927339558" lon="11.570093644627427"><ele>602.0</ele><time>2026-04-18T11:25:20.001Z</time></trkpt><trkpt lat="44.21171419081069" lon="11.570195002221743"><ele>602.0</ele><time>2026-04-18T11:25:21.001Z</time></trkpt><trkpt lat="44.211787366586265" lon="11.570278929532682"><ele>602.0</ele><time>2026-04-18T11:25:22.001Z</time></trkpt><trkpt lat="44.211872343299504" lon="11.570338596749538"><ele>602.0</ele><time>2026-04-18T11:25:23.001Z</time></trkpt><trkpt lat="44.21194225200939" lon="11.570423462543275"><ele>602.0</ele><time>2026-04-18T11:25:24.001Z</time></trkpt><trkpt lat="44.212001402713696" lon="11.570495179677279"><ele>602.0</ele><time>2026-04-18T11:25:25.001Z</time></trkpt><trkpt lat="44.21206280438362" lon="11.570575099160116"><ele>602.3333333333333</ele><time>2026-04-18T11:25:26.001Z</time></trkpt><trkpt lat="44.21212921165012" lon="11.570663267647628"><ele>602.6666666666666</ele><time>2026-04-18T11:25:27.001Z</time></trkpt><trkpt lat="44.21218934728317" lon="11.570743800589364"><ele>603.0</ele><time>2026-04-18T11:25:28.001Z</time></trkpt><trkpt lat="44.212243872772085" lon="11.570821079358856"><ele>603.3333333333334</ele><time>2026-04-18T11:25:29.001Z</time></trkpt><trkpt lat="44.21229858570692" lon="11.570904912491288"><ele>603.6666666666667</ele><time>2026-04-18T11:25:30.001Z</time></trkpt><trkpt lat="44.21235146402831" lon="11.57100722236813"><ele>604.0</ele><time>2026-04-18T11:25:31.001Z</time></trkpt><trkpt lat="44.21239741660267" lon="11.571104176871899"><ele>604.8333333333334</ele><time>2026-04-18T11:25:32.001Z</time></trkpt><trkpt lat="44.21244016170812" lon="11.571197615128735"><ele>605.6666666666667</ele><time>2026-04-18T11:25:33.001Z</time></trkpt><trkpt lat="44.2124032526106" lon="11.571364847410765"><ele>606.5</ele><time>2026-04-18T11:25:35.001Z</time></trkpt><trkpt lat="44.21234726898491" lon="11.571421828423597"><ele>607.3333333333334</ele><time>2026-04-18T11:25:36.001Z</time></trkpt><trkpt lat="44.21232690412568" lon="11.571511621648519"><ele>608.1666666666666</ele><time>2026-04-18T11:25:37.001Z</time></trkpt><trkpt lat="44.21228474755896" lon="11.571603594983213"><ele>609.0</ele><time>2026-04-18T11:25:38.001Z</time></trkpt><trkpt lat="44.21226404207601" lon="11.571695810488581"><ele>607.2</ele><time>2026-04-18T11:25:39.001Z</time></trkpt><trkpt lat="44.21221043059299" lon="11.571820197546218"><ele>605.4</ele><time>2026-04-18T11:25:41.001Z</time></trkpt><trkpt lat="44.21219573408565" lon="11.571973040457781"><ele>603.6</ele><time>2026-04-18T11:25:43.001Z</time></trkpt><trkpt lat="44.21218638925059" lon="11.57210232548073"><ele>601.8</ele><time>2026-04-18T11:25:45.001Z</time></trkpt><trkpt lat="44.21217863329166" lon="11.57221818434517"><ele>600.0</ele><time>2026-04-18T11:25:47.001Z</time></trkpt><trkpt lat="44.212150419226035" lon="11.572333774204905"><ele>600.0</ele><time>2026-04-18T11:25:49.001Z</time></trkpt><trkpt lat="44.212106991458455" lon="11.572450350131115"><ele>600.0</ele><time>2026-04-18T11:25:52.001Z</time></trkpt><trkpt lat="44.21206141446494" lon="11.57253630446015"><ele>600.0</ele><time>2026-04-18T11:25:54.001Z</time></trkpt><trkpt lat="44.21200077416337" lon="11.57261711632785"><ele>600.0</ele><time>2026-04-18T11:25:57.001Z</time></trkpt><trkpt lat="44.21197243287529" lon="11.572699783909057"><ele>600.0</ele><time>2026-04-18T11:25:59.001Z</time></trkpt><trkpt lat="44.21193403659272" lon="11.57281493256392"><ele>600.0</ele><time>2026-04-18T11:26:02.001Z</time></trkpt><trkpt lat="44.21197242352165" lon="11.572897612951616"><ele>599.1666666666666</ele><time>2026-04-18T11:26:04.001Z</time></trkpt><trkpt lat="44.21198809896615" lon="11.572990566761598"><ele>598.3333333333334</ele><time>2026-04-18T11:26:06.001Z</time></trkpt><trkpt lat="44.21201987113687" lon="11.573084405614312"><ele>597.5</ele><time>2026-04-18T11:26:08.001Z</time></trkpt><trkpt lat="44.212060144947415" lon="11.573198864025825"><ele>596.6666666666667</ele><time>2026-04-18T11:26:10.001Z</time></trkpt><trkpt lat="44.21211397239908" lon="11.573302123805524"><ele>595.8333333333334</ele><time>2026-04-18T11:26:12.001Z</time></trkpt><trkpt lat="44.21214750157651" lon="11.573429214851092"><ele>595.0</ele><time>2026-04-18T11:26:14.001Z</time></trkpt><trkpt lat="44.21220942123867" lon="11.57353111607633"><ele>595.0</ele><time>2026-04-18T11:26:16.001Z</time></trkpt><trkpt lat="44.21225117933087" lon="11.573640094027155"><ele>595.0</ele><time>2026-04-18T11:26:18.001Z</time></trkpt><trkpt lat="44.21232253899362" lon="11.573739410583443"><ele>595.0</ele><time>2026-04-18T11:26:20.001Z</time></trkpt><trkpt lat="44.21239736051814" lon="11.573828203251667"><ele>595.0</ele><time>2026-04-18T11:26:22.001Z</time></trkpt><trkpt lat="44.2124800910128" lon="11.573917388075706"><ele>595.0</ele><time>2026-04-18T11:26:24.001Z</time></trkpt><trkpt lat="44.21255436894325" lon="11.574008496565225"><ele>599.4</ele><time>2026-04-18T11:26:26.001Z</time></trkpt><trkpt lat="44.21261847635789" lon="11.574109516277737"><ele>603.8</ele><time>2026-04-18T11:26:28.001Z</time></trkpt><trkpt lat="44.21268414509959" lon="11.574206630012993"><ele>608.2</ele><time>2026-04-18T11:26:30.001Z</time></trkpt><trkpt lat="44.21276276563939" lon="11.574277353861737"><ele>612.6</ele><time>2026-04-18T11:26:32.001Z</time></trkpt><trkpt lat="44.21284218708469" lon="11.574334866058257"><ele>617.0</ele><time>2026-04-18T11:26:34.001Z</time></trkpt><trkpt lat="44.21291655908193" lon="11.574408038623462"><ele>617.0</ele><time>2026-04-18T11:26:36.001Z</time></trkpt><trkpt lat="44.21298751177397" lon="11.574489679920276"><ele>617.0</ele><time>2026-04-18T11:26:38.001Z</time></trkpt><trkpt lat="44.21304966682558" lon="11.574567775065011"><ele>617.0</ele><time>2026-04-18T11:26:40.001Z</time></trkpt><trkpt lat="44.21310815013238" lon="11.574640772706877"><ele>617.0</ele><time>2026-04-18T11:26:42.001Z</time></trkpt><trkpt lat="44.213187495016015" lon="11.574728203274372"><ele>617.0</ele><time>2026-04-18T11:26:44.001Z</time></trkpt><trkpt lat="44.213240545715294" lon="11.574809950230202"><ele>617.0</ele><time>2026-04-18T11:26:46.001Z</time></trkpt><trkpt lat="44.21331444037213" lon="11.574911101546224"><ele>620.0</ele><time>2026-04-18T11:26:48.001Z</time></trkpt><trkpt lat="44.21339418000301" lon="11.57500275887982"><ele>623.0</ele><time>2026-04-18T11:26:50.001Z</time></trkpt><trkpt lat="44.21345241431049" lon="11.575078642695114"><ele>626.0</ele><time>2026-04-18T11:26:52.001Z</time></trkpt><trkpt lat="44.213521663900245" lon="11.5751764219809"><ele>629.0</ele><time>2026-04-18T11:26:54.001Z</time></trkpt><trkpt lat="44.213588376570996" lon="11.575263800417066"><ele>632.0</ele><time>2026-04-18T11:26:56.001Z</time></trkpt><trkpt lat="44.21363787998279" lon="11.575341860076493"><ele>635.0</ele><time>2026-04-18T11:26:58.001Z</time></trkpt><trkpt lat="44.21368423030166" lon="11.575451651685183"><ele>635.6666666666666</ele><time>2026-04-18T11:27:01.001Z</time></trkpt><trkpt lat="44.213729081243926" lon="11.575539369454056"><ele>636.3333333333333</ele><time>2026-04-18T11:27:03.001Z</time></trkpt><trkpt lat="44.213766875109606" lon="11.575615368615516"><ele>637.0</ele><time>2026-04-18T11:27:05.001Z</time></trkpt><trkpt lat="44.213798086356505" lon="11.575703469922269"><ele>637.6666666666666</ele><time>2026-04-18T11:27:07.001Z</time></trkpt><trkpt lat="44.213825467404426" lon="11.575809918057962"><ele>638.3333333333334</ele><time>2026-04-18T11:27:09.001Z</time></trkpt><trkpt lat="44.21383532269546" lon="11.57592410087053"><ele>639.0</ele><time>2026-04-18T11:27:11.001Z</time></trkpt><trkpt lat="44.21385861688128" lon="11.576025260828391"><ele>639.0</ele><time>2026-04-18T11:27:13.001Z</time></trkpt><trkpt lat="44.21387254385498" lon="11.576142016046425"><ele>639.0</ele><time>2026-04-18T11:27:15.001Z</time></trkpt><trkpt lat="44.21390241934129" lon="11.576239367080921"><ele>639.0</ele><time>2026-04-18T11:27:17.001Z</time></trkpt><trkpt lat="44.213938459202836" lon="11.576348214259987"><ele>639.0</ele><time>2026-04-18T11:27:19.001Z</time></trkpt><trkpt lat="44.21397055124948" lon="11.576432764609702"><ele>639.0</ele><time>2026-04-18T11:27:21.001Z</time></trkpt><trkpt lat="44.214009939221" lon="11.576513807073768"><ele>639.0</ele><time>2026-04-18T11:27:22.001Z</time></trkpt><trkpt lat="44.21408791280944" lon="11.576611434756563"><ele>637.4</ele><time>2026-04-18T11:27:24.001Z</time></trkpt><trkpt lat="44.21414426865726" lon="11.57665476456225"><ele>635.8</ele><time>2026-04-18T11:27:25.001Z</time></trkpt><trkpt lat="44.21424881387037" lon="11.576722287802351"><ele>634.2</ele><time>2026-04-18T11:27:27.001Z</time></trkpt><trkpt lat="44.214347237352776" lon="11.576785412693292"><ele>632.6</ele><time>2026-04-18T11:27:29.001Z</time></trkpt><trkpt lat="44.21444069569731" lon="11.576843883024639"><ele>631.0</ele><time>2026-04-18T11:27:31.001Z</time></trkpt><trkpt lat="44.2145322287582" lon="11.57692666576658"><ele>631.8</ele><time>2026-04-18T11:27:33.001Z</time></trkpt><trkpt lat="44.21461776265549" lon="11.5770397874517"><ele>632.6</ele><time>2026-04-18T11:27:35.001Z</time></trkpt><trkpt lat="44.21466199435021" lon="11.577104499832641"><ele>633.4</ele><time>2026-04-18T11:27:36.001Z</time></trkpt><trkpt lat="44.214743333439344" lon="11.577224152738827"><ele>634.2</ele><time>2026-04-18T11:27:38.001Z</time></trkpt><trkpt lat="44.214837087476155" lon="11.577209836162174"><ele>635.0</ele><time>2026-04-18T11:27:39.001Z</time></trkpt><trkpt lat="44.21492621723081" lon="11.577312772650568"><ele>635.0</ele><time>2026-04-18T11:27:41.001Z</time></trkpt><trkpt lat="44.214978138082095" lon="11.577365451746754"><ele>635.0</ele><time>2026-04-18T11:27:42.001Z</time></trkpt><trkpt lat="44.214988339970496" lon="11.577506762895899"><ele>635.0</ele><time>2026-04-18T11:27:43.001Z</time></trkpt><trkpt lat="44.21505201975903" lon="11.577546837115984"><ele>635.0</ele><time>2026-04-18T11:27:44.001Z</time></trkpt><trkpt lat="44.215112206541804" lon="11.577580625909604"><ele>635.0</ele><time>2026-04-18T11:27:45.001Z</time></trkpt><trkpt lat="44.21518843612874" lon="11.577598973436581"><ele>635.0</ele><time>2026-04-18T11:27:46.001Z</time></trkpt><trkpt lat="44.21529443499312" lon="11.577640637508559"><ele>635.0</ele><time>2026-04-18T11:27:48.001Z</time></trkpt><trkpt lat="44.215371311123505" lon="11.577707868999816"><ele>635.0</ele><time>2026-04-18T11:27:50Z</time></trkpt><trkpt lat="44.21545210387928" lon="11.577787636567168"><ele>635.0</ele><time>2026-04-18T11:27:52Z</time></trkpt><trkpt lat="44.215527173876296" lon="11.577852913581046"><ele>635.0</ele><time>2026-04-18T11:27:54Z</time></trkpt><trkpt lat="44.215644899619974" lon="11.577885962068798"><ele>635.0</ele><time>2026-04-18T11:27:56Z</time></trkpt><trkpt lat="44.215760583116264" lon="11.577889446947461"><ele>635.0</ele><time>2026-04-18T11:27:58Z</time></trkpt><trkpt lat="44.2158266261413" lon="11.577862215934266"><ele>635.0</ele><time>2026-04-18T11:27:59Z</time></trkpt><trkpt lat="44.21589272906919" lon="11.577829296595619"><ele>635.0</ele><time>2026-04-18T11:28:00Z</time></trkpt><trkpt lat="44.21593920755549" lon="11.577764272575335"><ele>635.0</ele><time>2026-04-18T11:28:01Z</time></trkpt><trkpt lat="44.216041744879924" lon="11.577716399074427"><ele>635.0</ele><time>2026-04-18T11:28:03Z</time></trkpt><trkpt lat="44.216149021200906" lon="11.577721486848965"><ele>635.0</ele><time>2026-04-18T11:28:05Z</time></trkpt><trkpt lat="44.21619388611949" lon="11.577793872148003"><ele>637.5</ele><time>2026-04-18T11:28:06Z</time></trkpt><trkpt lat="44.216236535861306" lon="11.577875242939047"><ele>640.0</ele><time>2026-04-18T11:28:07Z</time></trkpt><trkpt lat="44.21626613998561" lon="11.577959231698653"><ele>642.5</ele><time>2026-04-18T11:28:08Z</time></trkpt><trkpt lat="44.21633380939166" lon="11.578083202152131"><ele>645.0</ele><time>2026-04-18T11:28:10Z</time></trkpt><trkpt lat="44.2163755653317" lon="11.578159365196829"><ele>647.5</ele><time>2026-04-18T11:28:11Z</time></trkpt><trkpt lat="44.21643543648442" lon="11.578307746093238"><ele>650.0</ele><time>2026-04-18T11:28:13Z</time></trkpt><trkpt lat="44.21653996353619" lon="11.578406446427222"><ele>650.0</ele><time>2026-04-18T11:28:15Z</time></trkpt><trkpt lat="44.21661198072697" lon="11.57844850953549"><ele>650.0</ele><time>2026-04-18T11:28:16Z</time></trkpt><trkpt lat="44.21668280622208" lon="11.578467579447647"><ele>650.0</ele><time>2026-04-18T11:28:17Z</time></trkpt><trkpt lat="44.21675214121233" lon="11.578480206067248"><ele>650.0</ele><time>2026-04-18T11:28:18Z</time></trkpt><trkpt lat="44.216817100982176" lon="11.578493454562155"><ele>650.0</ele><time>2026-04-18T11:28:19Z</time></trkpt><trkpt lat="44.21688603944857" lon="11.578502153307353"><ele>650.0</ele><time>2026-04-18T11:28:20Z</time></trkpt><trkpt lat="44.21699454810987" lon="11.57849153278479"><ele>650.0</ele><time>2026-04-18T11:28:22Z</time></trkpt><trkpt lat="44.21710688733366" lon="11.578499431095597"><ele>650.0</ele><time>2026-04-18T11:28:24Z</time></trkpt><trkpt lat="44.217204834196075" lon="11.578482712226707"><ele>650.0</ele><time>2026-04-18T11:28:26Z</time></trkpt><trkpt lat="44.217293031683134" lon="11.578490826938161"><ele>650.0</ele><time>2026-04-18T11:28:28Z</time></trkpt><trkpt lat="44.21737404534758" lon="11.578469370927602"><ele>650.0</ele><time>2026-04-18T11:28:30Z</time></trkpt><trkpt lat="44.21744896528949" lon="11.578426965896892"><ele>651.5</ele><time>2026-04-18T11:28:32Z</time></trkpt><trkpt lat="44.21751466666769" lon="11.578358024408901"><ele>653.0</ele><time>2026-04-18T11:28:34Z</time></trkpt><trkpt lat="44.21756566941753" lon="11.578283222472631"><ele>654.5</ele><time>2026-04-18T11:28:36Z</time></trkpt><trkpt lat="44.21762607867641" lon="11.578193429110726"><ele>656.0</ele><time>2026-04-18T11:28:38Z</time></trkpt><trkpt lat="44.217696271398424" lon="11.578120882930723"><ele>657.5</ele><time>2026-04-18T11:28:40Z</time></trkpt><trkpt lat="44.21775624676317" lon="11.57805236244908"><ele>659.0</ele><time>2026-04-18T11:28:42Z</time></trkpt><trkpt lat="44.217864179706744" lon="11.57800517549521"><ele>659.0</ele><time>2026-04-18T11:28:45Z</time></trkpt><trkpt lat="44.21796157556505" lon="11.578044780085587"><ele>659.0</ele><time>2026-04-18T11:28:47Z</time></trkpt><trkpt lat="44.21801271352382" lon="11.578142275904758"><ele>659.0</ele><time>2026-04-18T11:28:49Z</time></trkpt><trkpt lat="44.21807214533327" lon="11.578258127979193"><ele>659.0</ele><time>2026-04-18T11:28:51Z</time></trkpt><trkpt lat="44.218132790771456" lon="11.578343753164143"><ele>659.0</ele><time>2026-04-18T11:28:53Z</time></trkpt><trkpt lat="44.21819948560949" lon="11.578418231907055"><ele>659.3333333333333</ele><time>2026-04-18T11:28:55Z</time></trkpt><trkpt lat="44.21827209691831" lon="11.57848846843585"><ele>659.6666666666666</ele><time>2026-04-18T11:28:57Z</time></trkpt><trkpt lat="44.21832078634922" lon="11.578557923704015"><ele>660.0</ele><time>2026-04-18T11:28:59Z</time></trkpt><trkpt lat="44.218375677899544" lon="11.578612033500091"><ele>660.3333333333334</ele><time>2026-04-18T11:29:00Z</time></trkpt><trkpt lat="44.21844891909971" lon="11.578659408333557"><ele>660.6666666666667</ele><time>2026-04-18T11:29:02Z</time></trkpt><trkpt lat="44.218532257891226" lon="11.578749597194093"><ele>661.0</ele><time>2026-04-18T11:29:04Z</time></trkpt><trkpt lat="44.21861455050101" lon="11.578853351928899"><ele>666.1999999999999</ele><time>2026-04-18T11:29:06Z</time></trkpt><trkpt lat="44.21866901760896" lon="11.578950629733054"><ele>671.4</ele><time>2026-04-18T11:29:08Z</time></trkpt><trkpt lat="44.21875935281259" lon="11.579060550443488"><ele>676.6</ele><time>2026-04-18T11:29:10Z</time></trkpt><trkpt lat="44.21884579916223" lon="11.579171797979125"><ele>681.8</ele><time>2026-04-18T11:29:12Z</time></trkpt><trkpt lat="44.21889190540999" lon="11.579236751514772"><ele>687.0</ele><time>2026-04-18T11:29:13Z</time></trkpt><trkpt lat="44.21898141980312" lon="11.579341955861885"><ele>685.5</ele><time>2026-04-18T11:29:15Z</time></trkpt><trkpt lat="44.21906357109094" lon="11.57944144424472"><ele>684.0</ele><time>2026-04-18T11:29:17Z</time></trkpt><trkpt lat="44.21910509614371" lon="11.579512087689308"><ele>682.5</ele><time>2026-04-18T11:29:18Z</time></trkpt><trkpt lat="44.21916313938994" lon="11.579640627548898"><ele>681.0</ele><time>2026-04-18T11:29:20Z</time></trkpt><trkpt lat="44.21920808000702" lon="11.579713336317427"><ele>679.5</ele><time>2026-04-18T11:29:21Z</time></trkpt><trkpt lat="44.21924820907081" lon="11.579787274494764"><ele>678.0</ele><time>2026-04-18T11:29:22Z</time></trkpt><trkpt lat="44.21928344627874" lon="11.579864111811904"><ele>678.0</ele><time>2026-04-18T11:29:23Z</time></trkpt><trkpt lat="44.219371764853456" lon="11.579991465288922"><ele>678.0</ele><time>2026-04-18T11:29:25Z</time></trkpt><trkpt lat="44.21941132306239" lon="11.580063538292546"><ele>678.0</ele><time>2026-04-18T11:29:26Z</time></trkpt><trkpt lat="44.219461466955515" lon="11.580137016653442"><ele>678.0</ele><time>2026-04-18T11:29:27Z</time></trkpt><trkpt lat="44.2195453234189" lon="11.580288734619561"><ele>678.0</ele><time>2026-04-18T11:29:29Z</time></trkpt><trkpt lat="44.21959980350533" lon="11.580351527619364"><ele>676.3333333333334</ele><time>2026-04-18T11:29:30Z</time></trkpt><trkpt lat="44.219626190962835" lon="11.580435084359593"><ele>674.6666666666666</ele><time>2026-04-18T11:29:31Z</time></trkpt><trkpt lat="44.219665177749036" lon="11.580513250557296"><ele>673.0</ele><time>2026-04-18T11:29:32Z</time></trkpt><trkpt lat="44.21969793666281" lon="11.580589565337696"><ele>671.3333333333333</ele><time>2026-04-18T11:29:33Z</time></trkpt><trkpt lat="44.219769916044065" lon="11.580731263919677"><ele>669.6666666666666</ele><time>2026-04-18T11:29:35Z</time></trkpt><trkpt lat="44.2198046946261" lon="11.580816756988014"><ele>668.0</ele><time>2026-04-18T11:29:36Z</time></trkpt><trkpt lat="44.21983837335328" lon="11.58090572711477"><ele>666.5</ele><time>2026-04-18T11:29:37Z</time></trkpt><trkpt lat="44.21987007176196" lon="11.580997043217662"><ele>665.0</ele><time>2026-04-18T11:29:38Z</time></trkpt><trkpt lat="44.219919927372395" lon="11.581072244975482"><ele>663.5</ele><time>2026-04-18T11:29:39Z</time></trkpt><trkpt lat="44.219981784467066" lon="11.581138047734035"><ele>662.0</ele><time>2026-04-18T11:29:40Z</time></trkpt><trkpt lat="44.22005095352285" lon="11.581199540283583"><ele>660.5</ele><time>2026-04-18T11:29:41Z</time></trkpt><trkpt lat="44.220116508446246" lon="11.58125942672236"><ele>659.0</ele><time>2026-04-18T11:29:42Z</time></trkpt><trkpt lat="44.22018721463619" lon="11.58131940919755"><ele>657.5</ele><time>2026-04-18T11:29:43Z</time></trkpt><trkpt lat="44.220256822591665" lon="11.581366854448182"><ele>656.0</ele><time>2026-04-18T11:29:44Z</time></trkpt><trkpt lat="44.22031782873702" lon="11.581404304154605"><ele>654.5</ele><time>2026-04-18T11:29:45Z</time></trkpt><trkpt lat="44.22038517092822" lon="11.581442490659834"><ele>653.0</ele><time>2026-04-18T11:29:46Z</time></trkpt><trkpt lat="44.220442992006" lon="11.581496216190331"><ele>651.5</ele><time>2026-04-18T11:29:47Z</time></trkpt><trkpt lat="44.220503620480095" lon="11.58163564015573"><ele>650.0</ele><time>2026-04-18T11:29:49Z</time></trkpt><trkpt lat="44.220560425888095" lon="11.581738427679234"><ele>650.0</ele><time>2026-04-18T11:29:51Z</time></trkpt><trkpt lat="44.220630176381306" lon="11.581836174073892"><ele>650.0</ele><time>2026-04-18T11:29:53Z</time></trkpt><trkpt lat="44.22070677527854" lon="11.581884788557453"><ele>650.0</ele><time>2026-04-18T11:29:55Z</time></trkpt><trkpt lat="44.2207838152304" lon="11.581908858667061"><ele>650.0</ele><time>2026-04-18T11:29:57Z</time></trkpt><trkpt lat="44.22087526051654" lon="11.581924334205173"><ele>650.0</ele><time>2026-04-18T11:29:59Z</time></trkpt><trkpt lat="44.22095783553865" lon="11.581941632320406"><ele>650.0</ele><time>2026-04-18T11:30:01Z</time></trkpt><trkpt lat="44.221036396625976" lon="11.581966365339472"><ele>650.3333333333333</ele><time>2026-04-18T11:30:03Z</time></trkpt><trkpt lat="44.22110875238965" lon="11.582013278126285"><ele>650.6666666666666</ele><time>2026-04-18T11:30:05Z</time></trkpt><trkpt lat="44.221164999718425" lon="11.582063355108852"><ele>651.0</ele><time>2026-04-18T11:30:07Z</time></trkpt><trkpt lat="44.221227762954975" lon="11.582138863750922"><ele>651.3333333333334</ele><time>2026-04-18T11:30:09Z</time></trkpt><trkpt lat="44.22129029074486" lon="11.582204327235567"><ele>651.6666666666667</ele><time>2026-04-18T11:30:11Z</time></trkpt><trkpt lat="44.2213588277079" lon="11.582265032462745"><ele>652.0</ele><time>2026-04-18T11:30:13Z</time></trkpt><trkpt lat="44.221416767535" lon="11.582332570390982"><ele>655.8</ele><time>2026-04-18T11:30:15Z</time></trkpt><trkpt lat="44.22148937254003" lon="11.582390931660907"><ele>659.6</ele><time>2026-04-18T11:30:17Z</time></trkpt><trkpt lat="44.22156565811675" lon="11.582445443697818"><ele>663.4</ele><time>2026-04-18T11:30:19Z</time></trkpt><trkpt lat="44.221643958580934" lon="11.582505558378129"><ele>667.1999999999999</ele><time>2026-04-18T11:30:21Z</time></trkpt><trkpt lat="44.221734607626196" lon="11.58257207006681"><ele>671.0</ele><time>2026-04-18T11:30:23Z</time></trkpt><trkpt lat="44.22182246862787" lon="11.58264424485494"><ele>671.0</ele><time>2026-04-18T11:30:25Z</time></trkpt><trkpt lat="44.22190179668759" lon="11.582717765195394"><ele>671.0</ele><time>2026-04-18T11:30:27Z</time></trkpt><trkpt lat="44.221980233561816" lon="11.58280924268036"><ele>671.0</ele><time>2026-04-18T11:30:29Z</time></trkpt><trkpt lat="44.22205589819979" lon="11.58290423102142"><ele>671.0</ele><time>2026-04-18T11:30:31Z</time></trkpt><trkpt lat="44.222129496896294" lon="11.58301502737129"><ele>671.0</ele><time>2026-04-18T11:30:33Z</time></trkpt><trkpt lat="44.22221584270093" lon="11.583120846127366"><ele>669.8333333333333</ele><time>2026-04-18T11:30:35Z</time></trkpt><trkpt lat="44.22226924699572" lon="11.58318957711623"><ele>668.6666666666666</ele><time>2026-04-18T11:30:36Z</time></trkpt><trkpt lat="44.22232888339529" lon="11.583258238289392"><ele>667.5</ele><time>2026-04-18T11:30:37Z</time></trkpt><trkpt lat="44.2224020266834" lon="11.583333171107778"><ele>666.3333333333334</ele><time>2026-04-18T11:30:38Z</time></trkpt><trkpt lat="44.22247753714769" lon="11.583414136513301"><ele>665.1666666666667</ele><time>2026-04-18T11:30:39Z</time></trkpt><trkpt lat="44.222561681284006" lon="11.5834991975357"><ele>664.0</ele><time>2026-04-18T11:30:40Z</time></trkpt><trkpt lat="44.22264349774178" lon="11.58358239444687"><ele>664.0</ele><time>2026-04-18T11:30:41Z</time></trkpt><trkpt lat="44.222723624947534" lon="11.583680183003807"><ele>664.0</ele><time>2026-04-18T11:30:42Z</time></trkpt><trkpt lat="44.2227795979103" lon="11.583724161289167"><ele>664.0</ele><time>2026-04-18T11:30:43Z</time></trkpt><trkpt lat="44.22285517767428" lon="11.583762977816248"><ele>664.0</ele><time>2026-04-18T11:30:47Z</time></trkpt><trkpt lat="44.22295304815347" lon="11.583837513078144"><ele>664.0</ele><time>2026-04-18T11:30:49Z</time></trkpt><trkpt lat="44.22303702710452" lon="11.583882747319155"><ele>661.6</ele><time>2026-04-18T11:30:50Z</time></trkpt><trkpt lat="44.223106707276024" lon="11.583916718368437"><ele>659.2</ele><time>2026-04-18T11:30:51Z</time></trkpt><trkpt lat="44.223193544612506" lon="11.583957946883952"><ele>656.8000000000001</ele><time>2026-04-18T11:30:52Z</time></trkpt><trkpt lat="44.22328924433844" lon="11.584000404362648"><ele>654.4000000000001</ele><time>2026-04-18T11:30:53Z</time></trkpt><trkpt lat="44.22337501665585" lon="11.584038457255714"><ele>652.0</ele><time>2026-04-18T11:30:54Z</time></trkpt><trkpt lat="44.22351480446894" lon="11.584095712061956"><ele>652.0</ele><time>2026-04-18T11:30:56Z</time></trkpt><trkpt lat="44.22362490672384" lon="11.584128069181446"><ele>652.0</ele><time>2026-04-18T11:30:57Z</time></trkpt><trkpt lat="44.223712814400564" lon="11.584141598714433"><ele>652.0</ele><time>2026-04-18T11:30:58Z</time></trkpt><trkpt lat="44.22379674211046" lon="11.584151055145039"><ele>652.0</ele><time>2026-04-18T11:30:59Z</time></trkpt><trkpt lat="44.22387448648145" lon="11.584158833458433"><ele>652.0</ele><time>2026-04-18T11:31:00Z</time></trkpt><trkpt lat="44.224023153765685" lon="11.58417755331986"><ele>650.2</ele><time>2026-04-18T11:31:02Z</time></trkpt><trkpt lat="44.22411811721596" lon="11.584192094332607"><ele>648.4000000000001</ele><time>2026-04-18T11:31:03Z</time></trkpt><trkpt lat="44.224203757756705" lon="11.584206558554671"><ele>646.5999999999999</ele><time>2026-04-18T11:31:04Z</time></trkpt><trkpt lat="44.22428190250385" lon="11.584215162895159"><ele>644.8</ele><time>2026-04-18T11:31:05Z</time></trkpt><trkpt lat="44.22439752421135" lon="11.584166651506477"><ele>643.0</ele><time>2026-04-18T11:31:07Z</time></trkpt><trkpt lat="44.224514256793256" lon="11.58423735570428"><ele>643.0</ele><time>2026-04-18T11:31:09Z</time></trkpt><trkpt lat="44.224600809055524" lon="11.584286763110681"><ele>643.0</ele><time>2026-04-18T11:31:10Z</time></trkpt><trkpt lat="44.22464965466403" lon="11.584357777844994"><ele>643.0</ele><time>2026-04-18T11:31:11Z</time></trkpt><trkpt lat="44.22471304740226" lon="11.584394450958174"><ele>643.0</ele><time>2026-04-18T11:31:12Z</time></trkpt><trkpt lat="44.22476520950299" lon="11.584445580166529"><ele>643.0</ele><time>2026-04-18T11:31:13Z</time></trkpt><trkpt lat="44.2248636188252" lon="11.5845689034932"><ele>643.0</ele><time>2026-04-18T11:31:15Z</time></trkpt><trkpt lat="44.22494498524109" lon="11.584646225870001"><ele>640.4</ele><time>2026-04-18T11:31:16Z</time></trkpt><trkpt lat="44.22501365308485" lon="11.58468461227228"><ele>637.8</ele><time>2026-04-18T11:31:17Z</time></trkpt><trkpt lat="44.22511291111926" lon="11.584796809012595"><ele>635.2</ele><time>2026-04-18T11:31:19Z</time></trkpt><trkpt lat="44.22517743836625" lon="11.58491233975816"><ele>632.6</ele><time>2026-04-18T11:31:25Z</time></trkpt><trkpt lat="44.22527312314704" lon="11.584975920509665"><ele>630.0</ele><time>2026-04-18T11:31:27Z</time></trkpt><trkpt lat="44.22532845900354" lon="11.585018804424191"><ele>630.0</ele><time>2026-04-18T11:31:28Z</time></trkpt><trkpt lat="44.22538529794273" lon="11.585064160595316"><ele>630.0</ele><time>2026-04-18T11:31:29Z</time></trkpt><trkpt lat="44.2254499664991" lon="11.585115543418642"><ele>630.0</ele><time>2026-04-18T11:31:30Z</time></trkpt><trkpt lat="44.22552033638866" lon="11.585168285432417"><ele>630.0</ele><time>2026-04-18T11:31:31Z</time></trkpt><trkpt lat="44.22559183890324" lon="11.585219302925294"><ele>630.0</ele><time>2026-04-18T11:31:32Z</time></trkpt><trkpt lat="44.225674730855786" lon="11.585266769439635"><ele>630.0</ele><time>2026-04-18T11:31:33Z</time></trkpt><trkpt lat="44.225764660721744" lon="11.585311211812511"><ele>624.8</ele><time>2026-04-18T11:31:34Z</time></trkpt><trkpt lat="44.225863278883885" lon="11.585347813161286"><ele>619.6</ele><time>2026-04-18T11:31:35Z</time></trkpt><trkpt lat="44.22596636194527" lon="11.585383666100286"><ele>614.4</ele><time>2026-04-18T11:31:36Z</time></trkpt><trkpt lat="44.22608025596805" lon="11.585428452270301"><ele>609.2</ele><time>2026-04-18T11:31:37Z</time></trkpt><trkpt lat="44.22619857705369" lon="11.585468716840518"><ele>604.0</ele><time>2026-04-18T11:31:38Z</time></trkpt><trkpt lat="44.22630218484762" lon="11.58552699736572"><ele>604.0</ele><time>2026-04-18T11:31:39Z</time></trkpt><trkpt lat="44.22638770853833" lon="11.585609059612509"><ele>604.0</ele><time>2026-04-18T11:31:40Z</time></trkpt><trkpt lat="44.22646759332982" lon="11.585741893904968"><ele>604.0</ele><time>2026-04-18T11:31:41Z</time></trkpt><trkpt lat="44.226550514156074" lon="11.58587230160616"><ele>604.0</ele><time>2026-04-18T11:31:42Z</time></trkpt><trkpt lat="44.22663750576103" lon="11.585992898349595"><ele>603.75</ele><time>2026-04-18T11:31:43Z</time></trkpt><trkpt lat="44.22671406650903" lon="11.58610718965592"><ele>603.5</ele><time>2026-04-18T11:31:44Z</time></trkpt><trkpt lat="44.22678507905006" lon="11.586226037800849"><ele>603.25</ele><time>2026-04-18T11:31:45Z</time></trkpt><trkpt lat="44.22686135561613" lon="11.586340334405865"><ele>603.0</ele><time>2026-04-18T11:31:46Z</time></trkpt><trkpt lat="44.22697282220985" lon="11.5863968883648"><ele>598.5</ele><time>2026-04-18T11:31:47Z</time></trkpt><trkpt lat="44.22708195517407" lon="11.586457016320715"><ele>594.0</ele><time>2026-04-18T11:31:48Z</time></trkpt><trkpt lat="44.22717062339514" lon="11.586574254824136"><ele>589.5</ele><time>2026-04-18T11:31:49Z</time></trkpt><trkpt lat="44.227230213904946" lon="11.58671594613184"><ele>585.0</ele><time>2026-04-18T11:31:50Z</time></trkpt><trkpt lat="44.22727173496706" lon="11.58688368430315"><ele>586.25</ele><time>2026-04-18T11:31:51Z</time></trkpt><trkpt lat="44.22732423559666" lon="11.587033490473255"><ele>587.5</ele><time>2026-04-18T11:31:52Z</time></trkpt><trkpt lat="44.22738086947643" lon="11.587174789934778"><ele>588.75</ele><time>2026-04-18T11:31:53Z</time></trkpt><trkpt lat="44.227447536425665" lon="11.587294205318697"><ele>590.0</ele><time>2026-04-18T11:31:54Z</time></trkpt><trkpt lat="44.22754714918241" lon="11.58738080600928"><ele>590.0</ele><time>2026-04-18T11:31:55Z</time></trkpt><trkpt lat="44.22765536105243" lon="11.587438824782419"><ele>590.0</ele><time>2026-04-18T11:31:56Z</time></trkpt><trkpt lat="44.22776014922485" lon="11.587494330468962"><ele>590.0</ele><time>2026-04-18T11:31:57Z</time></trkpt><trkpt lat="44.22787392146994" lon="11.587545533645104"><ele>590.0</ele><time>2026-04-18T11:31:58Z</time></trkpt><trkpt lat="44.22796921390401" lon="11.587613980075268"><ele>590.0</ele><time>2026-04-18T11:31:59Z</time></trkpt><trkpt lat="44.22806390097371" lon="11.587716382583544"><ele>590.0</ele><time>2026-04-18T11:32:00Z</time></trkpt><trkpt lat="44.228172019796325" lon="11.587844421582638"><ele>590.0</ele><time>2026-04-18T11:32:01Z</time></trkpt><trkpt lat="44.22825586665002" lon="11.587953502212063"><ele>590.0</ele><time>2026-04-18T11:32:02Z</time></trkpt><trkpt lat="44.22835383556854" lon="11.588032514644317"><ele>588.75</ele><time>2026-04-18T11:32:03Z</time></trkpt><trkpt lat="44.22846060460397" lon="11.588106266977183"><ele>587.5</ele><time>2026-04-18T11:32:04Z</time></trkpt><trkpt lat="44.22857012293602" lon="11.58817058587192"><ele>586.25</ele><time>2026-04-18T11:32:05Z</time></trkpt><trkpt lat="44.22867876128716" lon="11.588214381218384"><ele>585.0</ele><time>2026-04-18T11:32:06Z</time></trkpt><trkpt lat="44.228794758443875" lon="11.588231716809817"><ele>585.0</ele><time>2026-04-18T11:32:07Z</time></trkpt><trkpt lat="44.22890137129699" lon="11.58822176923832"><ele>585.0</ele><time>2026-04-18T11:32:08Z</time></trkpt><trkpt lat="44.22899884037976" lon="11.58820403882784"><ele>585.0</ele><time>2026-04-18T11:32:09Z</time></trkpt><trkpt lat="44.229085713191445" lon="11.58819837958677"><ele>585.0</ele><time>2026-04-18T11:32:10Z</time></trkpt><trkpt lat="44.22916615477417" lon="11.5881911940138"><ele>585.0</ele><time>2026-04-18T11:32:11Z</time></trkpt><trkpt lat="44.22923922398907" lon="11.58820613748214"><ele>585.0</ele><time>2026-04-18T11:32:12Z</time></trkpt><trkpt lat="44.22931789846558" lon="11.58818452384038"><ele>584.6</ele><time>2026-04-18T11:32:14Z</time></trkpt><trkpt lat="44.22940391875148" lon="11.588357357707686"><ele>584.2</ele><time>2026-04-18T11:32:16Z</time></trkpt><trkpt lat="44.22948843671965" lon="11.588349376989104"><ele>583.8</ele><time>2026-04-18T11:32:18Z</time></trkpt><trkpt lat="44.229591501198094" lon="11.588312411350223"><ele>583.4</ele><time>2026-04-18T11:32:20Z</time></trkpt><trkpt lat="44.22965221331464" lon="11.588253963879014"><ele>583.0</ele><time>2026-04-18T11:32:21Z</time></trkpt><trkpt lat="44.22974549959676" lon="11.588183570171365"><ele>585.3333333333334</ele><time>2026-04-18T11:32:22Z</time></trkpt><trkpt lat="44.229818486431924" lon="11.588206610758458"><ele>587.6666666666667</ele><time>2026-04-18T11:32:24Z</time></trkpt><trkpt lat="44.229902951051415" lon="11.58816034238079"><ele>590.0</ele><time>2026-04-18T11:32:26Z</time></trkpt><trkpt lat="44.23001090121375" lon="11.588187910330465"><ele>592.3333333333334</ele><time>2026-04-18T11:32:28Z</time></trkpt><trkpt lat="44.23008015038655" lon="11.58820813082734"><ele>594.6666666666666</ele><time>2026-04-18T11:32:30Z</time></trkpt><trkpt lat="44.230156339233666" lon="11.588239721532645"><ele>597.0</ele><time>2026-04-18T11:32:32Z</time></trkpt><trkpt lat="44.23022504040837" lon="11.588319470237597"><ele>597.0</ele><time>2026-04-18T11:32:34Z</time></trkpt><trkpt lat="44.23028043759607" lon="11.58837232774655"><ele>597.0</ele><time>2026-04-18T11:32:36Z</time></trkpt><trkpt lat="44.2303559771986" lon="11.588368179411292"><ele>597.0</ele><time>2026-04-18T11:32:38Z</time></trkpt><trkpt lat="44.23043420972291" lon="11.588422474960094"><ele>597.0</ele><time>2026-04-18T11:32:40Z</time></trkpt><trkpt lat="44.23047666900154" lon="11.588508730251377"><ele>597.0</ele><time>2026-04-18T11:32:42Z</time></trkpt><trkpt lat="44.23053009796553" lon="11.588566495483565"><ele>597.0</ele><time>2026-04-18T11:32:44Z</time></trkpt><trkpt lat="44.23060762151645" lon="11.588592387707356"><ele>596.4</ele><time>2026-04-18T11:32:46Z</time></trkpt><trkpt lat="44.23069144637075" lon="11.588681394659744"><ele>595.8000000000001</ele><time>2026-04-18T11:32:49Z</time></trkpt><trkpt lat="44.23072183454238" lon="11.588820465152123"><ele>595.2</ele><time>2026-04-18T11:32:51Z</time></trkpt><trkpt lat="44.230770421183664" lon="11.58895425087247"><ele>594.6</ele><time>2026-04-18T11:32:53Z</time></trkpt><trkpt lat="44.230836376360685" lon="11.589075938457187"><ele>594.0</ele><time>2026-04-18T11:32:55Z</time></trkpt><trkpt lat="44.23094502003591" lon="11.589145752813472"><ele>594.0</ele><time>2026-04-18T11:32:57Z</time></trkpt><trkpt lat="44.231000349029664" lon="11.589203519433852"><ele>594.0</ele><time>2026-04-18T11:32:58Z</time></trkpt><trkpt lat="44.231059543656684" lon="11.589276140758205"><ele>594.0</ele><time>2026-04-18T11:32:59Z</time></trkpt><trkpt lat="44.231117917630925" lon="11.58934828075071"><ele>594.0</ele><time>2026-04-18T11:33:00Z</time></trkpt><trkpt lat="44.231173850577285" lon="11.589403424621976"><ele>594.0</ele><time>2026-04-18T11:33:01Z</time></trkpt><trkpt lat="44.23124095779331" lon="11.589470712676365"><ele>594.0</ele><time>2026-04-18T11:33:02Z</time></trkpt><trkpt lat="44.23130048988752" lon="11.589515103740435"><ele>594.0</ele><time>2026-04-18T11:33:03Z</time></trkpt><trkpt lat="44.2313608112442" lon="11.58957508036277"><ele>593.5</ele><time>2026-04-18T11:33:04Z</time></trkpt><trkpt lat="44.23141161599235" lon="11.589631625742987"><ele>593.0</ele><time>2026-04-18T11:33:05Z</time></trkpt><trkpt lat="44.231438449280766" lon="11.589752604836514"><ele>592.5</ele><time>2026-04-18T11:33:06Z</time></trkpt><trkpt lat="44.23145669219698" lon="11.589856715348379"><ele>592.0</ele><time>2026-04-18T11:33:07Z</time></trkpt><trkpt lat="44.23148587823435" lon="11.58998455537222"><ele>591.5</ele><time>2026-04-18T11:33:08Z</time></trkpt><trkpt lat="44.23150898247176" lon="11.59010684663537"><ele>591.0</ele><time>2026-04-18T11:33:09Z</time></trkpt><trkpt lat="44.23153643607048" lon="11.590191593138202"><ele>591.0</ele><time>2026-04-18T11:33:10Z</time></trkpt><trkpt lat="44.23158342096315" lon="11.59027579805228"><ele>591.0</ele><time>2026-04-18T11:33:11Z</time></trkpt><trkpt lat="44.231634498693715" lon="11.590371936385745"><ele>591.0</ele><time>2026-04-18T11:33:12Z</time></trkpt><trkpt lat="44.23169786299902" lon="11.590451935554787"><ele>591.0</ele><time>2026-04-18T11:33:13Z</time></trkpt><trkpt lat="44.23175663144671" lon="11.59053557065995"><ele>591.0</ele><time>2026-04-18T11:33:14Z</time></trkpt><trkpt lat="44.23181791846022" lon="11.590603227001619"><ele>591.0</ele><time>2026-04-18T11:33:15Z</time></trkpt><trkpt lat="44.23188913728406" lon="11.590642330279886"><ele>590.0</ele><time>2026-04-18T11:33:16Z</time></trkpt><trkpt lat="44.231947990171335" lon="11.590677750913668"><ele>589.0</ele><time>2026-04-18T11:33:17Z</time></trkpt><trkpt lat="44.23203363081272" lon="11.590768845044517"><ele>588.0</ele><time>2026-04-18T11:33:19Z</time></trkpt><trkpt lat="44.232084048209224" lon="11.590870931459808"><ele>587.0</ele><time>2026-04-18T11:33:21Z</time></trkpt><trkpt lat="44.23213218632138" lon="11.59097855658811"><ele>586.0</ele><time>2026-04-18T11:33:23Z</time></trkpt><trkpt lat="44.23219364200956" lon="11.591068090061745"><ele>585.0</ele><time>2026-04-18T11:33:25Z</time></trkpt><trkpt lat="44.23224041479412" lon="11.591164445535524"><ele>586.4</ele><time>2026-04-18T11:33:27Z</time></trkpt><trkpt lat="44.23228984369394" lon="11.591280178109002"><ele>587.8</ele><time>2026-04-18T11:33:30Z</time></trkpt><trkpt lat="44.23234201076822" lon="11.591395885769504"><ele>589.2</ele><time>2026-04-18T11:33:32Z</time></trkpt><trkpt lat="44.232426851575255" lon="11.591521917309736"><ele>590.6</ele><time>2026-04-18T11:33:34Z</time></trkpt><trkpt lat="44.2324848126577" lon="11.591584658525377"><ele>592.0</ele><time>2026-04-18T11:33:35Z</time></trkpt><trkpt lat="44.23256797637748" lon="11.591632339439958"><ele>592.0</ele><time>2026-04-18T11:33:36Z</time></trkpt><trkpt lat="44.23262448360302" lon="11.591680201183259"><ele>592.0</ele><time>2026-04-18T11:33:37Z</time></trkpt><trkpt lat="44.23272144088866" lon="11.591769032341464"><ele>592.0</ele><time>2026-04-18T11:33:39Z</time></trkpt><trkpt lat="44.232826251330245" lon="11.591858642695822"><ele>592.0</ele><time>2026-04-18T11:33:40Z</time></trkpt><trkpt lat="44.23296233146773" lon="11.591925270932707"><ele>592.0</ele><time>2026-04-18T11:33:42Z</time></trkpt><trkpt lat="44.23305514211832" lon="11.59195144095865"><ele>592.0</ele><time>2026-04-18T11:33:43Z</time></trkpt><trkpt lat="44.23312068031488" lon="11.591946435047985"><ele>592.0</ele><time>2026-04-18T11:33:44Z</time></trkpt><trkpt lat="44.233038007391734" lon="11.59196595636915"><ele>592.0</ele><time>2026-04-18T11:33:45Z</time></trkpt><trkpt lat="44.23311673774525" lon="11.592048207833425"><ele>592.0</ele><time>2026-04-18T11:33:46Z</time></trkpt><trkpt lat="44.23321176366701" lon="11.592131142093843"><ele>592.0</ele><time>2026-04-18T11:33:47Z</time></trkpt><trkpt lat="44.233296947888306" lon="11.592183245617438"><ele>588.4</ele><time>2026-04-18T11:33:48Z</time></trkpt><trkpt lat="44.23335989567981" lon="11.592229088071997"><ele>584.8000000000001</ele><time>2026-04-18T11:33:49Z</time></trkpt><trkpt lat="44.23346949265631" lon="11.592264561266258"><ele>581.2</ele><time>2026-04-18T11:33:51Z</time></trkpt><trkpt lat="44.23356463506929" lon="11.592277540033027"><ele>577.6</ele><time>2026-04-18T11:33:52Z</time></trkpt><trkpt lat="44.233627840088715" lon="11.592178840814983"><ele>574.0</ele><time>2026-04-18T11:33:54Z</time></trkpt><trkpt lat="44.233615391442726" lon="11.592052028850032"><ele>573.4</ele><time>2026-04-18T11:33:56Z</time></trkpt><trkpt lat="44.23355904615132" lon="11.591960316490368"><ele>572.8</ele><time>2026-04-18T11:33:58Z</time></trkpt><trkpt lat="44.23350625205645" lon="11.591889407699702"><ele>572.2</ele><time>2026-04-18T11:34:00Z</time></trkpt><trkpt lat="44.233555583079834" lon="11.591822554212346"><ele>571.6</ele><time>2026-04-18T11:34:05Z</time></trkpt><trkpt lat="44.23366906969687" lon="11.5918481320315"><ele>571.0</ele><time>2026-04-18T11:34:08Z</time></trkpt><trkpt lat="44.23368984892626" lon="11.592000184809834"><ele>571.6</ele><time>2026-04-18T11:34:11Z</time></trkpt><trkpt lat="44.2337346796746" lon="11.592070144099015"><ele>572.2</ele><time>2026-04-18T11:34:13Z</time></trkpt><trkpt lat="44.233812458132824" lon="11.592061615775"><ele>572.8</ele><time>2026-04-18T11:34:15Z</time></trkpt><trkpt lat="44.233846221429786" lon="11.592228161369059"><ele>573.4</ele><time>2026-04-18T11:34:17Z</time></trkpt><trkpt lat="44.23385071675154" lon="11.59231697604152"><ele>574.0</ele><time>2026-04-18T11:34:18Z</time></trkpt><trkpt lat="44.233966645583216" lon="11.592292878564807"><ele>572.6</ele><time>2026-04-18T11:34:21Z</time></trkpt><trkpt lat="44.23406719129114" lon="11.592266090313053"><ele>571.2</ele><time>2026-04-18T11:34:22Z</time></trkpt><trkpt lat="44.23414121788907" lon="11.592333752675922"><ele>569.8000000000001</ele><time>2026-04-18T11:34:23Z</time></trkpt><trkpt lat="44.234199165231395" lon="11.59242948308957"><ele>568.4</ele><time>2026-04-18T11:34:24Z</time></trkpt><trkpt lat="44.234297566101546" lon="11.592455821835356"><ele>567.0</ele><time>2026-04-18T11:34:26Z</time></trkpt><trkpt lat="44.234331474435166" lon="11.592352539525471"><ele>567.0</ele><time>2026-04-18T11:34:27Z</time></trkpt><trkpt lat="44.234390223451975" lon="11.592248451031647"><ele>567.0</ele><time>2026-04-18T11:34:29Z</time></trkpt><trkpt lat="44.234527220256766" lon="11.592327360340695"><ele>567.0</ele><time>2026-04-18T11:34:31Z</time></trkpt><trkpt lat="44.23461149510542" lon="11.592371101216255"><ele>567.0</ele><time>2026-04-18T11:34:32Z</time></trkpt><trkpt lat="44.23466294775286" lon="11.592283651218379"><ele>567.0</ele><time>2026-04-18T11:34:35Z</time></trkpt><trkpt lat="44.234756413222875" lon="11.59233032891203"><ele>564.8000000000001</ele><time>2026-04-18T11:34:37Z</time></trkpt><trkpt lat="44.23487119689219" lon="11.592318752719784"><ele>562.6</ele><time>2026-04-18T11:34:38Z</time></trkpt><trkpt lat="44.234948870468806" lon="11.592208806483553"><ele>560.4000000000001</ele><time>2026-04-18T11:34:40Z</time></trkpt><trkpt lat="44.23497040075893" lon="11.592103114867042"><ele>558.2</ele><time>2026-04-18T11:34:41Z</time></trkpt><trkpt lat="44.23500259990811" lon="11.591989254401962"><ele>556.0</ele><time>2026-04-18T11:34:42Z</time></trkpt><trkpt lat="44.23504088350402" lon="11.591878426482126"><ele>556.0</ele><time>2026-04-18T11:34:43Z</time></trkpt><trkpt lat="44.235096862300985" lon="11.591948934969448"><ele>556.0</ele><time>2026-04-18T11:34:45Z</time></trkpt><trkpt lat="44.23515318138837" lon="11.592011037422608"><ele>556.0</ele><time>2026-04-18T11:34:46Z</time></trkpt><trkpt lat="44.23519388746325" lon="11.5921422554984"><ele>556.0</ele><time>2026-04-18T11:34:47Z</time></trkpt><trkpt lat="44.2352147159973" lon="11.592244235187946"><ele>556.0</ele><time>2026-04-18T11:34:48Z</time></trkpt><trkpt lat="44.23521300039292" lon="11.592371325551744"><ele>556.0</ele><time>2026-04-18T11:34:49Z</time></trkpt><trkpt lat="44.235203557469085" lon="11.592489066502914"><ele>556.0</ele><time>2026-04-18T11:34:50Z</time></trkpt><trkpt lat="44.23521817069991" lon="11.592612041480677"><ele>556.0</ele><time>2026-04-18T11:34:51Z</time></trkpt><trkpt lat="44.23524185113268" lon="11.592742805993172"><ele>556.0</ele><time>2026-04-18T11:34:52Z</time></trkpt><trkpt lat="44.23524899103962" lon="11.592871226469402"><ele>556.0</ele><time>2026-04-18T11:34:53Z</time></trkpt><trkpt lat="44.23525509883451" lon="11.59301094728986"><ele>556.0</ele><time>2026-04-18T11:34:54Z</time></trkpt><trkpt lat="44.23524061378665" lon="11.593135762103277"><ele>555.6</ele><time>2026-04-18T11:34:55Z</time></trkpt><trkpt lat="44.235226001288495" lon="11.593261096088037"><ele>555.2</ele><time>2026-04-18T11:34:56Z</time></trkpt><trkpt lat="44.23519500141228" lon="11.593361409326839"><ele>554.8</ele><time>2026-04-18T11:34:57Z</time></trkpt><trkpt lat="44.235159334842024" lon="11.59356969709564"><ele>554.4</ele><time>2026-04-18T11:34:58Z</time></trkpt><trkpt lat="44.23521002472479" lon="11.593717620635706"><ele>554.0</ele><time>2026-04-18T11:34:59Z</time></trkpt><trkpt lat="44.235215174040306" lon="11.593861614969942"><ele>551.6</ele><time>2026-04-18T11:35:00Z</time></trkpt><trkpt lat="44.23520406827772" lon="11.594013800949941"><ele>549.2</ele><time>2026-04-18T11:35:01Z</time></trkpt><trkpt lat="44.23519364684089" lon="11.59416311323117"><ele>546.8000000000001</ele><time>2026-04-18T11:35:02Z</time></trkpt><trkpt lat="44.23518162444375" lon="11.594310790510395"><ele>544.4</ele><time>2026-04-18T11:35:03Z</time></trkpt><trkpt lat="44.23516913670348" lon="11.594420934670898"><ele>542.0</ele><time>2026-04-18T11:35:04Z</time></trkpt><trkpt lat="44.23512679590907" lon="11.594512790772413"><ele>542.0</ele><time>2026-04-18T11:35:05Z</time></trkpt><trkpt lat="44.23510958043912" lon="11.594613947761474"><ele>542.0</ele><time>2026-04-18T11:35:07Z</time></trkpt><trkpt lat="44.235230272885055" lon="11.59454552937279"><ele>542.0</ele><time>2026-04-18T11:35:11Z</time></trkpt><trkpt lat="44.235294631902704" lon="11.594449355476167"><ele>542.0</ele><time>2026-04-18T11:35:13Z</time></trkpt><trkpt lat="44.23534622506229" lon="11.594336285612956"><ele>542.0</ele><time>2026-04-18T11:35:15Z</time></trkpt><trkpt lat="44.23541597403444" lon="11.594217826299136"><ele>542.0</ele><time>2026-04-18T11:35:17Z</time></trkpt><trkpt lat="44.235485865942394" lon="11.594110662415629"><ele>542.0</ele><time>2026-04-18T11:35:19Z</time></trkpt><trkpt lat="44.23557609919963" lon="11.593996786605379"><ele>542.0</ele><time>2026-04-18T11:35:21Z</time></trkpt><trkpt lat="44.235661852245094" lon="11.593861134579539"><ele>542.0</ele><time>2026-04-18T11:35:23Z</time></trkpt><trkpt lat="44.23570829307363" lon="11.59378767032532"><ele>542.0</ele><time>2026-04-18T11:35:24Z</time></trkpt><trkpt lat="44.23575682337145" lon="11.593710900672997"><ele>540.3333333333333</ele><time>2026-04-18T11:35:25Z</time></trkpt><trkpt lat="44.235809452997835" lon="11.593627646422078"><ele>538.6666666666666</ele><time>2026-04-18T11:35:26Z</time></trkpt><trkpt lat="44.23586333985486" lon="11.59354240326797"><ele>537.0</ele><time>2026-04-18T11:35:27Z</time></trkpt><trkpt lat="44.23591335323758" lon="11.593463287553831"><ele>535.3333333333334</ele><time>2026-04-18T11:35:28Z</time></trkpt><trkpt lat="44.2359693844255" lon="11.593374652262936"><ele>533.6666666666667</ele><time>2026-04-18T11:35:29Z</time></trkpt><trkpt lat="44.2360249971659" lon="11.593287183097576"><ele>532.0</ele><time>2026-04-18T11:35:30Z</time></trkpt><trkpt lat="44.2360838923176" lon="11.593194543589293"><ele>532.0</ele><time>2026-04-18T11:35:31Z</time></trkpt><trkpt lat="44.236139474065" lon="11.593107115928703"><ele>532.0</ele><time>2026-04-18T11:35:32Z</time></trkpt><trkpt lat="44.23619799441533" lon="11.593015066028613"><ele>532.0</ele><time>2026-04-18T11:35:33Z</time></trkpt><trkpt lat="44.23625592615949" lon="11.592923941954432"><ele>532.0</ele><time>2026-04-18T11:35:34Z</time></trkpt><trkpt lat="44.236303693597456" lon="11.592817290745234"><ele>532.0</ele><time>2026-04-18T11:35:35Z</time></trkpt><trkpt lat="44.23637458328337" lon="11.592738055978625"><ele>532.0</ele><time>2026-04-18T11:35:36Z</time></trkpt><trkpt lat="44.23643761544644" lon="11.592644150038048"><ele>530.0</ele><time>2026-04-18T11:35:37Z</time></trkpt><trkpt lat="44.23647747037674" lon="11.592529914683848"><ele>528.0</ele><time>2026-04-18T11:35:38Z</time></trkpt><trkpt lat="44.236505502884036" lon="11.59240478256155"><ele>526.0</ele><time>2026-04-18T11:35:39Z</time></trkpt><trkpt lat="44.23652774179176" lon="11.592270859029055"><ele>524.0</ele><time>2026-04-18T11:35:40Z</time></trkpt><trkpt lat="44.23655120839021" lon="11.592139240322561"><ele>522.0</ele><time>2026-04-18T11:35:41Z</time></trkpt><trkpt lat="44.23657894540928" lon="11.59200570522799"><ele>522.0</ele><time>2026-04-18T11:35:42Z</time></trkpt><trkpt lat="44.23661759270741" lon="11.591872637534129"><ele>522.0</ele><time>2026-04-18T11:35:43Z</time></trkpt><trkpt lat="44.23665907897337" lon="11.59173927670108"><ele>522.0</ele><time>2026-04-18T11:35:44Z</time></trkpt><trkpt lat="44.236714202394104" lon="11.59161537044719"><ele>522.0</ele><time>2026-04-18T11:35:45Z</time></trkpt><trkpt lat="44.236774950140244" lon="11.591494411238726"><ele>522.0</ele><time>2026-04-18T11:35:46Z</time></trkpt><trkpt lat="44.236841312156734" lon="11.59137381312563"><ele>522.0</ele><time>2026-04-18T11:35:47Z</time></trkpt><trkpt lat="44.236898857389484" lon="11.591256391272596"><ele>522.0</ele><time>2026-04-18T11:35:48Z</time></trkpt><trkpt lat="44.23695992296539" lon="11.591130662265353"><ele>522.0</ele><time>2026-04-18T11:35:49Z</time></trkpt><trkpt lat="44.237025769835725" lon="11.591016288241363"><ele>522.0</ele><time>2026-04-18T11:35:50Z</time></trkpt><trkpt lat="44.237096162194305" lon="11.590893489046024"><ele>522.0</ele><time>2026-04-18T11:35:51Z</time></trkpt><trkpt lat="44.23715337003301" lon="11.590772184997515"><ele>521.8000000000001</ele><time>2026-04-18T11:35:52Z</time></trkpt><trkpt lat="44.237214014719996" lon="11.590645809341947"><ele>521.6</ele><time>2026-04-18T11:35:53Z</time></trkpt><trkpt lat="44.23726511359419" lon="11.590517348156698"><ele>521.4000000000001</ele><time>2026-04-18T11:35:54Z</time></trkpt><trkpt lat="44.23730492910325" lon="11.590381217343413"><ele>521.2</ele><time>2026-04-18T11:35:55Z</time></trkpt><trkpt lat="44.2373694713749" lon="11.590246426540793"><ele>521.0</ele><time>2026-04-18T11:35:56Z</time></trkpt><trkpt lat="44.23742783917568" lon="11.590110493794631"><ele>516.75</ele><time>2026-04-18T11:35:57Z</time></trkpt><trkpt lat="44.23747499070007" lon="11.589989772623342"><ele>512.5</ele><time>2026-04-18T11:35:58Z</time></trkpt><trkpt lat="44.23753082404631" lon="11.589834998016878"><ele>508.25</ele><time>2026-04-18T11:35:59Z</time></trkpt><trkpt lat="44.237586884146246" lon="11.589696322612337"><ele>504.0</ele><time>2026-04-18T11:36:00Z</time></trkpt><trkpt lat="44.2376418535964" lon="11.589554459106514"><ele>501.75</ele><time>2026-04-18T11:36:01Z</time></trkpt><trkpt lat="44.23769642341849" lon="11.589408691746993"><ele>499.5</ele><time>2026-04-18T11:36:02Z</time></trkpt><trkpt lat="44.23775681328561" lon="11.589266127363702"><ele>497.25</ele><time>2026-04-18T11:36:03Z</time></trkpt><trkpt lat="44.23781732354309" lon="11.58912026028012"><ele>495.0</ele><time>2026-04-18T11:36:04Z</time></trkpt><trkpt lat="44.237884530378636" lon="11.588979449539035"><ele>495.0</ele><time>2026-04-18T11:36:05Z</time></trkpt><trkpt lat="44.237965103127785" lon="11.588848643642795"><ele>495.0</ele><time>2026-04-18T11:36:06Z</time></trkpt><trkpt lat="44.23806264161823" lon="11.588749588954805"><ele>495.0</ele><time>2026-04-18T11:36:07Z</time></trkpt><trkpt lat="44.23816517561465" lon="11.588667799960497"><ele>495.0</ele><time>2026-04-18T11:36:08Z</time></trkpt><trkpt lat="44.23828535134252" lon="11.58861412637657"><ele>493.25</ele><time>2026-04-18T11:36:09Z</time></trkpt><trkpt lat="44.23841055199837" lon="11.588594272145478"><ele>491.5</ele><time>2026-04-18T11:36:10Z</time></trkpt><trkpt lat="44.238537360835984" lon="11.588611376686792"><ele>489.75</ele><time>2026-04-18T11:36:11Z</time></trkpt><trkpt lat="44.23865725342739" lon="11.588637256393515"><ele>488.0</ele><time>2026-04-18T11:36:12Z</time></trkpt><trkpt lat="44.23877367817673" lon="11.588652384568451"><ele>488.0</ele><time>2026-04-18T11:36:13Z</time></trkpt><trkpt lat="44.23888845140806" lon="11.588650554944437"><ele>487.99999999999994</ele><time>2026-04-18T11:36:14Z</time></trkpt><trkpt lat="44.23900075450867" lon="11.588641304749435"><ele>487.99999999999994</ele><time>2026-04-18T11:36:15Z</time></trkpt><trkpt lat="44.23910558886918" lon="11.588615242322382"><ele>488.0</ele><time>2026-04-18T11:36:16Z</time></trkpt><trkpt lat="44.2392032078455" lon="11.58856927318526"><ele>488.0</ele><time>2026-04-18T11:36:17Z</time></trkpt><trkpt lat="44.23929202434749" lon="11.588511721494974"><ele>487.8333333333333</ele><time>2026-04-18T11:36:18Z</time></trkpt><trkpt lat="44.23937115018224" lon="11.588439614056243"><ele>487.66666666666663</ele><time>2026-04-18T11:36:19Z</time></trkpt><trkpt lat="44.23944585009018" lon="11.588370758249686"><ele>487.5</ele><time>2026-04-18T11:36:20Z</time></trkpt><trkpt lat="44.239518547731194" lon="11.588298934994476"><ele>487.33333333333337</ele><time>2026-04-18T11:36:21Z</time></trkpt><trkpt lat="44.23958935491233" lon="11.58824443460501"><ele>487.1666666666667</ele><time>2026-04-18T11:36:22Z</time></trkpt><trkpt lat="44.23965558704337" lon="11.588179420856363"><ele>487.0</ele><time>2026-04-18T11:36:23Z</time></trkpt><trkpt lat="44.239721633253644" lon="11.588112156428537"><ele>487.00000000000006</ele><time>2026-04-18T11:36:24Z</time></trkpt><trkpt lat="44.23978474515116" lon="11.588052099824361"><ele>487.0</ele><time>2026-04-18T11:36:25Z</time></trkpt><trkpt lat="44.23984573395674" lon="11.587996422730457"><ele>487.0</ele><time>2026-04-18T11:36:26Z</time></trkpt><trkpt lat="44.23991580900113" lon="11.587930532824137"><ele>487.0</ele><time>2026-04-18T11:36:27Z</time></trkpt><trkpt lat="44.23998076992938" lon="11.587871154811394"><ele>487.00000000000006</ele><time>2026-04-18T11:36:28Z</time></trkpt><trkpt lat="44.24004532562931" lon="11.587810195764131"><ele>487.0</ele><time>2026-04-18T11:36:29Z</time></trkpt><trkpt lat="44.24010894296359" lon="11.587751379355185"><ele>487.28571428571433</ele><time>2026-04-18T11:36:30Z</time></trkpt><trkpt lat="44.240169748167645" lon="11.587705062216042"><ele>487.57142857142856</ele><time>2026-04-18T11:36:31Z</time></trkpt><trkpt lat="44.24023183139968" lon="11.587649442433937"><ele>487.8571428571429</ele><time>2026-04-18T11:36:32Z</time></trkpt><trkpt lat="44.240298014219206" lon="11.587588648535549"><ele>488.14285714285717</ele><time>2026-04-18T11:36:33Z</time></trkpt><trkpt lat="44.24035765271428" lon="11.587538455020976"><ele>488.42857142857144</ele><time>2026-04-18T11:36:34Z</time></trkpt><trkpt lat="44.24041623904766" lon="11.587483360831184"><ele>488.7142857142857</ele><time>2026-04-18T11:36:35Z</time></trkpt><trkpt lat="44.240472341626905" lon="11.587431640921176"><ele>489.0</ele><time>2026-04-18T11:36:36Z</time></trkpt><trkpt lat="44.24052896383113" lon="11.587365506759436"><ele>489.0</ele><time>2026-04-18T11:36:37Z</time></trkpt><trkpt lat="44.24058119524388" lon="11.587292253269858"><ele>489.00000000000006</ele><time>2026-04-18T11:36:38Z</time></trkpt><trkpt lat="44.240628312561526" lon="11.58721001212773"><ele>489.0</ele><time>2026-04-18T11:36:39Z</time></trkpt><trkpt lat="44.2406669701292" lon="11.587123198780453"><ele>489.0</ele><time>2026-04-18T11:36:40Z</time></trkpt><trkpt lat="44.24069831910045" lon="11.587029659394068"><ele>489.00000000000006</ele><time>2026-04-18T11:36:41Z</time></trkpt><trkpt lat="44.24072520690138" lon="11.586935304204895"><ele>489.0</ele><time>2026-04-18T11:36:42Z</time></trkpt><trkpt lat="44.24074629000972" lon="11.58684107537774"><ele>489.0</ele><time>2026-04-18T11:36:43Z</time></trkpt><trkpt lat="44.24075480647286" lon="11.586743589714018"><ele>490.6666666666667</ele><time>2026-04-18T11:36:44Z</time></trkpt><trkpt lat="44.240758552907344" lon="11.586644273696475"><ele>492.33333333333337</ele><time>2026-04-18T11:36:45Z</time></trkpt><trkpt lat="44.24075094739478" lon="11.58654890433177"><ele>494.0</ele><time>2026-04-18T11:36:46Z</time></trkpt><trkpt lat="44.24073807797261" lon="11.586457775460772"><ele>495.6666666666667</ele><time>2026-04-18T11:36:47Z</time></trkpt><trkpt lat="44.24071217494436" lon="11.586281908013005"><ele>497.33333333333337</ele><time>2026-04-18T11:36:49Z</time></trkpt><trkpt lat="44.24070699767488" lon="11.586193977352034"><ele>499.0</ele><time>2026-04-18T11:36:50Z</time></trkpt><trkpt lat="44.240707695487544" lon="11.586100206233885"><ele>499.1666666666667</ele><time>2026-04-18T11:36:51Z</time></trkpt><trkpt lat="44.24071212124314" lon="11.586004712380227"><ele>499.33333333333337</ele><time>2026-04-18T11:36:52Z</time></trkpt><trkpt lat="44.240729717650744" lon="11.58591216814578"><ele>499.5</ele><time>2026-04-18T11:36:53Z</time></trkpt><trkpt lat="44.24075191728915" lon="11.58581879960492"><ele>499.66666666666663</ele><time>2026-04-18T11:36:54Z</time></trkpt><trkpt lat="44.24077446926869" lon="11.585729845147764"><ele>499.8333333333333</ele><time>2026-04-18T11:36:55Z</time></trkpt><trkpt lat="44.2408164081976" lon="11.585562875510242"><ele>500.0</ele><time>2026-04-18T11:36:57Z</time></trkpt><trkpt lat="44.24083745454982" lon="11.585479697895734"><ele>500.0</ele><time>2026-04-18T11:36:58Z</time></trkpt><trkpt lat="44.240862259204356" lon="11.585393095204937"><ele>500.0</ele><time>2026-04-18T11:36:59Z</time></trkpt><trkpt lat="44.2408831322631" lon="11.58530419115542"><ele>500.0</ele><time>2026-04-18T11:37:00Z</time></trkpt><trkpt lat="44.24090588319714" lon="11.585218308468106"><ele>500.0</ele><time>2026-04-18T11:37:01Z</time></trkpt><trkpt lat="44.24092938084863" lon="11.585133509206967"><ele>500.0</ele><time>2026-04-18T11:37:02Z</time></trkpt><trkpt lat="44.24095146748925" lon="11.585046177711588"><ele>500.0</ele><time>2026-04-18T11:37:03Z</time></trkpt><trkpt lat="44.24097340218824" lon="11.584961701200532"><ele>500.0</ele><time>2026-04-18T11:37:04Z</time></trkpt><trkpt lat="44.24099782907163" lon="11.58487556050211"><ele>499.1428571428571</ele><time>2026-04-18T11:37:05Z</time></trkpt><trkpt lat="44.24102384694358" lon="11.584790318361003"><ele>498.28571428571433</ele><time>2026-04-18T11:37:06Z</time></trkpt><trkpt lat="44.241045697919894" lon="11.584703989329903"><ele>497.42857142857144</ele><time>2026-04-18T11:37:07Z</time></trkpt><trkpt lat="44.24106838720844" lon="11.5846163455676"><ele>496.57142857142856</ele><time>2026-04-18T11:37:08Z</time></trkpt><trkpt lat="44.24109192646267" lon="11.58453257963042"><ele>495.71428571428567</ele><time>2026-04-18T11:37:09Z</time></trkpt><trkpt lat="44.241113514424896" lon="11.584448963203673"><ele>494.8571428571429</ele><time>2026-04-18T11:37:10Z</time></trkpt><trkpt lat="44.2411338591533" lon="11.584361766426717"><ele>494.0</ele><time>2026-04-18T11:37:11Z</time></trkpt><trkpt lat="44.241177315178" lon="11.584209730292988"><ele>493.99999999999994</ele><time>2026-04-18T11:37:13Z</time></trkpt><trkpt lat="44.24121257354795" lon="11.584077582997175"><ele>494.0</ele><time>2026-04-18T11:37:15Z</time></trkpt><trkpt lat="44.24124658450405" lon="11.58398559272377"><ele>494.0</ele><time>2026-04-18T11:37:17Z</time></trkpt><trkpt lat="44.241289116744646" lon="11.583918060987417"><ele>494.0</ele><time>2026-04-18T11:37:20Z</time></trkpt><trkpt lat="44.24132263465566" lon="11.584008848672314"><ele>493.99999999999994</ele><time>2026-04-18T11:37:21Z</time></trkpt><trkpt lat="44.241371379070614" lon="11.584122111866845"><ele>494.0</ele><time>2026-04-18T11:37:24Z</time></trkpt><trkpt lat="44.241395536488724" lon="11.584207035877816"><ele>494.0</ele><time>2026-04-18T11:37:26Z</time></trkpt><trkpt lat="44.2414175384563" lon="11.584304993248704"><ele>494.0</ele><time>2026-04-18T11:37:28Z</time></trkpt><trkpt lat="44.241413681995446" lon="11.58441417612387"><ele>494.0</ele><time>2026-04-18T11:37:30Z</time></trkpt><trkpt lat="44.24143312939432" lon="11.58451131563846"><ele>494.0</ele><time>2026-04-18T11:37:32Z</time></trkpt><trkpt lat="44.24144516617071" lon="11.584616198005202"><ele>494.0</ele><time>2026-04-18T11:37:34Z</time></trkpt><trkpt lat="44.24144587135807" lon="11.5847113160582"><ele>494.0</ele><time>2026-04-18T11:37:36Z</time></trkpt><trkpt lat="44.24148396278809" lon="11.584801360199036"><ele>494.0</ele><time>2026-04-18T11:37:38Z</time></trkpt><trkpt lat="44.241515939937834" lon="11.58489281341864"><ele>496.16666666666663</ele><time>2026-04-18T11:37:40Z</time></trkpt><trkpt lat="44.24156848534832" lon="11.584967278685703"><ele>498.3333333333333</ele><time>2026-04-18T11:37:42Z</time></trkpt><trkpt lat="44.24162300518818" lon="11.585031629272114"><ele>500.5</ele><time>2026-04-18T11:37:44Z</time></trkpt><trkpt lat="44.24168917942361" lon="11.585087622986661"><ele>502.66666666666663</ele><time>2026-04-18T11:37:46Z</time></trkpt><trkpt lat="44.241750030926994" lon="11.58514150523885"><ele>504.8333333333333</ele><time>2026-04-18T11:37:49Z</time></trkpt><trkpt lat="44.241873315253244" lon="11.585264754518057"><ele>507.0</ele><time>2026-04-18T11:37:50Z</time></trkpt><trkpt lat="44.24198644592514" lon="11.585393594101662"><ele>507.0</ele><time>2026-04-18T11:37:52Z</time></trkpt><trkpt lat="44.24207036724322" lon="11.585468182530802"><ele>507.00000000000006</ele><time>2026-04-18T11:37:53Z</time></trkpt><trkpt lat="44.2421428829596" lon="11.58555190927679"><ele>507.00000000000006</ele><time>2026-04-18T11:37:54Z</time></trkpt><trkpt lat="44.24221505106875" lon="11.58564147709281"><ele>507.0</ele><time>2026-04-18T11:37:55Z</time></trkpt><trkpt lat="44.242304708691414" lon="11.585730986632921"><ele>507.0</ele><time>2026-04-18T11:37:56Z</time></trkpt><trkpt lat="44.242403424255016" lon="11.585801584764111"><ele>507.0</ele><time>2026-04-18T11:37:57Z</time></trkpt><trkpt lat="44.24248861711615" lon="11.585899035977961"><ele>507.00000000000006</ele><time>2026-04-18T11:37:58Z</time></trkpt><trkpt lat="44.242595735963825" lon="11.585950719188304"><ele>507.00000000000006</ele><time>2026-04-18T11:37:59Z</time></trkpt><trkpt lat="44.24269572528608" lon="11.585986171741844"><ele>507.0</ele><time>2026-04-18T11:38:00Z</time></trkpt><trkpt lat="44.24278386638143" lon="11.586035923687435"><ele>507.0</ele><time>2026-04-18T11:38:01Z</time></trkpt><trkpt lat="44.24291135260505" lon="11.586042218425838"><ele>507.0</ele><time>2026-04-18T11:38:02Z</time></trkpt><trkpt lat="44.24298347542374" lon="11.58606585778159"><ele>507.00000000000006</ele><time>2026-04-18T11:38:03Z</time></trkpt><trkpt lat="44.243086306276254" lon="11.586073827053553"><ele>507.00000000000006</ele><time>2026-04-18T11:38:04Z</time></trkpt><trkpt lat="44.243179911185294" lon="11.586067545630396"><ele>507.0</ele><time>2026-04-18T11:38:05Z</time></trkpt><trkpt lat="44.24326481811155" lon="11.586061739886633"><ele>507.0</ele><time>2026-04-18T11:38:06Z</time></trkpt><trkpt lat="44.24336954623551" lon="11.586051765649055"><ele>507.8</ele><time>2026-04-18T11:38:07Z</time></trkpt><trkpt lat="44.24346898600778" lon="11.586038050006584"><ele>508.6</ele><time>2026-04-18T11:38:08Z</time></trkpt><trkpt lat="44.24356275036982" lon="11.586021266400929"><ele>509.40000000000003</ele><time>2026-04-18T11:38:09Z</time></trkpt><trkpt lat="44.2436629944429" lon="11.586004365613817"><ele>510.20000000000005</ele><time>2026-04-18T11:38:10Z</time></trkpt><trkpt lat="44.243754984036855" lon="11.5859950973959"><ele>511.0</ele><time>2026-04-18T11:38:11Z</time></trkpt><trkpt lat="44.24386485724134" lon="11.586008954108772"><ele>510.6</ele><time>2026-04-18T11:38:12Z</time></trkpt><trkpt lat="44.24398416791984" lon="11.586062466009288"><ele>510.20000000000005</ele><time>2026-04-18T11:38:13Z</time></trkpt><trkpt lat="44.24406397669368" lon="11.586113561167418"><ele>509.79999999999995</ele><time>2026-04-18T11:38:14Z</time></trkpt><trkpt lat="44.24414166782324" lon="11.5861638967573"><ele>509.4</ele><time>2026-04-18T11:38:15Z</time></trkpt><trkpt lat="44.244205466163486" lon="11.586210665245273"><ele>509.0</ele><time>2026-04-18T11:38:16Z</time></trkpt><trkpt lat="44.24430468756783" lon="11.586300928973989"><ele>504.6</ele><time>2026-04-18T11:38:18Z</time></trkpt><trkpt lat="44.244395079866436" lon="11.586382611234722"><ele>500.2</ele><time>2026-04-18T11:38:20Z</time></trkpt><trkpt lat="44.244494653698766" lon="11.586492749068935"><ele>495.80000000000007</ele><time>2026-04-18T11:38:22Z</time></trkpt><trkpt lat="44.244551431500355" lon="11.586552249209625"><ele>491.40000000000003</ele><time>2026-04-18T11:38:23Z</time></trkpt><trkpt lat="44.24462964868699" lon="11.5866000411782"><ele>487.0</ele><time>2026-04-18T11:38:24Z</time></trkpt><trkpt lat="44.244713500564664" lon="11.58663221828378"><ele>487.0</ele><time>2026-04-18T11:38:25Z</time></trkpt><trkpt lat="44.24481945872172" lon="11.586593579892448"><ele>487.00000000000006</ele><time>2026-04-18T11:38:26Z</time></trkpt><trkpt lat="44.244924409935756" lon="11.586566285594156"><ele>487.00000000000006</ele><time>2026-04-18T11:38:27Z</time></trkpt><trkpt lat="44.2450233727185" lon="11.586585024682257"><ele>487.0</ele><time>2026-04-18T11:38:28Z</time></trkpt><trkpt lat="44.245121804289546" lon="11.586624872864942"><ele>487.0</ele><time>2026-04-18T11:38:29Z</time></trkpt><trkpt lat="44.24521316560018" lon="11.586691069198158"><ele>487.00000000000006</ele><time>2026-04-18T11:38:30Z</time></trkpt><trkpt lat="44.24530536783994" lon="11.58673366677787"><ele>487.0</ele><time>2026-04-18T11:38:31Z</time></trkpt><trkpt lat="44.24537838063589" lon="11.586813271783194"><ele>487.0</ele><time>2026-04-18T11:38:32Z</time></trkpt><trkpt lat="44.24545593833743" lon="11.586843230877962"><ele>487.0</ele><time>2026-04-18T11:38:33Z</time></trkpt><trkpt lat="44.24552702675452" lon="11.586880410856022"><ele>487.00000000000006</ele><time>2026-04-18T11:38:34Z</time></trkpt><trkpt lat="44.24560504420949" lon="11.586906143827937"><ele>487.0</ele><time>2026-04-18T11:38:35Z</time></trkpt><trkpt lat="44.24566734823903" lon="11.586946872397439"><ele>487.8</ele><time>2026-04-18T11:38:36Z</time></trkpt><trkpt lat="44.245733659822235" lon="11.58682057012779"><ele>488.6</ele><time>2026-04-18T11:38:37Z</time></trkpt><trkpt lat="44.245820108427516" lon="11.586867591056338"><ele>489.40000000000003</ele><time>2026-04-18T11:38:38Z</time></trkpt><trkpt lat="44.24590040173783" lon="11.586810885780254"><ele>490.20000000000005</ele><time>2026-04-18T11:38:39Z</time></trkpt><trkpt lat="44.24598710337594" lon="11.586785891380046"><ele>491.0</ele><time>2026-04-18T11:38:40Z</time></trkpt><trkpt lat="44.24608072790991" lon="11.586782571863433"><ele>490.99999999999994</ele><time>2026-04-18T11:38:41Z</time></trkpt><trkpt lat="44.24616509664691" lon="11.586795522738202"><ele>491.0</ele><time>2026-04-18T11:38:42Z</time></trkpt><trkpt lat="44.246248376541416" lon="11.586816995132299"><ele>491.0</ele><time>2026-04-18T11:38:43Z</time></trkpt><trkpt lat="44.246321124449416" lon="11.586846623698497"><ele>491.0</ele><time>2026-04-18T11:38:44Z</time></trkpt><trkpt lat="44.246395253501625" lon="11.586873573168386"><ele>490.99999999999994</ele><time>2026-04-18T11:38:45Z</time></trkpt><trkpt lat="44.246466108968875" lon="11.586905430812466"><ele>491.0</ele><time>2026-04-18T11:38:46Z</time></trkpt><trkpt lat="44.24653465515677" lon="11.586935859756917"><ele>488.4</ele><time>2026-04-18T11:38:47Z</time></trkpt><trkpt lat="44.24660487959753" lon="11.586961660452607"><ele>485.8</ele><time>2026-04-18T11:38:48Z</time></trkpt><trkpt lat="44.24666971222986" lon="11.586977718589468"><ele>483.19999999999993</ele><time>2026-04-18T11:38:49Z</time></trkpt><trkpt lat="44.24673503542286" lon="11.586978494482384"><ele>480.59999999999997</ele><time>2026-04-18T11:38:50Z</time></trkpt><trkpt lat="44.246863614242855" lon="11.586985225346101"><ele>478.0</ele><time>2026-04-18T11:38:52Z</time></trkpt><trkpt lat="44.24698479437934" lon="11.587048112448139"><ele>477.1428571428572</ele><time>2026-04-18T11:38:54Z</time></trkpt><trkpt lat="44.24705783480931" lon="11.587024813663938"><ele>476.28571428571433</ele><time>2026-04-18T11:38:55Z</time></trkpt><trkpt lat="44.24711709513164" lon="11.587060403243141"><ele>475.42857142857144</ele><time>2026-04-18T11:38:56Z</time></trkpt><trkpt lat="44.2471884599582" lon="11.587083897898502"><ele>474.5714285714286</ele><time>2026-04-18T11:38:57Z</time></trkpt><trkpt lat="44.24725516182483" lon="11.587108519377596"><ele>473.7142857142858</ele><time>2026-04-18T11:38:58Z</time></trkpt><trkpt lat="44.247322339249145" lon="11.587136027969024"><ele>472.85714285714283</ele><time>2026-04-18T11:38:59Z</time></trkpt><trkpt lat="44.24738546565812" lon="11.587160997930338"><ele>472.0</ele><time>2026-04-18T11:39:00Z</time></trkpt><trkpt lat="44.247446970292" lon="11.587192609687206"><ele>472.00000000000006</ele><time>2026-04-18T11:39:01Z</time></trkpt><trkpt lat="44.24750964258049" lon="11.587229131797443"><ele>472.0</ele><time>2026-04-18T11:39:02Z</time></trkpt><trkpt lat="44.24757963762955" lon="11.587245563637351"><ele>472.0</ele><time>2026-04-18T11:39:03Z</time></trkpt><trkpt lat="44.24764939326828" lon="11.587244875401026"><ele>472.0</ele><time>2026-04-18T11:39:04Z</time></trkpt><trkpt lat="44.2477170247376" lon="11.587231714635118"><ele>472.00000000000006</ele><time>2026-04-18T11:39:05Z</time></trkpt><trkpt lat="44.24784024421956" lon="11.587230257689239"><ele>472.0</ele><time>2026-04-18T11:39:07Z</time></trkpt><trkpt lat="44.2479057076205" lon="11.587233792102332"><ele>472.0</ele><time>2026-04-18T11:39:08Z</time></trkpt><trkpt lat="44.247974301442454" lon="11.587235294700646"><ele>472.00000000000006</ele><time>2026-04-18T11:39:09Z</time></trkpt><trkpt lat="44.248055815876356" lon="11.587420247534526"><ele>472.00000000000006</ele><time>2026-04-18T11:39:11Z</time></trkpt><trkpt lat="44.24815429570837" lon="11.587473577088168"><ele>472.0</ele><time>2026-04-18T11:39:13Z</time></trkpt><trkpt lat="44.248213870794835" lon="11.587506653936991"><ele>472.0</ele><time>2026-04-18T11:39:14Z</time></trkpt><trkpt lat="44.24827925150561" lon="11.587541516301073"><ele>472.83333333333337</ele><time>2026-04-18T11:39:15Z</time></trkpt><trkpt lat="44.24836023854757" lon="11.58756682342789"><ele>473.6666666666667</ele><time>2026-04-18T11:39:16Z</time></trkpt><trkpt lat="44.24845662206984" lon="11.587566629173708"><ele>474.5</ele><time>2026-04-18T11:39:17Z</time></trkpt><trkpt lat="44.24854516545549" lon="11.587560605391793"><ele>475.33333333333337</ele><time>2026-04-18T11:39:18Z</time></trkpt><trkpt lat="44.248634290819076" lon="11.587557360844963"><ele>476.1666666666667</ele><time>2026-04-18T11:39:19Z</time></trkpt><trkpt lat="44.24872152242081" lon="11.587557360848043"><ele>477.0</ele><time>2026-04-18T11:39:20Z</time></trkpt><trkpt lat="44.24880052293077" lon="11.587561270254827"><ele>477.0</ele><time>2026-04-18T11:39:21Z</time></trkpt><trkpt lat="44.24887360351322" lon="11.587579951546752"><ele>477.0</ele><time>2026-04-18T11:39:22Z</time></trkpt><trkpt lat="44.24899255316548" lon="11.587651570151035"><ele>477.0</ele><time>2026-04-18T11:39:24Z</time></trkpt><trkpt lat="44.24904785110738" lon="11.587712055853933"><ele>477.0</ele><time>2026-04-18T11:39:25Z</time></trkpt><trkpt lat="44.24911119677166" lon="11.587775628772183"><ele>477.0</ele><time>2026-04-18T11:39:26Z</time></trkpt><trkpt lat="44.24918415677068" lon="11.587844002563946"><ele>477.0</ele><time>2026-04-18T11:39:27Z</time></trkpt><trkpt lat="44.24925437336039" lon="11.587913103067246"><ele>474.6</ele><time>2026-04-18T11:39:28Z</time></trkpt><trkpt lat="44.249325325259655" lon="11.587994825502202"><ele>472.20000000000005</ele><time>2026-04-18T11:39:29Z</time></trkpt><trkpt lat="44.24938141255484" lon="11.588092786993725"><ele>469.8</ele><time>2026-04-18T11:39:30Z</time></trkpt><trkpt lat="44.24943853243877" lon="11.588192744076263"><ele>467.4</ele><time>2026-04-18T11:39:31Z</time></trkpt><trkpt lat="44.24951081014979" lon="11.588281086727836"><ele>465.0</ele><time>2026-04-18T11:39:32Z</time></trkpt><trkpt lat="44.249584622065626" lon="11.58835319670555"><ele>465.0</ele><time>2026-04-18T11:39:33Z</time></trkpt><trkpt lat="44.249673667534736" lon="11.588398105044226"><ele>465.0</ele><time>2026-04-18T11:39:34Z</time></trkpt><trkpt lat="44.2497554770263" lon="11.588456370156502"><ele>465.0</ele><time>2026-04-18T11:39:35Z</time></trkpt><trkpt lat="44.249836400042696" lon="11.588538997980804"><ele>465.0</ele><time>2026-04-18T11:39:36Z</time></trkpt><trkpt lat="44.249910989180364" lon="11.588637927514691"><ele>465.0</ele><time>2026-04-18T11:39:37Z</time></trkpt><trkpt lat="44.24998468055688" lon="11.58876965310966"><ele>462.75</ele><time>2026-04-18T11:39:38Z</time></trkpt><trkpt lat="44.25004471708579" lon="11.588917898132056"><ele>460.5</ele><time>2026-04-18T11:39:39Z</time></trkpt><trkpt lat="44.25009820805715" lon="11.589075328520206"><ele>458.25</ele><time>2026-04-18T11:39:40Z</time></trkpt><trkpt lat="44.25014893275189" lon="11.589224278714747"><ele>456.0</ele><time>2026-04-18T11:39:41Z</time></trkpt><trkpt lat="44.25020239460573" lon="11.589373672964717"><ele>452.0</ele><time>2026-04-18T11:39:42Z</time></trkpt><trkpt lat="44.25024796497469" lon="11.589534726975435"><ele>448.0</ele><time>2026-04-18T11:39:43Z</time></trkpt><trkpt lat="44.25028419366942" lon="11.589685954649747"><ele>444.0</ele><time>2026-04-18T11:39:44Z</time></trkpt><trkpt lat="44.250311676122514" lon="11.589838162028581"><ele>440.0</ele><time>2026-04-18T11:39:45Z</time></trkpt><trkpt lat="44.250314328399554" lon="11.589995296173564"><ele>440.0</ele><time>2026-04-18T11:39:46Z</time></trkpt><trkpt lat="44.250297412416664" lon="11.590137074440243"><ele>440.0</ele><time>2026-04-18T11:39:47Z</time></trkpt><trkpt lat="44.25029433627274" lon="11.590282702462034"><ele>440.0</ele><time>2026-04-18T11:39:48Z</time></trkpt><trkpt lat="44.25029208741676" lon="11.590424924988016"><ele>440.0</ele><time>2026-04-18T11:39:49Z</time></trkpt><trkpt lat="44.25031835754874" lon="11.590538787506572"><ele>440.0</ele><time>2026-04-18T11:39:50Z</time></trkpt><trkpt lat="44.2503698309871" lon="11.590651268948658"><ele>440.2</ele><time>2026-04-18T11:39:51Z</time></trkpt><trkpt lat="44.25043260454152" lon="11.590766166953719"><ele>440.4</ele><time>2026-04-18T11:39:52Z</time></trkpt><trkpt lat="44.25051891672246" lon="11.590868402226755"><ele>440.6</ele><time>2026-04-18T11:39:53Z</time></trkpt><trkpt lat="44.250606572939354" lon="11.590954260498494"><ele>440.8</ele><time>2026-04-18T11:39:54Z</time></trkpt><trkpt lat="44.25068963091886" lon="11.59099616313127"><ele>441.0</ele><time>2026-04-18T11:39:55Z</time></trkpt><trkpt lat="44.25078407549533" lon="11.591008723859808"><ele>441.0</ele><time>2026-04-18T11:39:56Z</time></trkpt><trkpt lat="44.25088527904524" lon="11.591044248758909"><ele>441.0</ele><time>2026-04-18T11:39:57Z</time></trkpt><trkpt lat="44.25096970064325" lon="11.59110694628853"><ele>441.0</ele><time>2026-04-18T11:39:58Z</time></trkpt><trkpt lat="44.251043062084676" lon="11.591133241150914"><ele>441.0</ele><time>2026-04-18T11:39:59Z</time></trkpt><trkpt lat="44.2511410972819" lon="11.591141802204202"><ele>441.0</ele><time>2026-04-18T11:40:00Z</time></trkpt><trkpt lat="44.25124696020861" lon="11.591150391164163"><ele>441.0</ele><time>2026-04-18T11:40:01Z</time></trkpt><trkpt lat="44.251370819682286" lon="11.591164445277222"><ele>441.0</ele><time>2026-04-18T11:40:02Z</time></trkpt><trkpt lat="44.251489216917726" lon="11.591187498127407"><ele>441.0</ele><time>2026-04-18T11:40:03Z</time></trkpt><trkpt lat="44.25160725947592" lon="11.591210795042553"><ele>441.0</ele><time>2026-04-18T11:40:04Z</time></trkpt><trkpt lat="44.25172715138198" lon="11.591243241808012"><ele>439.25</ele><time>2026-04-18T11:40:05Z</time></trkpt><trkpt lat="44.25184897565203" lon="11.591293015146897"><ele>437.5</ele><time>2026-04-18T11:40:06Z</time></trkpt><trkpt lat="44.251965597391035" lon="11.591369674274874"><ele>435.75</ele><time>2026-04-18T11:40:07Z</time></trkpt><trkpt lat="44.252077272676914" lon="11.591472900130675"><ele>434.0</ele><time>2026-04-18T11:40:08Z</time></trkpt><trkpt lat="44.252159542918186" lon="11.591600969663258"><ele>434.0</ele><time>2026-04-18T11:40:09Z</time></trkpt><trkpt lat="44.25221669082157" lon="11.591729642756581"><ele>434.0</ele><time>2026-04-18T11:40:10Z</time></trkpt><trkpt lat="44.252285883320106" lon="11.591854405687375"><ele>434.0</ele><time>2026-04-18T11:40:11.001Z</time></trkpt><trkpt lat="44.25237021996352" lon="11.591966669702538"><ele>434.0</ele><time>2026-04-18T11:40:12.001Z</time></trkpt><trkpt lat="44.25245980998408" lon="11.592074172175334"><ele>431.6</ele><time>2026-04-18T11:40:13.001Z</time></trkpt><trkpt lat="44.25255686043798" lon="11.592183727330935"><ele>429.2</ele><time>2026-04-18T11:40:14.001Z</time></trkpt><trkpt lat="44.25265819226761" lon="11.592258325883877"><ele>426.8</ele><time>2026-04-18T11:40:15.001Z</time></trkpt><trkpt lat="44.252756236183956" lon="11.592302185214333"><ele>424.40000000000003</ele><time>2026-04-18T11:40:16.001Z</time></trkpt><trkpt lat="44.25285980364452" lon="11.592317109608326"><ele>422.0</ele><time>2026-04-18T11:40:17.001Z</time></trkpt><trkpt lat="44.252967864846894" lon="11.592303277688366"><ele>422.0</ele><time>2026-04-18T11:40:18.001Z</time></trkpt><trkpt lat="44.25308008878297" lon="11.592283363448876"><ele>422.0</ele><time>2026-04-18T11:40:19Z</time></trkpt><trkpt lat="44.253193741926836" lon="11.592256239389046"><ele>422.0</ele><time>2026-04-18T11:40:20Z</time></trkpt><trkpt lat="44.25331544098078" lon="11.592240597516833"><ele>422.0</ele><time>2026-04-18T11:40:21Z</time></trkpt><trkpt lat="44.25344489558365" lon="11.592229225302638"><ele>421.40000000000003</ele><time>2026-04-18T11:40:22Z</time></trkpt><trkpt lat="44.253561877403904" lon="11.592209893022433"><ele>420.8</ele><time>2026-04-18T11:40:23Z</time></trkpt><trkpt lat="44.25367155132323" lon="11.592173382204814"><ele>420.2</ele><time>2026-04-18T11:40:24Z</time></trkpt><trkpt lat="44.25377558027599" lon="11.592124196234938"><ele>419.6</ele><time>2026-04-18T11:40:25Z</time></trkpt><trkpt lat="44.253869604288255" lon="11.59209511989217"><ele>419.0</ele><time>2026-04-18T11:40:26Z</time></trkpt><trkpt lat="44.253959316984414" lon="11.592137619522985"><ele>416.8333333333333</ele><time>2026-04-18T11:40:27Z</time></trkpt><trkpt lat="44.254021051259066" lon="11.592208394132422"><ele>414.66666666666663</ele><time>2026-04-18T11:40:28Z</time></trkpt><trkpt lat="44.254101222463305" lon="11.592312670388775"><ele>412.5</ele><time>2026-04-18T11:40:30Z</time></trkpt><trkpt lat="44.254160381281515" lon="11.59238276469991"><ele>410.33333333333337</ele><time>2026-04-18T11:40:32Z</time></trkpt><trkpt lat="44.25422484353592" lon="11.592432811602608"><ele>408.1666666666667</ele><time>2026-04-18T11:40:34Z</time></trkpt><trkpt lat="44.25429202269933" lon="11.592502165447236"><ele>406.0</ele><time>2026-04-18T11:40:36Z</time></trkpt><trkpt lat="44.254337532671556" lon="11.592618033552949"><ele>406.00000000000006</ele><time>2026-04-18T11:40:38Z</time></trkpt><trkpt lat="44.25435556946347" lon="11.592735261437356"><ele>406.0</ele><time>2026-04-18T11:40:40Z</time></trkpt><trkpt lat="44.25437712069626" lon="11.592841834271312"><ele>406.0</ele><time>2026-04-18T11:40:42Z</time></trkpt><trkpt lat="44.25440299905449" lon="11.592948239287633"><ele>406.0</ele><time>2026-04-18T11:40:44Z</time></trkpt><trkpt lat="44.25444145861074" lon="11.593058592718368"><ele>406.00000000000006</ele><time>2026-04-18T11:40:46Z</time></trkpt><trkpt lat="44.25449441784371" lon="11.593158544088707"><ele>406.0</ele><time>2026-04-18T11:40:48Z</time></trkpt><trkpt lat="44.254556410394386" lon="11.593233231142037"><ele>406.83333333333337</ele><time>2026-04-18T11:40:50Z</time></trkpt><trkpt lat="44.2546156685475" lon="11.593286778424462"><ele>407.6666666666667</ele><time>2026-04-18T11:40:52Z</time></trkpt><trkpt lat="44.254687247545625" lon="11.59334975622741"><ele>408.5</ele><time>2026-04-18T11:40:55Z</time></trkpt><trkpt lat="44.254752627766976" lon="11.593409904175942"><ele>409.33333333333337</ele><time>2026-04-18T11:40:58Z</time></trkpt><trkpt lat="44.25483892960163" lon="11.593453404027125"><ele>410.1666666666667</ele><time>2026-04-18T11:41:01Z</time></trkpt><trkpt lat="44.254917446764026" lon="11.593500273928687"><ele>411.0</ele><time>2026-04-18T11:41:04Z</time></trkpt><trkpt lat="44.2549952876981" lon="11.59354884629602"><ele>411.0</ele><time>2026-04-18T11:41:07Z</time></trkpt><trkpt lat="44.25506964529879" lon="11.593610343832264"><ele>411.0</ele><time>2026-04-18T11:41:10Z</time></trkpt><trkpt lat="44.255147982307335" lon="11.593668246041005"><ele>411.0</ele><time>2026-04-18T11:41:13Z</time></trkpt><trkpt lat="44.255207556861436" lon="11.593710035633817"><ele>411.0</ele><time>2026-04-18T11:41:15Z</time></trkpt><trkpt lat="44.25527207181697" lon="11.593752610980614"><ele>411.0</ele><time>2026-04-18T11:41:17Z</time></trkpt><trkpt lat="44.255336059117106" lon="11.593793156426432"><ele>411.0</ele><time>2026-04-18T11:41:19Z</time></trkpt><trkpt lat="44.25540857866382" lon="11.59384098190194"><ele>411.8333333333333</ele><time>2026-04-18T11:41:21Z</time></trkpt><trkpt lat="44.25547884571899" lon="11.593880299554392"><ele>412.66666666666663</ele><time>2026-04-18T11:41:23Z</time></trkpt><trkpt lat="44.25554979937533" lon="11.593925273391847"><ele>413.5</ele><time>2026-04-18T11:41:25Z</time></trkpt><trkpt lat="44.255614547678434" lon="11.593966170827953"><ele>414.3333333333333</ele><time>2026-04-18T11:41:27Z</time></trkpt><trkpt lat="44.25568069058766" lon="11.5940156251808"><ele>415.16666666666663</ele><time>2026-04-18T11:41:29Z</time></trkpt><trkpt lat="44.255740131624556" lon="11.59407639878402"><ele>416.0</ele><time>2026-04-18T11:41:31Z</time></trkpt><trkpt lat="44.25579466218233" lon="11.594150928748823"><ele>416.0</ele><time>2026-04-18T11:41:33Z</time></trkpt><trkpt lat="44.25585967070162" lon="11.594197534819713"><ele>416.0</ele><time>2026-04-18T11:41:35Z</time></trkpt><trkpt lat="44.25591519026684" lon="11.59425252111548"><ele>416.0</ele><time>2026-04-18T11:41:37Z</time></trkpt><trkpt lat="44.25595409830405" lon="11.594327165543548"><ele>416.0</ele><time>2026-04-18T11:41:39Z</time></trkpt><trkpt lat="44.25598805099977" lon="11.594413429773738"><ele>416.0</ele><time>2026-04-18T11:41:41Z</time></trkpt><trkpt lat="44.25603365922071" lon="11.594484503380857"><ele>416.0</ele><time>2026-04-18T11:41:43Z</time></trkpt><trkpt lat="44.25612180257376" lon="11.594538875750303"><ele>416.0</ele><time>2026-04-18T11:41:46Z</time></trkpt><trkpt lat="44.256203162269145" lon="11.594595322738813"><ele>415.99999999999994</ele><time>2026-04-18T11:41:48Z</time></trkpt><trkpt lat="44.256266018147116" lon="11.59474483228299"><ele>416.0</ele><time>2026-04-18T11:41:50Z</time></trkpt><trkpt lat="44.256274748159576" lon="11.594848268753614"><ele>416.0</ele><time>2026-04-18T11:41:51Z</time></trkpt><trkpt lat="44.25626947891004" lon="11.594957492542"><ele>416.0</ele><time>2026-04-18T11:41:52Z</time></trkpt><trkpt lat="44.256249854968324" lon="11.595053890153235"><ele>415.99999999999994</ele><time>2026-04-18T11:41:53Z</time></trkpt><trkpt lat="44.256241141265185" lon="11.595162987651044"><ele>416.0</ele><time>2026-04-18T11:41:55Z</time></trkpt><trkpt lat="44.25630630431578" lon="11.59526890188443"><ele>414.49999999999994</ele><time>2026-04-18T11:41:57Z</time></trkpt><trkpt lat="44.25639763201588" lon="11.595403418033708"><ele>413.0</ele><time>2026-04-18T11:41:59Z</time></trkpt><trkpt lat="44.2564417591329" lon="11.595484240719264"><ele>411.5</ele><time>2026-04-18T11:42:00Z</time></trkpt><trkpt lat="44.25648729446264" lon="11.595578180354408"><ele>410.0</ele><time>2026-04-18T11:42:01Z</time></trkpt><trkpt lat="44.256529694937434" lon="11.595669940943809"><ele>408.49999999999994</ele><time>2026-04-18T11:42:02Z</time></trkpt><trkpt lat="44.25657730654889" lon="11.595756797910289"><ele>407.0</ele><time>2026-04-18T11:42:03Z</time></trkpt><trkpt lat="44.2566401482868" lon="11.5958352174352"><ele>406.3333333333333</ele><time>2026-04-18T11:42:04Z</time></trkpt><trkpt lat="44.256708246778786" lon="11.595893718074102"><ele>405.66666666666663</ele><time>2026-04-18T11:42:05Z</time></trkpt><trkpt lat="44.25678041109575" lon="11.59594550902392"><ele>405.0</ele><time>2026-04-18T11:42:06Z</time></trkpt><trkpt lat="44.25685595462206" lon="11.595991016184113"><ele>404.33333333333337</ele><time>2026-04-18T11:42:07Z</time></trkpt><trkpt lat="44.2569303757471" lon="11.596033285566083"><ele>403.6666666666667</ele><time>2026-04-18T11:42:08Z</time></trkpt><trkpt lat="44.257000084737925" lon="11.596081063241462"><ele>403.0</ele><time>2026-04-18T11:42:09Z</time></trkpt><trkpt lat="44.25706031432657" lon="11.59614278494498"><ele>401.6666666666667</ele><time>2026-04-18T11:42:10Z</time></trkpt><trkpt lat="44.25712027179854" lon="11.5962063578989"><ele>400.33333333333337</ele><time>2026-04-18T11:42:11Z</time></trkpt><trkpt lat="44.25718195029588" lon="11.596268162175306"><ele>399.0</ele><time>2026-04-18T11:42:12Z</time></trkpt><trkpt lat="44.257251228732294" lon="11.596331841138538"><ele>397.66666666666663</ele><time>2026-04-18T11:42:13Z</time></trkpt><trkpt lat="44.25732971041716" lon="11.596397286624587"><ele>396.3333333333333</ele><time>2026-04-18T11:42:14Z</time></trkpt><trkpt lat="44.257406279982206" lon="11.596466641471688"><ele>395.0</ele><time>2026-04-18T11:42:15Z</time></trkpt><trkpt lat="44.2574955885552" lon="11.596554572899791"><ele>395.0</ele><time>2026-04-18T11:42:16Z</time></trkpt><trkpt lat="44.25759557828652" lon="11.596647977336165"><ele>395.0</ele><time>2026-04-18T11:42:17Z</time></trkpt><trkpt lat="44.257711640115886" lon="11.596716268644002"><ele>395.0</ele><time>2026-04-18T11:42:18Z</time></trkpt><trkpt lat="44.257839910468164" lon="11.596756839346892"><ele>395.0</ele><time>2026-04-18T11:42:19Z</time></trkpt><trkpt lat="44.25796856596997" lon="11.596787071746785"><ele>395.0</ele><time>2026-04-18T11:42:20Z</time></trkpt><trkpt lat="44.258096219759395" lon="11.596812788045842"><ele>395.0</ele><time>2026-04-18T11:42:21Z</time></trkpt><trkpt lat="44.2582214857897" lon="11.59682694336163"><ele>395.0</ele><time>2026-04-18T11:42:22Z</time></trkpt><trkpt lat="44.25834024659556" lon="11.596874446593853"><ele>395.0</ele><time>2026-04-18T11:42:23Z</time></trkpt><trkpt lat="44.25845048864448" lon="11.596934426995581"><ele>392.75</ele><time>2026-04-18T11:42:24Z</time></trkpt><trkpt lat="44.25856711193691" lon="11.596975086298626"><ele>390.5</ele><time>2026-04-18T11:42:25Z</time></trkpt><trkpt lat="44.25868969795877" lon="11.597000108768828"><ele>388.25</ele><time>2026-04-18T11:42:26Z</time></trkpt><trkpt lat="44.25881791706106" lon="11.59701692868105"><ele>386.0</ele><time>2026-04-18T11:42:27Z</time></trkpt><trkpt lat="44.25895507636862" lon="11.597019193992539"><ele>382.0</ele><time>2026-04-18T11:42:28Z</time></trkpt><trkpt lat="44.259103772031644" lon="11.597002235990566"><ele>378.0</ele><time>2026-04-18T11:42:29Z</time></trkpt><trkpt lat="44.25925214351092" lon="11.596982813005985"><ele>374.0</ele><time>2026-04-18T11:42:30Z</time></trkpt><trkpt lat="44.259401528795614" lon="11.596973524598992"><ele>370.0</ele><time>2026-04-18T11:42:31Z</time></trkpt><trkpt lat="44.2595385296884" lon="11.596970001023362"><ele>370.0</ele><time>2026-04-18T11:42:32Z</time></trkpt><trkpt lat="44.25966849934514" lon="11.59699296317129"><ele>370.0</ele><time>2026-04-18T11:42:33Z</time></trkpt><trkpt lat="44.25979685668574" lon="11.597043263899065"><ele>370.0</ele><time>2026-04-18T11:42:34Z</time></trkpt><trkpt lat="44.25991151328867" lon="11.597088432385513"><ele>370.0</ele><time>2026-04-18T11:42:35Z</time></trkpt><trkpt lat="44.260022965560196" lon="11.597154529664172"><ele>367.0</ele><time>2026-04-18T11:42:36Z</time></trkpt><trkpt lat="44.26010988025252" lon="11.597252349564828"><ele>364.0</ele><time>2026-04-18T11:42:37Z</time></trkpt><trkpt lat="44.26020355241322" lon="11.597375538332"><ele>361.0</ele><time>2026-04-18T11:42:38Z</time></trkpt><trkpt lat="44.26031997484776" lon="11.597479630664836"><ele>358.0</ele><time>2026-04-18T11:42:39Z</time></trkpt><trkpt lat="44.26043671888053" lon="11.597577372044809"><ele>358.0</ele><time>2026-04-18T11:42:40Z</time></trkpt><trkpt lat="44.260526723443235" lon="11.597697653449606"><ele>358.0</ele><time>2026-04-18T11:42:41Z</time></trkpt><trkpt lat="44.26059725095863" lon="11.597831339828394"><ele>358.0</ele><time>2026-04-18T11:42:42Z</time></trkpt><trkpt lat="44.26066932798098" lon="11.597932608929097"><ele>358.0</ele><time>2026-04-18T11:42:43Z</time></trkpt><trkpt lat="44.26077157190036" lon="11.597997442508497"><ele>353.25</ele><time>2026-04-18T11:42:44Z</time></trkpt><trkpt lat="44.260876154058984" lon="11.598002653906745"><ele>348.5</ele><time>2026-04-18T11:42:45Z</time></trkpt><trkpt lat="44.26098785783884" lon="11.59798446522753"><ele>343.75</ele><time>2026-04-18T11:42:46Z</time></trkpt><trkpt lat="44.26110967687356" lon="11.59797317369181"><ele>339.0</ele><time>2026-04-18T11:42:47Z</time></trkpt><trkpt lat="44.26124022067671" lon="11.597979620493955"><ele>339.0</ele><time>2026-04-18T11:42:48Z</time></trkpt><trkpt lat="44.26136964749804" lon="11.59799879527791"><ele>339.0</ele><time>2026-04-18T11:42:49Z</time></trkpt><trkpt lat="44.26149824738855" lon="11.598031901659157"><ele>339.0</ele><time>2026-04-18T11:42:50Z</time></trkpt><trkpt lat="44.26162270806836" lon="11.598074812192186"><ele>339.0</ele><time>2026-04-18T11:42:51Z</time></trkpt><trkpt lat="44.261743233578656" lon="11.59812318547837"><ele>335.5</ele><time>2026-04-18T11:42:52Z</time></trkpt><trkpt lat="44.261861559901895" lon="11.59815044153854"><ele>332.0</ele><time>2026-04-18T11:42:53Z</time></trkpt><trkpt lat="44.26199494526589" lon="11.598143640074207"><ele>328.5</ele><time>2026-04-18T11:42:54Z</time></trkpt><trkpt lat="44.262135628001445" lon="11.598157570809853"><ele>325.0</ele><time>2026-04-18T11:42:55Z</time></trkpt><trkpt lat="44.262283020641604" lon="11.598201183192984"><ele>318.3333333333333</ele><time>2026-04-18T11:42:56Z</time></trkpt><trkpt lat="44.2624376386628" lon="11.598259227562393"><ele>311.6666666666667</ele><time>2026-04-18T11:42:57Z</time></trkpt><trkpt lat="44.26257581604809" lon="11.598380687172833"><ele>305.0</ele><time>2026-04-18T11:42:58Z</time></trkpt><trkpt lat="44.26271781239153" lon="11.598508432057194"><ele>305.0</ele><time>2026-04-18T11:42:59Z</time></trkpt><trkpt lat="44.26285440066538" lon="11.598627098250125"><ele>305.0</ele><time>2026-04-18T11:43:00Z</time></trkpt><trkpt lat="44.26300441371676" lon="11.598707440683597"><ele>305.0</ele><time>2026-04-18T11:43:01Z</time></trkpt><trkpt lat="44.263148295090346" lon="11.598784112089556"><ele>301.6666666666667</ele><time>2026-04-18T11:43:02Z</time></trkpt><trkpt lat="44.26328790921399" lon="11.598894833060804"><ele>298.3333333333333</ele><time>2026-04-18T11:43:03Z</time></trkpt><trkpt lat="44.263434534054916" lon="11.59898927020481"><ele>295.0</ele><time>2026-04-18T11:43:04Z</time></trkpt><trkpt lat="44.26359601857142" lon="11.599040051021449"><ele>295.0</ele><time>2026-04-18T11:43:05Z</time></trkpt><trkpt lat="44.263756609834246" lon="11.599111365594569"><ele>295.0</ele><time>2026-04-18T11:43:06Z</time></trkpt><trkpt lat="44.26391560567834" lon="11.599181550843868"><ele>295.0</ele><time>2026-04-18T11:43:07Z</time></trkpt><trkpt lat="44.2640685910404" lon="11.59924691482246"><ele>292.0</ele><time>2026-04-18T11:43:08Z</time></trkpt><trkpt lat="44.26421022102695" lon="11.599307852306913"><ele>289.0</ele><time>2026-04-18T11:43:09Z</time></trkpt><trkpt lat="44.26434375939815" lon="11.5993636647233"><ele>286.0</ele><time>2026-04-18T11:43:10Z</time></trkpt><trkpt lat="44.264468759767155" lon="11.599402078490545"><ele>283.0</ele><time>2026-04-18T11:43:11Z</time></trkpt><trkpt lat="44.26458219757134" lon="11.599436303908083"><ele>283.0</ele><time>2026-04-18T11:43:12Z</time></trkpt><trkpt lat="44.264676587255856" lon="11.599484811169386"><ele>283.0</ele><time>2026-04-18T11:43:13Z</time></trkpt><trkpt lat="44.264759235893536" lon="11.599539034282575"><ele>283.0</ele><time>2026-04-18T11:43:14Z</time></trkpt><trkpt lat="44.264833910260855" lon="11.599592010196782"><ele>283.0</ele><time>2026-04-18T11:43:15Z</time></trkpt><trkpt lat="44.264903641856534" lon="11.599656129878374"><ele>283.0</ele><time>2026-04-18T11:43:16Z</time></trkpt><trkpt lat="44.26496842632971" lon="11.599728333264624"><ele>283.0</ele><time>2026-04-18T11:43:17Z</time></trkpt><trkpt lat="44.26502685039972" lon="11.599793546715393"><ele>284.5</ele><time>2026-04-18T11:43:18Z</time></trkpt><trkpt lat="44.26508588146393" lon="11.599861697988814"><ele>286.0</ele><time>2026-04-18T11:43:19Z</time></trkpt><trkpt lat="44.26514279467042" lon="11.599917759720023"><ele>287.5</ele><time>2026-04-18T11:43:20Z</time></trkpt><trkpt lat="44.26523590456637" lon="11.600011473984857"><ele>289.0</ele><time>2026-04-18T11:43:22Z</time></trkpt><trkpt lat="44.26531030968854" lon="11.600096451287605"><ele>290.5</ele><time>2026-04-18T11:43:24Z</time></trkpt><trkpt lat="44.26537995669584" lon="11.600180942339726"><ele>292.0</ele><time>2026-04-18T11:43:26Z</time></trkpt><trkpt lat="44.26545016023809" lon="11.600257805766802"><ele>292.0</ele><time>2026-04-18T11:43:28Z</time></trkpt><trkpt lat="44.26550586345342" lon="11.600320531026187"><ele>292.0</ele><time>2026-04-18T11:43:30Z</time></trkpt><trkpt lat="44.26555666962206" lon="11.600374502286082"><ele>292.0</ele><time>2026-04-18T11:43:32Z</time></trkpt><trkpt lat="44.26560805645479" lon="11.60043892797951"><ele>292.0</ele><time>2026-04-18T11:43:34Z</time></trkpt><trkpt lat="44.26568795725419" lon="11.600536376419328"><ele>292.0</ele><time>2026-04-18T11:43:36Z</time></trkpt><trkpt lat="44.26573111683022" lon="11.600608004222424"><ele>292.0</ele><time>2026-04-18T11:43:37Z</time></trkpt><trkpt lat="44.26577951829962" lon="11.60068435509807"><ele>292.5</ele><time>2026-04-18T11:43:38Z</time></trkpt><trkpt lat="44.26581826001582" lon="11.600771046641174"><ele>293.0</ele><time>2026-04-18T11:43:39Z</time></trkpt><trkpt lat="44.26585123689" lon="11.600870611180088"><ele>293.5</ele><time>2026-04-18T11:43:40Z</time></trkpt><trkpt lat="44.265869792986166" lon="11.600975084852992"><ele>294.0</ele><time>2026-04-18T11:43:41Z</time></trkpt><trkpt lat="44.265910176510374" lon="11.601087144518015"><ele>294.5</ele><time>2026-04-18T11:43:42Z</time></trkpt><trkpt lat="44.265968877935" lon="11.601206733731042"><ele>295.0</ele><time>2026-04-18T11:43:43Z</time></trkpt><trkpt lat="44.26605007761904" lon="11.601302295264036"><ele>292.75</ele><time>2026-04-18T11:43:44Z</time></trkpt><trkpt lat="44.26615179988355" lon="11.60138512283034"><ele>290.5</ele><time>2026-04-18T11:43:45Z</time></trkpt><trkpt lat="44.26625429425836" lon="11.60148940488229"><ele>288.25</ele><time>2026-04-18T11:43:46Z</time></trkpt><trkpt lat="44.266359261633006" lon="11.601610873557409"><ele>286.0</ele><time>2026-04-18T11:43:47Z</time></trkpt><trkpt lat="44.26645959736269" lon="11.601718130200597"><ele>284.25</ele><time>2026-04-18T11:43:48Z</time></trkpt><trkpt lat="44.26655475944982" lon="11.601856676084461"><ele>282.5</ele><time>2026-04-18T11:43:49Z</time></trkpt><trkpt lat="44.26666277453128" lon="11.601955306639788"><ele>280.75</ele><time>2026-04-18T11:43:50Z</time></trkpt><trkpt lat="44.2667582328793" lon="11.602080352214625"><ele>279.0</ele><time>2026-04-18T11:43:51Z</time></trkpt><trkpt lat="44.266847567887346" lon="11.602197979261003"><ele>277.59999999999997</ele><time>2026-04-18T11:43:52Z</time></trkpt><trkpt lat="44.266928596186986" lon="11.60230395326033"><ele>276.2</ele><time>2026-04-18T11:43:53Z</time></trkpt><trkpt lat="44.26699605096318" lon="11.60237785243274"><ele>274.79999999999995</ele><time>2026-04-18T11:43:54Z</time></trkpt><trkpt lat="44.26710557169618" lon="11.602392126259993"><ele>273.4</ele><time>2026-04-18T11:43:55Z</time></trkpt><trkpt lat="44.267220716727" lon="11.602374876362774"><ele>272.0</ele><time>2026-04-18T11:43:56Z</time></trkpt><trkpt lat="44.267334177119956" lon="11.602386092992347"><ele>271.5</ele><time>2026-04-18T11:43:57Z</time></trkpt><trkpt lat="44.26744495750958" lon="11.602397214086654"><ele>271.0</ele><time>2026-04-18T11:43:58Z</time></trkpt><trkpt lat="44.267560352511396" lon="11.602404334801596"><ele>270.5</ele><time>2026-04-18T11:43:59Z</time></trkpt><trkpt lat="44.26767759848401" lon="11.602414866663418"><ele>270.0</ele><time>2026-04-18T11:44:00Z</time></trkpt><trkpt lat="44.26778662571202" lon="11.60242090563657"><ele>270.0</ele><time>2026-04-18T11:44:01Z</time></trkpt><trkpt lat="44.26789619550197" lon="11.602415652520914"><ele>270.0</ele><time>2026-04-18T11:44:02Z</time></trkpt><trkpt lat="44.268000742651715" lon="11.602392995007081"><ele>270.0</ele><time>2026-04-18T11:44:03Z</time></trkpt><trkpt lat="44.26810018323125" lon="11.602371353518024"><ele>270.0</ele><time>2026-04-18T11:44:04Z</time></trkpt><trkpt lat="44.268201031655714" lon="11.602343629301519"><ele>270.0</ele><time>2026-04-18T11:44:05Z</time></trkpt><trkpt lat="44.26829402017815" lon="11.602315901566508"><ele>268.4</ele><time>2026-04-18T11:44:06Z</time></trkpt><trkpt lat="44.26838928073499" lon="11.602291679029243"><ele>266.8</ele><time>2026-04-18T11:44:07Z</time></trkpt><trkpt lat="44.26848620920676" lon="11.602275401277188"><ele>265.2</ele><time>2026-04-18T11:44:08Z</time></trkpt><trkpt lat="44.26858057652097" lon="11.602254295580607"><ele>263.6</ele><time>2026-04-18T11:44:09Z</time></trkpt><trkpt lat="44.26867452696358" lon="11.602230128675547"><ele>262.0</ele><time>2026-04-18T11:44:10Z</time></trkpt><trkpt lat="44.26876703524056" lon="11.602200811684826"><ele>262.0</ele><time>2026-04-18T11:44:11Z</time></trkpt><trkpt lat="44.26885476835913" lon="11.602213951729123"><ele>262.0</ele><time>2026-04-18T11:44:12Z</time></trkpt><trkpt lat="44.268930350357195" lon="11.60207757001885"><ele>262.0</ele><time>2026-04-18T11:44:13Z</time></trkpt><trkpt lat="44.268998638165364" lon="11.602006779789033"><ele>262.0</ele><time>2026-04-18T11:44:14Z</time></trkpt><trkpt lat="44.26906230439566" lon="11.601940317279839"><ele>262.0</ele><time>2026-04-18T11:44:15Z</time></trkpt><trkpt lat="44.26912883155524" lon="11.601875204589303"><ele>261.3333333333333</ele><time>2026-04-18T11:44:16Z</time></trkpt><trkpt lat="44.269201582652784" lon="11.60182339429114"><ele>260.66666666666663</ele><time>2026-04-18T11:44:17Z</time></trkpt><trkpt lat="44.26928095841653" lon="11.601777050261767"><ele>260.0</ele><time>2026-04-18T11:44:18Z</time></trkpt><trkpt lat="44.269362326157065" lon="11.60173654300302"><ele>259.3333333333333</ele><time>2026-04-18T11:44:19Z</time></trkpt><trkpt lat="44.269446973137995" lon="11.601715997551153"><ele>258.6666666666667</ele><time>2026-04-18T11:44:20Z</time></trkpt><trkpt lat="44.2695362525231" lon="11.60169335394893"><ele>258.0</ele><time>2026-04-18T11:44:21Z</time></trkpt><trkpt lat="44.26962772272012" lon="11.60167008231657"><ele>258.0</ele><time>2026-04-18T11:44:22Z</time></trkpt><trkpt lat="44.269717138530964" lon="11.601646251906432"><ele>258.0</ele><time>2026-04-18T11:44:23Z</time></trkpt><trkpt lat="44.269802329688716" lon="11.601626546464297"><ele>258.0</ele><time>2026-04-18T11:44:24Z</time></trkpt><trkpt lat="44.26989162502965" lon="11.60161050819641"><ele>258.0</ele><time>2026-04-18T11:44:25Z</time></trkpt><trkpt lat="44.2699837197403" lon="11.60158472118498"><ele>258.0</ele><time>2026-04-18T11:44:26Z</time></trkpt><trkpt lat="44.270070780405135" lon="11.601562653759935"><ele>258.8</ele><time>2026-04-18T11:44:27Z</time></trkpt><trkpt lat="44.27015842053988" lon="11.601545800808381"><ele>259.6</ele><time>2026-04-18T11:44:28Z</time></trkpt><trkpt lat="44.27024512857287" lon="11.601517472846618"><ele>260.4</ele><time>2026-04-18T11:44:29Z</time></trkpt><trkpt lat="44.2703263583677" lon="11.601496904770967"><ele>261.2</ele><time>2026-04-18T11:44:30Z</time></trkpt><trkpt lat="44.27042051068139" lon="11.601484725843031"><ele>262.0</ele><time>2026-04-18T11:44:31Z</time></trkpt><trkpt lat="44.27051501689941" lon="11.601499277572374"><ele>262.0</ele><time>2026-04-18T11:44:32Z</time></trkpt><trkpt lat="44.27059674978234" lon="11.601539485398629"><ele>262.0</ele><time>2026-04-18T11:44:33Z</time></trkpt><trkpt lat="44.27066973475032" lon="11.601610101201423"><ele>262.0</ele><time>2026-04-18T11:44:34Z</time></trkpt><trkpt lat="44.27072987858524" lon="11.60169922367167"><ele>262.0</ele><time>2026-04-18T11:44:35Z</time></trkpt><trkpt lat="44.27076731853474" lon="11.601809816550706"><ele>262.0</ele><time>2026-04-18T11:44:36Z</time></trkpt><trkpt lat="44.27079394953044" lon="11.60192879330162"><ele>262.0</ele><time>2026-04-18T11:44:37Z</time></trkpt><trkpt lat="44.27082650015786" lon="11.602044361828266"><ele>262.16666666666663</ele><time>2026-04-18T11:44:38Z</time></trkpt><trkpt lat="44.27085632602504" lon="11.602152034694525"><ele>262.3333333333333</ele><time>2026-04-18T11:44:39Z</time></trkpt><trkpt lat="44.27088475364474" lon="11.602265969532795"><ele>262.5</ele><time>2026-04-18T11:44:40Z</time></trkpt><trkpt lat="44.270913668350836" lon="11.60237930627071"><ele>262.6666666666667</ele><time>2026-04-18T11:44:41Z</time></trkpt><trkpt lat="44.270942764789275" lon="11.602489547192498"><ele>262.83333333333337</ele><time>2026-04-18T11:44:42Z</time></trkpt><trkpt lat="44.270979309430885" lon="11.602590469802921"><ele>263.0</ele><time>2026-04-18T11:44:43Z</time></trkpt><trkpt lat="44.27101842197153" lon="11.6026933111067"><ele>263.0</ele><time>2026-04-18T11:44:44Z</time></trkpt><trkpt lat="44.27107750155065" lon="11.60277311972985"><ele>263.0</ele><time>2026-04-18T11:44:45Z</time></trkpt><trkpt lat="44.2711263674321" lon="11.60285115476554"><ele>263.0</ele><time>2026-04-18T11:44:46Z</time></trkpt><trkpt lat="44.27118310300455" lon="11.602921149281842"><ele>263.0</ele><time>2026-04-18T11:44:47Z</time></trkpt><trkpt lat="44.27124162015195" lon="11.60296280174336"><ele>263.0</ele><time>2026-04-18T11:44:48Z</time></trkpt><trkpt lat="44.27131066195549" lon="11.602977954096255"><ele>263.0</ele><time>2026-04-18T11:44:49Z</time></trkpt><trkpt lat="44.27137399110618" lon="11.602984125030686"><ele>263.0</ele><time>2026-04-18T11:44:50Z</time></trkpt><trkpt lat="44.27149558617346" lon="11.602981991347336"><ele>265.2</ele><time>2026-04-18T11:44:52Z</time></trkpt><trkpt lat="44.271562909935845" lon="11.602982381499148"><ele>267.4</ele><time>2026-04-18T11:44:53Z</time></trkpt><trkpt lat="44.27167744546607" lon="11.602997663877098"><ele>269.59999999999997</ele><time>2026-04-18T11:44:55Z</time></trkpt><trkpt lat="44.271783994598344" lon="11.602993909103597"><ele>271.8</ele><time>2026-04-18T11:44:57Z</time></trkpt><trkpt lat="44.2718917067022" lon="11.60299190230505"><ele>274.0</ele><time>2026-04-18T11:44:59Z</time></trkpt><trkpt lat="44.27199024312929" lon="11.603014764401616"><ele>274.0</ele><time>2026-04-18T11:45:01Z</time></trkpt><trkpt lat="44.272058457447116" lon="11.60311353969209"><ele>274.0</ele><time>2026-04-18T11:45:03Z</time></trkpt><trkpt lat="44.27207900559362" lon="11.60324917743068"><ele>274.0</ele><time>2026-04-18T11:45:05Z</time></trkpt><trkpt lat="44.27210762808856" lon="11.603403967722997"><ele>274.0</ele><time>2026-04-18T11:45:07Z</time></trkpt><trkpt lat="44.27215490452001" lon="11.603572213623472"><ele>274.0</ele><time>2026-04-18T11:45:09Z</time></trkpt><trkpt lat="44.27223081550566" lon="11.603712909042846"><ele>271.3333333333333</ele><time>2026-04-18T11:45:11Z</time></trkpt><trkpt lat="44.27231779900423" lon="11.603820146777402"><ele>268.66666666666663</ele><time>2026-04-18T11:45:13Z</time></trkpt><trkpt lat="44.27239579765449" lon="11.603875821867833"><ele>266.0</ele><time>2026-04-18T11:45:15Z</time></trkpt><trkpt lat="44.2724414404272" lon="11.603936693207174"><ele>263.3333333333333</ele><time>2026-04-18T11:47:50.001Z</time></trkpt><trkpt lat="44.27243281730262" lon="11.604030096916278"><ele>260.6666666666667</ele><time>2026-04-18T11:47:53.001Z</time></trkpt><trkpt lat="44.27245938708726" lon="11.604128942243758"><ele>258.0</ele><time>2026-04-18T11:47:56.001Z</time></trkpt><trkpt lat="44.272435014281704" lon="11.604248235530221"><ele>258.0</ele><time>2026-04-18T11:47:59.001Z</time></trkpt><trkpt lat="44.27241117460132" lon="11.604330371408821"><ele>258.0</ele><time>2026-04-18T11:48:01.001Z</time></trkpt><trkpt lat="44.27237786673923" lon="11.604422730631368"><ele>258.0</ele><time>2026-04-18T11:48:03.001Z</time></trkpt><trkpt lat="44.27234637379346" lon="11.604543770859843"><ele>258.0</ele><time>2026-04-18T11:48:05.001Z</time></trkpt><trkpt lat="44.27231266108808" lon="11.604667925008087"><ele>258.0</ele><time>2026-04-18T11:48:07.001Z</time></trkpt><trkpt lat="44.272282899420674" lon="11.60479316137149"><ele>258.0</ele><time>2026-04-18T11:48:09.001Z</time></trkpt><trkpt lat="44.27223962336254" lon="11.60493044009034"><ele>260.8</ele><time>2026-04-18T11:48:11.001Z</time></trkpt><trkpt lat="44.27219811038469" lon="11.605059751231995"><ele>263.6</ele><time>2026-04-18T11:48:13.001Z</time></trkpt><trkpt lat="44.27216327533016" lon="11.605190365712033"><ele>266.4</ele><time>2026-04-18T11:48:15.001Z</time></trkpt><trkpt lat="44.27214144883281" lon="11.605276421961761"><ele>269.2</ele><time>2026-04-18T11:48:16.001Z</time></trkpt><trkpt lat="44.27213600719553" lon="11.60537014295587"><ele>272.0</ele><time>2026-04-18T11:48:17.001Z</time></trkpt><trkpt lat="44.27214116896922" lon="11.605542589197059"><ele>267.33333333333337</ele><time>2026-04-18T11:48:19.001Z</time></trkpt><trkpt lat="44.272151837334405" lon="11.605632946740597"><ele>262.6666666666667</ele><time>2026-04-18T11:48:20.001Z</time></trkpt><trkpt lat="44.272166255890895" lon="11.605722383019776"><ele>258.0</ele><time>2026-04-18T11:48:21.001Z</time></trkpt><trkpt lat="44.27219403341951" lon="11.605890795609419"><ele>253.33333333333331</ele><time>2026-04-18T11:48:23.001Z</time></trkpt><trkpt lat="44.2722060330809" lon="11.605977413507297"><ele>248.66666666666666</ele><time>2026-04-18T11:48:24.001Z</time></trkpt><trkpt lat="44.27221645299921" lon="11.606152096252982"><ele>244.0</ele><time>2026-04-18T11:48:26.001Z</time></trkpt><trkpt lat="44.2722270336026" lon="11.60624711050896"><ele>241.66666666666666</ele><time>2026-04-18T11:48:27.001Z</time></trkpt><trkpt lat="44.27223733607292" lon="11.606341013735449"><ele>239.33333333333331</ele><time>2026-04-18T11:48:28.001Z</time></trkpt><trkpt lat="44.27224643301187" lon="11.606435727229805"><ele>237.0</ele><time>2026-04-18T11:48:29.001Z</time></trkpt><trkpt lat="44.27225746367179" lon="11.606621814239125"><ele>234.66666666666669</ele><time>2026-04-18T11:48:31.001Z</time></trkpt><trkpt lat="44.27224528266551" lon="11.606727577738672"><ele>232.33333333333334</ele><time>2026-04-18T11:48:32.001Z</time></trkpt><trkpt lat="44.27222553633276" lon="11.606823876970688"><ele>230.0</ele><time>2026-04-18T11:48:33.001Z</time></trkpt><trkpt lat="44.27220621268786" lon="11.606936597756448"><ele>229.66666666666669</ele><time>2026-04-18T11:48:34.001Z</time></trkpt><trkpt lat="44.272177992231846" lon="11.607038566330639"><ele>229.33333333333334</ele><time>2026-04-18T11:48:35.001Z</time></trkpt><trkpt lat="44.272153866125116" lon="11.607147197092372"><ele>229.0</ele><time>2026-04-18T11:48:36.001Z</time></trkpt><trkpt lat="44.27211933313135" lon="11.607257321006394"><ele>228.66666666666669</ele><time>2026-04-18T11:48:37.001Z</time></trkpt><trkpt lat="44.27208246793996" lon="11.607367822090978"><ele>228.33333333333334</ele><time>2026-04-18T11:48:38.001Z</time></trkpt><trkpt lat="44.27203861117823" lon="11.607476777196634"><ele>228.0</ele><time>2026-04-18T11:48:39.001Z</time></trkpt><trkpt lat="44.27199084035905" lon="11.607589595919587"><ele>228.0</ele><time>2026-04-18T11:48:40.001Z</time></trkpt><trkpt lat="44.27194467093555" lon="11.607713355288249"><ele>228.0</ele><time>2026-04-18T11:48:41.001Z</time></trkpt><trkpt lat="44.2719135035601" lon="11.607844597378255"><ele>228.0</ele><time>2026-04-18T11:48:42.001Z</time></trkpt><trkpt lat="44.271864191748605" lon="11.607959497621371"><ele>228.0</ele><time>2026-04-18T11:48:42.999Z</time></trkpt><trkpt lat="44.27183150383104" lon="11.608041915534992"><ele>228.0</ele><time>2026-04-18T11:48:43.999Z</time></trkpt><trkpt lat="44.2718780059318" lon="11.608112540978938"><ele>228.0</ele><time>2026-04-18T11:48:44.999Z</time></trkpt><trkpt lat="44.271942147639" lon="11.608188060627851"><ele>228.0</ele><time>2026-04-18T11:48:45.999Z</time></trkpt><trkpt lat="44.27205393293691" lon="11.608113865672681"><ele>228.0</ele><time>2026-04-18T11:48:46.999Z</time></trkpt><trkpt lat="44.272080017195606" lon="11.607986885532934"><ele>228.0</ele><time>2026-04-18T11:48:47.999Z</time></trkpt><trkpt lat="44.27213718116487" lon="11.607888896961127"><ele>228.0</ele><time>2026-04-18T11:48:48.999Z</time></trkpt><trkpt lat="44.2721858428601" lon="11.607793755177141"><ele>228.0</ele><time>2026-04-18T11:48:49.999Z</time></trkpt><trkpt lat="44.272243690617124" lon="11.607699272782533"><ele>227.4</ele><time>2026-04-18T11:48:50.999Z</time></trkpt><trkpt lat="44.272292288616185" lon="11.607596555639311"><ele>226.8</ele><time>2026-04-18T11:48:51.999Z</time></trkpt><trkpt lat="44.272360138036696" lon="11.607492865662497"><ele>226.2</ele><time>2026-04-18T11:48:52.999Z</time></trkpt><trkpt lat="44.27241336284052" lon="11.607387567902549"><ele>225.6</ele><time>2026-04-18T11:48:54Z</time></trkpt><trkpt lat="44.27245855932115" lon="11.607277352430062"><ele>225.0</ele><time>2026-04-18T11:48:54.999Z</time></trkpt><trkpt lat="44.272516896958585" lon="11.607162196760793"><ele>225.0</ele><time>2026-04-18T11:48:55.999Z</time></trkpt><trkpt lat="44.27256948726276" lon="11.607033826418352"><ele>225.0</ele><time>2026-04-18T11:48:57Z</time></trkpt><trkpt lat="44.272614655824164" lon="11.606898561541367"><ele>225.0</ele><time>2026-04-18T11:48:58Z</time></trkpt><trkpt lat="44.272664313297966" lon="11.606760133277074"><ele>225.0</ele><time>2026-04-18T11:48:59Z</time></trkpt><trkpt lat="44.272722713767884" lon="11.606634237407775"><ele>225.0</ele><time>2026-04-18T11:49:00Z</time></trkpt><trkpt lat="44.27277265634196" lon="11.606533753638724"><ele>227.0</ele><time>2026-04-18T11:49:01Z</time></trkpt><trkpt lat="44.27281369411172" lon="11.60644660241156"><ele>229.0</ele><time>2026-04-18T11:49:02Z</time></trkpt><trkpt lat="44.27286730442813" lon="11.606347472778872"><ele>231.0</ele><time>2026-04-18T11:49:04Z</time></trkpt><trkpt lat="44.27284342284959" lon="11.606439445851363"><ele>233.0</ele><time>2026-04-18T11:49:07Z</time></trkpt><trkpt lat="44.27290858891249" lon="11.606631195405255"><ele>235.0</ele><time>2026-04-18T11:49:09Z</time></trkpt><trkpt lat="44.27293389526756" lon="11.606718846133223"><ele>234.99999999999997</ele><time>2026-04-18T11:49:10Z</time></trkpt><trkpt lat="44.27295135793575" lon="11.606804349139445"><ele>235.0</ele><time>2026-04-18T11:49:11Z</time></trkpt><trkpt lat="44.27298318292488" lon="11.606940075717697"><ele>235.0</ele><time>2026-04-18T11:49:13Z</time></trkpt><trkpt lat="44.27300358583871" lon="11.607032391940756"><ele>235.0</ele><time>2026-04-18T11:49:14Z</time></trkpt><trkpt lat="44.273054276105015" lon="11.607165965804771"><ele>234.99999999999997</ele><time>2026-04-18T11:49:16Z</time></trkpt><trkpt lat="44.27306932575598" lon="11.607253747895655"><ele>235.0</ele><time>2026-04-18T11:49:17Z</time></trkpt><trkpt lat="44.27309695181559" lon="11.607367158438246"><ele>228.83333333333331</ele><time>2026-04-18T11:49:18Z</time></trkpt><trkpt lat="44.273143206607564" lon="11.6074437627674"><ele>222.66666666666666</ele><time>2026-04-18T11:49:19Z</time></trkpt><trkpt lat="44.27321801999074" lon="11.607513916422294"><ele>216.5</ele><time>2026-04-18T11:49:20Z</time></trkpt><trkpt lat="44.27329452126208" lon="11.607578998294423"><ele>210.33333333333331</ele><time>2026-04-18T11:49:21Z</time></trkpt><trkpt lat="44.273387986990016" lon="11.607615311221663"><ele>204.16666666666666</ele><time>2026-04-18T11:49:22Z</time></trkpt><trkpt lat="44.273479287378" lon="11.607653037172996"><ele>198.0</ele><time>2026-04-18T11:49:23Z</time></trkpt><trkpt lat="44.27356339847223" lon="11.607712156742124"><ele>198.0</ele><time>2026-04-18T11:49:24Z</time></trkpt><trkpt lat="44.27364268921144" lon="11.607769645896047"><ele>198.0</ele><time>2026-04-18T11:49:25Z</time></trkpt><trkpt lat="44.27373261113461" lon="11.607818327047633"><ele>198.0</ele><time>2026-04-18T11:49:26Z</time></trkpt><trkpt lat="44.27382414418206" lon="11.607846746900094"><ele>198.0</ele><time>2026-04-18T11:49:27Z</time></trkpt><trkpt lat="44.27391664156505" lon="11.60789906922077"><ele>198.0</ele><time>2026-04-18T11:49:28Z</time></trkpt><trkpt lat="44.27399839247135" lon="11.607974226669869"><ele>194.4</ele><time>2026-04-18T11:49:29Z</time></trkpt><trkpt lat="44.27407931915438" lon="11.608060573597614"><ele>190.8</ele><time>2026-04-18T11:49:30Z</time></trkpt><trkpt lat="44.27416152705332" lon="11.608149660664791"><ele>187.2</ele><time>2026-04-18T11:49:31Z</time></trkpt><trkpt lat="44.274260776872396" lon="11.6082331413229"><ele>183.6</ele><time>2026-04-18T11:49:32Z</time></trkpt><trkpt lat="44.27435102644556" lon="11.608340717773263"><ele>180.0</ele><time>2026-04-18T11:49:33Z</time></trkpt><trkpt lat="44.27443560115268" lon="11.608467433424316"><ele>180.0</ele><time>2026-04-18T11:49:34Z</time></trkpt><trkpt lat="44.274513303853745" lon="11.608596174188493"><ele>180.0</ele><time>2026-04-18T11:49:35Z</time></trkpt><trkpt lat="44.27459866754432" lon="11.608723773047645"><ele>180.0</ele><time>2026-04-18T11:49:36Z</time></trkpt><trkpt lat="44.27468461453391" lon="11.608854662639661"><ele>180.0</ele><time>2026-04-18T11:49:37Z</time></trkpt><trkpt lat="44.27474879093816" lon="11.608972491369746"><ele>177.4</ele><time>2026-04-18T11:49:38Z</time></trkpt><trkpt lat="44.2748203333485" lon="11.60906355861225"><ele>174.8</ele><time>2026-04-18T11:49:39Z</time></trkpt><trkpt lat="44.274880327183205" lon="11.609093724703834"><ele>172.2</ele><time>2026-04-18T11:49:40Z</time></trkpt><trkpt lat="44.27499470667195" lon="11.609162817312653"><ele>169.6</ele><time>2026-04-18T11:49:42Z</time></trkpt><trkpt lat="44.27506205428292" lon="11.609258754047227"><ele>167.0</ele><time>2026-04-18T11:49:43Z</time></trkpt><trkpt lat="44.27512488385305" lon="11.609331854844607"><ele>167.0</ele><time>2026-04-18T11:49:44Z</time></trkpt><trkpt lat="44.27518661242855" lon="11.609420861238446"><ele>167.0</ele><time>2026-04-18T11:49:45Z</time></trkpt><trkpt lat="44.27524549178844" lon="11.6095025235295"><ele>167.0</ele><time>2026-04-18T11:49:46Z</time></trkpt><trkpt lat="44.2753044024826" lon="11.609584222844969"><ele>167.0</ele><time>2026-04-18T11:49:47Z</time></trkpt><trkpt lat="44.27543941314782" lon="11.609625932870511"><ele>167.0</ele><time>2026-04-18T11:49:49Z</time></trkpt><trkpt lat="44.275525983441824" lon="11.609642217822573"><ele>164.0</ele><time>2026-04-18T11:49:50Z</time></trkpt><trkpt lat="44.275596726279126" lon="11.609682655601523"><ele>161.0</ele><time>2026-04-18T11:49:51Z</time></trkpt><trkpt lat="44.27567012679829" lon="11.609737510005074"><ele>158.0</ele><time>2026-04-18T11:49:52Z</time></trkpt><trkpt lat="44.27574668637642" lon="11.609798628032605"><ele>155.0</ele><time>2026-04-18T11:49:53Z</time></trkpt><trkpt lat="44.27579443674826" lon="11.60988965810868"><ele>152.0</ele><time>2026-04-18T11:49:54Z</time></trkpt><trkpt lat="44.2758264124905" lon="11.6099953825242"><ele>149.0</ele><time>2026-04-18T11:49:55Z</time></trkpt><trkpt lat="44.275837952564856" lon="11.610097374596382"><ele>148.8</ele><time>2026-04-18T11:49:56Z</time></trkpt><trkpt lat="44.27585204973248" lon="11.610192239830155"><ele>148.60000000000002</ele><time>2026-04-18T11:49:57Z</time></trkpt><trkpt lat="44.27588804020446" lon="11.610277647741592"><ele>148.4</ele><time>2026-04-18T11:49:58Z</time></trkpt><trkpt lat="44.27597959432311" lon="11.610411996912816"><ele>148.20000000000002</ele><time>2026-04-18T11:50:00Z</time></trkpt><trkpt lat="44.276031703872874" lon="11.610523482334585"><ele>148.0</ele><time>2026-04-18T11:50:01Z</time></trkpt><trkpt lat="44.27608926093199" lon="11.610642590439534"><ele>144.66666666666669</ele><time>2026-04-18T11:50:02Z</time></trkpt><trkpt lat="44.27615916606714" lon="11.610750225322299"><ele>141.33333333333334</ele><time>2026-04-18T11:50:04Z</time></trkpt><trkpt lat="44.276295965601854" lon="11.611143159406144"><ele>138.0</ele><time>2026-04-18T11:50:05Z</time></trkpt><trkpt lat="44.27635951425144" lon="11.611267959638814"><ele>134.6</ele><time>2026-04-18T11:50:06Z</time></trkpt><trkpt lat="44.27644779853852" lon="11.611361431839033"><ele>131.20000000000002</ele><time>2026-04-18T11:50:07Z</time></trkpt><trkpt lat="44.276535695639296" lon="11.61146704212875"><ele>127.8</ele><time>2026-04-18T11:50:08Z</time></trkpt><trkpt lat="44.27660370333859" lon="11.611550263722052"><ele>124.4</ele><time>2026-04-18T11:50:09Z</time></trkpt><trkpt lat="44.27671353239492" lon="11.61160286746192"><ele>121.0</ele><time>2026-04-18T11:50:11Z</time></trkpt><trkpt lat="44.276792012159596" lon="11.611646086082654"><ele>121.0</ele><time>2026-04-18T11:50:12Z</time></trkpt><trkpt lat="44.27687399140598" lon="11.611702894303534"><ele>121.0</ele><time>2026-04-18T11:50:13Z</time></trkpt><trkpt lat="44.27696463100133" lon="11.611764429226964"><ele>121.0</ele><time>2026-04-18T11:50:14Z</time></trkpt><trkpt lat="44.27704231858032" lon="11.611859130178784"><ele>121.0</ele><time>2026-04-18T11:50:15Z</time></trkpt><trkpt lat="44.27712490362067" lon="11.611954601413272"><ele>121.0</ele><time>2026-04-18T11:50:16Z</time></trkpt><trkpt lat="44.277203294844824" lon="11.612033926603019"><ele>118.4</ele><time>2026-04-18T11:50:17Z</time></trkpt><trkpt lat="44.2772995407901" lon="11.612091616589996"><ele>115.8</ele><time>2026-04-18T11:50:18Z</time></trkpt><trkpt lat="44.27739469444658" lon="11.6121624023422"><ele>113.20000000000002</ele><time>2026-04-18T11:50:19Z</time></trkpt><trkpt lat="44.2774958303362" lon="11.612234621740278"><ele>110.60000000000001</ele><time>2026-04-18T11:50:20Z</time></trkpt><trkpt lat="44.277597084602846" lon="11.612310623393867"><ele>108.0</ele><time>2026-04-18T11:50:21Z</time></trkpt><trkpt lat="44.27769279234214" lon="11.612409864720897"><ele>108.0</ele><time>2026-04-18T11:50:22Z</time></trkpt><trkpt lat="44.277770709898505" lon="11.612496030844232"><ele>108.0</ele><time>2026-04-18T11:50:23Z</time></trkpt><trkpt lat="44.27785027002476" lon="11.612562645464724"><ele>108.0</ele><time>2026-04-18T11:50:24Z</time></trkpt><trkpt lat="44.277931320361205" lon="11.612607654166181"><ele>108.0</ele><time>2026-04-18T11:50:25Z</time></trkpt><trkpt lat="44.277996023744784" lon="11.612670093835533"><ele>108.0</ele><time>2026-04-18T11:50:26Z</time></trkpt><trkpt lat="44.27805469561229" lon="11.612744383977372"><ele>108.0</ele><time>2026-04-18T11:50:27Z</time></trkpt><trkpt lat="44.27811626053573" lon="11.612809053630022"><ele>104.66666666666667</ele><time>2026-04-18T11:50:28Z</time></trkpt><trkpt lat="44.27817247621853" lon="11.612868063212591"><ele>101.33333333333333</ele><time>2026-04-18T11:50:29Z</time></trkpt><trkpt lat="44.27822289793771" lon="11.612926293209085"><ele>98.0</ele><time>2026-04-18T11:50:30Z</time></trkpt><trkpt lat="44.278260932010035" lon="11.613005916024209"><ele>94.66666666666666</ele><time>2026-04-18T11:50:31Z</time></trkpt><trkpt lat="44.27831280949459" lon="11.613167113383804"><ele>91.33333333333333</ele><time>2026-04-18T11:50:33Z</time></trkpt><trkpt lat="44.27834485260758" lon="11.61329444506606"><ele>88.0</ele><time>2026-04-18T11:50:35Z</time></trkpt><trkpt lat="44.27830301147084" lon="11.613403449943432"><ele>88.0</ele><time>2026-04-18T11:50:37Z</time></trkpt><trkpt lat="44.27822955067892" lon="11.613485939827134"><ele>88.0</ele><time>2026-04-18T11:50:39Z</time></trkpt><trkpt lat="44.278225024127316" lon="11.613620836264541"><ele>88.0</ele><time>2026-04-18T11:50:41Z</time></trkpt><trkpt lat="44.27827499224851" lon="11.613687860212115"><ele>88.0</ele><time>2026-04-18T11:50:42Z</time></trkpt><trkpt lat="44.27833777215106" lon="11.61374634503767"><ele>88.0</ele><time>2026-04-18T11:50:43Z</time></trkpt><trkpt lat="44.27840259722213" lon="11.613802035158937"><ele>88.0</ele><time>2026-04-18T11:50:44Z</time></trkpt><trkpt lat="44.278457875777384" lon="11.61385925363359"><ele>88.14285714285714</ele><time>2026-04-18T11:50:45Z</time></trkpt><trkpt lat="44.27851278202729" lon="11.613920405553822"><ele>88.28571428571428</ele><time>2026-04-18T11:50:46Z</time></trkpt><trkpt lat="44.278557217251475" lon="11.61399463876592"><ele>88.42857142857142</ele><time>2026-04-18T11:50:47.001Z</time></trkpt><trkpt lat="44.27859472820042" lon="11.61407577435348"><ele>88.57142857142857</ele><time>2026-04-18T11:50:48.001Z</time></trkpt><trkpt lat="44.278629166284574" lon="11.614152638363656"><ele>88.71428571428571</ele><time>2026-04-18T11:50:48.999Z</time></trkpt><trkpt lat="44.27865703683217" lon="11.614244045326405"><ele>88.85714285714285</ele><time>2026-04-18T11:50:49.999Z</time></trkpt><trkpt lat="44.2786805568216" lon="11.614330301196949"><ele>89.0</ele><time>2026-04-18T11:50:50.999Z</time></trkpt><trkpt lat="44.27870617944481" lon="11.614411169426715"><ele>90.14285714285714</ele><time>2026-04-18T11:50:51.999Z</time></trkpt><trkpt lat="44.27873426171202" lon="11.614494627754693"><ele>91.28571428571428</ele><time>2026-04-18T11:50:52.999Z</time></trkpt><trkpt lat="44.27876150537412" lon="11.614578892977256"><ele>92.42857142857142</ele><time>2026-04-18T11:50:53.999Z</time></trkpt><trkpt lat="44.278791522023866" lon="11.614665373068267"><ele>93.57142857142857</ele><time>2026-04-18T11:50:54.999Z</time></trkpt><trkpt lat="44.27882226008431" lon="11.614753758311977"><ele>94.71428571428572</ele><time>2026-04-18T11:50:55.999Z</time></trkpt><trkpt lat="44.278850346485044" lon="11.614839534222716"><ele>95.85714285714285</ele><time>2026-04-18T11:50:56.999Z</time></trkpt><trkpt lat="44.278879602163144" lon="11.614926815920164"><ele>97.0</ele><time>2026-04-18T11:50:57.999Z</time></trkpt><trkpt lat="44.27890907815238" lon="11.615017448241533"><ele>95.71428571428571</ele><time>2026-04-18T11:50:58.999Z</time></trkpt><trkpt lat="44.278937229898126" lon="11.61510433453305"><ele>94.42857142857143</ele><time>2026-04-18T11:50:59.999Z</time></trkpt><trkpt lat="44.278970176823314" lon="11.615193353216206"><ele>93.14285714285714</ele><time>2026-04-18T11:51:00.999Z</time></trkpt><trkpt lat="44.27900060176177" lon="11.615283667328722"><ele>91.85714285714286</ele><time>2026-04-18T11:51:01.999Z</time></trkpt><trkpt lat="44.27903023831792" lon="11.615375467554747"><ele>90.57142857142857</ele><time>2026-04-18T11:51:02.999Z</time></trkpt><trkpt lat="44.27905737440983" lon="11.615464061120182"><ele>89.28571428571429</ele><time>2026-04-18T11:51:03.999Z</time></trkpt><trkpt lat="44.27908744665009" lon="11.615550081315217"><ele>88.0</ele><time>2026-04-18T11:51:04.999Z</time></trkpt><trkpt lat="44.27911426589921" lon="11.615639296120786"><ele>88.0</ele><time>2026-04-18T11:51:05.999Z</time></trkpt><trkpt lat="44.27913972961381" lon="11.615719826368005"><ele>88.0</ele><time>2026-04-18T11:51:07Z</time></trkpt><trkpt lat="44.27916590360072" lon="11.615803901033757"><ele>88.0</ele><time>2026-04-18T11:51:08Z</time></trkpt><trkpt lat="44.279195875371656" lon="11.615886688493495"><ele>88.0</ele><time>2026-04-18T11:51:09Z</time></trkpt><trkpt lat="44.27922211006937" lon="11.615969758253875"><ele>88.0</ele><time>2026-04-18T11:51:10Z</time></trkpt><trkpt lat="44.279246556568886" lon="11.616051414078097"><ele>88.0</ele><time>2026-04-18T11:51:11Z</time></trkpt><trkpt lat="44.279299601750495" lon="11.616217534482045"><ele>88.42857142857143</ele><time>2026-04-18T11:51:13Z</time></trkpt><trkpt lat="44.27933088675643" lon="11.616298847711926"><ele>88.85714285714286</ele><time>2026-04-18T11:51:14Z</time></trkpt><trkpt lat="44.27936551391905" lon="11.616376376298694"><ele>89.28571428571428</ele><time>2026-04-18T11:51:15Z</time></trkpt><trkpt lat="44.27942220792118" lon="11.616440340240139"><ele>89.71428571428572</ele><time>2026-04-18T11:51:16Z</time></trkpt><trkpt lat="44.2794646663443" lon="11.616510425955102"><ele>90.14285714285714</ele><time>2026-04-18T11:51:17Z</time></trkpt><trkpt lat="44.27951538302293" lon="11.616572974427829"><ele>90.57142857142857</ele><time>2026-04-18T11:51:18Z</time></trkpt><trkpt lat="44.27956983083708" lon="11.61663654641417"><ele>91.0</ele><time>2026-04-18T11:51:19Z</time></trkpt><trkpt lat="44.279633357887185" lon="11.61668990316945"><ele>91.0</ele><time>2026-04-18T11:51:20Z</time></trkpt><trkpt lat="44.27969726338094" lon="11.616743549296507"><ele>91.0</ele><time>2026-04-18T11:51:21Z</time></trkpt><trkpt lat="44.27976237621814" lon="11.61680001751528"><ele>91.0</ele><time>2026-04-18T11:51:22Z</time></trkpt><trkpt lat="44.27981996065701" lon="11.616866178008749"><ele>91.0</ele><time>2026-04-18T11:51:23Z</time></trkpt><trkpt lat="44.27988470005821" lon="11.616923728478879"><ele>91.0</ele><time>2026-04-18T11:51:24Z</time></trkpt><trkpt lat="44.27995619627212" lon="11.616978277470057"><ele>91.0</ele><time>2026-04-18T11:51:25Z</time></trkpt><trkpt lat="44.28002536949868" lon="11.617027581413748"><ele>91.66666666666666</ele><time>2026-04-18T11:51:26Z</time></trkpt><trkpt lat="44.280097522434374" lon="11.617078707836374"><ele>92.33333333333333</ele><time>2026-04-18T11:51:27Z</time></trkpt><trkpt lat="44.280171905265476" lon="11.617126502195283"><ele>93.0</ele><time>2026-04-18T11:51:28Z</time></trkpt><trkpt lat="44.28023519300228" lon="11.617185224815417"><ele>93.66666666666667</ele><time>2026-04-18T11:51:29Z</time></trkpt><trkpt lat="44.280301559628505" lon="11.617244476379254"><ele>94.33333333333334</ele><time>2026-04-18T11:51:30Z</time></trkpt><trkpt lat="44.280374617733514" lon="11.617290124856275"><ele>95.0</ele><time>2026-04-18T11:51:31Z</time></trkpt><trkpt lat="44.28044644653447" lon="11.61733844614592"><ele>95.0</ele><time>2026-04-18T11:51:32Z</time></trkpt><trkpt lat="44.28051594811478" lon="11.617391495238557"><ele>95.0</ele><time>2026-04-18T11:51:33Z</time></trkpt><trkpt lat="44.28058450851841" lon="11.617441700995926"><ele>95.0</ele><time>2026-04-18T11:51:34Z</time></trkpt><trkpt lat="44.280654403249386" lon="11.617498747597852"><ele>95.0</ele><time>2026-04-18T11:51:35Z</time></trkpt><trkpt lat="44.28072254974128" lon="11.61754138238155"><ele>95.0</ele><time>2026-04-18T11:51:36Z</time></trkpt><trkpt lat="44.28079036727008" lon="11.617589677769251"><ele>95.0</ele><time>2026-04-18T11:51:37Z</time></trkpt><trkpt lat="44.28085733545015" lon="11.617640950064272"><ele>94.0</ele><time>2026-04-18T11:51:38Z</time></trkpt><trkpt lat="44.28092493666378" lon="11.617690614895539"><ele>93.0</ele><time>2026-04-18T11:51:39Z</time></trkpt><trkpt lat="44.28099466139695" lon="11.617746799096093"><ele>92.0</ele><time>2026-04-18T11:51:40Z</time></trkpt><trkpt lat="44.28106097280749" lon="11.617793423532556"><ele>91.0</ele><time>2026-04-18T11:51:41Z</time></trkpt><trkpt lat="44.281129566628714" lon="11.61784201173277"><ele>90.0</ele><time>2026-04-18T11:51:42Z</time></trkpt><trkpt lat="44.28119721910249" lon="11.617890851629292"><ele>89.0</ele><time>2026-04-18T11:51:43Z</time></trkpt><trkpt lat="44.28126659058163" lon="11.617942455347595"><ele>89.0</ele><time>2026-04-18T11:51:44Z</time></trkpt><trkpt lat="44.281332241494624" lon="11.617992854668898"><ele>89.0</ele><time>2026-04-18T11:51:45Z</time></trkpt><trkpt lat="44.281407675144415" lon="11.618048812734486"><ele>89.0</ele><time>2026-04-18T11:51:46Z</time></trkpt><trkpt lat="44.281478056958704" lon="11.61809361031169"><ele>89.0</ele><time>2026-04-18T11:51:47Z</time></trkpt><trkpt lat="44.281546903724326" lon="11.61814055617225"><ele>89.0</ele><time>2026-04-18T11:51:48Z</time></trkpt><trkpt lat="44.28161591630487" lon="11.618191885849091"><ele>89.0</ele><time>2026-04-18T11:51:49Z</time></trkpt><trkpt lat="44.28168688842805" lon="11.61824815551722"><ele>87.16666666666667</ele><time>2026-04-18T11:51:50Z</time></trkpt><trkpt lat="44.28175401555545" lon="11.61829143638366"><ele>85.33333333333334</ele><time>2026-04-18T11:51:51Z</time></trkpt><trkpt lat="44.28182319929188" lon="11.618345713985883"><ele>83.5</ele><time>2026-04-18T11:51:52Z</time></trkpt><trkpt lat="44.28189096653163" lon="11.61838999792114"><ele>81.66666666666667</ele><time>2026-04-18T11:51:53Z</time></trkpt><trkpt lat="44.2819652744765" lon="11.618436821687537"><ele>79.83333333333333</ele><time>2026-04-18T11:51:54Z</time></trkpt><trkpt lat="44.282016509180536" lon="11.618507046858232"><ele>78.0</ele><time>2026-04-18T11:51:55Z</time></trkpt><trkpt lat="44.282066993680075" lon="11.618585182542981"><ele>78.0</ele><time>2026-04-18T11:51:56Z</time></trkpt><trkpt lat="44.28210969264675" lon="11.61867815148855"><ele>78.0</ele><time>2026-04-18T11:51:57Z</time></trkpt><trkpt lat="44.28214574817094" lon="11.618779038164952"><ele>78.0</ele><time>2026-04-18T11:51:58Z</time></trkpt><trkpt lat="44.28217560936114" lon="11.618874250419939"><ele>78.0</ele><time>2026-04-18T11:51:59Z</time></trkpt><trkpt lat="44.28220717166666" lon="11.618972398274035"><ele>78.0</ele><time>2026-04-18T11:52:00Z</time></trkpt><trkpt lat="44.28223134058733" lon="11.619066168801025"><ele>78.0</ele><time>2026-04-18T11:52:01Z</time></trkpt><trkpt lat="44.28226816847628" lon="11.61915698625267"><ele>78.0</ele><time>2026-04-18T11:52:02Z</time></trkpt><trkpt lat="44.282303651593665" lon="11.619252919711986"><ele>78.0</ele><time>2026-04-18T11:52:03Z</time></trkpt><trkpt lat="44.28234065575388" lon="11.619349723311299"><ele>78.0</ele><time>2026-04-18T11:52:04Z</time></trkpt><trkpt lat="44.282375257604194" lon="11.619442660714741"><ele>78.0</ele><time>2026-04-18T11:52:05Z</time></trkpt><trkpt lat="44.2824088512643" lon="11.619539894319999"><ele>78.0</ele><time>2026-04-18T11:52:06Z</time></trkpt><trkpt lat="44.282442042667796" lon="11.619635316625406"><ele>78.0</ele><time>2026-04-18T11:52:07Z</time></trkpt><trkpt lat="44.282474220797475" lon="11.619731537968834"><ele>78.16666666666667</ele><time>2026-04-18T11:52:08Z</time></trkpt><trkpt lat="44.282506069551296" lon="11.619828535703059"><ele>78.33333333333333</ele><time>2026-04-18T11:52:09Z</time></trkpt><trkpt lat="44.28254139405189" lon="11.619922270444645"><ele>78.5</ele><time>2026-04-18T11:52:10Z</time></trkpt><trkpt lat="44.28257634191855" lon="11.620018933370046"><ele>78.66666666666666</ele><time>2026-04-18T11:52:11Z</time></trkpt><trkpt lat="44.28260607831231" lon="11.620115970608476"><ele>78.83333333333333</ele><time>2026-04-18T11:52:12Z</time></trkpt><trkpt lat="44.28264553034216" lon="11.620211990193683"><ele>79.0</ele><time>2026-04-18T11:52:13Z</time></trkpt><trkpt lat="44.28269285608871" lon="11.620289327585311"><ele>79.16666666666666</ele><time>2026-04-18T11:52:14Z</time></trkpt><trkpt lat="44.282750501893965" lon="11.62037048001073"><ele>79.33333333333333</ele><time>2026-04-18T11:52:15Z</time></trkpt><trkpt lat="44.28281174748513" lon="11.620425612395158"><ele>79.5</ele><time>2026-04-18T11:52:16Z</time></trkpt><trkpt lat="44.2828843729161" lon="11.620464717998487"><ele>79.66666666666667</ele><time>2026-04-18T11:52:17Z</time></trkpt><trkpt lat="44.28295853578356" lon="11.62049664136568"><ele>79.83333333333334</ele><time>2026-04-18T11:52:18Z</time></trkpt><trkpt lat="44.283024861372105" lon="11.620541742715497"><ele>80.0</ele><time>2026-04-18T11:52:19Z</time></trkpt><trkpt lat="44.283090858232654" lon="11.62057901156789"><ele>79.71428571428571</ele><time>2026-04-18T11:52:20Z</time></trkpt><trkpt lat="44.2831588800084" lon="11.620625197697864"><ele>79.42857142857143</ele><time>2026-04-18T11:52:21.001Z</time></trkpt><trkpt lat="44.2832223489738" lon="11.620668772206034"><ele>79.14285714285714</ele><time>2026-04-18T11:52:22.001Z</time></trkpt><trkpt lat="44.28328358006901" lon="11.620718680187895"><ele>78.85714285714286</ele><time>2026-04-18T11:52:23.001Z</time></trkpt><trkpt lat="44.28334048799765" lon="11.620777411214366"><ele>78.57142857142857</ele><time>2026-04-18T11:52:24.001Z</time></trkpt><trkpt lat="44.28339206793098" lon="11.62083634868976"><ele>78.28571428571429</ele><time>2026-04-18T11:52:25.001Z</time></trkpt><trkpt lat="44.283413285925754" lon="11.620924760275026"><ele>78.0</ele><time>2026-04-18T11:52:26.001Z</time></trkpt><trkpt lat="44.283428819075866" lon="11.621024667514746"><ele>78.0</ele><time>2026-04-18T11:52:27.001Z</time></trkpt><trkpt lat="44.28344972742224" lon="11.621118558704998"><ele>78.0</ele><time>2026-04-18T11:52:28.001Z</time></trkpt><trkpt lat="44.28347390361164" lon="11.621208877601509"><ele>78.0</ele><time>2026-04-18T11:52:29.001Z</time></trkpt><trkpt lat="44.28350023816736" lon="11.621302241577483"><ele>78.0</ele><time>2026-04-18T11:52:30.001Z</time></trkpt><trkpt lat="44.2835249263531" lon="11.621392128131973"><ele>78.0</ele><time>2026-04-18T11:52:31.001Z</time></trkpt><trkpt lat="44.28354534124642" lon="11.621489043981565"><ele>78.0</ele><time>2026-04-18T11:52:32.001Z</time></trkpt><trkpt lat="44.28357009879709" lon="11.621582356952784"><ele>78.0</ele><time>2026-04-18T11:52:33.001Z</time></trkpt><trkpt lat="44.28359505490284" lon="11.62167548463766"><ele>78.14285714285715</ele><time>2026-04-18T11:52:34.001Z</time></trkpt><trkpt lat="44.28361908568069" lon="11.621770335079407"><ele>78.28571428571428</ele><time>2026-04-18T11:52:35.001Z</time></trkpt><trkpt lat="44.283643202095504" lon="11.621863358673592"><ele>78.42857142857143</ele><time>2026-04-18T11:52:36.001Z</time></trkpt><trkpt lat="44.283669530058816" lon="11.621953259381566"><ele>78.57142857142858</ele><time>2026-04-18T11:52:37.001Z</time></trkpt><trkpt lat="44.28369846431008" lon="11.62204061964492"><ele>78.71428571428572</ele><time>2026-04-18T11:52:38.001Z</time></trkpt><trkpt lat="44.283722360737855" lon="11.622131642091206"><ele>78.85714285714286</ele><time>2026-04-18T11:52:39.001Z</time></trkpt><trkpt lat="44.283744157579974" lon="11.62222646526327"><ele>79.0</ele><time>2026-04-18T11:52:40.001Z</time></trkpt><trkpt lat="44.28376797327023" lon="11.622317342639187"><ele>79.00000000000001</ele><time>2026-04-18T11:52:41.001Z</time></trkpt><trkpt lat="44.28379250979532" lon="11.622408071861443"><ele>79.0</ele><time>2026-04-18T11:52:42.001Z</time></trkpt><trkpt lat="44.28381669318249" lon="11.622502513104191"><ele>79.0</ele><time>2026-04-18T11:52:43.001Z</time></trkpt><trkpt lat="44.28383979969918" lon="11.622596292038821"><ele>79.0</ele><time>2026-04-18T11:52:44.001Z</time></trkpt><trkpt lat="44.283866100320864" lon="11.622687188085742"><ele>79.0</ele><time>2026-04-18T11:52:45.001Z</time></trkpt><trkpt lat="44.283891220935224" lon="11.622787600217144"><ele>79.00000000000001</ele><time>2026-04-18T11:52:46.001Z</time></trkpt><trkpt lat="44.28391492725879" lon="11.622878913499628"><ele>79.0</ele><time>2026-04-18T11:52:47.001Z</time></trkpt><trkpt lat="44.28394300501478" lon="11.622975798032634"><ele>78.85714285714286</ele><time>2026-04-18T11:52:48.001Z</time></trkpt><trkpt lat="44.283968746303955" lon="11.623069717762256"><ele>78.71428571428572</ele><time>2026-04-18T11:52:49.001Z</time></trkpt><trkpt lat="44.2839921981991" lon="11.623161759512811"><ele>78.57142857142858</ele><time>2026-04-18T11:52:50.001Z</time></trkpt><trkpt lat="44.28401921524728" lon="11.623257042249763"><ele>78.42857142857143</ele><time>2026-04-18T11:52:51.001Z</time></trkpt><trkpt lat="44.28404535079433" lon="11.623349379267287"><ele>78.28571428571428</ele><time>2026-04-18T11:52:52.001Z</time></trkpt><trkpt lat="44.28407341565977" lon="11.623445394873105"><ele>78.14285714285715</ele><time>2026-04-18T11:52:53.001Z</time></trkpt><trkpt lat="44.2840994208442" lon="11.62353985729723"><ele>78.0</ele><time>2026-04-18T11:52:54.001Z</time></trkpt><trkpt lat="44.2841257756703" lon="11.62363097063179"><ele>78.42857142857143</ele><time>2026-04-18T11:52:55Z</time></trkpt><trkpt lat="44.284147168156736" lon="11.623727443381222"><ele>78.85714285714285</ele><time>2026-04-18T11:52:56Z</time></trkpt><trkpt lat="44.28417787929897" lon="11.623808221091181"><ele>79.28571428571428</ele><time>2026-04-18T11:52:57Z</time></trkpt><trkpt lat="44.284202294448725" lon="11.623903977594438"><ele>79.71428571428572</ele><time>2026-04-18T11:52:58Z</time></trkpt><trkpt lat="44.28422861630322" lon="11.623996253480316"><ele>80.14285714285714</ele><time>2026-04-18T11:52:59Z</time></trkpt><trkpt lat="44.284255279169024" lon="11.624090891413786"><ele>80.57142857142857</ele><time>2026-04-18T11:53:00Z</time></trkpt><trkpt lat="44.2842811021657" lon="11.624187439232331"><ele>81.0</ele><time>2026-04-18T11:53:01Z</time></trkpt><trkpt lat="44.28430992487424" lon="11.624282091683712"><ele>81.0</ele><time>2026-04-18T11:53:02Z</time></trkpt><trkpt lat="44.28434168506804" lon="11.624376217805931"><ele>81.0</ele><time>2026-04-18T11:53:03Z</time></trkpt><trkpt lat="44.28437155369917" lon="11.624467573825992"><ele>81.0</ele><time>2026-04-18T11:53:04Z</time></trkpt><trkpt lat="44.28440100134417" lon="11.624560821455113"><ele>81.0</ele><time>2026-04-18T11:53:05Z</time></trkpt><trkpt lat="44.28443229050893" lon="11.624653688187694"><ele>81.0</ele><time>2026-04-18T11:53:06Z</time></trkpt><trkpt lat="44.28446289999042" lon="11.624748063261517"><ele>81.0</ele><time>2026-04-18T11:53:07Z</time></trkpt><trkpt lat="44.2844924627379" lon="11.624838081948207"><ele>81.0</ele><time>2026-04-18T11:53:08Z</time></trkpt><trkpt lat="44.284522579415395" lon="11.624931877464405"><ele>81.28571428571429</ele><time>2026-04-18T11:53:09Z</time></trkpt><trkpt lat="44.28454436854386" lon="11.625028386588992"><ele>81.57142857142857</ele><time>2026-04-18T11:53:10Z</time></trkpt><trkpt lat="44.284582827879056" lon="11.625119162759713"><ele>81.85714285714286</ele><time>2026-04-18T11:53:11Z</time></trkpt><trkpt lat="44.28461510767501" lon="11.625211441514631"><ele>82.14285714285714</ele><time>2026-04-18T11:53:12Z</time></trkpt><trkpt lat="44.28465166901393" lon="11.625305953496742"><ele>82.42857142857143</ele><time>2026-04-18T11:53:13Z</time></trkpt><trkpt lat="44.28468391908628" lon="11.625398635470436"><ele>82.71428571428571</ele><time>2026-04-18T11:53:14Z</time></trkpt><trkpt lat="44.2847165899997" lon="11.625492265480196"><ele>83.0</ele><time>2026-04-18T11:53:15Z</time></trkpt><trkpt lat="44.284748605818194" lon="11.62558810301832"><ele>82.16666666666667</ele><time>2026-04-18T11:53:16Z</time></trkpt><trkpt lat="44.28478154985423" lon="11.62568692498146"><ele>81.33333333333334</ele><time>2026-04-18T11:53:17Z</time></trkpt><trkpt lat="44.28481321056585" lon="11.62578469757682"><ele>80.5</ele><time>2026-04-18T11:53:18Z</time></trkpt><trkpt lat="44.28484442271145" lon="11.625879119276672"><ele>79.66666666666667</ele><time>2026-04-18T11:53:19Z</time></trkpt><trkpt lat="44.28487592637947" lon="11.625975375769018"><ele>78.83333333333333</ele><time>2026-04-18T11:53:20Z</time></trkpt><trkpt lat="44.28490833964441" lon="11.626074591712015"><ele>78.0</ele><time>2026-04-18T11:53:21Z</time></trkpt><trkpt lat="44.284941745022415" lon="11.62617377260079"><ele>77.83333333333333</ele><time>2026-04-18T11:53:22Z</time></trkpt><trkpt lat="44.28497469041511" lon="11.626271014723239"><ele>77.66666666666667</ele><time>2026-04-18T11:53:23Z</time></trkpt><trkpt lat="44.2850097168942" lon="11.62636986735559"><ele>77.5</ele><time>2026-04-18T11:53:24Z</time></trkpt><trkpt lat="44.28504379001215" lon="11.62647138538848"><ele>77.33333333333334</ele><time>2026-04-18T11:53:25Z</time></trkpt><trkpt lat="44.2850787649556" lon="11.6265736800344"><ele>77.16666666666667</ele><time>2026-04-18T11:53:26Z</time></trkpt><trkpt lat="44.28511296499852" lon="11.62667216706469"><ele>77.0</ele><time>2026-04-18T11:53:27Z</time></trkpt><trkpt lat="44.285147917190706" lon="11.626770453672492"><ele>77.0</ele><time>2026-04-18T11:53:28Z</time></trkpt><trkpt lat="44.285180024763946" lon="11.626868841190166"><ele>77.0</ele><time>2026-04-18T11:53:29Z</time></trkpt><trkpt lat="44.28521476962082" lon="11.626968672911477"><ele>77.0</ele><time>2026-04-18T11:53:30Z</time></trkpt><trkpt lat="44.28525005122772" lon="11.6270647157584"><ele>77.0</ele><time>2026-04-18T11:53:31Z</time></trkpt><trkpt lat="44.285282217121384" lon="11.627163606780396"><ele>77.0</ele><time>2026-04-18T11:53:32Z</time></trkpt><trkpt lat="44.28531195132419" lon="11.627260876256814"><ele>77.0</ele><time>2026-04-18T11:53:33Z</time></trkpt><trkpt lat="44.285344646717924" lon="11.627356750630932"><ele>77.66666666666667</ele><time>2026-04-18T11:53:34Z</time></trkpt><trkpt lat="44.285377320238304" lon="11.627451080488727"><ele>78.33333333333334</ele><time>2026-04-18T11:53:35Z</time></trkpt><trkpt lat="44.28541126236968" lon="11.627545067426682"><ele>79.0</ele><time>2026-04-18T11:53:36Z</time></trkpt><trkpt lat="44.285444598588086" lon="11.627641247095546"><ele>79.66666666666667</ele><time>2026-04-18T11:53:37Z</time></trkpt><trkpt lat="44.285478513458585" lon="11.627737067855447"><ele>80.33333333333333</ele><time>2026-04-18T11:53:38Z</time></trkpt><trkpt lat="44.285512331432" lon="11.62783248947705"><ele>81.0</ele><time>2026-04-18T11:53:39Z</time></trkpt><trkpt lat="44.285544258286684" lon="11.627930649480605"><ele>80.66666666666667</ele><time>2026-04-18T11:53:40Z</time></trkpt><trkpt lat="44.285576962159624" lon="11.628027301258806"><ele>80.33333333333333</ele><time>2026-04-18T11:53:41Z</time></trkpt><trkpt lat="44.285610401238934" lon="11.62812374227505"><ele>80.0</ele><time>2026-04-18T11:53:42Z</time></trkpt><trkpt lat="44.28564521468663" lon="11.62822035846431"><ele>79.66666666666666</ele><time>2026-04-18T11:53:43Z</time></trkpt><trkpt lat="44.28567580099962" lon="11.62831778422024"><ele>79.33333333333333</ele><time>2026-04-18T11:53:44Z</time></trkpt><trkpt lat="44.28570716784484" lon="11.628415493173243"><ele>79.0</ele><time>2026-04-18T11:53:45Z</time></trkpt><trkpt lat="44.28574089944673" lon="11.628511139479752"><ele>79.0</ele><time>2026-04-18T11:53:46Z</time></trkpt><trkpt lat="44.285774074380775" lon="11.628606741077887"><ele>79.0</ele><time>2026-04-18T11:53:47Z</time></trkpt><trkpt lat="44.285808042020136" lon="11.628708260047462"><ele>79.0</ele><time>2026-04-18T11:53:48Z</time></trkpt><trkpt lat="44.28584171368483" lon="11.6288036240087"><ele>79.0</ele><time>2026-04-18T11:53:49Z</time></trkpt><trkpt lat="44.28587205781935" lon="11.628897840699187"><ele>79.0</ele><time>2026-04-18T11:53:50Z</time></trkpt><trkpt lat="44.2859037034546" lon="11.628993795248576"><ele>79.0</ele><time>2026-04-18T11:53:51Z</time></trkpt><trkpt lat="44.285934569384814" lon="11.629091124114117"><ele>79.33333333333333</ele><time>2026-04-18T11:53:52Z</time></trkpt><trkpt lat="44.28596737597718" lon="11.62918511314373"><ele>79.66666666666666</ele><time>2026-04-18T11:53:53.001Z</time></trkpt><trkpt lat="44.28599821908713" lon="11.62928295402111"><ele>80.0</ele><time>2026-04-18T11:53:54.001Z</time></trkpt><trkpt lat="44.286033029810106" lon="11.62937472656566"><ele>80.33333333333333</ele><time>2026-04-18T11:53:55.001Z</time></trkpt><trkpt lat="44.28606591781421" lon="11.629472025817815"><ele>80.66666666666667</ele><time>2026-04-18T11:53:56.001Z</time></trkpt><trkpt lat="44.28609962587372" lon="11.629571229096111"><ele>81.0</ele><time>2026-04-18T11:53:57.001Z</time></trkpt><trkpt lat="44.28613075230871" lon="11.629666451973675"><ele>82.33333333333333</ele><time>2026-04-18T11:53:58.001Z</time></trkpt><trkpt lat="44.28616614782122" lon="11.629763046659312"><ele>83.66666666666667</ele><time>2026-04-18T11:53:59.001Z</time></trkpt><trkpt lat="44.28619902086309" lon="11.629859860787057"><ele>85.0</ele><time>2026-04-18T11:54:00.001Z</time></trkpt><trkpt lat="44.28623661300584" lon="11.629948916624913"><ele>86.33333333333334</ele><time>2026-04-18T11:54:01.001Z</time></trkpt><trkpt lat="44.28627895416297" lon="11.630037850809325"><ele>87.66666666666667</ele><time>2026-04-18T11:54:02.001Z</time></trkpt><trkpt lat="44.28632482081175" lon="11.63012241920009"><ele>89.0</ele><time>2026-04-18T11:54:03.001Z</time></trkpt><trkpt lat="44.286371324048226" lon="11.630201934681777"><ele>89.0</ele><time>2026-04-18T11:54:04.001Z</time></trkpt><trkpt lat="44.28642503496331" lon="11.630277672062478"><ele>89.0</ele><time>2026-04-18T11:54:05.001Z</time></trkpt><trkpt lat="44.28647989489515" lon="11.630350062681345"><ele>89.0</ele><time>2026-04-18T11:54:06.001Z</time></trkpt><trkpt lat="44.286539875386914" lon="11.630419843823192"><ele>89.0</ele><time>2026-04-18T11:54:07.001Z</time></trkpt><trkpt lat="44.28660495298144" lon="11.630493624973806"><ele>89.0</ele><time>2026-04-18T11:54:08.001Z</time></trkpt><trkpt lat="44.28666234595176" lon="11.630552485945946"><ele>89.0</ele><time>2026-04-18T11:54:09.001Z</time></trkpt><trkpt lat="44.28673022444597" lon="11.630612852188525"><ele>88.5</ele><time>2026-04-18T11:54:10.001Z</time></trkpt><trkpt lat="44.28679326253521" lon="11.63067474835623"><ele>88.0</ele><time>2026-04-18T11:54:11.001Z</time></trkpt><trkpt lat="44.2868564762089" lon="11.630738465756936"><ele>87.5</ele><time>2026-04-18T11:54:12.001Z</time></trkpt><trkpt lat="44.28692059623359" lon="11.630801932122253"><ele>87.0</ele><time>2026-04-18T11:54:13.001Z</time></trkpt><trkpt lat="44.286986988447666" lon="11.630864096872022"><ele>86.5</ele><time>2026-04-18T11:54:14.001Z</time></trkpt><trkpt lat="44.28705216033971" lon="11.63092614050562"><ele>86.0</ele><time>2026-04-18T11:54:15.001Z</time></trkpt><trkpt lat="44.28711759259327" lon="11.630988247386643"><ele>86.0</ele><time>2026-04-18T11:54:16.001Z</time></trkpt><trkpt lat="44.287183344541106" lon="11.631052918810276"><ele>86.0</ele><time>2026-04-18T11:54:17.001Z</time></trkpt><trkpt lat="44.28724896920709" lon="11.631116409880812"><ele>86.0</ele><time>2026-04-18T11:54:18.001Z</time></trkpt><trkpt lat="44.2873132529725" lon="11.631180245810368"><ele>86.0</ele><time>2026-04-18T11:54:19.001Z</time></trkpt><trkpt lat="44.287378260441415" lon="11.631247286431575"><ele>86.0</ele><time>2026-04-18T11:54:20.001Z</time></trkpt><trkpt lat="44.287444289283016" lon="11.63130889416143"><ele>86.0</ele><time>2026-04-18T11:54:21.001Z</time></trkpt><trkpt lat="44.28750933756595" lon="11.631371617251267"><ele>86.0</ele><time>2026-04-18T11:54:22.001Z</time></trkpt><trkpt lat="44.28757403487729" lon="11.631435832196999"><ele>86.0</ele><time>2026-04-18T11:54:23.001Z</time></trkpt><trkpt lat="44.28763958760401" lon="11.631500742454474"><ele>86.0</ele><time>2026-04-18T11:54:24.001Z</time></trkpt><trkpt lat="44.287707061311636" lon="11.631565022764265"><ele>86.0</ele><time>2026-04-18T11:54:25.001Z</time></trkpt><trkpt lat="44.28777279037206" lon="11.631630834543465"><ele>86.0</ele><time>2026-04-18T11:54:26.001Z</time></trkpt><trkpt lat="44.28783845368196" lon="11.63169256921134"><ele>86.0</ele><time>2026-04-18T11:54:27.001Z</time></trkpt><trkpt lat="44.28790393362942" lon="11.631756630681165"><ele>86.0</ele><time>2026-04-18T11:54:28.001Z</time></trkpt><trkpt lat="44.287968887954236" lon="11.63181894383004"><ele>86.0</ele><time>2026-04-18T11:54:29.001Z</time></trkpt><trkpt lat="44.28803164636492" lon="11.631887713662694"><ele>86.0</ele><time>2026-04-18T11:54:30.001Z</time></trkpt><trkpt lat="44.28809556886464" lon="11.631956615778899"><ele>86.0</ele><time>2026-04-18T11:54:31.001Z</time></trkpt><trkpt lat="44.28815652124424" lon="11.632029274116592"><ele>86.0</ele><time>2026-04-18T11:54:32.001Z</time></trkpt><trkpt lat="44.28821623930545" lon="11.632102480253126"><ele>86.0</ele><time>2026-04-18T11:54:33.001Z</time></trkpt><trkpt lat="44.288278363792166" lon="11.63217452792188"><ele>85.33333333333334</ele><time>2026-04-18T11:54:34.001Z</time></trkpt><trkpt lat="44.28833822490157" lon="11.632249349658254"><ele>84.66666666666667</ele><time>2026-04-18T11:54:35.001Z</time></trkpt><trkpt lat="44.288400672973864" lon="11.632321360574084"><ele>84.0</ele><time>2026-04-18T11:54:36.001Z</time></trkpt><trkpt lat="44.288459913338066" lon="11.632399832092359"><ele>83.33333333333333</ele><time>2026-04-18T11:54:37.001Z</time></trkpt><trkpt lat="44.28851993814606" lon="11.632476761877765"><ele>82.66666666666666</ele><time>2026-04-18T11:54:38.001Z</time></trkpt><trkpt lat="44.288577067909365" lon="11.632560643144721"><ele>82.0</ele><time>2026-04-18T11:54:39.001Z</time></trkpt><trkpt lat="44.28862412732064" lon="11.632646298024763"><ele>82.0</ele><time>2026-04-18T11:54:40.001Z</time></trkpt><trkpt lat="44.28867702004011" lon="11.632732318430532"><ele>82.0</ele><time>2026-04-18T11:54:41.001Z</time></trkpt><trkpt lat="44.28873408048677" lon="11.632818727434838"><ele>82.0</ele><time>2026-04-18T11:54:42.001Z</time></trkpt><trkpt lat="44.2887936570497" lon="11.632906670464303"><ele>82.0</ele><time>2026-04-18T11:54:43.001Z</time></trkpt><trkpt lat="44.28884629055064" lon="11.632993773893238"><ele>82.0</ele><time>2026-04-18T11:54:44.001Z</time></trkpt><trkpt lat="44.28889957052912" lon="11.633080091726448"><ele>82.0</ele><time>2026-04-18T11:54:45.001Z</time></trkpt><trkpt lat="44.288954327383514" lon="11.633171223044394"><ele>82.0</ele><time>2026-04-18T11:54:46.001Z</time></trkpt><trkpt lat="44.289000084026306" lon="11.633265823251584"><ele>82.0</ele><time>2026-04-18T11:54:47.001Z</time></trkpt><trkpt lat="44.28905760698767" lon="11.63335408388452"><ele>82.0</ele><time>2026-04-18T11:54:48.001Z</time></trkpt><trkpt lat="44.28911599990709" lon="11.633443168602165"><ele>82.0</ele><time>2026-04-18T11:54:49.001Z</time></trkpt><trkpt lat="44.289177498101225" lon="11.63352723421092"><ele>82.0</ele><time>2026-04-18T11:54:50.001Z</time></trkpt><trkpt lat="44.2892322971033" lon="11.633612809495492"><ele>82.0</ele><time>2026-04-18T11:54:51.001Z</time></trkpt><trkpt lat="44.28928645507173" lon="11.633699268259164"><ele>82.0</ele><time>2026-04-18T11:54:52.001Z</time></trkpt><trkpt lat="44.289340665899104" lon="11.63378727572006"><ele>82.0</ele><time>2026-04-18T11:54:53.001Z</time></trkpt><trkpt lat="44.28939710996149" lon="11.63387753204656"><ele>82.0</ele><time>2026-04-18T11:54:54.001Z</time></trkpt><trkpt lat="44.289451047305384" lon="11.633964317867308"><ele>82.0</ele><time>2026-04-18T11:54:55.001Z</time></trkpt><trkpt lat="44.28950741965114" lon="11.634050878510926"><ele>82.0</ele><time>2026-04-18T11:54:56.001Z</time></trkpt><trkpt lat="44.28956409765612" lon="11.634139987957372"><ele>82.0</ele><time>2026-04-18T11:54:57.001Z</time></trkpt><trkpt lat="44.2896187334733" lon="11.634225094268931"><ele>82.0</ele><time>2026-04-18T11:54:58.001Z</time></trkpt><trkpt lat="44.28967745087433" lon="11.634313105371099"><ele>82.0</ele><time>2026-04-18T11:54:59.001Z</time></trkpt><trkpt lat="44.28973109315177" lon="11.63440055883743"><ele>82.0</ele><time>2026-04-18T11:55:00.001Z</time></trkpt><trkpt lat="44.28978604595084" lon="11.634488004876786"><ele>82.0</ele><time>2026-04-18T11:55:01.001Z</time></trkpt><trkpt lat="44.289840700787884" lon="11.634575588840825"><ele>82.0</ele><time>2026-04-18T11:55:02.001Z</time></trkpt><trkpt lat="44.289896607382424" lon="11.634668530789249"><ele>82.0</ele><time>2026-04-18T11:55:03.001Z</time></trkpt><trkpt lat="44.28994994166221" lon="11.634752099056858"><ele>82.0</ele><time>2026-04-18T11:55:04.001Z</time></trkpt><trkpt lat="44.290004792030224" lon="11.634839788745179"><ele>82.0</ele><time>2026-04-18T11:55:05.001Z</time></trkpt><trkpt lat="44.290057154790844" lon="11.634929577020758"><ele>82.0</ele><time>2026-04-18T11:55:06.001Z</time></trkpt><trkpt lat="44.29011047094404" lon="11.635020452868702"><ele>82.0</ele><time>2026-04-18T11:55:07.001Z</time></trkpt><trkpt lat="44.29016586324837" lon="11.63510878659342"><ele>82.0</ele><time>2026-04-18T11:55:08.001Z</time></trkpt><trkpt lat="44.29021972257989" lon="11.635197663827784"><ele>82.0</ele><time>2026-04-18T11:55:09.001Z</time></trkpt><trkpt lat="44.29027298402634" lon="11.635281815221985"><ele>81.83333333333333</ele><time>2026-04-18T11:55:10.001Z</time></trkpt><trkpt lat="44.29032619847824" lon="11.635368604809527"><ele>81.66666666666666</ele><time>2026-04-18T11:55:11.001Z</time></trkpt><trkpt lat="44.29038081251123" lon="11.63545920329053"><ele>81.5</ele><time>2026-04-18T11:55:12.001Z</time></trkpt><trkpt lat="44.29043414790586" lon="11.635546680127511"><ele>81.33333333333333</ele><time>2026-04-18T11:55:13.001Z</time></trkpt><trkpt lat="44.29048619191482" lon="11.63563342222391"><ele>81.16666666666667</ele><time>2026-04-18T11:55:14.001Z</time></trkpt><trkpt lat="44.290539064225655" lon="11.63572171960482"><ele>81.0</ele><time>2026-04-18T11:55:15.001Z</time></trkpt><trkpt lat="44.29059066911255" lon="11.63581114488426"><ele>80.83333333333333</ele><time>2026-04-18T11:55:16.001Z</time></trkpt><trkpt lat="44.2906443494612" lon="11.635899956743188"><ele>80.66666666666667</ele><time>2026-04-18T11:55:17.001Z</time></trkpt><trkpt lat="44.290698048437115" lon="11.635985098867488"><ele>80.5</ele><time>2026-04-18T11:55:18.001Z</time></trkpt><trkpt lat="44.290750898411325" lon="11.636072054203327"><ele>80.33333333333334</ele><time>2026-04-18T11:55:19.001Z</time></trkpt><trkpt lat="44.2908035698578" lon="11.636158294108943"><ele>80.16666666666667</ele><time>2026-04-18T11:55:20.001Z</time></trkpt><trkpt lat="44.29085729824475" lon="11.63624332791333"><ele>80.0</ele><time>2026-04-18T11:55:21.001Z</time></trkpt><trkpt lat="44.29091118923575" lon="11.636329614703408"><ele>80.0</ele><time>2026-04-18T11:55:22.001Z</time></trkpt><trkpt lat="44.29096262439086" lon="11.636417124788412"><ele>80.0</ele><time>2026-04-18T11:55:23.001Z</time></trkpt><trkpt lat="44.29101620613276" lon="11.636505642808407"><ele>80.0</ele><time>2026-04-18T11:55:24.001Z</time></trkpt><trkpt lat="44.291070489699145" lon="11.63659207998458"><ele>80.0</ele><time>2026-04-18T11:55:25.001Z</time></trkpt><trkpt lat="44.29112381031153" lon="11.636678718067504"><ele>80.0</ele><time>2026-04-18T11:55:26.001Z</time></trkpt><trkpt lat="44.291175891824075" lon="11.63676442745454"><ele>80.0</ele><time>2026-04-18T11:55:27.001Z</time></trkpt><trkpt lat="44.29122715540181" lon="11.636847915490474"><ele>80.0</ele><time>2026-04-18T11:55:28.001Z</time></trkpt><trkpt lat="44.29128054272135" lon="11.636934024897363"><ele>80.0</ele><time>2026-04-18T11:55:29.001Z</time></trkpt><trkpt lat="44.29133344092199" lon="11.637019456330666"><ele>80.0</ele><time>2026-04-18T11:55:30.001Z</time></trkpt><trkpt lat="44.291385612377056" lon="11.637104486515891"><ele>80.0</ele><time>2026-04-18T11:55:31.001Z</time></trkpt><trkpt lat="44.29143927238225" lon="11.637192734264271"><ele>80.0</ele><time>2026-04-18T11:55:32.001Z</time></trkpt><trkpt lat="44.29149155256053" lon="11.637280152764152"><ele>80.0</ele><time>2026-04-18T11:55:33.001Z</time></trkpt><trkpt lat="44.29154397847118" lon="11.637370131871007"><ele>79.66666666666667</ele><time>2026-04-18T11:55:34.001Z</time></trkpt><trkpt lat="44.291596975047156" lon="11.63745920286848"><ele>79.33333333333334</ele><time>2026-04-18T11:55:35.001Z</time></trkpt><trkpt lat="44.291649795855385" lon="11.637547551465593"><ele>79.0</ele><time>2026-04-18T11:55:36.001Z</time></trkpt><trkpt lat="44.291703710754106" lon="11.637635851745758"><ele>78.66666666666667</ele><time>2026-04-18T11:55:37.001Z</time></trkpt><trkpt lat="44.29175748236323" lon="11.63772173511623"><ele>78.33333333333333</ele><time>2026-04-18T11:55:38.001Z</time></trkpt><trkpt lat="44.291809411748396" lon="11.637806589232682"><ele>78.0</ele><time>2026-04-18T11:55:39.001Z</time></trkpt><trkpt lat="44.29186307927606" lon="11.637887385020536"><ele>78.66666666666667</ele><time>2026-04-18T11:55:40.001Z</time></trkpt><trkpt lat="44.29191614617852" lon="11.637969092775437"><ele>79.33333333333333</ele><time>2026-04-18T11:55:41.001Z</time></trkpt><trkpt lat="44.29197077776666" lon="11.63804904940418"><ele>80.0</ele><time>2026-04-18T11:55:42.001Z</time></trkpt><trkpt lat="44.29202155464767" lon="11.638129157141604"><ele>80.66666666666666</ele><time>2026-04-18T11:55:43.001Z</time></trkpt><trkpt lat="44.29207382842136" lon="11.638211359460497"><ele>81.33333333333333</ele><time>2026-04-18T11:55:44.001Z</time></trkpt><trkpt lat="44.29212632972627" lon="11.638290850412075"><ele>82.0</ele><time>2026-04-18T11:55:45.001Z</time></trkpt><trkpt lat="44.29217837037739" lon="11.638371811095167"><ele>81.99999999999999</ele><time>2026-04-18T11:55:46.001Z</time></trkpt><trkpt lat="44.29222981624909" lon="11.638454320857386"><ele>82.0</ele><time>2026-04-18T11:55:47.001Z</time></trkpt><trkpt lat="44.29227834934571" lon="11.638536311080252"><ele>82.0</ele><time>2026-04-18T11:55:48.001Z</time></trkpt><trkpt lat="44.29232836528381" lon="11.638614823030073"><ele>82.0</ele><time>2026-04-18T11:55:49.001Z</time></trkpt><trkpt lat="44.292380649026455" lon="11.638692695477184"><ele>82.0</ele><time>2026-04-18T11:55:50.001Z</time></trkpt><trkpt lat="44.2924247317937" lon="11.638767903247189"><ele>81.99999999999999</ele><time>2026-04-18T11:55:51.001Z</time></trkpt><trkpt lat="44.29247106674044" lon="11.6388468208388"><ele>82.0</ele><time>2026-04-18T11:55:52.001Z</time></trkpt><trkpt lat="44.29251962964715" lon="11.63892615923791"><ele>82.16666666666666</ele><time>2026-04-18T11:55:53.001Z</time></trkpt><trkpt lat="44.29256741235653" lon="11.639007281060401"><ele>82.33333333333333</ele><time>2026-04-18T11:55:54.001Z</time></trkpt><trkpt lat="44.292618852507076" lon="11.63908588284231"><ele>82.5</ele><time>2026-04-18T11:55:55.001Z</time></trkpt><trkpt lat="44.292669071740875" lon="11.63916735099329"><ele>82.66666666666667</ele><time>2026-04-18T11:55:56.001Z</time></trkpt><trkpt lat="44.292722072141366" lon="11.639252185695453"><ele>82.83333333333334</ele><time>2026-04-18T11:55:57.001Z</time></trkpt><trkpt lat="44.29277331610583" lon="11.63933720132075"><ele>83.0</ele><time>2026-04-18T11:55:58.001Z</time></trkpt><trkpt lat="44.29282243320091" lon="11.639421950378471"><ele>83.33333333333334</ele><time>2026-04-18T11:55:59.001Z</time></trkpt><trkpt lat="44.29287501621636" lon="11.639503344230844"><ele>83.66666666666667</ele><time>2026-04-18T11:56:00.001Z</time></trkpt><trkpt lat="44.29292697110794" lon="11.639583164344657"><ele>84.0</ele><time>2026-04-18T11:56:01.001Z</time></trkpt><trkpt lat="44.292977228591106" lon="11.639664647714051"><ele>84.33333333333333</ele><time>2026-04-18T11:56:02.001Z</time></trkpt><trkpt lat="44.29302627874094" lon="11.639749084623261"><ele>84.66666666666666</ele><time>2026-04-18T11:56:03.001Z</time></trkpt><trkpt lat="44.293073631885576" lon="11.63983391101049"><ele>85.0</ele><time>2026-04-18T11:56:04.001Z</time></trkpt><trkpt lat="44.29312186599774" lon="11.639921486187353"><ele>85.0</ele><time>2026-04-18T11:56:05.001Z</time></trkpt><trkpt lat="44.29316689716086" lon="11.640007326416756"><ele>85.0</ele><time>2026-04-18T11:56:06.001Z</time></trkpt><trkpt lat="44.293207342616576" lon="11.64009264815375"><ele>85.0</ele><time>2026-04-18T11:56:07.001Z</time></trkpt><trkpt lat="44.29325052306685" lon="11.640179373110438"><ele>85.0</ele><time>2026-04-18T11:56:08.001Z</time></trkpt><trkpt lat="44.29329411948628" lon="11.64026792117693"><ele>85.0</ele><time>2026-04-18T11:56:09.001Z</time></trkpt><trkpt lat="44.293333611605675" lon="11.640353270663379"><ele>85.0</ele><time>2026-04-18T11:56:10.001Z</time></trkpt><trkpt lat="44.29337346341057" lon="11.640443578722675"><ele>86.0</ele><time>2026-04-18T11:56:11.001Z</time></trkpt><trkpt lat="44.29341307516365" lon="11.640530878671196"><ele>87.0</ele><time>2026-04-18T11:56:12.001Z</time></trkpt><trkpt lat="44.29344993848781" lon="11.640615670984541"><ele>88.0</ele><time>2026-04-18T11:56:13.001Z</time></trkpt><trkpt lat="44.29348934863898" lon="11.64070109137507"><ele>89.0</ele><time>2026-04-18T11:56:14.001Z</time></trkpt><trkpt lat="44.293531729971065" lon="11.640782628810205"><ele>90.0</ele><time>2026-04-18T11:56:15.001Z</time></trkpt><trkpt lat="44.29357168129837" lon="11.640871206441636"><ele>91.0</ele><time>2026-04-18T11:56:16.001Z</time></trkpt><trkpt lat="44.29360919735659" lon="11.640962322180725"><ele>92.0</ele><time>2026-04-18T11:56:17.001Z</time></trkpt><trkpt lat="44.29364617424782" lon="11.641051434395646"><ele>92.42857142857143</ele><time>2026-04-18T11:56:18.001Z</time></trkpt><trkpt lat="44.293680897838186" lon="11.641137565604827"><ele>92.85714285714285</ele><time>2026-04-18T11:56:19.001Z</time></trkpt><trkpt lat="44.293716284669706" lon="11.641221707140971"><ele>93.28571428571428</ele><time>2026-04-18T11:56:20.001Z</time></trkpt><trkpt lat="44.293759774267386" lon="11.641312389708073"><ele>93.71428571428572</ele><time>2026-04-18T11:56:21.001Z</time></trkpt><trkpt lat="44.29379314385047" lon="11.641397118865752"><ele>94.14285714285714</ele><time>2026-04-18T11:56:22.001Z</time></trkpt><trkpt lat="44.29382493737341" lon="11.641489194716645"><ele>94.57142857142857</ele><time>2026-04-18T11:56:23.001Z</time></trkpt><trkpt lat="44.29383932373703" lon="11.641583582084298"><ele>95.0</ele><time>2026-04-18T11:56:24.001Z</time></trkpt><trkpt lat="44.29385202762386" lon="11.641681688111488"><ele>95.0</ele><time>2026-04-18T11:56:25.001Z</time></trkpt><trkpt lat="44.29386602304807" lon="11.641782877843516"><ele>95.0</ele><time>2026-04-18T11:56:26.001Z</time></trkpt><trkpt lat="44.293882565849486" lon="11.641889207148477"><ele>95.0</ele><time>2026-04-18T11:56:27.001Z</time></trkpt><trkpt lat="44.29389336216557" lon="11.641992616448173"><ele>95.0</ele><time>2026-04-18T11:56:28.001Z</time></trkpt><trkpt lat="44.293907170445806" lon="11.642095230913537"><ele>95.0</ele><time>2026-04-18T11:56:29.001Z</time></trkpt><trkpt lat="44.29392002009412" lon="11.642192516092924"><ele>95.0</ele><time>2026-04-18T11:56:30.001Z</time></trkpt><trkpt lat="44.293936833731294" lon="11.642292750877706"><ele>95.0</ele><time>2026-04-18T11:56:31.001Z</time></trkpt><trkpt lat="44.293962139644144" lon="11.642393366913737"><ele>94.71428571428572</ele><time>2026-04-18T11:56:32.001Z</time></trkpt><trkpt lat="44.29399248128716" lon="11.642495233243217"><ele>94.42857142857143</ele><time>2026-04-18T11:56:33.001Z</time></trkpt><trkpt lat="44.29402422226328" lon="11.64258665159634"><ele>94.14285714285714</ele><time>2026-04-18T11:56:34.001Z</time></trkpt><trkpt lat="44.29405667534463" lon="11.642677225978135"><ele>93.85714285714286</ele><time>2026-04-18T11:56:35.001Z</time></trkpt><trkpt lat="44.29408649615437" lon="11.64276338906639"><ele>93.57142857142857</ele><time>2026-04-18T11:56:36.001Z</time></trkpt><trkpt lat="44.294119210150626" lon="11.642850869775456"><ele>93.28571428571429</ele><time>2026-04-18T11:56:37.001Z</time></trkpt><trkpt lat="44.2941519643758" lon="11.642930724577736"><ele>93.0</ele><time>2026-04-18T11:56:38.001Z</time></trkpt><trkpt lat="44.29422764780535" lon="11.64308488077205"><ele>93.0</ele><time>2026-04-18T11:56:40.001Z</time></trkpt><trkpt lat="44.29425310921706" lon="11.643172323454474"><ele>93.0</ele><time>2026-04-18T11:56:41.001Z</time></trkpt><trkpt lat="44.29430085320692" lon="11.643257339238927"><ele>93.0</ele><time>2026-04-18T11:56:43.001Z</time></trkpt><trkpt lat="44.294484677742716" lon="11.643101868918135"><ele>93.0</ele><time>2026-04-18T11:56:44.001Z</time></trkpt><trkpt lat="44.29454598330534" lon="11.643046383097145"><ele>93.0</ele><time>2026-04-18T11:56:45.001Z</time></trkpt><trkpt lat="44.294613954626215" lon="11.642994210178234"><ele>93.0</ele><time>2026-04-18T11:56:46.001Z</time></trkpt><trkpt lat="44.29468397172194" lon="11.64295216372336"><ele>93.0</ele><time>2026-04-18T11:56:47.001Z</time></trkpt><trkpt lat="44.29475501224551" lon="11.642909426413032"><ele>93.0</ele><time>2026-04-18T11:56:48.001Z</time></trkpt><trkpt lat="44.294820297185886" lon="11.642868194153772"><ele>93.0</ele><time>2026-04-18T11:56:49.001Z</time></trkpt><trkpt lat="44.29488599066828" lon="11.64281965580622"><ele>93.0</ele><time>2026-04-18T11:56:50.001Z</time></trkpt><trkpt lat="44.29495445618971" lon="11.64276923358756"><ele>93.0</ele><time>2026-04-18T11:56:51.001Z</time></trkpt><trkpt lat="44.29501865941947" lon="11.642721227183058"><ele>92.57142857142858</ele><time>2026-04-18T11:56:52.001Z</time></trkpt><trkpt lat="44.29508160355641" lon="11.642669762783607"><ele>92.14285714285714</ele><time>2026-04-18T11:56:53.001Z</time></trkpt><trkpt lat="44.29514799552445" lon="11.642618863646085"><ele>91.71428571428572</ele><time>2026-04-18T11:56:54.001Z</time></trkpt><trkpt lat="44.29520896198218" lon="11.642564360370274"><ele>91.28571428571429</ele><time>2026-04-18T11:56:55.001Z</time></trkpt><trkpt lat="44.29527198537215" lon="11.642504300854963"><ele>90.85714285714286</ele><time>2026-04-18T11:56:56.001Z</time></trkpt><trkpt lat="44.29533282869956" lon="11.642448830218479"><ele>90.42857142857143</ele><time>2026-04-18T11:56:57.001Z</time></trkpt><trkpt lat="44.295393697854756" lon="11.642395615549955"><ele>90.0</ele><time>2026-04-18T11:56:58.001Z</time></trkpt><trkpt lat="44.2954527504912" lon="11.642339808928694"><ele>90.0</ele><time>2026-04-18T11:56:59.001Z</time></trkpt><trkpt lat="44.29551759813326" lon="11.642280762466592"><ele>90.0</ele><time>2026-04-18T11:57:00.001Z</time></trkpt><trkpt lat="44.29558424106974" lon="11.642225264886795"><ele>90.0</ele><time>2026-04-18T11:57:01.001Z</time></trkpt><trkpt lat="44.29565609834626" lon="11.642179416446192"><ele>90.0</ele><time>2026-04-18T11:57:02.001Z</time></trkpt><trkpt lat="44.295732921667664" lon="11.642153945994743"><ele>90.0</ele><time>2026-04-18T11:57:03.001Z</time></trkpt><trkpt lat="44.29581435694514" lon="11.642155505489598"><ele>90.0</ele><time>2026-04-18T11:57:04.001Z</time></trkpt><trkpt lat="44.2958931154069" lon="11.642196794819581"><ele>89.33333333333333</ele><time>2026-04-18T11:57:05.001Z</time></trkpt><trkpt lat="44.29596757332687" lon="11.642235095854117"><ele>88.66666666666667</ele><time>2026-04-18T11:57:06.001Z</time></trkpt><trkpt lat="44.29603557291549" lon="11.64228919885312"><ele>88.0</ele><time>2026-04-18T11:57:07.001Z</time></trkpt><trkpt lat="44.296095895694066" lon="11.64236419213794"><ele>87.33333333333334</ele><time>2026-04-18T11:57:08.001Z</time></trkpt><trkpt lat="44.29615940960252" lon="11.642419764439587"><ele>86.66666666666667</ele><time>2026-04-18T11:57:09.001Z</time></trkpt><trkpt lat="44.2962291166682" lon="11.642460501650639"><ele>86.0</ele><time>2026-04-18T11:57:10.001Z</time></trkpt><trkpt lat="44.29629638129813" lon="11.642502883029668"><ele>86.00000000000001</ele><time>2026-04-18T11:57:11.001Z</time></trkpt><trkpt lat="44.29636371175754" lon="11.642553844060696"><ele>86.0</ele><time>2026-04-18T11:57:12.001Z</time></trkpt><trkpt lat="44.29643349070372" lon="11.642603467223328"><ele>86.0</ele><time>2026-04-18T11:57:13.001Z</time></trkpt><trkpt lat="44.29649591351162" lon="11.642648640167943"><ele>86.0</ele><time>2026-04-18T11:57:14.001Z</time></trkpt><trkpt lat="44.29656100362045" lon="11.642697151023466"><ele>86.0</ele><time>2026-04-18T11:57:15.001Z</time></trkpt><trkpt lat="44.29662443312988" lon="11.642743297696219"><ele>86.00000000000001</ele><time>2026-04-18T11:57:16.001Z</time></trkpt><trkpt lat="44.296690350259404" lon="11.642788655397823"><ele>86.0</ele><time>2026-04-18T11:57:17.001Z</time></trkpt><trkpt lat="44.29675744358554" lon="11.642834888079435"><ele>86.33333333333334</ele><time>2026-04-18T11:57:18.001Z</time></trkpt><trkpt lat="44.296825344885875" lon="11.642884822024843"><ele>86.66666666666667</ele><time>2026-04-18T11:57:19.001Z</time></trkpt><trkpt lat="44.296898132564394" lon="11.642935165081763"><ele>87.0</ele><time>2026-04-18T11:57:20.001Z</time></trkpt><trkpt lat="44.296972032125375" lon="11.642985789015825"><ele>87.33333333333333</ele><time>2026-04-18T11:57:21.001Z</time></trkpt><trkpt lat="44.29704746550915" lon="11.643035322782538"><ele>87.66666666666666</ele><time>2026-04-18T11:57:22.001Z</time></trkpt><trkpt lat="44.29712454057522" lon="11.643091040638117"><ele>88.0</ele><time>2026-04-18T11:57:23.001Z</time></trkpt><trkpt lat="44.29719728022068" lon="11.643141634154784"><ele>86.80000000000001</ele><time>2026-04-18T11:57:24.001Z</time></trkpt><trkpt lat="44.29727311874126" lon="11.643195548935191"><ele>85.6</ele><time>2026-04-18T11:57:25.001Z</time></trkpt><trkpt lat="44.29735075224142" lon="11.643257882017494"><ele>84.4</ele><time>2026-04-18T11:57:26Z</time></trkpt><trkpt lat="44.29743220650341" lon="11.64332476279166"><ele>83.19999999999999</ele><time>2026-04-18T11:57:27Z</time></trkpt><trkpt lat="44.29752105373057" lon="11.64337264633622"><ele>82.0</ele><time>2026-04-18T11:57:28Z</time></trkpt><trkpt lat="44.29760814385969" lon="11.643435281177466"><ele>82.0</ele><time>2026-04-18T11:57:29Z</time></trkpt><trkpt lat="44.29768786020628" lon="11.643499071503923"><ele>82.0</ele><time>2026-04-18T11:57:30Z</time></trkpt><trkpt lat="44.2977684186953" lon="11.643573812644894"><ele>82.0</ele><time>2026-04-18T11:57:31Z</time></trkpt><trkpt lat="44.29785466566741" lon="11.643642013324817"><ele>82.0</ele><time>2026-04-18T11:57:32Z</time></trkpt><trkpt lat="44.29795133838563" lon="11.643690411387157"><ele>82.0</ele><time>2026-04-18T11:57:33Z</time></trkpt><trkpt lat="44.29805020778044" lon="11.643704847775144"><ele>79.6</ele><time>2026-04-18T11:57:34Z</time></trkpt><trkpt lat="44.298150675558865" lon="11.643661154393993"><ele>77.19999999999999</ele><time>2026-04-18T11:57:35Z</time></trkpt><trkpt lat="44.29823289814213" lon="11.6435609276768"><ele>74.8</ele><time>2026-04-18T11:57:36Z</time></trkpt><trkpt lat="44.29829740398366" lon="11.643448814642937"><ele>72.4</ele><time>2026-04-18T11:57:37Z</time></trkpt><trkpt lat="44.298361762085364" lon="11.643335566906448"><ele>70.0</ele><time>2026-04-18T11:57:38Z</time></trkpt><trkpt lat="44.29843668338071" lon="11.643246653419183"><ele>69.2</ele><time>2026-04-18T11:57:39Z</time></trkpt><trkpt lat="44.298505946519306" lon="11.643140750740384"><ele>68.4</ele><time>2026-04-18T11:57:40Z</time></trkpt><trkpt lat="44.29857180483046" lon="11.643040054052307"><ele>67.6</ele><time>2026-04-18T11:57:41Z</time></trkpt><trkpt lat="44.29863253995226" lon="11.642947566577744"><ele>66.8</ele><time>2026-04-18T11:57:42Z</time></trkpt><trkpt lat="44.29869606259535" lon="11.642850867894648"><ele>66.0</ele><time>2026-04-18T11:57:43Z</time></trkpt><trkpt lat="44.298758733307906" lon="11.642756189664276"><ele>65.2</ele><time>2026-04-18T11:57:44Z</time></trkpt><trkpt lat="44.298820949171" lon="11.64266252802475"><ele>64.39999999999999</ele><time>2026-04-18T11:57:45Z</time></trkpt><trkpt lat="44.298884294753" lon="11.642567164862745"><ele>63.6</ele><time>2026-04-18T11:57:46Z</time></trkpt><trkpt lat="44.298945650272344" lon="11.642474798074977"><ele>62.8</ele><time>2026-04-18T11:57:47Z</time></trkpt><trkpt lat="44.29900599190054" lon="11.6423840605016"><ele>62.0</ele><time>2026-04-18T11:57:48Z</time></trkpt><trkpt lat="44.299067195740434" lon="11.642293131155082"><ele>62.00000000000001</ele><time>2026-04-18T11:57:49Z</time></trkpt><trkpt lat="44.299128009871275" lon="11.642201085644688"><ele>62.0</ele><time>2026-04-18T11:57:50Z</time></trkpt><trkpt lat="44.29918901662803" lon="11.642108396828517"><ele>62.0</ele><time>2026-04-18T11:57:51Z</time></trkpt><trkpt lat="44.29924909045603" lon="11.642016728072793"><ele>62.0</ele><time>2026-04-18T11:57:52Z</time></trkpt><trkpt lat="44.29930945621448" lon="11.641923727993314"><ele>62.00000000000001</ele><time>2026-04-18T11:57:53Z</time></trkpt><trkpt lat="44.29937049601266" lon="11.641829691377371"><ele>62.0</ele><time>2026-04-18T11:57:54.001Z</time></trkpt><trkpt lat="44.29942024204373" lon="11.641721196831577"><ele>62.8</ele><time>2026-04-18T11:57:55.001Z</time></trkpt><trkpt lat="44.2994822415532" lon="11.641621379015188"><ele>63.6</ele><time>2026-04-18T11:57:56.001Z</time></trkpt><trkpt lat="44.299554397449825" lon="11.641541488408405"><ele>64.39999999999999</ele><time>2026-04-18T11:57:57.001Z</time></trkpt><trkpt lat="44.29961732609966" lon="11.64144418221235"><ele>65.2</ele><time>2026-04-18T11:57:58.001Z</time></trkpt><trkpt lat="44.299680538625914" lon="11.641346783092821"><ele>66.0</ele><time>2026-04-18T11:57:59.001Z</time></trkpt><trkpt lat="44.299730850219795" lon="11.64123669132641"><ele>66.0</ele><time>2026-04-18T11:58:00.001Z</time></trkpt><trkpt lat="44.299796576934945" lon="11.641145133255387"><ele>66.0</ele><time>2026-04-18T11:58:01.001Z</time></trkpt><trkpt lat="44.29985808820045" lon="11.64104707644873"><ele>66.0</ele><time>2026-04-18T11:58:02.001Z</time></trkpt><trkpt lat="44.29991852072177" lon="11.640951046726183"><ele>66.0</ele><time>2026-04-18T11:58:03.001Z</time></trkpt><trkpt lat="44.29997828682742" lon="11.640854637793808"><ele>66.0</ele><time>2026-04-18T11:58:04.001Z</time></trkpt><trkpt lat="44.30004248858133" lon="11.640761366057305"><ele>66.16666666666667</ele><time>2026-04-18T11:58:05.001Z</time></trkpt><trkpt lat="44.30010500648134" lon="11.64066732700883"><ele>66.33333333333333</ele><time>2026-04-18T11:58:06.001Z</time></trkpt><trkpt lat="44.30016435781929" lon="11.64057519716207"><ele>66.5</ele><time>2026-04-18T11:58:07.001Z</time></trkpt><trkpt lat="44.30022314382594" lon="11.640479826997696"><ele>66.66666666666666</ele><time>2026-04-18T11:58:08.001Z</time></trkpt><trkpt lat="44.300281517733445" lon="11.640388862523672"><ele>66.83333333333333</ele><time>2026-04-18T11:58:09.001Z</time></trkpt><trkpt lat="44.30034587047975" lon="11.640299283989355"><ele>67.0</ele><time>2026-04-18T11:58:10.001Z</time></trkpt><trkpt lat="44.300406747645965" lon="11.640210984023842"><ele>67.0</ele><time>2026-04-18T11:58:11.001Z</time></trkpt><trkpt lat="44.300466559653565" lon="11.640116901480162"><ele>67.0</ele><time>2026-04-18T11:58:12.001Z</time></trkpt><trkpt lat="44.30052448377213" lon="11.640026903950277"><ele>67.0</ele><time>2026-04-18T11:58:13.001Z</time></trkpt><trkpt lat="44.30058195014277" lon="11.639934868404952"><ele>67.0</ele><time>2026-04-18T11:58:14.001Z</time></trkpt><trkpt lat="44.30063927262627" lon="11.63984630059587"><ele>67.0</ele><time>2026-04-18T11:58:15.001Z</time></trkpt><trkpt lat="44.30069690159996" lon="11.639759847989026"><ele>67.0</ele><time>2026-04-18T11:58:16.001Z</time></trkpt><trkpt lat="44.30075570326843" lon="11.639669177302522"><ele>67.0</ele><time>2026-04-18T11:58:17.001Z</time></trkpt><trkpt lat="44.30081320655733" lon="11.639583182851496"><ele>67.0</ele><time>2026-04-18T11:58:18.001Z</time></trkpt><trkpt lat="44.300868524964294" lon="11.63949674741583"><ele>67.0</ele><time>2026-04-18T11:58:19.001Z</time></trkpt><trkpt lat="44.3009246895374" lon="11.639411037212598"><ele>67.0</ele><time>2026-04-18T11:58:20.001Z</time></trkpt><trkpt lat="44.30098221357048" lon="11.639325924057989"><ele>67.0</ele><time>2026-04-18T11:58:21.001Z</time></trkpt><trkpt lat="44.30103792860125" lon="11.639235621990625"><ele>67.0</ele><time>2026-04-18T11:58:22.001Z</time></trkpt><trkpt lat="44.30109331164419" lon="11.639148128724015"><ele>66.83333333333333</ele><time>2026-04-18T11:58:23.001Z</time></trkpt><trkpt lat="44.30114999738375" lon="11.639062566989464"><ele>66.66666666666666</ele><time>2026-04-18T11:58:24.001Z</time></trkpt><trkpt lat="44.30120485038515" lon="11.6389756046887"><ele>66.5</ele><time>2026-04-18T11:58:25.001Z</time></trkpt><trkpt lat="44.30126165784986" lon="11.638887463898342"><ele>66.33333333333333</ele><time>2026-04-18T11:58:26.001Z</time></trkpt><trkpt lat="44.30132802412797" lon="11.638819017725904"><ele>66.16666666666667</ele><time>2026-04-18T11:58:27.001Z</time></trkpt><trkpt lat="44.30138563830345" lon="11.638731274541025"><ele>66.0</ele><time>2026-04-18T11:58:28.001Z</time></trkpt><trkpt lat="44.30144269121575" lon="11.63864438620703"><ele>66.0</ele><time>2026-04-18T11:58:29.001Z</time></trkpt><trkpt lat="44.301497610582366" lon="11.638560747122474"><ele>66.0</ele><time>2026-04-18T11:58:30.001Z</time></trkpt><trkpt lat="44.30155435615006" lon="11.638474326836048"><ele>66.0</ele><time>2026-04-18T11:58:31.001Z</time></trkpt><trkpt lat="44.30160539809847" lon="11.638396592921229"><ele>66.0</ele><time>2026-04-18T11:58:32.001Z</time></trkpt><trkpt lat="44.301660080500234" lon="11.63831331463489"><ele>66.0</ele><time>2026-04-18T11:58:33.001Z</time></trkpt><trkpt lat="44.301709724506125" lon="11.63821252569422"><ele>66.0</ele><time>2026-04-18T11:58:34.001Z</time></trkpt><trkpt lat="44.301766241470396" lon="11.638130888463174"><ele>66.0</ele><time>2026-04-18T11:58:35.001Z</time></trkpt><trkpt lat="44.30182021193089" lon="11.638043785561813"><ele>66.0</ele><time>2026-04-18T11:58:36.001Z</time></trkpt><trkpt lat="44.30187454357235" lon="11.637959007326707"><ele>66.0</ele><time>2026-04-18T11:58:37.001Z</time></trkpt><trkpt lat="44.30193053700688" lon="11.63787288617775"><ele>66.0</ele><time>2026-04-18T11:58:38.001Z</time></trkpt><trkpt lat="44.30198530224966" lon="11.637789870926158"><ele>66.0</ele><time>2026-04-18T11:58:39.001Z</time></trkpt><trkpt lat="44.302045398161816" lon="11.637705055456511"><ele>66.0</ele><time>2026-04-18T11:58:40.001Z</time></trkpt><trkpt lat="44.30209763168364" lon="11.63761656926435"><ele>66.16666666666667</ele><time>2026-04-18T11:58:41.001Z</time></trkpt><trkpt lat="44.30215212756913" lon="11.637530480132419"><ele>66.33333333333333</ele><time>2026-04-18T11:58:42.001Z</time></trkpt><trkpt lat="44.3022063269478" lon="11.637446345122337"><ele>66.5</ele><time>2026-04-18T11:58:43.001Z</time></trkpt><trkpt lat="44.30226037364256" lon="11.63736254735714"><ele>66.66666666666666</ele><time>2026-04-18T11:58:44.001Z</time></trkpt><trkpt lat="44.30232077952775" lon="11.63728209186515"><ele>66.83333333333333</ele><time>2026-04-18T11:58:45.001Z</time></trkpt><trkpt lat="44.30237072432715" lon="11.637197679028818"><ele>67.0</ele><time>2026-04-18T11:58:46.001Z</time></trkpt><trkpt lat="44.30242615247554" lon="11.637116061224209"><ele>67.16666666666666</ele><time>2026-04-18T11:58:47.001Z</time></trkpt><trkpt lat="44.302484966653104" lon="11.63703757785587"><ele>67.33333333333333</ele><time>2026-04-18T11:58:48.001Z</time></trkpt><trkpt lat="44.30253895561432" lon="11.636962565657251"><ele>67.5</ele><time>2026-04-18T11:58:49.001Z</time></trkpt><trkpt lat="44.3025916929526" lon="11.63688837290804"><ele>67.66666666666667</ele><time>2026-04-18T11:58:50.001Z</time></trkpt><trkpt lat="44.302643887148264" lon="11.636814733337946"><ele>67.83333333333334</ele><time>2026-04-18T11:58:51.001Z</time></trkpt><trkpt lat="44.30269511238179" lon="11.636743339778297"><ele>68.0</ele><time>2026-04-18T11:58:52.001Z</time></trkpt><trkpt lat="44.302750162010916" lon="11.63666930838413"><ele>68.42857142857142</ele><time>2026-04-18T11:58:53.001Z</time></trkpt><trkpt lat="44.30280231411493" lon="11.636594541183111"><ele>68.85714285714286</ele><time>2026-04-18T11:58:54.001Z</time></trkpt><trkpt lat="44.30285681767243" lon="11.636521197469948"><ele>69.28571428571428</ele><time>2026-04-18T11:58:55.001Z</time></trkpt><trkpt lat="44.302910315551706" lon="11.636452784999438"><ele>69.71428571428571</ele><time>2026-04-18T11:58:56.001Z</time></trkpt><trkpt lat="44.3029626021215" lon="11.636380781663615"><ele>70.14285714285714</ele><time>2026-04-18T11:58:57.001Z</time></trkpt><trkpt lat="44.303010803501344" lon="11.636313946527691"><ele>70.57142857142857</ele><time>2026-04-18T11:58:58.001Z</time></trkpt><trkpt lat="44.30306037204381" lon="11.636243469870244"><ele>71.0</ele><time>2026-04-18T11:58:59.001Z</time></trkpt><trkpt lat="44.30310586250338" lon="11.636165732688323"><ele>71.71428571428571</ele><time>2026-04-18T11:59:00.001Z</time></trkpt><trkpt lat="44.30316577161521" lon="11.636111071105198"><ele>72.42857142857142</ele><time>2026-04-18T11:59:01.001Z</time></trkpt><trkpt lat="44.30320718719017" lon="11.636024168848804"><ele>73.14285714285714</ele><time>2026-04-18T11:59:02.001Z</time></trkpt><trkpt lat="44.303257941851385" lon="11.635957247785868"><ele>73.85714285714286</ele><time>2026-04-18T11:59:03.001Z</time></trkpt><trkpt lat="44.303316276941125" lon="11.635899082749358"><ele>74.57142857142858</ele><time>2026-04-18T11:59:04.001Z</time></trkpt><trkpt lat="44.303360581955936" lon="11.635831888443617"><ele>75.28571428571428</ele><time>2026-04-18T11:59:05.001Z</time></trkpt><trkpt lat="44.30339894845537" lon="11.63575806690303"><ele>76.0</ele><time>2026-04-18T11:59:06.001Z</time></trkpt><trkpt lat="44.30352584888491" lon="11.63579358869247"><ele>76.0</ele><time>2026-04-18T11:59:08.001Z</time></trkpt><trkpt lat="44.303586265967205" lon="11.635821212145732"><ele>76.0</ele><time>2026-04-18T11:59:09.001Z</time></trkpt><trkpt lat="44.303646868594164" lon="11.63584657852556"><ele>76.0</ele><time>2026-04-18T11:59:10.001Z</time></trkpt><trkpt lat="44.30370982196163" lon="11.635863490860594"><ele>76.0</ele><time>2026-04-18T11:59:11.001Z</time></trkpt><trkpt lat="44.30377392099283" lon="11.63588567363789"><ele>76.0</ele><time>2026-04-18T11:59:12.001Z</time></trkpt><trkpt lat="44.303837094736416" lon="11.635913171823757"><ele>76.0</ele><time>2026-04-18T11:59:13Z</time></trkpt><trkpt lat="44.30389725064831" lon="11.635945049864953"><ele>76.0</ele><time>2026-04-18T11:59:14Z</time></trkpt><trkpt lat="44.303960999409085" lon="11.635977033132017"><ele>76.0</ele><time>2026-04-18T11:59:15Z</time></trkpt><trkpt lat="44.30402510306798" lon="11.636013901949804"><ele>76.0</ele><time>2026-04-18T11:59:16Z</time></trkpt><trkpt lat="44.30408343855743" lon="11.636056481599995"><ele>76.0</ele><time>2026-04-18T11:59:17Z</time></trkpt><trkpt lat="44.30414053810238" lon="11.63610776138897"><ele>76.0</ele><time>2026-04-18T11:59:18Z</time></trkpt><trkpt lat="44.30419705547554" lon="11.636163386945121"><ele>76.0</ele><time>2026-04-18T11:59:19Z</time></trkpt><trkpt lat="44.30425261511045" lon="11.636220355634723"><ele>76.0</ele><time>2026-04-18T11:59:20Z</time></trkpt><trkpt lat="44.304307301648" lon="11.636278378781187"><ele>76.0</ele><time>2026-04-18T11:59:21Z</time></trkpt><trkpt lat="44.304361888844916" lon="11.636341333948014"><ele>76.0</ele><time>2026-04-18T11:59:22Z</time></trkpt><trkpt lat="44.30441540075301" lon="11.636404783261202"><ele>76.0</ele><time>2026-04-18T11:59:23Z</time></trkpt><trkpt lat="44.30446583152448" lon="11.636467309558876"><ele>76.0</ele><time>2026-04-18T11:59:24Z</time></trkpt><trkpt lat="44.30452121544702" lon="11.636532964831462"><ele>76.0</ele><time>2026-04-18T11:59:25Z</time></trkpt><trkpt lat="44.304574891636065" lon="11.636599510904874"><ele>76.0</ele><time>2026-04-18T11:59:26Z</time></trkpt><trkpt lat="44.304628443391536" lon="11.636669611869431"><ele>76.0</ele><time>2026-04-18T11:59:27Z</time></trkpt><trkpt lat="44.304680060232755" lon="11.636738046948253"><ele>76.0</ele><time>2026-04-18T11:59:28Z</time></trkpt><trkpt lat="44.30473615944125" lon="11.636807023501097"><ele>76.0</ele><time>2026-04-18T11:59:29Z</time></trkpt><trkpt lat="44.30479055761609" lon="11.636874363896995"><ele>76.0</ele><time>2026-04-18T11:59:30Z</time></trkpt><trkpt lat="44.30484526769426" lon="11.636943833292019"><ele>76.0</ele><time>2026-04-18T11:59:31Z</time></trkpt><trkpt lat="44.30490028812054" lon="11.637012134349662"><ele>76.0</ele><time>2026-04-18T11:59:32Z</time></trkpt><trkpt lat="44.30495430353117" lon="11.637079997509312"><ele>76.0</ele><time>2026-04-18T11:59:33Z</time></trkpt><trkpt lat="44.30500793478191" lon="11.6371481805704"><ele>76.0</ele><time>2026-04-18T11:59:34Z</time></trkpt><trkpt lat="44.30506077755643" lon="11.63721675595741"><ele>76.0</ele><time>2026-04-18T11:59:35Z</time></trkpt><trkpt lat="44.30511380291453" lon="11.637286481216156"><ele>75.85714285714285</ele><time>2026-04-18T11:59:36Z</time></trkpt><trkpt lat="44.305164930957154" lon="11.63735655796364"><ele>75.71428571428572</ele><time>2026-04-18T11:59:37Z</time></trkpt><trkpt lat="44.305217809206304" lon="11.637425023110831"><ele>75.57142857142857</ele><time>2026-04-18T11:59:38Z</time></trkpt><trkpt lat="44.30527379812607" lon="11.63749215115251"><ele>75.42857142857142</ele><time>2026-04-18T11:59:39Z</time></trkpt><trkpt lat="44.305327756067925" lon="11.63756027415993"><ele>75.28571428571428</ele><time>2026-04-18T11:59:40Z</time></trkpt><trkpt lat="44.305385127556626" lon="11.637623987903458"><ele>75.14285714285714</ele><time>2026-04-18T11:59:41Z</time></trkpt><trkpt lat="44.305446407133815" lon="11.6376869193662"><ele>75.0</ele><time>2026-04-18T11:59:42Z</time></trkpt><trkpt lat="44.30550999494034" lon="11.637745486120933"><ele>75.0</ele><time>2026-04-18T11:59:43Z</time></trkpt><trkpt lat="44.305578662902334" lon="11.637799957275053"><ele>75.0</ele><time>2026-04-18T11:59:44Z</time></trkpt><trkpt lat="44.30564771456802" lon="11.637850382636856"><ele>75.0</ele><time>2026-04-18T11:59:45Z</time></trkpt><trkpt lat="44.30571541094092" lon="11.637898528298901"><ele>75.0</ele><time>2026-04-18T11:59:46Z</time></trkpt><trkpt lat="44.30578877976711" lon="11.63793462559212"><ele>75.0</ele><time>2026-04-18T11:59:47Z</time></trkpt><trkpt lat="44.30586194459612" lon="11.63797398323294"><ele>75.0</ele><time>2026-04-18T11:59:48Z</time></trkpt><trkpt lat="44.305934300337775" lon="11.638015157988976"><ele>75.16666666666667</ele><time>2026-04-18T11:59:49Z</time></trkpt><trkpt lat="44.30600916879442" lon="11.63805697640601"><ele>75.33333333333333</ele><time>2026-04-18T11:59:50Z</time></trkpt><trkpt lat="44.306083229198315" lon="11.638097249328236"><ele>75.5</ele><time>2026-04-18T11:59:51Z</time></trkpt><trkpt lat="44.306155056249075" lon="11.63813544637851"><ele>75.66666666666666</ele><time>2026-04-18T11:59:52Z</time></trkpt><trkpt lat="44.30622572632604" lon="11.638175803831246"><ele>75.83333333333333</ele><time>2026-04-18T11:59:53Z</time></trkpt><trkpt lat="44.30630034495686" lon="11.638215562176807"><ele>76.0</ele><time>2026-04-18T11:59:54Z</time></trkpt><trkpt lat="44.30637313300354" lon="11.638256815716526"><ele>75.5</ele><time>2026-04-18T11:59:55Z</time></trkpt><trkpt lat="44.306446911628896" lon="11.638297208747598"><ele>75.0</ele><time>2026-04-18T11:59:56Z</time></trkpt><trkpt lat="44.30652249371468" lon="11.638335517508237"><ele>74.5</ele><time>2026-04-18T11:59:57Z</time></trkpt><trkpt lat="44.306600371944356" lon="11.63837534772151"><ele>74.0</ele><time>2026-04-18T11:59:58Z</time></trkpt><trkpt lat="44.306676031332806" lon="11.638417297915323"><ele>73.5</ele><time>2026-04-18T11:59:59Z</time></trkpt><trkpt lat="44.30675323941481" lon="11.638459985322593"><ele>73.0</ele><time>2026-04-18T12:00:00Z</time></trkpt><trkpt lat="44.30683080908954" lon="11.638503449192502"><ele>73.0</ele><time>2026-04-18T12:00:01Z</time></trkpt><trkpt lat="44.30690807790847" lon="11.63854590523154"><ele>73.0</ele><time>2026-04-18T12:00:02Z</time></trkpt><trkpt lat="44.30698453281327" lon="11.638587342312578"><ele>73.0</ele><time>2026-04-18T12:00:03Z</time></trkpt><trkpt lat="44.30706181881129" lon="11.638630755081833"><ele>73.0</ele><time>2026-04-18T12:00:04Z</time></trkpt><trkpt lat="44.30713975431942" lon="11.638668060004262"><ele>73.0</ele><time>2026-04-18T12:00:05Z</time></trkpt><trkpt lat="44.30721639644045" lon="11.638708081849062"><ele>73.0</ele><time>2026-04-18T12:00:06Z</time></trkpt><trkpt lat="44.30729272854261" lon="11.638749770718933"><ele>72.83333333333333</ele><time>2026-04-18T12:00:07Z</time></trkpt><trkpt lat="44.307366724044115" lon="11.638798406850196"><ele>72.66666666666666</ele><time>2026-04-18T12:00:08Z</time></trkpt><trkpt lat="44.307440586504924" lon="11.63884804244668"><ele>72.5</ele><time>2026-04-18T12:00:09Z</time></trkpt><trkpt lat="44.307514147965605" lon="11.63890067589989"><ele>72.33333333333333</ele><time>2026-04-18T12:00:10Z</time></trkpt><trkpt lat="44.30758869948285" lon="11.638954701870496"><ele>72.16666666666667</ele><time>2026-04-18T12:00:11Z</time></trkpt><trkpt lat="44.307662322130426" lon="11.63901479106403"><ele>72.0</ele><time>2026-04-18T12:00:12Z</time></trkpt><trkpt lat="44.30773343039563" lon="11.639080958595962"><ele>72.0</ele><time>2026-04-18T12:00:13Z</time></trkpt><trkpt lat="44.30780378128651" lon="11.639148695094521"><ele>72.0</ele><time>2026-04-18T12:00:14Z</time></trkpt><trkpt lat="44.307876363528194" lon="11.639213093903164"><ele>72.0</ele><time>2026-04-18T12:00:15Z</time></trkpt><trkpt lat="44.307946190828964" lon="11.63927530658734"><ele>72.0</ele><time>2026-04-18T12:00:16Z</time></trkpt><trkpt lat="44.308016175932764" lon="11.639339003921865"><ele>72.0</ele><time>2026-04-18T12:00:17Z</time></trkpt><trkpt lat="44.30808354694146" lon="11.639401697428081"><ele>72.0</ele><time>2026-04-18T12:00:18Z</time></trkpt><trkpt lat="44.30815363229961" lon="11.639468556905296"><ele>71.66666666666667</ele><time>2026-04-18T12:00:19Z</time></trkpt><trkpt lat="44.30822068914516" lon="11.639532577985358"><ele>71.33333333333333</ele><time>2026-04-18T12:00:20Z</time></trkpt><trkpt lat="44.30828969996804" lon="11.639597550963856"><ele>71.0</ele><time>2026-04-18T12:00:21Z</time></trkpt><trkpt lat="44.30836098459171" lon="11.639662105394008"><ele>70.66666666666666</ele><time>2026-04-18T12:00:22Z</time></trkpt><trkpt lat="44.30843044218657" lon="11.639734517882728"><ele>70.33333333333333</ele><time>2026-04-18T12:00:23Z</time></trkpt><trkpt lat="44.30849623020606" lon="11.639807003972846"><ele>70.0</ele><time>2026-04-18T12:00:24Z</time></trkpt><trkpt lat="44.308563844020426" lon="11.63987970976908"><ele>70.0</ele><time>2026-04-18T12:00:25Z</time></trkpt><trkpt lat="44.308627629322764" lon="11.639958977692757"><ele>70.0</ele><time>2026-04-18T12:00:26Z</time></trkpt><trkpt lat="44.30869117666964" lon="11.640040139641432"><ele>70.0</ele><time>2026-04-18T12:00:27Z</time></trkpt><trkpt lat="44.30875448087866" lon="11.640118590556492"><ele>70.0</ele><time>2026-04-18T12:00:28Z</time></trkpt><trkpt lat="44.30881822013408" lon="11.640203815937017"><ele>70.0</ele><time>2026-04-18T12:00:29Z</time></trkpt><trkpt lat="44.30887751642811" lon="11.64028124791638"><ele>70.0</ele><time>2026-04-18T12:00:30Z</time></trkpt><trkpt lat="44.30893576224916" lon="11.64036571807703"><ele>70.33333333333333</ele><time>2026-04-18T12:00:31Z</time></trkpt><trkpt lat="44.30899260730566" lon="11.64045483748249"><ele>70.66666666666666</ele><time>2026-04-18T12:00:32Z</time></trkpt><trkpt lat="44.309047963901754" lon="11.64054579236644"><ele>71.0</ele><time>2026-04-18T12:00:33Z</time></trkpt><trkpt lat="44.309098004200315" lon="11.640637782270751"><ele>71.33333333333333</ele><time>2026-04-18T12:00:34Z</time></trkpt><trkpt lat="44.30915164690742" lon="11.640729167832003"><ele>71.66666666666667</ele><time>2026-04-18T12:00:35Z</time></trkpt><trkpt lat="44.30920827149411" lon="11.640818025201618"><ele>72.0</ele><time>2026-04-18T12:00:36Z</time></trkpt><trkpt lat="44.30926484127005" lon="11.64090950963431"><ele>72.0</ele><time>2026-04-18T12:00:37.001Z</time></trkpt><trkpt lat="44.30932095118902" lon="11.641000993784505"><ele>72.0</ele><time>2026-04-18T12:00:38.001Z</time></trkpt><trkpt lat="44.30937829090352" lon="11.641094910420602"><ele>72.0</ele><time>2026-04-18T12:00:39.001Z</time></trkpt><trkpt lat="44.30943406987485" lon="11.641188591017167"><ele>72.0</ele><time>2026-04-18T12:00:40.001Z</time></trkpt><trkpt lat="44.30949172375046" lon="11.641285585239652"><ele>72.0</ele><time>2026-04-18T12:00:41.001Z</time></trkpt><trkpt lat="44.309550975954316" lon="11.641379566569832"><ele>72.0</ele><time>2026-04-18T12:00:42.001Z</time></trkpt><trkpt lat="44.309610230285564" lon="11.641474043504612"><ele>72.2</ele><time>2026-04-18T12:00:43.001Z</time></trkpt><trkpt lat="44.30967054885872" lon="11.64157339363406"><ele>72.4</ele><time>2026-04-18T12:00:44.001Z</time></trkpt><trkpt lat="44.309728102300284" lon="11.64167266906795"><ele>72.6</ele><time>2026-04-18T12:00:45.001Z</time></trkpt><trkpt lat="44.309783740641514" lon="11.641764252089194"><ele>72.8</ele><time>2026-04-18T12:00:46.001Z</time></trkpt><trkpt lat="44.30984380086885" lon="11.641860888295058"><ele>73.0</ele><time>2026-04-18T12:00:47.001Z</time></trkpt><trkpt lat="44.30990266918918" lon="11.64195595229246"><ele>72.5</ele><time>2026-04-18T12:00:48.001Z</time></trkpt><trkpt lat="44.30995914355743" lon="11.642048670864073"><ele>72.0</ele><time>2026-04-18T12:00:49.001Z</time></trkpt><trkpt lat="44.310017366494314" lon="11.642142292834569"><ele>71.5</ele><time>2026-04-18T12:00:50.001Z</time></trkpt><trkpt lat="44.31007214648006" lon="11.642231873314337"><ele>71.0</ele><time>2026-04-18T12:00:51.001Z</time></trkpt><trkpt lat="44.31012564905622" lon="11.642325521241194"><ele>70.5</ele><time>2026-04-18T12:00:52.001Z</time></trkpt><trkpt lat="44.31017916157113" lon="11.642414015032905"><ele>70.0</ele><time>2026-04-18T12:00:53.001Z</time></trkpt><trkpt lat="44.31023378374328" lon="11.642504837363335"><ele>70.0</ele><time>2026-04-18T12:00:54.001Z</time></trkpt><trkpt lat="44.310288842204876" lon="11.642594241029393"><ele>70.0</ele><time>2026-04-18T12:00:55.001Z</time></trkpt><trkpt lat="44.310344450542416" lon="11.642685356461769"><ele>70.0</ele><time>2026-04-18T12:00:56.001Z</time></trkpt><trkpt lat="44.31039839475209" lon="11.64277222064236"><ele>70.0</ele><time>2026-04-18T12:00:57.001Z</time></trkpt><trkpt lat="44.31045363921827" lon="11.64286117983134"><ele>70.0</ele><time>2026-04-18T12:00:58.001Z</time></trkpt><trkpt lat="44.310506669108364" lon="11.64294979764459"><ele>70.0</ele><time>2026-04-18T12:00:59.001Z</time></trkpt><trkpt lat="44.310560320465" lon="11.643039386269017"><ele>71.0</ele><time>2026-04-18T12:01:00.001Z</time></trkpt><trkpt lat="44.31061427115983" lon="11.643126647673599"><ele>72.0</ele><time>2026-04-18T12:01:01.001Z</time></trkpt><trkpt lat="44.31066983227584" lon="11.643214564281916"><ele>73.0</ele><time>2026-04-18T12:01:02.001Z</time></trkpt><trkpt lat="44.310724214275695" lon="11.643305681691842"><ele>74.0</ele><time>2026-04-18T12:01:03.001Z</time></trkpt><trkpt lat="44.310779384333266" lon="11.643393611927186"><ele>75.0</ele><time>2026-04-18T12:01:04.001Z</time></trkpt><trkpt lat="44.310830750529185" lon="11.64348423297284"><ele>76.0</ele><time>2026-04-18T12:01:05.001Z</time></trkpt><trkpt lat="44.31088476452328" lon="11.64356937796767"><ele>75.33333333333333</ele><time>2026-04-18T12:01:06.001Z</time></trkpt><trkpt lat="44.31094081914919" lon="11.643662916361292"><ele>74.66666666666666</ele><time>2026-04-18T12:01:07.001Z</time></trkpt><trkpt lat="44.31099853701753" lon="11.643749724082177"><ele>74.0</ele><time>2026-04-18T12:01:08.001Z</time></trkpt><trkpt lat="44.311052975549124" lon="11.643841001082283"><ele>73.33333333333333</ele><time>2026-04-18T12:01:09.001Z</time></trkpt><trkpt lat="44.31110543940898" lon="11.643930053238037"><ele>72.66666666666667</ele><time>2026-04-18T12:01:10.001Z</time></trkpt><trkpt lat="44.31115930839656" lon="11.644018118855442"><ele>72.0</ele><time>2026-04-18T12:01:11.001Z</time></trkpt><trkpt lat="44.31121365177867" lon="11.64410602368545"><ele>72.0</ele><time>2026-04-18T12:01:12.001Z</time></trkpt><trkpt lat="44.31126807176896" lon="11.644195686856374"><ele>72.0</ele><time>2026-04-18T12:01:13.001Z</time></trkpt><trkpt lat="44.31132070323192" lon="11.644282379707532"><ele>72.0</ele><time>2026-04-18T12:01:14.001Z</time></trkpt><trkpt lat="44.31137518925954" lon="11.644370493669914"><ele>72.0</ele><time>2026-04-18T12:01:15.001Z</time></trkpt><trkpt lat="44.311430690811704" lon="11.644458985541734"><ele>72.0</ele><time>2026-04-18T12:01:16.001Z</time></trkpt><trkpt lat="44.31148551177187" lon="11.644547743652412"><ele>72.0</ele><time>2026-04-18T12:01:17.001Z</time></trkpt><trkpt lat="44.31154038832107" lon="11.64463556853258"><ele>72.0</ele><time>2026-04-18T12:01:18.001Z</time></trkpt><trkpt lat="44.31159598822569" lon="11.644724787854356"><ele>72.0</ele><time>2026-04-18T12:01:19Z</time></trkpt><trkpt lat="44.311649580620355" lon="11.644813730298518"><ele>72.0</ele><time>2026-04-18T12:01:20Z</time></trkpt><trkpt lat="44.31170259821951" lon="11.644898632981864"><ele>72.0</ele><time>2026-04-18T12:01:21Z</time></trkpt><trkpt lat="44.31175896593353" lon="11.644985161938935"><ele>72.0</ele><time>2026-04-18T12:01:22Z</time></trkpt><trkpt lat="44.31181007821685" lon="11.645071063574346"><ele>72.0</ele><time>2026-04-18T12:01:23Z</time></trkpt><trkpt lat="44.311860628164155" lon="11.645158165533767"><ele>72.0</ele><time>2026-04-18T12:01:24Z</time></trkpt><trkpt lat="44.31191295916467" lon="11.6452478972444"><ele>72.0</ele><time>2026-04-18T12:01:25Z</time></trkpt><trkpt lat="44.31196496763078" lon="11.645335255169343"><ele>72.0</ele><time>2026-04-18T12:01:26Z</time></trkpt><trkpt lat="44.312016884910086" lon="11.645420825091508"><ele>72.0</ele><time>2026-04-18T12:01:27Z</time></trkpt><trkpt lat="44.31206749817404" lon="11.64550793900177"><ele>72.0</ele><time>2026-04-18T12:01:28Z</time></trkpt><trkpt lat="44.312123810787654" lon="11.6455956957842"><ele>72.0</ele><time>2026-04-18T12:01:29Z</time></trkpt><trkpt lat="44.31217729291516" lon="11.645681395449378"><ele>71.83333333333333</ele><time>2026-04-18T12:01:30Z</time></trkpt><trkpt lat="44.312230865627804" lon="11.64576730369419"><ele>71.66666666666667</ele><time>2026-04-18T12:01:31Z</time></trkpt><trkpt lat="44.31228479499685" lon="11.645851041680782"><ele>71.5</ele><time>2026-04-18T12:01:32Z</time></trkpt><trkpt lat="44.31233919806935" lon="11.645932848578067"><ele>71.33333333333334</ele><time>2026-04-18T12:01:33Z</time></trkpt><trkpt lat="44.31239375417687" lon="11.646018077265278"><ele>71.16666666666667</ele><time>2026-04-18T12:01:34Z</time></trkpt><trkpt lat="44.31243849170171" lon="11.64610953468509"><ele>71.0</ele><time>2026-04-18T12:01:35Z</time></trkpt><trkpt lat="44.31248551388188" lon="11.646198644492555"><ele>71.0</ele><time>2026-04-18T12:01:36Z</time></trkpt><trkpt lat="44.31253819039478" lon="11.646283844058395"><ele>71.0</ele><time>2026-04-18T12:01:37Z</time></trkpt><trkpt lat="44.31259174629761" lon="11.646367873543912"><ele>71.0</ele><time>2026-04-18T12:01:38Z</time></trkpt><trkpt lat="44.31264348821469" lon="11.646452753469378"><ele>71.0</ele><time>2026-04-18T12:01:39Z</time></trkpt><trkpt lat="44.31269508453698" lon="11.646538999634172"><ele>71.0</ele><time>2026-04-18T12:01:40Z</time></trkpt><trkpt lat="44.312745446211196" lon="11.646625925406818"><ele>71.0</ele><time>2026-04-18T12:01:41Z</time></trkpt><trkpt lat="44.312797044716184" lon="11.646712063266362"><ele>71.0</ele><time>2026-04-18T12:01:42Z</time></trkpt><trkpt lat="44.312851275244796" lon="11.646795387834917"><ele>71.0</ele><time>2026-04-18T12:01:43Z</time></trkpt><trkpt lat="44.31290548744201" lon="11.646875756307717"><ele>71.0</ele><time>2026-04-18T12:01:44Z</time></trkpt><trkpt lat="44.31296077654921" lon="11.646950571953305"><ele>71.0</ele><time>2026-04-18T12:01:45Z</time></trkpt><trkpt lat="44.31301991010436" lon="11.647018272571382"><ele>71.0</ele><time>2026-04-18T12:01:46Z</time></trkpt><trkpt lat="44.31307926522003" lon="11.647082085554466"><ele>71.0</ele><time>2026-04-18T12:01:47Z</time></trkpt><trkpt lat="44.31313958877995" lon="11.647145489492436"><ele>71.0</ele><time>2026-04-18T12:01:48Z</time></trkpt><trkpt lat="44.313201906910464" lon="11.647204750945681"><ele>71.0</ele><time>2026-04-18T12:01:49Z</time></trkpt><trkpt lat="44.31326621984385" lon="11.647262761727509"><ele>71.0</ele><time>2026-04-18T12:01:50Z</time></trkpt><trkpt lat="44.31333208871254" lon="11.647316722247421"><ele>71.0</ele><time>2026-04-18T12:01:51Z</time></trkpt><trkpt lat="44.313399255832614" lon="11.647369286308846"><ele>71.0</ele><time>2026-04-18T12:01:52Z</time></trkpt><trkpt lat="44.31346787576716" lon="11.64742196010572"><ele>71.0</ele><time>2026-04-18T12:01:53Z</time></trkpt><trkpt lat="44.31353602103226" lon="11.64747429917239"><ele>71.0</ele><time>2026-04-18T12:01:54Z</time></trkpt><trkpt lat="44.31360913155352" lon="11.64751909579817"><ele>71.0</ele><time>2026-04-18T12:01:55Z</time></trkpt><trkpt lat="44.31368253762016" lon="11.647571602160147"><ele>71.0</ele><time>2026-04-18T12:01:56Z</time></trkpt><trkpt lat="44.313751710209644" lon="11.64762904484412"><ele>71.0</ele><time>2026-04-18T12:01:57Z</time></trkpt><trkpt lat="44.31382038354451" lon="11.647677151628672"><ele>71.0</ele><time>2026-04-18T12:01:58Z</time></trkpt><trkpt lat="44.31388701472417" lon="11.64773172952992"><ele>71.0</ele><time>2026-04-18T12:01:59Z</time></trkpt><trkpt lat="44.31395950939808" lon="11.647783028278774"><ele>71.66666666666667</ele><time>2026-04-18T12:02:00Z</time></trkpt><trkpt lat="44.31402580460488" lon="11.647838825480289"><ele>72.33333333333334</ele><time>2026-04-18T12:02:01Z</time></trkpt><trkpt lat="44.314094651777104" lon="11.647889480293845"><ele>73.0</ele><time>2026-04-18T12:02:02Z</time></trkpt><trkpt lat="44.314163447525594" lon="11.647939807284418"><ele>73.66666666666667</ele><time>2026-04-18T12:02:03Z</time></trkpt><trkpt lat="44.31423429707965" lon="11.647993421026555"><ele>74.33333333333333</ele><time>2026-04-18T12:02:04Z</time></trkpt><trkpt lat="44.31430396601362" lon="11.648046145630275"><ele>75.0</ele><time>2026-04-18T12:02:05Z</time></trkpt><trkpt lat="44.31437218125688" lon="11.648095149977726"><ele>75.0</ele><time>2026-04-18T12:02:06Z</time></trkpt><trkpt lat="44.31444642558749" lon="11.648150972828917"><ele>75.0</ele><time>2026-04-18T12:02:07Z</time></trkpt><trkpt lat="44.31451342866761" lon="11.648206431370287"><ele>75.0</ele><time>2026-04-18T12:02:08Z</time></trkpt><trkpt lat="44.31458526239503" lon="11.64825656972057"><ele>75.0</ele><time>2026-04-18T12:02:09Z</time></trkpt><trkpt lat="44.31465508754416" lon="11.648308821179299"><ele>75.0</ele><time>2026-04-18T12:02:10Z</time></trkpt><trkpt lat="44.314724731007445" lon="11.6483601457083"><ele>75.0</ele><time>2026-04-18T12:02:11Z</time></trkpt><trkpt lat="44.314798551905" lon="11.64841405354169"><ele>75.0</ele><time>2026-04-18T12:02:12Z</time></trkpt><trkpt lat="44.31486852617575" lon="11.64846842320878"><ele>75.0</ele><time>2026-04-18T12:02:13Z</time></trkpt><trkpt lat="44.31493690111299" lon="11.648519169700435"><ele>75.0</ele><time>2026-04-18T12:02:14Z</time></trkpt><trkpt lat="44.3150061343656" lon="11.648574049035403"><ele>75.0</ele><time>2026-04-18T12:02:15Z</time></trkpt><trkpt lat="44.31507568693433" lon="11.648625358468172"><ele>75.0</ele><time>2026-04-18T12:02:16Z</time></trkpt><trkpt lat="44.31514458442385" lon="11.648679408686606"><ele>75.0</ele><time>2026-04-18T12:02:17Z</time></trkpt><trkpt lat="44.31521422008987" lon="11.64873401735915"><ele>75.0</ele><time>2026-04-18T12:02:18Z</time></trkpt><trkpt lat="44.31528515465683" lon="11.648787837027834"><ele>75.0</ele><time>2026-04-18T12:02:19Z</time></trkpt><trkpt lat="44.315355213919126" lon="11.648842294298372"><ele>75.0</ele><time>2026-04-18T12:02:20Z</time></trkpt><trkpt lat="44.315425951820224" lon="11.648895828036046"><ele>75.0</ele><time>2026-04-18T12:02:21Z</time></trkpt><trkpt lat="44.31549289831815" lon="11.648947872019809"><ele>75.0</ele><time>2026-04-18T12:02:22Z</time></trkpt><trkpt lat="44.31556609477753" lon="11.648995659721237"><ele>75.0</ele><time>2026-04-18T12:02:23Z</time></trkpt><trkpt lat="44.31563919026084" lon="11.649045893892998"><ele>75.5</ele><time>2026-04-18T12:02:24Z</time></trkpt><trkpt lat="44.315706683057876" lon="11.649098039204487"><ele>76.0</ele><time>2026-04-18T12:02:25Z</time></trkpt><trkpt lat="44.31577556241432" lon="11.649160470760414"><ele>76.5</ele><time>2026-04-18T12:02:26Z</time></trkpt><trkpt lat="44.31584528704524" lon="11.64921149604666"><ele>77.0</ele><time>2026-04-18T12:02:27Z</time></trkpt><trkpt lat="44.31591696618286" lon="11.649267427782103"><ele>77.5</ele><time>2026-04-18T12:02:28Z</time></trkpt><trkpt lat="44.3159915058027" lon="11.64932108295721"><ele>78.0</ele><time>2026-04-18T12:02:29Z</time></trkpt><trkpt lat="44.31606482210163" lon="11.649372385096862"><ele>78.0</ele><time>2026-04-18T12:02:30Z</time></trkpt><trkpt lat="44.3161380297727" lon="11.64942868654752"><ele>78.0</ele><time>2026-04-18T12:02:31Z</time></trkpt><trkpt lat="44.31621431077373" lon="11.6494810020639"><ele>78.0</ele><time>2026-04-18T12:02:32Z</time></trkpt><trkpt lat="44.316288084129745" lon="11.649538436418707"><ele>78.0</ele><time>2026-04-18T12:02:33Z</time></trkpt><trkpt lat="44.316362895697445" lon="11.6495979285084"><ele>78.0</ele><time>2026-04-18T12:02:34Z</time></trkpt><trkpt lat="44.31644248495957" lon="11.649654280792575"><ele>78.0</ele><time>2026-04-18T12:02:35Z</time></trkpt><trkpt lat="44.31652346695519" lon="11.649713659059213"><ele>77.5</ele><time>2026-04-18T12:02:36Z</time></trkpt><trkpt lat="44.31659799774535" lon="11.649765932470329"><ele>77.0</ele><time>2026-04-18T12:02:37Z</time></trkpt><trkpt lat="44.31666953261302" lon="11.649827212461831"><ele>76.5</ele><time>2026-04-18T12:02:38Z</time></trkpt><trkpt lat="44.31674393406723" lon="11.649880377485974"><ele>76.0</ele><time>2026-04-18T12:02:39Z</time></trkpt><trkpt lat="44.316816634139464" lon="11.649928601649803"><ele>75.5</ele><time>2026-04-18T12:02:40Z</time></trkpt><trkpt lat="44.316887415699455" lon="11.649984849307296"><ele>75.0</ele><time>2026-04-18T12:02:41Z</time></trkpt><trkpt lat="44.31695541785689" lon="11.650036960512942"><ele>75.0</ele><time>2026-04-18T12:02:42Z</time></trkpt><trkpt lat="44.317020338821735" lon="11.650091848648225"><ele>75.0</ele><time>2026-04-18T12:02:43Z</time></trkpt><trkpt lat="44.317084315095165" lon="11.650137978748306"><ele>75.0</ele><time>2026-04-18T12:02:44Z</time></trkpt><trkpt lat="44.31715006428324" lon="11.650198264666008"><ele>75.0</ele><time>2026-04-18T12:02:45Z</time></trkpt><trkpt lat="44.31722048632108" lon="11.650260317941466"><ele>75.0</ele><time>2026-04-18T12:02:46Z</time></trkpt><trkpt lat="44.31728872023383" lon="11.650316890998935"><ele>75.0</ele><time>2026-04-18T12:02:47Z</time></trkpt><trkpt lat="44.31735269936894" lon="11.650373824097532"><ele>74.16666666666667</ele><time>2026-04-18T12:02:48Z</time></trkpt><trkpt lat="44.31742085944815" lon="11.650430817040045"><ele>73.33333333333333</ele><time>2026-04-18T12:02:49Z</time></trkpt><trkpt lat="44.3174912758951" lon="11.650486781167707"><ele>72.5</ele><time>2026-04-18T12:02:50Z</time></trkpt><trkpt lat="44.31756168625546" lon="11.650543856396084"><ele>71.66666666666666</ele><time>2026-04-18T12:02:51Z</time></trkpt><trkpt lat="44.31763092898222" lon="11.650601945189143"><ele>70.83333333333333</ele><time>2026-04-18T12:02:52Z</time></trkpt><trkpt lat="44.31769768043542" lon="11.650656652135595"><ele>70.0</ele><time>2026-04-18T12:02:53Z</time></trkpt><trkpt lat="44.31777021276256" lon="11.65071254273513"><ele>70.0</ele><time>2026-04-18T12:02:54Z</time></trkpt><trkpt lat="44.317841389182064" lon="11.650764485667299"><ele>70.0</ele><time>2026-04-18T12:02:55Z</time></trkpt><trkpt lat="44.3179127106284" lon="11.650814718246346"><ele>70.0</ele><time>2026-04-18T12:02:56Z</time></trkpt><trkpt lat="44.317981008163" lon="11.650870045535191"><ele>70.0</ele><time>2026-04-18T12:02:57Z</time></trkpt><trkpt lat="44.318049318821" lon="11.650922929020021"><ele>70.0</ele><time>2026-04-18T12:02:58Z</time></trkpt><trkpt lat="44.31812014355535" lon="11.650977032444507"><ele>70.0</ele><time>2026-04-18T12:02:59Z</time></trkpt><trkpt lat="44.318189928534665" lon="11.651027289802887"><ele>70.5</ele><time>2026-04-18T12:03:00Z</time></trkpt><trkpt lat="44.318261242534355" lon="11.65107980209715"><ele>71.0</ele><time>2026-04-18T12:03:01Z</time></trkpt><trkpt lat="44.31833075521976" lon="11.651131170665884"><ele>71.5</ele><time>2026-04-18T12:03:02Z</time></trkpt><trkpt lat="44.31839738144317" lon="11.651179734653248"><ele>72.0</ele><time>2026-04-18T12:03:03Z</time></trkpt><trkpt lat="44.31846552920782" lon="11.651227125018822"><ele>72.5</ele><time>2026-04-18T12:03:04Z</time></trkpt><trkpt lat="44.318531788000996" lon="11.651276171295056"><ele>73.0</ele><time>2026-04-18T12:03:05Z</time></trkpt><trkpt lat="44.31859723672375" lon="11.651321818641446"><ele>73.28571428571428</ele><time>2026-04-18T12:03:06Z</time></trkpt><trkpt lat="44.31866048045061" lon="11.65136872356402"><ele>73.57142857142857</ele><time>2026-04-18T12:03:07.001Z</time></trkpt><trkpt lat="44.31872119464368" lon="11.651415198229843"><ele>73.85714285714286</ele><time>2026-04-18T12:03:08.001Z</time></trkpt><trkpt lat="44.31878142996725" lon="11.651465645737762"><ele>74.14285714285714</ele><time>2026-04-18T12:03:09.001Z</time></trkpt><trkpt lat="44.31884178588331" lon="11.651508926047454"><ele>74.42857142857143</ele><time>2026-04-18T12:03:10.001Z</time></trkpt><trkpt lat="44.31890248503114" lon="11.651556423245049"><ele>74.71428571428571</ele><time>2026-04-18T12:03:11.001Z</time></trkpt><trkpt lat="44.318964262980536" lon="11.65159922325489"><ele>75.0</ele><time>2026-04-18T12:03:12.001Z</time></trkpt><trkpt lat="44.31902340372749" lon="11.651644827595373"><ele>75.33333333333333</ele><time>2026-04-18T12:03:13.001Z</time></trkpt><trkpt lat="44.319080122498036" lon="11.651690682326006"><ele>75.66666666666667</ele><time>2026-04-18T12:03:14.001Z</time></trkpt><trkpt lat="44.319143732669104" lon="11.651735211657735"><ele>76.0</ele><time>2026-04-18T12:03:15.001Z</time></trkpt><trkpt lat="44.319204104272806" lon="11.651780715645232"><ele>76.33333333333334</ele><time>2026-04-18T12:03:16.001Z</time></trkpt><trkpt lat="44.31926540230583" lon="11.651828672608826"><ele>76.66666666666667</ele><time>2026-04-18T12:03:17.001Z</time></trkpt><trkpt lat="44.31938104377174" lon="11.651922050272049"><ele>77.0</ele><time>2026-04-18T12:03:19.001Z</time></trkpt><trkpt lat="44.31944312896013" lon="11.651971403648897"><ele>77.0</ele><time>2026-04-18T12:03:20.001Z</time></trkpt><trkpt lat="44.31950580573488" lon="11.652020361177252"><ele>77.0</ele><time>2026-04-18T12:03:21.001Z</time></trkpt><trkpt lat="44.31956842619786" lon="11.652069696601059"><ele>77.0</ele><time>2026-04-18T12:03:22.001Z</time></trkpt><trkpt lat="44.31962472857863" lon="11.652117903991945"><ele>77.0</ele><time>2026-04-18T12:03:23.001Z</time></trkpt><trkpt lat="44.319689378081286" lon="11.652157213370009"><ele>77.0</ele><time>2026-04-18T12:03:24.001Z</time></trkpt><trkpt lat="44.31975054701633" lon="11.652210703223188"><ele>77.0</ele><time>2026-04-18T12:03:25Z</time></trkpt><trkpt lat="44.319812676714136" lon="11.652260593904154"><ele>77.0</ele><time>2026-04-18T12:03:26Z</time></trkpt><trkpt lat="44.31987396877497" lon="11.652313235497267"><ele>77.5</ele><time>2026-04-18T12:03:27Z</time></trkpt><trkpt lat="44.31993618344354" lon="11.652360691587486"><ele>78.0</ele><time>2026-04-18T12:03:28Z</time></trkpt><trkpt lat="44.32000043140148" lon="11.65239567736201"><ele>78.5</ele><time>2026-04-18T12:03:29Z</time></trkpt><trkpt lat="44.32011690712944" lon="11.652503264642315"><ele>79.0</ele><time>2026-04-18T12:03:31Z</time></trkpt><trkpt lat="44.32017738929082" lon="11.652544209920043"><ele>79.5</ele><time>2026-04-18T12:03:32Z</time></trkpt><trkpt lat="44.320245127918945" lon="11.65258730313803"><ele>80.0</ele><time>2026-04-18T12:03:33Z</time></trkpt><trkpt lat="44.320306238561024" lon="11.652636615990016"><ele>80.0</ele><time>2026-04-18T12:03:34Z</time></trkpt><trkpt lat="44.32036563162636" lon="11.652685399735812"><ele>80.0</ele><time>2026-04-18T12:03:35Z</time></trkpt><trkpt lat="44.32042160149457" lon="11.652732303226665"><ele>80.0</ele><time>2026-04-18T12:03:36Z</time></trkpt><trkpt lat="44.320479913966004" lon="11.652775461047646"><ele>80.0</ele><time>2026-04-18T12:03:37Z</time></trkpt><trkpt lat="44.32053795629042" lon="11.652812390996607"><ele>80.0</ele><time>2026-04-18T12:03:38Z</time></trkpt><trkpt lat="44.32059622827941" lon="11.652857606768606"><ele>80.0</ele><time>2026-04-18T12:03:39Z</time></trkpt><trkpt lat="44.32065386772072" lon="11.652900218486808"><ele>80.0</ele><time>2026-04-18T12:03:40Z</time></trkpt><trkpt lat="44.32071053640628" lon="11.652941925207406"><ele>80.0</ele><time>2026-04-18T12:03:41Z</time></trkpt><trkpt lat="44.32076755822838" lon="11.652986725852594"><ele>80.0</ele><time>2026-04-18T12:03:42Z</time></trkpt><trkpt lat="44.32082640542873" lon="11.653033009125123"><ele>80.0</ele><time>2026-04-18T12:03:43Z</time></trkpt><trkpt lat="44.320883355681254" lon="11.653078395614704"><ele>80.0</ele><time>2026-04-18T12:03:44Z</time></trkpt><trkpt lat="44.32094043250602" lon="11.653126221736335"><ele>80.0</ele><time>2026-04-18T12:03:45Z</time></trkpt><trkpt lat="44.3209973523215" lon="11.653175324847473"><ele>80.0</ele><time>2026-04-18T12:03:46Z</time></trkpt><trkpt lat="44.32105472851473" lon="11.653223633783231"><ele>80.0</ele><time>2026-04-18T12:03:47Z</time></trkpt><trkpt lat="44.321104187429746" lon="11.653281015588567"><ele>80.0</ele><time>2026-04-18T12:03:48Z</time></trkpt><trkpt lat="44.3211659787934" lon="11.65332754828177"><ele>80.0</ele><time>2026-04-18T12:03:49Z</time></trkpt><trkpt lat="44.321222483033715" lon="11.653378327598542"><ele>80.0</ele><time>2026-04-18T12:03:50Z</time></trkpt><trkpt lat="44.32127363393304" lon="11.653431417679668"><ele>80.0</ele><time>2026-04-18T12:03:51Z</time></trkpt><trkpt lat="44.32133032997656" lon="11.653484524618802"><ele>80.0</ele><time>2026-04-18T12:03:52Z</time></trkpt><trkpt lat="44.321386497627685" lon="11.65354003027283"><ele>80.0</ele><time>2026-04-18T12:03:53Z</time></trkpt><trkpt lat="44.321442563437195" lon="11.653594224363456"><ele>80.0</ele><time>2026-04-18T12:03:54Z</time></trkpt><trkpt lat="44.32149880000892" lon="11.653650317463436"><ele>79.85714285714286</ele><time>2026-04-18T12:03:55Z</time></trkpt><trkpt lat="44.3215589127256" lon="11.653700980984691"><ele>79.71428571428572</ele><time>2026-04-18T12:03:56Z</time></trkpt><trkpt lat="44.3216150198078" lon="11.653754103693407"><ele>79.57142857142858</ele><time>2026-04-18T12:03:57Z</time></trkpt><trkpt lat="44.32167608388438" lon="11.653806019913644"><ele>79.42857142857143</ele><time>2026-04-18T12:03:58Z</time></trkpt><trkpt lat="44.32173369720051" lon="11.65385966900348"><ele>79.28571428571429</ele><time>2026-04-18T12:03:59Z</time></trkpt><trkpt lat="44.3217928288098" lon="11.653919722913688"><ele>79.14285714285715</ele><time>2026-04-18T12:04:00Z</time></trkpt><trkpt lat="44.32184741466611" lon="11.653979153641348"><ele>79.0</ele><time>2026-04-18T12:04:01Z</time></trkpt><trkpt lat="44.32195767500506" lon="11.654080605157409"><ele>79.00000000000001</ele><time>2026-04-18T12:04:03Z</time></trkpt><trkpt lat="44.32201309973747" lon="11.654135282729284"><ele>79.0</ele><time>2026-04-18T12:04:04Z</time></trkpt><trkpt lat="44.322062116548544" lon="11.654192651289755"><ele>79.0</ele><time>2026-04-18T12:04:05Z</time></trkpt><trkpt lat="44.322114808166106" lon="11.65425466301199"><ele>79.0</ele><time>2026-04-18T12:04:06Z</time></trkpt><trkpt lat="44.3221641737062" lon="11.654316243705807"><ele>79.0</ele><time>2026-04-18T12:04:07Z</time></trkpt><trkpt lat="44.32221663464959" lon="11.65438190431962"><ele>79.00000000000001</ele><time>2026-04-18T12:04:08Z</time></trkpt><trkpt lat="44.32225971981666" lon="11.65445356783647"><ele>79.0</ele><time>2026-04-18T12:04:09Z</time></trkpt><trkpt lat="44.3223111470305" lon="11.654524316066698"><ele>78.85714285714286</ele><time>2026-04-18T12:04:10Z</time></trkpt><trkpt lat="44.322366143914145" lon="11.654592239975798"><ele>78.71428571428572</ele><time>2026-04-18T12:04:11Z</time></trkpt><trkpt lat="44.32241579304705" lon="11.654664976146513"><ele>78.57142857142858</ele><time>2026-04-18T12:04:12Z</time></trkpt><trkpt lat="44.32246037568128" lon="11.654742184009352"><ele>78.42857142857143</ele><time>2026-04-18T12:04:13Z</time></trkpt><trkpt lat="44.32251120679229" lon="11.654814282389708"><ele>78.28571428571428</ele><time>2026-04-18T12:04:14Z</time></trkpt><trkpt lat="44.32256561766326" lon="11.654880364854918"><ele>78.14285714285715</ele><time>2026-04-18T12:04:15Z</time></trkpt><trkpt lat="44.32261630004266" lon="11.65495262076597"><ele>78.0</ele><time>2026-04-18T12:04:16Z</time></trkpt><trkpt lat="44.322666538989616" lon="11.65502784471745"><ele>78.0</ele><time>2026-04-18T12:04:17Z</time></trkpt><trkpt lat="44.3227119121427" lon="11.655097264118895"><ele>78.0</ele><time>2026-04-18T12:04:18Z</time></trkpt><trkpt lat="44.32275818713672" lon="11.655177080967764"><ele>78.0</ele><time>2026-04-18T12:04:19Z</time></trkpt><trkpt lat="44.32280018905269" lon="11.655252298731835"><ele>78.0</ele><time>2026-04-18T12:04:20Z</time></trkpt><trkpt lat="44.32283601307587" lon="11.655334984809208"><ele>78.0</ele><time>2026-04-18T12:04:21Z</time></trkpt><trkpt lat="44.322873480492284" lon="11.655412878074346"><ele>78.0</ele><time>2026-04-18T12:04:22Z</time></trkpt><trkpt lat="44.32290606563874" lon="11.655490999159898"><ele>78.0</ele><time>2026-04-18T12:04:23Z</time></trkpt><trkpt lat="44.32294695712568" lon="11.655568633876225"><ele>78.16666666666667</ele><time>2026-04-18T12:04:24Z</time></trkpt><trkpt lat="44.32298564875112" lon="11.655645283208562"><ele>78.33333333333333</ele><time>2026-04-18T12:04:25Z</time></trkpt><trkpt lat="44.32302263281127" lon="11.655720116237624"><ele>78.5</ele><time>2026-04-18T12:04:26Z</time></trkpt><trkpt lat="44.32308266219734" lon="11.655871961419447"><ele>78.66666666666666</ele><time>2026-04-18T12:04:28Z</time></trkpt><trkpt lat="44.32312409425342" lon="11.655950327953622"><ele>78.83333333333333</ele><time>2026-04-18T12:04:29Z</time></trkpt><trkpt lat="44.32316499870617" lon="11.656026979156106"><ele>79.0</ele><time>2026-04-18T12:04:30Z</time></trkpt><trkpt lat="44.32320303677208" lon="11.656103075322276"><ele>78.16666666666666</ele><time>2026-04-18T12:04:31Z</time></trkpt><trkpt lat="44.323235908455466" lon="11.656180356098156"><ele>77.33333333333333</ele><time>2026-04-18T12:04:32Z</time></trkpt><trkpt lat="44.323246552140795" lon="11.65633955838927"><ele>76.5</ele><time>2026-04-18T12:04:34Z</time></trkpt><trkpt lat="44.323215302890155" lon="11.656420407145125"><ele>75.66666666666667</ele><time>2026-04-18T12:04:35Z</time></trkpt><trkpt lat="44.32313874426929" lon="11.656509504394176"><ele>74.83333333333334</ele><time>2026-04-18T12:04:37Z</time></trkpt><trkpt lat="44.32319060066749" lon="11.656602896514373"><ele>74.0</ele><time>2026-04-18T12:04:41Z</time></trkpt><trkpt lat="44.323175026204176" lon="11.656510709330242"><ele>74.0</ele><time>2026-04-18T12:04:54Z</time></trkpt><trkpt lat="44.323122208322786" lon="11.656632777314282"><ele>74.0</ele><time>2026-04-18T12:05:43Z</time></trkpt><trkpt lat="44.32311606319991" lon="11.656533036631794"><ele>74.0</ele><time>2026-04-18T12:10:27Z</time></trkpt><trkpt lat="44.32309509882769" lon="11.656634792005834"><ele>74.0</ele><time>2026-04-18T12:43:06Z</time></trkpt><trkpt lat="44.32316750647618" lon="11.656663428645095"><ele>74.0</ele><time>2026-04-18T12:44:35Z</time></trkpt><trkpt lat="44.32313013529171" lon="11.656590792208664"><ele>74.0</ele><time>2026-04-18T12:44:40Z</time></trkpt><trkpt lat="44.32306663615015" lon="11.656595667036306"><ele>74.0</ele><time>2026-04-18T12:44:45Z</time></trkpt><trkpt lat="44.32318890437864" lon="11.65654955390839"><ele>74.0</ele><time>2026-04-18T12:45:12Z</time></trkpt><trkpt lat="44.32319288071015" lon="11.65664081862471"><ele>74.0</ele><time>2026-04-18T12:45:16Z</time></trkpt><trkpt lat="44.32318977563772" lon="11.656736567009666"><ele>74.0</ele><time>2026-04-18T12:45:19Z</time></trkpt><trkpt lat="44.3231838912406" lon="11.656831419394491"><ele>74.0</ele><time>2026-04-18T12:45:22Z</time></trkpt><trkpt lat="44.32318754925959" lon="11.6569386486977"><ele>74.0</ele><time>2026-04-18T12:45:25.001Z</time></trkpt><trkpt lat="44.32323756412874" lon="11.65702663157542"><ele>74.0</ele><time>2026-04-18T12:45:28.001Z</time></trkpt><trkpt lat="44.32328277340237" lon="11.657092579757593"><ele>74.0</ele><time>2026-04-18T12:45:32.001Z</time></trkpt><trkpt lat="44.32324361354818" lon="11.657006334395641"><ele>74.0</ele><time>2026-04-18T12:45:48.001Z</time></trkpt><trkpt lat="44.32319445467845" lon="11.656918877494101"><ele>74.0</ele><time>2026-04-18T12:45:52Z</time></trkpt><trkpt lat="44.323147353775894" lon="11.65701607604245"><ele>74.0</ele><time>2026-04-18T12:46:50Z</time></trkpt><trkpt lat="44.32320673973129" lon="11.657083193751475"><ele>74.0</ele><time>2026-04-18T12:46:54Z</time></trkpt><trkpt lat="44.32327064881357" lon="11.657143239486754"><ele>74.0</ele><time>2026-04-18T12:46:59Z</time></trkpt><trkpt lat="44.32335429134894" lon="11.657156156553112"><ele>74.0</ele><time>2026-04-18T12:52:19Z</time></trkpt><trkpt lat="44.32339941921107" lon="11.657222119899247"><ele>74.0</ele><time>2026-04-18T12:52:36Z</time></trkpt><trkpt lat="44.32335834621194" lon="11.657310597013879"><ele>74.0</ele><time>2026-04-18T12:52:44Z</time></trkpt><trkpt lat="44.32328937640904" lon="11.65736256731753"><ele>74.0</ele><time>2026-04-18T12:52:48Z</time></trkpt><trkpt lat="44.32323307851236" lon="11.657426636917743"><ele>74.0</ele><time>2026-04-18T12:52:52Z</time></trkpt><trkpt lat="44.323266085222265" lon="11.657345292166982"><ele>74.0</ele><time>2026-04-18T12:53:34Z</time></trkpt><trkpt lat="44.32331636041657" lon="11.657265183731848"><ele>74.0</ele><time>2026-04-18T12:53:38Z</time></trkpt><trkpt lat="44.32338291716888" lon="11.657194787839742"><ele>74.0</ele><time>2026-04-18T12:53:41Z</time></trkpt><trkpt lat="44.323461894116186" lon="11.65717560039886"><ele>74.0</ele><time>2026-04-18T12:53:44Z</time></trkpt><trkpt lat="44.3235241252249" lon="11.657139051844362"><ele>74.0</ele><time>2026-04-18T12:53:46.999Z</time></trkpt><trkpt lat="44.32350618798836" lon="11.657019201504498"><ele>74.0</ele><time>2026-04-18T12:53:49.999Z</time></trkpt><trkpt lat="44.32346468357558" lon="11.656941456068296"><ele>74.0</ele><time>2026-04-18T12:53:51.999Z</time></trkpt><trkpt lat="44.3234532431211" lon="11.656847354268272"><ele>74.0</ele><time>2026-04-18T12:53:53.999Z</time></trkpt><trkpt lat="44.323539581370476" lon="11.656827649449642"><ele>74.0</ele><time>2026-04-18T12:53:55.999Z</time></trkpt><trkpt lat="44.32357504234705" lon="11.656927155039382"><ele>74.0</ele><time>2026-04-18T12:53:57.999Z</time></trkpt><trkpt lat="44.32363460978037" lon="11.656970810119594"><ele>74.0</ele><time>2026-04-18T12:53:59.999Z</time></trkpt><trkpt lat="44.323678260513205" lon="11.657053523323126"><ele>74.0</ele><time>2026-04-18T12:54:01.999Z</time></trkpt><trkpt lat="44.3237299168681" lon="11.657138151433651"><ele>74.0</ele><time>2026-04-18T12:54:03.999Z</time></trkpt><trkpt lat="44.323783793652765" lon="11.657230959838687"><ele>74.0</ele><time>2026-04-18T12:54:05.999Z</time></trkpt><trkpt lat="44.32383894057606" lon="11.657335441856208"><ele>74.0</ele><time>2026-04-18T12:54:07.999Z</time></trkpt><trkpt lat="44.32389203708707" lon="11.657440764694444"><ele>74.0</ele><time>2026-04-18T12:54:09.999Z</time></trkpt><trkpt lat="44.3239521905268" lon="11.657549619975573"><ele>74.0</ele><time>2026-04-18T12:54:11.999Z</time></trkpt><trkpt lat="44.3240143892983" lon="11.657658079827657"><ele>74.0</ele><time>2026-04-18T12:54:13.999Z</time></trkpt><trkpt lat="44.324076095974576" lon="11.657779356553725"><ele>74.75</ele><time>2026-04-18T12:54:15.999Z</time></trkpt><trkpt lat="44.32413416106167" lon="11.657904825368512"><ele>75.5</ele><time>2026-04-18T12:54:17.999Z</time></trkpt><trkpt lat="44.32420063326169" lon="11.6580414206283"><ele>76.25</ele><time>2026-04-18T12:54:19.999Z</time></trkpt><trkpt lat="44.32425902896712" lon="11.658175906467775"><ele>77.0</ele><time>2026-04-18T12:54:21.999Z</time></trkpt><trkpt lat="44.32430818255702" lon="11.658317344055344"><ele>77.0</ele><time>2026-04-18T12:54:23.999Z</time></trkpt><trkpt lat="44.32435524549212" lon="11.658464725269422"><ele>77.0</ele><time>2026-04-18T12:54:25.999Z</time></trkpt><trkpt lat="44.32440000530387" lon="11.658615450728567"><ele>77.0</ele><time>2026-04-18T12:54:27.999Z</time></trkpt><trkpt lat="44.3244447595124" lon="11.658763409272963"><ele>77.0</ele><time>2026-04-18T12:54:29.999Z</time></trkpt><trkpt lat="44.324491731308434" lon="11.658912206742814"><ele>76.83333333333334</ele><time>2026-04-18T12:54:31.999Z</time></trkpt><trkpt lat="44.32453789437592" lon="11.659069946358558"><ele>76.66666666666667</ele><time>2026-04-18T12:54:33.999Z</time></trkpt><trkpt lat="44.32456118624915" lon="11.659152771149747"><ele>76.5</ele><time>2026-04-18T12:54:34.999Z</time></trkpt><trkpt lat="44.32458367202445" lon="11.659235845613303"><ele>76.33333333333333</ele><time>2026-04-18T12:54:35.999Z</time></trkpt><trkpt lat="44.324602230899224" lon="11.659323335539773"><ele>76.16666666666666</ele><time>2026-04-18T12:54:36.999Z</time></trkpt><trkpt lat="44.32462626028255" lon="11.659415870706"><ele>76.0</ele><time>2026-04-18T12:54:37.999Z</time></trkpt><trkpt lat="44.32465613625751" lon="11.6595055891664"><ele>76.0</ele><time>2026-04-18T12:54:38.999Z</time></trkpt><trkpt lat="44.324682201334994" lon="11.6595957105954"><ele>76.0</ele><time>2026-04-18T12:54:39.999Z</time></trkpt><trkpt lat="44.32471017047233" lon="11.659687425658335"><ele>76.0</ele><time>2026-04-18T12:54:40.999Z</time></trkpt><trkpt lat="44.324737368081585" lon="11.659781895570736"><ele>76.0</ele><time>2026-04-18T12:54:41.999Z</time></trkpt><trkpt lat="44.324765393501906" lon="11.659871280415109"><ele>76.0</ele><time>2026-04-18T12:54:42.999Z</time></trkpt><trkpt lat="44.324792704209536" lon="11.659963031691703"><ele>76.0</ele><time>2026-04-18T12:54:43.999Z</time></trkpt><trkpt lat="44.324818555199016" lon="11.660058300730606"><ele>76.0</ele><time>2026-04-18T12:54:44.999Z</time></trkpt><trkpt lat="44.32484647857168" lon="11.660153227134835"><ele>76.0</ele><time>2026-04-18T12:54:45.999Z</time></trkpt><trkpt lat="44.32487049077326" lon="11.660246300994402"><ele>76.0</ele><time>2026-04-18T12:54:46.999Z</time></trkpt><trkpt lat="44.324898999795415" lon="11.660339911750082"><ele>76.0</ele><time>2026-04-18T12:54:47.999Z</time></trkpt><trkpt lat="44.32492579501633" lon="11.660435957608486"><ele>76.0</ele><time>2026-04-18T12:54:48.999Z</time></trkpt><trkpt lat="44.324951295866754" lon="11.660532375692377"><ele>76.0</ele><time>2026-04-18T12:54:49.999Z</time></trkpt><trkpt lat="44.32497753838435" lon="11.660625488149792"><ele>76.0</ele><time>2026-04-18T12:54:50.999Z</time></trkpt><trkpt lat="44.32500572941408" lon="11.66071823521194"><ele>76.0</ele><time>2026-04-18T12:54:51.999Z</time></trkpt><trkpt lat="44.32503668041598" lon="11.6608132384007"><ele>75.42857142857143</ele><time>2026-04-18T12:54:52.999Z</time></trkpt><trkpt lat="44.32507056942542" lon="11.660905624673555"><ele>74.85714285714286</ele><time>2026-04-18T12:54:53.999Z</time></trkpt><trkpt lat="44.32510808552924" lon="11.660995071304217"><ele>74.28571428571429</ele><time>2026-04-18T12:54:54.999Z</time></trkpt><trkpt lat="44.325141588971526" lon="11.661094276640963"><ele>73.71428571428572</ele><time>2026-04-18T12:54:55.999Z</time></trkpt><trkpt lat="44.325182544808904" lon="11.661172978341446"><ele>73.14285714285714</ele><time>2026-04-18T12:54:56.999Z</time></trkpt><trkpt lat="44.325220439048316" lon="11.661259436846402"><ele>72.57142857142858</ele><time>2026-04-18T12:54:57.999Z</time></trkpt><trkpt lat="44.32526284172049" lon="11.661342347763876"><ele>72.0</ele><time>2026-04-18T12:54:58.999Z</time></trkpt><trkpt lat="44.32531010831823" lon="11.661414737800799"><ele>71.85714285714286</ele><time>2026-04-18T12:54:59.999Z</time></trkpt><trkpt lat="44.32535636313027" lon="11.661489508338606"><ele>71.71428571428572</ele><time>2026-04-18T12:55:00.999Z</time></trkpt><trkpt lat="44.325405754894646" lon="11.66156554031129"><ele>71.57142857142857</ele><time>2026-04-18T12:55:01.999Z</time></trkpt><trkpt lat="44.32545698842685" lon="11.661635561850394"><ele>71.42857142857143</ele><time>2026-04-18T12:55:02.999Z</time></trkpt><trkpt lat="44.32550622586885" lon="11.661704486476381"><ele>71.28571428571428</ele><time>2026-04-18T12:55:03.999Z</time></trkpt><trkpt lat="44.32555739279969" lon="11.661768584380024"><ele>71.14285714285714</ele><time>2026-04-18T12:55:04.999Z</time></trkpt><trkpt lat="44.32560792480369" lon="11.661832161103048"><ele>71.0</ele><time>2026-04-18T12:55:05.999Z</time></trkpt><trkpt lat="44.325655259920346" lon="11.661899360964169"><ele>71.16666666666667</ele><time>2026-04-18T12:55:06.999Z</time></trkpt><trkpt lat="44.325710985661836" lon="11.66195957883072"><ele>71.33333333333334</ele><time>2026-04-18T12:55:07.999Z</time></trkpt><trkpt lat="44.32576390023934" lon="11.662019786863448"><ele>71.5</ele><time>2026-04-18T12:55:08.999Z</time></trkpt><trkpt lat="44.32581646769226" lon="11.662082363126618"><ele>71.66666666666667</ele><time>2026-04-18T12:55:09.999Z</time></trkpt><trkpt lat="44.32591882069521" lon="11.662202563731306"><ele>71.83333333333333</ele><time>2026-04-18T12:55:11.999Z</time></trkpt><trkpt lat="44.32597170457685" lon="11.662263328844679"><ele>72.0</ele><time>2026-04-18T12:55:12.999Z</time></trkpt><trkpt lat="44.326024399717845" lon="11.66232153488719"><ele>72.00000000000001</ele><time>2026-04-18T12:55:13.999Z</time></trkpt><trkpt lat="44.326080659492376" lon="11.662382296020887"><ele>72.0</ele><time>2026-04-18T12:55:14.999Z</time></trkpt><trkpt lat="44.32613255780475" lon="11.662443268054023"><ele>72.0</ele><time>2026-04-18T12:55:15.999Z</time></trkpt><trkpt lat="44.326180424962324" lon="11.662504371166166"><ele>72.0</ele><time>2026-04-18T12:55:16.999Z</time></trkpt><trkpt lat="44.32622848427895" lon="11.662567902293622"><ele>72.0</ele><time>2026-04-18T12:55:17.999Z</time></trkpt><trkpt lat="44.326279907469946" lon="11.662632776121077"><ele>72.00000000000001</ele><time>2026-04-18T12:55:18.999Z</time></trkpt><trkpt lat="44.32632751870527" lon="11.662693890546239"><ele>72.0</ele><time>2026-04-18T12:55:19.999Z</time></trkpt><trkpt lat="44.326375436433906" lon="11.66275994593372"><ele>72.0</ele><time>2026-04-18T12:55:20.999Z</time></trkpt><trkpt lat="44.326421704485085" lon="11.662825624712653"><ele>72.0</ele><time>2026-04-18T12:55:21.999Z</time></trkpt><trkpt lat="44.32646496451731" lon="11.662890772481928"><ele>72.0</ele><time>2026-04-18T12:55:22.999Z</time></trkpt><trkpt lat="44.32654789353457" lon="11.663026276593568"><ele>72.0</ele><time>2026-04-18T12:55:24.999Z</time></trkpt><trkpt lat="44.32659270399758" lon="11.663103085077388"><ele>72.0</ele><time>2026-04-18T12:55:25.999Z</time></trkpt><trkpt lat="44.32662897514154" lon="11.663182544344208"><ele>72.0</ele><time>2026-04-18T12:55:26.999Z</time></trkpt><trkpt lat="44.32666810873025" lon="11.663263165023798"><ele>72.00000000000001</ele><time>2026-04-18T12:55:27.999Z</time></trkpt><trkpt lat="44.326706496183" lon="11.663343092708844"><ele>72.0</ele><time>2026-04-18T12:55:28.999Z</time></trkpt><trkpt lat="44.32674309107136" lon="11.66342209096187"><ele>72.0</ele><time>2026-04-18T12:55:29.999Z</time></trkpt><trkpt lat="44.3267783803686" lon="11.663500693715266"><ele>72.0</ele><time>2026-04-18T12:55:30.999Z</time></trkpt><trkpt lat="44.32681625261066" lon="11.663580944288167"><ele>72.0</ele><time>2026-04-18T12:55:31.999Z</time></trkpt><trkpt lat="44.326853351341505" lon="11.663661292367394"><ele>72.00000000000001</ele><time>2026-04-18T12:55:32.999Z</time></trkpt><trkpt lat="44.32688908016621" lon="11.663739739067148"><ele>72.0</ele><time>2026-04-18T12:55:33.999Z</time></trkpt><trkpt lat="44.32692472319736" lon="11.66382047470426"><ele>71.57142857142858</ele><time>2026-04-18T12:55:34.999Z</time></trkpt><trkpt lat="44.32696069850627" lon="11.663902204229776"><ele>71.14285714285714</ele><time>2026-04-18T12:55:35.999Z</time></trkpt><trkpt lat="44.326995652738916" lon="11.663981054843997"><ele>70.71428571428572</ele><time>2026-04-18T12:55:36.999Z</time></trkpt><trkpt lat="44.32703033077433" lon="11.664062867494113"><ele>70.28571428571429</ele><time>2026-04-18T12:55:37.999Z</time></trkpt><trkpt lat="44.32706404603397" lon="11.664143061495675"><ele>69.85714285714286</ele><time>2026-04-18T12:55:38.999Z</time></trkpt><trkpt lat="44.32709723571635" lon="11.664224537071528"><ele>69.42857142857143</ele><time>2026-04-18T12:55:39.999Z</time></trkpt><trkpt lat="44.32713362145693" lon="11.664303827701108"><ele>69.0</ele><time>2026-04-18T12:55:40.999Z</time></trkpt><trkpt lat="44.32717014914951" lon="11.664382793789327"><ele>69.0</ele><time>2026-04-18T12:55:41.999Z</time></trkpt><trkpt lat="44.327207543494715" lon="11.664462246755484"><ele>69.0</ele><time>2026-04-18T12:55:42.999Z</time></trkpt><trkpt lat="44.32724456640957" lon="11.664544152366865"><ele>69.0</ele><time>2026-04-18T12:55:43.999Z</time></trkpt><trkpt lat="44.32727899821154" lon="11.664625582070087"><ele>69.0</ele><time>2026-04-18T12:55:44.999Z</time></trkpt><trkpt lat="44.32731685133774" lon="11.66470656057029"><ele>69.0</ele><time>2026-04-18T12:55:45.999Z</time></trkpt><trkpt lat="44.327353853142" lon="11.664786744779194"><ele>69.0</ele><time>2026-04-18T12:55:46.999Z</time></trkpt><trkpt lat="44.32739028423961" lon="11.664866731340927"><ele>69.0</ele><time>2026-04-18T12:55:47.999Z</time></trkpt><trkpt lat="44.32742755217413" lon="11.66494732158437"><ele>69.14285714285714</ele><time>2026-04-18T12:55:48.999Z</time></trkpt><trkpt lat="44.32746633178836" lon="11.665027155118352"><ele>69.28571428571429</ele><time>2026-04-18T12:55:49.999Z</time></trkpt><trkpt lat="44.32750116519088" lon="11.66510758232812"><ele>69.42857142857143</ele><time>2026-04-18T12:55:50.999Z</time></trkpt><trkpt lat="44.3275374094373" lon="11.665188939501203"><ele>69.57142857142857</ele><time>2026-04-18T12:55:51.999Z</time></trkpt><trkpt lat="44.327572448373594" lon="11.665263977459189"><ele>69.71428571428572</ele><time>2026-04-18T12:55:52.999Z</time></trkpt><trkpt lat="44.32760946962501" lon="11.665339421402772"><ele>69.85714285714286</ele><time>2026-04-18T12:55:53.997Z</time></trkpt><trkpt lat="44.327648748053264" lon="11.665416819993274"><ele>70.0</ele><time>2026-04-18T12:55:54.997Z</time></trkpt><trkpt lat="44.32768716282237" lon="11.665492288932994"><ele>70.0</ele><time>2026-04-18T12:55:55.997Z</time></trkpt><trkpt lat="44.327726976997546" lon="11.665568421607373"><ele>70.0</ele><time>2026-04-18T12:55:56.997Z</time></trkpt><trkpt lat="44.32776762695352" lon="11.665646585125165"><ele>70.0</ele><time>2026-04-18T12:55:57.997Z</time></trkpt><trkpt lat="44.32780205671706" lon="11.665721515972546"><ele>70.0</ele><time>2026-04-18T12:55:58.997Z</time></trkpt><trkpt lat="44.32785048544762" lon="11.665795321361957"><ele>70.0</ele><time>2026-04-18T12:55:59.997Z</time></trkpt><trkpt lat="44.32789843994371" lon="11.665869681468184"><ele>70.0</ele><time>2026-04-18T12:56:00.998Z</time></trkpt><trkpt lat="44.327943278696566" lon="11.66594125138773"><ele>70.0</ele><time>2026-04-18T12:56:01.998Z</time></trkpt><trkpt lat="44.32799230314226" lon="11.666011325203225"><ele>70.0</ele><time>2026-04-18T12:56:02.998Z</time></trkpt><trkpt lat="44.32803871964081" lon="11.666084448764613"><ele>70.0</ele><time>2026-04-18T12:56:03.998Z</time></trkpt><trkpt lat="44.32808496374943" lon="11.666156858794738"><ele>70.0</ele><time>2026-04-18T12:56:04.998Z</time></trkpt><trkpt lat="44.32813578530999" lon="11.66622560204962"><ele>70.0</ele><time>2026-04-18T12:56:05.998Z</time></trkpt><trkpt lat="44.328182304163164" lon="11.666295182051568"><ele>70.0</ele><time>2026-04-18T12:56:06.998Z</time></trkpt><trkpt lat="44.32823029078241" lon="11.666363536027767"><ele>70.0</ele><time>2026-04-18T12:56:07.998Z</time></trkpt><trkpt lat="44.3282790179712" lon="11.666434584336052"><ele>70.0</ele><time>2026-04-18T12:56:08.998Z</time></trkpt><trkpt lat="44.328329607740976" lon="11.666502295298313"><ele>69.85714285714286</ele><time>2026-04-18T12:56:09.998Z</time></trkpt><trkpt lat="44.32837839817927" lon="11.66657356620445"><ele>69.71428571428572</ele><time>2026-04-18T12:56:10.998Z</time></trkpt><trkpt lat="44.328427358313704" lon="11.666643396165796"><ele>69.57142857142857</ele><time>2026-04-18T12:56:11.998Z</time></trkpt><trkpt lat="44.32847486681796" lon="11.666710457340484"><ele>69.42857142857143</ele><time>2026-04-18T12:56:12.998Z</time></trkpt><trkpt lat="44.32852233608004" lon="11.66678155678464"><ele>69.28571428571429</ele><time>2026-04-18T12:56:13.998Z</time></trkpt><trkpt lat="44.32857102461521" lon="11.666853737407159"><ele>69.14285714285714</ele><time>2026-04-18T12:56:14.998Z</time></trkpt><trkpt lat="44.32861775114671" lon="11.66693196005806"><ele>69.0</ele><time>2026-04-18T12:56:15.998Z</time></trkpt><trkpt lat="44.32866414455241" lon="11.667006345486197"><ele>68.71428571428572</ele><time>2026-04-18T12:56:16.998Z</time></trkpt><trkpt lat="44.32870481565175" lon="11.667084301252764"><ele>68.42857142857143</ele><time>2026-04-18T12:56:17.998Z</time></trkpt><trkpt lat="44.32874365216437" lon="11.6671650387311"><ele>68.14285714285714</ele><time>2026-04-18T12:56:18.998Z</time></trkpt><trkpt lat="44.32878093024454" lon="11.667246182447824"><ele>67.85714285714286</ele><time>2026-04-18T12:56:19.998Z</time></trkpt><trkpt lat="44.32881797889303" lon="11.667329190764464"><ele>67.57142857142857</ele><time>2026-04-18T12:56:20.998Z</time></trkpt><trkpt lat="44.32885310918662" lon="11.667416373124404"><ele>67.28571428571429</ele><time>2026-04-18T12:56:21.999Z</time></trkpt><trkpt lat="44.32888665221191" lon="11.667497838462495"><ele>67.0</ele><time>2026-04-18T12:56:22.999Z</time></trkpt><trkpt lat="44.3289214894905" lon="11.66758082873009"><ele>67.28571428571429</ele><time>2026-04-18T12:56:23.999Z</time></trkpt><trkpt lat="44.328954440756355" lon="11.667661068009139"><ele>67.57142857142857</ele><time>2026-04-18T12:56:24.999Z</time></trkpt><trkpt lat="44.32898784210378" lon="11.667742835062853"><ele>67.85714285714286</ele><time>2026-04-18T12:56:25.999Z</time></trkpt><trkpt lat="44.32902153237087" lon="11.66782438201679"><ele>68.14285714285714</ele><time>2026-04-18T12:56:26.999Z</time></trkpt><trkpt lat="44.329055217526864" lon="11.667909922427684"><ele>68.42857142857143</ele><time>2026-04-18T12:56:27.999Z</time></trkpt><trkpt lat="44.32908681873204" lon="11.667993254001969"><ele>68.71428571428572</ele><time>2026-04-18T12:56:28.999Z</time></trkpt><trkpt lat="44.32912010062077" lon="11.668075374720765"><ele>69.0</ele><time>2026-04-18T12:56:29.999Z</time></trkpt><trkpt lat="44.32914895980548" lon="11.6681601968918"><ele>69.0</ele><time>2026-04-18T12:56:30.999Z</time></trkpt><trkpt lat="44.32918361250634" lon="11.668243299310333"><ele>69.0</ele><time>2026-04-18T12:56:31.999Z</time></trkpt><trkpt lat="44.32921808820497" lon="11.668325046853264"><ele>69.0</ele><time>2026-04-18T12:56:32.999Z</time></trkpt><trkpt lat="44.32925058529712" lon="11.668406055515794"><ele>69.0</ele><time>2026-04-18T12:56:33.999Z</time></trkpt><trkpt lat="44.329290644706575" lon="11.668487747186353"><ele>69.0</ele><time>2026-04-18T12:56:34.999Z</time></trkpt><trkpt lat="44.329326599825215" lon="11.668570241687995"><ele>69.0</ele><time>2026-04-18T12:56:35.999Z</time></trkpt><trkpt lat="44.329365396805855" lon="11.668656173691865"><ele>69.0</ele><time>2026-04-18T12:56:36.999Z</time></trkpt><trkpt lat="44.32939838424639" lon="11.668742245589192"><ele>69.0</ele><time>2026-04-18T12:56:37.999Z</time></trkpt><trkpt lat="44.329432742804066" lon="11.668824977004366"><ele>69.0</ele><time>2026-04-18T12:56:38.999Z</time></trkpt><trkpt lat="44.329464303110235" lon="11.668907474834992"><ele>69.0</ele><time>2026-04-18T12:56:39.999Z</time></trkpt><trkpt lat="44.32949452509831" lon="11.668994148729487"><ele>69.0</ele><time>2026-04-18T12:56:40.999Z</time></trkpt><trkpt lat="44.32952848187032" lon="11.669079676761477"><ele>69.0</ele><time>2026-04-18T12:56:41.999Z</time></trkpt><trkpt lat="44.329560907572635" lon="11.669164934377934"><ele>69.0</ele><time>2026-04-18T12:56:42.999Z</time></trkpt><trkpt lat="44.32959623207711" lon="11.669250616528876"><ele>69.0</ele><time>2026-04-18T12:56:43.999Z</time></trkpt><trkpt lat="44.32962985450536" lon="11.669331684174242"><ele>69.0</ele><time>2026-04-18T12:56:44.999Z</time></trkpt><trkpt lat="44.3296660624485" lon="11.669422786921917"><ele>69.0</ele><time>2026-04-18T12:56:45.999Z</time></trkpt><trkpt lat="44.329700121904374" lon="11.669507902072978"><ele>69.0</ele><time>2026-04-18T12:56:46.999Z</time></trkpt><trkpt lat="44.32973183648378" lon="11.66959333635674"><ele>69.0</ele><time>2026-04-18T12:56:47.999Z</time></trkpt><trkpt lat="44.32976535122605" lon="11.669677363075342"><ele>69.0</ele><time>2026-04-18T12:56:48.999Z</time></trkpt><trkpt lat="44.329801694557666" lon="11.66976231613208"><ele>69.0</ele><time>2026-04-18T12:56:49.999Z</time></trkpt><trkpt lat="44.329837241124075" lon="11.669847641937569"><ele>69.0</ele><time>2026-04-18T12:56:50.999Z</time></trkpt><trkpt lat="44.32987188721824" lon="11.669936532786183"><ele>69.0</ele><time>2026-04-18T12:56:51.999Z</time></trkpt><trkpt lat="44.32991262047506" lon="11.670020274961855"><ele>69.0</ele><time>2026-04-18T12:56:52.999Z</time></trkpt><trkpt lat="44.32994667558494" lon="11.670110344609371"><ele>69.0</ele><time>2026-04-18T12:56:53.999Z</time></trkpt><trkpt lat="44.32998064440857" lon="11.670198538906625"><ele>69.0</ele><time>2026-04-18T12:56:54.999Z</time></trkpt><trkpt lat="44.330018373262405" lon="11.670288730926352"><ele>69.0</ele><time>2026-04-18T12:56:55.999Z</time></trkpt><trkpt lat="44.330053096097714" lon="11.670379841821498"><ele>69.0</ele><time>2026-04-18T12:56:56.999Z</time></trkpt><trkpt lat="44.330094122887616" lon="11.670466048206512"><ele>69.0</ele><time>2026-04-18T12:56:57.999Z</time></trkpt><trkpt lat="44.33012770122607" lon="11.670557374153967"><ele>69.14285714285714</ele><time>2026-04-18T12:56:58.999Z</time></trkpt><trkpt lat="44.33015834284422" lon="11.670649618765822"><ele>69.28571428571429</ele><time>2026-04-18T12:56:59.999Z</time></trkpt><trkpt lat="44.33019936051194" lon="11.670735580110575"><ele>69.42857142857143</ele><time>2026-04-18T12:57:00.999Z</time></trkpt><trkpt lat="44.330235085963274" lon="11.670823664554474"><ele>69.57142857142857</ele><time>2026-04-18T12:57:01.999Z</time></trkpt><trkpt lat="44.33027607133917" lon="11.670914296998227"><ele>69.71428571428572</ele><time>2026-04-18T12:57:02.999Z</time></trkpt><trkpt lat="44.330314785572746" lon="11.671000975117831"><ele>69.85714285714286</ele><time>2026-04-18T12:57:03.999Z</time></trkpt><trkpt lat="44.33035459823927" lon="11.671088540013296"><ele>70.0</ele><time>2026-04-18T12:57:04.999Z</time></trkpt><trkpt lat="44.33039563776701" lon="11.67117840890889"><ele>69.71428571428571</ele><time>2026-04-18T12:57:05.999Z</time></trkpt><trkpt lat="44.330440402862074" lon="11.671264551675742"><ele>69.42857142857143</ele><time>2026-04-18T12:57:06.999Z</time></trkpt><trkpt lat="44.33048070893289" lon="11.671351024649784"><ele>69.14285714285714</ele><time>2026-04-18T12:57:07.999Z</time></trkpt><trkpt lat="44.33052415469343" lon="11.671430927105664"><ele>68.85714285714286</ele><time>2026-04-18T12:57:08.999Z</time></trkpt><trkpt lat="44.330559976317005" lon="11.671522642947885"><ele>68.57142857142857</ele><time>2026-04-18T12:57:09.999Z</time></trkpt><trkpt lat="44.330608319973265" lon="11.671603199149667"><ele>68.28571428571428</ele><time>2026-04-18T12:57:10.999Z</time></trkpt><trkpt lat="44.330656898530016" lon="11.671684837494812"><ele>68.0</ele><time>2026-04-18T12:57:11.999Z</time></trkpt><trkpt lat="44.33069986725904" lon="11.671771279286677"><ele>68.0</ele><time>2026-04-18T12:57:12.999Z</time></trkpt><trkpt lat="44.330742705983745" lon="11.671854593697482"><ele>68.0</ele><time>2026-04-18T12:57:13.999Z</time></trkpt><trkpt lat="44.33088098250691" lon="11.67211078522305"><ele>68.0</ele><time>2026-04-18T12:57:16.999Z</time></trkpt><trkpt lat="44.33092317603465" lon="11.672189117046491"><ele>68.0</ele><time>2026-04-18T12:57:17.999Z</time></trkpt><trkpt lat="44.33096936953971" lon="11.672269423694665"><ele>68.0</ele><time>2026-04-18T12:57:18.999Z</time></trkpt><trkpt lat="44.33101562309207" lon="11.672349276432891"><ele>68.0</ele><time>2026-04-18T12:57:19.999Z</time></trkpt><trkpt lat="44.331065039470396" lon="11.672426916838786"><ele>68.0</ele><time>2026-04-18T12:57:20.999Z</time></trkpt><trkpt lat="44.33111510233696" lon="11.67250648777856"><ele>68.0</ele><time>2026-04-18T12:57:21.999Z</time></trkpt><trkpt lat="44.331166081886316" lon="11.672583880925274"><ele>68.0</ele><time>2026-04-18T12:57:22.999Z</time></trkpt><trkpt lat="44.331218136468394" lon="11.672659748151238"><ele>68.0</ele><time>2026-04-18T12:57:23.999Z</time></trkpt><trkpt lat="44.33126989638019" lon="11.672742289932682"><ele>68.0</ele><time>2026-04-18T12:57:24.999Z</time></trkpt><trkpt lat="44.33132591135459" lon="11.672815688712578"><ele>67.66666666666667</ele><time>2026-04-18T12:57:25.999Z</time></trkpt><trkpt lat="44.33138255835402" lon="11.672889331279066"><ele>67.33333333333334</ele><time>2026-04-18T12:57:26.999Z</time></trkpt><trkpt lat="44.33143801157958" lon="11.672962370093474"><ele>67.0</ele><time>2026-04-18T12:57:27.999Z</time></trkpt><trkpt lat="44.3314931299721" lon="11.673036225565532"><ele>66.66666666666667</ele><time>2026-04-18T12:57:28.999Z</time></trkpt><trkpt lat="44.33154853367991" lon="11.673111572348951"><ele>66.33333333333333</ele><time>2026-04-18T12:57:29.999Z</time></trkpt><trkpt lat="44.33160502596993" lon="11.67318752741861"><ele>66.0</ele><time>2026-04-18T12:57:30.999Z</time></trkpt><trkpt lat="44.33166025954237" lon="11.673254861105997"><ele>66.0</ele><time>2026-04-18T12:57:31.999Z</time></trkpt><trkpt lat="44.33171211740762" lon="11.673329035369877"><ele>66.0</ele><time>2026-04-18T12:57:32.999Z</time></trkpt><trkpt lat="44.33176880691883" lon="11.67340158582412"><ele>66.0</ele><time>2026-04-18T12:57:33.999Z</time></trkpt><trkpt lat="44.33182593112199" lon="11.673477306723488"><ele>66.0</ele><time>2026-04-18T12:57:34.999Z</time></trkpt><trkpt lat="44.33188257529741" lon="11.673550204616987"><ele>66.0</ele><time>2026-04-18T12:57:35.999Z</time></trkpt><trkpt lat="44.33193910271063" lon="11.673620118912929"><ele>66.0</ele><time>2026-04-18T12:57:36.999Z</time></trkpt><trkpt lat="44.33199236331444" lon="11.673694224009013"><ele>66.0</ele><time>2026-04-18T12:57:37.999Z</time></trkpt><trkpt lat="44.332043614259625" lon="11.673767826100741"><ele>66.0</ele><time>2026-04-18T12:57:38.999Z</time></trkpt><trkpt lat="44.33209608510932" lon="11.673843271740218"><ele>66.0</ele><time>2026-04-18T12:57:39.999Z</time></trkpt><trkpt lat="44.33215098361685" lon="11.673919845908744"><ele>66.0</ele><time>2026-04-18T12:57:40.999Z</time></trkpt><trkpt lat="44.33220535496749" lon="11.67399565229543"><ele>66.0</ele><time>2026-04-18T12:57:41.999Z</time></trkpt><trkpt lat="44.332259008532965" lon="11.674073209896212"><ele>66.0</ele><time>2026-04-18T12:57:42.999Z</time></trkpt><trkpt lat="44.332312466169995" lon="11.674150902014745"><ele>66.0</ele><time>2026-04-18T12:57:43.999Z</time></trkpt><trkpt lat="44.33236500845627" lon="11.67422922340173"><ele>66.0</ele><time>2026-04-18T12:57:44.999Z</time></trkpt><trkpt lat="44.33241968902265" lon="11.67431011392091"><ele>66.0</ele><time>2026-04-18T12:57:45.999Z</time></trkpt><trkpt lat="44.332472396717556" lon="11.674392346611896"><ele>66.0</ele><time>2026-04-18T12:57:46.999Z</time></trkpt><trkpt lat="44.33252622949782" lon="11.674474495700416"><ele>66.0</ele><time>2026-04-18T12:57:47.999Z</time></trkpt><trkpt lat="44.33258230217835" lon="11.674556054611065"><ele>66.0</ele><time>2026-04-18T12:57:48.999Z</time></trkpt><trkpt lat="44.33263409239985" lon="11.67463637390856"><ele>65.33333333333333</ele><time>2026-04-18T12:57:49.999Z</time></trkpt><trkpt lat="44.33268706534852" lon="11.674715286666402"><ele>64.66666666666667</ele><time>2026-04-18T12:57:50.999Z</time></trkpt><trkpt lat="44.33274055899388" lon="11.674796352329514"><ele>64.0</ele><time>2026-04-18T12:57:51.999Z</time></trkpt><trkpt lat="44.33279326441765" lon="11.674878357760686"><ele>63.333333333333336</ele><time>2026-04-18T12:57:52.999Z</time></trkpt><trkpt lat="44.33284739166477" lon="11.674956536887924"><ele>62.66666666666667</ele><time>2026-04-18T12:57:53.999Z</time></trkpt><trkpt lat="44.33290147277359" lon="11.675039640353807"><ele>62.0</ele><time>2026-04-18T12:57:54.999Z</time></trkpt><trkpt lat="44.3329560751681" lon="11.675119481682978"><ele>62.00000000000001</ele><time>2026-04-18T12:57:55.999Z</time></trkpt><trkpt lat="44.33300968161293" lon="11.675197883510906"><ele>62.0</ele><time>2026-04-18T12:57:56.999Z</time></trkpt><trkpt lat="44.333060155958655" lon="11.675277229887646"><ele>62.0</ele><time>2026-04-18T12:57:57.999Z</time></trkpt><trkpt lat="44.33311174982239" lon="11.675356133392581"><ele>62.0</ele><time>2026-04-18T12:57:58.999Z</time></trkpt><trkpt lat="44.33316371040512" lon="11.675434813140216"><ele>62.00000000000001</ele><time>2026-04-18T12:57:59.998Z</time></trkpt><trkpt lat="44.33321492245466" lon="11.675513978254118"><ele>62.0</ele><time>2026-04-18T12:58:00.998Z</time></trkpt><trkpt lat="44.333264887688394" lon="11.675595965545241"><ele>62.00000000000001</ele><time>2026-04-18T12:58:01.998Z</time></trkpt><trkpt lat="44.333313320679025" lon="11.675679591076836"><ele>62.0</ele><time>2026-04-18T12:58:02.998Z</time></trkpt><trkpt lat="44.33336115755251" lon="11.675761330868049"><ele>62.0</ele><time>2026-04-18T12:58:03.998Z</time></trkpt><trkpt lat="44.333410730663175" lon="11.675843474224376"><ele>62.0</ele><time>2026-04-18T12:58:04.998Z</time></trkpt><trkpt lat="44.333459956176796" lon="11.6759296787457"><ele>62.00000000000001</ele><time>2026-04-18T12:58:05.998Z</time></trkpt><trkpt lat="44.33350167860722" lon="11.676017385103686"><ele>62.0</ele><time>2026-04-18T12:58:06.998Z</time></trkpt><trkpt lat="44.33354440088344" lon="11.676106904578727"><ele>61.833333333333336</ele><time>2026-04-18T12:58:07.998Z</time></trkpt><trkpt lat="44.33358877812819" lon="11.676198893113773"><ele>61.66666666666667</ele><time>2026-04-18T12:58:08.998Z</time></trkpt><trkpt lat="44.3336304891651" lon="11.676291663241763"><ele>61.5</ele><time>2026-04-18T12:58:09.998Z</time></trkpt><trkpt lat="44.333670726123266" lon="11.676385724696974"><ele>61.33333333333333</ele><time>2026-04-18T12:58:10.998Z</time></trkpt><trkpt lat="44.333708835211844" lon="11.676480901034642"><ele>61.166666666666664</ele><time>2026-04-18T12:58:11.998Z</time></trkpt><trkpt lat="44.33374455193405" lon="11.676576966905186"><ele>61.0</ele><time>2026-04-18T12:58:12.998Z</time></trkpt><trkpt lat="44.33378099080949" lon="11.676675071132731"><ele>60.99999999999999</ele><time>2026-04-18T12:58:13.998Z</time></trkpt><trkpt lat="44.33381250509259" lon="11.676768897117363"><ele>61.0</ele><time>2026-04-18T12:58:14.998Z</time></trkpt><trkpt lat="44.33384245519719" lon="11.67686455500572"><ele>60.99999999999999</ele><time>2026-04-18T12:58:15.999Z</time></trkpt><trkpt lat="44.33387272475266" lon="11.676960723519755"><ele>60.99999999999999</ele><time>2026-04-18T12:58:16.999Z</time></trkpt><trkpt lat="44.33390028289391" lon="11.67705737540564"><ele>61.0</ele><time>2026-04-18T12:58:17.999Z</time></trkpt><trkpt lat="44.3339274321796" lon="11.677154674483484"><ele>60.99999999999999</ele><time>2026-04-18T12:58:18.999Z</time></trkpt><trkpt lat="44.33395401841797" lon="11.677249989113262"><ele>60.99999999999999</ele><time>2026-04-18T12:58:19.999Z</time></trkpt><trkpt lat="44.33398322694325" lon="11.677345670923762"><ele>61.428571428571416</ele><time>2026-04-18T12:58:20.999Z</time></trkpt><trkpt lat="44.33401025782282" lon="11.677439516673573"><ele>61.857142857142854</ele><time>2026-04-18T12:58:21.999Z</time></trkpt><trkpt lat="44.334035999675386" lon="11.67753627261132"><ele>62.28571428571428</ele><time>2026-04-18T12:58:22.999Z</time></trkpt><trkpt lat="44.33406556727909" lon="11.677631113524596"><ele>62.71428571428571</ele><time>2026-04-18T12:58:23.999Z</time></trkpt><trkpt lat="44.33409752979357" lon="11.67772471694279"><ele>63.14285714285714</ele><time>2026-04-18T12:58:24.999Z</time></trkpt><trkpt lat="44.33412830250149" lon="11.677815335917723"><ele>63.57142857142857</ele><time>2026-04-18T12:58:25.999Z</time></trkpt><trkpt lat="44.33415462406367" lon="11.67791613523646"><ele>64.0</ele><time>2026-04-18T12:58:26.999Z</time></trkpt><trkpt lat="44.334181908498024" lon="11.67801158050477"><ele>64.0</ele><time>2026-04-18T12:58:27.999Z</time></trkpt><trkpt lat="44.334210469341805" lon="11.678109395134644"><ele>63.99999999999999</ele><time>2026-04-18T12:58:28.999Z</time></trkpt><trkpt lat="44.33423937819826" lon="11.678205523768037"><ele>64.0</ele><time>2026-04-18T12:58:29.999Z</time></trkpt><trkpt lat="44.33426664420919" lon="11.678303604480476"><ele>64.0</ele><time>2026-04-18T12:58:30.999Z</time></trkpt><trkpt lat="44.33429601812258" lon="11.67839789396277"><ele>63.99999999999999</ele><time>2026-04-18T12:58:31.999Z</time></trkpt><trkpt lat="44.33432530093111" lon="11.678490707886942"><ele>64.0</ele><time>2026-04-18T12:58:32.999Z</time></trkpt><trkpt lat="44.334350256575895" lon="11.678590651668845"><ele>64.0</ele><time>2026-04-18T12:58:33.999Z</time></trkpt><trkpt lat="44.33437801758798" lon="11.678686515979164"><ele>64.0</ele><time>2026-04-18T12:58:34.999Z</time></trkpt><trkpt lat="44.33440543781501" lon="11.678782551999797"><ele>63.99999999999999</ele><time>2026-04-18T12:58:35.999Z</time></trkpt><trkpt lat="44.3344352657492" lon="11.678881591683826"><ele>64.0</ele><time>2026-04-18T12:58:36.999Z</time></trkpt><trkpt lat="44.334463054639365" lon="11.678977997346914"><ele>64.0</ele><time>2026-04-18T12:58:37.999Z</time></trkpt><trkpt lat="44.33449080628722" lon="11.67907489558028"><ele>63.99999999999999</ele><time>2026-04-18T12:58:38.999Z</time></trkpt><trkpt lat="44.334518208497116" lon="11.679172827096064"><ele>64.0</ele><time>2026-04-18T12:58:39.999Z</time></trkpt><trkpt lat="44.33454588377378" lon="11.67926707810222"><ele>64.0</ele><time>2026-04-18T12:58:40.999Z</time></trkpt><trkpt lat="44.33457492383408" lon="11.679359845135512"><ele>63.57142857142857</ele><time>2026-04-18T12:58:41.999Z</time></trkpt><trkpt lat="44.33460453556275" lon="11.679455418406107"><ele>63.14285714285714</ele><time>2026-04-18T12:58:42.999Z</time></trkpt><trkpt lat="44.334633532637206" lon="11.679548206241137"><ele>62.71428571428571</ele><time>2026-04-18T12:58:43.999Z</time></trkpt><trkpt lat="44.334663369624266" lon="11.67964719930288"><ele>62.28571428571428</ele><time>2026-04-18T12:58:44.999Z</time></trkpt><trkpt lat="44.33468959743089" lon="11.679743735375023"><ele>61.857142857142854</ele><time>2026-04-18T12:58:45.999Z</time></trkpt><trkpt lat="44.33471936214795" lon="11.679841946715616"><ele>61.428571428571416</ele><time>2026-04-18T12:58:46.999Z</time></trkpt><trkpt lat="44.3347463572726" lon="11.679938618593248"><ele>60.99999999999999</ele><time>2026-04-18T12:58:47.999Z</time></trkpt><trkpt lat="44.33477489744156" lon="11.680036466131819"><ele>60.99999999999999</ele><time>2026-04-18T12:58:48.999Z</time></trkpt><trkpt lat="44.334803983562466" lon="11.680132384291804"><ele>61.0</ele><time>2026-04-18T12:58:49.999Z</time></trkpt><trkpt lat="44.33483244439518" lon="11.680228329033282"><ele>60.99999999999999</ele><time>2026-04-18T12:58:50.999Z</time></trkpt><trkpt lat="44.3348628327165" lon="11.680322953083547"><ele>60.99999999999999</ele><time>2026-04-18T12:58:51.999Z</time></trkpt><trkpt lat="44.33489543672336" lon="11.680414884144698"><ele>61.0</ele><time>2026-04-18T12:58:52.999Z</time></trkpt><trkpt lat="44.33493381565481" lon="11.680506212028748"><ele>60.99999999999999</ele><time>2026-04-18T12:58:53.999Z</time></trkpt><trkpt lat="44.33497447958621" lon="11.680593808984373"><ele>60.99999999999999</ele><time>2026-04-18T12:58:54.999Z</time></trkpt><trkpt lat="44.33501644844324" lon="11.680682039172531"><ele>60.83333333333333</ele><time>2026-04-18T12:58:55.999Z</time></trkpt><trkpt lat="44.335062033530086" lon="11.68076902896851"><ele>60.666666666666664</ele><time>2026-04-18T12:58:56.999Z</time></trkpt><trkpt lat="44.33510656508612" lon="11.680856287426057"><ele>60.5</ele><time>2026-04-18T12:58:57.999Z</time></trkpt><trkpt lat="44.335149780267756" lon="11.680943188630122"><ele>60.33333333333333</ele><time>2026-04-18T12:58:58.999Z</time></trkpt><trkpt lat="44.335195771098135" lon="11.68103024386401"><ele>60.166666666666664</ele><time>2026-04-18T12:58:59.999Z</time></trkpt><trkpt lat="44.33524508629504" lon="11.681119450141829"><ele>60.0</ele><time>2026-04-18T12:59:00.999Z</time></trkpt><trkpt lat="44.335286941262886" lon="11.681204089850654"><ele>60.0</ele><time>2026-04-18T12:59:01.999Z</time></trkpt><trkpt lat="44.33533558188653" lon="11.681293587634983"><ele>60.0</ele><time>2026-04-18T12:59:02.999Z</time></trkpt><trkpt lat="44.33538506721635" lon="11.681381884637993"><ele>60.0</ele><time>2026-04-18T12:59:03.999Z</time></trkpt><trkpt lat="44.33543508680716" lon="11.681469107083934"><ele>60.0</ele><time>2026-04-18T12:59:04.999Z</time></trkpt><trkpt lat="44.335488384996815" lon="11.68155304043435"><ele>60.0</ele><time>2026-04-18T12:59:05.999Z</time></trkpt><trkpt lat="44.3355422834794" lon="11.681639282804142"><ele>60.0</ele><time>2026-04-18T12:59:07Z</time></trkpt><trkpt lat="44.335597316006464" lon="11.681720846830721"><ele>60.333333333333336</ele><time>2026-04-18T12:59:08Z</time></trkpt><trkpt lat="44.335654346638435" lon="11.681803785237296"><ele>60.66666666666667</ele><time>2026-04-18T12:59:09Z</time></trkpt><trkpt lat="44.33571464536145" lon="11.68188145017345"><ele>61.0</ele><time>2026-04-18T12:59:10Z</time></trkpt><trkpt lat="44.33577854677547" lon="11.681958563478382"><ele>61.333333333333336</ele><time>2026-04-18T12:59:11Z</time></trkpt><trkpt lat="44.3358426233542" lon="11.682032212515267"><ele>61.66666666666667</ele><time>2026-04-18T12:59:12Z</time></trkpt><trkpt lat="44.33590998523507" lon="11.682107480668474"><ele>62.0</ele><time>2026-04-18T12:59:13Z</time></trkpt><trkpt lat="44.33597961388967" lon="11.6821826918668"><ele>61.833333333333336</ele><time>2026-04-18T12:59:14Z</time></trkpt><trkpt lat="44.336048442027675" lon="11.682251481505807"><ele>61.66666666666667</ele><time>2026-04-18T12:59:15Z</time></trkpt><trkpt lat="44.336119326928895" lon="11.682318149646072"><ele>61.5</ele><time>2026-04-18T12:59:16Z</time></trkpt><trkpt lat="44.33619055392378" lon="11.682383417195064"><ele>61.33333333333333</ele><time>2026-04-18T12:59:17Z</time></trkpt><trkpt lat="44.33626215189531" lon="11.682448699962467"><ele>61.166666666666664</ele><time>2026-04-18T12:59:18Z</time></trkpt><trkpt lat="44.33633457601228" lon="11.682513038626086"><ele>61.0</ele><time>2026-04-18T12:59:19Z</time></trkpt><trkpt lat="44.336404815103826" lon="11.682575333336429"><ele>60.99999999999999</ele><time>2026-04-18T12:59:20Z</time></trkpt><trkpt lat="44.336475750068885" lon="11.68263123901325"><ele>61.0</ele><time>2026-04-18T12:59:21Z</time></trkpt><trkpt lat="44.336539876718504" lon="11.68269229799161"><ele>61.0</ele><time>2026-04-18T12:59:22Z</time></trkpt><trkpt lat="44.33660671910622" lon="11.68274900853169"><ele>61.0</ele><time>2026-04-18T12:59:23Z</time></trkpt><trkpt lat="44.33667160348778" lon="11.682808326207047"><ele>60.99999999999999</ele><time>2026-04-18T12:59:24Z</time></trkpt><trkpt lat="44.336741746446016" lon="11.68286453126216"><ele>61.0</ele><time>2026-04-18T12:59:25Z</time></trkpt><trkpt lat="44.33680380758003" lon="11.68292599307785"><ele>60.99999999999999</ele><time>2026-04-18T12:59:26Z</time></trkpt><trkpt lat="44.33687349522321" lon="11.682984158493673"><ele>61.0</ele><time>2026-04-18T12:59:27Z</time></trkpt><trkpt lat="44.33693969415055" lon="11.683040396346806"><ele>61.0</ele><time>2026-04-18T12:59:28Z</time></trkpt><trkpt lat="44.33700487102892" lon="11.683094706988037"><ele>61.0</ele><time>2026-04-18T12:59:29Z</time></trkpt><trkpt lat="44.33707171574969" lon="11.683146626403854"><ele>60.99999999999999</ele><time>2026-04-18T12:59:30Z</time></trkpt><trkpt lat="44.33713872347936" lon="11.683205421878887"><ele>61.0</ele><time>2026-04-18T12:59:31Z</time></trkpt><trkpt lat="44.337204993045454" lon="11.683261477521134"><ele>60.49999999999999</ele><time>2026-04-18T12:59:32Z</time></trkpt><trkpt lat="44.33727005318079" lon="11.683316330380718"><ele>60.0</ele><time>2026-04-18T12:59:33Z</time></trkpt><trkpt lat="44.337341792857096" lon="11.6833718941339"><ele>59.5</ele><time>2026-04-18T12:59:34Z</time></trkpt><trkpt lat="44.337410064726306" lon="11.683427463647613"><ele>59.0</ele><time>2026-04-18T12:59:35Z</time></trkpt><trkpt lat="44.33747925018097" lon="11.68348325472742"><ele>58.49999999999999</ele><time>2026-04-18T12:59:36Z</time></trkpt><trkpt lat="44.337547284729766" lon="11.683542269542844"><ele>58.0</ele><time>2026-04-18T12:59:37Z</time></trkpt><trkpt lat="44.33761467603906" lon="11.683597545316733"><ele>57.99999999999999</ele><time>2026-04-18T12:59:38Z</time></trkpt><trkpt lat="44.33768423301779" lon="11.683655457021972"><ele>58.0</ele><time>2026-04-18T12:59:39Z</time></trkpt><trkpt lat="44.337753113427716" lon="11.683711463793369"><ele>58.0</ele><time>2026-04-18T12:59:40Z</time></trkpt><trkpt lat="44.337824440201835" lon="11.683768329150412"><ele>58.0</ele><time>2026-04-18T12:59:41Z</time></trkpt><trkpt lat="44.3378946398437" lon="11.683824851663115"><ele>57.99999999999999</ele><time>2026-04-18T12:59:42Z</time></trkpt><trkpt lat="44.337963520560656" lon="11.683882468613453"><ele>58.0</ele><time>2026-04-18T12:59:43Z</time></trkpt><trkpt lat="44.338033048602895" lon="11.683938574857986"><ele>58.166666666666664</ele><time>2026-04-18T12:59:44Z</time></trkpt><trkpt lat="44.33810395032203" lon="11.683993794770153"><ele>58.33333333333333</ele><time>2026-04-18T12:59:45Z</time></trkpt><trkpt lat="44.33817447459778" lon="11.684050275233007"><ele>58.5</ele><time>2026-04-18T12:59:46Z</time></trkpt><trkpt lat="44.338242473025296" lon="11.684106217969019"><ele>58.66666666666667</ele><time>2026-04-18T12:59:47Z</time></trkpt><trkpt lat="44.338310559806615" lon="11.684161057661612"><ele>58.833333333333336</ele><time>2026-04-18T12:59:48Z</time></trkpt><trkpt lat="44.33837552071182" lon="11.68421868433944"><ele>59.0</ele><time>2026-04-18T12:59:49Z</time></trkpt><trkpt lat="44.33843643082438" lon="11.68427744613834"><ele>59.00000000000001</ele><time>2026-04-18T12:59:50Z</time></trkpt><trkpt lat="44.33851535662034" lon="11.684332211365604"><ele>59.0</ele><time>2026-04-18T12:59:51Z</time></trkpt><trkpt lat="44.338588063550624" lon="11.684386720391286"><ele>59.0</ele><time>2026-04-18T12:59:52Z</time></trkpt><trkpt lat="44.33865676081866" lon="11.684442143143517"><ele>59.0</ele><time>2026-04-18T12:59:53Z</time></trkpt><trkpt lat="44.33872498439695" lon="11.684498021317149"><ele>59.00000000000001</ele><time>2026-04-18T12:59:54Z</time></trkpt><trkpt lat="44.33879501744009" lon="11.684553132785494"><ele>59.0</ele><time>2026-04-18T12:59:55Z</time></trkpt><trkpt lat="44.33886301029226" lon="11.68460804335263"><ele>58.66666666666667</ele><time>2026-04-18T12:59:56Z</time></trkpt><trkpt lat="44.33893205934994" lon="11.684663525504355"><ele>58.333333333333336</ele><time>2026-04-18T12:59:57Z</time></trkpt><trkpt lat="44.33900042642496" lon="11.684716659309583"><ele>58.0</ele><time>2026-04-18T12:59:58Z</time></trkpt><trkpt lat="44.339068383387804" lon="11.684767752649481"><ele>57.66666666666667</ele><time>2026-04-18T12:59:59Z</time></trkpt><trkpt lat="44.3391336713609" lon="11.68481737321831"><ele>57.333333333333336</ele><time>2026-04-18T13:00:00Z</time></trkpt><trkpt lat="44.339196758480846" lon="11.684869359770119"><ele>57.0</ele><time>2026-04-18T13:00:01Z</time></trkpt><trkpt lat="44.33925738472725" lon="11.684919260307868"><ele>57.0</ele><time>2026-04-18T13:00:02Z</time></trkpt><trkpt lat="44.3393179367788" lon="11.684971814156153"><ele>56.99999999999999</ele><time>2026-04-18T13:00:03Z</time></trkpt><trkpt lat="44.339378191796825" lon="11.685017872852272"><ele>57.0</ele><time>2026-04-18T13:00:04Z</time></trkpt><trkpt lat="44.33943694340459" lon="11.685060197745516"><ele>57.0</ele><time>2026-04-18T13:00:05Z</time></trkpt><trkpt lat="44.33949436315063" lon="11.685109361555371"><ele>56.99999999999999</ele><time>2026-04-18T13:00:05.999Z</time></trkpt><trkpt lat="44.33955266015004" lon="11.685157130562393"><ele>57.0</ele><time>2026-04-18T13:00:06.999Z</time></trkpt><trkpt lat="44.33961498758885" lon="11.6852067652756"><ele>57.0</ele><time>2026-04-18T13:00:07.999Z</time></trkpt><trkpt lat="44.339675518848104" lon="11.685256965704507"><ele>57.14285714285714</ele><time>2026-04-18T13:00:08.999Z</time></trkpt><trkpt lat="44.33974090513212" lon="11.685307817738101"><ele>57.28571428571428</ele><time>2026-04-18T13:00:09.999Z</time></trkpt><trkpt lat="44.3398020565634" lon="11.685355079727513"><ele>57.42857142857143</ele><time>2026-04-18T13:00:10.999Z</time></trkpt><trkpt lat="44.33986461134923" lon="11.685408556232478"><ele>57.57142857142857</ele><time>2026-04-18T13:00:11.999Z</time></trkpt><trkpt lat="44.33992407655549" lon="11.68546138858542"><ele>57.714285714285715</ele><time>2026-04-18T13:00:12.999Z</time></trkpt><trkpt lat="44.33998179239632" lon="11.68551400166392"><ele>57.85714285714286</ele><time>2026-04-18T13:00:13.999Z</time></trkpt><trkpt lat="44.34004150022658" lon="11.685565655784096"><ele>58.00000000000001</ele><time>2026-04-18T13:00:14.999Z</time></trkpt><trkpt lat="44.34010480312427" lon="11.685618607973762"><ele>58.00000000000001</ele><time>2026-04-18T13:00:15.999Z</time></trkpt><trkpt lat="44.3401648902205" lon="11.685670360649274"><ele>58.0</ele><time>2026-04-18T13:00:16.999Z</time></trkpt><trkpt lat="44.34022412918503" lon="11.68572519613037"><ele>58.00000000000001</ele><time>2026-04-18T13:00:17.999Z</time></trkpt><trkpt lat="44.34028049499176" lon="11.685782515513942"><ele>58.00000000000001</ele><time>2026-04-18T13:00:18.999Z</time></trkpt><trkpt lat="44.340336938487894" lon="11.685843584769952"><ele>58.0</ele><time>2026-04-18T13:00:19.999Z</time></trkpt><trkpt lat="44.340393345437505" lon="11.68590446005585"><ele>58.00000000000001</ele><time>2026-04-18T13:00:20.999Z</time></trkpt><trkpt lat="44.340449897526" lon="11.685964487536522"><ele>58.00000000000001</ele><time>2026-04-18T13:00:21.999Z</time></trkpt><trkpt lat="44.340504446552885" lon="11.686026442495605"><ele>58.14285714285715</ele><time>2026-04-18T13:00:22.999Z</time></trkpt><trkpt lat="44.340561933603865" lon="11.686087304635375"><ele>58.28571428571429</ele><time>2026-04-18T13:00:23.999Z</time></trkpt><trkpt lat="44.34061803229609" lon="11.686150165643747"><ele>58.42857142857143</ele><time>2026-04-18T13:00:24.999Z</time></trkpt><trkpt lat="44.340671386307726" lon="11.686211139314366"><ele>58.57142857142858</ele><time>2026-04-18T13:00:25.999Z</time></trkpt><trkpt lat="44.34072427054202" lon="11.686275658261685"><ele>58.71428571428572</ele><time>2026-04-18T13:00:26.999Z</time></trkpt><trkpt lat="44.34077215515823" lon="11.686345172252008"><ele>58.857142857142854</ele><time>2026-04-18T13:00:27.999Z</time></trkpt><trkpt lat="44.34082326954189" lon="11.686411506315505"><ele>59.0</ele><time>2026-04-18T13:00:28.999Z</time></trkpt><trkpt lat="44.34087453646245" lon="11.686473424300575"><ele>59.0</ele><time>2026-04-18T13:00:29.999Z</time></trkpt><trkpt lat="44.34092629273808" lon="11.68653792159524"><ele>59.0</ele><time>2026-04-18T13:00:30.999Z</time></trkpt><trkpt lat="44.34097518357199" lon="11.68660300567781"><ele>59.0</ele><time>2026-04-18T13:00:31.999Z</time></trkpt><trkpt lat="44.341023231730325" lon="11.686670077052328"><ele>59.0</ele><time>2026-04-18T13:00:32.999Z</time></trkpt><trkpt lat="44.34107043736394" lon="11.686733677540062"><ele>59.0</ele><time>2026-04-18T13:00:33.999Z</time></trkpt><trkpt lat="44.341119954434745" lon="11.686795901416765"><ele>59.0</ele><time>2026-04-18T13:00:35Z</time></trkpt><trkpt lat="44.341165498331335" lon="11.686861315086514"><ele>59.0</ele><time>2026-04-18T13:00:36Z</time></trkpt><trkpt lat="44.341210845573265" lon="11.686923930698043"><ele>59.00000000000001</ele><time>2026-04-18T13:00:37Z</time></trkpt><trkpt lat="44.3413038926366" lon="11.687048933428768"><ele>59.0</ele><time>2026-04-18T13:00:39Z</time></trkpt><trkpt lat="44.341356434217104" lon="11.687103095827103"><ele>59.0</ele><time>2026-04-18T13:00:40Z</time></trkpt><trkpt lat="44.341412851671635" lon="11.687146508107643"><ele>59.0</ele><time>2026-04-18T13:00:41Z</time></trkpt><trkpt lat="44.34147104594491" lon="11.687180218677321"><ele>59.00000000000001</ele><time>2026-04-18T13:00:42Z</time></trkpt><trkpt lat="44.34153281115482" lon="11.687203103515703"><ele>59.0</ele><time>2026-04-18T13:00:43Z</time></trkpt><trkpt lat="44.3416527515231" lon="11.687242552819036"><ele>59.00000000000001</ele><time>2026-04-18T13:00:45Z</time></trkpt><trkpt lat="44.34176441275201" lon="11.687318078279548"><ele>59.0</ele><time>2026-04-18T13:00:47Z</time></trkpt><trkpt lat="44.34180765279165" lon="11.687391493496945"><ele>59.0</ele><time>2026-04-18T13:00:48Z</time></trkpt><trkpt lat="44.34183082831213" lon="11.687474610108453"><ele>59.0</ele><time>2026-04-18T13:00:49Z</time></trkpt><trkpt lat="44.3418356608721" lon="11.687567972418185"><ele>59.00000000000001</ele><time>2026-04-18T13:00:50Z</time></trkpt><trkpt lat="44.341842413297016" lon="11.687660944349718"><ele>59.0</ele><time>2026-04-18T13:00:51Z</time></trkpt><trkpt lat="44.34186817429296" lon="11.687761061658057"><ele>58.857142857142854</ele><time>2026-04-18T13:00:52Z</time></trkpt><trkpt lat="44.34190906928762" lon="11.687839234724155"><ele>58.71428571428572</ele><time>2026-04-18T13:00:53Z</time></trkpt><trkpt lat="44.34195696141884" lon="11.687907906750809"><ele>58.57142857142858</ele><time>2026-04-18T13:00:54Z</time></trkpt><trkpt lat="44.34201603647613" lon="11.68795648169502"><ele>58.42857142857143</ele><time>2026-04-18T13:00:55Z</time></trkpt><trkpt lat="44.342071881285094" lon="11.688010092731936"><ele>58.28571428571429</ele><time>2026-04-18T13:00:56Z</time></trkpt><trkpt lat="44.342092231354904" lon="11.6881319231598"><ele>58.14285714285715</ele><time>2026-04-18T13:00:57Z</time></trkpt><trkpt lat="44.34213583319396" lon="11.688209423833174"><ele>58.00000000000001</ele><time>2026-04-18T13:00:58Z</time></trkpt><trkpt lat="44.34218073780621" lon="11.688285513999782"><ele>57.71428571428572</ele><time>2026-04-18T13:00:59Z</time></trkpt><trkpt lat="44.34223064262173" lon="11.688357304757783"><ele>57.42857142857143</ele><time>2026-04-18T13:01:00Z</time></trkpt><trkpt lat="44.342283064906" lon="11.688424620585481"><ele>57.142857142857146</ele><time>2026-04-18T13:01:01Z</time></trkpt><trkpt lat="44.34233418181098" lon="11.688494784279158"><ele>56.85714285714286</ele><time>2026-04-18T13:01:02Z</time></trkpt><trkpt lat="44.34238468642658" lon="11.68856615389191"><ele>56.57142857142857</ele><time>2026-04-18T13:01:03Z</time></trkpt><trkpt lat="44.342434957925526" lon="11.68863670664595"><ele>56.285714285714285</ele><time>2026-04-18T13:01:04Z</time></trkpt><trkpt lat="44.34248518312906" lon="11.688707771483841"><ele>56.0</ele><time>2026-04-18T13:01:05Z</time></trkpt><trkpt lat="44.34253475630597" lon="11.688779108178785"><ele>56.0</ele><time>2026-04-18T13:01:06Z</time></trkpt><trkpt lat="44.34258313112286" lon="11.688850901378043"><ele>56.0</ele><time>2026-04-18T13:01:07Z</time></trkpt><trkpt lat="44.34263417092933" lon="11.688920974463612"><ele>56.0</ele><time>2026-04-18T13:01:08Z</time></trkpt><trkpt lat="44.342685593172305" lon="11.688989167213258"><ele>56.0</ele><time>2026-04-18T13:01:09Z</time></trkpt><trkpt lat="44.34273474786238" lon="11.689058003810347"><ele>56.0</ele><time>2026-04-18T13:01:10Z</time></trkpt><trkpt lat="44.34278333476518" lon="11.689127142326848"><ele>56.0</ele><time>2026-04-18T13:01:11Z</time></trkpt><trkpt lat="44.3428330481097" lon="11.689192742417235"><ele>56.0</ele><time>2026-04-18T13:01:12Z</time></trkpt><trkpt lat="44.34288155164564" lon="11.689262166577652"><ele>56.0</ele><time>2026-04-18T13:01:13Z</time></trkpt><trkpt lat="44.3429297355468" lon="11.689332820766769"><ele>56.0</ele><time>2026-04-18T13:01:14Z</time></trkpt><trkpt lat="44.342982268143714" lon="11.689403123259737"><ele>56.0</ele><time>2026-04-18T13:01:15Z</time></trkpt><trkpt lat="44.34303197871724" lon="11.689470718070902"><ele>56.0</ele><time>2026-04-18T13:01:16Z</time></trkpt><trkpt lat="44.34308240869616" lon="11.689538507163538"><ele>56.0</ele><time>2026-04-18T13:01:17Z</time></trkpt><trkpt lat="44.34313092491664" lon="11.689608370095552"><ele>56.0</ele><time>2026-04-18T13:01:18Z</time></trkpt><trkpt lat="44.34317654493607" lon="11.689681391967898"><ele>56.0</ele><time>2026-04-18T13:01:19Z</time></trkpt><trkpt lat="44.343224015673435" lon="11.689752363138249"><ele>55.857142857142854</ele><time>2026-04-18T13:01:20Z</time></trkpt><trkpt lat="44.343271536828915" lon="11.689820502204878"><ele>55.714285714285715</ele><time>2026-04-18T13:01:21Z</time></trkpt><trkpt lat="44.34332125073237" lon="11.68988760770309"><ele>55.57142857142857</ele><time>2026-04-18T13:01:22Z</time></trkpt><trkpt lat="44.3433731426943" lon="11.689956748173241"><ele>55.42857142857143</ele><time>2026-04-18T13:01:23Z</time></trkpt><trkpt lat="44.34342252556215" lon="11.690025788970797"><ele>55.285714285714285</ele><time>2026-04-18T13:01:24Z</time></trkpt><trkpt lat="44.343472684993664" lon="11.69009675041428"><ele>55.14285714285714</ele><time>2026-04-18T13:01:25Z</time></trkpt><trkpt lat="44.34352522458181" lon="11.690170937024355"><ele>55.0</ele><time>2026-04-18T13:01:26Z</time></trkpt><trkpt lat="44.3435758908876" lon="11.690243694351368"><ele>54.857142857142854</ele><time>2026-04-18T13:01:27Z</time></trkpt><trkpt lat="44.343625494579875" lon="11.690311819821542"><ele>54.714285714285715</ele><time>2026-04-18T13:01:28Z</time></trkpt><trkpt lat="44.343677606200686" lon="11.690382037298127"><ele>54.57142857142857</ele><time>2026-04-18T13:01:29Z</time></trkpt><trkpt lat="44.34372801829015" lon="11.690454132270787"><ele>54.42857142857143</ele><time>2026-04-18T13:01:30Z</time></trkpt><trkpt lat="44.343778330456175" lon="11.690528029483122"><ele>54.285714285714285</ele><time>2026-04-18T13:01:31Z</time></trkpt><trkpt lat="44.34382812407144" lon="11.690600156279887"><ele>54.14285714285714</ele><time>2026-04-18T13:01:32Z</time></trkpt><trkpt lat="44.343879730401135" lon="11.690673013517358"><ele>54.0</ele><time>2026-04-18T13:01:33Z</time></trkpt><trkpt lat="44.343929020942156" lon="11.690746028431377"><ele>54.0</ele><time>2026-04-18T13:01:34Z</time></trkpt><trkpt lat="44.34398183293904" lon="11.690819924986267"><ele>54.0</ele><time>2026-04-18T13:01:35Z</time></trkpt><trkpt lat="44.34403600162908" lon="11.690892248484433"><ele>54.0</ele><time>2026-04-18T13:01:36Z</time></trkpt><trkpt lat="44.34409140088066" lon="11.690961507435661"><ele>54.0</ele><time>2026-04-18T13:01:37Z</time></trkpt><trkpt lat="44.34414424704859" lon="11.691031390684403"><ele>54.0</ele><time>2026-04-18T13:01:38Z</time></trkpt><trkpt lat="44.34419609401593" lon="11.691104824242256"><ele>54.0</ele><time>2026-04-18T13:01:39Z</time></trkpt><trkpt lat="44.344246447360135" lon="11.691178091686384"><ele>54.0</ele><time>2026-04-18T13:01:40Z</time></trkpt><trkpt lat="44.344297082094926" lon="11.691252032355411"><ele>53.857142857142854</ele><time>2026-04-18T13:01:41Z</time></trkpt><trkpt lat="44.34434864342965" lon="11.691324876964895"><ele>53.71428571428571</ele><time>2026-04-18T13:01:42Z</time></trkpt><trkpt lat="44.34440004930429" lon="11.691397712844273"><ele>53.57142857142857</ele><time>2026-04-18T13:01:43Z</time></trkpt><trkpt lat="44.34445276508231" lon="11.691471526061763"><ele>53.42857142857143</ele><time>2026-04-18T13:01:44Z</time></trkpt><trkpt lat="44.34450502778161" lon="11.691544802615342"><ele>53.285714285714285</ele><time>2026-04-18T13:01:45Z</time></trkpt><trkpt lat="44.34456116623373" lon="11.691617418871248"><ele>53.142857142857146</ele><time>2026-04-18T13:01:46Z</time></trkpt><trkpt lat="44.34460996766951" lon="11.691694333755544"><ele>53.0</ele><time>2026-04-18T13:01:47Z</time></trkpt><trkpt lat="44.34466033201288" lon="11.691768253238951"><ele>53.0</ele><time>2026-04-18T13:01:48Z</time></trkpt><trkpt lat="44.34470652083965" lon="11.69184999642104"><ele>53.0</ele><time>2026-04-18T13:01:49Z</time></trkpt><trkpt lat="44.34475240595804" lon="11.691931785308169"><ele>53.0</ele><time>2026-04-18T13:01:50Z</time></trkpt><trkpt lat="44.34479949157401" lon="11.692013411845366"><ele>53.0</ele><time>2026-04-18T13:01:51Z</time></trkpt><trkpt lat="44.34484479903084" lon="11.692092951661456"><ele>53.0</ele><time>2026-04-18T13:01:52Z</time></trkpt><trkpt lat="44.34488814865098" lon="11.692179921744591"><ele>53.0</ele><time>2026-04-18T13:01:53Z</time></trkpt><trkpt lat="44.344925544881036" lon="11.692267863852408"><ele>53.0</ele><time>2026-04-18T13:01:54Z</time></trkpt><trkpt lat="44.34496359696514" lon="11.692358468609985"><ele>53.142857142857146</ele><time>2026-04-18T13:01:55Z</time></trkpt><trkpt lat="44.34500436626058" lon="11.692440755035808"><ele>53.285714285714285</ele><time>2026-04-18T13:01:56Z</time></trkpt><trkpt lat="44.34504055863379" lon="11.692528840011816"><ele>53.42857142857143</ele><time>2026-04-18T13:01:57Z</time></trkpt><trkpt lat="44.34507526547509" lon="11.692613130088882"><ele>53.57142857142857</ele><time>2026-04-18T13:01:58Z</time></trkpt><trkpt lat="44.34511278797186" lon="11.692701929561878"><ele>53.71428571428571</ele><time>2026-04-18T13:01:59Z</time></trkpt><trkpt lat="44.34514807142282" lon="11.69278804883031"><ele>53.857142857142854</ele><time>2026-04-18T13:02:00Z</time></trkpt><trkpt lat="44.34518361771122" lon="11.692876542816862"><ele>54.0</ele><time>2026-04-18T13:02:01Z</time></trkpt><trkpt lat="44.345219368048554" lon="11.692963732503824"><ele>54.14285714285714</ele><time>2026-04-18T13:02:02Z</time></trkpt><trkpt lat="44.34524933626303" lon="11.693063218125777"><ele>54.285714285714285</ele><time>2026-04-18T13:02:03Z</time></trkpt><trkpt lat="44.34528263063999" lon="11.693151830840616"><ele>54.42857142857143</ele><time>2026-04-18T13:02:04Z</time></trkpt><trkpt lat="44.34531171666859" lon="11.693245087073553"><ele>54.57142857142857</ele><time>2026-04-18T13:02:05Z</time></trkpt><trkpt lat="44.34533549645465" lon="11.693346874011143"><ele>54.714285714285715</ele><time>2026-04-18T13:02:06Z</time></trkpt><trkpt lat="44.34535385564757" lon="11.69343979374301"><ele>54.857142857142854</ele><time>2026-04-18T13:02:07Z</time></trkpt><trkpt lat="44.34538280309244" lon="11.693536623998089"><ele>55.0</ele><time>2026-04-18T13:02:08Z</time></trkpt><trkpt lat="44.34540523204533" lon="11.693631419719008"><ele>54.99999999999999</ele><time>2026-04-18T13:02:09Z</time></trkpt><trkpt lat="44.34543555208756" lon="11.693732309919627"><ele>55.0</ele><time>2026-04-18T13:02:10Z</time></trkpt><trkpt lat="44.34546025115163" lon="11.693829547486725"><ele>55.0</ele><time>2026-04-18T13:02:11Z</time></trkpt><trkpt lat="44.34547704888824" lon="11.69393310558059"><ele>55.0</ele><time>2026-04-18T13:02:11.999Z</time></trkpt><trkpt lat="44.34549539197794" lon="11.694018924947018"><ele>55.0</ele><time>2026-04-18T13:02:12.999Z</time></trkpt><trkpt lat="44.345529210443125" lon="11.694126363778787"><ele>54.99999999999999</ele><time>2026-04-18T13:02:13.999Z</time></trkpt><trkpt lat="44.345551907860504" lon="11.694220118493954"><ele>55.0</ele><time>2026-04-18T13:02:14.999Z</time></trkpt><trkpt lat="44.34555395088322" lon="11.694322888621954"><ele>54.99999999999999</ele><time>2026-04-18T13:02:15.999Z</time></trkpt><trkpt lat="44.345570656866826" lon="11.694410770406254"><ele>55.0</ele><time>2026-04-18T13:02:16.999Z</time></trkpt><trkpt lat="44.34560748609289" lon="11.694513495085253"><ele>55.0</ele><time>2026-04-18T13:02:17.999Z</time></trkpt><trkpt lat="44.345632485161545" lon="11.694605626332036"><ele>55.0</ele><time>2026-04-18T13:02:18.999Z</time></trkpt><trkpt lat="44.34566010341471" lon="11.694707559849201"><ele>55.0</ele><time>2026-04-18T13:02:19.999Z</time></trkpt><trkpt lat="44.345679583597075" lon="11.69480119105801"><ele>54.99999999999999</ele><time>2026-04-18T13:02:20.999Z</time></trkpt><trkpt lat="44.34570427574376" lon="11.694905126549452"><ele>55.0</ele><time>2026-04-18T13:02:21.999Z</time></trkpt><trkpt lat="44.34573076161785" lon="11.694997488709507"><ele>54.71428571428571</ele><time>2026-04-18T13:02:22.999Z</time></trkpt><trkpt lat="44.34577201352785" lon="11.695079182127468"><ele>54.42857142857143</ele><time>2026-04-18T13:02:23.999Z</time></trkpt><trkpt lat="44.34581175012049" lon="11.695153429129249"><ele>54.14285714285714</ele><time>2026-04-18T13:02:24.999Z</time></trkpt><trkpt lat="44.34585578629528" lon="11.695222437169356"><ele>53.857142857142854</ele><time>2026-04-18T13:02:25.999Z</time></trkpt><trkpt lat="44.34589695449206" lon="11.695291264396227"><ele>53.57142857142857</ele><time>2026-04-18T13:02:26.999Z</time></trkpt><trkpt lat="44.345943450514724" lon="11.695356058685057"><ele>53.285714285714285</ele><time>2026-04-18T13:02:27.999Z</time></trkpt><trkpt lat="44.34599404489954" lon="11.695424146583989"><ele>53.0</ele><time>2026-04-18T13:02:28.999Z</time></trkpt><trkpt lat="44.3460471511164" lon="11.695490539402513"><ele>53.0</ele><time>2026-04-18T13:02:29.999Z</time></trkpt><trkpt lat="44.34609964530936" lon="11.695551481945385"><ele>53.0</ele><time>2026-04-18T13:02:31Z</time></trkpt><trkpt lat="44.346154780066875" lon="11.695612263213548"><ele>53.0</ele><time>2026-04-18T13:02:32Z</time></trkpt><trkpt lat="44.3462114092386" lon="11.695670668920469"><ele>53.0</ele><time>2026-04-18T13:02:33Z</time></trkpt><trkpt lat="44.34626669991476" lon="11.695723216438118"><ele>53.0</ele><time>2026-04-18T13:02:34Z</time></trkpt><trkpt lat="44.34632770943926" lon="11.6957699103967"><ele>53.0</ele><time>2026-04-18T13:02:35Z</time></trkpt><trkpt lat="44.34638741408603" lon="11.695819660241161"><ele>53.0</ele><time>2026-04-18T13:02:36Z</time></trkpt><trkpt lat="44.346502604784774" lon="11.695918351709762"><ele>53.0</ele><time>2026-04-18T13:02:38Z</time></trkpt><trkpt lat="44.34656171237101" lon="11.695959065650053"><ele>53.0</ele><time>2026-04-18T13:02:39Z</time></trkpt><trkpt lat="44.346626466324366" lon="11.696013396128965"><ele>53.0</ele><time>2026-04-18T13:02:40Z</time></trkpt><trkpt lat="44.34668807451253" lon="11.696066241403699"><ele>53.0</ele><time>2026-04-18T13:02:41Z</time></trkpt><trkpt lat="44.34674870574842" lon="11.696115990693972"><ele>53.0</ele><time>2026-04-18T13:02:42Z</time></trkpt><trkpt lat="44.34681021597478" lon="11.696169919650428"><ele>53.0</ele><time>2026-04-18T13:02:43Z</time></trkpt><trkpt lat="44.3468740845753" lon="11.696226317293082"><ele>53.0</ele><time>2026-04-18T13:02:44Z</time></trkpt><trkpt lat="44.3469349035505" lon="11.696285318429366"><ele>52.833333333333336</ele><time>2026-04-18T13:02:45Z</time></trkpt><trkpt lat="44.34700304471528" lon="11.696343629834828"><ele>52.66666666666667</ele><time>2026-04-18T13:02:46Z</time></trkpt><trkpt lat="44.347069954480915" lon="11.696393784395516"><ele>52.5</ele><time>2026-04-18T13:02:47Z</time></trkpt><trkpt lat="44.34714441218886" lon="11.69643525595907"><ele>52.33333333333333</ele><time>2026-04-18T13:02:48Z</time></trkpt><trkpt lat="44.347207968189146" lon="11.696470214794441"><ele>52.166666666666664</ele><time>2026-04-18T13:02:49Z</time></trkpt><trkpt lat="44.34727445996654" lon="11.69653731260909"><ele>52.0</ele><time>2026-04-18T13:02:50Z</time></trkpt><trkpt lat="44.347333722292724" lon="11.696585309908878"><ele>52.0</ele><time>2026-04-18T13:02:51Z</time></trkpt><trkpt lat="44.34739682646085" lon="11.696635915229823"><ele>52.0</ele><time>2026-04-18T13:02:52Z</time></trkpt><trkpt lat="44.34746394704182" lon="11.696689273323557"><ele>52.0</ele><time>2026-04-18T13:02:53Z</time></trkpt><trkpt lat="44.34752593195265" lon="11.696749080502276"><ele>52.0</ele><time>2026-04-18T13:02:54Z</time></trkpt><trkpt lat="44.34758763920911" lon="11.696802774587228"><ele>52.0</ele><time>2026-04-18T13:02:55Z</time></trkpt><trkpt lat="44.34764978277257" lon="11.696859185721545"><ele>52.0</ele><time>2026-04-18T13:02:56Z</time></trkpt><trkpt lat="44.34771313255107" lon="11.696916301092855"><ele>52.0</ele><time>2026-04-18T13:02:57Z</time></trkpt><trkpt lat="44.34777518402844" lon="11.696971062556033"><ele>52.0</ele><time>2026-04-18T13:02:58Z</time></trkpt><trkpt lat="44.3478371045544" lon="11.697024132172558"><ele>52.0</ele><time>2026-04-18T13:02:59Z</time></trkpt><trkpt lat="44.34789927388265" lon="11.697079287562614"><ele>52.0</ele><time>2026-04-18T13:03:00Z</time></trkpt><trkpt lat="44.34796281355615" lon="11.697134927009927"><ele>52.0</ele><time>2026-04-18T13:03:01Z</time></trkpt><trkpt lat="44.34802507218303" lon="11.697189610019114"><ele>52.0</ele><time>2026-04-18T13:03:02Z</time></trkpt><trkpt lat="44.348088166897654" lon="11.697244383977967"><ele>52.0</ele><time>2026-04-18T13:03:03Z</time></trkpt><trkpt lat="44.348149677945564" lon="11.697298636058882"><ele>52.0</ele><time>2026-04-18T13:03:04Z</time></trkpt><trkpt lat="44.3482125818092" lon="11.697352848435957"><ele>52.0</ele><time>2026-04-18T13:03:05Z</time></trkpt><trkpt lat="44.34827534502705" lon="11.697409087450444"><ele>52.0</ele><time>2026-04-18T13:03:06Z</time></trkpt><trkpt lat="44.34833699182062" lon="11.69746980177362"><ele>52.0</ele><time>2026-04-18T13:03:07Z</time></trkpt><trkpt lat="44.348394865157594" lon="11.697524478906674"><ele>52.0</ele><time>2026-04-18T13:03:08Z</time></trkpt><trkpt lat="44.34845586566801" lon="11.697576877449505"><ele>52.0</ele><time>2026-04-18T13:03:09Z</time></trkpt><trkpt lat="44.34851168324991" lon="11.697627408391945"><ele>52.0</ele><time>2026-04-18T13:03:10Z</time></trkpt><trkpt lat="44.34856898811101" lon="11.697679142139732"><ele>52.0</ele><time>2026-04-18T13:03:11Z</time></trkpt><trkpt lat="44.34862268832077" lon="11.697728281930585"><ele>51.99999999999999</ele><time>2026-04-18T13:03:12Z</time></trkpt><trkpt lat="44.34867863659778" lon="11.697774656869234"><ele>52.0</ele><time>2026-04-18T13:03:13Z</time></trkpt><trkpt lat="44.34877805152435" lon="11.697872755873911"><ele>52.0</ele><time>2026-04-18T13:03:15Z</time></trkpt><trkpt lat="44.34883694730044" lon="11.697919823292988"><ele>52.0</ele><time>2026-04-18T13:03:16Z</time></trkpt><trkpt lat="44.34889133753197" lon="11.697968251986195"><ele>51.99999999999999</ele><time>2026-04-18T13:03:17Z</time></trkpt><trkpt lat="44.348948109346686" lon="11.698018326631216"><ele>52.0</ele><time>2026-04-18T13:03:18Z</time></trkpt><trkpt lat="44.349005349699176" lon="11.698069316537003"><ele>52.14285714285714</ele><time>2026-04-18T13:03:19Z</time></trkpt><trkpt lat="44.349060738346054" lon="11.698118535556441"><ele>52.28571428571429</ele><time>2026-04-18T13:03:20Z</time></trkpt><trkpt lat="44.34911957502371" lon="11.698168302984188"><ele>52.42857142857143</ele><time>2026-04-18T13:03:21Z</time></trkpt><trkpt lat="44.34918125501297" lon="11.69821993569805"><ele>52.57142857142857</ele><time>2026-04-18T13:03:22Z</time></trkpt><trkpt lat="44.34923819085496" lon="11.698273982733786"><ele>52.71428571428571</ele><time>2026-04-18T13:03:23Z</time></trkpt><trkpt lat="44.349295044823236" lon="11.6983271838071"><ele>52.85714285714286</ele><time>2026-04-18T13:03:24Z</time></trkpt><trkpt lat="44.34935610329398" lon="11.698384085000853"><ele>53.0</ele><time>2026-04-18T13:03:25Z</time></trkpt><trkpt lat="44.34941457394716" lon="11.698438300728357"><ele>53.0</ele><time>2026-04-18T13:03:26Z</time></trkpt><trkpt lat="44.3494748720587" lon="11.698490678310046"><ele>53.0</ele><time>2026-04-18T13:03:27Z</time></trkpt><trkpt lat="44.34953333308576" lon="11.69854275788094"><ele>53.0</ele><time>2026-04-18T13:03:28Z</time></trkpt><trkpt lat="44.349593108056546" lon="11.698599196725691"><ele>53.0</ele><time>2026-04-18T13:03:29Z</time></trkpt><trkpt lat="44.34965262322998" lon="11.698654903407553"><ele>53.0</ele><time>2026-04-18T13:03:30Z</time></trkpt><trkpt lat="44.349711963651465" lon="11.698708526189732"><ele>53.0</ele><time>2026-04-18T13:03:31Z</time></trkpt><trkpt lat="44.34977261346834" lon="11.698762266320857"><ele>53.0</ele><time>2026-04-18T13:03:32Z</time></trkpt><trkpt lat="44.34983058413112" lon="11.698820784056124"><ele>52.50000000000001</ele><time>2026-04-18T13:03:33Z</time></trkpt><trkpt lat="44.3498817054135" lon="11.698891262358648"><ele>52.0</ele><time>2026-04-18T13:03:34Z</time></trkpt><trkpt lat="44.349923524709716" lon="11.698976934063982"><ele>51.5</ele><time>2026-04-18T13:03:35Z</time></trkpt><trkpt lat="44.34995933153077" lon="11.69905901569746"><ele>51.0</ele><time>2026-04-18T13:03:36Z</time></trkpt><trkpt lat="44.34998814935134" lon="11.699151347900617"><ele>50.50000000000001</ele><time>2026-04-18T13:03:37Z</time></trkpt><trkpt lat="44.350002456487495" lon="11.699285144098203"><ele>50.0</ele><time>2026-04-18T13:03:39Z</time></trkpt><trkpt lat="44.35001601461628" lon="11.699384936788302"><ele>49.833333333333336</ele><time>2026-04-18T13:03:41.001Z</time></trkpt><trkpt lat="44.350032908815194" lon="11.699542762409413"><ele>49.66666666666667</ele><time>2026-04-18T13:03:43.001Z</time></trkpt><trkpt lat="44.350045594076896" lon="11.699629210240076"><ele>49.5</ele><time>2026-04-18T13:03:44.001Z</time></trkpt><trkpt lat="44.350105958266795" lon="11.699775898114284"><ele>49.33333333333333</ele><time>2026-04-18T13:03:46.001Z</time></trkpt><trkpt lat="44.350171447833645" lon="11.699819120836395"><ele>49.166666666666664</ele><time>2026-04-18T13:03:47.001Z</time></trkpt><trkpt lat="44.35023245582065" lon="11.699851928695596"><ele>49.0</ele><time>2026-04-18T13:03:48.001Z</time></trkpt><trkpt lat="44.35029664692427" lon="11.699862171611288"><ele>49.0</ele><time>2026-04-18T13:03:49.001Z</time></trkpt><trkpt lat="44.350363500323375" lon="11.699871828201054"><ele>49.0</ele><time>2026-04-18T13:03:50.001Z</time></trkpt><trkpt lat="44.3504927447118" lon="11.699903953778461"><ele>49.0</ele><time>2026-04-18T13:03:52.001Z</time></trkpt><trkpt lat="44.350600155659514" lon="11.700005773766888"><ele>49.0</ele><time>2026-04-18T13:03:54.001Z</time></trkpt><trkpt lat="44.350649712958756" lon="11.700068119798718"><ele>49.0</ele><time>2026-04-18T13:03:55.001Z</time></trkpt><trkpt lat="44.35069219285923" lon="11.700136205980263"><ele>49.142857142857146</ele><time>2026-04-18T13:03:56.001Z</time></trkpt><trkpt lat="44.350736578910876" lon="11.700207872382062"><ele>49.285714285714285</ele><time>2026-04-18T13:03:57.001Z</time></trkpt><trkpt lat="44.35078009779164" lon="11.700277820168528"><ele>49.42857142857143</ele><time>2026-04-18T13:03:58.001Z</time></trkpt><trkpt lat="44.35081058515156" lon="11.70035769176619"><ele>49.57142857142857</ele><time>2026-04-18T13:03:59.001Z</time></trkpt><trkpt lat="44.35082491464222" lon="11.700449549085128"><ele>49.714285714285715</ele><time>2026-04-18T13:04:00.001Z</time></trkpt><trkpt lat="44.35086978490446" lon="11.700516250049162"><ele>49.85714285714286</ele><time>2026-04-18T13:04:01.001Z</time></trkpt><trkpt lat="44.350942865429715" lon="11.700628608308346"><ele>50.0</ele><time>2026-04-18T13:04:03.001Z</time></trkpt><trkpt lat="44.35103622506393" lon="11.700729653230644"><ele>50.0</ele><time>2026-04-18T13:04:05.001Z</time></trkpt><trkpt lat="44.35114154488161" lon="11.700842737284262"><ele>50.0</ele><time>2026-04-18T13:04:07.001Z</time></trkpt><trkpt lat="44.351222915872235" lon="11.700952252193556"><ele>50.0</ele><time>2026-04-18T13:04:09.001Z</time></trkpt><trkpt lat="44.35131676035556" lon="11.701057056121188"><ele>50.0</ele><time>2026-04-18T13:04:11.001Z</time></trkpt><trkpt lat="44.35141776981597" lon="11.701153260913328"><ele>50.16666666666667</ele><time>2026-04-18T13:04:13.001Z</time></trkpt><trkpt lat="44.35147434610017" lon="11.701200340517788"><ele>50.333333333333336</ele><time>2026-04-18T13:04:14.001Z</time></trkpt><trkpt lat="44.3515861205409" lon="11.701293542555613"><ele>50.5</ele><time>2026-04-18T13:04:16.001Z</time></trkpt><trkpt lat="44.35164666011662" lon="11.701341577426636"><ele>50.66666666666667</ele><time>2026-04-18T13:04:17.001Z</time></trkpt><trkpt lat="44.35170371023772" lon="11.701387863376262"><ele>50.833333333333336</ele><time>2026-04-18T13:04:17.999Z</time></trkpt><trkpt lat="44.35176570854639" lon="11.701430252121721"><ele>51.0</ele><time>2026-04-18T13:04:18.999Z</time></trkpt><trkpt lat="44.351825075909495" lon="11.701476722051101"><ele>51.0</ele><time>2026-04-18T13:04:19.999Z</time></trkpt><trkpt lat="44.351883689524065" lon="11.701513305253028"><ele>51.0</ele><time>2026-04-18T13:04:20.999Z</time></trkpt><trkpt lat="44.351985324053636" lon="11.701598998376753"><ele>51.0</ele><time>2026-04-18T13:04:22.999Z</time></trkpt><trkpt lat="44.35209319977821" lon="11.701678025044806"><ele>51.0</ele><time>2026-04-18T13:04:24.999Z</time></trkpt><trkpt lat="44.35215317887382" lon="11.701722837593735"><ele>51.0</ele><time>2026-04-18T13:04:25.999Z</time></trkpt><trkpt lat="44.35220922122591" lon="11.701766526676971"><ele>51.0</ele><time>2026-04-18T13:04:26.999Z</time></trkpt><trkpt lat="44.35232374493646" lon="11.701854150280953"><ele>50.833333333333336</ele><time>2026-04-18T13:04:28.999Z</time></trkpt><trkpt lat="44.35243550265099" lon="11.701931078941746"><ele>50.66666666666667</ele><time>2026-04-18T13:04:30.999Z</time></trkpt><trkpt lat="44.35249514071836" lon="11.701979034984719"><ele>50.5</ele><time>2026-04-18T13:04:31.999Z</time></trkpt><trkpt lat="44.35255370135254" lon="11.702020188561454"><ele>50.333333333333336</ele><time>2026-04-18T13:04:32.999Z</time></trkpt><trkpt lat="44.35266326402764" lon="11.70209606231981"><ele>50.16666666666667</ele><time>2026-04-18T13:04:34.999Z</time></trkpt><trkpt lat="44.35272108111022" lon="11.702139149788302"><ele>50.0</ele><time>2026-04-18T13:04:35.999Z</time></trkpt><trkpt lat="44.3527783615137" lon="11.7021838246328"><ele>50.00000000000001</ele><time>2026-04-18T13:04:36.999Z</time></trkpt><trkpt lat="44.35283746908537" lon="11.702225132471966"><ele>50.0</ele><time>2026-04-18T13:04:37.999Z</time></trkpt><trkpt lat="44.35289436320473" lon="11.70226997056732"><ele>50.0</ele><time>2026-04-18T13:04:38.999Z</time></trkpt><trkpt lat="44.35300389894074" lon="11.702342085524243"><ele>50.0</ele><time>2026-04-18T13:04:41Z</time></trkpt><trkpt lat="44.353115068100315" lon="11.702413461546067"><ele>50.00000000000001</ele><time>2026-04-18T13:04:43Z</time></trkpt><trkpt lat="44.353170784440785" lon="11.702458297134427"><ele>50.0</ele><time>2026-04-18T13:04:44Z</time></trkpt><trkpt lat="44.35328018484621" lon="11.702542376161524"><ele>50.00000000000001</ele><time>2026-04-18T13:04:46Z</time></trkpt><trkpt lat="44.35333973690069" lon="11.702581603298398"><ele>50.0</ele><time>2026-04-18T13:04:47Z</time></trkpt><trkpt lat="44.35339545184545" lon="11.702622953875125"><ele>50.0</ele><time>2026-04-18T13:04:48Z</time></trkpt><trkpt lat="44.353450414772766" lon="11.702668392733825"><ele>50.0</ele><time>2026-04-18T13:04:49Z</time></trkpt><trkpt lat="44.35350739596327" lon="11.702708321676372"><ele>50.0</ele><time>2026-04-18T13:04:50Z</time></trkpt><trkpt lat="44.35361364751281" lon="11.70279567169256"><ele>50.00000000000001</ele><time>2026-04-18T13:04:52Z</time></trkpt><trkpt lat="44.35366953278656" lon="11.702836981980626"><ele>50.0</ele><time>2026-04-18T13:04:53Z</time></trkpt><trkpt lat="44.353767102052295" lon="11.702909301104842"><ele>49.8</ele><time>2026-04-18T13:04:55Z</time></trkpt><trkpt lat="44.35385598071193" lon="11.70297599828686"><ele>49.6</ele><time>2026-04-18T13:04:57Z</time></trkpt><trkpt lat="44.35393745588372" lon="11.70304760390123"><ele>49.400000000000006</ele><time>2026-04-18T13:04:59Z</time></trkpt><trkpt lat="44.35401481944282" lon="11.703095443982773"><ele>49.2</ele><time>2026-04-18T13:05:01Z</time></trkpt><trkpt lat="44.35409063034466" lon="11.703143088251247"><ele>49.0</ele><time>2026-04-18T13:05:49.001Z</time></trkpt><trkpt lat="44.35418277468907" lon="11.703209029129486"><ele>49.0</ele><time>2026-04-18T13:05:52.001Z</time></trkpt><trkpt lat="44.354276509194214" lon="11.703250723295463"><ele>49.0</ele><time>2026-04-18T13:05:54.001Z</time></trkpt><trkpt lat="44.354369738019955" lon="11.703337092265322"><ele>49.0</ele><time>2026-04-18T13:05:56.001Z</time></trkpt><trkpt lat="44.354475875162024" lon="11.703405282156876"><ele>49.0</ele><time>2026-04-18T13:05:58.001Z</time></trkpt><trkpt lat="44.35453289202209" lon="11.70344584727088"><ele>49.0</ele><time>2026-04-18T13:05:59.001Z</time></trkpt><trkpt lat="44.35464521315" lon="11.703520893086438"><ele>49.666666666666664</ele><time>2026-04-18T13:06:01.001Z</time></trkpt><trkpt lat="44.3547493131848" lon="11.703615558536304"><ele>50.33333333333333</ele><time>2026-04-18T13:06:03.001Z</time></trkpt><trkpt lat="44.35480572593276" lon="11.703660586117703"><ele>51.0</ele><time>2026-04-18T13:06:04.001Z</time></trkpt><trkpt lat="44.354861807791465" lon="11.703700612602567"><ele>51.66666666666667</ele><time>2026-04-18T13:06:05.001Z</time></trkpt><trkpt lat="44.35491888443444" lon="11.703738499603483"><ele>52.333333333333336</ele><time>2026-04-18T13:06:06.001Z</time></trkpt><trkpt lat="44.355028627674336" lon="11.703818198704942"><ele>53.0</ele><time>2026-04-18T13:06:08.001Z</time></trkpt><trkpt lat="44.35513914511631" lon="11.703897888024324"><ele>53.0</ele><time>2026-04-18T13:06:10.001Z</time></trkpt><trkpt lat="44.355197918804286" lon="11.703944180433531"><ele>53.0</ele><time>2026-04-18T13:06:11.001Z</time></trkpt><trkpt lat="44.35530538127303" lon="11.704021589348645"><ele>53.0</ele><time>2026-04-18T13:06:13.001Z</time></trkpt><trkpt lat="44.35541055645343" lon="11.70409825140669"><ele>53.0</ele><time>2026-04-18T13:06:15.001Z</time></trkpt><trkpt lat="44.35552148649272" lon="11.704174865464092"><ele>53.0</ele><time>2026-04-18T13:06:17.001Z</time></trkpt><trkpt lat="44.35558103656633" lon="11.70421356080531"><ele>52.833333333333336</ele><time>2026-04-18T13:06:18.001Z</time></trkpt><trkpt lat="44.35563887778295" lon="11.704259258567832"><ele>52.66666666666667</ele><time>2026-04-18T13:06:19.001Z</time></trkpt><trkpt lat="44.355745087267856" lon="11.704346438147759"><ele>52.5</ele><time>2026-04-18T13:06:21.001Z</time></trkpt><trkpt lat="44.35580240367059" lon="11.704383094652346"><ele>52.33333333333333</ele><time>2026-04-18T13:06:22.001Z</time></trkpt><trkpt lat="44.35586210659814" lon="11.704413757985972"><ele>52.166666666666664</ele><time>2026-04-18T13:06:23.001Z</time></trkpt><trkpt lat="44.3559227057612" lon="11.704448580861376"><ele>52.0</ele><time>2026-04-18T13:06:23.999Z</time></trkpt><trkpt lat="44.356029851241615" lon="11.704531183577545"><ele>52.0</ele><time>2026-04-18T13:06:25.999Z</time></trkpt><trkpt lat="44.3561345249941" lon="11.704622427604207"><ele>52.0</ele><time>2026-04-18T13:06:27.999Z</time></trkpt><trkpt lat="44.3562392396763" lon="11.704702939572904"><ele>52.0</ele><time>2026-04-18T13:06:29.999Z</time></trkpt><trkpt lat="44.35634338479737" lon="11.704780531224428"><ele>52.0</ele><time>2026-04-18T13:06:31.999Z</time></trkpt><trkpt lat="44.35645244566985" lon="11.70485845397679"><ele>51.6</ele><time>2026-04-18T13:06:33.999Z</time></trkpt><trkpt lat="44.35650903600703" lon="11.704897472303768"><ele>51.2</ele><time>2026-04-18T13:06:35Z</time></trkpt><trkpt lat="44.356618277904566" lon="11.704968807125145"><ele>50.8</ele><time>2026-04-18T13:06:36.999Z</time></trkpt><trkpt lat="44.35672403884154" lon="11.705049299068271"><ele>50.4</ele><time>2026-04-18T13:06:39Z</time></trkpt><trkpt lat="44.35681697153721" lon="11.705125599315187"><ele>50.0</ele><time>2026-04-18T13:06:41Z</time></trkpt><trkpt lat="44.35690357048037" lon="11.705147988483544"><ele>50.2</ele><time>2026-04-18T13:06:43Z</time></trkpt><trkpt lat="44.3568461015434" lon="11.705287860021558"><ele>50.4</ele><time>2026-04-18T13:06:44Z</time></trkpt><trkpt lat="44.356769072017144" lon="11.705388149910888"><ele>50.599999999999994</ele><time>2026-04-18T13:06:46Z</time></trkpt><trkpt lat="44.35676633509116" lon="11.705542567980384"><ele>50.8</ele><time>2026-04-18T13:06:48Z</time></trkpt><trkpt lat="44.35677124142186" lon="11.705656630321949"><ele>51.0</ele><time>2026-04-18T13:06:50Z</time></trkpt><trkpt lat="44.3567134201775" lon="11.70579402673879"><ele>51.0</ele><time>2026-04-18T13:06:52Z</time></trkpt><trkpt lat="44.35665168056969" lon="11.705930146517726"><ele>51.0</ele><time>2026-04-18T13:06:54Z</time></trkpt><trkpt lat="44.356597290549" lon="11.706074868940945"><ele>51.0</ele><time>2026-04-18T13:06:56Z</time></trkpt><trkpt lat="44.35654927102163" lon="11.706222230836486"><ele>51.0</ele><time>2026-04-18T13:06:58Z</time></trkpt><trkpt lat="44.35652452451994" lon="11.706385140756646"><ele>51.0</ele><time>2026-04-18T13:07:00Z</time></trkpt><trkpt lat="44.35648873556564" lon="11.706483267191736"><ele>51.0</ele><time>2026-04-18T13:07:02Z</time></trkpt><trkpt lat="44.35663173650633" lon="11.706582633796538"><ele>51.0</ele><time>2026-04-18T13:07:03Z</time></trkpt><trkpt lat="44.356693080746595" lon="11.706610490497242"><ele>51.0</ele><time>2026-04-18T13:07:04Z</time></trkpt><trkpt lat="44.356749800969666" lon="11.70665081700509"><ele>51.0</ele><time>2026-04-18T13:07:05Z</time></trkpt><trkpt lat="44.35680514841599" lon="11.706696348503637"><ele>51.0</ele><time>2026-04-18T13:07:06Z</time></trkpt><trkpt lat="44.356860677508394" lon="11.70674552412088"><ele>51.0</ele><time>2026-04-18T13:07:07Z</time></trkpt><trkpt lat="44.3569166576244" lon="11.706787477136542"><ele>51.0</ele><time>2026-04-18T13:07:08Z</time></trkpt><trkpt lat="44.35697512171988" lon="11.706828313039548"><ele>51.0</ele><time>2026-04-18T13:07:09Z</time></trkpt><trkpt lat="44.35703166380384" lon="11.706871183168582"><ele>51.0</ele><time>2026-04-18T13:07:10Z</time></trkpt><trkpt lat="44.357089239383725" lon="11.706916082482643"><ele>51.0</ele><time>2026-04-18T13:07:11Z</time></trkpt><trkpt lat="44.35714764176889" lon="11.706964414679463"><ele>51.0</ele><time>2026-04-18T13:07:12Z</time></trkpt><trkpt lat="44.357200926489476" lon="11.707021393916147"><ele>51.0</ele><time>2026-04-18T13:07:13Z</time></trkpt><trkpt lat="44.35728702157063" lon="11.707155753244706"><ele>51.0</ele><time>2026-04-18T13:07:15Z</time></trkpt><trkpt lat="44.35732433569342" lon="11.707230105861624"><ele>51.0</ele><time>2026-04-18T13:07:16Z</time></trkpt><trkpt lat="44.35736063105774" lon="11.707305968071791"><ele>51.0</ele><time>2026-04-18T13:07:17Z</time></trkpt><trkpt lat="44.35739623074513" lon="11.707380838412842"><ele>51.0</ele><time>2026-04-18T13:07:18Z</time></trkpt><trkpt lat="44.357465390562936" lon="11.707532623744099"><ele>51.0</ele><time>2026-04-18T13:07:20Z</time></trkpt><trkpt lat="44.3575009738957" lon="11.707607709722994"><ele>51.0</ele><time>2026-04-18T13:07:21Z</time></trkpt><trkpt lat="44.357538315509395" lon="11.707684199833356"><ele>51.0</ele><time>2026-04-18T13:07:22Z</time></trkpt><trkpt lat="44.35757269561797" lon="11.707762752914586"><ele>51.0</ele><time>2026-04-18T13:07:23Z</time></trkpt><trkpt lat="44.357605708035386" lon="11.707840399623434"><ele>51.0</ele><time>2026-04-18T13:07:24Z</time></trkpt><trkpt lat="44.35763799128538" lon="11.707918442257792"><ele>51.0</ele><time>2026-04-18T13:07:25Z</time></trkpt><trkpt lat="44.357659253491875" lon="11.708009608011839"><ele>51.0</ele><time>2026-04-18T13:07:26Z</time></trkpt><trkpt lat="44.357652141525406" lon="11.708185116227677"><ele>51.0</ele><time>2026-04-18T13:07:28.001Z</time></trkpt><trkpt lat="44.357688713560414" lon="11.708268588710606"><ele>51.0</ele><time>2026-04-18T13:07:29.001Z</time></trkpt><trkpt lat="44.35774563885542" lon="11.708324451028568"><ele>51.0</ele><time>2026-04-18T13:07:30.001Z</time></trkpt><trkpt lat="44.357801743546005" lon="11.708378899559927"><ele>51.0</ele><time>2026-04-18T13:07:31.001Z</time></trkpt><trkpt lat="44.35785649508297" lon="11.708433033846008"><ele>51.0</ele><time>2026-04-18T13:07:32.001Z</time></trkpt><trkpt lat="44.35790895823312" lon="11.708489911310249"><ele>51.0</ele><time>2026-04-18T13:07:33.001Z</time></trkpt><trkpt lat="44.35795704929606" lon="11.708563450707047"><ele>51.0</ele><time>2026-04-18T13:07:34.001Z</time></trkpt><trkpt lat="44.35799776096678" lon="11.708645577710284"><ele>51.0</ele><time>2026-04-18T13:07:35.001Z</time></trkpt><trkpt lat="44.358033305151345" lon="11.708720548846918"><ele>50.57142857142857</ele><time>2026-04-18T13:07:36.001Z</time></trkpt><trkpt lat="44.35806987012788" lon="11.708797954249832"><ele>50.142857142857146</ele><time>2026-04-18T13:07:37.001Z</time></trkpt><trkpt lat="44.358106603992454" lon="11.708875180816634"><ele>49.71428571428571</ele><time>2026-04-18T13:07:38.001Z</time></trkpt><trkpt lat="44.3581433550659" lon="11.70895210712554"><ele>49.285714285714285</ele><time>2026-04-18T13:07:39.001Z</time></trkpt><trkpt lat="44.35817473545881" lon="11.709033241909683"><ele>48.857142857142854</ele><time>2026-04-18T13:07:40.001Z</time></trkpt><trkpt lat="44.35820103044899" lon="11.709120640504258"><ele>48.42857142857142</ele><time>2026-04-18T13:07:41.001Z</time></trkpt><trkpt lat="44.358212842280864" lon="11.709210194604418"><ele>48.0</ele><time>2026-04-18T13:07:42.001Z</time></trkpt><trkpt lat="44.35821438148646" lon="11.70929879641392"><ele>48.0</ele><time>2026-04-18T13:07:43.001Z</time></trkpt><trkpt lat="44.358213652890655" lon="11.709392286635996"><ele>48.0</ele><time>2026-04-18T13:07:44.001Z</time></trkpt><trkpt lat="44.35821237078862" lon="11.709484067796259"><ele>48.0</ele><time>2026-04-18T13:07:45.001Z</time></trkpt><trkpt lat="44.358201373093806" lon="11.709659190445223"><ele>48.0</ele><time>2026-04-18T13:07:47.001Z</time></trkpt><trkpt lat="44.35818759313102" lon="11.70974780783047"><ele>48.0</ele><time>2026-04-18T13:07:48.001Z</time></trkpt><trkpt lat="44.358166119460876" lon="11.709833210244957"><ele>48.0</ele><time>2026-04-18T13:07:49.001Z</time></trkpt><trkpt lat="44.35814646029382" lon="11.709918995512803"><ele>47.8</ele><time>2026-04-18T13:07:50.001Z</time></trkpt><trkpt lat="44.35813168767457" lon="11.710006440063735"><ele>47.599999999999994</ele><time>2026-04-18T13:07:51.001Z</time></trkpt><trkpt lat="44.3581018077556" lon="11.71016458462154"><ele>47.400000000000006</ele><time>2026-04-18T13:07:53.001Z</time></trkpt><trkpt lat="44.35806774791233" lon="11.710314460554432"><ele>47.2</ele><time>2026-04-18T13:07:55.001Z</time></trkpt><trkpt lat="44.358030998359666" lon="11.710457993310909"><ele>47.0</ele><time>2026-04-18T13:07:57.001Z</time></trkpt><trkpt lat="44.35800010793619" lon="11.710588098810812"><ele>47.400000000000006</ele><time>2026-04-18T13:07:59.001Z</time></trkpt><trkpt lat="44.3579740773145" lon="11.710687237383583"><ele>47.800000000000004</ele><time>2026-04-18T13:08:05.001Z</time></trkpt><trkpt lat="44.357943281470405" lon="11.710785699225891"><ele>48.2</ele><time>2026-04-18T13:08:09.001Z</time></trkpt><trkpt lat="44.35790964917177" lon="11.71086480268311"><ele>48.6</ele><time>2026-04-18T13:08:13.001Z</time></trkpt><trkpt lat="44.35808750391538" lon="11.71099052952427"><ele>49.0</ele><time>2026-04-18T13:08:17.001Z</time></trkpt><trkpt lat="44.35818826564466" lon="11.711070689600719"><ele>48.666666666666664</ele><time>2026-04-18T13:08:19.001Z</time></trkpt><trkpt lat="44.358248210934846" lon="11.711121781502344"><ele>48.33333333333333</ele><time>2026-04-18T13:08:20.001Z</time></trkpt><trkpt lat="44.35831484493839" lon="11.711178919890187"><ele>48.0</ele><time>2026-04-18T13:08:21.001Z</time></trkpt><trkpt lat="44.35837710183867" lon="11.711233282747298"><ele>47.666666666666664</ele><time>2026-04-18T13:08:22.001Z</time></trkpt><trkpt lat="44.358444263087264" lon="11.711290815336577"><ele>47.33333333333333</ele><time>2026-04-18T13:08:23.001Z</time></trkpt><trkpt lat="44.35850784306736" lon="11.711346434964444"><ele>47.0</ele><time>2026-04-18T13:08:24.001Z</time></trkpt><trkpt lat="44.35857267388627" lon="11.71139977505574"><ele>47.0</ele><time>2026-04-18T13:08:25.001Z</time></trkpt><trkpt lat="44.3586365830851" lon="11.711453321334169"><ele>47.0</ele><time>2026-04-18T13:08:26.001Z</time></trkpt><trkpt lat="44.35870109893876" lon="11.711503542420013"><ele>47.0</ele><time>2026-04-18T13:08:27.001Z</time></trkpt><trkpt lat="44.358769315510195" lon="11.711555979560774"><ele>47.0</ele><time>2026-04-18T13:08:28.001Z</time></trkpt><trkpt lat="44.35883093859675" lon="11.711608611232624"><ele>47.0</ele><time>2026-04-18T13:08:29.001Z</time></trkpt><trkpt lat="44.358891663969295" lon="11.711662263509194"><ele>47.0</ele><time>2026-04-18T13:08:29.999Z</time></trkpt><trkpt lat="44.35894956587929" lon="11.711713570303496"><ele>47.0</ele><time>2026-04-18T13:08:30.999Z</time></trkpt><trkpt lat="44.3590082446656" lon="11.711767046083247"><ele>47.0</ele><time>2026-04-18T13:08:31.999Z</time></trkpt><trkpt lat="44.35907022857866" lon="11.711816382654163"><ele>47.0</ele><time>2026-04-18T13:08:32.999Z</time></trkpt><trkpt lat="44.35913039154405" lon="11.711868246175348"><ele>47.0</ele><time>2026-04-18T13:08:33.999Z</time></trkpt><trkpt lat="44.35918658111179" lon="11.711917786748446"><ele>47.0</ele><time>2026-04-18T13:08:34.999Z</time></trkpt><trkpt lat="44.35924512990927" lon="11.711965957207008"><ele>47.0</ele><time>2026-04-18T13:08:35.999Z</time></trkpt><trkpt lat="44.359301990033806" lon="11.712013835006552"><ele>47.0</ele><time>2026-04-18T13:08:36.999Z</time></trkpt><trkpt lat="44.35935738721473" lon="11.712064270276247"><ele>47.0</ele><time>2026-04-18T13:08:37.999Z</time></trkpt><trkpt lat="44.35940737414314" lon="11.712125505077873"><ele>46.8</ele><time>2026-04-18T13:08:38.999Z</time></trkpt><trkpt lat="44.359482588634464" lon="11.712251491733706"><ele>46.6</ele><time>2026-04-18T13:08:40.999Z</time></trkpt><trkpt lat="44.35954102670513" lon="11.712288184303759"><ele>46.4</ele><time>2026-04-18T13:08:41.999Z</time></trkpt><trkpt lat="44.35964044036351" lon="11.71237398251539"><ele>46.199999999999996</ele><time>2026-04-18T13:08:43.999Z</time></trkpt><trkpt lat="44.35969693671072" lon="11.71241619209705"><ele>46.0</ele><time>2026-04-18T13:08:44.999Z</time></trkpt><trkpt lat="44.35981036857611" lon="11.71246152656471"><ele>46.0</ele><time>2026-04-18T13:08:46.999Z</time></trkpt><trkpt lat="44.35987187187093" lon="11.712514272054811"><ele>46.0</ele><time>2026-04-18T13:08:48.999Z</time></trkpt><trkpt lat="44.35993248568685" lon="11.712566254705141"><ele>46.0</ele><time>2026-04-18T13:08:50.999Z</time></trkpt><trkpt lat="44.36001741667287" lon="11.712654228077799"><ele>46.0</ele><time>2026-04-18T13:08:53Z</time></trkpt><trkpt lat="44.360137879621035" lon="11.712707820989806"><ele>46.0</ele><time>2026-04-18T13:08:55Z</time></trkpt><trkpt lat="44.36020065613249" lon="11.712727815715137"><ele>46.0</ele><time>2026-04-18T13:08:56Z</time></trkpt><trkpt lat="44.36032121429259" lon="11.712780080869166"><ele>46.142857142857146</ele><time>2026-04-18T13:08:58Z</time></trkpt><trkpt lat="44.360386556887086" lon="11.712807452921966"><ele>46.285714285714285</ele><time>2026-04-18T13:08:59Z</time></trkpt><trkpt lat="44.3604511573823" lon="11.712832109680631"><ele>46.42857142857143</ele><time>2026-04-18T13:09:00Z</time></trkpt><trkpt lat="44.360516752892146" lon="11.712854700543843"><ele>46.57142857142857</ele><time>2026-04-18T13:09:01Z</time></trkpt><trkpt lat="44.36058247572069" lon="11.712879861363888"><ele>46.71428571428571</ele><time>2026-04-18T13:09:02Z</time></trkpt><trkpt lat="44.36065426477734" lon="11.712896383663777"><ele>46.857142857142854</ele><time>2026-04-18T13:09:03Z</time></trkpt><trkpt lat="44.36071815668489" lon="11.712913317542665"><ele>47.0</ele><time>2026-04-18T13:09:04Z</time></trkpt><trkpt lat="44.360783779408216" lon="11.712930770026025"><ele>46.33333333333333</ele><time>2026-04-18T13:09:05Z</time></trkpt><trkpt lat="44.36084885151432" lon="11.712953731640685"><ele>45.666666666666664</ele><time>2026-04-18T13:09:06Z</time></trkpt><trkpt lat="44.36092038348766" lon="11.712982830940824"><ele>45.0</ele><time>2026-04-18T13:09:07Z</time></trkpt><trkpt lat="44.36099211050705" lon="11.713017744700966"><ele>44.333333333333336</ele><time>2026-04-18T13:09:08Z</time></trkpt><trkpt lat="44.361062347681916" lon="11.713057665402173"><ele>43.66666666666667</ele><time>2026-04-18T13:09:09Z</time></trkpt><trkpt lat="44.36113557135447" lon="11.713101269908256"><ele>43.0</ele><time>2026-04-18T13:09:10Z</time></trkpt><trkpt lat="44.361210553647275" lon="11.713149585620762"><ele>43.0</ele><time>2026-04-18T13:09:11Z</time></trkpt><trkpt lat="44.36128626843097" lon="11.713199985769302"><ele>43.0</ele><time>2026-04-18T13:09:12Z</time></trkpt><trkpt lat="44.361363811078306" lon="11.713250667264301"><ele>43.0</ele><time>2026-04-18T13:09:13Z</time></trkpt><trkpt lat="44.36144483902713" lon="11.713303015345575"><ele>43.0</ele><time>2026-04-18T13:09:14Z</time></trkpt><trkpt lat="44.36152404085473" lon="11.713354708715858"><ele>43.0</ele><time>2026-04-18T13:09:15Z</time></trkpt><trkpt lat="44.361592940445625" lon="11.713417720206953"><ele>43.0</ele><time>2026-04-18T13:09:16Z</time></trkpt><trkpt lat="44.36166532426786" lon="11.71348209176787"><ele>42.85714285714286</ele><time>2026-04-18T13:09:17Z</time></trkpt><trkpt lat="44.36173566676053" lon="11.7135540840257"><ele>42.714285714285715</ele><time>2026-04-18T13:09:18Z</time></trkpt><trkpt lat="44.36179670277189" lon="11.71361942481127"><ele>42.57142857142857</ele><time>2026-04-18T13:09:19Z</time></trkpt><trkpt lat="44.36185479344059" lon="11.713654542398501"><ele>42.42857142857143</ele><time>2026-04-18T13:09:20Z</time></trkpt><trkpt lat="44.36191588250789" lon="11.713709658994887"><ele>42.285714285714285</ele><time>2026-04-18T13:09:21Z</time></trkpt><trkpt lat="44.361976919018616" lon="11.713762504496245"><ele>42.142857142857146</ele><time>2026-04-18T13:09:22Z</time></trkpt><trkpt lat="44.36203495177465" lon="11.713811373730348"><ele>42.0</ele><time>2026-04-18T13:09:23Z</time></trkpt><trkpt lat="44.362087902907504" lon="11.713860270816058"><ele>41.833333333333336</ele><time>2026-04-18T13:09:24Z</time></trkpt><trkpt lat="44.3621929601124" lon="11.713967876079916"><ele>41.666666666666664</ele><time>2026-04-18T13:09:26Z</time></trkpt><trkpt lat="44.362246405219466" lon="11.714018030573815"><ele>41.5</ele><time>2026-04-18T13:09:27Z</time></trkpt><trkpt lat="44.362303207690516" lon="11.7140665634003"><ele>41.33333333333333</ele><time>2026-04-18T13:09:28Z</time></trkpt><trkpt lat="44.362357256913505" lon="11.71411642565217"><ele>41.166666666666664</ele><time>2026-04-18T13:09:29Z</time></trkpt><trkpt lat="44.36240564002514" lon="11.714180272109955"><ele>41.0</ele><time>2026-04-18T13:09:30Z</time></trkpt><trkpt lat="44.362455870378824" lon="11.714239025747487"><ele>40.99999999999999</ele><time>2026-04-18T13:09:31Z</time></trkpt><trkpt lat="44.362521830786314" lon="11.714266615349334"><ele>41.0</ele><time>2026-04-18T13:09:32Z</time></trkpt><trkpt lat="44.362581958354674" lon="11.714316246846828"><ele>41.0</ele><time>2026-04-18T13:09:33Z</time></trkpt><trkpt lat="44.36264126456389" lon="11.714365200296665"><ele>41.0</ele><time>2026-04-18T13:09:34Z</time></trkpt><trkpt lat="44.362700726752024" lon="11.714414282526638"><ele>41.0</ele><time>2026-04-18T13:09:35Z</time></trkpt><trkpt lat="44.36276112401371" lon="11.714464136580618"><ele>40.99999999999999</ele><time>2026-04-18T13:09:36.001Z</time></trkpt><trkpt lat="44.36281668261523" lon="11.714528334390915"><ele>41.0</ele><time>2026-04-18T13:09:37.001Z</time></trkpt><trkpt lat="44.36287551407282" lon="11.714578497350706"><ele>41.0</ele><time>2026-04-18T13:09:38.001Z</time></trkpt><trkpt lat="44.362934857063074" lon="11.714627922952719"><ele>41.0</ele><time>2026-04-18T13:09:39.001Z</time></trkpt><trkpt lat="44.36299346142244" lon="11.714672203781058"><ele>41.0</ele><time>2026-04-18T13:09:40.001Z</time></trkpt><trkpt lat="44.36305363264646" lon="11.714721828490205"><ele>41.0</ele><time>2026-04-18T13:09:41.001Z</time></trkpt><trkpt lat="44.36310892318267" lon="11.714770748908975"><ele>41.0</ele><time>2026-04-18T13:09:42.001Z</time></trkpt><trkpt lat="44.36316654043057" lon="11.714813987253725"><ele>41.0</ele><time>2026-04-18T13:09:43.001Z</time></trkpt><trkpt lat="44.3632690043655" lon="11.71490388163018"><ele>41.0</ele><time>2026-04-18T13:09:45.001Z</time></trkpt><trkpt lat="44.363366620868064" lon="11.714982775565987"><ele>41.0</ele><time>2026-04-18T13:09:47.001Z</time></trkpt><trkpt lat="44.363460908031904" lon="11.715050012410257"><ele>41.0</ele><time>2026-04-18T13:09:49.001Z</time></trkpt><trkpt lat="44.363559234367145" lon="11.71510241083293"><ele>41.0</ele><time>2026-04-18T13:09:51.001Z</time></trkpt><trkpt lat="44.36365573579424" lon="11.715172628564698"><ele>41.0</ele><time>2026-04-18T13:09:53.001Z</time></trkpt><trkpt lat="44.36375979209107" lon="11.715253989362697"><ele>41.0</ele><time>2026-04-18T13:09:55.001Z</time></trkpt><trkpt lat="44.36381627528096" lon="11.715299658103564"><ele>41.0</ele><time>2026-04-18T13:09:56.001Z</time></trkpt><trkpt lat="44.36392418607666" lon="11.715381943924886"><ele>41.0</ele><time>2026-04-18T13:09:58.001Z</time></trkpt><trkpt lat="44.36402368002322" lon="11.715470626374325"><ele>41.0</ele><time>2026-04-18T13:10:00.001Z</time></trkpt><trkpt lat="44.364100922521175" lon="11.715522043972463"><ele>41.0</ele><time>2026-04-18T13:10:02.001Z</time></trkpt><trkpt lat="44.364278444084654" lon="11.715498577237048"><ele>41.14285714285714</ele><time>2026-04-18T13:10:04.001Z</time></trkpt><trkpt lat="44.36431046423652" lon="11.715418654915908"><ele>41.285714285714285</ele><time>2026-04-18T13:10:06.001Z</time></trkpt><trkpt lat="44.36435100946173" lon="11.71531795069318"><ele>41.42857142857143</ele><time>2026-04-18T13:10:08.001Z</time></trkpt><trkpt lat="44.36438766584045" lon="11.715226580842025"><ele>41.57142857142857</ele><time>2026-04-18T13:10:10.001Z</time></trkpt><trkpt lat="44.36441982839063" lon="11.715144081532507"><ele>41.714285714285715</ele><time>2026-04-18T13:10:12.001Z</time></trkpt><trkpt lat="44.364451870700684" lon="11.715061890671057"><ele>41.857142857142854</ele><time>2026-04-18T13:10:14.001Z</time></trkpt><trkpt lat="44.36448276386368" lon="11.714982647432906"><ele>42.0</ele><time>2026-04-18T13:10:16.001Z</time></trkpt><trkpt lat="44.364520410288236" lon="11.714886081621561"><ele>42.0</ele><time>2026-04-18T13:10:19.001Z</time></trkpt><trkpt lat="44.36456270114153" lon="11.71477760351635"><ele>42.0</ele><time>2026-04-18T13:10:22.001Z</time></trkpt><trkpt lat="44.364594937417976" lon="11.7146937892659"><ele>42.0</ele><time>2026-04-18T13:10:24.001Z</time></trkpt><trkpt lat="44.364625658046805" lon="11.714614418384823"><ele>42.0</ele><time>2026-04-18T13:10:26.001Z</time></trkpt><trkpt lat="44.36437186852139" lon="11.714370515794363"><ele>42.0</ele><time>2026-04-18T13:10:44.999Z</time></trkpt></trkseg></trk></gpx>